<?xml version='1.0' encoding='UTF-8'?><gpx version="1.1" creator="JPX - https://github.com/jenetics/jpx" xmlns="http://www.topografix.com/GPX/1/1"><trk><trkseg><trkpt lat="42.150006" lon="14.5850936"><ele>204.99999999999997</ele><time>2026-04-09T08:03:02.835Z</time></trkpt><trkpt lat="42.1499886" lon="14.584992"><ele>205.0</ele><time>2026-04-09T08:03:16.836Z</time></trkpt><trkpt lat="42.149964" lon="14.5850755"><ele>205.0</ele><time>2026-04-09T08:03:21.836Z</time></trkpt><trkpt lat="42.1499087" lon="14.5851947"><ele>205.0</ele><time>2026-04-09T08:03:23.836Z</time></trkpt><trkpt lat="42.1498641" lon="14.5852566"><ele>204.99999999999997</ele><time>2026-04-09T08:03:26.836Z</time></trkpt><trkpt lat="42.1499404" lon="14.5852779"><ele>205.0</ele><time>2026-04-09T08:03:48.836Z</time></trkpt><trkpt lat="42.1498748" lon="14.5852545"><ele>203.66666666666666</ele><time>2026-04-09T08:04:38.836Z</time></trkpt><trkpt lat="42.1498127" lon="14.5852055"><ele>202.33333333333331</ele><time>2026-04-09T08:04:44.836Z</time></trkpt><trkpt lat="42.1497314" lon="14.5851825"><ele>201.0</ele><time>2026-04-09T08:04:47.836Z</time></trkpt><trkpt lat="42.1496671" lon="14.5851619"><ele>199.66666666666669</ele><time>2026-04-09T08:04:50.836Z</time></trkpt><trkpt lat="42.1496013" lon="14.5851616"><ele>198.33333333333334</ele><time>2026-04-09T08:04:53.836Z</time></trkpt><trkpt lat="42.1495183" lon="14.585185"><ele>197.0</ele><time>2026-04-09T08:04:56.836Z</time></trkpt><trkpt lat="42.1494337" lon="14.5851793"><ele>197.0</ele><time>2026-04-09T08:04:59.837Z</time></trkpt><trkpt lat="42.1493592" lon="14.5851495"><ele>197.0</ele><time>2026-04-09T08:05:02.836Z</time></trkpt><trkpt lat="42.1492953" lon="14.5851302"><ele>197.0</ele><time>2026-04-09T08:05:05.836Z</time></trkpt><trkpt lat="42.1492506" lon="14.5850614"><ele>197.0</ele><time>2026-04-09T08:05:07.837Z</time></trkpt><trkpt lat="42.1492035" lon="14.585003"><ele>197.0</ele><time>2026-04-09T08:05:09.836Z</time></trkpt><trkpt lat="42.1491275" lon="14.5849473"><ele>197.0</ele><time>2026-04-09T08:05:12.836Z</time></trkpt><trkpt lat="42.149077" lon="14.5848804"><ele>197.0</ele><time>2026-04-09T08:05:16.836Z</time></trkpt><trkpt lat="42.1490823" lon="14.5847942"><ele>197.0</ele><time>2026-04-09T08:05:19.836Z</time></trkpt><trkpt lat="42.1491122" lon="14.5847175"><ele>197.0</ele><time>2026-04-09T08:05:22.837Z</time></trkpt><trkpt lat="42.1491456" lon="14.5846298"><ele>197.0</ele><time>2026-04-09T08:05:26.837Z</time></trkpt><trkpt lat="42.1491764" lon="14.5845465"><ele>197.0</ele><time>2026-04-09T08:05:29.837Z</time></trkpt><trkpt lat="42.1492065" lon="14.5844685"><ele>197.0</ele><time>2026-04-09T08:05:32.837Z</time></trkpt><trkpt lat="42.1492162" lon="14.5843745"><ele>197.0</ele><time>2026-04-09T08:05:36.837Z</time></trkpt><trkpt lat="42.1492228" lon="14.5842815"><ele>197.0</ele><time>2026-04-09T08:05:40.836Z</time></trkpt><trkpt lat="42.149202" lon="14.5841801"><ele>196.50000000000003</ele><time>2026-04-09T08:05:45.836Z</time></trkpt><trkpt lat="42.1491699" lon="14.5840828"><ele>196.0</ele><time>2026-04-09T08:05:48.836Z</time></trkpt><trkpt lat="42.1491948" lon="14.5839717"><ele>195.5</ele><time>2026-04-09T08:05:52.836Z</time></trkpt><trkpt lat="42.1492319" lon="14.5838834"><ele>195.0</ele><time>2026-04-09T08:05:55.836Z</time></trkpt><trkpt lat="42.1492634" lon="14.583784"><ele>194.50000000000003</ele><time>2026-04-09T08:05:58.836Z</time></trkpt><trkpt lat="42.1492641" lon="14.5836909"><ele>194.0</ele><time>2026-04-09T08:06:01.836Z</time></trkpt><trkpt lat="42.1492837" lon="14.5835966"><ele>194.0</ele><time>2026-04-09T08:06:04.836Z</time></trkpt><trkpt lat="42.1493035" lon="14.5835108"><ele>194.0</ele><time>2026-04-09T08:06:07.836Z</time></trkpt><trkpt lat="42.1493158" lon="14.583427"><ele>194.0</ele><time>2026-04-09T08:06:10.837Z</time></trkpt><trkpt lat="42.1493447" lon="14.5833309"><ele>194.0</ele><time>2026-04-09T08:06:13.836Z</time></trkpt><trkpt lat="42.1493617" lon="14.5832484"><ele>194.0</ele><time>2026-04-09T08:06:16.836Z</time></trkpt><trkpt lat="42.1493866" lon="14.5831413"><ele>194.0</ele><time>2026-04-09T08:06:20.836Z</time></trkpt><trkpt lat="42.1494088" lon="14.5830511"><ele>194.0</ele><time>2026-04-09T08:06:23.836Z</time></trkpt><trkpt lat="42.1494275" lon="14.5829631"><ele>194.0</ele><time>2026-04-09T08:06:26.837Z</time></trkpt><trkpt lat="42.1494458" lon="14.5828815"><ele>194.0</ele><time>2026-04-09T08:06:29.836Z</time></trkpt><trkpt lat="42.149457" lon="14.5827954"><ele>194.0</ele><time>2026-04-09T08:06:32.836Z</time></trkpt><trkpt lat="42.1494637" lon="14.5826897"><ele>194.0</ele><time>2026-04-09T08:06:36.837Z</time></trkpt><trkpt lat="42.1494749" lon="14.5825726"><ele>194.0</ele><time>2026-04-09T08:06:39.836Z</time></trkpt><trkpt lat="42.1494494" lon="14.5824737"><ele>194.0</ele><time>2026-04-09T08:06:42.837Z</time></trkpt><trkpt lat="42.1494059" lon="14.5824079"><ele>194.0</ele><time>2026-04-09T08:06:46.836Z</time></trkpt><trkpt lat="42.1493515" lon="14.5823261"><ele>195.16666666666669</ele><time>2026-04-09T08:06:50.836Z</time></trkpt><trkpt lat="42.1493089" lon="14.5822473"><ele>196.33333333333334</ele><time>2026-04-09T08:06:54.836Z</time></trkpt><trkpt lat="42.1492581" lon="14.5821849"><ele>197.5</ele><time>2026-04-09T08:06:59.836Z</time></trkpt><trkpt lat="42.1492149" lon="14.582112"><ele>198.66666666666669</ele><time>2026-04-09T08:07:03.837Z</time></trkpt><trkpt lat="42.1491678" lon="14.582019"><ele>199.83333333333334</ele><time>2026-04-09T08:07:07.836Z</time></trkpt><trkpt lat="42.149126" lon="14.5819256"><ele>201.0</ele><time>2026-04-09T08:07:10.836Z</time></trkpt><trkpt lat="42.1490842" lon="14.581828"><ele>199.42857142857142</ele><time>2026-04-09T08:07:13.837Z</time></trkpt><trkpt lat="42.1490392" lon="14.5817609"><ele>197.85714285714286</ele><time>2026-04-09T08:07:16.836Z</time></trkpt><trkpt lat="42.1489918" lon="14.5817031"><ele>196.28571428571428</ele><time>2026-04-09T08:07:19.836Z</time></trkpt><trkpt lat="42.1489424" lon="14.5816312"><ele>194.71428571428572</ele><time>2026-04-09T08:07:22.836Z</time></trkpt><trkpt lat="42.1488971" lon="14.5815617"><ele>193.14285714285717</ele><time>2026-04-09T08:07:25.836Z</time></trkpt><trkpt lat="42.1488585" lon="14.5814939"><ele>191.57142857142858</ele><time>2026-04-09T08:07:28.836Z</time></trkpt><trkpt lat="42.1488313" lon="14.5814109"><ele>190.0</ele><time>2026-04-09T08:07:31.836Z</time></trkpt><trkpt lat="42.1488096" lon="14.5813084"><ele>190.0</ele><time>2026-04-09T08:07:35.837Z</time></trkpt><trkpt lat="42.148797" lon="14.5812048"><ele>190.0</ele><time>2026-04-09T08:07:40.836Z</time></trkpt><trkpt lat="42.1487791" lon="14.5811161"><ele>190.0</ele><time>2026-04-09T08:07:45.836Z</time></trkpt><trkpt lat="42.1487697" lon="14.5810046"><ele>190.0</ele><time>2026-04-09T08:07:49.836Z</time></trkpt><trkpt lat="42.1487846" lon="14.5809024"><ele>190.0</ele><time>2026-04-09T08:07:52.836Z</time></trkpt><trkpt lat="42.1487952" lon="14.5808013"><ele>190.0</ele><time>2026-04-09T08:07:55.836Z</time></trkpt><trkpt lat="42.1487785" lon="14.5807143"><ele>190.0</ele><time>2026-04-09T08:07:58.836Z</time></trkpt><trkpt lat="42.1487639" lon="14.580628"><ele>192.14285714285714</ele><time>2026-04-09T08:08:02.836Z</time></trkpt><trkpt lat="42.1487335" lon="14.580552"><ele>194.28571428571428</ele><time>2026-04-09T08:08:06.836Z</time></trkpt><trkpt lat="42.1487029" lon="14.5804552"><ele>196.42857142857144</ele><time>2026-04-09T08:08:11.836Z</time></trkpt><trkpt lat="42.1487083" lon="14.5803691"><ele>198.57142857142856</ele><time>2026-04-09T08:08:14.836Z</time></trkpt><trkpt lat="42.1487128" lon="14.5802687"><ele>200.7142857142857</ele><time>2026-04-09T08:08:17.836Z</time></trkpt><trkpt lat="42.148706" lon="14.5801635"><ele>202.85714285714286</ele><time>2026-04-09T08:08:20.836Z</time></trkpt><trkpt lat="42.1486938" lon="14.580062"><ele>205.0</ele><time>2026-04-09T08:08:23.836Z</time></trkpt><trkpt lat="42.1486873" lon="14.5799598"><ele>206.16666666666666</ele><time>2026-04-09T08:08:26.836Z</time></trkpt><trkpt lat="42.1486949" lon="14.5798488"><ele>207.33333333333331</ele><time>2026-04-09T08:08:29.836Z</time></trkpt><trkpt lat="42.1487017" lon="14.5797526"><ele>208.5</ele><time>2026-04-09T08:08:31.836Z</time></trkpt><trkpt lat="42.1487036" lon="14.579667"><ele>209.66666666666669</ele><time>2026-04-09T08:08:33.836Z</time></trkpt><trkpt lat="42.1487014" lon="14.5795683"><ele>210.83333333333334</ele><time>2026-04-09T08:08:35.837Z</time></trkpt><trkpt lat="42.1487023" lon="14.5794698"><ele>212.0</ele><time>2026-04-09T08:08:37.837Z</time></trkpt><trkpt lat="42.1487087" lon="14.5793502"><ele>212.16666666666669</ele><time>2026-04-09T08:08:40.836Z</time></trkpt><trkpt lat="42.1487068" lon="14.579237"><ele>212.33333333333334</ele><time>2026-04-09T08:08:43.836Z</time></trkpt><trkpt lat="42.1487089" lon="14.5791227"><ele>212.5</ele><time>2026-04-09T08:08:46.836Z</time></trkpt><trkpt lat="42.1487109" lon="14.5790209"><ele>212.66666666666669</ele><time>2026-04-09T08:08:49.836Z</time></trkpt><trkpt lat="42.148704" lon="14.5789268"><ele>212.83333333333334</ele><time>2026-04-09T08:08:52.837Z</time></trkpt><trkpt lat="42.1486917" lon="14.5788183"><ele>213.0</ele><time>2026-04-09T08:08:56.836Z</time></trkpt><trkpt lat="42.1487117" lon="14.5787333"><ele>212.14285714285714</ele><time>2026-04-09T08:08:59.836Z</time></trkpt><trkpt lat="42.1487217" lon="14.5786367"><ele>211.28571428571428</ele><time>2026-04-09T08:09:03.836Z</time></trkpt><trkpt lat="42.14872" lon="14.57855"><ele>210.42857142857144</ele><time>2026-04-09T08:09:06.836Z</time></trkpt><trkpt lat="42.1487067" lon="14.578455"><ele>209.57142857142856</ele><time>2026-04-09T08:09:09.836Z</time></trkpt><trkpt lat="42.1486883" lon="14.5783383"><ele>208.71428571428572</ele><time>2026-04-09T08:09:12.836Z</time></trkpt><trkpt lat="42.14868" lon="14.5782533"><ele>207.85714285714286</ele><time>2026-04-09T08:09:14.836Z</time></trkpt><trkpt lat="42.1486817" lon="14.57815"><ele>207.0</ele><time>2026-04-09T08:09:17.836Z</time></trkpt><trkpt lat="42.1487083" lon="14.5780633"><ele>207.0</ele><time>2026-04-09T08:09:20.836Z</time></trkpt><trkpt lat="42.148745" lon="14.5779733"><ele>207.0</ele><time>2026-04-09T08:09:23.836Z</time></trkpt><trkpt lat="42.1487533" lon="14.5778633"><ele>207.0</ele><time>2026-04-09T08:09:28.836Z</time></trkpt><trkpt lat="42.1487683" lon="14.57777"><ele>207.0</ele><time>2026-04-09T08:09:31.836Z</time></trkpt><trkpt lat="42.1487833" lon="14.57766"><ele>207.0</ele><time>2026-04-09T08:09:34.836Z</time></trkpt><trkpt lat="42.1487867" lon="14.5775683"><ele>207.0</ele><time>2026-04-09T08:09:36.837Z</time></trkpt><trkpt lat="42.1487667" lon="14.5774617"><ele>205.71428571428572</ele><time>2026-04-09T08:09:39.836Z</time></trkpt><trkpt lat="42.148745" lon="14.577365"><ele>204.42857142857144</ele><time>2026-04-09T08:09:42.836Z</time></trkpt><trkpt lat="42.148735" lon="14.5772767"><ele>203.14285714285717</ele><time>2026-04-09T08:09:44.836Z</time></trkpt><trkpt lat="42.1487533" lon="14.577175"><ele>201.85714285714286</ele><time>2026-04-09T08:09:46.836Z</time></trkpt><trkpt lat="42.1487817" lon="14.57707"><ele>200.57142857142856</ele><time>2026-04-09T08:09:48.836Z</time></trkpt><trkpt lat="42.1488133" lon="14.57699"><ele>199.2857142857143</ele><time>2026-04-09T08:09:50.836Z</time></trkpt><trkpt lat="42.1488583" lon="14.5769083"><ele>198.0</ele><time>2026-04-09T08:09:52.836Z</time></trkpt><trkpt lat="42.1489033" lon="14.5768167"><ele>196.83333333333334</ele><time>2026-04-09T08:09:54.836Z</time></trkpt><trkpt lat="42.1489467" lon="14.5767183"><ele>195.66666666666666</ele><time>2026-04-09T08:09:56.836Z</time></trkpt><trkpt lat="42.1489967" lon="14.576615"><ele>194.5</ele><time>2026-04-09T08:09:58.837Z</time></trkpt><trkpt lat="42.1490383" lon="14.57651"><ele>193.33333333333331</ele><time>2026-04-09T08:10:00.837Z</time></trkpt><trkpt lat="42.1490733" lon="14.5764117"><ele>192.16666666666666</ele><time>2026-04-09T08:10:02.836Z</time></trkpt><trkpt lat="42.1491033" lon="14.5763133"><ele>191.0</ele><time>2026-04-09T08:10:04.837Z</time></trkpt><trkpt lat="42.14912" lon="14.576225"><ele>195.83333333333331</ele><time>2026-04-09T08:10:06.836Z</time></trkpt><trkpt lat="42.149155" lon="14.57609"><ele>200.66666666666666</ele><time>2026-04-09T08:10:08.836Z</time></trkpt><trkpt lat="42.1491683" lon="14.57598"><ele>205.5</ele><time>2026-04-09T08:10:10.836Z</time></trkpt><trkpt lat="42.149175" lon="14.57587"><ele>210.33333333333331</ele><time>2026-04-09T08:10:12.836Z</time></trkpt><trkpt lat="42.1491833" lon="14.5757633"><ele>215.16666666666666</ele><time>2026-04-09T08:10:14.836Z</time></trkpt><trkpt lat="42.1491883" lon="14.5756483"><ele>220.0</ele><time>2026-04-09T08:10:16.836Z</time></trkpt><trkpt lat="42.1491917" lon="14.5755383"><ele>219.99999999999997</ele><time>2026-04-09T08:10:18.836Z</time></trkpt><trkpt lat="42.1491933" lon="14.5754183"><ele>220.0</ele><time>2026-04-09T08:10:20.836Z</time></trkpt><trkpt lat="42.1491833" lon="14.5753033"><ele>220.0</ele><time>2026-04-09T08:10:22.837Z</time></trkpt><trkpt lat="42.149175" lon="14.5751883"><ele>220.0</ele><time>2026-04-09T08:10:24.836Z</time></trkpt><trkpt lat="42.1491683" lon="14.57507"><ele>219.99999999999997</ele><time>2026-04-09T08:10:26.836Z</time></trkpt><trkpt lat="42.1491683" lon="14.574955"><ele>220.0</ele><time>2026-04-09T08:10:28.837Z</time></trkpt><trkpt lat="42.14917" lon="14.574855"><ele>220.33333333333331</ele><time>2026-04-09T08:10:30.836Z</time></trkpt><trkpt lat="42.1491867" lon="14.5747467"><ele>220.66666666666666</ele><time>2026-04-09T08:10:32.836Z</time></trkpt><trkpt lat="42.1492033" lon="14.574655"><ele>221.0</ele><time>2026-04-09T08:10:34.837Z</time></trkpt><trkpt lat="42.149235" lon="14.5745583"><ele>221.33333333333331</ele><time>2026-04-09T08:10:36.836Z</time></trkpt><trkpt lat="42.14926" lon="14.574455"><ele>221.66666666666666</ele><time>2026-04-09T08:10:38.836Z</time></trkpt><trkpt lat="42.1492817" lon="14.5743533"><ele>222.0</ele><time>2026-04-09T08:10:40.837Z</time></trkpt><trkpt lat="42.1493067" lon="14.574245"><ele>221.33333333333334</ele><time>2026-04-09T08:10:42.836Z</time></trkpt><trkpt lat="42.14931" lon="14.5741467"><ele>220.66666666666669</ele><time>2026-04-09T08:10:44.836Z</time></trkpt><trkpt lat="42.1492967" lon="14.57405"><ele>220.0</ele><time>2026-04-09T08:10:46.836Z</time></trkpt><trkpt lat="42.1492817" lon="14.573965"><ele>219.33333333333334</ele><time>2026-04-09T08:10:48.836Z</time></trkpt><trkpt lat="42.1492567" lon="14.5738"><ele>218.66666666666669</ele><time>2026-04-09T08:11:10.836Z</time></trkpt><trkpt lat="42.1492417" lon="14.573685"><ele>218.0</ele><time>2026-04-09T08:11:14.836Z</time></trkpt><trkpt lat="42.1492417" lon="14.5735683"><ele>217.66666666666669</ele><time>2026-04-09T08:11:17.836Z</time></trkpt><trkpt lat="42.1492533" lon="14.5734717"><ele>217.33333333333334</ele><time>2026-04-09T08:11:20.837Z</time></trkpt><trkpt lat="42.1493" lon="14.5733933"><ele>217.0</ele><time>2026-04-09T08:11:22.836Z</time></trkpt><trkpt lat="42.14934" lon="14.5732917"><ele>216.66666666666669</ele><time>2026-04-09T08:11:24.836Z</time></trkpt><trkpt lat="42.14936" lon="14.5731833"><ele>216.33333333333334</ele><time>2026-04-09T08:11:26.836Z</time></trkpt><trkpt lat="42.149365" lon="14.5730733"><ele>216.0</ele><time>2026-04-09T08:11:28.837Z</time></trkpt><trkpt lat="42.1493617" lon="14.5729583"><ele>215.28571428571428</ele><time>2026-04-09T08:11:30.836Z</time></trkpt><trkpt lat="42.1493567" lon="14.5728483"><ele>214.57142857142856</ele><time>2026-04-09T08:11:32.836Z</time></trkpt><trkpt lat="42.1493433" lon="14.5727533"><ele>213.85714285714286</ele><time>2026-04-09T08:11:34.836Z</time></trkpt><trkpt lat="42.1493383" lon="14.5726517"><ele>213.14285714285714</ele><time>2026-04-09T08:11:36.836Z</time></trkpt><trkpt lat="42.1493483" lon="14.5725483"><ele>212.42857142857144</ele><time>2026-04-09T08:11:38.836Z</time></trkpt><trkpt lat="42.1493783" lon="14.5724733"><ele>211.71428571428572</ele><time>2026-04-09T08:11:40.836Z</time></trkpt><trkpt lat="42.14942" lon="14.5723933"><ele>211.0</ele><time>2026-04-09T08:11:42.836Z</time></trkpt><trkpt lat="42.1494617" lon="14.5723267"><ele>211.0</ele><time>2026-04-09T08:11:44.836Z</time></trkpt><trkpt lat="42.1495067" lon="14.5722567"><ele>211.0</ele><time>2026-04-09T08:11:46.836Z</time></trkpt><trkpt lat="42.149565" lon="14.5721483"><ele>211.0</ele><time>2026-04-09T08:11:49.836Z</time></trkpt><trkpt lat="42.1496" lon="14.57207"><ele>211.0</ele><time>2026-04-09T08:11:51.836Z</time></trkpt><trkpt lat="42.1496367" lon="14.57198"><ele>211.0</ele><time>2026-04-09T08:11:53.836Z</time></trkpt><trkpt lat="42.1496733" lon="14.5719017"><ele>211.0</ele><time>2026-04-09T08:11:55.836Z</time></trkpt><trkpt lat="42.1496933" lon="14.5718183"><ele>211.0</ele><time>2026-04-09T08:11:57.837Z</time></trkpt><trkpt lat="42.1497133" lon="14.5717267"><ele>209.99999999999997</ele><time>2026-04-09T08:11:59.836Z</time></trkpt><trkpt lat="42.1497333" lon="14.5716333"><ele>209.0</ele><time>2026-04-09T08:12:01.836Z</time></trkpt><trkpt lat="42.1497467" lon="14.57153"><ele>208.0</ele><time>2026-04-09T08:12:03.836Z</time></trkpt><trkpt lat="42.14976" lon="14.571425"><ele>207.0</ele><time>2026-04-09T08:12:05.836Z</time></trkpt><trkpt lat="42.1497783" lon="14.5713233"><ele>205.99999999999997</ele><time>2026-04-09T08:12:07.836Z</time></trkpt><trkpt lat="42.1497967" lon="14.5712183"><ele>205.0</ele><time>2026-04-09T08:12:09.836Z</time></trkpt><trkpt lat="42.14981" lon="14.5711017"><ele>204.66666666666666</ele><time>2026-04-09T08:12:11.836Z</time></trkpt><trkpt lat="42.149815" lon="14.5709767"><ele>204.33333333333331</ele><time>2026-04-09T08:12:13.836Z</time></trkpt><trkpt lat="42.149815" lon="14.5708633"><ele>204.0</ele><time>2026-04-09T08:12:15.836Z</time></trkpt><trkpt lat="42.149815" lon="14.5707717"><ele>203.66666666666669</ele><time>2026-04-09T08:12:17.836Z</time></trkpt><trkpt lat="42.1497967" lon="14.57063"><ele>203.33333333333334</ele><time>2026-04-09T08:12:20.837Z</time></trkpt><trkpt lat="42.1497783" lon="14.57053"><ele>203.0</ele><time>2026-04-09T08:12:22.837Z</time></trkpt><trkpt lat="42.1497583" lon="14.5704267"><ele>204.00000000000003</ele><time>2026-04-09T08:12:24.836Z</time></trkpt><trkpt lat="42.1497317" lon="14.5703267"><ele>205.0</ele><time>2026-04-09T08:12:26.836Z</time></trkpt><trkpt lat="42.1497083" lon="14.5702233"><ele>206.0</ele><time>2026-04-09T08:12:28.836Z</time></trkpt><trkpt lat="42.1496717" lon="14.5701367"><ele>207.0</ele><time>2026-04-09T08:12:30.836Z</time></trkpt><trkpt lat="42.1496283" lon="14.5700483"><ele>208.00000000000003</ele><time>2026-04-09T08:12:32.836Z</time></trkpt><trkpt lat="42.14958" lon="14.56995"><ele>209.0</ele><time>2026-04-09T08:12:34.837Z</time></trkpt><trkpt lat="42.1495333" lon="14.5698517"><ele>209.00000000000003</ele><time>2026-04-09T08:12:36.836Z</time></trkpt><trkpt lat="42.149495" lon="14.56974"><ele>209.0</ele><time>2026-04-09T08:12:38.836Z</time></trkpt><trkpt lat="42.14947" lon="14.56962"><ele>209.0</ele><time>2026-04-09T08:12:40.836Z</time></trkpt><trkpt lat="42.1494583" lon="14.569505"><ele>209.0</ele><time>2026-04-09T08:12:42.836Z</time></trkpt><trkpt lat="42.14948" lon="14.5693883"><ele>209.00000000000003</ele><time>2026-04-09T08:12:44.836Z</time></trkpt><trkpt lat="42.1495117" lon="14.569295"><ele>209.0</ele><time>2026-04-09T08:12:46.836Z</time></trkpt><trkpt lat="42.1495533" lon="14.5692183"><ele>209.33333333333334</ele><time>2026-04-09T08:12:48.836Z</time></trkpt><trkpt lat="42.1496067" lon="14.5691583"><ele>209.66666666666669</ele><time>2026-04-09T08:12:50.836Z</time></trkpt><trkpt lat="42.1496617" lon="14.5690967"><ele>210.0</ele><time>2026-04-09T08:12:52.836Z</time></trkpt><trkpt lat="42.1497267" lon="14.5690333"><ele>210.33333333333331</ele><time>2026-04-09T08:12:54.837Z</time></trkpt><trkpt lat="42.1498" lon="14.5689717"><ele>210.66666666666666</ele><time>2026-04-09T08:12:56.837Z</time></trkpt><trkpt lat="42.149875" lon="14.5688917"><ele>211.0</ele><time>2026-04-09T08:12:58.836Z</time></trkpt><trkpt lat="42.1499517" lon="14.5688133"><ele>211.49999999999997</ele><time>2026-04-09T08:13:00.836Z</time></trkpt><trkpt lat="42.1500183" lon="14.5687433"><ele>212.0</ele><time>2026-04-09T08:13:02.836Z</time></trkpt><trkpt lat="42.150075" lon="14.56868"><ele>212.5</ele><time>2026-04-09T08:13:04.836Z</time></trkpt><trkpt lat="42.1501467" lon="14.56861"><ele>213.0</ele><time>2026-04-09T08:13:06.836Z</time></trkpt><trkpt lat="42.1502267" lon="14.5685483"><ele>213.49999999999997</ele><time>2026-04-09T08:13:08.837Z</time></trkpt><trkpt lat="42.1503017" lon="14.5684933"><ele>214.0</ele><time>2026-04-09T08:13:10.836Z</time></trkpt><trkpt lat="42.1503733" lon="14.56843"><ele>214.0</ele><time>2026-04-09T08:13:12.836Z</time></trkpt><trkpt lat="42.1504483" lon="14.5683633"><ele>213.99999999999997</ele><time>2026-04-09T08:13:14.836Z</time></trkpt><trkpt lat="42.1505217" lon="14.5682917"><ele>213.99999999999997</ele><time>2026-04-09T08:13:16.836Z</time></trkpt><trkpt lat="42.1506017" lon="14.5682283"><ele>214.0</ele><time>2026-04-09T08:13:18.836Z</time></trkpt><trkpt lat="42.1506817" lon="14.5681683"><ele>214.0</ele><time>2026-04-09T08:13:20.837Z</time></trkpt><trkpt lat="42.1507633" lon="14.568115"><ele>216.99999999999997</ele><time>2026-04-09T08:13:22.836Z</time></trkpt><trkpt lat="42.1508467" lon="14.568085"><ele>220.0</ele><time>2026-04-09T08:13:24.836Z</time></trkpt><trkpt lat="42.1509383" lon="14.5680833"><ele>223.0</ele><time>2026-04-09T08:13:26.836Z</time></trkpt><trkpt lat="42.15102" lon="14.5680833"><ele>226.0</ele><time>2026-04-09T08:13:28.836Z</time></trkpt><trkpt lat="42.151105" lon="14.5681033"><ele>228.99999999999997</ele><time>2026-04-09T08:13:30.836Z</time></trkpt><trkpt lat="42.1511917" lon="14.5681183"><ele>232.0</ele><time>2026-04-09T08:13:32.836Z</time></trkpt><trkpt lat="42.1512867" lon="14.5681383"><ele>232.0</ele><time>2026-04-09T08:13:34.836Z</time></trkpt><trkpt lat="42.151375" lon="14.568165"><ele>232.0</ele><time>2026-04-09T08:13:36.836Z</time></trkpt><trkpt lat="42.1514583" lon="14.5681883"><ele>232.0</ele><time>2026-04-09T08:13:38.836Z</time></trkpt><trkpt lat="42.151545" lon="14.568205"><ele>232.0</ele><time>2026-04-09T08:13:40.836Z</time></trkpt><trkpt lat="42.15165" lon="14.5682117"><ele>232.0</ele><time>2026-04-09T08:13:42.836Z</time></trkpt><trkpt lat="42.1517583" lon="14.5682083"><ele>231.2</ele><time>2026-04-09T08:13:44.836Z</time></trkpt><trkpt lat="42.1518733" lon="14.568195"><ele>230.39999999999998</ele><time>2026-04-09T08:13:46.836Z</time></trkpt><trkpt lat="42.1519917" lon="14.56819"><ele>229.60000000000002</ele><time>2026-04-09T08:13:48.836Z</time></trkpt><trkpt lat="42.1521117" lon="14.5681967"><ele>228.8</ele><time>2026-04-09T08:13:50.836Z</time></trkpt><trkpt lat="42.152175" lon="14.5681933"><ele>228.0</ele><time>2026-04-09T08:13:51.836Z</time></trkpt><trkpt lat="42.1522383" lon="14.56819"><ele>228.0</ele><time>2026-04-09T08:13:52.836Z</time></trkpt><trkpt lat="42.1523617" lon="14.5681883"><ele>228.0</ele><time>2026-04-09T08:13:54.837Z</time></trkpt><trkpt lat="42.1524267" lon="14.5681867"><ele>228.0</ele><time>2026-04-09T08:13:55.836Z</time></trkpt><trkpt lat="42.1524933" lon="14.56818"><ele>228.0</ele><time>2026-04-09T08:13:56.837Z</time></trkpt><trkpt lat="42.1525567" lon="14.5681767"><ele>228.0</ele><time>2026-04-09T08:13:57.836Z</time></trkpt><trkpt lat="42.152625" lon="14.5681717"><ele>228.0</ele><time>2026-04-09T08:13:58.836Z</time></trkpt><trkpt lat="42.1526967" lon="14.5681683"><ele>227.16666666666666</ele><time>2026-04-09T08:13:59.837Z</time></trkpt><trkpt lat="42.15277" lon="14.5681717"><ele>226.33333333333331</ele><time>2026-04-09T08:14:00.837Z</time></trkpt><trkpt lat="42.1528433" lon="14.5681783"><ele>225.5</ele><time>2026-04-09T08:14:01.836Z</time></trkpt><trkpt lat="42.15292" lon="14.568185"><ele>224.66666666666666</ele><time>2026-04-09T08:14:02.836Z</time></trkpt><trkpt lat="42.152995" lon="14.5682083"><ele>223.83333333333331</ele><time>2026-04-09T08:14:03.836Z</time></trkpt><trkpt lat="42.1530767" lon="14.5682383"><ele>223.0</ele><time>2026-04-09T08:14:04.837Z</time></trkpt><trkpt lat="42.1531467" lon="14.568285"><ele>223.14285714285714</ele><time>2026-04-09T08:14:05.836Z</time></trkpt><trkpt lat="42.153215" lon="14.5683383"><ele>223.28571428571428</ele><time>2026-04-09T08:14:06.836Z</time></trkpt><trkpt lat="42.153275" lon="14.5683933"><ele>223.42857142857144</ele><time>2026-04-09T08:14:07.836Z</time></trkpt><trkpt lat="42.1533317" lon="14.5684533"><ele>223.57142857142856</ele><time>2026-04-09T08:14:08.836Z</time></trkpt><trkpt lat="42.1533883" lon="14.5685167"><ele>223.71428571428572</ele><time>2026-04-09T08:14:09.837Z</time></trkpt><trkpt lat="42.153445" lon="14.5685783"><ele>223.85714285714286</ele><time>2026-04-09T08:14:10.836Z</time></trkpt><trkpt lat="42.1535017" lon="14.5686383"><ele>224.0</ele><time>2026-04-09T08:14:11.837Z</time></trkpt><trkpt lat="42.15356" lon="14.5686883"><ele>222.71428571428572</ele><time>2026-04-09T08:14:12.836Z</time></trkpt><trkpt lat="42.15362" lon="14.56875"><ele>221.42857142857144</ele><time>2026-04-09T08:14:13.836Z</time></trkpt><trkpt lat="42.15368" lon="14.56881"><ele>220.14285714285714</ele><time>2026-04-09T08:14:14.836Z</time></trkpt><trkpt lat="42.15374" lon="14.5688717"><ele>218.85714285714286</ele><time>2026-04-09T08:14:15.836Z</time></trkpt><trkpt lat="42.1537967" lon="14.56893"><ele>217.57142857142858</ele><time>2026-04-09T08:14:16.836Z</time></trkpt><trkpt lat="42.1538567" lon="14.5689917"><ele>216.28571428571428</ele><time>2026-04-09T08:14:17.837Z</time></trkpt><trkpt lat="42.1539183" lon="14.5690467"><ele>215.0</ele><time>2026-04-09T08:14:18.836Z</time></trkpt><trkpt lat="42.1539833" lon="14.5691"><ele>215.57142857142856</ele><time>2026-04-09T08:14:19.836Z</time></trkpt><trkpt lat="42.1540433" lon="14.5691567"><ele>216.14285714285717</ele><time>2026-04-09T08:14:20.836Z</time></trkpt><trkpt lat="42.1541" lon="14.5692167"><ele>216.71428571428572</ele><time>2026-04-09T08:14:21.836Z</time></trkpt><trkpt lat="42.154155" lon="14.5692733"><ele>217.28571428571428</ele><time>2026-04-09T08:14:22.836Z</time></trkpt><trkpt lat="42.15421" lon="14.5693317"><ele>217.85714285714283</ele><time>2026-04-09T08:14:23.836Z</time></trkpt><trkpt lat="42.154265" lon="14.5693867"><ele>218.42857142857144</ele><time>2026-04-09T08:14:24.836Z</time></trkpt><trkpt lat="42.1543217" lon="14.569445"><ele>219.0</ele><time>2026-04-09T08:14:25.836Z</time></trkpt><trkpt lat="42.1543783" lon="14.5694967"><ele>217.33333333333334</ele><time>2026-04-09T08:14:26.836Z</time></trkpt><trkpt lat="42.1544317" lon="14.56955"><ele>215.66666666666669</ele><time>2026-04-09T08:14:27.836Z</time></trkpt><trkpt lat="42.1544917" lon="14.5696017"><ele>214.0</ele><time>2026-04-09T08:14:28.837Z</time></trkpt><trkpt lat="42.1545533" lon="14.569655"><ele>212.33333333333334</ele><time>2026-04-09T08:14:29.836Z</time></trkpt><trkpt lat="42.1546233" lon="14.5697067"><ele>210.66666666666669</ele><time>2026-04-09T08:14:30.837Z</time></trkpt><trkpt lat="42.1546933" lon="14.5697567"><ele>209.0</ele><time>2026-04-09T08:14:31.836Z</time></trkpt><trkpt lat="42.1547633" lon="14.56981"><ele>209.0</ele><time>2026-04-09T08:14:32.836Z</time></trkpt><trkpt lat="42.1548283" lon="14.5698667"><ele>209.0</ele><time>2026-04-09T08:14:33.836Z</time></trkpt><trkpt lat="42.1548883" lon="14.569925"><ele>209.0</ele><time>2026-04-09T08:14:34.836Z</time></trkpt><trkpt lat="42.154945" lon="14.569985"><ele>209.0</ele><time>2026-04-09T08:14:35.836Z</time></trkpt><trkpt lat="42.1549967" lon="14.570045"><ele>209.0</ele><time>2026-04-09T08:14:36.836Z</time></trkpt><trkpt lat="42.1550467" lon="14.5701133"><ele>209.0</ele><time>2026-04-09T08:14:37.836Z</time></trkpt><trkpt lat="42.1551017" lon="14.570185"><ele>209.0</ele><time>2026-04-09T08:14:38.836Z</time></trkpt><trkpt lat="42.1551567" lon="14.5702583"><ele>209.57142857142856</ele><time>2026-04-09T08:14:39.836Z</time></trkpt><trkpt lat="42.15521" lon="14.57033"><ele>210.14285714285714</ele><time>2026-04-09T08:14:40.836Z</time></trkpt><trkpt lat="42.1552633" lon="14.5703983"><ele>210.71428571428572</ele><time>2026-04-09T08:14:41.836Z</time></trkpt><trkpt lat="42.1553183" lon="14.570465"><ele>211.28571428571428</ele><time>2026-04-09T08:14:42.836Z</time></trkpt><trkpt lat="42.155375" lon="14.5705283"><ele>211.85714285714286</ele><time>2026-04-09T08:14:43.836Z</time></trkpt><trkpt lat="42.1554267" lon="14.5705867"><ele>212.42857142857142</ele><time>2026-04-09T08:14:44.836Z</time></trkpt><trkpt lat="42.1554767" lon="14.5706467"><ele>213.0</ele><time>2026-04-09T08:14:45.836Z</time></trkpt><trkpt lat="42.1555333" lon="14.5707"><ele>212.57142857142856</ele><time>2026-04-09T08:14:46.836Z</time></trkpt><trkpt lat="42.15559" lon="14.57075"><ele>212.14285714285714</ele><time>2026-04-09T08:14:47.837Z</time></trkpt><trkpt lat="42.15565" lon="14.5708017"><ele>211.71428571428572</ele><time>2026-04-09T08:14:48.837Z</time></trkpt><trkpt lat="42.1557117" lon="14.5708517"><ele>211.28571428571428</ele><time>2026-04-09T08:14:49.836Z</time></trkpt><trkpt lat="42.15577" lon="14.5709017"><ele>210.85714285714286</ele><time>2026-04-09T08:14:50.836Z</time></trkpt><trkpt lat="42.1558333" lon="14.57094"><ele>210.42857142857142</ele><time>2026-04-09T08:14:51.836Z</time></trkpt><trkpt lat="42.155895" lon="14.5709783"><ele>210.0</ele><time>2026-04-09T08:14:52.836Z</time></trkpt><trkpt lat="42.1559567" lon="14.5710083"><ele>210.0</ele><time>2026-04-09T08:14:53.836Z</time></trkpt><trkpt lat="42.15602" lon="14.5710467"><ele>210.0</ele><time>2026-04-09T08:14:54.836Z</time></trkpt><trkpt lat="42.156085" lon="14.57108"><ele>210.0</ele><time>2026-04-09T08:14:55.836Z</time></trkpt><trkpt lat="42.15615" lon="14.57111"><ele>210.0</ele><time>2026-04-09T08:14:56.836Z</time></trkpt><trkpt lat="42.1562233" lon="14.5711433"><ele>210.0</ele><time>2026-04-09T08:14:57.836Z</time></trkpt><trkpt lat="42.1562867" lon="14.5711867"><ele>210.0</ele><time>2026-04-09T08:14:58.836Z</time></trkpt><trkpt lat="42.1563483" lon="14.571235"><ele>210.0</ele><time>2026-04-09T08:14:59.837Z</time></trkpt><trkpt lat="42.156405" lon="14.5712917"><ele>209.42857142857142</ele><time>2026-04-09T08:15:00.836Z</time></trkpt><trkpt lat="42.1564617" lon="14.5713633"><ele>208.85714285714286</ele><time>2026-04-09T08:15:01.836Z</time></trkpt><trkpt lat="42.1565167" lon="14.5714383"><ele>208.28571428571428</ele><time>2026-04-09T08:15:02.837Z</time></trkpt><trkpt lat="42.156565" lon="14.571505"><ele>207.71428571428572</ele><time>2026-04-09T08:15:03.836Z</time></trkpt><trkpt lat="42.1566083" lon="14.5715667"><ele>207.14285714285714</ele><time>2026-04-09T08:15:04.836Z</time></trkpt><trkpt lat="42.1566567" lon="14.5716317"><ele>206.57142857142856</ele><time>2026-04-09T08:15:05.836Z</time></trkpt><trkpt lat="42.1567" lon="14.5716967"><ele>206.0</ele><time>2026-04-09T08:15:06.836Z</time></trkpt><trkpt lat="42.1567517" lon="14.5717567"><ele>205.99999999999997</ele><time>2026-04-09T08:15:07.836Z</time></trkpt><trkpt lat="42.1568067" lon="14.5718167"><ele>206.0</ele><time>2026-04-09T08:15:08.836Z</time></trkpt><trkpt lat="42.156855" lon="14.571875"><ele>206.0</ele><time>2026-04-09T08:15:09.837Z</time></trkpt><trkpt lat="42.156905" lon="14.5719367"><ele>206.0</ele><time>2026-04-09T08:15:10.836Z</time></trkpt><trkpt lat="42.156955" lon="14.5720017"><ele>206.0</ele><time>2026-04-09T08:15:11.836Z</time></trkpt><trkpt lat="42.157005" lon="14.57207"><ele>205.99999999999997</ele><time>2026-04-09T08:15:12.836Z</time></trkpt><trkpt lat="42.1570567" lon="14.57213"><ele>206.0</ele><time>2026-04-09T08:15:13.836Z</time></trkpt><trkpt lat="42.1571067" lon="14.5721867"><ele>205.28571428571428</ele><time>2026-04-09T08:15:14.836Z</time></trkpt><trkpt lat="42.1571617" lon="14.572235"><ele>204.57142857142856</ele><time>2026-04-09T08:15:15.836Z</time></trkpt><trkpt lat="42.1572183" lon="14.572275"><ele>203.85714285714283</ele><time>2026-04-09T08:15:16.836Z</time></trkpt><trkpt lat="42.1572783" lon="14.57231"><ele>203.14285714285714</ele><time>2026-04-09T08:15:17.837Z</time></trkpt><trkpt lat="42.157345" lon="14.5723367"><ele>202.42857142857144</ele><time>2026-04-09T08:15:18.836Z</time></trkpt><trkpt lat="42.157415" lon="14.57236"><ele>201.7142857142857</ele><time>2026-04-09T08:15:19.837Z</time></trkpt><trkpt lat="42.1574833" lon="14.572375"><ele>201.0</ele><time>2026-04-09T08:15:20.836Z</time></trkpt><trkpt lat="42.1575533" lon="14.5723817"><ele>201.0</ele><time>2026-04-09T08:15:21.836Z</time></trkpt><trkpt lat="42.15762" lon="14.57238"><ele>201.0</ele><time>2026-04-09T08:15:22.837Z</time></trkpt><trkpt lat="42.1576883" lon="14.5723717"><ele>201.0</ele><time>2026-04-09T08:15:23.837Z</time></trkpt><trkpt lat="42.15776" lon="14.5723483"><ele>201.0</ele><time>2026-04-09T08:15:24.836Z</time></trkpt><trkpt lat="42.1578283" lon="14.57232"><ele>201.0</ele><time>2026-04-09T08:15:25.836Z</time></trkpt><trkpt lat="42.1578933" lon="14.5722833"><ele>201.0</ele><time>2026-04-09T08:15:26.836Z</time></trkpt><trkpt lat="42.1579583" lon="14.57224"><ele>201.0</ele><time>2026-04-09T08:15:27.836Z</time></trkpt><trkpt lat="42.1580233" lon="14.5721933"><ele>201.0</ele><time>2026-04-09T08:15:28.836Z</time></trkpt><trkpt lat="42.15809" lon="14.57215"><ele>201.0</ele><time>2026-04-09T08:15:29.837Z</time></trkpt><trkpt lat="42.1581583" lon="14.5721033"><ele>201.0</ele><time>2026-04-09T08:15:30.836Z</time></trkpt><trkpt lat="42.1582233" lon="14.5720467"><ele>201.0</ele><time>2026-04-09T08:15:31.836Z</time></trkpt><trkpt lat="42.1582883" lon="14.5719983"><ele>201.0</ele><time>2026-04-09T08:15:32.836Z</time></trkpt><trkpt lat="42.1583433" lon="14.5719517"><ele>201.0</ele><time>2026-04-09T08:15:33.836Z</time></trkpt><trkpt lat="42.158405" lon="14.5719017"><ele>201.0</ele><time>2026-04-09T08:15:34.836Z</time></trkpt><trkpt lat="42.15847" lon="14.5718467"><ele>201.0</ele><time>2026-04-09T08:15:35.836Z</time></trkpt><trkpt lat="42.1585283" lon="14.57178"><ele>201.0</ele><time>2026-04-09T08:15:36.837Z</time></trkpt><trkpt lat="42.1585767" lon="14.57171"><ele>201.0</ele><time>2026-04-09T08:15:37.837Z</time></trkpt><trkpt lat="42.1586183" lon="14.57163"><ele>201.0</ele><time>2026-04-09T08:15:38.836Z</time></trkpt><trkpt lat="42.158655" lon="14.5715367"><ele>201.0</ele><time>2026-04-09T08:15:39.836Z</time></trkpt><trkpt lat="42.1586783" lon="14.57144"><ele>201.0</ele><time>2026-04-09T08:15:40.836Z</time></trkpt><trkpt lat="42.1586967" lon="14.5713433"><ele>201.0</ele><time>2026-04-09T08:15:41.836Z</time></trkpt><trkpt lat="42.158715" lon="14.5712467"><ele>201.66666666666666</ele><time>2026-04-09T08:15:42.836Z</time></trkpt><trkpt lat="42.1587233" lon="14.57114"><ele>202.33333333333331</ele><time>2026-04-09T08:15:43.836Z</time></trkpt><trkpt lat="42.1587367" lon="14.5710483"><ele>203.0</ele><time>2026-04-09T08:15:44.836Z</time></trkpt><trkpt lat="42.1587483" lon="14.5709533"><ele>203.66666666666666</ele><time>2026-04-09T08:15:45.836Z</time></trkpt><trkpt lat="42.158755" lon="14.5708467"><ele>204.33333333333331</ele><time>2026-04-09T08:15:46.836Z</time></trkpt><trkpt lat="42.1587633" lon="14.57074"><ele>205.0</ele><time>2026-04-09T08:15:47.836Z</time></trkpt><trkpt lat="42.1587733" lon="14.570635"><ele>204.99999999999997</ele><time>2026-04-09T08:15:48.836Z</time></trkpt><trkpt lat="42.158785" lon="14.5705267"><ele>205.0</ele><time>2026-04-09T08:15:49.836Z</time></trkpt><trkpt lat="42.1587933" lon="14.570425"><ele>205.0</ele><time>2026-04-09T08:15:50.836Z</time></trkpt><trkpt lat="42.1588017" lon="14.5703233"><ele>205.0</ele><time>2026-04-09T08:15:51.836Z</time></trkpt><trkpt lat="42.1588117" lon="14.5702233"><ele>204.99999999999997</ele><time>2026-04-09T08:15:52.836Z</time></trkpt><trkpt lat="42.1588233" lon="14.570115"><ele>205.0</ele><time>2026-04-09T08:15:53.836Z</time></trkpt><trkpt lat="42.1588367" lon="14.5700117"><ele>204.83333333333331</ele><time>2026-04-09T08:15:54.836Z</time></trkpt><trkpt lat="42.1588583" lon="14.5699083"><ele>204.66666666666666</ele><time>2026-04-09T08:15:55.837Z</time></trkpt><trkpt lat="42.15889" lon="14.569815"><ele>204.5</ele><time>2026-04-09T08:15:56.836Z</time></trkpt><trkpt lat="42.1589383" lon="14.56973"><ele>204.33333333333331</ele><time>2026-04-09T08:15:57.836Z</time></trkpt><trkpt lat="42.159" lon="14.5696583"><ele>204.16666666666666</ele><time>2026-04-09T08:15:58.837Z</time></trkpt><trkpt lat="42.1590717" lon="14.5696083"><ele>204.0</ele><time>2026-04-09T08:15:59.836Z</time></trkpt><trkpt lat="42.1591517" lon="14.5695817"><ele>202.2</ele><time>2026-04-09T08:16:00.836Z</time></trkpt><trkpt lat="42.1592267" lon="14.5695617"><ele>200.39999999999998</ele><time>2026-04-09T08:16:01.837Z</time></trkpt><trkpt lat="42.1592983" lon="14.56955"><ele>198.6</ele><time>2026-04-09T08:16:02.836Z</time></trkpt><trkpt lat="42.1594067" lon="14.5695167"><ele>196.8</ele><time>2026-04-09T08:16:04.837Z</time></trkpt><trkpt lat="42.1594883" lon="14.5694433"><ele>195.0</ele><time>2026-04-09T08:16:06.837Z</time></trkpt><trkpt lat="42.1595717" lon="14.5693483"><ele>195.0</ele><time>2026-04-09T08:16:08.836Z</time></trkpt><trkpt lat="42.1596433" lon="14.56925"><ele>195.0</ele><time>2026-04-09T08:16:10.836Z</time></trkpt><trkpt lat="42.1597083" lon="14.56918"><ele>195.0</ele><time>2026-04-09T08:16:12.836Z</time></trkpt><trkpt lat="42.159765" lon="14.56911"><ele>195.0</ele><time>2026-04-09T08:16:14.837Z</time></trkpt><trkpt lat="42.1598167" lon="14.5690417"><ele>195.0</ele><time>2026-04-09T08:16:16.836Z</time></trkpt><trkpt lat="42.1598683" lon="14.5689767"><ele>195.0</ele><time>2026-04-09T08:16:18.836Z</time></trkpt><trkpt lat="42.1599133" lon="14.5689033"><ele>194.66666666666666</ele><time>2026-04-09T08:16:20.836Z</time></trkpt><trkpt lat="42.1599583" lon="14.5688233"><ele>194.33333333333331</ele><time>2026-04-09T08:16:22.836Z</time></trkpt><trkpt lat="42.16002" lon="14.56874"><ele>194.0</ele><time>2026-04-09T08:16:25.836Z</time></trkpt><trkpt lat="42.1600733" lon="14.5686867"><ele>193.66666666666666</ele><time>2026-04-09T08:16:27.837Z</time></trkpt><trkpt lat="42.1601333" lon="14.5686383"><ele>193.33333333333331</ele><time>2026-04-09T08:16:29.836Z</time></trkpt><trkpt lat="42.1602117" lon="14.56859"><ele>193.0</ele><time>2026-04-09T08:16:32.836Z</time></trkpt><trkpt lat="42.1602933" lon="14.5685767"><ele>193.99999999999997</ele><time>2026-04-09T08:16:35.836Z</time></trkpt><trkpt lat="42.1603733" lon="14.5685667"><ele>195.0</ele><time>2026-04-09T08:16:38.836Z</time></trkpt><trkpt lat="42.1604383" lon="14.5685617"><ele>196.0</ele><time>2026-04-09T08:16:40.837Z</time></trkpt><trkpt lat="42.160505" lon="14.5685517"><ele>197.0</ele><time>2026-04-09T08:16:42.837Z</time></trkpt><trkpt lat="42.160595" lon="14.568545"><ele>197.99999999999997</ele><time>2026-04-09T08:16:45.837Z</time></trkpt><trkpt lat="42.16069" lon="14.5685533"><ele>199.0</ele><time>2026-04-09T08:16:48.836Z</time></trkpt><trkpt lat="42.160755" lon="14.5685467"><ele>199.99999999999997</ele><time>2026-04-09T08:16:50.836Z</time></trkpt><trkpt lat="42.1608183" lon="14.5685467"><ele>201.0</ele><time>2026-04-09T08:16:52.836Z</time></trkpt><trkpt lat="42.1609083" lon="14.5685567"><ele>202.0</ele><time>2026-04-09T08:16:55.836Z</time></trkpt><trkpt lat="42.1609733" lon="14.5685483"><ele>203.0</ele><time>2026-04-09T08:16:57.837Z</time></trkpt><trkpt lat="42.1610717" lon="14.5685417"><ele>203.99999999999997</ele><time>2026-04-09T08:17:00.837Z</time></trkpt><trkpt lat="42.161135" lon="14.5685517"><ele>205.0</ele><time>2026-04-09T08:17:02.836Z</time></trkpt><trkpt lat="42.1612167" lon="14.5685517"><ele>204.99999999999997</ele><time>2026-04-09T08:17:04.836Z</time></trkpt><trkpt lat="42.161295" lon="14.5685583"><ele>205.0</ele><time>2026-04-09T08:17:06.836Z</time></trkpt><trkpt lat="42.1613683" lon="14.568555"><ele>205.0</ele><time>2026-04-09T08:17:08.837Z</time></trkpt><trkpt lat="42.161445" lon="14.5685417"><ele>205.0</ele><time>2026-04-09T08:17:10.837Z</time></trkpt><trkpt lat="42.1615183" lon="14.5685333"><ele>204.99999999999997</ele><time>2026-04-09T08:17:12.836Z</time></trkpt><trkpt lat="42.1615883" lon="14.5685367"><ele>205.0</ele><time>2026-04-09T08:17:14.836Z</time></trkpt><trkpt lat="42.1616667" lon="14.568535"><ele>204.99999999999997</ele><time>2026-04-09T08:17:16.836Z</time></trkpt><trkpt lat="42.1617333" lon="14.5685467"><ele>205.0</ele><time>2026-04-09T08:17:18.836Z</time></trkpt><trkpt lat="42.1618317" lon="14.5685483"><ele>205.0</ele><time>2026-04-09T08:17:21.836Z</time></trkpt><trkpt lat="42.1619067" lon="14.56855"><ele>205.0</ele><time>2026-04-09T08:17:23.836Z</time></trkpt><trkpt lat="42.16198" lon="14.5685517"><ele>204.99999999999997</ele><time>2026-04-09T08:17:25.836Z</time></trkpt><trkpt lat="42.1620483" lon="14.5685567"><ele>205.0</ele><time>2026-04-09T08:17:27.836Z</time></trkpt><trkpt lat="42.16212" lon="14.56856"><ele>204.99999999999997</ele><time>2026-04-09T08:17:29.836Z</time></trkpt><trkpt lat="42.1621967" lon="14.568555"><ele>205.0</ele><time>2026-04-09T08:17:31.836Z</time></trkpt><trkpt lat="42.16228" lon="14.5685517"><ele>205.0</ele><time>2026-04-09T08:17:33.836Z</time></trkpt><trkpt lat="42.162365" lon="14.5685567"><ele>205.0</ele><time>2026-04-09T08:17:35.836Z</time></trkpt><trkpt lat="42.16246" lon="14.5685583"><ele>204.99999999999997</ele><time>2026-04-09T08:17:37.836Z</time></trkpt><trkpt lat="42.1625367" lon="14.5685533"><ele>205.0</ele><time>2026-04-09T08:17:39.836Z</time></trkpt><trkpt lat="42.16262" lon="14.5685467"><ele>205.16666666666666</ele><time>2026-04-09T08:17:41.837Z</time></trkpt><trkpt lat="42.1627033" lon="14.568545"><ele>205.33333333333331</ele><time>2026-04-09T08:17:43.836Z</time></trkpt><trkpt lat="42.162785" lon="14.56854"><ele>205.5</ele><time>2026-04-09T08:17:45.836Z</time></trkpt><trkpt lat="42.1628683" lon="14.5685383"><ele>205.66666666666669</ele><time>2026-04-09T08:17:47.837Z</time></trkpt><trkpt lat="42.1629517" lon="14.56854"><ele>205.83333333333334</ele><time>2026-04-09T08:17:49.836Z</time></trkpt><trkpt lat="42.163045" lon="14.5685483"><ele>206.0</ele><time>2026-04-09T08:17:51.836Z</time></trkpt><trkpt lat="42.16314" lon="14.5685767"><ele>205.60000000000002</ele><time>2026-04-09T08:17:53.836Z</time></trkpt><trkpt lat="42.16324" lon="14.5686083"><ele>205.2</ele><time>2026-04-09T08:17:55.836Z</time></trkpt><trkpt lat="42.16335" lon="14.568665"><ele>204.8</ele><time>2026-04-09T08:17:57.837Z</time></trkpt><trkpt lat="42.1634117" lon="14.5686967"><ele>204.39999999999998</ele><time>2026-04-09T08:17:58.836Z</time></trkpt><trkpt lat="42.1634717" lon="14.568725"><ele>204.0</ele><time>2026-04-09T08:17:59.837Z</time></trkpt><trkpt lat="42.163595" lon="14.56879"><ele>202.14285714285714</ele><time>2026-04-09T08:18:01.836Z</time></trkpt><trkpt lat="42.16366" lon="14.5688283"><ele>200.28571428571428</ele><time>2026-04-09T08:18:02.836Z</time></trkpt><trkpt lat="42.163725" lon="14.5688667"><ele>198.42857142857144</ele><time>2026-04-09T08:18:03.836Z</time></trkpt><trkpt lat="42.16379" lon="14.568905"><ele>196.57142857142856</ele><time>2026-04-09T08:18:04.836Z</time></trkpt><trkpt lat="42.163855" lon="14.5689417"><ele>194.7142857142857</ele><time>2026-04-09T08:18:05.836Z</time></trkpt><trkpt lat="42.1639233" lon="14.5689783"><ele>192.85714285714286</ele><time>2026-04-09T08:18:06.836Z</time></trkpt><trkpt lat="42.1639917" lon="14.5690133"><ele>191.0</ele><time>2026-04-09T08:18:07.836Z</time></trkpt><trkpt lat="42.164065" lon="14.56905"><ele>191.0</ele><time>2026-04-09T08:18:08.837Z</time></trkpt><trkpt lat="42.16414" lon="14.5690867"><ele>191.0</ele><time>2026-04-09T08:18:09.836Z</time></trkpt><trkpt lat="42.1642133" lon="14.5691267"><ele>191.0</ele><time>2026-04-09T08:18:10.836Z</time></trkpt><trkpt lat="42.1642817" lon="14.569165"><ele>191.0</ele><time>2026-04-09T08:18:11.836Z</time></trkpt><trkpt lat="42.1643533" lon="14.5692067"><ele>191.0</ele><time>2026-04-09T08:18:12.836Z</time></trkpt><trkpt lat="42.1644267" lon="14.5692467"><ele>191.0</ele><time>2026-04-09T08:18:13.836Z</time></trkpt><trkpt lat="42.164505" lon="14.5692967"><ele>191.0</ele><time>2026-04-09T08:18:14.836Z</time></trkpt><trkpt lat="42.1645817" lon="14.5693417"><ele>191.0</ele><time>2026-04-09T08:18:15.837Z</time></trkpt><trkpt lat="42.1646567" lon="14.569385"><ele>191.0</ele><time>2026-04-09T08:18:16.836Z</time></trkpt><trkpt lat="42.164735" lon="14.5694233"><ele>191.0</ele><time>2026-04-09T08:18:17.836Z</time></trkpt><trkpt lat="42.1648117" lon="14.5694667"><ele>191.0</ele><time>2026-04-09T08:18:18.836Z</time></trkpt><trkpt lat="42.1648917" lon="14.56951"><ele>191.0</ele><time>2026-04-09T08:18:19.836Z</time></trkpt><trkpt lat="42.1649683" lon="14.5695533"><ele>189.5</ele><time>2026-04-09T08:18:20.836Z</time></trkpt><trkpt lat="42.1650517" lon="14.569595"><ele>188.0</ele><time>2026-04-09T08:18:21.837Z</time></trkpt><trkpt lat="42.165135" lon="14.5696383"><ele>186.5</ele><time>2026-04-09T08:18:22.837Z</time></trkpt><trkpt lat="42.1652217" lon="14.5696633"><ele>185.0</ele><time>2026-04-09T08:18:23.837Z</time></trkpt><trkpt lat="42.16531" lon="14.5696783"><ele>183.5</ele><time>2026-04-09T08:18:24.836Z</time></trkpt><trkpt lat="42.1654" lon="14.569685"><ele>182.0</ele><time>2026-04-09T08:18:25.836Z</time></trkpt><trkpt lat="42.1654917" lon="14.569685"><ele>182.0</ele><time>2026-04-09T08:18:26.836Z</time></trkpt><trkpt lat="42.1655783" lon="14.5696917"><ele>182.0</ele><time>2026-04-09T08:18:27.837Z</time></trkpt><trkpt lat="42.1656733" lon="14.5696917"><ele>182.0</ele><time>2026-04-09T08:18:28.837Z</time></trkpt><trkpt lat="42.16576" lon="14.5696917"><ele>182.0</ele><time>2026-04-09T08:18:29.836Z</time></trkpt><trkpt lat="42.16585" lon="14.56969"><ele>182.0</ele><time>2026-04-09T08:18:30.836Z</time></trkpt><trkpt lat="42.1659417" lon="14.5696917"><ele>182.2</ele><time>2026-04-09T08:18:31.836Z</time></trkpt><trkpt lat="42.1660317" lon="14.5696917"><ele>182.39999999999998</ele><time>2026-04-09T08:18:32.837Z</time></trkpt><trkpt lat="42.1661217" lon="14.56969"><ele>182.60000000000002</ele><time>2026-04-09T08:18:33.836Z</time></trkpt><trkpt lat="42.1662233" lon="14.56969"><ele>182.8</ele><time>2026-04-09T08:18:34.836Z</time></trkpt><trkpt lat="42.1663217" lon="14.56969"><ele>183.0</ele><time>2026-04-09T08:18:35.836Z</time></trkpt><trkpt lat="42.166415" lon="14.5697017"><ele>183.0</ele><time>2026-04-09T08:18:36.836Z</time></trkpt><trkpt lat="42.16651" lon="14.5697083"><ele>183.0</ele><time>2026-04-09T08:18:37.836Z</time></trkpt><trkpt lat="42.1666017" lon="14.569725"><ele>183.0</ele><time>2026-04-09T08:18:38.836Z</time></trkpt><trkpt lat="42.1666933" lon="14.569735"><ele>183.0</ele><time>2026-04-09T08:18:39.836Z</time></trkpt><trkpt lat="42.1667867" lon="14.5697433"><ele>183.0</ele><time>2026-04-09T08:18:40.837Z</time></trkpt><trkpt lat="42.1668817" lon="14.5697467"><ele>182.8</ele><time>2026-04-09T08:18:41.836Z</time></trkpt><trkpt lat="42.1669817" lon="14.5697533"><ele>182.60000000000002</ele><time>2026-04-09T08:18:42.836Z</time></trkpt><trkpt lat="42.1670767" lon="14.5697683"><ele>182.39999999999998</ele><time>2026-04-09T08:18:43.836Z</time></trkpt><trkpt lat="42.1671717" lon="14.5697783"><ele>182.2</ele><time>2026-04-09T08:18:44.836Z</time></trkpt><trkpt lat="42.1672633" lon="14.56979"><ele>182.0</ele><time>2026-04-09T08:18:45.836Z</time></trkpt><trkpt lat="42.167355" lon="14.5698033"><ele>181.6</ele><time>2026-04-09T08:18:46.837Z</time></trkpt><trkpt lat="42.1674467" lon="14.569825"><ele>181.2</ele><time>2026-04-09T08:18:47.836Z</time></trkpt><trkpt lat="42.1675433" lon="14.5698417"><ele>180.8</ele><time>2026-04-09T08:18:48.836Z</time></trkpt><trkpt lat="42.16764" lon="14.5698533"><ele>180.4</ele><time>2026-04-09T08:18:49.836Z</time></trkpt><trkpt lat="42.1677367" lon="14.56987"><ele>180.0</ele><time>2026-04-09T08:18:50.837Z</time></trkpt><trkpt lat="42.16783" lon="14.5698817"><ele>180.0</ele><time>2026-04-09T08:18:51.836Z</time></trkpt><trkpt lat="42.167925" lon="14.5699"><ele>180.0</ele><time>2026-04-09T08:18:52.837Z</time></trkpt><trkpt lat="42.1680167" lon="14.5699233"><ele>180.0</ele><time>2026-04-09T08:18:53.836Z</time></trkpt><trkpt lat="42.1681117" lon="14.569945"><ele>180.0</ele><time>2026-04-09T08:18:54.837Z</time></trkpt><trkpt lat="42.168205" lon="14.569965"><ele>180.0</ele><time>2026-04-09T08:18:55.836Z</time></trkpt><trkpt lat="42.1682967" lon="14.5699783"><ele>179.5</ele><time>2026-04-09T08:18:56.837Z</time></trkpt><trkpt lat="42.168385" lon="14.5700033"><ele>179.0</ele><time>2026-04-09T08:18:57.836Z</time></trkpt><trkpt lat="42.16847" lon="14.57002"><ele>178.5</ele><time>2026-04-09T08:18:58.836Z</time></trkpt><trkpt lat="42.168555" lon="14.5700383"><ele>178.0</ele><time>2026-04-09T08:18:59.836Z</time></trkpt><trkpt lat="42.1686467" lon="14.5700567"><ele>177.5</ele><time>2026-04-09T08:19:00.837Z</time></trkpt><trkpt lat="42.1687317" lon="14.570075"><ele>177.0</ele><time>2026-04-09T08:19:01.837Z</time></trkpt><trkpt lat="42.16882" lon="14.5700867"><ele>177.0</ele><time>2026-04-09T08:19:02.836Z</time></trkpt><trkpt lat="42.1689083" lon="14.5701067"><ele>177.0</ele><time>2026-04-09T08:19:03.836Z</time></trkpt><trkpt lat="42.1689917" lon="14.570135"><ele>177.0</ele><time>2026-04-09T08:19:04.836Z</time></trkpt><trkpt lat="42.1690733" lon="14.570155"><ele>177.0</ele><time>2026-04-09T08:19:05.836Z</time></trkpt><trkpt lat="42.1691533" lon="14.5701733"><ele>177.0</ele><time>2026-04-09T08:19:06.837Z</time></trkpt><trkpt lat="42.169235" lon="14.5701967"><ele>177.0</ele><time>2026-04-09T08:19:07.836Z</time></trkpt><trkpt lat="42.169315" lon="14.5702167"><ele>176.5</ele><time>2026-04-09T08:19:08.836Z</time></trkpt><trkpt lat="42.1693933" lon="14.5702367"><ele>176.0</ele><time>2026-04-09T08:19:09.836Z</time></trkpt><trkpt lat="42.1694733" lon="14.570255"><ele>175.5</ele><time>2026-04-09T08:19:10.837Z</time></trkpt><trkpt lat="42.1695567" lon="14.5702767"><ele>175.0</ele><time>2026-04-09T08:19:11.836Z</time></trkpt><trkpt lat="42.1696383" lon="14.5702867"><ele>174.5</ele><time>2026-04-09T08:19:12.836Z</time></trkpt><trkpt lat="42.1697183" lon="14.5703017"><ele>174.0</ele><time>2026-04-09T08:19:13.836Z</time></trkpt><trkpt lat="42.1697917" lon="14.5703167"><ele>173.5</ele><time>2026-04-09T08:19:14.836Z</time></trkpt><trkpt lat="42.1698667" lon="14.5703333"><ele>173.0</ele><time>2026-04-09T08:19:15.836Z</time></trkpt><trkpt lat="42.1699383" lon="14.57035"><ele>172.5</ele><time>2026-04-09T08:19:16.836Z</time></trkpt><trkpt lat="42.1700133" lon="14.5703567"><ele>172.0</ele><time>2026-04-09T08:19:17.837Z</time></trkpt><trkpt lat="42.17009" lon="14.570365"><ele>171.5</ele><time>2026-04-09T08:19:18.836Z</time></trkpt><trkpt lat="42.1701667" lon="14.57037"><ele>171.0</ele><time>2026-04-09T08:19:19.836Z</time></trkpt><trkpt lat="42.1702483" lon="14.5703717"><ele>171.0</ele><time>2026-04-09T08:19:20.837Z</time></trkpt><trkpt lat="42.1703267" lon="14.570365"><ele>171.0</ele><time>2026-04-09T08:19:21.836Z</time></trkpt><trkpt lat="42.1704067" lon="14.5703583"><ele>171.0</ele><time>2026-04-09T08:19:22.836Z</time></trkpt><trkpt lat="42.1704867" lon="14.57034"><ele>171.0</ele><time>2026-04-09T08:19:23.836Z</time></trkpt><trkpt lat="42.17056" lon="14.5703133"><ele>171.0</ele><time>2026-04-09T08:19:24.836Z</time></trkpt><trkpt lat="42.1706383" lon="14.5702867"><ele>171.0</ele><time>2026-04-09T08:19:25.836Z</time></trkpt><trkpt lat="42.1707133" lon="14.5702567"><ele>170.66666666666666</ele><time>2026-04-09T08:19:26.836Z</time></trkpt><trkpt lat="42.170785" lon="14.5702217"><ele>170.33333333333334</ele><time>2026-04-09T08:19:27.836Z</time></trkpt><trkpt lat="42.1708583" lon="14.5701867"><ele>170.0</ele><time>2026-04-09T08:19:28.836Z</time></trkpt><trkpt lat="42.1709383" lon="14.5701417"><ele>169.66666666666669</ele><time>2026-04-09T08:19:29.837Z</time></trkpt><trkpt lat="42.171015" lon="14.57011"><ele>169.33333333333334</ele><time>2026-04-09T08:19:30.836Z</time></trkpt><trkpt lat="42.171095" lon="14.5701083"><ele>169.0</ele><time>2026-04-09T08:19:31.836Z</time></trkpt><trkpt lat="42.1711817" lon="14.5701317"><ele>169.0</ele><time>2026-04-09T08:19:32.836Z</time></trkpt><trkpt lat="42.17126" lon="14.5701767"><ele>169.0</ele><time>2026-04-09T08:19:33.836Z</time></trkpt><trkpt lat="42.1713283" lon="14.570245"><ele>169.0</ele><time>2026-04-09T08:19:34.837Z</time></trkpt><trkpt lat="42.17139" lon="14.5703167"><ele>169.0</ele><time>2026-04-09T08:19:35.836Z</time></trkpt><trkpt lat="42.1714467" lon="14.5704017"><ele>169.0</ele><time>2026-04-09T08:19:36.836Z</time></trkpt><trkpt lat="42.1715067" lon="14.5704817"><ele>169.0</ele><time>2026-04-09T08:19:37.836Z</time></trkpt><trkpt lat="42.1715767" lon="14.5705517"><ele>167.5</ele><time>2026-04-09T08:19:38.836Z</time></trkpt><trkpt lat="42.171645" lon="14.5706117"><ele>166.0</ele><time>2026-04-09T08:19:39.836Z</time></trkpt><trkpt lat="42.171715" lon="14.5706783"><ele>164.5</ele><time>2026-04-09T08:19:40.836Z</time></trkpt><trkpt lat="42.1717867" lon="14.57072"><ele>163.0</ele><time>2026-04-09T08:19:41.836Z</time></trkpt><trkpt lat="42.1718583" lon="14.57074"><ele>161.5</ele><time>2026-04-09T08:19:42.836Z</time></trkpt><trkpt lat="42.1719333" lon="14.570745"><ele>160.0</ele><time>2026-04-09T08:19:43.836Z</time></trkpt><trkpt lat="42.1720083" lon="14.57074"><ele>160.0</ele><time>2026-04-09T08:19:44.836Z</time></trkpt><trkpt lat="42.1720783" lon="14.5707233"><ele>160.0</ele><time>2026-04-09T08:19:45.836Z</time></trkpt><trkpt lat="42.172145" lon="14.5706917"><ele>160.0</ele><time>2026-04-09T08:19:46.836Z</time></trkpt><trkpt lat="42.1722083" lon="14.570655"><ele>160.0</ele><time>2026-04-09T08:19:47.836Z</time></trkpt><trkpt lat="42.1722683" lon="14.5706117"><ele>160.0</ele><time>2026-04-09T08:19:48.836Z</time></trkpt><trkpt lat="42.1723217" lon="14.5705633"><ele>160.0</ele><time>2026-04-09T08:19:49.836Z</time></trkpt><trkpt lat="42.1723733" lon="14.57051"><ele>160.0</ele><time>2026-04-09T08:19:50.836Z</time></trkpt><trkpt lat="42.17247" lon="14.57041"><ele>161.0</ele><time>2026-04-09T08:19:52.836Z</time></trkpt><trkpt lat="42.172555" lon="14.5703083"><ele>162.0</ele><time>2026-04-09T08:19:54.837Z</time></trkpt><trkpt lat="42.1726367" lon="14.5702133"><ele>163.0</ele><time>2026-04-09T08:19:56.836Z</time></trkpt><trkpt lat="42.1727167" lon="14.57013"><ele>164.0</ele><time>2026-04-09T08:19:58.836Z</time></trkpt><trkpt lat="42.1727933" lon="14.5700517"><ele>165.0</ele><time>2026-04-09T08:20:00.836Z</time></trkpt><trkpt lat="42.1728717" lon="14.56997"><ele>165.0</ele><time>2026-04-09T08:20:02.837Z</time></trkpt><trkpt lat="42.1729483" lon="14.5698867"><ele>165.0</ele><time>2026-04-09T08:20:04.836Z</time></trkpt><trkpt lat="42.1730183" lon="14.5698017"><ele>165.0</ele><time>2026-04-09T08:20:06.837Z</time></trkpt><trkpt lat="42.1730883" lon="14.5697267"><ele>165.0</ele><time>2026-04-09T08:20:08.836Z</time></trkpt><trkpt lat="42.1731767" lon="14.56965"><ele>165.0</ele><time>2026-04-09T08:20:10.836Z</time></trkpt><trkpt lat="42.1732633" lon="14.5695517"><ele>164.2</ele><time>2026-04-09T08:20:12.836Z</time></trkpt><trkpt lat="42.1733433" lon="14.5694633"><ele>163.4</ele><time>2026-04-09T08:20:14.836Z</time></trkpt><trkpt lat="42.1734267" lon="14.56938"><ele>162.60000000000002</ele><time>2026-04-09T08:20:16.836Z</time></trkpt><trkpt lat="42.1735083" lon="14.5692883"><ele>161.8</ele><time>2026-04-09T08:20:18.837Z</time></trkpt><trkpt lat="42.173585" lon="14.5692033"><ele>161.0</ele><time>2026-04-09T08:20:20.836Z</time></trkpt><trkpt lat="42.1736667" lon="14.56912"><ele>161.0</ele><time>2026-04-09T08:20:22.836Z</time></trkpt><trkpt lat="42.173745" lon="14.5690317"><ele>161.0</ele><time>2026-04-09T08:20:24.836Z</time></trkpt><trkpt lat="42.17383" lon="14.5689483"><ele>161.0</ele><time>2026-04-09T08:20:26.836Z</time></trkpt><trkpt lat="42.1739117" lon="14.5688717"><ele>161.0</ele><time>2026-04-09T08:20:28.836Z</time></trkpt><trkpt lat="42.1740017" lon="14.5687983"><ele>161.0</ele><time>2026-04-09T08:20:30.836Z</time></trkpt><trkpt lat="42.1740917" lon="14.5687317"><ele>160.60000000000002</ele><time>2026-04-09T08:20:32.836Z</time></trkpt><trkpt lat="42.1741833" lon="14.5686683"><ele>160.20000000000002</ele><time>2026-04-09T08:20:34.836Z</time></trkpt><trkpt lat="42.1742767" lon="14.5686067"><ele>159.8</ele><time>2026-04-09T08:20:36.836Z</time></trkpt><trkpt lat="42.1743617" lon="14.5685433"><ele>159.4</ele><time>2026-04-09T08:20:38.837Z</time></trkpt><trkpt lat="42.1744517" lon="14.5684783"><ele>159.0</ele><time>2026-04-09T08:20:40.837Z</time></trkpt><trkpt lat="42.174535" lon="14.5684183"><ele>159.0</ele><time>2026-04-09T08:20:42.836Z</time></trkpt><trkpt lat="42.1746233" lon="14.5683483"><ele>159.0</ele><time>2026-04-09T08:20:44.837Z</time></trkpt><trkpt lat="42.1747" lon="14.5682883"><ele>159.0</ele><time>2026-04-09T08:20:46.836Z</time></trkpt><trkpt lat="42.1747683" lon="14.5682317"><ele>159.0</ele><time>2026-04-09T08:20:48.836Z</time></trkpt><trkpt lat="42.17485" lon="14.5681417"><ele>159.0</ele><time>2026-04-09T08:20:50.836Z</time></trkpt><trkpt lat="42.174935" lon="14.5680617"><ele>159.2</ele><time>2026-04-09T08:20:52.836Z</time></trkpt><trkpt lat="42.1750167" lon="14.5679783"><ele>159.4</ele><time>2026-04-09T08:20:54.836Z</time></trkpt><trkpt lat="42.175095" lon="14.5679133"><ele>159.6</ele><time>2026-04-09T08:20:56.837Z</time></trkpt><trkpt lat="42.17518" lon="14.5678333"><ele>159.8</ele><time>2026-04-09T08:20:58.836Z</time></trkpt><trkpt lat="42.1752667" lon="14.5677467"><ele>160.0</ele><time>2026-04-09T08:21:00.836Z</time></trkpt><trkpt lat="42.1753583" lon="14.56766"><ele>160.0</ele><time>2026-04-09T08:21:02.836Z</time></trkpt><trkpt lat="42.1754483" lon="14.567575"><ele>160.0</ele><time>2026-04-09T08:21:04.837Z</time></trkpt><trkpt lat="42.17553" lon="14.56749"><ele>160.0</ele><time>2026-04-09T08:21:06.836Z</time></trkpt><trkpt lat="42.175625" lon="14.567405"><ele>160.0</ele><time>2026-04-09T08:21:08.836Z</time></trkpt><trkpt lat="42.175735" lon="14.567315"><ele>160.42857142857142</ele><time>2026-04-09T08:21:10.836Z</time></trkpt><trkpt lat="42.1757917" lon="14.567275"><ele>160.85714285714286</ele><time>2026-04-09T08:21:11.836Z</time></trkpt><trkpt lat="42.1758517" lon="14.56724"><ele>161.28571428571428</ele><time>2026-04-09T08:21:12.836Z</time></trkpt><trkpt lat="42.1759133" lon="14.5672117"><ele>161.71428571428572</ele><time>2026-04-09T08:21:13.836Z</time></trkpt><trkpt lat="42.1759817" lon="14.5671883"><ele>162.14285714285714</ele><time>2026-04-09T08:21:14.836Z</time></trkpt><trkpt lat="42.176045" lon="14.5671733"><ele>162.57142857142858</ele><time>2026-04-09T08:21:15.836Z</time></trkpt><trkpt lat="42.1761083" lon="14.5671517"><ele>163.0</ele><time>2026-04-09T08:21:16.836Z</time></trkpt><trkpt lat="42.1761767" lon="14.56712"><ele>163.0</ele><time>2026-04-09T08:21:17.836Z</time></trkpt><trkpt lat="42.1762483" lon="14.5670833"><ele>163.0</ele><time>2026-04-09T08:21:18.837Z</time></trkpt><trkpt lat="42.17632" lon="14.5670467"><ele>163.0</ele><time>2026-04-09T08:21:19.836Z</time></trkpt><trkpt lat="42.17639" lon="14.5670167"><ele>163.0</ele><time>2026-04-09T08:21:20.836Z</time></trkpt><trkpt lat="42.1764767" lon="14.5669883"><ele>163.0</ele><time>2026-04-09T08:21:21.836Z</time></trkpt><trkpt lat="42.1765617" lon="14.56696"><ele>163.0</ele><time>2026-04-09T08:21:22.836Z</time></trkpt><trkpt lat="42.1766383" lon="14.5669267"><ele>162.83333333333334</ele><time>2026-04-09T08:21:23.837Z</time></trkpt><trkpt lat="42.1767183" lon="14.5668983"><ele>162.66666666666669</ele><time>2026-04-09T08:21:24.836Z</time></trkpt><trkpt lat="42.1767933" lon="14.5668717"><ele>162.5</ele><time>2026-04-09T08:21:25.836Z</time></trkpt><trkpt lat="42.17687" lon="14.5668517"><ele>162.33333333333334</ele><time>2026-04-09T08:21:26.837Z</time></trkpt><trkpt lat="42.1769517" lon="14.5668267"><ele>162.16666666666666</ele><time>2026-04-09T08:21:27.836Z</time></trkpt><trkpt lat="42.1770333" lon="14.5667983"><ele>162.0</ele><time>2026-04-09T08:21:28.836Z</time></trkpt><trkpt lat="42.1771117" lon="14.5667733"><ele>162.0</ele><time>2026-04-09T08:21:29.836Z</time></trkpt><trkpt lat="42.17719" lon="14.5667383"><ele>162.0</ele><time>2026-04-09T08:21:30.837Z</time></trkpt><trkpt lat="42.1772667" lon="14.56671"><ele>162.0</ele><time>2026-04-09T08:21:31.836Z</time></trkpt><trkpt lat="42.1773433" lon="14.566675"><ele>162.0</ele><time>2026-04-09T08:21:32.836Z</time></trkpt><trkpt lat="42.177415" lon="14.5666267"><ele>162.0</ele><time>2026-04-09T08:21:33.836Z</time></trkpt><trkpt lat="42.177485" lon="14.5665767"><ele>162.0</ele><time>2026-04-09T08:21:34.837Z</time></trkpt><trkpt lat="42.1775533" lon="14.566515"><ele>162.16666666666666</ele><time>2026-04-09T08:21:35.836Z</time></trkpt><trkpt lat="42.17762" lon="14.56645"><ele>162.33333333333334</ele><time>2026-04-09T08:21:36.836Z</time></trkpt><trkpt lat="42.1776783" lon="14.5663783"><ele>162.5</ele><time>2026-04-09T08:21:37.836Z</time></trkpt><trkpt lat="42.1777367" lon="14.5663083"><ele>162.66666666666669</ele><time>2026-04-09T08:21:38.836Z</time></trkpt><trkpt lat="42.1777933" lon="14.5662317"><ele>162.83333333333334</ele><time>2026-04-09T08:21:39.836Z</time></trkpt><trkpt lat="42.1778483" lon="14.5661633"><ele>163.0</ele><time>2026-04-09T08:21:40.837Z</time></trkpt><trkpt lat="42.17791" lon="14.56609"><ele>163.0</ele><time>2026-04-09T08:21:41.836Z</time></trkpt><trkpt lat="42.1779733" lon="14.5660083"><ele>163.0</ele><time>2026-04-09T08:21:42.836Z</time></trkpt><trkpt lat="42.17804" lon="14.5659383"><ele>163.0</ele><time>2026-04-09T08:21:43.836Z</time></trkpt><trkpt lat="42.1781117" lon="14.56588"><ele>163.0</ele><time>2026-04-09T08:21:44.837Z</time></trkpt><trkpt lat="42.1781817" lon="14.5658367"><ele>163.0</ele><time>2026-04-09T08:21:45.836Z</time></trkpt><trkpt lat="42.1782617" lon="14.5658067"><ele>163.0</ele><time>2026-04-09T08:21:46.836Z</time></trkpt><trkpt lat="42.17834" lon="14.56579"><ele>161.57142857142858</ele><time>2026-04-09T08:21:47.836Z</time></trkpt><trkpt lat="42.17842" lon="14.5657767"><ele>160.14285714285714</ele><time>2026-04-09T08:21:48.836Z</time></trkpt><trkpt lat="42.1784917" lon="14.5657783"><ele>158.71428571428572</ele><time>2026-04-09T08:21:49.836Z</time></trkpt><trkpt lat="42.1785617" lon="14.5657783"><ele>157.28571428571428</ele><time>2026-04-09T08:21:50.837Z</time></trkpt><trkpt lat="42.17863" lon="14.5657867"><ele>155.85714285714286</ele><time>2026-04-09T08:21:51.836Z</time></trkpt><trkpt lat="42.1786983" lon="14.5658133"><ele>154.42857142857142</ele><time>2026-04-09T08:21:52.836Z</time></trkpt><trkpt lat="42.1787617" lon="14.5658467"><ele>153.0</ele><time>2026-04-09T08:21:53.836Z</time></trkpt><trkpt lat="42.17887" lon="14.565905"><ele>153.0</ele><time>2026-04-09T08:21:55.836Z</time></trkpt><trkpt lat="42.1789683" lon="14.56597"><ele>153.0</ele><time>2026-04-09T08:21:57.836Z</time></trkpt><trkpt lat="42.1790667" lon="14.566035"><ele>153.0</ele><time>2026-04-09T08:21:59.837Z</time></trkpt><trkpt lat="42.179165" lon="14.5660883"><ele>153.0</ele><time>2026-04-09T08:22:01.836Z</time></trkpt><trkpt lat="42.1792633" lon="14.56613"><ele>153.0</ele><time>2026-04-09T08:22:03.836Z</time></trkpt><trkpt lat="42.1793667" lon="14.566165"><ele>152.4</ele><time>2026-04-09T08:22:05.836Z</time></trkpt><trkpt lat="42.1794833" lon="14.566195"><ele>151.8</ele><time>2026-04-09T08:22:07.836Z</time></trkpt><trkpt lat="42.179575" lon="14.566215"><ele>151.2</ele><time>2026-04-09T08:22:09.836Z</time></trkpt><trkpt lat="42.1796767" lon="14.566235"><ele>150.6</ele><time>2026-04-09T08:22:11.836Z</time></trkpt><trkpt lat="42.179775" lon="14.5662567"><ele>150.0</ele><time>2026-04-09T08:22:13.836Z</time></trkpt><trkpt lat="42.1798733" lon="14.566275"><ele>150.0</ele><time>2026-04-09T08:22:15.836Z</time></trkpt><trkpt lat="42.1799733" lon="14.5662933"><ele>150.0</ele><time>2026-04-09T08:22:17.835Z</time></trkpt><trkpt lat="42.1800683" lon="14.56631"><ele>150.0</ele><time>2026-04-09T08:22:19.835Z</time></trkpt><trkpt lat="42.18016" lon="14.5663317"><ele>150.0</ele><time>2026-04-09T08:22:21.835Z</time></trkpt><trkpt lat="42.18026" lon="14.5663333"><ele>150.0</ele><time>2026-04-09T08:22:23.835Z</time></trkpt><trkpt lat="42.1803517" lon="14.566345"><ele>150.0</ele><time>2026-04-09T08:22:25.835Z</time></trkpt><trkpt lat="42.1804317" lon="14.5663567"><ele>150.0</ele><time>2026-04-09T08:22:27.835Z</time></trkpt><trkpt lat="42.1805183" lon="14.5663667"><ele>150.0</ele><time>2026-04-09T08:22:29.835Z</time></trkpt><trkpt lat="42.1806133" lon="14.5663733"><ele>150.0</ele><time>2026-04-09T08:22:31.835Z</time></trkpt><trkpt lat="42.1807117" lon="14.566385"><ele>150.0</ele><time>2026-04-09T08:22:33.835Z</time></trkpt><trkpt lat="42.180805" lon="14.5664017"><ele>150.83333333333334</ele><time>2026-04-09T08:22:35.836Z</time></trkpt><trkpt lat="42.1808967" lon="14.5664167"><ele>151.66666666666666</ele><time>2026-04-09T08:22:37.835Z</time></trkpt><trkpt lat="42.18098" lon="14.5664217"><ele>152.5</ele><time>2026-04-09T08:22:39.835Z</time></trkpt><trkpt lat="42.1810683" lon="14.5664383"><ele>153.33333333333331</ele><time>2026-04-09T08:22:41.836Z</time></trkpt><trkpt lat="42.1811583" lon="14.5664567"><ele>154.16666666666666</ele><time>2026-04-09T08:22:43.835Z</time></trkpt><trkpt lat="42.18125" lon="14.5664683"><ele>155.0</ele><time>2026-04-09T08:22:45.835Z</time></trkpt><trkpt lat="42.1813433" lon="14.5664967"><ele>155.0</ele><time>2026-04-09T08:22:47.835Z</time></trkpt><trkpt lat="42.1814417" lon="14.5665117"><ele>155.0</ele><time>2026-04-09T08:22:49.836Z</time></trkpt><trkpt lat="42.1815383" lon="14.5665233"><ele>155.0</ele><time>2026-04-09T08:22:51.836Z</time></trkpt><trkpt lat="42.1816333" lon="14.566535"><ele>155.0</ele><time>2026-04-09T08:22:53.836Z</time></trkpt><trkpt lat="42.1817267" lon="14.5665533"><ele>155.0</ele><time>2026-04-09T08:22:55.835Z</time></trkpt><trkpt lat="42.1818133" lon="14.5665783"><ele>154.8</ele><time>2026-04-09T08:22:57.835Z</time></trkpt><trkpt lat="42.1819033" lon="14.5666167"><ele>154.6</ele><time>2026-04-09T08:22:59.835Z</time></trkpt><trkpt lat="42.1819933" lon="14.566655"><ele>154.4</ele><time>2026-04-09T08:23:01.835Z</time></trkpt><trkpt lat="42.1820867" lon="14.5666917"><ele>154.2</ele><time>2026-04-09T08:23:03.835Z</time></trkpt><trkpt lat="42.1821783" lon="14.5667283"><ele>154.0</ele><time>2026-04-09T08:23:05.835Z</time></trkpt><trkpt lat="42.1822667" lon="14.5667667"><ele>154.4</ele><time>2026-04-09T08:23:07.836Z</time></trkpt><trkpt lat="42.1823633" lon="14.5668017"><ele>154.8</ele><time>2026-04-09T08:23:09.835Z</time></trkpt><trkpt lat="42.1824583" lon="14.5668367"><ele>155.2</ele><time>2026-04-09T08:23:11.835Z</time></trkpt><trkpt lat="42.1825467" lon="14.56688"><ele>155.6</ele><time>2026-04-09T08:23:13.835Z</time></trkpt><trkpt lat="42.18264" lon="14.5669267"><ele>156.0</ele><time>2026-04-09T08:23:15.835Z</time></trkpt><trkpt lat="42.1827317" lon="14.5669633"><ele>156.0</ele><time>2026-04-09T08:23:17.835Z</time></trkpt><trkpt lat="42.1828217" lon="14.5669983"><ele>156.0</ele><time>2026-04-09T08:23:19.835Z</time></trkpt><trkpt lat="42.1829117" lon="14.5670417"><ele>156.0</ele><time>2026-04-09T08:23:21.835Z</time></trkpt><trkpt lat="42.1830083" lon="14.5670967"><ele>156.0</ele><time>2026-04-09T08:23:23.835Z</time></trkpt><trkpt lat="42.1831067" lon="14.5671383"><ele>156.0</ele><time>2026-04-09T08:23:25.835Z</time></trkpt><trkpt lat="42.1832067" lon="14.5671767"><ele>155.6</ele><time>2026-04-09T08:23:27.835Z</time></trkpt><trkpt lat="42.18331" lon="14.56722"><ele>155.2</ele><time>2026-04-09T08:23:29.835Z</time></trkpt><trkpt lat="42.18341" lon="14.5672567"><ele>154.8</ele><time>2026-04-09T08:23:31.835Z</time></trkpt><trkpt lat="42.1835083" lon="14.5673083"><ele>154.4</ele><time>2026-04-09T08:23:33.835Z</time></trkpt><trkpt lat="42.1836117" lon="14.56734"><ele>154.0</ele><time>2026-04-09T08:23:35.835Z</time></trkpt><trkpt lat="42.1837067" lon="14.56738"><ele>154.0</ele><time>2026-04-09T08:23:37.836Z</time></trkpt><trkpt lat="42.1837967" lon="14.5674183"><ele>154.0</ele><time>2026-04-09T08:23:39.835Z</time></trkpt><trkpt lat="42.1838783" lon="14.5674433"><ele>154.0</ele><time>2026-04-09T08:23:41.835Z</time></trkpt><trkpt lat="42.1839583" lon="14.5674683"><ele>154.0</ele><time>2026-04-09T08:23:43.835Z</time></trkpt><trkpt lat="42.18403" lon="14.5675017"><ele>154.0</ele><time>2026-04-09T08:23:45.835Z</time></trkpt><trkpt lat="42.1841033" lon="14.5675333"><ele>154.0</ele><time>2026-04-09T08:23:47.835Z</time></trkpt><trkpt lat="42.1841783" lon="14.56756"><ele>153.8</ele><time>2026-04-09T08:23:49.835Z</time></trkpt><trkpt lat="42.1842383" lon="14.5675867"><ele>153.60000000000002</ele><time>2026-04-09T08:23:51.835Z</time></trkpt><trkpt lat="42.1843233" lon="14.567625"><ele>153.4</ele><time>2026-04-09T08:23:53.835Z</time></trkpt><trkpt lat="42.1844167" lon="14.56767"><ele>153.20000000000002</ele><time>2026-04-09T08:23:55.835Z</time></trkpt><trkpt lat="42.1845167" lon="14.5677217"><ele>153.0</ele><time>2026-04-09T08:23:57.835Z</time></trkpt><trkpt lat="42.18462" lon="14.567765"><ele>153.0</ele><time>2026-04-09T08:23:59.836Z</time></trkpt><trkpt lat="42.1847283" lon="14.5678"><ele>153.0</ele><time>2026-04-09T08:24:01.835Z</time></trkpt><trkpt lat="42.18484" lon="14.5678483"><ele>153.0</ele><time>2026-04-09T08:24:03.835Z</time></trkpt><trkpt lat="42.1848983" lon="14.5679033"><ele>153.0</ele><time>2026-04-09T08:24:04.836Z</time></trkpt><trkpt lat="42.18495" lon="14.5679583"><ele>153.0</ele><time>2026-04-09T08:24:05.835Z</time></trkpt><trkpt lat="42.184995" lon="14.56802"><ele>153.0</ele><time>2026-04-09T08:24:06.835Z</time></trkpt><trkpt lat="42.1850317" lon="14.5680933"><ele>152.33333333333334</ele><time>2026-04-09T08:24:07.835Z</time></trkpt><trkpt lat="42.1850567" lon="14.5682617"><ele>151.66666666666666</ele><time>2026-04-09T08:24:09.835Z</time></trkpt><trkpt lat="42.1850467" lon="14.5683483"><ele>151.0</ele><time>2026-04-09T08:24:10.835Z</time></trkpt><trkpt lat="42.1850267" lon="14.568435"><ele>150.33333333333331</ele><time>2026-04-09T08:24:11.835Z</time></trkpt><trkpt lat="42.1850033" lon="14.5685267"><ele>149.66666666666666</ele><time>2026-04-09T08:24:12.835Z</time></trkpt><trkpt lat="42.1849683" lon="14.5686117"><ele>149.0</ele><time>2026-04-09T08:24:13.835Z</time></trkpt><trkpt lat="42.184935" lon="14.5686967"><ele>148.83333333333331</ele><time>2026-04-09T08:24:14.835Z</time></trkpt><trkpt lat="42.1849" lon="14.5687817"><ele>148.66666666666666</ele><time>2026-04-09T08:24:15.835Z</time></trkpt><trkpt lat="42.1848583" lon="14.5688517"><ele>148.5</ele><time>2026-04-09T08:24:16.835Z</time></trkpt><trkpt lat="42.1848167" lon="14.56892"><ele>148.33333333333334</ele><time>2026-04-09T08:24:17.835Z</time></trkpt><trkpt lat="42.18477" lon="14.5689817"><ele>148.16666666666669</ele><time>2026-04-09T08:24:18.835Z</time></trkpt><trkpt lat="42.18468" lon="14.5690883"><ele>148.0</ele><time>2026-04-09T08:24:20.835Z</time></trkpt><trkpt lat="42.184595" lon="14.5691817"><ele>148.0</ele><time>2026-04-09T08:24:22.835Z</time></trkpt><trkpt lat="42.1845183" lon="14.5692817"><ele>148.0</ele><time>2026-04-09T08:24:24.835Z</time></trkpt><trkpt lat="42.1844683" lon="14.5693967"><ele>148.0</ele><time>2026-04-09T08:24:26.835Z</time></trkpt><trkpt lat="42.1844517" lon="14.56954"><ele>148.0</ele><time>2026-04-09T08:24:28.835Z</time></trkpt><trkpt lat="42.18449" lon="14.5696617"><ele>148.0</ele><time>2026-04-09T08:24:30.835Z</time></trkpt><trkpt lat="42.1845533" lon="14.5697833"><ele>147.5</ele><time>2026-04-09T08:24:32.836Z</time></trkpt><trkpt lat="42.1846283" lon="14.569915"><ele>147.0</ele><time>2026-04-09T08:24:34.835Z</time></trkpt><trkpt lat="42.1846667" lon="14.569985"><ele>146.5</ele><time>2026-04-09T08:24:35.835Z</time></trkpt><trkpt lat="42.184705" lon="14.5700533"><ele>146.0</ele><time>2026-04-09T08:24:36.835Z</time></trkpt><trkpt lat="42.1847783" lon="14.57019"><ele>145.5</ele><time>2026-04-09T08:24:38.835Z</time></trkpt><trkpt lat="42.184815" lon="14.5702617"><ele>145.0</ele><time>2026-04-09T08:24:39.835Z</time></trkpt><trkpt lat="42.1848533" lon="14.5703333"><ele>144.5</ele><time>2026-04-09T08:24:40.835Z</time></trkpt><trkpt lat="42.18489" lon="14.570405"><ele>144.0</ele><time>2026-04-09T08:24:41.835Z</time></trkpt><trkpt lat="42.1849283" lon="14.5704783"><ele>143.5</ele><time>2026-04-09T08:24:42.836Z</time></trkpt><trkpt lat="42.184965" lon="14.5705517"><ele>143.0</ele><time>2026-04-09T08:24:43.835Z</time></trkpt><trkpt lat="42.1850033" lon="14.5706267"><ele>142.5</ele><time>2026-04-09T08:24:44.835Z</time></trkpt><trkpt lat="42.1850733" lon="14.57077"><ele>142.0</ele><time>2026-04-09T08:24:46.835Z</time></trkpt><trkpt lat="42.18511" lon="14.5708467"><ele>142.0</ele><time>2026-04-09T08:24:47.836Z</time></trkpt><trkpt lat="42.1851433" lon="14.5709217"><ele>142.0</ele><time>2026-04-09T08:24:48.835Z</time></trkpt><trkpt lat="42.1851817" lon="14.5709983"><ele>142.0</ele><time>2026-04-09T08:24:49.835Z</time></trkpt><trkpt lat="42.1852167" lon="14.571075"><ele>142.0</ele><time>2026-04-09T08:24:50.835Z</time></trkpt><trkpt lat="42.1852567" lon="14.5711483"><ele>142.0</ele><time>2026-04-09T08:24:51.835Z</time></trkpt><trkpt lat="42.1852933" lon="14.5712217"><ele>142.0</ele><time>2026-04-09T08:24:52.835Z</time></trkpt><trkpt lat="42.1853283" lon="14.571295"><ele>142.0</ele><time>2026-04-09T08:24:53.835Z</time></trkpt><trkpt lat="42.1853667" lon="14.571365"><ele>141.25</ele><time>2026-04-09T08:24:54.835Z</time></trkpt><trkpt lat="42.1854433" lon="14.5715"><ele>140.5</ele><time>2026-04-09T08:24:56.835Z</time></trkpt><trkpt lat="42.1855067" lon="14.57164"><ele>139.75</ele><time>2026-04-09T08:24:58.835Z</time></trkpt><trkpt lat="42.1855717" lon="14.57177"><ele>139.0</ele><time>2026-04-09T08:25:00.835Z</time></trkpt><trkpt lat="42.185635" lon="14.5719"><ele>139.0</ele><time>2026-04-09T08:25:02.835Z</time></trkpt><trkpt lat="42.1857017" lon="14.57202"><ele>139.0</ele><time>2026-04-09T08:25:04.835Z</time></trkpt><trkpt lat="42.1857617" lon="14.57214"><ele>139.0</ele><time>2026-04-09T08:25:06.835Z</time></trkpt><trkpt lat="42.18582" lon="14.5722633"><ele>139.0</ele><time>2026-04-09T08:25:08.836Z</time></trkpt><trkpt lat="42.1858783" lon="14.5723867"><ele>139.0</ele><time>2026-04-09T08:25:10.835Z</time></trkpt><trkpt lat="42.185935" lon="14.5724933"><ele>139.16666666666669</ele><time>2026-04-09T08:25:12.836Z</time></trkpt><trkpt lat="42.1859867" lon="14.572595"><ele>139.33333333333334</ele><time>2026-04-09T08:25:14.835Z</time></trkpt><trkpt lat="42.1860317" lon="14.5727017"><ele>139.5</ele><time>2026-04-09T08:25:16.835Z</time></trkpt><trkpt lat="42.18608" lon="14.572795"><ele>139.66666666666666</ele><time>2026-04-09T08:25:18.836Z</time></trkpt><trkpt lat="42.186105" lon="14.572895"><ele>139.83333333333331</ele><time>2026-04-09T08:25:20.835Z</time></trkpt><trkpt lat="42.1861667" lon="14.572985"><ele>140.0</ele><time>2026-04-09T08:25:22.836Z</time></trkpt><trkpt lat="42.186245" lon="14.5730783"><ele>139.6</ele><time>2026-04-09T08:25:24.835Z</time></trkpt><trkpt lat="42.18631" lon="14.5731783"><ele>139.2</ele><time>2026-04-09T08:25:26.835Z</time></trkpt><trkpt lat="42.18637" lon="14.5732817"><ele>138.8</ele><time>2026-04-09T08:25:28.835Z</time></trkpt><trkpt lat="42.1864267" lon="14.5733917"><ele>138.4</ele><time>2026-04-09T08:25:30.836Z</time></trkpt><trkpt lat="42.1864733" lon="14.5735233"><ele>138.0</ele><time>2026-04-09T08:25:32.835Z</time></trkpt><trkpt lat="42.186525" lon="14.5736533"><ele>137.16666666666666</ele><time>2026-04-09T08:25:34.836Z</time></trkpt><trkpt lat="42.186585" lon="14.57378"><ele>136.33333333333334</ele><time>2026-04-09T08:25:36.835Z</time></trkpt><trkpt lat="42.1866417" lon="14.5738933"><ele>135.5</ele><time>2026-04-09T08:25:38.835Z</time></trkpt><trkpt lat="42.1866867" lon="14.5739917"><ele>134.66666666666669</ele><time>2026-04-09T08:25:40.836Z</time></trkpt><trkpt lat="42.1867317" lon="14.57408"><ele>133.83333333333334</ele><time>2026-04-09T08:25:42.835Z</time></trkpt><trkpt lat="42.1867733" lon="14.5741533"><ele>133.0</ele><time>2026-04-09T08:25:44.835Z</time></trkpt><trkpt lat="42.1868117" lon="14.5742233"><ele>133.0</ele><time>2026-04-09T08:25:46.835Z</time></trkpt><trkpt lat="42.186855" lon="14.5742883"><ele>133.0</ele><time>2026-04-09T08:25:48.835Z</time></trkpt><trkpt lat="42.18691" lon="14.574385"><ele>133.0</ele><time>2026-04-09T08:25:51.835Z</time></trkpt><trkpt lat="42.18694" lon="14.5744617"><ele>133.0</ele><time>2026-04-09T08:25:53.835Z</time></trkpt><trkpt lat="42.1869817" lon="14.5745367"><ele>133.0</ele><time>2026-04-09T08:25:55.835Z</time></trkpt><trkpt lat="42.18703" lon="14.5746117"><ele>133.0</ele><time>2026-04-09T08:25:57.835Z</time></trkpt><trkpt lat="42.1870733" lon="14.5747"><ele>133.0</ele><time>2026-04-09T08:25:59.836Z</time></trkpt><trkpt lat="42.1871117" lon="14.5747933"><ele>132.33333333333334</ele><time>2026-04-09T08:26:01.835Z</time></trkpt><trkpt lat="42.1871533" lon="14.5748683"><ele>131.66666666666669</ele><time>2026-04-09T08:26:03.835Z</time></trkpt><trkpt lat="42.187185" lon="14.5749567"><ele>131.0</ele><time>2026-04-09T08:26:05.835Z</time></trkpt><trkpt lat="42.1872267" lon="14.5750283"><ele>130.33333333333334</ele><time>2026-04-09T08:26:07.835Z</time></trkpt><trkpt lat="42.187275" lon="14.5751033"><ele>129.66666666666666</ele><time>2026-04-09T08:26:09.835Z</time></trkpt><trkpt lat="42.187325" lon="14.5751967"><ele>129.0</ele><time>2026-04-09T08:26:11.835Z</time></trkpt><trkpt lat="42.1873783" lon="14.575295"><ele>128.0</ele><time>2026-04-09T08:26:13.835Z</time></trkpt><trkpt lat="42.1874217" lon="14.5753867"><ele>127.0</ele><time>2026-04-09T08:26:15.835Z</time></trkpt><trkpt lat="42.1874583" lon="14.5754867"><ele>126.0</ele><time>2026-04-09T08:26:17.835Z</time></trkpt><trkpt lat="42.1875067" lon="14.57559"><ele>125.0</ele><time>2026-04-09T08:26:19.835Z</time></trkpt><trkpt lat="42.18756" lon="14.5756917"><ele>124.0</ele><time>2026-04-09T08:26:21.835Z</time></trkpt><trkpt lat="42.187615" lon="14.5757867"><ele>123.0</ele><time>2026-04-09T08:26:23.835Z</time></trkpt><trkpt lat="42.1876683" lon="14.575895"><ele>123.0</ele><time>2026-04-09T08:26:25.836Z</time></trkpt><trkpt lat="42.1877117" lon="14.5759983"><ele>123.0</ele><time>2026-04-09T08:26:27.835Z</time></trkpt><trkpt lat="42.1877567" lon="14.5760967"><ele>123.0</ele><time>2026-04-09T08:26:29.835Z</time></trkpt><trkpt lat="42.1877967" lon="14.5762017"><ele>123.0</ele><time>2026-04-09T08:26:31.836Z</time></trkpt><trkpt lat="42.1878433" lon="14.5762917"><ele>123.0</ele><time>2026-04-09T08:26:33.836Z</time></trkpt><trkpt lat="42.1878917" lon="14.5763767"><ele>123.0</ele><time>2026-04-09T08:26:35.835Z</time></trkpt><trkpt lat="42.1879367" lon="14.5764733"><ele>122.4</ele><time>2026-04-09T08:26:37.835Z</time></trkpt><trkpt lat="42.1879783" lon="14.5765717"><ele>121.80000000000001</ele><time>2026-04-09T08:26:39.836Z</time></trkpt><trkpt lat="42.188015" lon="14.5766617"><ele>121.2</ele><time>2026-04-09T08:26:41.835Z</time></trkpt><trkpt lat="42.188065" lon="14.576765"><ele>120.6</ele><time>2026-04-09T08:26:43.835Z</time></trkpt><trkpt lat="42.1881283" lon="14.5768867"><ele>120.0</ele><time>2026-04-09T08:26:45.835Z</time></trkpt><trkpt lat="42.1881983" lon="14.577025"><ele>119.16666666666667</ele><time>2026-04-09T08:26:47.835Z</time></trkpt><trkpt lat="42.18826" lon="14.5771683"><ele>118.33333333333334</ele><time>2026-04-09T08:26:49.835Z</time></trkpt><trkpt lat="42.188325" lon="14.5773133"><ele>117.5</ele><time>2026-04-09T08:26:51.835Z</time></trkpt><trkpt lat="42.1883617" lon="14.5773867"><ele>116.66666666666667</ele><time>2026-04-09T08:26:52.835Z</time></trkpt><trkpt lat="42.1884" lon="14.5774617"><ele>115.83333333333334</ele><time>2026-04-09T08:26:53.835Z</time></trkpt><trkpt lat="42.1884367" lon="14.5775383"><ele>115.0</ele><time>2026-04-09T08:26:54.835Z</time></trkpt><trkpt lat="42.1884717" lon="14.577615"><ele>114.99999999999999</ele><time>2026-04-09T08:26:55.835Z</time></trkpt><trkpt lat="42.1885133" lon="14.5776917"><ele>115.0</ele><time>2026-04-09T08:26:56.835Z</time></trkpt><trkpt lat="42.18855" lon="14.577765"><ele>114.99999999999999</ele><time>2026-04-09T08:26:57.835Z</time></trkpt><trkpt lat="42.1885867" lon="14.5778433"><ele>114.99999999999999</ele><time>2026-04-09T08:26:58.835Z</time></trkpt><trkpt lat="42.1886267" lon="14.577935"><ele>115.0</ele><time>2026-04-09T08:26:59.835Z</time></trkpt><trkpt lat="42.1886667" lon="14.57802"><ele>114.99999999999999</ele><time>2026-04-09T08:27:00.836Z</time></trkpt><trkpt lat="42.1887067" lon="14.5781033"><ele>114.99999999999999</ele><time>2026-04-09T08:27:01.835Z</time></trkpt><trkpt lat="42.1887483" lon="14.5781883"><ele>114.57142857142856</ele><time>2026-04-09T08:27:02.836Z</time></trkpt><trkpt lat="42.1887883" lon="14.57827"><ele>114.14285714285714</ele><time>2026-04-09T08:27:03.835Z</time></trkpt><trkpt lat="42.188825" lon="14.5783567"><ele>113.71428571428571</ele><time>2026-04-09T08:27:04.835Z</time></trkpt><trkpt lat="42.1888667" lon="14.5784433"><ele>113.28571428571428</ele><time>2026-04-09T08:27:05.835Z</time></trkpt><trkpt lat="42.1889083" lon="14.5785267"><ele>112.85714285714286</ele><time>2026-04-09T08:27:06.835Z</time></trkpt><trkpt lat="42.188955" lon="14.5786067"><ele>112.42857142857143</ele><time>2026-04-09T08:27:07.835Z</time></trkpt><trkpt lat="42.1889967" lon="14.57869"><ele>112.0</ele><time>2026-04-09T08:27:08.835Z</time></trkpt><trkpt lat="42.1890433" lon="14.5787667"><ele>111.57142857142857</ele><time>2026-04-09T08:27:09.835Z</time></trkpt><trkpt lat="42.1890867" lon="14.5788483"><ele>111.14285714285714</ele><time>2026-04-09T08:27:10.835Z</time></trkpt><trkpt lat="42.18913" lon="14.5789283"><ele>110.71428571428572</ele><time>2026-04-09T08:27:11.835Z</time></trkpt><trkpt lat="42.1891717" lon="14.5790083"><ele>110.28571428571428</ele><time>2026-04-09T08:27:12.835Z</time></trkpt><trkpt lat="42.1892083" lon="14.57909"><ele>109.85714285714286</ele><time>2026-04-09T08:27:13.836Z</time></trkpt><trkpt lat="42.1892467" lon="14.5791683"><ele>109.42857142857143</ele><time>2026-04-09T08:27:14.835Z</time></trkpt><trkpt lat="42.1892833" lon="14.5792467"><ele>109.0</ele><time>2026-04-09T08:27:15.835Z</time></trkpt><trkpt lat="42.1893233" lon="14.5793233"><ele>109.0</ele><time>2026-04-09T08:27:16.835Z</time></trkpt><trkpt lat="42.189365" lon="14.5794017"><ele>109.0</ele><time>2026-04-09T08:27:17.835Z</time></trkpt><trkpt lat="42.189405" lon="14.579485"><ele>109.0</ele><time>2026-04-09T08:27:18.836Z</time></trkpt><trkpt lat="42.1894467" lon="14.57957"><ele>109.0</ele><time>2026-04-09T08:27:19.835Z</time></trkpt><trkpt lat="42.18948" lon="14.5796483"><ele>109.0</ele><time>2026-04-09T08:27:20.835Z</time></trkpt><trkpt lat="42.189515" lon="14.57973"><ele>109.0</ele><time>2026-04-09T08:27:21.835Z</time></trkpt><trkpt lat="42.1895583" lon="14.579815"><ele>109.0</ele><time>2026-04-09T08:27:22.836Z</time></trkpt><trkpt lat="42.1896017" lon="14.5798917"><ele>108.71428571428572</ele><time>2026-04-09T08:27:23.835Z</time></trkpt><trkpt lat="42.1896383" lon="14.5799683"><ele>108.42857142857143</ele><time>2026-04-09T08:27:24.835Z</time></trkpt><trkpt lat="42.1896783" lon="14.5800433"><ele>108.14285714285714</ele><time>2026-04-09T08:27:25.835Z</time></trkpt><trkpt lat="42.189715" lon="14.58012"><ele>107.85714285714286</ele><time>2026-04-09T08:27:26.835Z</time></trkpt><trkpt lat="42.1897583" lon="14.5801967"><ele>107.57142857142857</ele><time>2026-04-09T08:27:27.835Z</time></trkpt><trkpt lat="42.1897967" lon="14.5802683"><ele>107.28571428571429</ele><time>2026-04-09T08:27:28.835Z</time></trkpt><trkpt lat="42.1898333" lon="14.580345"><ele>107.0</ele><time>2026-04-09T08:27:29.835Z</time></trkpt><trkpt lat="42.1898733" lon="14.5804217"><ele>106.71428571428572</ele><time>2026-04-09T08:27:30.835Z</time></trkpt><trkpt lat="42.1899167" lon="14.5805017"><ele>106.42857142857143</ele><time>2026-04-09T08:27:31.835Z</time></trkpt><trkpt lat="42.18996" lon="14.58058"><ele>106.14285714285714</ele><time>2026-04-09T08:27:32.835Z</time></trkpt><trkpt lat="42.1899967" lon="14.5806617"><ele>105.85714285714286</ele><time>2026-04-09T08:27:33.835Z</time></trkpt><trkpt lat="42.1900367" lon="14.5807433"><ele>105.57142857142857</ele><time>2026-04-09T08:27:34.836Z</time></trkpt><trkpt lat="42.1900833" lon="14.58083"><ele>105.28571428571429</ele><time>2026-04-09T08:27:35.836Z</time></trkpt><trkpt lat="42.1901217" lon="14.580915"><ele>105.0</ele><time>2026-04-09T08:27:36.836Z</time></trkpt><trkpt lat="42.1901583" lon="14.58099"><ele>105.0</ele><time>2026-04-09T08:27:37.835Z</time></trkpt><trkpt lat="42.19023" lon="14.581135"><ele>105.0</ele><time>2026-04-09T08:27:39.835Z</time></trkpt><trkpt lat="42.1902967" lon="14.5812783"><ele>105.0</ele><time>2026-04-09T08:27:41.835Z</time></trkpt><trkpt lat="42.1903633" lon="14.5814217"><ele>105.0</ele><time>2026-04-09T08:27:43.835Z</time></trkpt><trkpt lat="42.1904" lon="14.581495"><ele>105.0</ele><time>2026-04-09T08:27:44.836Z</time></trkpt><trkpt lat="42.1904417" lon="14.581575"><ele>104.5</ele><time>2026-04-09T08:27:45.835Z</time></trkpt><trkpt lat="42.1904783" lon="14.581645"><ele>104.0</ele><time>2026-04-09T08:27:46.835Z</time></trkpt><trkpt lat="42.190515" lon="14.58172"><ele>103.5</ele><time>2026-04-09T08:27:47.835Z</time></trkpt><trkpt lat="42.190585" lon="14.5818617"><ele>103.0</ele><time>2026-04-09T08:27:49.835Z</time></trkpt><trkpt lat="42.19062" lon="14.5819333"><ele>102.5</ele><time>2026-04-09T08:27:50.835Z</time></trkpt><trkpt lat="42.1906583" lon="14.582005"><ele>102.0</ele><time>2026-04-09T08:27:51.835Z</time></trkpt><trkpt lat="42.1907267" lon="14.5821433"><ele>102.0</ele><time>2026-04-09T08:27:53.835Z</time></trkpt><trkpt lat="42.190795" lon="14.5822783"><ele>102.0</ele><time>2026-04-09T08:27:55.835Z</time></trkpt><trkpt lat="42.1908617" lon="14.58242"><ele>102.0</ele><time>2026-04-09T08:27:57.835Z</time></trkpt><trkpt lat="42.1909" lon="14.5824917"><ele>102.0</ele><time>2026-04-09T08:27:58.835Z</time></trkpt><trkpt lat="42.19097" lon="14.5826217"><ele>102.0</ele><time>2026-04-09T08:28:00.836Z</time></trkpt><trkpt lat="42.1910367" lon="14.5827533"><ele>101.16666666666667</ele><time>2026-04-09T08:28:02.835Z</time></trkpt><trkpt lat="42.1911067" lon="14.5828917"><ele>100.33333333333334</ele><time>2026-04-09T08:28:04.835Z</time></trkpt><trkpt lat="42.1911417" lon="14.5829667"><ele>99.5</ele><time>2026-04-09T08:28:05.835Z</time></trkpt><trkpt lat="42.191175" lon="14.5830417"><ele>98.66666666666667</ele><time>2026-04-09T08:28:06.836Z</time></trkpt><trkpt lat="42.1912117" lon="14.5831133"><ele>97.83333333333334</ele><time>2026-04-09T08:28:07.835Z</time></trkpt><trkpt lat="42.19125" lon="14.5831817"><ele>97.0</ele><time>2026-04-09T08:28:08.835Z</time></trkpt><trkpt lat="42.191315" lon="14.5833233"><ele>97.0</ele><time>2026-04-09T08:28:10.835Z</time></trkpt><trkpt lat="42.191385" lon="14.5834533"><ele>97.0</ele><time>2026-04-09T08:28:12.835Z</time></trkpt><trkpt lat="42.1914533" lon="14.5835867"><ele>97.0</ele><time>2026-04-09T08:28:14.835Z</time></trkpt><trkpt lat="42.1915233" lon="14.583725"><ele>97.0</ele><time>2026-04-09T08:28:16.835Z</time></trkpt><trkpt lat="42.191595" lon="14.583865"><ele>97.33333333333334</ele><time>2026-04-09T08:28:18.835Z</time></trkpt><trkpt lat="42.1916317" lon="14.5839383"><ele>97.66666666666667</ele><time>2026-04-09T08:28:19.835Z</time></trkpt><trkpt lat="42.1916683" lon="14.5840133"><ele>98.0</ele><time>2026-04-09T08:28:20.835Z</time></trkpt><trkpt lat="42.1917033" lon="14.5840867"><ele>98.33333333333334</ele><time>2026-04-09T08:28:21.835Z</time></trkpt><trkpt lat="42.191775" lon="14.5842183"><ele>98.66666666666667</ele><time>2026-04-09T08:28:23.835Z</time></trkpt><trkpt lat="42.1918417" lon="14.5843567"><ele>99.0</ele><time>2026-04-09T08:28:25.835Z</time></trkpt><trkpt lat="42.1919117" lon="14.5844933"><ele>98.33333333333333</ele><time>2026-04-09T08:28:27.835Z</time></trkpt><trkpt lat="42.1919483" lon="14.5845633"><ele>97.66666666666667</ele><time>2026-04-09T08:28:28.835Z</time></trkpt><trkpt lat="42.1919867" lon="14.5846317"><ele>97.0</ele><time>2026-04-09T08:28:29.835Z</time></trkpt><trkpt lat="42.1920533" lon="14.5847633"><ele>96.33333333333334</ele><time>2026-04-09T08:28:31.835Z</time></trkpt><trkpt lat="42.1920883" lon="14.584835"><ele>95.66666666666667</ele><time>2026-04-09T08:28:32.836Z</time></trkpt><trkpt lat="42.192155" lon="14.58497"><ele>95.0</ele><time>2026-04-09T08:28:34.835Z</time></trkpt><trkpt lat="42.192225" lon="14.5851067"><ele>95.0</ele><time>2026-04-09T08:28:36.835Z</time></trkpt><trkpt lat="42.19229" lon="14.58525"><ele>95.0</ele><time>2026-04-09T08:28:38.835Z</time></trkpt><trkpt lat="42.192325" lon="14.5853267"><ele>95.0</ele><time>2026-04-09T08:28:39.835Z</time></trkpt><trkpt lat="42.192365" lon="14.5853967"><ele>95.0</ele><time>2026-04-09T08:28:40.835Z</time></trkpt><trkpt lat="42.1924383" lon="14.5855317"><ele>95.0</ele><time>2026-04-09T08:28:42.835Z</time></trkpt><trkpt lat="42.1925033" lon="14.58567"><ele>94.75</ele><time>2026-04-09T08:28:44.835Z</time></trkpt><trkpt lat="42.1925667" lon="14.58581"><ele>94.5</ele><time>2026-04-09T08:28:46.835Z</time></trkpt><trkpt lat="42.19262" lon="14.5859517"><ele>94.25</ele><time>2026-04-09T08:28:48.835Z</time></trkpt><trkpt lat="42.1926683" lon="14.5861"><ele>94.0</ele><time>2026-04-09T08:28:50.835Z</time></trkpt><trkpt lat="42.192725" lon="14.5862467"><ele>94.0</ele><time>2026-04-09T08:28:52.835Z</time></trkpt><trkpt lat="42.1927717" lon="14.5863933"><ele>94.0</ele><time>2026-04-09T08:28:54.835Z</time></trkpt><trkpt lat="42.19282" lon="14.58654"><ele>94.0</ele><time>2026-04-09T08:28:56.836Z</time></trkpt><trkpt lat="42.1928533" lon="14.5866917"><ele>94.0</ele><time>2026-04-09T08:28:58.835Z</time></trkpt><trkpt lat="42.1928917" lon="14.58685"><ele>94.0</ele><time>2026-04-09T08:29:00.835Z</time></trkpt><trkpt lat="42.1929117" lon="14.5869317"><ele>94.0</ele><time>2026-04-09T08:29:01.836Z</time></trkpt><trkpt lat="42.192945" lon="14.5870917"><ele>94.0</ele><time>2026-04-09T08:29:03.835Z</time></trkpt><trkpt lat="42.1929767" lon="14.58725"><ele>94.0</ele><time>2026-04-09T08:29:05.835Z</time></trkpt><trkpt lat="42.193" lon="14.5874"><ele>94.0</ele><time>2026-04-09T08:29:07.836Z</time></trkpt><trkpt lat="42.1930267" lon="14.5875517"><ele>93.25</ele><time>2026-04-09T08:29:09.835Z</time></trkpt><trkpt lat="42.1930317" lon="14.5877133"><ele>92.5</ele><time>2026-04-09T08:29:11.835Z</time></trkpt><trkpt lat="42.1930417" lon="14.5878633"><ele>91.75</ele><time>2026-04-09T08:29:13.835Z</time></trkpt><trkpt lat="42.19305" lon="14.588025"><ele>91.0</ele><time>2026-04-09T08:29:15.836Z</time></trkpt><trkpt lat="42.1930533" lon="14.5881817"><ele>90.5</ele><time>2026-04-09T08:29:17.835Z</time></trkpt><trkpt lat="42.1930667" lon="14.5883367"><ele>90.0</ele><time>2026-04-09T08:29:19.835Z</time></trkpt><trkpt lat="42.1930667" lon="14.5884867"><ele>89.5</ele><time>2026-04-09T08:29:21.835Z</time></trkpt><trkpt lat="42.19306" lon="14.588635"><ele>89.0</ele><time>2026-04-09T08:29:23.835Z</time></trkpt><trkpt lat="42.1930633" lon="14.5888"><ele>88.6</ele><time>2026-04-09T08:29:25.835Z</time></trkpt><trkpt lat="42.193065" lon="14.588885"><ele>88.2</ele><time>2026-04-09T08:29:26.835Z</time></trkpt><trkpt lat="42.193075" lon="14.5890517"><ele>87.8</ele><time>2026-04-09T08:29:28.835Z</time></trkpt><trkpt lat="42.1930783" lon="14.5892133"><ele>87.39999999999999</ele><time>2026-04-09T08:29:30.836Z</time></trkpt><trkpt lat="42.1930817" lon="14.5892983"><ele>87.0</ele><time>2026-04-09T08:29:31.835Z</time></trkpt><trkpt lat="42.1930883" lon="14.58946"><ele>87.0</ele><time>2026-04-09T08:29:33.835Z</time></trkpt><trkpt lat="42.193085" lon="14.5896117"><ele>87.0</ele><time>2026-04-09T08:29:35.836Z</time></trkpt><trkpt lat="42.19308" lon="14.5897683"><ele>87.0</ele><time>2026-04-09T08:29:37.835Z</time></trkpt><trkpt lat="42.19307" lon="14.58992"><ele>87.0</ele><time>2026-04-09T08:29:39.836Z</time></trkpt><trkpt lat="42.19306" lon="14.5900717"><ele>87.0</ele><time>2026-04-09T08:29:41.835Z</time></trkpt><trkpt lat="42.1930417" lon="14.59022"><ele>87.0</ele><time>2026-04-09T08:29:43.835Z</time></trkpt><trkpt lat="42.1930217" lon="14.5903717"><ele>87.0</ele><time>2026-04-09T08:29:45.835Z</time></trkpt><trkpt lat="42.1930017" lon="14.5905267"><ele>87.0</ele><time>2026-04-09T08:29:47.835Z</time></trkpt><trkpt lat="42.1929717" lon="14.5906833"><ele>87.0</ele><time>2026-04-09T08:29:49.835Z</time></trkpt><trkpt lat="42.1929367" lon="14.59083"><ele>87.0</ele><time>2026-04-09T08:29:51.835Z</time></trkpt><trkpt lat="42.1929017" lon="14.5909883"><ele>87.0</ele><time>2026-04-09T08:29:53.836Z</time></trkpt><trkpt lat="42.1928767" lon="14.5910667"><ele>87.0</ele><time>2026-04-09T08:29:54.835Z</time></trkpt><trkpt lat="42.19283" lon="14.5912233"><ele>87.0</ele><time>2026-04-09T08:29:56.836Z</time></trkpt><trkpt lat="42.1927833" lon="14.5913783"><ele>86.83333333333333</ele><time>2026-04-09T08:29:58.835Z</time></trkpt><trkpt lat="42.19276" lon="14.59146"><ele>86.66666666666667</ele><time>2026-04-09T08:29:59.835Z</time></trkpt><trkpt lat="42.1927033" lon="14.5916067"><ele>86.5</ele><time>2026-04-09T08:30:01.835Z</time></trkpt><trkpt lat="42.19265" lon="14.59176"><ele>86.33333333333334</ele><time>2026-04-09T08:30:03.835Z</time></trkpt><trkpt lat="42.1926217" lon="14.59184"><ele>86.16666666666667</ele><time>2026-04-09T08:30:04.835Z</time></trkpt><trkpt lat="42.1925917" lon="14.5919167"><ele>86.0</ele><time>2026-04-09T08:30:05.835Z</time></trkpt><trkpt lat="42.1925633" lon="14.591995"><ele>86.00000000000001</ele><time>2026-04-09T08:30:06.835Z</time></trkpt><trkpt lat="42.1925367" lon="14.592075"><ele>86.0</ele><time>2026-04-09T08:30:07.835Z</time></trkpt><trkpt lat="42.1925083" lon="14.5921583"><ele>86.0</ele><time>2026-04-09T08:30:08.836Z</time></trkpt><trkpt lat="42.1924767" lon="14.5922417"><ele>86.0</ele><time>2026-04-09T08:30:09.835Z</time></trkpt><trkpt lat="42.1924433" lon="14.59232"><ele>86.0</ele><time>2026-04-09T08:30:10.836Z</time></trkpt><trkpt lat="42.1924133" lon="14.5924067"><ele>86.00000000000001</ele><time>2026-04-09T08:30:11.836Z</time></trkpt><trkpt lat="42.1923867" lon="14.592495"><ele>86.0</ele><time>2026-04-09T08:30:12.835Z</time></trkpt><trkpt lat="42.1923567" lon="14.5925867"><ele>84.00000000000001</ele><time>2026-04-09T08:30:13.835Z</time></trkpt><trkpt lat="42.1923267" lon="14.5926683"><ele>82.0</ele><time>2026-04-09T08:30:14.835Z</time></trkpt><trkpt lat="42.1922967" lon="14.5927517"><ele>80.0</ele><time>2026-04-09T08:30:15.835Z</time></trkpt><trkpt lat="42.1922683" lon="14.59284"><ele>78.0</ele><time>2026-04-09T08:30:16.835Z</time></trkpt><trkpt lat="42.192245" lon="14.592935"><ele>76.0</ele><time>2026-04-09T08:30:17.835Z</time></trkpt><trkpt lat="42.19222" lon="14.5930333"><ele>74.00000000000001</ele><time>2026-04-09T08:30:18.836Z</time></trkpt><trkpt lat="42.1921983" lon="14.5931333"><ele>72.0</ele><time>2026-04-09T08:30:19.835Z</time></trkpt><trkpt lat="42.1921733" lon="14.5932383"><ele>71.66666666666667</ele><time>2026-04-09T08:30:20.835Z</time></trkpt><trkpt lat="42.1921517" lon="14.593345"><ele>71.33333333333333</ele><time>2026-04-09T08:30:21.835Z</time></trkpt><trkpt lat="42.192125" lon="14.5934517"><ele>71.0</ele><time>2026-04-09T08:30:22.835Z</time></trkpt><trkpt lat="42.1921033" lon="14.5935583"><ele>70.66666666666666</ele><time>2026-04-09T08:30:23.835Z</time></trkpt><trkpt lat="42.1920833" lon="14.5936717"><ele>70.33333333333333</ele><time>2026-04-09T08:30:24.836Z</time></trkpt><trkpt lat="42.1920633" lon="14.5937833"><ele>70.0</ele><time>2026-04-09T08:30:25.836Z</time></trkpt><trkpt lat="42.1920383" lon="14.593895"><ele>70.0</ele><time>2026-04-09T08:30:26.835Z</time></trkpt><trkpt lat="42.1920167" lon="14.5940083"><ele>70.0</ele><time>2026-04-09T08:30:27.835Z</time></trkpt><trkpt lat="42.1919967" lon="14.594125"><ele>70.0</ele><time>2026-04-09T08:30:28.835Z</time></trkpt><trkpt lat="42.19198" lon="14.5942433"><ele>70.0</ele><time>2026-04-09T08:30:29.835Z</time></trkpt><trkpt lat="42.1919617" lon="14.5943533"><ele>70.0</ele><time>2026-04-09T08:30:30.836Z</time></trkpt><trkpt lat="42.1919417" lon="14.59447"><ele>70.0</ele><time>2026-04-09T08:30:31.835Z</time></trkpt><trkpt lat="42.19192" lon="14.5945817"><ele>70.16666666666666</ele><time>2026-04-09T08:30:32.835Z</time></trkpt><trkpt lat="42.1919017" lon="14.5946983"><ele>70.33333333333333</ele><time>2026-04-09T08:30:33.835Z</time></trkpt><trkpt lat="42.1918783" lon="14.5948083"><ele>70.5</ele><time>2026-04-09T08:30:34.835Z</time></trkpt><trkpt lat="42.19186" lon="14.5949167"><ele>70.66666666666667</ele><time>2026-04-09T08:30:35.835Z</time></trkpt><trkpt lat="42.19184" lon="14.5950233"><ele>70.83333333333334</ele><time>2026-04-09T08:30:36.835Z</time></trkpt><trkpt lat="42.19182" lon="14.5951367"><ele>71.0</ele><time>2026-04-09T08:30:37.835Z</time></trkpt><trkpt lat="42.1918067" lon="14.5952517"><ele>71.16666666666667</ele><time>2026-04-09T08:30:38.836Z</time></trkpt><trkpt lat="42.1918017" lon="14.5953633"><ele>71.33333333333334</ele><time>2026-04-09T08:30:39.835Z</time></trkpt><trkpt lat="42.1917933" lon="14.595475"><ele>71.5</ele><time>2026-04-09T08:30:40.835Z</time></trkpt><trkpt lat="42.1917883" lon="14.59559"><ele>71.66666666666667</ele><time>2026-04-09T08:30:41.835Z</time></trkpt><trkpt lat="42.1917883" lon="14.5957017"><ele>71.83333333333333</ele><time>2026-04-09T08:30:42.835Z</time></trkpt><trkpt lat="42.1917883" lon="14.5958133"><ele>72.0</ele><time>2026-04-09T08:30:43.835Z</time></trkpt><trkpt lat="42.19179" lon="14.595915"><ele>72.0</ele><time>2026-04-09T08:30:44.835Z</time></trkpt><trkpt lat="42.1917983" lon="14.596015"><ele>72.0</ele><time>2026-04-09T08:30:45.835Z</time></trkpt><trkpt lat="42.191805" lon="14.596105"><ele>72.0</ele><time>2026-04-09T08:30:46.835Z</time></trkpt><trkpt lat="42.1918183" lon="14.5962"><ele>72.0</ele><time>2026-04-09T08:30:47.835Z</time></trkpt><trkpt lat="42.1918317" lon="14.5962883"><ele>72.0</ele><time>2026-04-09T08:30:48.835Z</time></trkpt><trkpt lat="42.1918717" lon="14.5964483"><ele>72.0</ele><time>2026-04-09T08:30:50.835Z</time></trkpt><trkpt lat="42.1918967" lon="14.5965283"><ele>71.83333333333333</ele><time>2026-04-09T08:30:51.835Z</time></trkpt><trkpt lat="42.19192" lon="14.5966117"><ele>71.66666666666667</ele><time>2026-04-09T08:30:52.836Z</time></trkpt><trkpt lat="42.1919433" lon="14.5966967"><ele>71.5</ele><time>2026-04-09T08:30:53.835Z</time></trkpt><trkpt lat="42.191965" lon="14.5967767"><ele>71.33333333333334</ele><time>2026-04-09T08:30:54.835Z</time></trkpt><trkpt lat="42.1919867" lon="14.5968583"><ele>71.16666666666667</ele><time>2026-04-09T08:30:55.835Z</time></trkpt><trkpt lat="42.19203" lon="14.59701"><ele>71.0</ele><time>2026-04-09T08:30:57.836Z</time></trkpt><trkpt lat="42.1920833" lon="14.5971517"><ele>70.0</ele><time>2026-04-09T08:30:59.836Z</time></trkpt><trkpt lat="42.1921333" lon="14.5973"><ele>69.0</ele><time>2026-04-09T08:31:01.835Z</time></trkpt><trkpt lat="42.1921783" lon="14.5974517"><ele>68.0</ele><time>2026-04-09T08:31:03.835Z</time></trkpt><trkpt lat="42.19222" lon="14.59759"><ele>67.0</ele><time>2026-04-09T08:31:05.835Z</time></trkpt><trkpt lat="42.19227" lon="14.5977333"><ele>66.2</ele><time>2026-04-09T08:31:07.835Z</time></trkpt><trkpt lat="42.1923167" lon="14.59788"><ele>65.4</ele><time>2026-04-09T08:31:09.836Z</time></trkpt><trkpt lat="42.1923567" lon="14.59802"><ele>64.6</ele><time>2026-04-09T08:31:11.835Z</time></trkpt><trkpt lat="42.1923883" lon="14.5981583"><ele>63.8</ele><time>2026-04-09T08:31:13.835Z</time></trkpt><trkpt lat="42.1924217" lon="14.5983017"><ele>63.0</ele><time>2026-04-09T08:31:15.835Z</time></trkpt><trkpt lat="42.19245" lon="14.598445"><ele>64.8</ele><time>2026-04-09T08:31:17.835Z</time></trkpt><trkpt lat="42.1924717" lon="14.5985883"><ele>66.6</ele><time>2026-04-09T08:31:19.836Z</time></trkpt><trkpt lat="42.192495" lon="14.5987267"><ele>68.4</ele><time>2026-04-09T08:31:21.835Z</time></trkpt><trkpt lat="42.1925167" lon="14.5988617"><ele>70.2</ele><time>2026-04-09T08:31:23.835Z</time></trkpt><trkpt lat="42.19253" lon="14.5990033"><ele>72.0</ele><time>2026-04-09T08:31:25.835Z</time></trkpt><trkpt lat="42.1925483" lon="14.59914"><ele>72.0</ele><time>2026-04-09T08:31:27.835Z</time></trkpt><trkpt lat="42.1925683" lon="14.5992867"><ele>72.0</ele><time>2026-04-09T08:31:29.836Z</time></trkpt><trkpt lat="42.1925833" lon="14.5994283"><ele>72.0</ele><time>2026-04-09T08:31:31.836Z</time></trkpt><trkpt lat="42.1925967" lon="14.5995717"><ele>72.0</ele><time>2026-04-09T08:31:33.835Z</time></trkpt><trkpt lat="42.1926033" lon="14.59972"><ele>72.0</ele><time>2026-04-09T08:31:35.835Z</time></trkpt><trkpt lat="42.1926133" lon="14.599865"><ele>71.4</ele><time>2026-04-09T08:31:37.835Z</time></trkpt><trkpt lat="42.1926233" lon="14.6000067"><ele>70.80000000000001</ele><time>2026-04-09T08:31:39.835Z</time></trkpt><trkpt lat="42.1926383" lon="14.60015"><ele>70.2</ele><time>2026-04-09T08:31:41.835Z</time></trkpt><trkpt lat="42.1926467" lon="14.6002883"><ele>69.60000000000001</ele><time>2026-04-09T08:31:43.835Z</time></trkpt><trkpt lat="42.1926567" lon="14.6004333"><ele>69.0</ele><time>2026-04-09T08:31:45.835Z</time></trkpt><trkpt lat="42.1926633" lon="14.600565"><ele>68.60000000000001</ele><time>2026-04-09T08:31:47.835Z</time></trkpt><trkpt lat="42.1926733" lon="14.6007017"><ele>68.2</ele><time>2026-04-09T08:31:49.835Z</time></trkpt><trkpt lat="42.19269" lon="14.60085"><ele>67.80000000000001</ele><time>2026-04-09T08:31:51.835Z</time></trkpt><trkpt lat="42.1927067" lon="14.600995"><ele>67.4</ele><time>2026-04-09T08:31:53.835Z</time></trkpt><trkpt lat="42.19272" lon="14.601135"><ele>67.0</ele><time>2026-04-09T08:31:55.835Z</time></trkpt><trkpt lat="42.1927317" lon="14.6012717"><ele>66.8</ele><time>2026-04-09T08:31:57.835Z</time></trkpt><trkpt lat="42.1927417" lon="14.60142"><ele>66.6</ele><time>2026-04-09T08:31:59.835Z</time></trkpt><trkpt lat="42.192745" lon="14.60156"><ele>66.39999999999999</ele><time>2026-04-09T08:32:01.835Z</time></trkpt><trkpt lat="42.1927483" lon="14.601705"><ele>66.2</ele><time>2026-04-09T08:32:03.835Z</time></trkpt><trkpt lat="42.1927633" lon="14.601845"><ele>66.0</ele><time>2026-04-09T08:32:05.835Z</time></trkpt><trkpt lat="42.19278" lon="14.601985"><ele>66.0</ele><time>2026-04-09T08:32:07.835Z</time></trkpt><trkpt lat="42.1927917" lon="14.60212"><ele>66.0</ele><time>2026-04-09T08:32:09.835Z</time></trkpt><trkpt lat="42.192805" lon="14.6022583"><ele>66.0</ele><time>2026-04-09T08:32:11.835Z</time></trkpt><trkpt lat="42.19282" lon="14.602395"><ele>66.0</ele><time>2026-04-09T08:32:13.835Z</time></trkpt><trkpt lat="42.1928267" lon="14.6025333"><ele>66.0</ele><time>2026-04-09T08:32:15.835Z</time></trkpt><trkpt lat="42.1928367" lon="14.602675"><ele>66.0</ele><time>2026-04-09T08:32:17.835Z</time></trkpt><trkpt lat="42.19285" lon="14.6028167"><ele>66.0</ele><time>2026-04-09T08:32:19.835Z</time></trkpt><trkpt lat="42.19286" lon="14.602945"><ele>66.0</ele><time>2026-04-09T08:32:21.835Z</time></trkpt><trkpt lat="42.19287" lon="14.6030883"><ele>66.0</ele><time>2026-04-09T08:32:23.835Z</time></trkpt><trkpt lat="42.19288" lon="14.6032283"><ele>66.0</ele><time>2026-04-09T08:32:25.836Z</time></trkpt><trkpt lat="42.1929" lon="14.6033717"><ele>65.8</ele><time>2026-04-09T08:32:27.835Z</time></trkpt><trkpt lat="42.1929067" lon="14.6035117"><ele>65.6</ele><time>2026-04-09T08:32:29.835Z</time></trkpt><trkpt lat="42.1929167" lon="14.60365"><ele>65.4</ele><time>2026-04-09T08:32:31.835Z</time></trkpt><trkpt lat="42.1929283" lon="14.603795"><ele>65.2</ele><time>2026-04-09T08:32:33.835Z</time></trkpt><trkpt lat="42.1929417" lon="14.603935"><ele>65.0</ele><time>2026-04-09T08:32:35.835Z</time></trkpt><trkpt lat="42.19295" lon="14.6040767"><ele>64.2</ele><time>2026-04-09T08:32:37.835Z</time></trkpt><trkpt lat="42.19296" lon="14.6042083"><ele>63.4</ele><time>2026-04-09T08:32:39.835Z</time></trkpt><trkpt lat="42.19297" lon="14.604355"><ele>62.599999999999994</ele><time>2026-04-09T08:32:41.835Z</time></trkpt><trkpt lat="42.19298" lon="14.6044917"><ele>61.8</ele><time>2026-04-09T08:32:43.835Z</time></trkpt><trkpt lat="42.192985" lon="14.6046267"><ele>61.0</ele><time>2026-04-09T08:32:45.835Z</time></trkpt><trkpt lat="42.1929933" lon="14.6047667"><ele>60.8</ele><time>2026-04-09T08:32:47.836Z</time></trkpt><trkpt lat="42.1930067" lon="14.6049133"><ele>60.599999999999994</ele><time>2026-04-09T08:32:49.835Z</time></trkpt><trkpt lat="42.1930217" lon="14.6050567"><ele>60.4</ele><time>2026-04-09T08:32:51.835Z</time></trkpt><trkpt lat="42.19303" lon="14.6051983"><ele>60.2</ele><time>2026-04-09T08:32:53.835Z</time></trkpt><trkpt lat="42.1930433" lon="14.6053467"><ele>60.0</ele><time>2026-04-09T08:32:55.835Z</time></trkpt><trkpt lat="42.1930583" lon="14.60549"><ele>59.8</ele><time>2026-04-09T08:32:57.835Z</time></trkpt><trkpt lat="42.1930733" lon="14.60563"><ele>59.6</ele><time>2026-04-09T08:32:59.835Z</time></trkpt><trkpt lat="42.193085" lon="14.60578"><ele>59.400000000000006</ele><time>2026-04-09T08:33:01.835Z</time></trkpt><trkpt lat="42.193095" lon="14.60593"><ele>59.2</ele><time>2026-04-09T08:33:03.836Z</time></trkpt><trkpt lat="42.1931033" lon="14.60608"><ele>59.0</ele><time>2026-04-09T08:33:05.835Z</time></trkpt><trkpt lat="42.1931167" lon="14.606225"><ele>58.800000000000004</ele><time>2026-04-09T08:33:07.835Z</time></trkpt><trkpt lat="42.1931367" lon="14.6063783"><ele>58.60000000000001</ele><time>2026-04-09T08:33:09.835Z</time></trkpt><trkpt lat="42.1931567" lon="14.6065233"><ele>58.4</ele><time>2026-04-09T08:33:11.835Z</time></trkpt><trkpt lat="42.1931733" lon="14.6066717"><ele>58.2</ele><time>2026-04-09T08:33:13.835Z</time></trkpt><trkpt lat="42.19318" lon="14.6068183"><ele>58.0</ele><time>2026-04-09T08:33:15.835Z</time></trkpt><trkpt lat="42.1931933" lon="14.606955"><ele>60.75</ele><time>2026-04-09T08:33:17.835Z</time></trkpt><trkpt lat="42.1932067" lon="14.6071017"><ele>63.5</ele><time>2026-04-09T08:33:19.836Z</time></trkpt><trkpt lat="42.19323" lon="14.607255"><ele>66.25</ele><time>2026-04-09T08:33:21.836Z</time></trkpt><trkpt lat="42.19325" lon="14.6074067"><ele>69.0</ele><time>2026-04-09T08:33:23.835Z</time></trkpt><trkpt lat="42.1932667" lon="14.6075667"><ele>69.0</ele><time>2026-04-09T08:33:25.835Z</time></trkpt><trkpt lat="42.1932917" lon="14.6077167"><ele>69.0</ele><time>2026-04-09T08:33:27.835Z</time></trkpt><trkpt lat="42.193315" lon="14.6078667"><ele>69.0</ele><time>2026-04-09T08:33:29.835Z</time></trkpt><trkpt lat="42.1933367" lon="14.6080133"><ele>69.0</ele><time>2026-04-09T08:33:31.836Z</time></trkpt><trkpt lat="42.19335" lon="14.6081583"><ele>69.0</ele><time>2026-04-09T08:33:33.835Z</time></trkpt><trkpt lat="42.1933767" lon="14.6083067"><ele>68.25</ele><time>2026-04-09T08:33:35.835Z</time></trkpt><trkpt lat="42.1934017" lon="14.6084583"><ele>67.5</ele><time>2026-04-09T08:33:37.835Z</time></trkpt><trkpt lat="42.1934183" lon="14.6086117"><ele>66.75</ele><time>2026-04-09T08:33:39.835Z</time></trkpt><trkpt lat="42.1934417" lon="14.60876"><ele>66.0</ele><time>2026-04-09T08:33:41.835Z</time></trkpt><trkpt lat="42.1934633" lon="14.608915"><ele>65.5</ele><time>2026-04-09T08:33:43.835Z</time></trkpt><trkpt lat="42.1934883" lon="14.6090733"><ele>65.0</ele><time>2026-04-09T08:33:45.835Z</time></trkpt><trkpt lat="42.1935167" lon="14.6092317"><ele>64.5</ele><time>2026-04-09T08:33:47.836Z</time></trkpt><trkpt lat="42.19353" lon="14.6093167"><ele>64.0</ele><time>2026-04-09T08:33:48.835Z</time></trkpt><trkpt lat="42.193545" lon="14.6094067"><ele>63.5</ele><time>2026-04-09T08:33:49.835Z</time></trkpt><trkpt lat="42.193555" lon="14.6094917"><ele>63.0</ele><time>2026-04-09T08:33:50.836Z</time></trkpt><trkpt lat="42.1935683" lon="14.6095833"><ele>62.85714285714286</ele><time>2026-04-09T08:33:51.836Z</time></trkpt><trkpt lat="42.19358" lon="14.6096717"><ele>62.714285714285715</ele><time>2026-04-09T08:33:52.835Z</time></trkpt><trkpt lat="42.1935933" lon="14.609765"><ele>62.57142857142857</ele><time>2026-04-09T08:33:53.835Z</time></trkpt><trkpt lat="42.193605" lon="14.609855"><ele>62.42857142857143</ele><time>2026-04-09T08:33:54.835Z</time></trkpt><trkpt lat="42.1936167" lon="14.609955"><ele>62.28571428571429</ele><time>2026-04-09T08:33:55.835Z</time></trkpt><trkpt lat="42.1936267" lon="14.61005"><ele>62.142857142857146</ele><time>2026-04-09T08:33:56.835Z</time></trkpt><trkpt lat="42.19364" lon="14.6101417"><ele>62.0</ele><time>2026-04-09T08:33:57.835Z</time></trkpt><trkpt lat="42.1936583" lon="14.6102417"><ele>61.833333333333336</ele><time>2026-04-09T08:33:58.835Z</time></trkpt><trkpt lat="42.1936767" lon="14.6103483"><ele>61.66666666666667</ele><time>2026-04-09T08:33:59.835Z</time></trkpt><trkpt lat="42.193695" lon="14.6104533"><ele>61.5</ele><time>2026-04-09T08:34:00.835Z</time></trkpt><trkpt lat="42.1937083" lon="14.6105617"><ele>61.33333333333333</ele><time>2026-04-09T08:34:01.835Z</time></trkpt><trkpt lat="42.19372" lon="14.610665"><ele>61.166666666666664</ele><time>2026-04-09T08:34:02.835Z</time></trkpt><trkpt lat="42.1937317" lon="14.6107733"><ele>61.0</ele><time>2026-04-09T08:34:03.835Z</time></trkpt><trkpt lat="42.19375" lon="14.6108833"><ele>60.99999999999999</ele><time>2026-04-09T08:34:04.835Z</time></trkpt><trkpt lat="42.193765" lon="14.6109917"><ele>61.0</ele><time>2026-04-09T08:34:05.835Z</time></trkpt><trkpt lat="42.1937817" lon="14.6110967"><ele>61.0</ele><time>2026-04-09T08:34:06.835Z</time></trkpt><trkpt lat="42.193795" lon="14.61121"><ele>61.0</ele><time>2026-04-09T08:34:07.835Z</time></trkpt><trkpt lat="42.1938083" lon="14.6113217"><ele>60.99999999999999</ele><time>2026-04-09T08:34:08.836Z</time></trkpt><trkpt lat="42.1938233" lon="14.6114367"><ele>61.0</ele><time>2026-04-09T08:34:09.835Z</time></trkpt><trkpt lat="42.1938417" lon="14.6115533"><ele>60.0</ele><time>2026-04-09T08:34:10.835Z</time></trkpt><trkpt lat="42.1938583" lon="14.611675"><ele>58.99999999999999</ele><time>2026-04-09T08:34:11.835Z</time></trkpt><trkpt lat="42.19387" lon="14.6118"><ele>57.99999999999999</ele><time>2026-04-09T08:34:12.835Z</time></trkpt><trkpt lat="42.193885" lon="14.6119267"><ele>57.0</ele><time>2026-04-09T08:34:13.835Z</time></trkpt><trkpt lat="42.193895" lon="14.6120533"><ele>56.0</ele><time>2026-04-09T08:34:14.836Z</time></trkpt><trkpt lat="42.1939067" lon="14.61218"><ele>55.4</ele><time>2026-04-09T08:34:15.835Z</time></trkpt><trkpt lat="42.1939133" lon="14.6123033"><ele>54.8</ele><time>2026-04-09T08:34:16.836Z</time></trkpt><trkpt lat="42.1939267" lon="14.6124367"><ele>54.199999999999996</ele><time>2026-04-09T08:34:17.835Z</time></trkpt><trkpt lat="42.1939367" lon="14.6125767"><ele>53.599999999999994</ele><time>2026-04-09T08:34:18.835Z</time></trkpt><trkpt lat="42.1939467" lon="14.6127117"><ele>53.0</ele><time>2026-04-09T08:34:19.835Z</time></trkpt><trkpt lat="42.1939533" lon="14.612855"><ele>52.8</ele><time>2026-04-09T08:34:20.835Z</time></trkpt><trkpt lat="42.1939617" lon="14.613005"><ele>52.599999999999994</ele><time>2026-04-09T08:34:21.836Z</time></trkpt><trkpt lat="42.1939733" lon="14.613155"><ele>52.400000000000006</ele><time>2026-04-09T08:34:22.836Z</time></trkpt><trkpt lat="42.1939833" lon="14.6133067"><ele>52.2</ele><time>2026-04-09T08:34:23.835Z</time></trkpt><trkpt lat="42.19399" lon="14.6134517"><ele>52.0</ele><time>2026-04-09T08:34:24.836Z</time></trkpt><trkpt lat="42.194005" lon="14.613605"><ele>50.25</ele><time>2026-04-09T08:34:25.835Z</time></trkpt><trkpt lat="42.1940133" lon="14.6137583"><ele>48.5</ele><time>2026-04-09T08:34:26.835Z</time></trkpt><trkpt lat="42.1940217" lon="14.6139083"><ele>46.75</ele><time>2026-04-09T08:34:27.835Z</time></trkpt><trkpt lat="42.1940317" lon="14.6140617"><ele>45.0</ele><time>2026-04-09T08:34:28.835Z</time></trkpt><trkpt lat="42.1940333" lon="14.6142117"><ele>45.0</ele><time>2026-04-09T08:34:29.835Z</time></trkpt><trkpt lat="42.1940433" lon="14.614355"><ele>45.0</ele><time>2026-04-09T08:34:30.835Z</time></trkpt><trkpt lat="42.194055" lon="14.6145067"><ele>45.0</ele><time>2026-04-09T08:34:31.835Z</time></trkpt><trkpt lat="42.1940683" lon="14.6146583"><ele>45.0</ele><time>2026-04-09T08:34:32.835Z</time></trkpt><trkpt lat="42.19408" lon="14.6148183"><ele>43.0</ele><time>2026-04-09T08:34:33.835Z</time></trkpt><trkpt lat="42.1940917" lon="14.614975"><ele>41.0</ele><time>2026-04-09T08:34:34.836Z</time></trkpt><trkpt lat="42.1941067" lon="14.61513"><ele>39.0</ele><time>2026-04-09T08:34:35.836Z</time></trkpt><trkpt lat="42.1941233" lon="14.61529"><ele>37.0</ele><time>2026-04-09T08:34:36.835Z</time></trkpt><trkpt lat="42.1941417" lon="14.615455"><ele>35.25</ele><time>2026-04-09T08:34:37.836Z</time></trkpt><trkpt lat="42.1941567" lon="14.6156233"><ele>33.5</ele><time>2026-04-09T08:34:38.835Z</time></trkpt><trkpt lat="42.1941767" lon="14.6157883"><ele>31.75</ele><time>2026-04-09T08:34:39.835Z</time></trkpt><trkpt lat="42.1942033" lon="14.6159533"><ele>30.0</ele><time>2026-04-09T08:34:40.835Z</time></trkpt><trkpt lat="42.19423" lon="14.6161033"><ele>28.75</ele><time>2026-04-09T08:34:41.835Z</time></trkpt><trkpt lat="42.1942617" lon="14.6162617"><ele>27.5</ele><time>2026-04-09T08:34:42.835Z</time></trkpt><trkpt lat="42.194295" lon="14.616415"><ele>26.25</ele><time>2026-04-09T08:34:43.835Z</time></trkpt><trkpt lat="42.194325" lon="14.6165683"><ele>25.0</ele><time>2026-04-09T08:34:44.835Z</time></trkpt><trkpt lat="42.19436" lon="14.6167217"><ele>25.0</ele><time>2026-04-09T08:34:45.835Z</time></trkpt><trkpt lat="42.194395" lon="14.61687"><ele>25.0</ele><time>2026-04-09T08:34:46.836Z</time></trkpt><trkpt lat="42.1944283" lon="14.617025"><ele>25.0</ele><time>2026-04-09T08:34:47.835Z</time></trkpt><trkpt lat="42.1944633" lon="14.6171733"><ele>25.0</ele><time>2026-04-09T08:34:48.835Z</time></trkpt><trkpt lat="42.1945017" lon="14.6173217"><ele>24.0</ele><time>2026-04-09T08:34:49.835Z</time></trkpt><trkpt lat="42.1945417" lon="14.6174683"><ele>23.0</ele><time>2026-04-09T08:34:50.835Z</time></trkpt><trkpt lat="42.19458" lon="14.6176133"><ele>22.0</ele><time>2026-04-09T08:34:51.835Z</time></trkpt><trkpt lat="42.1946217" lon="14.6177517"><ele>21.0</ele><time>2026-04-09T08:34:52.836Z</time></trkpt><trkpt lat="42.1946617" lon="14.617895"><ele>21.0</ele><time>2026-04-09T08:34:53.835Z</time></trkpt><trkpt lat="42.1946983" lon="14.618035"><ele>21.0</ele><time>2026-04-09T08:34:54.835Z</time></trkpt><trkpt lat="42.194735" lon="14.6181733"><ele>21.0</ele><time>2026-04-09T08:34:55.836Z</time></trkpt><trkpt lat="42.1947767" lon="14.6183083"><ele>21.0</ele><time>2026-04-09T08:34:56.836Z</time></trkpt><trkpt lat="42.1948167" lon="14.618445"><ele>21.0</ele><time>2026-04-09T08:34:57.836Z</time></trkpt><trkpt lat="42.1948517" lon="14.6185833"><ele>19.8</ele><time>2026-04-09T08:34:58.835Z</time></trkpt><trkpt lat="42.1948783" lon="14.6187183"><ele>18.6</ele><time>2026-04-09T08:34:59.835Z</time></trkpt><trkpt lat="42.1949117" lon="14.6188517"><ele>17.4</ele><time>2026-04-09T08:35:00.835Z</time></trkpt><trkpt lat="42.1949433" lon="14.6189883"><ele>16.2</ele><time>2026-04-09T08:35:01.835Z</time></trkpt><trkpt lat="42.1949817" lon="14.6191167"><ele>15.0</ele><time>2026-04-09T08:35:02.835Z</time></trkpt><trkpt lat="42.1950133" lon="14.6192517"><ele>15.0</ele><time>2026-04-09T08:35:03.835Z</time></trkpt><trkpt lat="42.1950383" lon="14.61938"><ele>15.0</ele><time>2026-04-09T08:35:04.835Z</time></trkpt><trkpt lat="42.1950633" lon="14.6194967"><ele>15.0</ele><time>2026-04-09T08:35:05.836Z</time></trkpt><trkpt lat="42.195085" lon="14.6196133"><ele>15.0</ele><time>2026-04-09T08:35:06.835Z</time></trkpt><trkpt lat="42.1951083" lon="14.619735"><ele>15.0</ele><time>2026-04-09T08:35:07.835Z</time></trkpt><trkpt lat="42.1951283" lon="14.619855"><ele>14.5</ele><time>2026-04-09T08:35:08.835Z</time></trkpt><trkpt lat="42.1951467" lon="14.619975"><ele>14.0</ele><time>2026-04-09T08:35:09.835Z</time></trkpt><trkpt lat="42.19516" lon="14.62009"><ele>13.5</ele><time>2026-04-09T08:35:10.836Z</time></trkpt><trkpt lat="42.1951683" lon="14.6201967"><ele>13.0</ele><time>2026-04-09T08:35:11.836Z</time></trkpt><trkpt lat="42.1951767" lon="14.6203117"><ele>12.5</ele><time>2026-04-09T08:35:12.836Z</time></trkpt><trkpt lat="42.1951867" lon="14.6204217"><ele>12.0</ele><time>2026-04-09T08:35:13.835Z</time></trkpt><trkpt lat="42.19519" lon="14.620535"><ele>11.833333333333334</ele><time>2026-04-09T08:35:14.836Z</time></trkpt><trkpt lat="42.195195" lon="14.6206433"><ele>11.666666666666666</ele><time>2026-04-09T08:35:15.835Z</time></trkpt><trkpt lat="42.1951983" lon="14.6207433"><ele>11.5</ele><time>2026-04-09T08:35:16.835Z</time></trkpt><trkpt lat="42.1951983" lon="14.6208467"><ele>11.333333333333332</ele><time>2026-04-09T08:35:17.835Z</time></trkpt><trkpt lat="42.1951933" lon="14.6209483"><ele>11.166666666666666</ele><time>2026-04-09T08:35:18.835Z</time></trkpt><trkpt lat="42.1951817" lon="14.6210433"><ele>11.0</ele><time>2026-04-09T08:35:19.835Z</time></trkpt><trkpt lat="42.1951717" lon="14.6211417"><ele>10.857142857142858</ele><time>2026-04-09T08:35:20.835Z</time></trkpt><trkpt lat="42.1951567" lon="14.6212417"><ele>10.714285714285714</ele><time>2026-04-09T08:35:21.835Z</time></trkpt><trkpt lat="42.19515" lon="14.62134"><ele>10.571428571428571</ele><time>2026-04-09T08:35:22.835Z</time></trkpt><trkpt lat="42.1951383" lon="14.621435"><ele>10.428571428571429</ele><time>2026-04-09T08:35:23.835Z</time></trkpt><trkpt lat="42.1951317" lon="14.6215233"><ele>10.285714285714286</ele><time>2026-04-09T08:35:24.835Z</time></trkpt><trkpt lat="42.1951267" lon="14.621615"><ele>10.142857142857142</ele><time>2026-04-09T08:35:25.835Z</time></trkpt><trkpt lat="42.19511" lon="14.6217033"><ele>10.0</ele><time>2026-04-09T08:35:26.835Z</time></trkpt><trkpt lat="42.1951" lon="14.6217983"><ele>10.0</ele><time>2026-04-09T08:35:27.835Z</time></trkpt><trkpt lat="42.1950867" lon="14.6218817"><ele>10.0</ele><time>2026-04-09T08:35:28.836Z</time></trkpt><trkpt lat="42.1950767" lon="14.6219667"><ele>10.0</ele><time>2026-04-09T08:35:29.836Z</time></trkpt><trkpt lat="42.1950517" lon="14.622125"><ele>10.0</ele><time>2026-04-09T08:35:31.835Z</time></trkpt><trkpt lat="42.1950267" lon="14.6222883"><ele>10.0</ele><time>2026-04-09T08:35:33.836Z</time></trkpt><trkpt lat="42.195" lon="14.6224467"><ele>10.0</ele><time>2026-04-09T08:35:35.835Z</time></trkpt><trkpt lat="42.1949767" lon="14.62259"><ele>10.0</ele><time>2026-04-09T08:35:37.835Z</time></trkpt><trkpt lat="42.1949467" lon="14.6227467"><ele>10.0</ele><time>2026-04-09T08:35:39.835Z</time></trkpt><trkpt lat="42.1949117" lon="14.6229017"><ele>10.0</ele><time>2026-04-09T08:35:41.835Z</time></trkpt><trkpt lat="42.1948967" lon="14.6229883"><ele>10.0</ele><time>2026-04-09T08:35:42.835Z</time></trkpt><trkpt lat="42.1948667" lon="14.62315"><ele>13.5</ele><time>2026-04-09T08:35:44.835Z</time></trkpt><trkpt lat="42.194835" lon="14.623305"><ele>17.0</ele><time>2026-04-09T08:35:46.836Z</time></trkpt><trkpt lat="42.1948033" lon="14.6234483"><ele>20.5</ele><time>2026-04-09T08:35:48.836Z</time></trkpt><trkpt lat="42.194775" lon="14.6236033"><ele>24.0</ele><time>2026-04-09T08:35:50.835Z</time></trkpt><trkpt lat="42.1947417" lon="14.62376"><ele>24.0</ele><time>2026-04-09T08:35:52.835Z</time></trkpt><trkpt lat="42.1947067" lon="14.6239167"><ele>24.0</ele><time>2026-04-09T08:35:54.835Z</time></trkpt><trkpt lat="42.1946717" lon="14.6240667"><ele>24.0</ele><time>2026-04-09T08:35:56.835Z</time></trkpt><trkpt lat="42.19464" lon="14.6242183"><ele>24.0</ele><time>2026-04-09T08:35:58.835Z</time></trkpt><trkpt lat="42.1946117" lon="14.62437"><ele>21.75</ele><time>2026-04-09T08:36:00.835Z</time></trkpt><trkpt lat="42.1945733" lon="14.6245233"><ele>19.5</ele><time>2026-04-09T08:36:02.836Z</time></trkpt><trkpt lat="42.1945383" lon="14.62467"><ele>17.25</ele><time>2026-04-09T08:36:04.835Z</time></trkpt><trkpt lat="42.1945017" lon="14.6248267"><ele>15.0</ele><time>2026-04-09T08:36:06.835Z</time></trkpt><trkpt lat="42.1944667" lon="14.6249783"><ele>15.0</ele><time>2026-04-09T08:36:08.835Z</time></trkpt><trkpt lat="42.1944317" lon="14.625125"><ele>15.0</ele><time>2026-04-09T08:36:10.836Z</time></trkpt><trkpt lat="42.1944383" lon="14.6252417"><ele>15.0</ele><time>2026-04-09T08:36:12.836Z</time></trkpt><trkpt lat="42.19451" lon="14.62532"><ele>15.0</ele><time>2026-04-09T08:36:14.835Z</time></trkpt><trkpt lat="42.1946" lon="14.62539"><ele>15.0</ele><time>2026-04-09T08:36:16.835Z</time></trkpt><trkpt lat="42.19468" lon="14.62543"><ele>14.333333333333334</ele><time>2026-04-09T08:36:18.835Z</time></trkpt><trkpt lat="42.1947467" lon="14.6254717"><ele>13.666666666666666</ele><time>2026-04-09T08:36:20.835Z</time></trkpt><trkpt lat="42.194765" lon="14.6255733"><ele>13.0</ele><time>2026-04-09T08:36:23.835Z</time></trkpt><trkpt lat="42.19474" lon="14.6256583"><ele>12.333333333333332</ele><time>2026-04-09T08:36:25.836Z</time></trkpt><trkpt lat="42.194715" lon="14.6257567"><ele>11.666666666666666</ele><time>2026-04-09T08:36:27.835Z</time></trkpt><trkpt lat="42.1946933" lon="14.6258667"><ele>11.0</ele><time>2026-04-09T08:36:29.835Z</time></trkpt><trkpt lat="42.19467" lon="14.6259783"><ele>11.0</ele><time>2026-04-09T08:36:31.836Z</time></trkpt><trkpt lat="42.1946467" lon="14.62609"><ele>11.0</ele><time>2026-04-09T08:36:33.835Z</time></trkpt><trkpt lat="42.19462" lon="14.6261967"><ele>11.0</ele><time>2026-04-09T08:36:35.835Z</time></trkpt><trkpt lat="42.1945917" lon="14.6262967"><ele>11.0</ele><time>2026-04-09T08:36:37.835Z</time></trkpt><trkpt lat="42.1945717" lon="14.6264133"><ele>11.0</ele><time>2026-04-09T08:36:39.835Z</time></trkpt><trkpt lat="42.1945483" lon="14.6265517"><ele>11.0</ele><time>2026-04-09T08:36:41.836Z</time></trkpt><trkpt lat="42.1945167" lon="14.62668"><ele>11.200000000000001</ele><time>2026-04-09T08:36:43.836Z</time></trkpt><trkpt lat="42.1944733" lon="14.6268083"><ele>11.4</ele><time>2026-04-09T08:36:45.836Z</time></trkpt><trkpt lat="42.1944033" lon="14.6269217"><ele>11.6</ele><time>2026-04-09T08:36:47.836Z</time></trkpt><trkpt lat="42.1943167" lon="14.626995"><ele>11.8</ele><time>2026-04-09T08:36:49.837Z</time></trkpt><trkpt lat="42.1942333" lon="14.6270633"><ele>12.0</ele><time>2026-04-09T08:36:51.836Z</time></trkpt><trkpt lat="42.1941667" lon="14.627155"><ele>11.6</ele><time>2026-04-09T08:36:53.836Z</time></trkpt><trkpt lat="42.194135" lon="14.6272767"><ele>11.2</ele><time>2026-04-09T08:36:55.837Z</time></trkpt><trkpt lat="42.1941567" lon="14.6274117"><ele>10.8</ele><time>2026-04-09T08:36:57.836Z</time></trkpt><trkpt lat="42.1942367" lon="14.62751"><ele>10.4</ele><time>2026-04-09T08:36:59.836Z</time></trkpt><trkpt lat="42.1943433" lon="14.62755"><ele>10.0</ele><time>2026-04-09T08:37:01.836Z</time></trkpt><trkpt lat="42.19445" lon="14.6275317"><ele>10.0</ele><time>2026-04-09T08:37:03.836Z</time></trkpt><trkpt lat="42.1945533" lon="14.6274917"><ele>10.0</ele><time>2026-04-09T08:37:05.836Z</time></trkpt><trkpt lat="42.1946667" lon="14.6274383"><ele>10.0</ele><time>2026-04-09T08:37:07.837Z</time></trkpt><trkpt lat="42.19473" lon="14.62741"><ele>10.0</ele><time>2026-04-09T08:37:08.836Z</time></trkpt><trkpt lat="42.1948567" lon="14.6273717"><ele>10.0</ele><time>2026-04-09T08:37:10.836Z</time></trkpt><trkpt lat="42.1949217" lon="14.62736"><ele>9.833333333333334</ele><time>2026-04-09T08:37:11.836Z</time></trkpt><trkpt lat="42.1949917" lon="14.6273567"><ele>9.666666666666668</ele><time>2026-04-09T08:37:12.837Z</time></trkpt><trkpt lat="42.1950583" lon="14.62737"><ele>9.5</ele><time>2026-04-09T08:37:13.837Z</time></trkpt><trkpt lat="42.19518" lon="14.627425"><ele>9.333333333333334</ele><time>2026-04-09T08:37:15.836Z</time></trkpt><trkpt lat="42.1952317" lon="14.627475"><ele>9.166666666666666</ele><time>2026-04-09T08:37:16.837Z</time></trkpt><trkpt lat="42.19528" lon="14.6275367"><ele>9.0</ele><time>2026-04-09T08:37:17.836Z</time></trkpt><trkpt lat="42.1953267" lon="14.6276033"><ele>9.0</ele><time>2026-04-09T08:37:18.836Z</time></trkpt><trkpt lat="42.1953717" lon="14.6276717"><ele>9.0</ele><time>2026-04-09T08:37:19.836Z</time></trkpt><trkpt lat="42.1954383" lon="14.6277933"><ele>9.0</ele><time>2026-04-09T08:37:21.836Z</time></trkpt><trkpt lat="42.1955067" lon="14.6278983"><ele>9.0</ele><time>2026-04-09T08:37:23.836Z</time></trkpt><trkpt lat="42.1955517" lon="14.6280283"><ele>9.0</ele><time>2026-04-09T08:37:25.837Z</time></trkpt><trkpt lat="42.1956017" lon="14.62814"><ele>8.8</ele><time>2026-04-09T08:37:27.836Z</time></trkpt><trkpt lat="42.1956517" lon="14.6282533"><ele>8.600000000000001</ele><time>2026-04-09T08:37:29.836Z</time></trkpt><trkpt lat="42.1957017" lon="14.62837"><ele>8.4</ele><time>2026-04-09T08:37:31.837Z</time></trkpt><trkpt lat="42.1957467" lon="14.62848"><ele>8.200000000000001</ele><time>2026-04-09T08:37:33.836Z</time></trkpt><trkpt lat="42.1957783" lon="14.6285883"><ele>8.0</ele><time>2026-04-09T08:37:35.836Z</time></trkpt><trkpt lat="42.19581" lon="14.6287017"><ele>7.333333333333333</ele><time>2026-04-09T08:37:37.836Z</time></trkpt><trkpt lat="42.1958333" lon="14.6288167"><ele>6.666666666666666</ele><time>2026-04-09T08:37:39.836Z</time></trkpt><trkpt lat="42.19585" lon="14.6289317"><ele>6.0</ele><time>2026-04-09T08:37:41.836Z</time></trkpt><trkpt lat="42.195935" lon="14.6289917"><ele>5.333333333333333</ele><time>2026-04-09T08:37:44.836Z</time></trkpt><trkpt lat="42.196005" lon="14.6290117"><ele>4.666666666666666</ele><time>2026-04-09T08:37:46.836Z</time></trkpt><trkpt lat="42.1960483" lon="14.62908"><ele>4.0</ele><time>2026-04-09T08:37:48.836Z</time></trkpt><trkpt lat="42.1960317" lon="14.62917"><ele>3.9999999999999996</ele><time>2026-04-09T08:37:50.836Z</time></trkpt><trkpt lat="42.1959983" lon="14.6292617"><ele>4.0</ele><time>2026-04-09T08:37:52.836Z</time></trkpt><trkpt lat="42.1959667" lon="14.6293533"><ele>4.0</ele><time>2026-04-09T08:37:54.836Z</time></trkpt><trkpt lat="42.19593" lon="14.6294283"><ele>4.0</ele><time>2026-04-09T08:37:56.836Z</time></trkpt><trkpt lat="42.1958983" lon="14.6295167"><ele>3.9999999999999996</ele><time>2026-04-09T08:37:58.837Z</time></trkpt><trkpt lat="42.1958667" lon="14.6296133"><ele>4.0</ele><time>2026-04-09T08:38:00.836Z</time></trkpt><trkpt lat="42.1958317" lon="14.6297267"><ele>3.9999999999999996</ele><time>2026-04-09T08:38:02.836Z</time></trkpt><trkpt lat="42.1958" lon="14.6298517"><ele>4.0</ele><time>2026-04-09T08:38:04.836Z</time></trkpt><trkpt lat="42.1957617" lon="14.6299567"><ele>4.0</ele><time>2026-04-09T08:38:06.836Z</time></trkpt><trkpt lat="42.1957267" lon="14.630065"><ele>4.0</ele><time>2026-04-09T08:38:08.837Z</time></trkpt><trkpt lat="42.1956967" lon="14.6301767"><ele>3.9999999999999996</ele><time>2026-04-09T08:38:10.836Z</time></trkpt><trkpt lat="42.195665" lon="14.6302817"><ele>4.0</ele><time>2026-04-09T08:38:12.836Z</time></trkpt><trkpt lat="42.1956383" lon="14.6303867"><ele>3.9999999999999996</ele><time>2026-04-09T08:38:14.837Z</time></trkpt><trkpt lat="42.1956083" lon="14.6304933"><ele>4.0</ele><time>2026-04-09T08:38:16.836Z</time></trkpt><trkpt lat="42.1955783" lon="14.6305983"><ele>4.0</ele><time>2026-04-09T08:38:18.836Z</time></trkpt><trkpt lat="42.1955533" lon="14.6307083"><ele>4.0</ele><time>2026-04-09T08:38:20.837Z</time></trkpt><trkpt lat="42.1955233" lon="14.630815"><ele>3.9999999999999996</ele><time>2026-04-09T08:38:22.836Z</time></trkpt><trkpt lat="42.195485" lon="14.630915"><ele>4.0</ele><time>2026-04-09T08:38:24.836Z</time></trkpt><trkpt lat="42.19545" lon="14.6310267"><ele>3.9999999999999996</ele><time>2026-04-09T08:38:26.836Z</time></trkpt><trkpt lat="42.1954133" lon="14.6311333"><ele>4.0</ele><time>2026-04-09T08:38:28.837Z</time></trkpt><trkpt lat="42.1953817" lon="14.6312483"><ele>4.0</ele><time>2026-04-09T08:38:30.837Z</time></trkpt><trkpt lat="42.1953467" lon="14.6313583"><ele>4.0</ele><time>2026-04-09T08:38:32.836Z</time></trkpt><trkpt lat="42.195315" lon="14.631475"><ele>3.9999999999999996</ele><time>2026-04-09T08:38:34.836Z</time></trkpt><trkpt lat="42.1952783" lon="14.6315833"><ele>4.0</ele><time>2026-04-09T08:38:36.837Z</time></trkpt><trkpt lat="42.1952467" lon="14.6317083"><ele>4.0</ele><time>2026-04-09T08:38:38.836Z</time></trkpt><trkpt lat="42.1952083" lon="14.6318117"><ele>4.0</ele><time>2026-04-09T08:38:40.836Z</time></trkpt><trkpt lat="42.19517" lon="14.6319467"><ele>4.0</ele><time>2026-04-09T08:38:42.836Z</time></trkpt><trkpt lat="42.1951333" lon="14.632075"><ele>4.0</ele><time>2026-04-09T08:38:44.836Z</time></trkpt><trkpt lat="42.1950983" lon="14.6321983"><ele>4.0</ele><time>2026-04-09T08:38:46.837Z</time></trkpt><trkpt lat="42.1950617" lon="14.6323133"><ele>4.2</ele><time>2026-04-09T08:38:48.837Z</time></trkpt><trkpt lat="42.1950283" lon="14.6324433"><ele>4.4</ele><time>2026-04-09T08:38:50.836Z</time></trkpt><trkpt lat="42.195" lon="14.6325683"><ele>4.6</ele><time>2026-04-09T08:38:52.836Z</time></trkpt><trkpt lat="42.194965" lon="14.6326983"><ele>4.8</ele><time>2026-04-09T08:38:54.836Z</time></trkpt><trkpt lat="42.19493" lon="14.63282"><ele>5.0</ele><time>2026-04-09T08:38:56.836Z</time></trkpt><trkpt lat="42.1949" lon="14.63294"><ele>5.2</ele><time>2026-04-09T08:38:58.837Z</time></trkpt><trkpt lat="42.1948733" lon="14.6330683"><ele>5.4</ele><time>2026-04-09T08:39:00.837Z</time></trkpt><trkpt lat="42.19484" lon="14.6331933"><ele>5.6</ele><time>2026-04-09T08:39:02.837Z</time></trkpt><trkpt lat="42.1948083" lon="14.6333133"><ele>5.8</ele><time>2026-04-09T08:39:04.837Z</time></trkpt><trkpt lat="42.1947733" lon="14.633435"><ele>6.0</ele><time>2026-04-09T08:39:06.836Z</time></trkpt><trkpt lat="42.1947433" lon="14.6335617"><ele>5.666666666666667</ele><time>2026-04-09T08:39:08.836Z</time></trkpt><trkpt lat="42.1947117" lon="14.6336817"><ele>5.333333333333333</ele><time>2026-04-09T08:39:10.837Z</time></trkpt><trkpt lat="42.1946867" lon="14.6337933"><ele>5.0</ele><time>2026-04-09T08:39:12.836Z</time></trkpt><trkpt lat="42.19466" lon="14.6339"><ele>4.666666666666666</ele><time>2026-04-09T08:39:14.836Z</time></trkpt><trkpt lat="42.1946317" lon="14.63399"><ele>4.333333333333333</ele><time>2026-04-09T08:39:16.836Z</time></trkpt><trkpt lat="42.1945933" lon="14.6340667"><ele>4.0</ele><time>2026-04-09T08:39:18.836Z</time></trkpt><trkpt lat="42.1945483" lon="14.634155"><ele>3.9999999999999996</ele><time>2026-04-09T08:39:20.837Z</time></trkpt><trkpt lat="42.19452" lon="14.6342533"><ele>4.0</ele><time>2026-04-09T08:39:22.836Z</time></trkpt><trkpt lat="42.1944883" lon="14.6343483"><ele>4.0</ele><time>2026-04-09T08:39:24.836Z</time></trkpt><trkpt lat="42.194455" lon="14.634445"><ele>4.0</ele><time>2026-04-09T08:39:26.836Z</time></trkpt><trkpt lat="42.1944283" lon="14.634555"><ele>3.9999999999999996</ele><time>2026-04-09T08:39:28.836Z</time></trkpt><trkpt lat="42.1943967" lon="14.6346717"><ele>4.0</ele><time>2026-04-09T08:39:30.836Z</time></trkpt><trkpt lat="42.194365" lon="14.6347783"><ele>3.6666666666666665</ele><time>2026-04-09T08:39:32.836Z</time></trkpt><trkpt lat="42.19434" lon="14.6348817"><ele>3.333333333333333</ele><time>2026-04-09T08:39:34.836Z</time></trkpt><trkpt lat="42.1943117" lon="14.634985"><ele>3.0</ele><time>2026-04-09T08:39:36.836Z</time></trkpt><trkpt lat="42.1942833" lon="14.6350867"><ele>2.6666666666666665</ele><time>2026-04-09T08:39:38.836Z</time></trkpt><trkpt lat="42.1942517" lon="14.6352033"><ele>2.333333333333333</ele><time>2026-04-09T08:39:40.836Z</time></trkpt><trkpt lat="42.1942217" lon="14.63532"><ele>2.0</ele><time>2026-04-09T08:39:42.836Z</time></trkpt><trkpt lat="42.1941833" lon="14.6354233"><ele>1.8333333333333333</ele><time>2026-04-09T08:39:44.836Z</time></trkpt><trkpt lat="42.194145" lon="14.6355283"><ele>1.6666666666666665</ele><time>2026-04-09T08:39:46.836Z</time></trkpt><trkpt lat="42.1941217" lon="14.63564"><ele>1.5</ele><time>2026-04-09T08:39:48.836Z</time></trkpt><trkpt lat="42.1940983" lon="14.6357433"><ele>1.3333333333333333</ele><time>2026-04-09T08:39:50.836Z</time></trkpt><trkpt lat="42.194075" lon="14.635855"><ele>1.1666666666666665</ele><time>2026-04-09T08:39:52.836Z</time></trkpt><trkpt lat="42.1940467" lon="14.6359633"><ele>1.0</ele><time>2026-04-09T08:39:54.836Z</time></trkpt><trkpt lat="42.1940167" lon="14.6360567"><ele>1.1666666666666665</ele><time>2026-04-09T08:39:56.836Z</time></trkpt><trkpt lat="42.1939833" lon="14.6361567"><ele>1.3333333333333333</ele><time>2026-04-09T08:39:58.836Z</time></trkpt><trkpt lat="42.193945" lon="14.6362667"><ele>1.5</ele><time>2026-04-09T08:40:00.836Z</time></trkpt><trkpt lat="42.1939033" lon="14.6363767"><ele>1.6666666666666665</ele><time>2026-04-09T08:40:02.836Z</time></trkpt><trkpt lat="42.193875" lon="14.6364867"><ele>1.8333333333333333</ele><time>2026-04-09T08:40:04.836Z</time></trkpt><trkpt lat="42.1938417" lon="14.636595"><ele>2.0</ele><time>2026-04-09T08:40:06.836Z</time></trkpt><trkpt lat="42.1938033" lon="14.6367067"><ele>2.0</ele><time>2026-04-09T08:40:08.836Z</time></trkpt><trkpt lat="42.1937767" lon="14.636825"><ele>2.0</ele><time>2026-04-09T08:40:10.836Z</time></trkpt><trkpt lat="42.1937483" lon="14.63695"><ele>2.0</ele><time>2026-04-09T08:40:12.836Z</time></trkpt><trkpt lat="42.1937167" lon="14.6370783"><ele>2.0</ele><time>2026-04-09T08:40:14.836Z</time></trkpt><trkpt lat="42.19368" lon="14.6371983"><ele>2.0</ele><time>2026-04-09T08:40:16.836Z</time></trkpt><trkpt lat="42.1936433" lon="14.637315"><ele>1.8</ele><time>2026-04-09T08:40:18.836Z</time></trkpt><trkpt lat="42.1936133" lon="14.637435"><ele>1.6</ele><time>2026-04-09T08:40:20.837Z</time></trkpt><trkpt lat="42.19358" lon="14.6375533"><ele>1.4000000000000001</ele><time>2026-04-09T08:40:22.837Z</time></trkpt><trkpt lat="42.1935467" lon="14.6376667"><ele>1.2000000000000002</ele><time>2026-04-09T08:40:24.836Z</time></trkpt><trkpt lat="42.1935167" lon="14.6377833"><ele>1.0</ele><time>2026-04-09T08:40:26.836Z</time></trkpt><trkpt lat="42.1934917" lon="14.63789"><ele>1.0</ele><time>2026-04-09T08:40:28.836Z</time></trkpt><trkpt lat="42.193455" lon="14.6379833"><ele>0.9999999999999999</ele><time>2026-04-09T08:40:30.837Z</time></trkpt><trkpt lat="42.1934183" lon="14.6380667"><ele>1.0</ele><time>2026-04-09T08:40:32.836Z</time></trkpt><trkpt lat="42.193395" lon="14.6381667"><ele>1.0</ele><time>2026-04-09T08:40:34.837Z</time></trkpt><trkpt lat="42.1933783" lon="14.6382533"><ele>0.9999999999999999</ele><time>2026-04-09T08:40:36.836Z</time></trkpt><trkpt lat="42.1933783" lon="14.638345"><ele>1.0</ele><time>2026-04-09T08:40:39.836Z</time></trkpt><trkpt lat="42.1933733" lon="14.63843"><ele>1.0</ele><time>2026-04-09T08:40:42.836Z</time></trkpt><trkpt lat="42.19334" lon="14.6385517"><ele>0.6666666666666666</ele><time>2026-04-09T08:40:45.836Z</time></trkpt><trkpt lat="42.1933167" lon="14.6386533"><ele>0.3333333333333333</ele><time>2026-04-09T08:40:47.836Z</time></trkpt><trkpt lat="42.1932933" lon="14.6387617"><ele>0.0</ele><time>2026-04-09T08:40:49.836Z</time></trkpt><trkpt lat="42.1932633" lon="14.6388717"><ele>-0.3333333333333333</ele><time>2026-04-09T08:40:51.836Z</time></trkpt><trkpt lat="42.1932333" lon="14.6389883"><ele>-0.6666666666666666</ele><time>2026-04-09T08:40:53.836Z</time></trkpt><trkpt lat="42.1932033" lon="14.639105"><ele>-1.0</ele><time>2026-04-09T08:40:55.837Z</time></trkpt><trkpt lat="42.1931733" lon="14.639225"><ele>-1.0</ele><time>2026-04-09T08:40:57.836Z</time></trkpt><trkpt lat="42.193145" lon="14.6393483"><ele>-1.0</ele><time>2026-04-09T08:40:59.837Z</time></trkpt><trkpt lat="42.19311" lon="14.6394667"><ele>-1.0</ele><time>2026-04-09T08:41:01.836Z</time></trkpt><trkpt lat="42.1930783" lon="14.6395783"><ele>-1.0</ele><time>2026-04-09T08:41:03.836Z</time></trkpt><trkpt lat="42.1930517" lon="14.6396967"><ele>-1.0</ele><time>2026-04-09T08:41:05.836Z</time></trkpt><trkpt lat="42.19302" lon="14.6398267"><ele>-1.0</ele><time>2026-04-09T08:41:07.837Z</time></trkpt><trkpt lat="42.1929867" lon="14.639955"><ele>-1.0</ele><time>2026-04-09T08:41:09.836Z</time></trkpt><trkpt lat="42.1929567" lon="14.6400767"><ele>-1.0</ele><time>2026-04-09T08:41:11.837Z</time></trkpt><trkpt lat="42.192925" lon="14.6402017"><ele>-1.0</ele><time>2026-04-09T08:41:13.836Z</time></trkpt><trkpt lat="42.1928933" lon="14.64032"><ele>-1.0</ele><time>2026-04-09T08:41:15.836Z</time></trkpt><trkpt lat="42.192865" lon="14.6404417"><ele>-0.8</ele><time>2026-04-09T08:41:17.836Z</time></trkpt><trkpt lat="42.1928317" lon="14.640565"><ele>-0.6000000000000001</ele><time>2026-04-09T08:41:19.836Z</time></trkpt><trkpt lat="42.1927967" lon="14.6406833"><ele>-0.4</ele><time>2026-04-09T08:41:21.836Z</time></trkpt><trkpt lat="42.1927683" lon="14.6408067"><ele>-0.2</ele><time>2026-04-09T08:41:23.837Z</time></trkpt><trkpt lat="42.1927367" lon="14.6409317"><ele>0.0</ele><time>2026-04-09T08:41:25.837Z</time></trkpt><trkpt lat="42.1927067" lon="14.6410617"><ele>0.0</ele><time>2026-04-09T08:41:27.836Z</time></trkpt><trkpt lat="42.1926783" lon="14.6411833"><ele>0.0</ele><time>2026-04-09T08:41:29.836Z</time></trkpt><trkpt lat="42.19264" lon="14.6413017"><ele>0.0</ele><time>2026-04-09T08:41:31.836Z</time></trkpt><trkpt lat="42.1925917" lon="14.6414133"><ele>0.0</ele><time>2026-04-09T08:41:33.837Z</time></trkpt><trkpt lat="42.1925383" lon="14.6415333"><ele>0.0</ele><time>2026-04-09T08:41:35.836Z</time></trkpt><trkpt lat="42.1925017" lon="14.6416633"><ele>0.0</ele><time>2026-04-09T08:41:37.836Z</time></trkpt><trkpt lat="42.1924717" lon="14.641785"><ele>0.0</ele><time>2026-04-09T08:41:39.836Z</time></trkpt><trkpt lat="42.1924417" lon="14.6419067"><ele>0.0</ele><time>2026-04-09T08:41:41.836Z</time></trkpt><trkpt lat="42.1924067" lon="14.6420283"><ele>0.0</ele><time>2026-04-09T08:41:43.836Z</time></trkpt><trkpt lat="42.1923667" lon="14.6421517"><ele>0.0</ele><time>2026-04-09T08:41:45.836Z</time></trkpt><trkpt lat="42.192335" lon="14.64228"><ele>0.0</ele><time>2026-04-09T08:41:47.836Z</time></trkpt><trkpt lat="42.1922967" lon="14.6423933"><ele>0.0</ele><time>2026-04-09T08:41:49.836Z</time></trkpt><trkpt lat="42.1922417" lon="14.64249"><ele>0.0</ele><time>2026-04-09T08:41:51.836Z</time></trkpt><trkpt lat="42.19217" lon="14.64257"><ele>0.0</ele><time>2026-04-09T08:41:53.837Z</time></trkpt><trkpt lat="42.1921033" lon="14.64266"><ele>0.0</ele><time>2026-04-09T08:41:55.836Z</time></trkpt><trkpt lat="42.19204" lon="14.6427583"><ele>0.0</ele><time>2026-04-09T08:41:57.837Z</time></trkpt><trkpt lat="42.1919667" lon="14.64286"><ele>0.0</ele><time>2026-04-09T08:41:59.836Z</time></trkpt><trkpt lat="42.1918933" lon="14.6429567"><ele>0.0</ele><time>2026-04-09T08:42:01.836Z</time></trkpt><trkpt lat="42.1918233" lon="14.6430483"><ele>0.0</ele><time>2026-04-09T08:42:03.836Z</time></trkpt><trkpt lat="42.1917433" lon="14.643135"><ele>0.0</ele><time>2026-04-09T08:42:05.836Z</time></trkpt><trkpt lat="42.191665" lon="14.6432183"><ele>0.0</ele><time>2026-04-09T08:42:07.836Z</time></trkpt><trkpt lat="42.1915933" lon="14.6432933"><ele>0.0</ele><time>2026-04-09T08:42:09.836Z</time></trkpt><trkpt lat="42.1915217" lon="14.64338"><ele>0.0</ele><time>2026-04-09T08:42:11.836Z</time></trkpt><trkpt lat="42.1914633" lon="14.6434633"><ele>0.0</ele><time>2026-04-09T08:42:13.837Z</time></trkpt><trkpt lat="42.1914033" lon="14.6435617"><ele>0.0</ele><time>2026-04-09T08:42:15.836Z</time></trkpt><trkpt lat="42.1913467" lon="14.64367"><ele>0.4</ele><time>2026-04-09T08:42:17.836Z</time></trkpt><trkpt lat="42.1912933" lon="14.6437733"><ele>0.8</ele><time>2026-04-09T08:42:19.836Z</time></trkpt><trkpt lat="42.1912367" lon="14.6438733"><ele>1.2000000000000002</ele><time>2026-04-09T08:42:21.836Z</time></trkpt><trkpt lat="42.1911867" lon="14.6439683"><ele>1.6</ele><time>2026-04-09T08:42:23.837Z</time></trkpt><trkpt lat="42.1911333" lon="14.6440667"><ele>2.0</ele><time>2026-04-09T08:42:25.836Z</time></trkpt><trkpt lat="42.1910733" lon="14.644155"><ele>2.0</ele><time>2026-04-09T08:42:27.836Z</time></trkpt><trkpt lat="42.191" lon="14.6442367"><ele>2.0</ele><time>2026-04-09T08:42:29.837Z</time></trkpt><trkpt lat="42.1909183" lon="14.6443117"><ele>2.0</ele><time>2026-04-09T08:42:31.836Z</time></trkpt><trkpt lat="42.19083" lon="14.64435"><ele>2.0</ele><time>2026-04-09T08:42:33.836Z</time></trkpt><trkpt lat="42.190745" lon="14.64439"><ele>2.0</ele><time>2026-04-09T08:42:35.836Z</time></trkpt><trkpt lat="42.190665" lon="14.6444283"><ele>2.1666666666666665</ele><time>2026-04-09T08:42:37.836Z</time></trkpt><trkpt lat="42.1905717" lon="14.6444567"><ele>2.333333333333333</ele><time>2026-04-09T08:42:39.836Z</time></trkpt><trkpt lat="42.1904867" lon="14.6444883"><ele>2.5</ele><time>2026-04-09T08:42:41.836Z</time></trkpt><trkpt lat="42.1904033" lon="14.6445117"><ele>2.6666666666666665</ele><time>2026-04-09T08:42:43.836Z</time></trkpt><trkpt lat="42.1903283" lon="14.6445417"><ele>2.8333333333333335</ele><time>2026-04-09T08:42:45.836Z</time></trkpt><trkpt lat="42.190265" lon="14.644585"><ele>3.0</ele><time>2026-04-09T08:42:47.836Z</time></trkpt><trkpt lat="42.1902117" lon="14.644645"><ele>2.9999999999999996</ele><time>2026-04-09T08:42:49.836Z</time></trkpt><trkpt lat="42.190185" lon="14.6447283"><ele>3.0</ele><time>2026-04-09T08:42:51.836Z</time></trkpt><trkpt lat="42.1901617" lon="14.6448183"><ele>3.0</ele><time>2026-04-09T08:42:53.837Z</time></trkpt><trkpt lat="42.1901367" lon="14.64491"><ele>3.0</ele><time>2026-04-09T08:42:55.836Z</time></trkpt><trkpt lat="42.1901" lon="14.6450067"><ele>3.0</ele><time>2026-04-09T08:42:57.836Z</time></trkpt><trkpt lat="42.19006" lon="14.6450917"><ele>2.9999999999999996</ele><time>2026-04-09T08:42:59.836Z</time></trkpt><trkpt lat="42.1900317" lon="14.6451933"><ele>3.0</ele><time>2026-04-09T08:43:02.836Z</time></trkpt><trkpt lat="42.1900033" lon="14.6452883"><ele>2.9999999999999996</ele><time>2026-04-09T08:43:05.836Z</time></trkpt><trkpt lat="42.1899583" lon="14.6453633"><ele>3.0</ele><time>2026-04-09T08:43:08.836Z</time></trkpt><trkpt lat="42.1899167" lon="14.64544"><ele>3.0</ele><time>2026-04-09T08:43:11.836Z</time></trkpt><trkpt lat="42.189875" lon="14.6455333"><ele>3.0</ele><time>2026-04-09T08:43:15.836Z</time></trkpt><trkpt lat="42.18985" lon="14.6456167"><ele>3.0</ele><time>2026-04-09T08:43:18.836Z</time></trkpt><trkpt lat="42.189815" lon="14.6457133"><ele>2.9999999999999996</ele><time>2026-04-09T08:43:21.837Z</time></trkpt><trkpt lat="42.1897833" lon="14.6458017"><ele>3.0</ele><time>2026-04-09T08:43:24.836Z</time></trkpt><trkpt lat="42.189755" lon="14.6458817"><ele>3.0</ele><time>2026-04-09T08:43:27.836Z</time></trkpt><trkpt lat="42.1897367" lon="14.6459917"><ele>3.0</ele><time>2026-04-09T08:43:30.836Z</time></trkpt><trkpt lat="42.189725" lon="14.6460767"><ele>3.0</ele><time>2026-04-09T08:43:32.837Z</time></trkpt><trkpt lat="42.189715" lon="14.6462017"><ele>3.0</ele><time>2026-04-09T08:43:35.836Z</time></trkpt><trkpt lat="42.1897167" lon="14.6462917"><ele>3.0</ele><time>2026-04-09T08:43:37.836Z</time></trkpt><trkpt lat="42.1897067" lon="14.6464167"><ele>3.0</ele><time>2026-04-09T08:43:40.836Z</time></trkpt><trkpt lat="42.1897" lon="14.646515"><ele>3.1428571428571423</ele><time>2026-04-09T08:43:42.837Z</time></trkpt><trkpt lat="42.1897033" lon="14.6466133"><ele>3.2857142857142856</ele><time>2026-04-09T08:43:44.836Z</time></trkpt><trkpt lat="42.1897" lon="14.6467067"><ele>3.4285714285714284</ele><time>2026-04-09T08:43:46.836Z</time></trkpt><trkpt lat="42.1896933" lon="14.6467933"><ele>3.571428571428571</ele><time>2026-04-09T08:43:48.836Z</time></trkpt><trkpt lat="42.189675" lon="14.6469117"><ele>3.714285714285714</ele><time>2026-04-09T08:43:51.836Z</time></trkpt><trkpt lat="42.1896717" lon="14.6469967"><ele>3.8571428571428568</ele><time>2026-04-09T08:43:53.836Z</time></trkpt><trkpt lat="42.189665" lon="14.6470917"><ele>4.0</ele><time>2026-04-09T08:43:55.836Z</time></trkpt><trkpt lat="42.189665" lon="14.6471817"><ele>3.9999999999999996</ele><time>2026-04-09T08:43:57.836Z</time></trkpt><trkpt lat="42.1896633" lon="14.6472733"><ele>4.0</ele><time>2026-04-09T08:43:59.837Z</time></trkpt><trkpt lat="42.1896617" lon="14.6473583"><ele>4.0</ele><time>2026-04-09T08:44:01.836Z</time></trkpt><trkpt lat="42.1896617" lon="14.6474767"><ele>4.0</ele><time>2026-04-09T08:44:04.836Z</time></trkpt><trkpt lat="42.1896533" lon="14.647595"><ele>3.9999999999999996</ele><time>2026-04-09T08:44:07.837Z</time></trkpt><trkpt lat="42.189655" lon="14.6477067"><ele>4.0</ele><time>2026-04-09T08:44:10.836Z</time></trkpt><trkpt lat="42.189655" lon="14.647815"><ele>4.428571428571429</ele><time>2026-04-09T08:44:13.836Z</time></trkpt><trkpt lat="42.1896467" lon="14.6479133"><ele>4.857142857142857</ele><time>2026-04-09T08:44:17.836Z</time></trkpt><trkpt lat="42.1896667" lon="14.6480233"><ele>5.285714285714286</ele><time>2026-04-09T08:44:21.836Z</time></trkpt><trkpt lat="42.1896783" lon="14.64811"><ele>5.714285714285714</ele><time>2026-04-09T08:44:23.837Z</time></trkpt><trkpt lat="42.1896717" lon="14.648195"><ele>6.142857142857142</ele><time>2026-04-09T08:44:25.836Z</time></trkpt><trkpt lat="42.1896717" lon="14.6482867"><ele>6.571428571428571</ele><time>2026-04-09T08:44:27.836Z</time></trkpt><trkpt lat="42.1896667" lon="14.6483867"><ele>7.0</ele><time>2026-04-09T08:44:29.837Z</time></trkpt><trkpt lat="42.1896617" lon="14.648485"><ele>7.0</ele><time>2026-04-09T08:44:31.836Z</time></trkpt><trkpt lat="42.189655" lon="14.6485833"><ele>7.0</ele><time>2026-04-09T08:44:33.836Z</time></trkpt><trkpt lat="42.18965" lon="14.6486817"><ele>7.0</ele><time>2026-04-09T08:44:35.836Z</time></trkpt><trkpt lat="42.189645" lon="14.6487867"><ele>7.0</ele><time>2026-04-09T08:44:37.836Z</time></trkpt><trkpt lat="42.18964" lon="14.64889"><ele>7.0</ele><time>2026-04-09T08:44:39.837Z</time></trkpt><trkpt lat="42.1896383" lon="14.6489867"><ele>7.0</ele><time>2026-04-09T08:44:41.836Z</time></trkpt><trkpt lat="42.1896383" lon="14.6490833"><ele>7.0</ele><time>2026-04-09T08:44:43.837Z</time></trkpt><trkpt lat="42.1896367" lon="14.64918"><ele>7.666666666666667</ele><time>2026-04-09T08:44:45.836Z</time></trkpt><trkpt lat="42.1896367" lon="14.6492717"><ele>8.333333333333334</ele><time>2026-04-09T08:44:47.836Z</time></trkpt><trkpt lat="42.1896183" lon="14.6493933"><ele>9.0</ele><time>2026-04-09T08:44:50.836Z</time></trkpt><trkpt lat="42.1895733" lon="14.649495"><ele>9.666666666666666</ele><time>2026-04-09T08:44:53.836Z</time></trkpt><trkpt lat="42.189505" lon="14.6495617"><ele>10.333333333333332</ele><time>2026-04-09T08:44:56.837Z</time></trkpt><trkpt lat="42.189445" lon="14.6496067"><ele>11.0</ele><time>2026-04-09T08:44:59.836Z</time></trkpt><trkpt lat="42.189385" lon="14.649655"><ele>12.833333333333332</ele><time>2026-04-09T08:45:03.836Z</time></trkpt><trkpt lat="42.18933" lon="14.64971"><ele>14.666666666666666</ele><time>2026-04-09T08:45:07.836Z</time></trkpt><trkpt lat="42.1893117" lon="14.649815"><ele>16.5</ele><time>2026-04-09T08:45:11.836Z</time></trkpt><trkpt lat="42.189305" lon="14.6499133"><ele>18.333333333333332</ele><time>2026-04-09T08:45:15.836Z</time></trkpt><trkpt lat="42.1892783" lon="14.6500083"><ele>20.166666666666664</ele><time>2026-04-09T08:45:21.837Z</time></trkpt><trkpt lat="42.18923" lon="14.65013"><ele>22.0</ele><time>2026-04-09T08:45:31.836Z</time></trkpt><trkpt lat="42.1892233" lon="14.65022"><ele>23.200000000000003</ele><time>2026-04-09T08:45:37.836Z</time></trkpt><trkpt lat="42.189195" lon="14.65032"><ele>24.4</ele><time>2026-04-09T08:45:42.836Z</time></trkpt><trkpt lat="42.18918" lon="14.650415"><ele>25.599999999999998</ele><time>2026-04-09T08:45:46.836Z</time></trkpt><trkpt lat="42.1891433" lon="14.6504983"><ele>26.799999999999997</ele><time>2026-04-09T08:45:50.837Z</time></trkpt><trkpt lat="42.1890817" lon="14.650665"><ele>28.0</ele><time>2026-04-09T08:45:59.836Z</time></trkpt><trkpt lat="42.1890067" lon="14.65081"><ele>31.333333333333336</ele><time>2026-04-09T08:46:08.837Z</time></trkpt><trkpt lat="42.1889617" lon="14.6508983"><ele>34.66666666666667</ele><time>2026-04-09T08:46:13.837Z</time></trkpt><trkpt lat="42.1889283" lon="14.651015"><ele>38.0</ele><time>2026-04-09T08:46:17.837Z</time></trkpt><trkpt lat="42.1889183" lon="14.6511133"><ele>41.333333333333336</ele><time>2026-04-09T08:46:19.836Z</time></trkpt><trkpt lat="42.1888867" lon="14.6512017"><ele>44.666666666666664</ele><time>2026-04-09T08:46:22.836Z</time></trkpt><trkpt lat="42.18885" lon="14.6513083"><ele>48.0</ele><time>2026-04-09T08:46:26.837Z</time></trkpt><trkpt lat="42.188805" lon="14.6514133"><ele>47.99999999999999</ele><time>2026-04-09T08:46:29.836Z</time></trkpt><trkpt lat="42.1887783" lon="14.6514983"><ele>48.0</ele><time>2026-04-09T08:46:34.836Z</time></trkpt><trkpt lat="42.1887467" lon="14.6515733"><ele>48.0</ele><time>2026-04-09T08:46:35.836Z</time></trkpt><trkpt lat="42.1887283" lon="14.651655"><ele>48.0</ele><time>2026-04-09T08:46:38.836Z</time></trkpt><trkpt lat="42.1886983" lon="14.6517617"><ele>48.0</ele><time>2026-04-09T08:46:41.836Z</time></trkpt><trkpt lat="42.1886817" lon="14.651855"><ele>47.99999999999999</ele><time>2026-04-09T08:46:42.836Z</time></trkpt><trkpt lat="42.1886517" lon="14.6519717"><ele>48.0</ele><time>2026-04-09T08:46:44.836Z</time></trkpt><trkpt lat="42.1886017" lon="14.6520767"><ele>47.0</ele><time>2026-04-09T08:46:47.836Z</time></trkpt><trkpt lat="42.18858" lon="14.6521917"><ele>46.0</ele><time>2026-04-09T08:46:49.836Z</time></trkpt><trkpt lat="42.18854" lon="14.6522933"><ele>45.0</ele><time>2026-04-09T08:46:52.836Z</time></trkpt><trkpt lat="42.1885133" lon="14.6523933"><ele>44.0</ele><time>2026-04-09T08:46:54.836Z</time></trkpt><trkpt lat="42.1884883" lon="14.6525383"><ele>43.0</ele><time>2026-04-09T08:46:57.836Z</time></trkpt><trkpt lat="42.1884733" lon="14.6526867"><ele>44.16666666666667</ele><time>2026-04-09T08:47:00.837Z</time></trkpt><trkpt lat="42.1884033" lon="14.652845"><ele>45.333333333333336</ele><time>2026-04-09T08:47:08.836Z</time></trkpt><trkpt lat="42.188365" lon="14.6529433"><ele>46.5</ele><time>2026-04-09T08:47:12.836Z</time></trkpt><trkpt lat="42.18832" lon="14.6530067"><ele>47.66666666666667</ele><time>2026-04-09T08:47:15.836Z</time></trkpt><trkpt lat="42.1882617" lon="14.6530633"><ele>48.833333333333336</ele><time>2026-04-09T08:47:19.836Z</time></trkpt><trkpt lat="42.1882083" lon="14.65312"><ele>50.0</ele><time>2026-04-09T08:47:22.836Z</time></trkpt><trkpt lat="42.1881567" lon="14.65319"><ele>50.00000000000001</ele><time>2026-04-09T08:47:25.836Z</time></trkpt><trkpt lat="42.1881183" lon="14.6532617"><ele>50.0</ele><time>2026-04-09T08:47:29.837Z</time></trkpt><trkpt lat="42.188045" lon="14.6533583"><ele>50.0</ele><time>2026-04-09T08:47:35.837Z</time></trkpt><trkpt lat="42.187965" lon="14.6534183"><ele>50.0</ele><time>2026-04-09T08:47:38.837Z</time></trkpt><trkpt lat="42.1878933" lon="14.653465"><ele>50.00000000000001</ele><time>2026-04-09T08:47:40.837Z</time></trkpt><trkpt lat="42.187815" lon="14.65353"><ele>50.0</ele><time>2026-04-09T08:47:43.836Z</time></trkpt><trkpt lat="42.18776" lon="14.6535717"><ele>50.00000000000001</ele><time>2026-04-09T08:47:45.836Z</time></trkpt><trkpt lat="42.1876917" lon="14.6536117"><ele>50.0</ele><time>2026-04-09T08:47:47.836Z</time></trkpt><trkpt lat="42.1876433" lon="14.6536717"><ele>50.0</ele><time>2026-04-09T08:47:49.836Z</time></trkpt><trkpt lat="42.1876083" lon="14.653745"><ele>50.0</ele><time>2026-04-09T08:47:51.836Z</time></trkpt><trkpt lat="42.1875667" lon="14.65383"><ele>50.00000000000001</ele><time>2026-04-09T08:47:54.836Z</time></trkpt><trkpt lat="42.1875033" lon="14.6539033"><ele>50.0</ele><time>2026-04-09T08:47:58.836Z</time></trkpt><trkpt lat="42.1874283" lon="14.65398"><ele>50.16666666666667</ele><time>2026-04-09T08:48:01.836Z</time></trkpt><trkpt lat="42.1873767" lon="14.654045"><ele>50.333333333333336</ele><time>2026-04-09T08:48:04.836Z</time></trkpt><trkpt lat="42.1873383" lon="14.6541317"><ele>50.5</ele><time>2026-04-09T08:48:07.837Z</time></trkpt><trkpt lat="42.1872967" lon="14.65424"><ele>50.66666666666667</ele><time>2026-04-09T08:48:10.837Z</time></trkpt><trkpt lat="42.1872733" lon="14.65432"><ele>50.833333333333336</ele><time>2026-04-09T08:48:12.836Z</time></trkpt><trkpt lat="42.187245" lon="14.6543967"><ele>51.0</ele><time>2026-04-09T08:48:14.836Z</time></trkpt><trkpt lat="42.1872" lon="14.6544983"><ele>51.0</ele><time>2026-04-09T08:48:17.837Z</time></trkpt><trkpt lat="42.1871567" lon="14.6545917"><ele>51.0</ele><time>2026-04-09T08:48:20.837Z</time></trkpt><trkpt lat="42.1871067" lon="14.654685"><ele>51.0</ele><time>2026-04-09T08:48:23.836Z</time></trkpt><trkpt lat="42.1870583" lon="14.65475"><ele>51.0</ele><time>2026-04-09T08:48:26.836Z</time></trkpt><trkpt lat="42.1869933" lon="14.6548067"><ele>51.0</ele><time>2026-04-09T08:48:29.836Z</time></trkpt><trkpt lat="42.18691" lon="14.6548267"><ele>51.0</ele><time>2026-04-09T08:48:32.836Z</time></trkpt><trkpt lat="42.1868283" lon="14.6548267"><ele>51.0</ele><time>2026-04-09T08:48:35.837Z</time></trkpt><trkpt lat="42.1867617" lon="14.6548167"><ele>51.0</ele><time>2026-04-09T08:48:38.836Z</time></trkpt><trkpt lat="42.1867067" lon="14.6547533"><ele>51.0</ele><time>2026-04-09T08:48:41.836Z</time></trkpt><trkpt lat="42.18667" lon="14.6546567"><ele>51.0</ele><time>2026-04-09T08:48:44.836Z</time></trkpt><trkpt lat="42.18663" lon="14.65458"><ele>51.0</ele><time>2026-04-09T08:48:47.836Z</time></trkpt><trkpt lat="42.186585" lon="14.654495"><ele>51.0</ele><time>2026-04-09T08:48:50.836Z</time></trkpt><trkpt lat="42.1865467" lon="14.6544117"><ele>51.0</ele><time>2026-04-09T08:48:53.837Z</time></trkpt><trkpt lat="42.186505" lon="14.6543217"><ele>51.333333333333336</ele><time>2026-04-09T08:48:56.837Z</time></trkpt><trkpt lat="42.1864633" lon="14.6542283"><ele>51.66666666666667</ele><time>2026-04-09T08:48:59.837Z</time></trkpt><trkpt lat="42.186415" lon="14.6541267"><ele>52.0</ele><time>2026-04-09T08:49:02.836Z</time></trkpt><trkpt lat="42.18637" lon="14.654035"><ele>52.333333333333336</ele><time>2026-04-09T08:49:05.836Z</time></trkpt><trkpt lat="42.1863183" lon="14.6539333"><ele>52.66666666666667</ele><time>2026-04-09T08:49:08.836Z</time></trkpt><trkpt lat="42.186275" lon="14.6538217"><ele>53.0</ele><time>2026-04-09T08:49:11.836Z</time></trkpt><trkpt lat="42.1862267" lon="14.6537133"><ele>53.00000000000001</ele><time>2026-04-09T08:49:14.836Z</time></trkpt><trkpt lat="42.1861967" lon="14.653635"><ele>53.0</ele><time>2026-04-09T08:49:16.836Z</time></trkpt><trkpt lat="42.186155" lon="14.6535217"><ele>53.0</ele><time>2026-04-09T08:49:19.837Z</time></trkpt><trkpt lat="42.186115" lon="14.6534167"><ele>53.0</ele><time>2026-04-09T08:49:22.836Z</time></trkpt><trkpt lat="42.1860767" lon="14.6533033"><ele>53.00000000000001</ele><time>2026-04-09T08:49:25.836Z</time></trkpt><trkpt lat="42.1860417" lon="14.65319"><ele>53.0</ele><time>2026-04-09T08:49:28.836Z</time></trkpt><trkpt lat="42.186005" lon="14.65309"><ele>53.142857142857146</ele><time>2026-04-09T08:49:31.836Z</time></trkpt><trkpt lat="42.1859383" lon="14.6530667"><ele>53.285714285714285</ele><time>2026-04-09T08:49:34.836Z</time></trkpt><trkpt lat="42.1858933" lon="14.6531283"><ele>53.42857142857143</ele><time>2026-04-09T08:49:36.836Z</time></trkpt><trkpt lat="42.1858533" lon="14.653205"><ele>53.57142857142857</ele><time>2026-04-09T08:49:38.836Z</time></trkpt><trkpt lat="42.1858033" lon="14.6532767"><ele>53.71428571428571</ele><time>2026-04-09T08:49:40.837Z</time></trkpt><trkpt lat="42.1857483" lon="14.6533567"><ele>53.857142857142854</ele><time>2026-04-09T08:49:42.836Z</time></trkpt><trkpt lat="42.185685" lon="14.6534267"><ele>54.0</ele><time>2026-04-09T08:49:44.836Z</time></trkpt><trkpt lat="42.18562" lon="14.6534783"><ele>54.0</ele><time>2026-04-09T08:49:46.837Z</time></trkpt><trkpt lat="42.18555" lon="14.65353"><ele>54.0</ele><time>2026-04-09T08:49:48.836Z</time></trkpt><trkpt lat="42.1854833" lon="14.6535867"><ele>54.0</ele><time>2026-04-09T08:49:50.836Z</time></trkpt><trkpt lat="42.18541" lon="14.653635"><ele>54.0</ele><time>2026-04-09T08:49:52.836Z</time></trkpt><trkpt lat="42.185335" lon="14.6536917"><ele>54.0</ele><time>2026-04-09T08:49:54.836Z</time></trkpt><trkpt lat="42.1852667" lon="14.6537517"><ele>54.0</ele><time>2026-04-09T08:49:56.836Z</time></trkpt><trkpt lat="42.18519" lon="14.6538067"><ele>53.833333333333336</ele><time>2026-04-09T08:49:58.836Z</time></trkpt><trkpt lat="42.18512" lon="14.653865"><ele>53.66666666666667</ele><time>2026-04-09T08:50:00.836Z</time></trkpt><trkpt lat="42.1850483" lon="14.6539217"><ele>53.5</ele><time>2026-04-09T08:50:02.836Z</time></trkpt><trkpt lat="42.1849767" lon="14.6539833"><ele>53.333333333333336</ele><time>2026-04-09T08:50:04.836Z</time></trkpt><trkpt lat="42.1849117" lon="14.6540433"><ele>53.16666666666667</ele><time>2026-04-09T08:50:06.836Z</time></trkpt><trkpt lat="42.184845" lon="14.6540967"><ele>53.0</ele><time>2026-04-09T08:50:08.836Z</time></trkpt><trkpt lat="42.1847767" lon="14.6541533"><ele>53.16666666666667</ele><time>2026-04-09T08:50:10.836Z</time></trkpt><trkpt lat="42.184705" lon="14.65421"><ele>53.333333333333336</ele><time>2026-04-09T08:50:12.836Z</time></trkpt><trkpt lat="42.1846317" lon="14.6542683"><ele>53.5</ele><time>2026-04-09T08:50:14.837Z</time></trkpt><trkpt lat="42.1845567" lon="14.65433"><ele>53.66666666666667</ele><time>2026-04-09T08:50:16.836Z</time></trkpt><trkpt lat="42.1844833" lon="14.6543917"><ele>53.833333333333336</ele><time>2026-04-09T08:50:18.836Z</time></trkpt><trkpt lat="42.1844183" lon="14.65445"><ele>54.0</ele><time>2026-04-09T08:50:20.836Z</time></trkpt><trkpt lat="42.1843533" lon="14.65451"><ele>54.0</ele><time>2026-04-09T08:50:22.836Z</time></trkpt><trkpt lat="42.184285" lon="14.6545667"><ele>54.0</ele><time>2026-04-09T08:50:24.836Z</time></trkpt><trkpt lat="42.1842183" lon="14.6546283"><ele>54.0</ele><time>2026-04-09T08:50:26.836Z</time></trkpt><trkpt lat="42.18414" lon="14.65468"><ele>54.0</ele><time>2026-04-09T08:50:28.836Z</time></trkpt><trkpt lat="42.184075" lon="14.6547317"><ele>54.0</ele><time>2026-04-09T08:50:30.837Z</time></trkpt><trkpt lat="42.1840017" lon="14.6547933"><ele>54.0</ele><time>2026-04-09T08:50:32.836Z</time></trkpt><trkpt lat="42.1839267" lon="14.654855"><ele>53.833333333333336</ele><time>2026-04-09T08:50:34.836Z</time></trkpt><trkpt lat="42.1838533" lon="14.6549233"><ele>53.66666666666667</ele><time>2026-04-09T08:50:36.836Z</time></trkpt><trkpt lat="42.183775" lon="14.65498"><ele>53.5</ele><time>2026-04-09T08:50:38.836Z</time></trkpt><trkpt lat="42.1837" lon="14.6550383"><ele>53.333333333333336</ele><time>2026-04-09T08:50:40.836Z</time></trkpt><trkpt lat="42.18363" lon="14.6550983"><ele>53.16666666666667</ele><time>2026-04-09T08:50:42.836Z</time></trkpt><trkpt lat="42.183555" lon="14.65516"><ele>53.0</ele><time>2026-04-09T08:50:44.836Z</time></trkpt><trkpt lat="42.1834833" lon="14.65522"><ele>53.00000000000001</ele><time>2026-04-09T08:50:46.837Z</time></trkpt><trkpt lat="42.1834133" lon="14.6552783"><ele>53.0</ele><time>2026-04-09T08:50:48.836Z</time></trkpt><trkpt lat="42.1833433" lon="14.6553333"><ele>53.0</ele><time>2026-04-09T08:50:50.836Z</time></trkpt><trkpt lat="42.1832733" lon="14.6553967"><ele>53.0</ele><time>2026-04-09T08:50:52.836Z</time></trkpt><trkpt lat="42.183205" lon="14.6554567"><ele>53.00000000000001</ele><time>2026-04-09T08:50:54.837Z</time></trkpt><trkpt lat="42.1831333" lon="14.6555167"><ele>53.0</ele><time>2026-04-09T08:50:56.836Z</time></trkpt><trkpt lat="42.1830583" lon="14.655575"><ele>53.16666666666667</ele><time>2026-04-09T08:50:58.836Z</time></trkpt><trkpt lat="42.18299" lon="14.6556283"><ele>53.333333333333336</ele><time>2026-04-09T08:51:00.836Z</time></trkpt><trkpt lat="42.18291" lon="14.6556883"><ele>53.5</ele><time>2026-04-09T08:51:02.836Z</time></trkpt><trkpt lat="42.18284" lon="14.6557517"><ele>53.66666666666667</ele><time>2026-04-09T08:51:04.836Z</time></trkpt><trkpt lat="42.1827683" lon="14.6558083"><ele>53.833333333333336</ele><time>2026-04-09T08:51:06.836Z</time></trkpt><trkpt lat="42.1826817" lon="14.6558667"><ele>54.0</ele><time>2026-04-09T08:51:08.836Z</time></trkpt><trkpt lat="42.182605" lon="14.65593"><ele>54.0</ele><time>2026-04-09T08:51:10.836Z</time></trkpt><trkpt lat="42.1825333" lon="14.6559983"><ele>54.0</ele><time>2026-04-09T08:51:12.837Z</time></trkpt><trkpt lat="42.1824683" lon="14.6560667"><ele>54.0</ele><time>2026-04-09T08:51:14.836Z</time></trkpt><trkpt lat="42.1824017" lon="14.656145"><ele>54.0</ele><time>2026-04-09T08:51:16.836Z</time></trkpt><trkpt lat="42.1823283" lon="14.65621"><ele>54.0</ele><time>2026-04-09T08:51:18.837Z</time></trkpt><trkpt lat="42.1822633" lon="14.6562867"><ele>54.0</ele><time>2026-04-09T08:51:20.836Z</time></trkpt><trkpt lat="42.1822067" lon="14.6563517"><ele>54.166666666666664</ele><time>2026-04-09T08:51:22.836Z</time></trkpt><trkpt lat="42.1821433" lon="14.656415"><ele>54.33333333333333</ele><time>2026-04-09T08:51:24.837Z</time></trkpt><trkpt lat="42.1820733" lon="14.6564933"><ele>54.5</ele><time>2026-04-09T08:51:26.836Z</time></trkpt><trkpt lat="42.1819983" lon="14.65657"><ele>54.666666666666664</ele><time>2026-04-09T08:51:28.837Z</time></trkpt><trkpt lat="42.1819283" lon="14.6566483"><ele>54.83333333333333</ele><time>2026-04-09T08:51:30.836Z</time></trkpt><trkpt lat="42.1818683" lon="14.6567267"><ele>55.0</ele><time>2026-04-09T08:51:32.836Z</time></trkpt><trkpt lat="42.1817967" lon="14.6568083"><ele>54.99999999999999</ele><time>2026-04-09T08:51:34.836Z</time></trkpt><trkpt lat="42.1817233" lon="14.656885"><ele>55.0</ele><time>2026-04-09T08:51:36.836Z</time></trkpt><trkpt lat="42.1816517" lon="14.6569583"><ele>55.0</ele><time>2026-04-09T08:51:38.836Z</time></trkpt><trkpt lat="42.181585" lon="14.657035"><ele>55.0</ele><time>2026-04-09T08:51:40.836Z</time></trkpt><trkpt lat="42.1815167" lon="14.6571083"><ele>54.99999999999999</ele><time>2026-04-09T08:51:42.836Z</time></trkpt><trkpt lat="42.1814483" lon="14.6571883"><ele>55.0</ele><time>2026-04-09T08:51:44.836Z</time></trkpt><trkpt lat="42.1813717" lon="14.6572633"><ele>55.0</ele><time>2026-04-09T08:51:46.836Z</time></trkpt><trkpt lat="42.1813" lon="14.6573367"><ele>55.0</ele><time>2026-04-09T08:51:48.836Z</time></trkpt><trkpt lat="42.18123" lon="14.6574183"><ele>55.0</ele><time>2026-04-09T08:51:50.836Z</time></trkpt><trkpt lat="42.1811583" lon="14.6574983"><ele>55.0</ele><time>2026-04-09T08:51:52.836Z</time></trkpt><trkpt lat="42.1810867" lon="14.6575733"><ele>55.0</ele><time>2026-04-09T08:51:54.836Z</time></trkpt><trkpt lat="42.1810133" lon="14.6576517"><ele>55.0</ele><time>2026-04-09T08:51:56.836Z</time></trkpt><trkpt lat="42.1809367" lon="14.6577283"><ele>55.0</ele><time>2026-04-09T08:51:58.836Z</time></trkpt><trkpt lat="42.1808583" lon="14.6578017"><ele>55.0</ele><time>2026-04-09T08:52:00.836Z</time></trkpt><trkpt lat="42.1807733" lon="14.6578733"><ele>55.0</ele><time>2026-04-09T08:52:02.837Z</time></trkpt><trkpt lat="42.1806883" lon="14.65794"><ele>55.0</ele><time>2026-04-09T08:52:04.836Z</time></trkpt><trkpt lat="42.1806033" lon="14.6580083"><ele>54.8</ele><time>2026-04-09T08:52:06.836Z</time></trkpt><trkpt lat="42.1805167" lon="14.6580717"><ele>54.6</ele><time>2026-04-09T08:52:08.836Z</time></trkpt><trkpt lat="42.1804267" lon="14.6581467"><ele>54.400000000000006</ele><time>2026-04-09T08:52:10.836Z</time></trkpt><trkpt lat="42.180335" lon="14.6582333"><ele>54.2</ele><time>2026-04-09T08:52:12.836Z</time></trkpt><trkpt lat="42.1802567" lon="14.6583333"><ele>54.0</ele><time>2026-04-09T08:52:14.836Z</time></trkpt><trkpt lat="42.1801883" lon="14.65845"><ele>54.0</ele><time>2026-04-09T08:52:16.836Z</time></trkpt><trkpt lat="42.1801167" lon="14.65857"><ele>54.00000000000001</ele><time>2026-04-09T08:52:18.837Z</time></trkpt><trkpt lat="42.1800483" lon="14.6586883"><ele>54.00000000000001</ele><time>2026-04-09T08:52:20.836Z</time></trkpt><trkpt lat="42.179985" lon="14.6587967"><ele>54.0</ele><time>2026-04-09T08:52:22.836Z</time></trkpt><trkpt lat="42.17992" lon="14.6589133"><ele>54.0</ele><time>2026-04-09T08:52:24.836Z</time></trkpt><trkpt lat="42.1798617" lon="14.659025"><ele>53.6</ele><time>2026-04-09T08:52:26.836Z</time></trkpt><trkpt lat="42.1798" lon="14.6591367"><ele>53.2</ele><time>2026-04-09T08:52:28.836Z</time></trkpt><trkpt lat="42.179735" lon="14.6592533"><ele>52.800000000000004</ele><time>2026-04-09T08:52:30.836Z</time></trkpt><trkpt lat="42.179665" lon="14.6593717"><ele>52.400000000000006</ele><time>2026-04-09T08:52:32.836Z</time></trkpt><trkpt lat="42.1795983" lon="14.6594983"><ele>52.0</ele><time>2026-04-09T08:52:34.836Z</time></trkpt><trkpt lat="42.1795367" lon="14.6596183"><ele>51.5</ele><time>2026-04-09T08:52:36.836Z</time></trkpt><trkpt lat="42.1794667" lon="14.6597317"><ele>51.0</ele><time>2026-04-09T08:52:38.836Z</time></trkpt><trkpt lat="42.179395" lon="14.6598533"><ele>50.5</ele><time>2026-04-09T08:52:40.836Z</time></trkpt><trkpt lat="42.1793217" lon="14.659985"><ele>50.0</ele><time>2026-04-09T08:52:42.836Z</time></trkpt><trkpt lat="42.179245" lon="14.6601083"><ele>50.0</ele><time>2026-04-09T08:52:44.836Z</time></trkpt><trkpt lat="42.1791767" lon="14.6602367"><ele>50.0</ele><time>2026-04-09T08:52:46.836Z</time></trkpt><trkpt lat="42.1791033" lon="14.6603667"><ele>50.0</ele><time>2026-04-09T08:52:48.836Z</time></trkpt><trkpt lat="42.1790383" lon="14.660485"><ele>50.0</ele><time>2026-04-09T08:52:50.836Z</time></trkpt><trkpt lat="42.1789733" lon="14.6606067"><ele>50.0</ele><time>2026-04-09T08:52:52.836Z</time></trkpt><trkpt lat="42.1789083" lon="14.660735"><ele>50.0</ele><time>2026-04-09T08:52:54.836Z</time></trkpt><trkpt lat="42.17885" lon="14.6608667"><ele>50.0</ele><time>2026-04-09T08:52:56.836Z</time></trkpt><trkpt lat="42.1788083" lon="14.6610017"><ele>50.0</ele><time>2026-04-09T08:52:58.837Z</time></trkpt><trkpt lat="42.1787767" lon="14.6611317"><ele>50.0</ele><time>2026-04-09T08:53:00.836Z</time></trkpt><trkpt lat="42.1787583" lon="14.661275"><ele>50.2</ele><time>2026-04-09T08:53:02.836Z</time></trkpt><trkpt lat="42.1787267" lon="14.6614167"><ele>50.4</ele><time>2026-04-09T08:53:04.836Z</time></trkpt><trkpt lat="42.1786967" lon="14.6615533"><ele>50.599999999999994</ele><time>2026-04-09T08:53:06.836Z</time></trkpt><trkpt lat="42.1786633" lon="14.6616917"><ele>50.8</ele><time>2026-04-09T08:53:08.836Z</time></trkpt><trkpt lat="42.1786367" lon="14.66183"><ele>51.0</ele><time>2026-04-09T08:53:10.836Z</time></trkpt><trkpt lat="42.1786067" lon="14.6619567"><ele>50.5</ele><time>2026-04-09T08:53:12.836Z</time></trkpt><trkpt lat="42.1785983" lon="14.662115"><ele>50.0</ele><time>2026-04-09T08:53:14.836Z</time></trkpt><trkpt lat="42.1785817" lon="14.6622633"><ele>49.5</ele><time>2026-04-09T08:53:16.836Z</time></trkpt><trkpt lat="42.1785533" lon="14.662415"><ele>49.0</ele><time>2026-04-09T08:53:18.837Z</time></trkpt><trkpt lat="42.1785133" lon="14.6625633"><ele>49.0</ele><time>2026-04-09T08:53:20.836Z</time></trkpt><trkpt lat="42.1784683" lon="14.6627033"><ele>49.0</ele><time>2026-04-09T08:53:22.837Z</time></trkpt><trkpt lat="42.1784467" lon="14.662785"><ele>49.0</ele><time>2026-04-09T08:53:23.837Z</time></trkpt><trkpt lat="42.17839" lon="14.662915"><ele>49.0</ele><time>2026-04-09T08:53:25.836Z</time></trkpt><trkpt lat="42.1783283" lon="14.6630483"><ele>49.0</ele><time>2026-04-09T08:53:27.836Z</time></trkpt><trkpt lat="42.1782583" lon="14.6631817"><ele>49.0</ele><time>2026-04-09T08:53:29.836Z</time></trkpt><trkpt lat="42.1781917" lon="14.6633033"><ele>49.0</ele><time>2026-04-09T08:53:31.836Z</time></trkpt><trkpt lat="42.1781317" lon="14.66342"><ele>49.0</ele><time>2026-04-09T08:53:33.836Z</time></trkpt><trkpt lat="42.178075" lon="14.6635583"><ele>49.0</ele><time>2026-04-09T08:53:35.836Z</time></trkpt><trkpt lat="42.1780133" lon="14.6636833"><ele>49.0</ele><time>2026-04-09T08:53:37.837Z</time></trkpt><trkpt lat="42.17795" lon="14.663805"><ele>48.75</ele><time>2026-04-09T08:53:39.836Z</time></trkpt><trkpt lat="42.1778783" lon="14.6639333"><ele>48.5</ele><time>2026-04-09T08:53:41.836Z</time></trkpt><trkpt lat="42.1778133" lon="14.66407"><ele>48.25</ele><time>2026-04-09T08:53:43.836Z</time></trkpt><trkpt lat="42.177755" lon="14.6642067"><ele>48.0</ele><time>2026-04-09T08:53:45.836Z</time></trkpt><trkpt lat="42.1777017" lon="14.6643267"><ele>48.0</ele><time>2026-04-09T08:53:47.836Z</time></trkpt><trkpt lat="42.177645" lon="14.66443"><ele>48.0</ele><time>2026-04-09T08:53:49.836Z</time></trkpt><trkpt lat="42.1775767" lon="14.6645267"><ele>48.0</ele><time>2026-04-09T08:53:51.836Z</time></trkpt><trkpt lat="42.1775183" lon="14.6646333"><ele>48.0</ele><time>2026-04-09T08:53:53.836Z</time></trkpt><trkpt lat="42.1774433" lon="14.664745"><ele>48.0</ele><time>2026-04-09T08:53:55.836Z</time></trkpt><trkpt lat="42.1773617" lon="14.6648383"><ele>48.2</ele><time>2026-04-09T08:53:57.836Z</time></trkpt><trkpt lat="42.1772967" lon="14.6649233"><ele>48.4</ele><time>2026-04-09T08:53:59.836Z</time></trkpt><trkpt lat="42.1772067" lon="14.6650233"><ele>48.6</ele><time>2026-04-09T08:54:01.836Z</time></trkpt><trkpt lat="42.1771467" lon="14.6650717"><ele>48.800000000000004</ele><time>2026-04-09T08:54:02.836Z</time></trkpt><trkpt lat="42.1770517" lon="14.6651733"><ele>49.0</ele><time>2026-04-09T08:54:04.836Z</time></trkpt><trkpt lat="42.1769583" lon="14.6652767"><ele>49.0</ele><time>2026-04-09T08:54:06.836Z</time></trkpt><trkpt lat="42.176865" lon="14.6653783"><ele>49.0</ele><time>2026-04-09T08:54:08.836Z</time></trkpt><trkpt lat="42.176775" lon="14.6654883"><ele>49.0</ele><time>2026-04-09T08:54:10.836Z</time></trkpt><trkpt lat="42.17668" lon="14.6655933"><ele>49.0</ele><time>2026-04-09T08:54:12.836Z</time></trkpt><trkpt lat="42.1765967" lon="14.66569"><ele>49.0</ele><time>2026-04-09T08:54:14.836Z</time></trkpt><trkpt lat="42.1765133" lon="14.6657917"><ele>49.0</ele><time>2026-04-09T08:54:16.837Z</time></trkpt><trkpt lat="42.1764283" lon="14.6658867"><ele>49.0</ele><time>2026-04-09T08:54:18.836Z</time></trkpt><trkpt lat="42.1763333" lon="14.665985"><ele>49.0</ele><time>2026-04-09T08:54:20.836Z</time></trkpt><trkpt lat="42.1762367" lon="14.6660783"><ele>48.49999999999999</ele><time>2026-04-09T08:54:22.837Z</time></trkpt><trkpt lat="42.17614" lon="14.6661583"><ele>48.0</ele><time>2026-04-09T08:54:24.836Z</time></trkpt><trkpt lat="42.1760717" lon="14.666215"><ele>47.5</ele><time>2026-04-09T08:54:26.837Z</time></trkpt><trkpt lat="42.1760167" lon="14.66626"><ele>47.0</ele><time>2026-04-09T08:54:31.837Z</time></trkpt><trkpt lat="42.1759567" lon="14.6662933"><ele>46.5</ele><time>2026-04-09T08:54:34.836Z</time></trkpt><trkpt lat="42.1758983" lon="14.66633"><ele>46.0</ele><time>2026-04-09T08:54:36.836Z</time></trkpt><trkpt lat="42.1758117" lon="14.666395"><ele>46.0</ele><time>2026-04-09T08:54:38.836Z</time></trkpt><trkpt lat="42.1757083" lon="14.6664717"><ele>46.0</ele><time>2026-04-09T08:54:40.836Z</time></trkpt><trkpt lat="42.175655" lon="14.6665183"><ele>46.0</ele><time>2026-04-09T08:54:41.836Z</time></trkpt><trkpt lat="42.1756" lon="14.6665683"><ele>46.0</ele><time>2026-04-09T08:54:42.836Z</time></trkpt><trkpt lat="42.175545" lon="14.66662"><ele>46.0</ele><time>2026-04-09T08:54:43.837Z</time></trkpt><trkpt lat="42.1754367" lon="14.6667267"><ele>46.0</ele><time>2026-04-09T08:54:45.837Z</time></trkpt><trkpt lat="42.1753783" lon="14.6667983"><ele>45.4</ele><time>2026-04-09T08:54:46.836Z</time></trkpt><trkpt lat="42.1753117" lon="14.6668733"><ele>44.8</ele><time>2026-04-09T08:54:47.836Z</time></trkpt><trkpt lat="42.1752417" lon="14.6669517"><ele>44.199999999999996</ele><time>2026-04-09T08:54:48.836Z</time></trkpt><trkpt lat="42.175165" lon="14.6670283"><ele>43.599999999999994</ele><time>2026-04-09T08:54:49.837Z</time></trkpt><trkpt lat="42.17509" lon="14.6671133"><ele>43.0</ele><time>2026-04-09T08:54:50.836Z</time></trkpt><trkpt lat="42.1750183" lon="14.667195"><ele>42.66666666666667</ele><time>2026-04-09T08:54:51.836Z</time></trkpt><trkpt lat="42.17495" lon="14.6672733"><ele>42.333333333333336</ele><time>2026-04-09T08:54:52.836Z</time></trkpt><trkpt lat="42.1748833" lon="14.667345"><ele>42.0</ele><time>2026-04-09T08:54:53.836Z</time></trkpt><trkpt lat="42.1748167" lon="14.6674167"><ele>41.666666666666664</ele><time>2026-04-09T08:54:54.836Z</time></trkpt><trkpt lat="42.1747567" lon="14.6674833"><ele>41.33333333333333</ele><time>2026-04-09T08:54:55.836Z</time></trkpt><trkpt lat="42.1747083" lon="14.6675417"><ele>41.0</ele><time>2026-04-09T08:54:56.836Z</time></trkpt><trkpt lat="42.1746567" lon="14.6675967"><ele>41.666666666666664</ele><time>2026-04-09T08:54:57.836Z</time></trkpt><trkpt lat="42.1745767" lon="14.6676867"><ele>42.33333333333333</ele><time>2026-04-09T08:54:59.836Z</time></trkpt><trkpt lat="42.1745133" lon="14.66776"><ele>43.0</ele><time>2026-04-09T08:55:01.836Z</time></trkpt><trkpt lat="42.17446" lon="14.66784"><ele>43.666666666666664</ele><time>2026-04-09T08:55:03.836Z</time></trkpt><trkpt lat="42.1744083" lon="14.6679167"><ele>44.333333333333336</ele><time>2026-04-09T08:55:05.837Z</time></trkpt><trkpt lat="42.1743583" lon="14.6679917"><ele>45.0</ele><time>2026-04-09T08:55:07.836Z</time></trkpt><trkpt lat="42.1743233" lon="14.66807"><ele>45.285714285714285</ele><time>2026-04-09T08:55:09.836Z</time></trkpt><trkpt lat="42.1742933" lon="14.6681567"><ele>45.57142857142858</ele><time>2026-04-09T08:55:11.837Z</time></trkpt><trkpt lat="42.1742767" lon="14.668245"><ele>45.85714285714286</ele><time>2026-04-09T08:55:13.836Z</time></trkpt><trkpt lat="42.1742633" lon="14.6683467"><ele>46.14285714285714</ele><time>2026-04-09T08:55:15.837Z</time></trkpt><trkpt lat="42.174255" lon="14.6684483"><ele>46.42857142857143</ele><time>2026-04-09T08:55:17.836Z</time></trkpt><trkpt lat="42.1742483" lon="14.6685517"><ele>46.714285714285715</ele><time>2026-04-09T08:55:19.836Z</time></trkpt><trkpt lat="42.1742367" lon="14.6686483"><ele>47.0</ele><time>2026-04-09T08:55:21.836Z</time></trkpt><trkpt lat="42.1742217" lon="14.66874"><ele>47.166666666666664</ele><time>2026-04-09T08:55:23.836Z</time></trkpt><trkpt lat="42.1742117" lon="14.6688283"><ele>47.33333333333333</ele><time>2026-04-09T08:55:25.836Z</time></trkpt><trkpt lat="42.1741983" lon="14.6689167"><ele>47.5</ele><time>2026-04-09T08:55:27.836Z</time></trkpt><trkpt lat="42.1741817" lon="14.669015"><ele>47.666666666666664</ele><time>2026-04-09T08:55:29.836Z</time></trkpt><trkpt lat="42.17415" lon="14.6691083"><ele>47.833333333333336</ele><time>2026-04-09T08:55:31.836Z</time></trkpt><trkpt lat="42.1741217" lon="14.6692133"><ele>48.0</ele><time>2026-04-09T08:55:33.836Z</time></trkpt><trkpt lat="42.1740933" lon="14.6693217"><ele>48.0</ele><time>2026-04-09T08:55:35.836Z</time></trkpt><trkpt lat="42.1740567" lon="14.6694117"><ele>48.0</ele><time>2026-04-09T08:55:37.836Z</time></trkpt><trkpt lat="42.17401" lon="14.669515"><ele>48.0</ele><time>2026-04-09T08:55:39.837Z</time></trkpt><trkpt lat="42.17397" lon="14.669625"><ele>48.0</ele><time>2026-04-09T08:55:41.836Z</time></trkpt><trkpt lat="42.1739317" lon="14.6697383"><ele>48.0</ele><time>2026-04-09T08:55:43.836Z</time></trkpt><trkpt lat="42.1738783" lon="14.6698533"><ele>48.0</ele><time>2026-04-09T08:55:45.836Z</time></trkpt><trkpt lat="42.1738283" lon="14.669975"><ele>48.0</ele><time>2026-04-09T08:55:47.836Z</time></trkpt><trkpt lat="42.1737733" lon="14.670085"><ele>48.0</ele><time>2026-04-09T08:55:49.836Z</time></trkpt><trkpt lat="42.1737233" lon="14.6702117"><ele>48.0</ele><time>2026-04-09T08:55:51.836Z</time></trkpt><trkpt lat="42.173675" lon="14.6703417"><ele>48.0</ele><time>2026-04-09T08:55:53.836Z</time></trkpt><trkpt lat="42.1736283" lon="14.6704617"><ele>48.0</ele><time>2026-04-09T08:55:55.836Z</time></trkpt><trkpt lat="42.173575" lon="14.670575"><ele>47.8</ele><time>2026-04-09T08:55:57.836Z</time></trkpt><trkpt lat="42.1735267" lon="14.6706917"><ele>47.599999999999994</ele><time>2026-04-09T08:55:59.836Z</time></trkpt><trkpt lat="42.1734783" lon="14.6708217"><ele>47.400000000000006</ele><time>2026-04-09T08:56:01.836Z</time></trkpt><trkpt lat="42.1734233" lon="14.670955"><ele>47.2</ele><time>2026-04-09T08:56:03.836Z</time></trkpt><trkpt lat="42.1733617" lon="14.6710983"><ele>47.0</ele><time>2026-04-09T08:56:05.836Z</time></trkpt><trkpt lat="42.1733283" lon="14.671175"><ele>46.5</ele><time>2026-04-09T08:56:06.837Z</time></trkpt><trkpt lat="42.1732967" lon="14.6712533"><ele>46.0</ele><time>2026-04-09T08:56:07.836Z</time></trkpt><trkpt lat="42.17323" lon="14.6714"><ele>45.5</ele><time>2026-04-09T08:56:09.836Z</time></trkpt><trkpt lat="42.1731933" lon="14.6714783"><ele>45.0</ele><time>2026-04-09T08:56:10.836Z</time></trkpt><trkpt lat="42.173155" lon="14.6715567"><ele>44.5</ele><time>2026-04-09T08:56:11.836Z</time></trkpt><trkpt lat="42.1731133" lon="14.6716417"><ele>44.0</ele><time>2026-04-09T08:56:12.836Z</time></trkpt><trkpt lat="42.17307" lon="14.671725"><ele>44.0</ele><time>2026-04-09T08:56:13.836Z</time></trkpt><trkpt lat="42.173035" lon="14.6718167"><ele>44.0</ele><time>2026-04-09T08:56:14.836Z</time></trkpt><trkpt lat="42.1729933" lon="14.671915"><ele>44.0</ele><time>2026-04-09T08:56:15.836Z</time></trkpt><trkpt lat="42.17296" lon="14.6720117"><ele>44.0</ele><time>2026-04-09T08:56:16.837Z</time></trkpt><trkpt lat="42.1729267" lon="14.6721017"><ele>44.0</ele><time>2026-04-09T08:56:17.836Z</time></trkpt><trkpt lat="42.17289" lon="14.6721917"><ele>44.0</ele><time>2026-04-09T08:56:18.836Z</time></trkpt><trkpt lat="42.172855" lon="14.672275"><ele>44.0</ele><time>2026-04-09T08:56:19.836Z</time></trkpt><trkpt lat="42.1728167" lon="14.672355"><ele>44.0</ele><time>2026-04-09T08:56:20.836Z</time></trkpt><trkpt lat="42.1727883" lon="14.6724317"><ele>44.0</ele><time>2026-04-09T08:56:21.837Z</time></trkpt><trkpt lat="42.1727617" lon="14.672515"><ele>44.0</ele><time>2026-04-09T08:56:22.836Z</time></trkpt><trkpt lat="42.1727317" lon="14.6725917"><ele>44.0</ele><time>2026-04-09T08:56:23.836Z</time></trkpt><trkpt lat="42.1726733" lon="14.672715"><ele>44.0</ele><time>2026-04-09T08:56:25.836Z</time></trkpt><trkpt lat="42.172615" lon="14.672805"><ele>44.0</ele><time>2026-04-09T08:56:27.836Z</time></trkpt><trkpt lat="42.1725583" lon="14.6728967"><ele>44.0</ele><time>2026-04-09T08:56:29.836Z</time></trkpt><trkpt lat="42.17249" lon="14.6729833"><ele>44.0</ele><time>2026-04-09T08:56:31.836Z</time></trkpt><trkpt lat="42.1724167" lon="14.67307"><ele>44.0</ele><time>2026-04-09T08:56:33.836Z</time></trkpt><trkpt lat="42.1723433" lon="14.6731583"><ele>44.0</ele><time>2026-04-09T08:56:35.836Z</time></trkpt><trkpt lat="42.17227" lon="14.673245"><ele>44.2</ele><time>2026-04-09T08:56:37.837Z</time></trkpt><trkpt lat="42.1722033" lon="14.6733283"><ele>44.400000000000006</ele><time>2026-04-09T08:56:39.836Z</time></trkpt><trkpt lat="42.1721467" lon="14.6734217"><ele>44.6</ele><time>2026-04-09T08:56:41.836Z</time></trkpt><trkpt lat="42.1720817" lon="14.6735083"><ele>44.8</ele><time>2026-04-09T08:56:43.837Z</time></trkpt><trkpt lat="42.1720183" lon="14.6736083"><ele>45.0</ele><time>2026-04-09T08:56:45.837Z</time></trkpt><trkpt lat="42.1719667" lon="14.6737167"><ele>45.4</ele><time>2026-04-09T08:56:47.837Z</time></trkpt><trkpt lat="42.1719083" lon="14.6738233"><ele>45.8</ele><time>2026-04-09T08:56:49.838Z</time></trkpt><trkpt lat="42.17185" lon="14.6739283"><ele>46.2</ele><time>2026-04-09T08:56:51.837Z</time></trkpt><trkpt lat="42.17181" lon="14.6740333"><ele>46.6</ele><time>2026-04-09T08:56:53.837Z</time></trkpt><trkpt lat="42.1717633" lon="14.6741383"><ele>47.0</ele><time>2026-04-09T08:56:55.837Z</time></trkpt><trkpt lat="42.1717083" lon="14.674245"><ele>47.0</ele><time>2026-04-09T08:56:57.837Z</time></trkpt><trkpt lat="42.1716517" lon="14.6743517"><ele>47.0</ele><time>2026-04-09T08:56:59.837Z</time></trkpt><trkpt lat="42.1715933" lon="14.6744567"><ele>47.0</ele><time>2026-04-09T08:57:01.837Z</time></trkpt><trkpt lat="42.17153" lon="14.674565"><ele>47.0</ele><time>2026-04-09T08:57:03.838Z</time></trkpt><trkpt lat="42.1714683" lon="14.674675"><ele>47.0</ele><time>2026-04-09T08:57:05.837Z</time></trkpt><trkpt lat="42.1714" lon="14.6747733"><ele>47.2</ele><time>2026-04-09T08:57:07.838Z</time></trkpt><trkpt lat="42.171325" lon="14.674855"><ele>47.400000000000006</ele><time>2026-04-09T08:57:09.837Z</time></trkpt><trkpt lat="42.1712417" lon="14.6749367"><ele>47.599999999999994</ele><time>2026-04-09T08:57:11.837Z</time></trkpt><trkpt lat="42.1711667" lon="14.675015"><ele>47.8</ele><time>2026-04-09T08:57:13.837Z</time></trkpt><trkpt lat="42.171085" lon="14.6750833"><ele>48.0</ele><time>2026-04-09T08:57:15.838Z</time></trkpt><trkpt lat="42.1710033" lon="14.6751583"><ele>48.0</ele><time>2026-04-09T08:57:17.837Z</time></trkpt><trkpt lat="42.1709233" lon="14.675235"><ele>48.0</ele><time>2026-04-09T08:57:19.837Z</time></trkpt><trkpt lat="42.1708433" lon="14.675305"><ele>48.0</ele><time>2026-04-09T08:57:21.837Z</time></trkpt><trkpt lat="42.1707583" lon="14.6753817"><ele>48.0</ele><time>2026-04-09T08:57:23.837Z</time></trkpt><trkpt lat="42.1706783" lon="14.675455"><ele>48.0</ele><time>2026-04-09T08:57:25.838Z</time></trkpt><trkpt lat="42.1705983" lon="14.675535"><ele>48.599999999999994</ele><time>2026-04-09T08:57:27.837Z</time></trkpt><trkpt lat="42.1705217" lon="14.6756133"><ele>49.199999999999996</ele><time>2026-04-09T08:57:29.837Z</time></trkpt><trkpt lat="42.1704433" lon="14.67569"><ele>49.8</ele><time>2026-04-09T08:57:31.838Z</time></trkpt><trkpt lat="42.17036" lon="14.675765"><ele>50.4</ele><time>2026-04-09T08:57:33.837Z</time></trkpt><trkpt lat="42.17028" lon="14.67583"><ele>51.0</ele><time>2026-04-09T08:57:35.837Z</time></trkpt><trkpt lat="42.1702033" lon="14.6758983"><ele>51.0</ele><time>2026-04-09T08:57:37.837Z</time></trkpt><trkpt lat="42.17012" lon="14.6759633"><ele>51.0</ele><time>2026-04-09T08:57:39.837Z</time></trkpt><trkpt lat="42.17004" lon="14.6760317"><ele>51.0</ele><time>2026-04-09T08:57:41.837Z</time></trkpt><trkpt lat="42.1699617" lon="14.6760983"><ele>51.0</ele><time>2026-04-09T08:57:43.838Z</time></trkpt><trkpt lat="42.1698783" lon="14.6761683"><ele>51.0</ele><time>2026-04-09T08:57:45.837Z</time></trkpt><trkpt lat="42.1698017" lon="14.6762433"><ele>50.599999999999994</ele><time>2026-04-09T08:57:47.838Z</time></trkpt><trkpt lat="42.169725" lon="14.6763167"><ele>50.2</ele><time>2026-04-09T08:57:49.837Z</time></trkpt><trkpt lat="42.1696383" lon="14.67639"><ele>49.8</ele><time>2026-04-09T08:57:51.837Z</time></trkpt><trkpt lat="42.16956" lon="14.6764683"><ele>49.400000000000006</ele><time>2026-04-09T08:57:53.837Z</time></trkpt><trkpt lat="42.1694767" lon="14.67654"><ele>49.0</ele><time>2026-04-09T08:57:55.837Z</time></trkpt><trkpt lat="42.16939" lon="14.6766133"><ele>49.0</ele><time>2026-04-09T08:57:57.837Z</time></trkpt><trkpt lat="42.169305" lon="14.6766883"><ele>49.0</ele><time>2026-04-09T08:57:59.838Z</time></trkpt><trkpt lat="42.1692233" lon="14.67677"><ele>49.0</ele><time>2026-04-09T08:58:01.837Z</time></trkpt><trkpt lat="42.16914" lon="14.6768517"><ele>49.0</ele><time>2026-04-09T08:58:03.837Z</time></trkpt><trkpt lat="42.169045" lon="14.676935"><ele>49.0</ele><time>2026-04-09T08:58:05.837Z</time></trkpt><trkpt lat="42.1689583" lon="14.67702"><ele>49.400000000000006</ele><time>2026-04-09T08:58:07.837Z</time></trkpt><trkpt lat="42.1688667" lon="14.677095"><ele>49.8</ele><time>2026-04-09T08:58:09.837Z</time></trkpt><trkpt lat="42.16877" lon="14.6771817"><ele>50.2</ele><time>2026-04-09T08:58:11.837Z</time></trkpt><trkpt lat="42.1686833" lon="14.6772733"><ele>50.599999999999994</ele><time>2026-04-09T08:58:13.837Z</time></trkpt><trkpt lat="42.1686017" lon="14.6773733"><ele>51.0</ele><time>2026-04-09T08:58:15.837Z</time></trkpt><trkpt lat="42.1685167" lon="14.6774767"><ele>51.0</ele><time>2026-04-09T08:58:17.838Z</time></trkpt><trkpt lat="42.1684283" lon="14.677585"><ele>51.0</ele><time>2026-04-09T08:58:19.837Z</time></trkpt><trkpt lat="42.1683417" lon="14.677695"><ele>51.0</ele><time>2026-04-09T08:58:21.838Z</time></trkpt><trkpt lat="42.1682567" lon="14.6778083"><ele>51.0</ele><time>2026-04-09T08:58:23.837Z</time></trkpt><trkpt lat="42.1681717" lon="14.6779133"><ele>50.199999999999996</ele><time>2026-04-09T08:58:25.837Z</time></trkpt><trkpt lat="42.1680917" lon="14.6780167"><ele>49.4</ele><time>2026-04-09T08:58:27.837Z</time></trkpt><trkpt lat="42.1680083" lon="14.67813"><ele>48.6</ele><time>2026-04-09T08:58:29.837Z</time></trkpt><trkpt lat="42.1679083" lon="14.6782283"><ele>47.8</ele><time>2026-04-09T08:58:31.837Z</time></trkpt><trkpt lat="42.1678567" lon="14.6782933"><ele>47.0</ele><time>2026-04-09T08:58:32.837Z</time></trkpt><trkpt lat="42.167805" lon="14.678355"><ele>47.0</ele><time>2026-04-09T08:58:33.837Z</time></trkpt><trkpt lat="42.1677467" lon="14.6784117"><ele>47.0</ele><time>2026-04-09T08:58:34.837Z</time></trkpt><trkpt lat="42.1676917" lon="14.678465"><ele>47.0</ele><time>2026-04-09T08:58:35.837Z</time></trkpt><trkpt lat="42.1676267" lon="14.6785167"><ele>47.0</ele><time>2026-04-09T08:58:36.837Z</time></trkpt><trkpt lat="42.16756" lon="14.6785583"><ele>47.0</ele><time>2026-04-09T08:58:37.837Z</time></trkpt><trkpt lat="42.16748" lon="14.6785967"><ele>47.0</ele><time>2026-04-09T08:58:38.838Z</time></trkpt><trkpt lat="42.1673983" lon="14.6786283"><ele>46.2</ele><time>2026-04-09T08:58:39.837Z</time></trkpt><trkpt lat="42.1673117" lon="14.6786467"><ele>45.400000000000006</ele><time>2026-04-09T08:58:40.837Z</time></trkpt><trkpt lat="42.1672167" lon="14.6786483"><ele>44.599999999999994</ele><time>2026-04-09T08:58:41.837Z</time></trkpt><trkpt lat="42.1671217" lon="14.6786467"><ele>43.8</ele><time>2026-04-09T08:58:42.837Z</time></trkpt><trkpt lat="42.16703" lon="14.6786533"><ele>43.0</ele><time>2026-04-09T08:58:43.837Z</time></trkpt><trkpt lat="42.1669367" lon="14.6786617"><ele>43.00000000000001</ele><time>2026-04-09T08:58:44.837Z</time></trkpt><trkpt lat="42.1668583" lon="14.678685"><ele>43.0</ele><time>2026-04-09T08:58:45.838Z</time></trkpt><trkpt lat="42.16679" lon="14.6787317"><ele>43.0</ele><time>2026-04-09T08:58:46.837Z</time></trkpt><trkpt lat="42.1667333" lon="14.6787983"><ele>43.0</ele><time>2026-04-09T08:58:47.838Z</time></trkpt><trkpt lat="42.1667" lon="14.6788833"><ele>43.0</ele><time>2026-04-09T08:58:48.838Z</time></trkpt><trkpt lat="42.166695" lon="14.67898"><ele>43.00000000000001</ele><time>2026-04-09T08:58:49.837Z</time></trkpt><trkpt lat="42.1667133" lon="14.6790767"><ele>43.0</ele><time>2026-04-09T08:58:50.837Z</time></trkpt><trkpt lat="42.1667433" lon="14.6791617"><ele>43.0</ele><time>2026-04-09T08:58:51.838Z</time></trkpt><trkpt lat="42.16678" lon="14.679245"><ele>43.0</ele><time>2026-04-09T08:58:52.837Z</time></trkpt><trkpt lat="42.1668167" lon="14.6793217"><ele>43.0</ele><time>2026-04-09T08:58:53.837Z</time></trkpt><trkpt lat="42.1668533" lon="14.6793967"><ele>43.0</ele><time>2026-04-09T08:58:54.837Z</time></trkpt><trkpt lat="42.1668883" lon="14.6794683"><ele>43.0</ele><time>2026-04-09T08:58:55.837Z</time></trkpt><trkpt lat="42.1669233" lon="14.6795433"><ele>43.0</ele><time>2026-04-09T08:58:56.838Z</time></trkpt><trkpt lat="42.1669683" lon="14.6796883"><ele>43.4</ele><time>2026-04-09T08:58:58.837Z</time></trkpt><trkpt lat="42.1669883" lon="14.6798383"><ele>43.8</ele><time>2026-04-09T08:59:00.837Z</time></trkpt><trkpt lat="42.16698" lon="14.6799817"><ele>44.2</ele><time>2026-04-09T08:59:02.837Z</time></trkpt><trkpt lat="42.166965" lon="14.6801133"><ele>44.6</ele><time>2026-04-09T08:59:04.837Z</time></trkpt><trkpt lat="42.166945" lon="14.680245"><ele>45.0</ele><time>2026-04-09T08:59:06.837Z</time></trkpt><trkpt lat="42.16691" lon="14.680355"><ele>45.0</ele><time>2026-04-09T08:59:08.837Z</time></trkpt><trkpt lat="42.1668833" lon="14.6804683"><ele>45.0</ele><time>2026-04-09T08:59:10.837Z</time></trkpt><trkpt lat="42.1668617" lon="14.6805783"><ele>45.0</ele><time>2026-04-09T08:59:12.837Z</time></trkpt><trkpt lat="42.166845" lon="14.6806983"><ele>45.0</ele><time>2026-04-09T08:59:14.838Z</time></trkpt><trkpt lat="42.1668117" lon="14.6808"><ele>45.0</ele><time>2026-04-09T08:59:16.838Z</time></trkpt><trkpt lat="42.1667733" lon="14.680885"><ele>45.0</ele><time>2026-04-09T08:59:18.837Z</time></trkpt><trkpt lat="42.1667333" lon="14.680975"><ele>45.0</ele><time>2026-04-09T08:59:20.838Z</time></trkpt><trkpt lat="42.1666883" lon="14.6810517"><ele>45.0</ele><time>2026-04-09T08:59:22.837Z</time></trkpt><trkpt lat="42.1666433" lon="14.6811317"><ele>45.0</ele><time>2026-04-09T08:59:24.837Z</time></trkpt><trkpt lat="42.1666" lon="14.6812233"><ele>45.0</ele><time>2026-04-09T08:59:26.837Z</time></trkpt><trkpt lat="42.16657" lon="14.681305"><ele>45.0</ele><time>2026-04-09T08:59:28.837Z</time></trkpt><trkpt lat="42.166545" lon="14.681385"><ele>45.0</ele><time>2026-04-09T08:59:30.837Z</time></trkpt><trkpt lat="42.16652" lon="14.681475"><ele>45.0</ele><time>2026-04-09T08:59:32.837Z</time></trkpt><trkpt lat="42.1665067" lon="14.681575"><ele>45.857142857142854</ele><time>2026-04-09T08:59:34.837Z</time></trkpt><trkpt lat="42.166495" lon="14.6816717"><ele>46.714285714285715</ele><time>2026-04-09T08:59:36.837Z</time></trkpt><trkpt lat="42.1664867" lon="14.68177"><ele>47.57142857142857</ele><time>2026-04-09T08:59:38.838Z</time></trkpt><trkpt lat="42.1664833" lon="14.681865"><ele>48.42857142857143</ele><time>2026-04-09T08:59:40.837Z</time></trkpt><trkpt lat="42.1664833" lon="14.681955"><ele>49.28571428571429</ele><time>2026-04-09T08:59:42.837Z</time></trkpt><trkpt lat="42.16648" lon="14.682075"><ele>50.142857142857146</ele><time>2026-04-09T08:59:45.837Z</time></trkpt><trkpt lat="42.166475" lon="14.68216"><ele>51.0</ele><time>2026-04-09T08:59:47.838Z</time></trkpt><trkpt lat="42.1664633" lon="14.6822783"><ele>51.0</ele><time>2026-04-09T08:59:50.837Z</time></trkpt><trkpt lat="42.166445" lon="14.6823983"><ele>51.0</ele><time>2026-04-09T08:59:53.837Z</time></trkpt><trkpt lat="42.1664333" lon="14.6825217"><ele>51.0</ele><time>2026-04-09T08:59:56.837Z</time></trkpt><trkpt lat="42.1664133" lon="14.682605"><ele>51.0</ele><time>2026-04-09T08:59:58.837Z</time></trkpt><trkpt lat="42.1663717" lon="14.68269"><ele>51.0</ele><time>2026-04-09T09:00:01.837Z</time></trkpt><trkpt lat="42.1663317" lon="14.6827567"><ele>51.0</ele><time>2026-04-09T09:02:43.834Z</time></trkpt><trkpt lat="42.16629" lon="14.6828483"><ele>50.666666666666664</ele><time>2026-04-09T09:03:00.834Z</time></trkpt><trkpt lat="42.1662583" lon="14.6829517"><ele>50.33333333333333</ele><time>2026-04-09T09:03:03.835Z</time></trkpt><trkpt lat="42.1662383" lon="14.6830367"><ele>50.0</ele><time>2026-04-09T09:03:05.834Z</time></trkpt><trkpt lat="42.166215" lon="14.6831467"><ele>49.666666666666664</ele><time>2026-04-09T09:03:07.834Z</time></trkpt><trkpt lat="42.16621" lon="14.683265"><ele>49.33333333333333</ele><time>2026-04-09T09:03:09.834Z</time></trkpt><trkpt lat="42.1662167" lon="14.6833783"><ele>49.0</ele><time>2026-04-09T09:03:11.834Z</time></trkpt><trkpt lat="42.1662333" lon="14.6835"><ele>49.2</ele><time>2026-04-09T09:03:13.834Z</time></trkpt><trkpt lat="42.1662583" lon="14.683625"><ele>49.400000000000006</ele><time>2026-04-09T09:03:15.834Z</time></trkpt><trkpt lat="42.1662867" lon="14.6837533"><ele>49.6</ele><time>2026-04-09T09:03:17.834Z</time></trkpt><trkpt lat="42.1663167" lon="14.6838817"><ele>49.8</ele><time>2026-04-09T09:03:19.834Z</time></trkpt><trkpt lat="42.16635" lon="14.68401"><ele>50.0</ele><time>2026-04-09T09:03:21.834Z</time></trkpt><trkpt lat="42.166385" lon="14.68414"><ele>50.0</ele><time>2026-04-09T09:03:23.835Z</time></trkpt><trkpt lat="42.1664183" lon="14.6842667"><ele>50.0</ele><time>2026-04-09T09:03:25.834Z</time></trkpt><trkpt lat="42.1664533" lon="14.6843933"><ele>50.0</ele><time>2026-04-09T09:03:27.834Z</time></trkpt><trkpt lat="42.1664867" lon="14.6845217"><ele>50.0</ele><time>2026-04-09T09:03:29.834Z</time></trkpt><trkpt lat="42.1665217" lon="14.6846483"><ele>50.0</ele><time>2026-04-09T09:03:31.835Z</time></trkpt><trkpt lat="42.166555" lon="14.6847733"><ele>49.6</ele><time>2026-04-09T09:03:33.835Z</time></trkpt><trkpt lat="42.1665817" lon="14.6849083"><ele>49.2</ele><time>2026-04-09T09:03:35.834Z</time></trkpt><trkpt lat="42.1665983" lon="14.6850467"><ele>48.8</ele><time>2026-04-09T09:03:37.834Z</time></trkpt><trkpt lat="42.1666117" lon="14.6851933"><ele>48.4</ele><time>2026-04-09T09:03:39.834Z</time></trkpt><trkpt lat="42.1666183" lon="14.685345"><ele>48.0</ele><time>2026-04-09T09:03:41.835Z</time></trkpt><trkpt lat="42.166625" lon="14.6854933"><ele>48.0</ele><time>2026-04-09T09:03:43.835Z</time></trkpt><trkpt lat="42.166625" lon="14.6856433"><ele>48.0</ele><time>2026-04-09T09:03:45.834Z</time></trkpt><trkpt lat="42.1666233" lon="14.6857817"><ele>48.0</ele><time>2026-04-09T09:03:47.834Z</time></trkpt><trkpt lat="42.1666217" lon="14.68592"><ele>48.0</ele><time>2026-04-09T09:03:49.834Z</time></trkpt><trkpt lat="42.1666217" lon="14.686055"><ele>48.0</ele><time>2026-04-09T09:03:51.834Z</time></trkpt><trkpt lat="42.1666217" lon="14.6861817"><ele>47.833333333333336</ele><time>2026-04-09T09:03:53.834Z</time></trkpt><trkpt lat="42.1666183" lon="14.686305"><ele>47.666666666666664</ele><time>2026-04-09T09:03:55.835Z</time></trkpt><trkpt lat="42.1666167" lon="14.6864217"><ele>47.5</ele><time>2026-04-09T09:03:57.835Z</time></trkpt><trkpt lat="42.1666117" lon="14.6865233"><ele>47.33333333333333</ele><time>2026-04-09T09:03:59.834Z</time></trkpt><trkpt lat="42.1666233" lon="14.686635"><ele>47.166666666666664</ele><time>2026-04-09T09:04:02.834Z</time></trkpt><trkpt lat="42.1666333" lon="14.6867317"><ele>47.0</ele><time>2026-04-09T09:05:52.836Z</time></trkpt><trkpt lat="42.1666267" lon="14.686835"><ele>46.83333333333333</ele><time>2026-04-09T09:05:55.836Z</time></trkpt><trkpt lat="42.1666283" lon="14.6869317"><ele>46.666666666666664</ele><time>2026-04-09T09:05:57.836Z</time></trkpt><trkpt lat="42.1666283" lon="14.68704"><ele>46.5</ele><time>2026-04-09T09:05:59.837Z</time></trkpt><trkpt lat="42.16663" lon="14.68716"><ele>46.333333333333336</ele><time>2026-04-09T09:06:01.836Z</time></trkpt><trkpt lat="42.1666317" lon="14.6872917"><ele>46.16666666666667</ele><time>2026-04-09T09:06:03.837Z</time></trkpt><trkpt lat="42.1666317" lon="14.687425"><ele>46.0</ele><time>2026-04-09T09:06:05.837Z</time></trkpt><trkpt lat="42.1666317" lon="14.687565"><ele>46.0</ele><time>2026-04-09T09:06:07.836Z</time></trkpt><trkpt lat="42.1666383" lon="14.6877133"><ele>46.0</ele><time>2026-04-09T09:06:09.836Z</time></trkpt><trkpt lat="42.1666433" lon="14.6878617"><ele>46.0</ele><time>2026-04-09T09:06:11.837Z</time></trkpt><trkpt lat="42.1666517" lon="14.6880083"><ele>46.0</ele><time>2026-04-09T09:06:13.836Z</time></trkpt><trkpt lat="42.1666583" lon="14.68816"><ele>46.0</ele><time>2026-04-09T09:06:15.836Z</time></trkpt><trkpt lat="42.1666717" lon="14.6883117"><ele>46.0</ele><time>2026-04-09T09:06:17.836Z</time></trkpt><trkpt lat="42.166685" lon="14.6884683"><ele>46.0</ele><time>2026-04-09T09:06:19.836Z</time></trkpt><trkpt lat="42.1666967" lon="14.6886217"><ele>46.0</ele><time>2026-04-09T09:06:21.836Z</time></trkpt><trkpt lat="42.1667083" lon="14.6887767"><ele>46.0</ele><time>2026-04-09T09:06:23.837Z</time></trkpt><trkpt lat="42.1667233" lon="14.6889283"><ele>45.75</ele><time>2026-04-09T09:06:25.836Z</time></trkpt><trkpt lat="42.1667367" lon="14.6890767"><ele>45.5</ele><time>2026-04-09T09:06:27.836Z</time></trkpt><trkpt lat="42.16676" lon="14.6892333"><ele>45.25</ele><time>2026-04-09T09:06:29.836Z</time></trkpt><trkpt lat="42.1667717" lon="14.689385"><ele>45.0</ele><time>2026-04-09T09:06:31.836Z</time></trkpt><trkpt lat="42.16678" lon="14.6895367"><ele>45.0</ele><time>2026-04-09T09:06:33.836Z</time></trkpt><trkpt lat="42.1667983" lon="14.6896917"><ele>45.0</ele><time>2026-04-09T09:06:35.836Z</time></trkpt><trkpt lat="42.166815" lon="14.6898467"><ele>45.0</ele><time>2026-04-09T09:06:37.836Z</time></trkpt><trkpt lat="42.16683" lon="14.6899983"><ele>45.0</ele><time>2026-04-09T09:06:39.837Z</time></trkpt><trkpt lat="42.1668433" lon="14.6901433"><ele>44.75</ele><time>2026-04-09T09:06:41.837Z</time></trkpt><trkpt lat="42.1668583" lon="14.6902983"><ele>44.5</ele><time>2026-04-09T09:06:43.837Z</time></trkpt><trkpt lat="42.1668633" lon="14.6904517"><ele>44.25</ele><time>2026-04-09T09:06:45.836Z</time></trkpt><trkpt lat="42.1668733" lon="14.6905983"><ele>44.0</ele><time>2026-04-09T09:06:47.836Z</time></trkpt><trkpt lat="42.1668917" lon="14.6907467"><ele>44.0</ele><time>2026-04-09T09:06:49.836Z</time></trkpt><trkpt lat="42.16691" lon="14.6908933"><ele>44.0</ele><time>2026-04-09T09:06:51.836Z</time></trkpt><trkpt lat="42.1669167" lon="14.6910483"><ele>44.0</ele><time>2026-04-09T09:06:53.836Z</time></trkpt><trkpt lat="42.1669317" lon="14.69121"><ele>44.0</ele><time>2026-04-09T09:06:55.836Z</time></trkpt><trkpt lat="42.1669483" lon="14.6913733"><ele>43.6</ele><time>2026-04-09T09:06:57.836Z</time></trkpt><trkpt lat="42.16697" lon="14.69152"><ele>43.2</ele><time>2026-04-09T09:06:59.837Z</time></trkpt><trkpt lat="42.16699" lon="14.6916633"><ele>42.800000000000004</ele><time>2026-04-09T09:07:01.836Z</time></trkpt><trkpt lat="42.1670183" lon="14.6918117"><ele>42.400000000000006</ele><time>2026-04-09T09:07:03.836Z</time></trkpt><trkpt lat="42.16705" lon="14.6919567"><ele>42.0</ele><time>2026-04-09T09:07:05.836Z</time></trkpt><trkpt lat="42.1670817" lon="14.6921"><ele>42.0</ele><time>2026-04-09T09:07:07.836Z</time></trkpt><trkpt lat="42.1671183" lon="14.69224"><ele>42.0</ele><time>2026-04-09T09:07:09.836Z</time></trkpt><trkpt lat="42.1671567" lon="14.69238"><ele>42.0</ele><time>2026-04-09T09:07:11.837Z</time></trkpt><trkpt lat="42.16719" lon="14.6925133"><ele>42.0</ele><time>2026-04-09T09:07:13.836Z</time></trkpt><trkpt lat="42.1672267" lon="14.6926567"><ele>42.0</ele><time>2026-04-09T09:07:15.836Z</time></trkpt><trkpt lat="42.1672633" lon="14.6927983"><ele>42.0</ele><time>2026-04-09T09:07:17.836Z</time></trkpt><trkpt lat="42.1673017" lon="14.6929383"><ele>42.0</ele><time>2026-04-09T09:07:19.836Z</time></trkpt><trkpt lat="42.1673383" lon="14.69308"><ele>42.0</ele><time>2026-04-09T09:07:21.836Z</time></trkpt><trkpt lat="42.16738" lon="14.6932233"><ele>42.0</ele><time>2026-04-09T09:07:23.836Z</time></trkpt><trkpt lat="42.1674133" lon="14.6933683"><ele>42.0</ele><time>2026-04-09T09:07:25.836Z</time></trkpt><trkpt lat="42.1674533" lon="14.6935033"><ele>41.8</ele><time>2026-04-09T09:07:27.836Z</time></trkpt><trkpt lat="42.1674917" lon="14.693635"><ele>41.6</ele><time>2026-04-09T09:07:29.836Z</time></trkpt><trkpt lat="42.1675367" lon="14.6937633"><ele>41.4</ele><time>2026-04-09T09:07:31.836Z</time></trkpt><trkpt lat="42.167595" lon="14.6938833"><ele>41.199999999999996</ele><time>2026-04-09T09:07:33.837Z</time></trkpt><trkpt lat="42.1676667" lon="14.694"><ele>41.0</ele><time>2026-04-09T09:07:35.836Z</time></trkpt><trkpt lat="42.1677433" lon="14.6940983"><ele>41.0</ele><time>2026-04-09T09:07:37.836Z</time></trkpt><trkpt lat="42.167825" lon="14.6941917"><ele>41.0</ele><time>2026-04-09T09:07:39.836Z</time></trkpt><trkpt lat="42.1679133" lon="14.6942617"><ele>41.0</ele><time>2026-04-09T09:07:41.836Z</time></trkpt><trkpt lat="42.1679933" lon="14.6943267"><ele>41.0</ele><time>2026-04-09T09:07:43.836Z</time></trkpt><trkpt lat="42.1680667" lon="14.6943983"><ele>41.0</ele><time>2026-04-09T09:07:45.836Z</time></trkpt><trkpt lat="42.168135" lon="14.6944667"><ele>40.5</ele><time>2026-04-09T09:07:47.836Z</time></trkpt><trkpt lat="42.1681933" lon="14.6945433"><ele>40.0</ele><time>2026-04-09T09:07:49.837Z</time></trkpt><trkpt lat="42.1682633" lon="14.694605"><ele>39.5</ele><time>2026-04-09T09:07:51.836Z</time></trkpt><trkpt lat="42.1683367" lon="14.6946517"><ele>39.0</ele><time>2026-04-09T09:07:53.836Z</time></trkpt><trkpt lat="42.1684017" lon="14.69469"><ele>38.5</ele><time>2026-04-09T09:07:55.836Z</time></trkpt><trkpt lat="42.1684817" lon="14.6947667"><ele>38.0</ele><time>2026-04-09T09:07:58.836Z</time></trkpt><trkpt lat="42.1685517" lon="14.6948367"><ele>38.0</ele><time>2026-04-09T09:08:00.836Z</time></trkpt><trkpt lat="42.168635" lon="14.6949067"><ele>38.0</ele><time>2026-04-09T09:08:02.836Z</time></trkpt><trkpt lat="42.1687233" lon="14.6949667"><ele>38.0</ele><time>2026-04-09T09:08:04.836Z</time></trkpt><trkpt lat="42.1688167" lon="14.69503"><ele>38.0</ele><time>2026-04-09T09:08:06.836Z</time></trkpt><trkpt lat="42.1689133" lon="14.695095"><ele>38.0</ele><time>2026-04-09T09:08:08.836Z</time></trkpt><trkpt lat="42.1690133" lon="14.695155"><ele>37.5</ele><time>2026-04-09T09:08:10.837Z</time></trkpt><trkpt lat="42.1691167" lon="14.6952217"><ele>37.0</ele><time>2026-04-09T09:08:12.836Z</time></trkpt><trkpt lat="42.1692133" lon="14.695295"><ele>36.5</ele><time>2026-04-09T09:08:14.836Z</time></trkpt><trkpt lat="42.1692967" lon="14.6953967"><ele>36.0</ele><time>2026-04-09T09:08:16.836Z</time></trkpt><trkpt lat="42.1693633" lon="14.6955283"><ele>36.0</ele><time>2026-04-09T09:08:18.836Z</time></trkpt><trkpt lat="42.1694083" lon="14.69568"><ele>36.0</ele><time>2026-04-09T09:08:20.836Z</time></trkpt><trkpt lat="42.1694233" lon="14.6958517"><ele>36.0</ele><time>2026-04-09T09:08:22.836Z</time></trkpt><trkpt lat="42.1694083" lon="14.69601"><ele>36.0</ele><time>2026-04-09T09:08:24.836Z</time></trkpt><trkpt lat="42.1693733" lon="14.6961633"><ele>36.25</ele><time>2026-04-09T09:08:26.837Z</time></trkpt><trkpt lat="42.169335" lon="14.6963183"><ele>36.5</ele><time>2026-04-09T09:08:28.836Z</time></trkpt><trkpt lat="42.1693017" lon="14.6964717"><ele>36.75</ele><time>2026-04-09T09:08:30.836Z</time></trkpt><trkpt lat="42.1692683" lon="14.69663"><ele>37.0</ele><time>2026-04-09T09:08:32.836Z</time></trkpt><trkpt lat="42.1692283" lon="14.6967817"><ele>37.0</ele><time>2026-04-09T09:08:34.836Z</time></trkpt><trkpt lat="42.1691917" lon="14.696935"><ele>37.0</ele><time>2026-04-09T09:08:36.836Z</time></trkpt><trkpt lat="42.1691567" lon="14.697095"><ele>37.0</ele><time>2026-04-09T09:08:38.836Z</time></trkpt><trkpt lat="42.1691233" lon="14.697255"><ele>37.0</ele><time>2026-04-09T09:08:40.836Z</time></trkpt><trkpt lat="42.1691033" lon="14.6973367"><ele>37.0</ele><time>2026-04-09T09:08:41.837Z</time></trkpt><trkpt lat="42.169075" lon="14.6974933"><ele>37.0</ele><time>2026-04-09T09:08:43.836Z</time></trkpt><trkpt lat="42.1690333" lon="14.697655"><ele>37.0</ele><time>2026-04-09T09:08:45.836Z</time></trkpt><trkpt lat="42.1690117" lon="14.697735"><ele>37.0</ele><time>2026-04-09T09:08:46.836Z</time></trkpt><trkpt lat="42.1689733" lon="14.6978967"><ele>37.0</ele><time>2026-04-09T09:08:48.836Z</time></trkpt><trkpt lat="42.1689367" lon="14.6980483"><ele>37.0</ele><time>2026-04-09T09:08:50.836Z</time></trkpt><trkpt lat="42.1689033" lon="14.6982083"><ele>36.6</ele><time>2026-04-09T09:08:52.836Z</time></trkpt><trkpt lat="42.1688717" lon="14.6983683"><ele>36.2</ele><time>2026-04-09T09:08:54.836Z</time></trkpt><trkpt lat="42.1688367" lon="14.69853"><ele>35.8</ele><time>2026-04-09T09:08:56.836Z</time></trkpt><trkpt lat="42.1688183" lon="14.6986167"><ele>35.4</ele><time>2026-04-09T09:08:57.836Z</time></trkpt><trkpt lat="42.168805" lon="14.6987"><ele>35.0</ele><time>2026-04-09T09:08:58.836Z</time></trkpt><trkpt lat="42.1687733" lon="14.6988517"><ele>35.0</ele><time>2026-04-09T09:09:00.836Z</time></trkpt><trkpt lat="42.1687633" lon="14.6990133"><ele>35.0</ele><time>2026-04-09T09:09:02.836Z</time></trkpt><trkpt lat="42.168765" lon="14.6991"><ele>35.0</ele><time>2026-04-09T09:09:03.836Z</time></trkpt><trkpt lat="42.1687683" lon="14.6991883"><ele>35.0</ele><time>2026-04-09T09:09:04.836Z</time></trkpt><trkpt lat="42.1687917" lon="14.6993617"><ele>35.0</ele><time>2026-04-09T09:09:06.836Z</time></trkpt><trkpt lat="42.168805" lon="14.6994467"><ele>35.0</ele><time>2026-04-09T09:09:07.836Z</time></trkpt><trkpt lat="42.1688317" lon="14.6996117"><ele>35.0</ele><time>2026-04-09T09:09:09.836Z</time></trkpt><trkpt lat="42.168855" lon="14.6997667"><ele>35.0</ele><time>2026-04-09T09:09:11.837Z</time></trkpt><trkpt lat="42.168885" lon="14.6999267"><ele>35.0</ele><time>2026-04-09T09:09:13.836Z</time></trkpt><trkpt lat="42.1689" lon="14.7000117"><ele>35.0</ele><time>2026-04-09T09:09:14.837Z</time></trkpt><trkpt lat="42.1689167" lon="14.700095"><ele>35.0</ele><time>2026-04-09T09:09:15.837Z</time></trkpt><trkpt lat="42.1689283" lon="14.70018"><ele>35.0</ele><time>2026-04-09T09:09:16.836Z</time></trkpt><trkpt lat="42.1689417" lon="14.700265"><ele>34.6</ele><time>2026-04-09T09:09:17.836Z</time></trkpt><trkpt lat="42.16897" lon="14.700425"><ele>34.2</ele><time>2026-04-09T09:09:19.836Z</time></trkpt><trkpt lat="42.168995" lon="14.7005983"><ele>33.8</ele><time>2026-04-09T09:09:21.836Z</time></trkpt><trkpt lat="42.1690183" lon="14.700765"><ele>33.4</ele><time>2026-04-09T09:09:23.836Z</time></trkpt><trkpt lat="42.1690333" lon="14.70085"><ele>33.0</ele><time>2026-04-09T09:09:24.836Z</time></trkpt><trkpt lat="42.1690467" lon="14.7009417"><ele>33.0</ele><time>2026-04-09T09:09:25.836Z</time></trkpt><trkpt lat="42.1690617" lon="14.70103"><ele>33.0</ele><time>2026-04-09T09:09:26.836Z</time></trkpt><trkpt lat="42.1690867" lon="14.7011867"><ele>33.0</ele><time>2026-04-09T09:09:28.836Z</time></trkpt><trkpt lat="42.1691083" lon="14.70135"><ele>33.0</ele><time>2026-04-09T09:09:30.836Z</time></trkpt><trkpt lat="42.1691233" lon="14.70144"><ele>33.0</ele><time>2026-04-09T09:09:31.836Z</time></trkpt><trkpt lat="42.1691383" lon="14.7015267"><ele>33.0</ele><time>2026-04-09T09:09:32.837Z</time></trkpt><trkpt lat="42.169155" lon="14.70161"><ele>32.199999999999996</ele><time>2026-04-09T09:09:33.836Z</time></trkpt><trkpt lat="42.1691917" lon="14.7017783"><ele>31.4</ele><time>2026-04-09T09:09:35.836Z</time></trkpt><trkpt lat="42.16921" lon="14.70186"><ele>30.599999999999998</ele><time>2026-04-09T09:09:36.836Z</time></trkpt><trkpt lat="42.1692283" lon="14.7019417"><ele>29.799999999999997</ele><time>2026-04-09T09:09:37.837Z</time></trkpt><trkpt lat="42.16926" lon="14.702105"><ele>29.0</ele><time>2026-04-09T09:09:39.836Z</time></trkpt><trkpt lat="42.1693033" lon="14.702255"><ele>28.71428571428572</ele><time>2026-04-09T09:09:41.836Z</time></trkpt><trkpt lat="42.16933" lon="14.7023367"><ele>28.42857142857143</ele><time>2026-04-09T09:09:42.836Z</time></trkpt><trkpt lat="42.1693567" lon="14.702415"><ele>28.142857142857146</ele><time>2026-04-09T09:09:43.836Z</time></trkpt><trkpt lat="42.169385" lon="14.7024917"><ele>27.85714285714286</ele><time>2026-04-09T09:09:44.836Z</time></trkpt><trkpt lat="42.1694167" lon="14.70257"><ele>27.57142857142857</ele><time>2026-04-09T09:09:45.836Z</time></trkpt><trkpt lat="42.1694517" lon="14.70265"><ele>27.285714285714285</ele><time>2026-04-09T09:09:46.836Z</time></trkpt><trkpt lat="42.1694883" lon="14.7027267"><ele>27.0</ele><time>2026-04-09T09:09:47.836Z</time></trkpt><trkpt lat="42.1695233" lon="14.7028067"><ele>26.428571428571427</ele><time>2026-04-09T09:09:48.836Z</time></trkpt><trkpt lat="42.1695567" lon="14.7028833"><ele>25.857142857142854</ele><time>2026-04-09T09:09:49.836Z</time></trkpt><trkpt lat="42.169595" lon="14.7029583"><ele>25.285714285714285</ele><time>2026-04-09T09:09:50.837Z</time></trkpt><trkpt lat="42.1696333" lon="14.7030383"><ele>24.714285714285715</ele><time>2026-04-09T09:09:51.836Z</time></trkpt><trkpt lat="42.1696733" lon="14.7031183"><ele>24.142857142857142</ele><time>2026-04-09T09:09:52.836Z</time></trkpt><trkpt lat="42.1697183" lon="14.703195"><ele>23.571428571428573</ele><time>2026-04-09T09:09:53.837Z</time></trkpt><trkpt lat="42.1697617" lon="14.7032733"><ele>23.0</ele><time>2026-04-09T09:09:54.836Z</time></trkpt><trkpt lat="42.1698033" lon="14.7033433"><ele>23.0</ele><time>2026-04-09T09:09:55.836Z</time></trkpt><trkpt lat="42.1698433" lon="14.7034167"><ele>23.0</ele><time>2026-04-09T09:09:56.836Z</time></trkpt><trkpt lat="42.1698833" lon="14.703495"><ele>23.0</ele><time>2026-04-09T09:09:57.836Z</time></trkpt><trkpt lat="42.1699217" lon="14.7035717"><ele>23.0</ele><time>2026-04-09T09:09:58.837Z</time></trkpt><trkpt lat="42.16996" lon="14.7036467"><ele>23.0</ele><time>2026-04-09T09:09:59.836Z</time></trkpt><trkpt lat="42.1700017" lon="14.7037217"><ele>23.0</ele><time>2026-04-09T09:10:00.836Z</time></trkpt><trkpt lat="42.1700383" lon="14.7037917"><ele>23.0</ele><time>2026-04-09T09:10:01.836Z</time></trkpt><trkpt lat="42.1700767" lon="14.7038633"><ele>22.571428571428573</ele><time>2026-04-09T09:10:02.836Z</time></trkpt><trkpt lat="42.170115" lon="14.703935"><ele>22.142857142857142</ele><time>2026-04-09T09:10:03.836Z</time></trkpt><trkpt lat="42.1701467" lon="14.7040117"><ele>21.714285714285715</ele><time>2026-04-09T09:10:04.836Z</time></trkpt><trkpt lat="42.17018" lon="14.7040933"><ele>21.285714285714285</ele><time>2026-04-09T09:10:05.836Z</time></trkpt><trkpt lat="42.1702067" lon="14.704175"><ele>20.857142857142858</ele><time>2026-04-09T09:10:06.836Z</time></trkpt><trkpt lat="42.1702383" lon="14.7042517"><ele>20.428571428571427</ele><time>2026-04-09T09:10:07.836Z</time></trkpt><trkpt lat="42.170265" lon="14.70433"><ele>20.0</ele><time>2026-04-09T09:10:08.836Z</time></trkpt><trkpt lat="42.170315" lon="14.7044867"><ele>19.5</ele><time>2026-04-09T09:10:10.836Z</time></trkpt><trkpt lat="42.17034" lon="14.704565"><ele>19.0</ele><time>2026-04-09T09:10:11.836Z</time></trkpt><trkpt lat="42.1703633" lon="14.7046517"><ele>18.5</ele><time>2026-04-09T09:10:12.837Z</time></trkpt><trkpt lat="42.1703833" lon="14.70474"><ele>18.0</ele><time>2026-04-09T09:10:13.836Z</time></trkpt><trkpt lat="42.1703983" lon="14.7048283"><ele>17.5</ele><time>2026-04-09T09:10:14.836Z</time></trkpt><trkpt lat="42.170425" lon="14.7049867"><ele>17.0</ele><time>2026-04-09T09:10:16.836Z</time></trkpt><trkpt lat="42.1704483" lon="14.7051417"><ele>17.0</ele><time>2026-04-09T09:10:18.836Z</time></trkpt><trkpt lat="42.1704583" lon="14.7052267"><ele>17.0</ele><time>2026-04-09T09:10:19.836Z</time></trkpt><trkpt lat="42.1704667" lon="14.7053117"><ele>17.0</ele><time>2026-04-09T09:10:20.836Z</time></trkpt><trkpt lat="42.1704817" lon="14.7054733"><ele>17.0</ele><time>2026-04-09T09:10:22.836Z</time></trkpt><trkpt lat="42.17049" lon="14.7055633"><ele>17.0</ele><time>2026-04-09T09:10:23.836Z</time></trkpt><trkpt lat="42.1704983" lon="14.7056533"><ele>17.0</ele><time>2026-04-09T09:10:24.836Z</time></trkpt><trkpt lat="42.17051" lon="14.7057433"><ele>17.333333333333336</ele><time>2026-04-09T09:10:25.836Z</time></trkpt><trkpt lat="42.1705283" lon="14.7059167"><ele>17.666666666666668</ele><time>2026-04-09T09:10:27.836Z</time></trkpt><trkpt lat="42.17054" lon="14.7060033"><ele>18.0</ele><time>2026-04-09T09:10:28.836Z</time></trkpt><trkpt lat="42.1705483" lon="14.7060933"><ele>18.333333333333332</ele><time>2026-04-09T09:10:29.837Z</time></trkpt><trkpt lat="42.17056" lon="14.7061833"><ele>18.666666666666664</ele><time>2026-04-09T09:10:30.836Z</time></trkpt><trkpt lat="42.17057" lon="14.7062683"><ele>19.0</ele><time>2026-04-09T09:10:31.836Z</time></trkpt><trkpt lat="42.1705783" lon="14.7063633"><ele>19.0</ele><time>2026-04-09T09:10:32.836Z</time></trkpt><trkpt lat="42.17059" lon="14.7064583"><ele>19.0</ele><time>2026-04-09T09:10:33.836Z</time></trkpt><trkpt lat="42.1706" lon="14.7065533"><ele>19.0</ele><time>2026-04-09T09:10:34.837Z</time></trkpt><trkpt lat="42.1706117" lon="14.7066467"><ele>19.0</ele><time>2026-04-09T09:10:35.836Z</time></trkpt><trkpt lat="42.17062" lon="14.70674"><ele>19.0</ele><time>2026-04-09T09:10:36.836Z</time></trkpt><trkpt lat="42.1706283" lon="14.70684"><ele>19.0</ele><time>2026-04-09T09:10:37.837Z</time></trkpt><trkpt lat="42.1706433" lon="14.706935"><ele>19.0</ele><time>2026-04-09T09:10:38.836Z</time></trkpt><trkpt lat="42.1706567" lon="14.7070283"><ele>19.0</ele><time>2026-04-09T09:10:39.836Z</time></trkpt><trkpt lat="42.1706667" lon="14.7071217"><ele>19.0</ele><time>2026-04-09T09:10:40.836Z</time></trkpt><trkpt lat="42.170675" lon="14.70721"><ele>19.0</ele><time>2026-04-09T09:10:41.836Z</time></trkpt><trkpt lat="42.170685" lon="14.7073017"><ele>19.0</ele><time>2026-04-09T09:10:42.837Z</time></trkpt><trkpt lat="42.1706967" lon="14.70739"><ele>19.0</ele><time>2026-04-09T09:10:43.836Z</time></trkpt><trkpt lat="42.1707083" lon="14.7074817"><ele>19.0</ele><time>2026-04-09T09:10:44.836Z</time></trkpt><trkpt lat="42.1707167" lon="14.7075733"><ele>19.0</ele><time>2026-04-09T09:10:45.836Z</time></trkpt><trkpt lat="42.1707267" lon="14.7076667"><ele>18.857142857142858</ele><time>2026-04-09T09:10:46.837Z</time></trkpt><trkpt lat="42.1707383" lon="14.7077583"><ele>18.714285714285715</ele><time>2026-04-09T09:10:47.836Z</time></trkpt><trkpt lat="42.170745" lon="14.7078467"><ele>18.571428571428573</ele><time>2026-04-09T09:10:48.836Z</time></trkpt><trkpt lat="42.1707533" lon="14.7079317"><ele>18.42857142857143</ele><time>2026-04-09T09:10:49.836Z</time></trkpt><trkpt lat="42.1707617" lon="14.7080183"><ele>18.285714285714285</ele><time>2026-04-09T09:10:50.836Z</time></trkpt><trkpt lat="42.1707667" lon="14.7081083"><ele>18.142857142857146</ele><time>2026-04-09T09:10:51.836Z</time></trkpt><trkpt lat="42.1707667" lon="14.7082"><ele>18.0</ele><time>2026-04-09T09:10:52.836Z</time></trkpt><trkpt lat="42.1707683" lon="14.70829"><ele>18.0</ele><time>2026-04-09T09:10:53.836Z</time></trkpt><trkpt lat="42.170775" lon="14.7083783"><ele>18.0</ele><time>2026-04-09T09:10:54.837Z</time></trkpt><trkpt lat="42.1707767" lon="14.7085433"><ele>18.0</ele><time>2026-04-09T09:10:56.836Z</time></trkpt><trkpt lat="42.1707833" lon="14.7086983"><ele>18.0</ele><time>2026-04-09T09:10:58.836Z</time></trkpt><trkpt lat="42.17078" lon="14.7088583"><ele>18.0</ele><time>2026-04-09T09:11:00.836Z</time></trkpt><trkpt lat="42.170775" lon="14.7090083"><ele>17.6</ele><time>2026-04-09T09:11:02.836Z</time></trkpt><trkpt lat="42.170775" lon="14.7091583"><ele>17.200000000000003</ele><time>2026-04-09T09:11:04.836Z</time></trkpt><trkpt lat="42.1707783" lon="14.7092983"><ele>16.8</ele><time>2026-04-09T09:11:06.836Z</time></trkpt><trkpt lat="42.170775" lon="14.7094467"><ele>16.400000000000002</ele><time>2026-04-09T09:11:08.836Z</time></trkpt><trkpt lat="42.170775" lon="14.7095933"><ele>16.0</ele><time>2026-04-09T09:11:10.836Z</time></trkpt><trkpt lat="42.170775" lon="14.7097367"><ele>15.600000000000001</ele><time>2026-04-09T09:11:12.836Z</time></trkpt><trkpt lat="42.1707733" lon="14.7098767"><ele>15.200000000000001</ele><time>2026-04-09T09:11:14.836Z</time></trkpt><trkpt lat="42.17077" lon="14.7100183"><ele>14.799999999999999</ele><time>2026-04-09T09:11:16.836Z</time></trkpt><trkpt lat="42.170775" lon="14.7101617"><ele>14.399999999999999</ele><time>2026-04-09T09:11:18.837Z</time></trkpt><trkpt lat="42.17077" lon="14.7102983"><ele>14.0</ele><time>2026-04-09T09:11:20.836Z</time></trkpt><trkpt lat="42.17076" lon="14.7104383"><ele>14.0</ele><time>2026-04-09T09:11:22.837Z</time></trkpt><trkpt lat="42.1707467" lon="14.7105867"><ele>13.999999999999998</ele><time>2026-04-09T09:11:24.836Z</time></trkpt><trkpt lat="42.1706983" lon="14.71071"><ele>13.999999999999998</ele><time>2026-04-09T09:11:26.836Z</time></trkpt><trkpt lat="42.1706017" lon="14.7108033"><ele>14.0</ele><time>2026-04-09T09:11:28.837Z</time></trkpt><trkpt lat="42.170545" lon="14.7108533"><ele>14.0</ele><time>2026-04-09T09:11:29.837Z</time></trkpt><trkpt lat="42.170495" lon="14.7109117"><ele>14.2</ele><time>2026-04-09T09:11:30.837Z</time></trkpt><trkpt lat="42.1704083" lon="14.711025"><ele>14.399999999999999</ele><time>2026-04-09T09:11:32.836Z</time></trkpt><trkpt lat="42.1703033" lon="14.71111"><ele>14.6</ele><time>2026-04-09T09:11:34.836Z</time></trkpt><trkpt lat="42.1701767" lon="14.71115"><ele>14.8</ele><time>2026-04-09T09:11:36.836Z</time></trkpt><trkpt lat="42.1701083" lon="14.71117"><ele>15.0</ele><time>2026-04-09T09:11:37.836Z</time></trkpt><trkpt lat="42.1700367" lon="14.711195"><ele>15.0</ele><time>2026-04-09T09:11:38.836Z</time></trkpt><trkpt lat="42.169975" lon="14.711235"><ele>15.0</ele><time>2026-04-09T09:11:39.836Z</time></trkpt><trkpt lat="42.1699117" lon="14.7112867"><ele>15.0</ele><time>2026-04-09T09:11:40.836Z</time></trkpt><trkpt lat="42.1698567" lon="14.711345"><ele>15.0</ele><time>2026-04-09T09:11:41.836Z</time></trkpt><trkpt lat="42.169805" lon="14.711405"><ele>15.0</ele><time>2026-04-09T09:11:42.837Z</time></trkpt><trkpt lat="42.1697517" lon="14.711465"><ele>15.0</ele><time>2026-04-09T09:11:43.837Z</time></trkpt><trkpt lat="42.1697017" lon="14.71153"><ele>15.0</ele><time>2026-04-09T09:11:44.836Z</time></trkpt><trkpt lat="42.1696517" lon="14.7115917"><ele>14.666666666666666</ele><time>2026-04-09T09:11:45.836Z</time></trkpt><trkpt lat="42.1695917" lon="14.71166"><ele>14.333333333333332</ele><time>2026-04-09T09:11:46.836Z</time></trkpt><trkpt lat="42.169535" lon="14.7117333"><ele>14.0</ele><time>2026-04-09T09:11:47.837Z</time></trkpt><trkpt lat="42.169485" lon="14.7118067"><ele>13.666666666666666</ele><time>2026-04-09T09:11:48.836Z</time></trkpt><trkpt lat="42.1694317" lon="14.7118783"><ele>13.333333333333332</ele><time>2026-04-09T09:11:49.836Z</time></trkpt><trkpt lat="42.169375" lon="14.7119433"><ele>13.0</ele><time>2026-04-09T09:11:50.836Z</time></trkpt><trkpt lat="42.1693183" lon="14.71201"><ele>12.999999999999998</ele><time>2026-04-09T09:11:51.836Z</time></trkpt><trkpt lat="42.1692633" lon="14.7120767"><ele>13.0</ele><time>2026-04-09T09:11:52.836Z</time></trkpt><trkpt lat="42.1692117" lon="14.7121433"><ele>13.0</ele><time>2026-04-09T09:11:53.836Z</time></trkpt><trkpt lat="42.1691517" lon="14.7122133"><ele>13.0</ele><time>2026-04-09T09:11:54.836Z</time></trkpt><trkpt lat="42.1690933" lon="14.7122817"><ele>12.999999999999998</ele><time>2026-04-09T09:11:55.836Z</time></trkpt><trkpt lat="42.1690367" lon="14.7123533"><ele>13.0</ele><time>2026-04-09T09:11:56.836Z</time></trkpt><trkpt lat="42.16898" lon="14.7124233"><ele>12.428571428571429</ele><time>2026-04-09T09:11:57.836Z</time></trkpt><trkpt lat="42.1689233" lon="14.71249"><ele>11.857142857142858</ele><time>2026-04-09T09:11:58.837Z</time></trkpt><trkpt lat="42.1688683" lon="14.7125583"><ele>11.285714285714286</ele><time>2026-04-09T09:11:59.836Z</time></trkpt><trkpt lat="42.1688133" lon="14.7126283"><ele>10.714285714285715</ele><time>2026-04-09T09:12:00.836Z</time></trkpt><trkpt lat="42.16876" lon="14.7126983"><ele>10.142857142857142</ele><time>2026-04-09T09:12:01.836Z</time></trkpt><trkpt lat="42.1687067" lon="14.7127633"><ele>9.571428571428573</ele><time>2026-04-09T09:12:02.836Z</time></trkpt><trkpt lat="42.1686517" lon="14.7128317"><ele>9.0</ele><time>2026-04-09T09:12:03.836Z</time></trkpt><trkpt lat="42.1686017" lon="14.7128967"><ele>9.000000000000002</ele><time>2026-04-09T09:12:04.836Z</time></trkpt><trkpt lat="42.168545" lon="14.712965"><ele>9.0</ele><time>2026-04-09T09:12:05.836Z</time></trkpt><trkpt lat="42.1684933" lon="14.7130333"><ele>9.0</ele><time>2026-04-09T09:12:06.836Z</time></trkpt><trkpt lat="42.16844" lon="14.7131067"><ele>9.0</ele><time>2026-04-09T09:12:07.836Z</time></trkpt><trkpt lat="42.16839" lon="14.713175"><ele>9.0</ele><time>2026-04-09T09:12:08.836Z</time></trkpt><trkpt lat="42.1683367" lon="14.713245"><ele>9.000000000000002</ele><time>2026-04-09T09:12:09.837Z</time></trkpt><trkpt lat="42.16829" lon="14.7133217"><ele>9.0</ele><time>2026-04-09T09:12:10.836Z</time></trkpt><trkpt lat="42.16824" lon="14.7133967"><ele>8.5</ele><time>2026-04-09T09:12:11.837Z</time></trkpt><trkpt lat="42.16819" lon="14.7134667"><ele>8.0</ele><time>2026-04-09T09:12:12.836Z</time></trkpt><trkpt lat="42.1681383" lon="14.7135367"><ele>7.5</ele><time>2026-04-09T09:12:13.837Z</time></trkpt><trkpt lat="42.16809" lon="14.71361"><ele>7.0</ele><time>2026-04-09T09:12:14.836Z</time></trkpt><trkpt lat="42.1680417" lon="14.713685"><ele>6.5</ele><time>2026-04-09T09:12:15.837Z</time></trkpt><trkpt lat="42.167985" lon="14.7137633"><ele>6.0</ele><time>2026-04-09T09:12:16.837Z</time></trkpt><trkpt lat="42.1679283" lon="14.71384"><ele>6.0</ele><time>2026-04-09T09:12:17.836Z</time></trkpt><trkpt lat="42.1678717" lon="14.7139083"><ele>6.0</ele><time>2026-04-09T09:12:18.836Z</time></trkpt><trkpt lat="42.1678167" lon="14.7139683"><ele>6.0</ele><time>2026-04-09T09:12:19.837Z</time></trkpt><trkpt lat="42.1677583" lon="14.7140267"><ele>6.0</ele><time>2026-04-09T09:12:20.836Z</time></trkpt><trkpt lat="42.1677067" lon="14.7140817"><ele>6.0</ele><time>2026-04-09T09:12:21.836Z</time></trkpt><trkpt lat="42.167655" lon="14.7141333"><ele>6.0</ele><time>2026-04-09T09:12:22.836Z</time></trkpt><trkpt lat="42.1675667" lon="14.7142383"><ele>6.0</ele><time>2026-04-09T09:12:24.836Z</time></trkpt><trkpt lat="42.1674767" lon="14.714325"><ele>6.0</ele><time>2026-04-09T09:12:26.836Z</time></trkpt><trkpt lat="42.1673883" lon="14.7144067"><ele>6.0</ele><time>2026-04-09T09:12:28.836Z</time></trkpt><trkpt lat="42.1673033" lon="14.7144967"><ele>6.0</ele><time>2026-04-09T09:12:30.836Z</time></trkpt><trkpt lat="42.1672117" lon="14.7145733"><ele>6.0</ele><time>2026-04-09T09:12:32.836Z</time></trkpt><trkpt lat="42.167115" lon="14.714645"><ele>6.0</ele><time>2026-04-09T09:12:34.836Z</time></trkpt><trkpt lat="42.1670183" lon="14.714725"><ele>6.0</ele><time>2026-04-09T09:12:36.836Z</time></trkpt><trkpt lat="42.1669233" lon="14.714805"><ele>6.0</ele><time>2026-04-09T09:12:38.836Z</time></trkpt><trkpt lat="42.166825" lon="14.7148817"><ele>6.0</ele><time>2026-04-09T09:12:40.836Z</time></trkpt><trkpt lat="42.1667217" lon="14.71495"><ele>6.0</ele><time>2026-04-09T09:12:42.836Z</time></trkpt><trkpt lat="42.1666133" lon="14.7150067"><ele>6.0</ele><time>2026-04-09T09:12:44.836Z</time></trkpt><trkpt lat="42.166505" lon="14.7150567"><ele>6.0</ele><time>2026-04-09T09:12:46.837Z</time></trkpt><trkpt lat="42.1663983" lon="14.7151"><ele>6.0</ele><time>2026-04-09T09:12:48.836Z</time></trkpt><trkpt lat="42.1663067" lon="14.7151417"><ele>6.0</ele><time>2026-04-09T09:12:50.837Z</time></trkpt><trkpt lat="42.1662233" lon="14.715165"><ele>6.0</ele><time>2026-04-09T09:12:52.837Z</time></trkpt><trkpt lat="42.1661433" lon="14.71519"><ele>6.0</ele><time>2026-04-09T09:12:54.836Z</time></trkpt><trkpt lat="42.166075" lon="14.7152067"><ele>6.0</ele><time>2026-04-09T09:12:56.836Z</time></trkpt><trkpt lat="42.16601" lon="14.71523"><ele>6.0</ele><time>2026-04-09T09:12:58.836Z</time></trkpt><trkpt lat="42.1659417" lon="14.7152533"><ele>6.0</ele><time>2026-04-09T09:13:00.836Z</time></trkpt><trkpt lat="42.16586" lon="14.7152883"><ele>6.0</ele><time>2026-04-09T09:13:03.836Z</time></trkpt><trkpt lat="42.165785" lon="14.7153083"><ele>5.999999999999999</ele><time>2026-04-09T09:13:06.836Z</time></trkpt><trkpt lat="42.1657233" lon="14.715335"><ele>6.0</ele><time>2026-04-09T09:13:08.837Z</time></trkpt><trkpt lat="42.1656567" lon="14.715355"><ele>6.0</ele><time>2026-04-09T09:13:10.836Z</time></trkpt><trkpt lat="42.1655933" lon="14.71537"><ele>6.0</ele><time>2026-04-09T09:13:12.836Z</time></trkpt><trkpt lat="42.1655317" lon="14.7153933"><ele>6.0</ele><time>2026-04-09T09:13:14.836Z</time></trkpt><trkpt lat="42.1654483" lon="14.71542"><ele>5.999999999999999</ele><time>2026-04-09T09:13:17.836Z</time></trkpt><trkpt lat="42.1653567" lon="14.715445"><ele>6.0</ele><time>2026-04-09T09:13:20.836Z</time></trkpt><trkpt lat="42.1652917" lon="14.7154683"><ele>7.142857142857142</ele><time>2026-04-09T09:13:22.836Z</time></trkpt><trkpt lat="42.1652283" lon="14.7154833"><ele>8.285714285714285</ele><time>2026-04-09T09:13:24.836Z</time></trkpt><trkpt lat="42.165165" lon="14.7154983"><ele>9.428571428571429</ele><time>2026-04-09T09:13:26.836Z</time></trkpt><trkpt lat="42.1651033" lon="14.7155183"><ele>10.571428571428571</ele><time>2026-04-09T09:13:28.836Z</time></trkpt><trkpt lat="42.1650383" lon="14.7155417"><ele>11.714285714285714</ele><time>2026-04-09T09:13:30.836Z</time></trkpt><trkpt lat="42.1649767" lon="14.715565"><ele>12.857142857142858</ele><time>2026-04-09T09:13:32.836Z</time></trkpt><trkpt lat="42.164915" lon="14.7155867"><ele>14.0</ele><time>2026-04-09T09:13:34.836Z</time></trkpt><trkpt lat="42.1648283" lon="14.7156183"><ele>15.500000000000002</ele><time>2026-04-09T09:13:37.837Z</time></trkpt><trkpt lat="42.1647633" lon="14.7156317"><ele>17.0</ele><time>2026-04-09T09:13:39.836Z</time></trkpt><trkpt lat="42.164695" lon="14.7156483"><ele>18.5</ele><time>2026-04-09T09:13:41.836Z</time></trkpt><trkpt lat="42.1646283" lon="14.715675"><ele>20.0</ele><time>2026-04-09T09:13:43.836Z</time></trkpt><trkpt lat="42.16454" lon="14.7157033"><ele>21.5</ele><time>2026-04-09T09:13:46.836Z</time></trkpt><trkpt lat="42.16445" lon="14.715735"><ele>23.0</ele><time>2026-04-09T09:13:49.836Z</time></trkpt><trkpt lat="42.1643883" lon="14.71576"><ele>23.0</ele><time>2026-04-09T09:13:51.836Z</time></trkpt><trkpt lat="42.1643067" lon="14.7157833"><ele>23.0</ele><time>2026-04-09T09:13:54.836Z</time></trkpt><trkpt lat="42.16422" lon="14.7158033"><ele>23.0</ele><time>2026-04-09T09:13:57.837Z</time></trkpt><trkpt lat="42.16416" lon="14.71583"><ele>23.0</ele><time>2026-04-09T09:13:59.837Z</time></trkpt><trkpt lat="42.1640933" lon="14.715855"><ele>23.0</ele><time>2026-04-09T09:14:01.836Z</time></trkpt><trkpt lat="42.1640267" lon="14.7158783"><ele>23.0</ele><time>2026-04-09T09:14:03.836Z</time></trkpt><trkpt lat="42.1639383" lon="14.7159083"><ele>23.42857142857143</ele><time>2026-04-09T09:14:06.837Z</time></trkpt><trkpt lat="42.16385" lon="14.7159317"><ele>23.857142857142854</ele><time>2026-04-09T09:14:09.836Z</time></trkpt><trkpt lat="42.163785" lon="14.7159483"><ele>24.285714285714285</ele><time>2026-04-09T09:14:11.836Z</time></trkpt><trkpt lat="42.1637133" lon="14.7159717"><ele>24.714285714285715</ele><time>2026-04-09T09:14:13.836Z</time></trkpt><trkpt lat="42.163645" lon="14.7159917"><ele>25.142857142857146</ele><time>2026-04-09T09:14:15.836Z</time></trkpt><trkpt lat="42.1635783" lon="14.71601"><ele>25.57142857142857</ele><time>2026-04-09T09:14:17.836Z</time></trkpt><trkpt lat="42.1635083" lon="14.716025"><ele>26.0</ele><time>2026-04-09T09:14:19.837Z</time></trkpt><trkpt lat="42.16343" lon="14.716035"><ele>25.999999999999996</ele><time>2026-04-09T09:14:21.836Z</time></trkpt><trkpt lat="42.16335" lon="14.7160533"><ele>26.0</ele><time>2026-04-09T09:14:23.836Z</time></trkpt><trkpt lat="42.16328" lon="14.71606"><ele>26.0</ele><time>2026-04-09T09:14:25.836Z</time></trkpt><trkpt lat="42.1632" lon="14.7160717"><ele>26.0</ele><time>2026-04-09T09:14:27.836Z</time></trkpt><trkpt lat="42.1631167" lon="14.7160767"><ele>25.999999999999996</ele><time>2026-04-09T09:14:29.837Z</time></trkpt><trkpt lat="42.16303" lon="14.7160883"><ele>26.0</ele><time>2026-04-09T09:14:31.836Z</time></trkpt><trkpt lat="42.1629367" lon="14.7160983"><ele>25.6</ele><time>2026-04-09T09:14:33.836Z</time></trkpt><trkpt lat="42.162845" lon="14.7161067"><ele>25.200000000000003</ele><time>2026-04-09T09:14:35.836Z</time></trkpt><trkpt lat="42.1627583" lon="14.716115"><ele>24.799999999999997</ele><time>2026-04-09T09:14:37.836Z</time></trkpt><trkpt lat="42.16267" lon="14.7161217"><ele>24.4</ele><time>2026-04-09T09:14:39.836Z</time></trkpt><trkpt lat="42.1625817" lon="14.7161333"><ele>24.0</ele><time>2026-04-09T09:14:41.836Z</time></trkpt><trkpt lat="42.1624833" lon="14.71614"><ele>24.0</ele><time>2026-04-09T09:14:43.837Z</time></trkpt><trkpt lat="42.1623867" lon="14.7161467"><ele>24.0</ele><time>2026-04-09T09:14:45.836Z</time></trkpt><trkpt lat="42.16229" lon="14.7161483"><ele>24.0</ele><time>2026-04-09T09:14:47.836Z</time></trkpt><trkpt lat="42.1621883" lon="14.71616"><ele>24.0</ele><time>2026-04-09T09:14:49.836Z</time></trkpt><trkpt lat="42.1620967" lon="14.716165"><ele>24.0</ele><time>2026-04-09T09:14:51.836Z</time></trkpt><trkpt lat="42.1620067" lon="14.7161817"><ele>24.0</ele><time>2026-04-09T09:14:53.836Z</time></trkpt><trkpt lat="42.1619083" lon="14.7161867"><ele>24.0</ele><time>2026-04-09T09:14:55.836Z</time></trkpt><trkpt lat="42.1618167" lon="14.7161983"><ele>24.0</ele><time>2026-04-09T09:14:57.836Z</time></trkpt><trkpt lat="42.1617083" lon="14.7162117"><ele>24.0</ele><time>2026-04-09T09:14:59.837Z</time></trkpt><trkpt lat="42.1615983" lon="14.7162233"><ele>24.0</ele><time>2026-04-09T09:15:01.836Z</time></trkpt><trkpt lat="42.161495" lon="14.716235"><ele>24.0</ele><time>2026-04-09T09:15:03.836Z</time></trkpt><trkpt lat="42.1613933" lon="14.7162467"><ele>24.0</ele><time>2026-04-09T09:15:05.837Z</time></trkpt><trkpt lat="42.16129" lon="14.7162567"><ele>24.0</ele><time>2026-04-09T09:15:07.836Z</time></trkpt><trkpt lat="42.1611833" lon="14.716265"><ele>24.0</ele><time>2026-04-09T09:15:09.836Z</time></trkpt><trkpt lat="42.16108" lon="14.7162717"><ele>24.0</ele><time>2026-04-09T09:15:11.836Z</time></trkpt><trkpt lat="42.1609733" lon="14.716275"><ele>24.0</ele><time>2026-04-09T09:15:13.837Z</time></trkpt><trkpt lat="42.1608617" lon="14.716285"><ele>24.0</ele><time>2026-04-09T09:15:15.836Z</time></trkpt><trkpt lat="42.16075" lon="14.7163017"><ele>24.0</ele><time>2026-04-09T09:15:17.836Z</time></trkpt><trkpt lat="42.1606417" lon="14.7163133"><ele>24.0</ele><time>2026-04-09T09:15:19.836Z</time></trkpt><trkpt lat="42.1605283" lon="14.7163217"><ele>24.0</ele><time>2026-04-09T09:15:21.836Z</time></trkpt><trkpt lat="42.1604183" lon="14.7163267"><ele>24.0</ele><time>2026-04-09T09:15:23.836Z</time></trkpt><trkpt lat="42.1603083" lon="14.7163367"><ele>24.0</ele><time>2026-04-09T09:15:25.836Z</time></trkpt><trkpt lat="42.1601967" lon="14.7163467"><ele>24.0</ele><time>2026-04-09T09:15:27.836Z</time></trkpt><trkpt lat="42.1600867" lon="14.7163633"><ele>24.0</ele><time>2026-04-09T09:15:29.836Z</time></trkpt><trkpt lat="42.1599717" lon="14.716375"><ele>24.0</ele><time>2026-04-09T09:15:31.836Z</time></trkpt><trkpt lat="42.1598617" lon="14.7163883"><ele>25.2</ele><time>2026-04-09T09:15:33.836Z</time></trkpt><trkpt lat="42.1597483" lon="14.7164017"><ele>26.4</ele><time>2026-04-09T09:15:35.837Z</time></trkpt><trkpt lat="42.1596367" lon="14.71641"><ele>27.6</ele><time>2026-04-09T09:15:37.836Z</time></trkpt><trkpt lat="42.1595283" lon="14.7164217"><ele>28.8</ele><time>2026-04-09T09:15:39.836Z</time></trkpt><trkpt lat="42.159415" lon="14.7164267"><ele>30.0</ele><time>2026-04-09T09:15:41.836Z</time></trkpt><trkpt lat="42.1593133" lon="14.7164383"><ele>30.0</ele><time>2026-04-09T09:15:43.836Z</time></trkpt><trkpt lat="42.1591983" lon="14.7164533"><ele>30.0</ele><time>2026-04-09T09:15:45.837Z</time></trkpt><trkpt lat="42.1590867" lon="14.7164633"><ele>30.0</ele><time>2026-04-09T09:15:47.836Z</time></trkpt><trkpt lat="42.1589717" lon="14.7164767"><ele>30.0</ele><time>2026-04-09T09:15:49.837Z</time></trkpt><trkpt lat="42.1588517" lon="14.7164867"><ele>30.0</ele><time>2026-04-09T09:15:51.836Z</time></trkpt><trkpt lat="42.15873" lon="14.7165017"><ele>30.0</ele><time>2026-04-09T09:15:53.836Z</time></trkpt><trkpt lat="42.1586183" lon="14.716515"><ele>30.0</ele><time>2026-04-09T09:15:55.837Z</time></trkpt><trkpt lat="42.15851" lon="14.7165267"><ele>30.0</ele><time>2026-04-09T09:15:57.836Z</time></trkpt><trkpt lat="42.158395" lon="14.7165333"><ele>30.0</ele><time>2026-04-09T09:15:59.836Z</time></trkpt><trkpt lat="42.158285" lon="14.7165383"><ele>30.0</ele><time>2026-04-09T09:16:01.837Z</time></trkpt><trkpt lat="42.1581733" lon="14.7165533"><ele>30.0</ele><time>2026-04-09T09:16:03.836Z</time></trkpt><trkpt lat="42.1580683" lon="14.7165683"><ele>30.0</ele><time>2026-04-09T09:16:05.836Z</time></trkpt><trkpt lat="42.158005" lon="14.7165717"><ele>30.0</ele><time>2026-04-09T09:16:06.836Z</time></trkpt><trkpt lat="42.15789" lon="14.716585"><ele>30.0</ele><time>2026-04-09T09:16:08.836Z</time></trkpt><trkpt lat="42.1577767" lon="14.7165967"><ele>30.0</ele><time>2026-04-09T09:16:10.836Z</time></trkpt><trkpt lat="42.157665" lon="14.7166083"><ele>30.0</ele><time>2026-04-09T09:16:12.836Z</time></trkpt><trkpt lat="42.15756" lon="14.71662"><ele>30.0</ele><time>2026-04-09T09:16:14.837Z</time></trkpt><trkpt lat="42.1574483" lon="14.7166317"><ele>30.0</ele><time>2026-04-09T09:16:16.836Z</time></trkpt><trkpt lat="42.1573383" lon="14.7166433"><ele>29.75</ele><time>2026-04-09T09:16:18.836Z</time></trkpt><trkpt lat="42.1572267" lon="14.7166483"><ele>29.5</ele><time>2026-04-09T09:16:20.836Z</time></trkpt><trkpt lat="42.1571117" lon="14.7166583"><ele>29.25</ele><time>2026-04-09T09:16:22.836Z</time></trkpt><trkpt lat="42.1569983" lon="14.7166667"><ele>29.0</ele><time>2026-04-09T09:16:24.837Z</time></trkpt><trkpt lat="42.1568717" lon="14.7166667"><ele>29.0</ele><time>2026-04-09T09:16:26.837Z</time></trkpt><trkpt lat="42.1567567" lon="14.7166583"><ele>29.0</ele><time>2026-04-09T09:16:28.836Z</time></trkpt><trkpt lat="42.1566467" lon="14.7166383"><ele>29.0</ele><time>2026-04-09T09:16:30.836Z</time></trkpt><trkpt lat="42.1565367" lon="14.7166083"><ele>29.0</ele><time>2026-04-09T09:16:32.836Z</time></trkpt><trkpt lat="42.1564267" lon="14.7165767"><ele>28.799999999999997</ele><time>2026-04-09T09:16:34.836Z</time></trkpt><trkpt lat="42.1563183" lon="14.7165317"><ele>28.599999999999998</ele><time>2026-04-09T09:16:36.836Z</time></trkpt><trkpt lat="42.1562117" lon="14.71648"><ele>28.4</ele><time>2026-04-09T09:16:38.837Z</time></trkpt><trkpt lat="42.156105" lon="14.7164267"><ele>28.2</ele><time>2026-04-09T09:16:40.836Z</time></trkpt><trkpt lat="42.1560033" lon="14.716385"><ele>28.0</ele><time>2026-04-09T09:16:42.837Z</time></trkpt><trkpt lat="42.1559" lon="14.716335"><ele>28.0</ele><time>2026-04-09T09:16:44.836Z</time></trkpt><trkpt lat="42.1558017" lon="14.7162817"><ele>27.999999999999996</ele><time>2026-04-09T09:16:46.836Z</time></trkpt><trkpt lat="42.1557" lon="14.7162333"><ele>27.999999999999996</ele><time>2026-04-09T09:16:48.836Z</time></trkpt><trkpt lat="42.1555933" lon="14.716185"><ele>28.0</ele><time>2026-04-09T09:16:50.837Z</time></trkpt><trkpt lat="42.1554967" lon="14.7161367"><ele>28.0</ele><time>2026-04-09T09:16:52.836Z</time></trkpt><trkpt lat="42.1553983" lon="14.7160883"><ele>28.599999999999998</ele><time>2026-04-09T09:16:54.837Z</time></trkpt><trkpt lat="42.155295" lon="14.71604"><ele>29.199999999999996</ele><time>2026-04-09T09:16:56.836Z</time></trkpt><trkpt lat="42.1551933" lon="14.7159883"><ele>29.8</ele><time>2026-04-09T09:16:58.836Z</time></trkpt><trkpt lat="42.1550833" lon="14.7159433"><ele>30.4</ele><time>2026-04-09T09:17:00.836Z</time></trkpt><trkpt lat="42.15498" lon="14.7158917"><ele>31.0</ele><time>2026-04-09T09:17:02.836Z</time></trkpt><trkpt lat="42.154885" lon="14.7158467"><ele>31.4</ele><time>2026-04-09T09:17:04.836Z</time></trkpt><trkpt lat="42.1547817" lon="14.7157983"><ele>31.8</ele><time>2026-04-09T09:17:06.836Z</time></trkpt><trkpt lat="42.1546783" lon="14.7157517"><ele>32.199999999999996</ele><time>2026-04-09T09:17:08.836Z</time></trkpt><trkpt lat="42.1545733" lon="14.715705"><ele>32.6</ele><time>2026-04-09T09:17:10.836Z</time></trkpt><trkpt lat="42.1544733" lon="14.7156617"><ele>33.0</ele><time>2026-04-09T09:17:12.836Z</time></trkpt><trkpt lat="42.15437" lon="14.7156083"><ele>33.0</ele><time>2026-04-09T09:17:14.836Z</time></trkpt><trkpt lat="42.15427" lon="14.7155567"><ele>33.0</ele><time>2026-04-09T09:17:16.836Z</time></trkpt><trkpt lat="42.1541683" lon="14.715515"><ele>33.0</ele><time>2026-04-09T09:17:18.836Z</time></trkpt><trkpt lat="42.15407" lon="14.71547"><ele>33.0</ele><time>2026-04-09T09:17:20.836Z</time></trkpt><trkpt lat="42.1539667" lon="14.7154267"><ele>33.0</ele><time>2026-04-09T09:17:22.836Z</time></trkpt><trkpt lat="42.1538667" lon="14.715375"><ele>33.199999999999996</ele><time>2026-04-09T09:17:24.836Z</time></trkpt><trkpt lat="42.1537633" lon="14.715335"><ele>33.4</ele><time>2026-04-09T09:17:26.837Z</time></trkpt><trkpt lat="42.1536583" lon="14.7152867"><ele>33.599999999999994</ele><time>2026-04-09T09:17:28.836Z</time></trkpt><trkpt lat="42.1535517" lon="14.715235"><ele>33.8</ele><time>2026-04-09T09:17:30.836Z</time></trkpt><trkpt lat="42.1534467" lon="14.71519"><ele>34.0</ele><time>2026-04-09T09:17:32.836Z</time></trkpt><trkpt lat="42.1533383" lon="14.7151433"><ele>34.2</ele><time>2026-04-09T09:17:34.836Z</time></trkpt><trkpt lat="42.15324" lon="14.7150967"><ele>34.4</ele><time>2026-04-09T09:17:36.837Z</time></trkpt><trkpt lat="42.153135" lon="14.715045"><ele>34.6</ele><time>2026-04-09T09:17:38.836Z</time></trkpt><trkpt lat="42.1530267" lon="14.7149983"><ele>34.8</ele><time>2026-04-09T09:17:40.836Z</time></trkpt><trkpt lat="42.1529283" lon="14.7149533"><ele>35.0</ele><time>2026-04-09T09:17:42.836Z</time></trkpt><trkpt lat="42.1528333" lon="14.7149133"><ele>35.4</ele><time>2026-04-09T09:17:44.836Z</time></trkpt><trkpt lat="42.1527383" lon="14.7148683"><ele>35.8</ele><time>2026-04-09T09:17:46.837Z</time></trkpt><trkpt lat="42.1526417" lon="14.7148217"><ele>36.2</ele><time>2026-04-09T09:17:48.836Z</time></trkpt><trkpt lat="42.1525467" lon="14.7147767"><ele>36.6</ele><time>2026-04-09T09:17:50.836Z</time></trkpt><trkpt lat="42.1524433" lon="14.71473"><ele>37.0</ele><time>2026-04-09T09:17:52.837Z</time></trkpt><trkpt lat="42.1523583" lon="14.7146767"><ele>36.833333333333336</ele><time>2026-04-09T09:17:54.837Z</time></trkpt><trkpt lat="42.1522717" lon="14.71464"><ele>36.66666666666667</ele><time>2026-04-09T09:17:56.837Z</time></trkpt><trkpt lat="42.1521867" lon="14.71463"><ele>36.5</ele><time>2026-04-09T09:17:58.836Z</time></trkpt><trkpt lat="42.152125" lon="14.7145917"><ele>36.333333333333336</ele><time>2026-04-09T09:18:00.837Z</time></trkpt><trkpt lat="42.1520767" lon="14.7145133"><ele>36.166666666666664</ele><time>2026-04-09T09:18:02.836Z</time></trkpt><trkpt lat="42.152015" lon="14.7144317"><ele>36.0</ele><time>2026-04-09T09:18:04.836Z</time></trkpt><trkpt lat="42.15193" lon="14.71437"><ele>36.0</ele><time>2026-04-09T09:18:06.836Z</time></trkpt><trkpt lat="42.1518333" lon="14.71432"><ele>36.0</ele><time>2026-04-09T09:18:08.836Z</time></trkpt><trkpt lat="42.151735" lon="14.71429"><ele>36.0</ele><time>2026-04-09T09:18:10.836Z</time></trkpt><trkpt lat="42.1516467" lon="14.7142617"><ele>36.0</ele><time>2026-04-09T09:18:12.836Z</time></trkpt><trkpt lat="42.151555" lon="14.71424"><ele>36.0</ele><time>2026-04-09T09:18:14.836Z</time></trkpt><trkpt lat="42.15146" lon="14.71422"><ele>35.8</ele><time>2026-04-09T09:18:16.836Z</time></trkpt><trkpt lat="42.151355" lon="14.7142133"><ele>35.6</ele><time>2026-04-09T09:18:18.836Z</time></trkpt><trkpt lat="42.1512517" lon="14.7142083"><ele>35.4</ele><time>2026-04-09T09:18:20.836Z</time></trkpt><trkpt lat="42.1511483" lon="14.7142133"><ele>35.2</ele><time>2026-04-09T09:18:22.836Z</time></trkpt><trkpt lat="42.1510533" lon="14.7142267"><ele>35.0</ele><time>2026-04-09T09:18:24.836Z</time></trkpt><trkpt lat="42.15096" lon="14.7142367"><ele>35.0</ele><time>2026-04-09T09:18:26.836Z</time></trkpt><trkpt lat="42.1508633" lon="14.714255"><ele>35.0</ele><time>2026-04-09T09:18:28.836Z</time></trkpt><trkpt lat="42.1507567" lon="14.7142567"><ele>35.0</ele><time>2026-04-09T09:18:30.836Z</time></trkpt><trkpt lat="42.15064" lon="14.714265"><ele>35.0</ele><time>2026-04-09T09:18:32.836Z</time></trkpt><trkpt lat="42.150575" lon="14.7142667"><ele>35.0</ele><time>2026-04-09T09:18:33.836Z</time></trkpt><trkpt lat="42.1505117" lon="14.7142733"><ele>35.166666666666664</ele><time>2026-04-09T09:18:34.836Z</time></trkpt><trkpt lat="42.15044" lon="14.7142733"><ele>35.33333333333333</ele><time>2026-04-09T09:18:35.836Z</time></trkpt><trkpt lat="42.1503733" lon="14.71428"><ele>35.5</ele><time>2026-04-09T09:18:36.837Z</time></trkpt><trkpt lat="42.1502983" lon="14.7142917"><ele>35.666666666666664</ele><time>2026-04-09T09:18:37.836Z</time></trkpt><trkpt lat="42.1502217" lon="14.7143017"><ele>35.833333333333336</ele><time>2026-04-09T09:18:38.836Z</time></trkpt><trkpt lat="42.1501417" lon="14.714315"><ele>36.0</ele><time>2026-04-09T09:18:39.836Z</time></trkpt><trkpt lat="42.1500583" lon="14.7143317"><ele>36.0</ele><time>2026-04-09T09:18:40.837Z</time></trkpt><trkpt lat="42.1499717" lon="14.714345"><ele>36.0</ele><time>2026-04-09T09:18:41.836Z</time></trkpt><trkpt lat="42.1498817" lon="14.7143733"><ele>36.0</ele><time>2026-04-09T09:18:42.837Z</time></trkpt><trkpt lat="42.1497933" lon="14.7144083"><ele>36.0</ele><time>2026-04-09T09:18:43.836Z</time></trkpt><trkpt lat="42.1497083" lon="14.7144417"><ele>36.0</ele><time>2026-04-09T09:18:44.836Z</time></trkpt><trkpt lat="42.1496217" lon="14.7144817"><ele>35.333333333333336</ele><time>2026-04-09T09:18:45.836Z</time></trkpt><trkpt lat="42.14954" lon="14.7145267"><ele>34.666666666666664</ele><time>2026-04-09T09:18:46.836Z</time></trkpt><trkpt lat="42.149465" lon="14.7145767"><ele>34.0</ele><time>2026-04-09T09:18:47.836Z</time></trkpt><trkpt lat="42.1493967" lon="14.714625"><ele>33.33333333333333</ele><time>2026-04-09T09:18:48.837Z</time></trkpt><trkpt lat="42.1493267" lon="14.7146783"><ele>32.666666666666664</ele><time>2026-04-09T09:18:49.836Z</time></trkpt><trkpt lat="42.1492567" lon="14.7147283"><ele>32.0</ele><time>2026-04-09T09:18:50.837Z</time></trkpt><trkpt lat="42.1491883" lon="14.7147767"><ele>32.0</ele><time>2026-04-09T09:18:51.836Z</time></trkpt><trkpt lat="42.14912" lon="14.714825"><ele>32.0</ele><time>2026-04-09T09:18:52.836Z</time></trkpt><trkpt lat="42.1490533" lon="14.71488"><ele>32.0</ele><time>2026-04-09T09:18:53.836Z</time></trkpt><trkpt lat="42.1489917" lon="14.7149267"><ele>32.0</ele><time>2026-04-09T09:18:54.836Z</time></trkpt><trkpt lat="42.1488917" lon="14.7150133"><ele>32.0</ele><time>2026-04-09T09:18:56.836Z</time></trkpt><trkpt lat="42.1487783" lon="14.7150883"><ele>32.75</ele><time>2026-04-09T09:18:58.837Z</time></trkpt><trkpt lat="42.14867" lon="14.7151267"><ele>33.5</ele><time>2026-04-09T09:19:00.836Z</time></trkpt><trkpt lat="42.1485667" lon="14.7151783"><ele>34.25</ele><time>2026-04-09T09:19:02.836Z</time></trkpt><trkpt lat="42.1484617" lon="14.7152483"><ele>35.0</ele><time>2026-04-09T09:19:04.836Z</time></trkpt><trkpt lat="42.1483617" lon="14.715335"><ele>34.6</ele><time>2026-04-09T09:19:06.837Z</time></trkpt><trkpt lat="42.148265" lon="14.7154067"><ele>34.2</ele><time>2026-04-09T09:19:08.837Z</time></trkpt><trkpt lat="42.1481817" lon="14.71547"><ele>33.8</ele><time>2026-04-09T09:19:10.836Z</time></trkpt><trkpt lat="42.148095" lon="14.7155283"><ele>33.4</ele><time>2026-04-09T09:19:12.836Z</time></trkpt><trkpt lat="42.1480067" lon="14.7155967"><ele>33.0</ele><time>2026-04-09T09:19:14.836Z</time></trkpt><trkpt lat="42.1479233" lon="14.7156583"><ele>33.0</ele><time>2026-04-09T09:19:16.836Z</time></trkpt><trkpt lat="42.147855" lon="14.7157067"><ele>33.0</ele><time>2026-04-09T09:19:18.836Z</time></trkpt><trkpt lat="42.14778" lon="14.7157633"><ele>33.0</ele><time>2026-04-09T09:19:20.837Z</time></trkpt><trkpt lat="42.14769" lon="14.7158017"><ele>33.0</ele><time>2026-04-09T09:19:22.836Z</time></trkpt><trkpt lat="42.1476033" lon="14.7158467"><ele>33.0</ele><time>2026-04-09T09:19:24.837Z</time></trkpt><trkpt lat="42.1475167" lon="14.7159133"><ele>33.0</ele><time>2026-04-09T09:19:26.836Z</time></trkpt><trkpt lat="42.14739" lon="14.715955"><ele>33.0</ele><time>2026-04-09T09:19:28.836Z</time></trkpt><trkpt lat="42.1473033" lon="14.7159733"><ele>33.0</ele><time>2026-04-09T09:19:29.836Z</time></trkpt><trkpt lat="42.1472033" lon="14.7159717"><ele>33.0</ele><time>2026-04-09T09:19:30.837Z</time></trkpt><trkpt lat="42.1471367" lon="14.7159883"><ele>33.0</ele><time>2026-04-09T09:19:31.836Z</time></trkpt><trkpt lat="42.1470733" lon="14.716"><ele>33.8</ele><time>2026-04-09T09:19:32.836Z</time></trkpt><trkpt lat="42.146955" lon="14.716025"><ele>34.599999999999994</ele><time>2026-04-09T09:19:34.836Z</time></trkpt><trkpt lat="42.1468917" lon="14.7160417"><ele>35.400000000000006</ele><time>2026-04-09T09:19:35.836Z</time></trkpt><trkpt lat="42.1467817" lon="14.716075"><ele>36.2</ele><time>2026-04-09T09:19:37.836Z</time></trkpt><trkpt lat="42.146655" lon="14.7161167"><ele>37.0</ele><time>2026-04-09T09:19:39.836Z</time></trkpt><trkpt lat="42.1465867" lon="14.7161433"><ele>35.16666666666667</ele><time>2026-04-09T09:19:40.837Z</time></trkpt><trkpt lat="42.1465217" lon="14.7161667"><ele>33.333333333333336</ele><time>2026-04-09T09:19:41.836Z</time></trkpt><trkpt lat="42.146455" lon="14.7161933"><ele>31.5</ele><time>2026-04-09T09:19:42.836Z</time></trkpt><trkpt lat="42.1463867" lon="14.7162233"><ele>29.666666666666664</ele><time>2026-04-09T09:19:43.836Z</time></trkpt><trkpt lat="42.1463233" lon="14.7162467"><ele>27.833333333333332</ele><time>2026-04-09T09:19:44.836Z</time></trkpt><trkpt lat="42.1462083" lon="14.7162817"><ele>26.0</ele><time>2026-04-09T09:19:46.836Z</time></trkpt><trkpt lat="42.1460883" lon="14.7163167"><ele>26.0</ele><time>2026-04-09T09:19:48.836Z</time></trkpt><trkpt lat="42.1459717" lon="14.716355"><ele>26.0</ele><time>2026-04-09T09:19:50.836Z</time></trkpt><trkpt lat="42.1458517" lon="14.7163933"><ele>26.0</ele><time>2026-04-09T09:19:52.836Z</time></trkpt><trkpt lat="42.1457267" lon="14.7164183"><ele>26.0</ele><time>2026-04-09T09:19:54.836Z</time></trkpt><trkpt lat="42.1456033" lon="14.7164433"><ele>26.200000000000003</ele><time>2026-04-09T09:19:56.837Z</time></trkpt><trkpt lat="42.14548" lon="14.71648"><ele>26.400000000000002</ele><time>2026-04-09T09:19:58.836Z</time></trkpt><trkpt lat="42.1453467" lon="14.716515"><ele>26.6</ele><time>2026-04-09T09:20:00.836Z</time></trkpt><trkpt lat="42.1452717" lon="14.7165283"><ele>26.8</ele><time>2026-04-09T09:20:01.836Z</time></trkpt><trkpt lat="42.145205" lon="14.716545"><ele>27.0</ele><time>2026-04-09T09:20:02.836Z</time></trkpt><trkpt lat="42.1451433" lon="14.716565"><ele>27.0</ele><time>2026-04-09T09:20:03.836Z</time></trkpt><trkpt lat="42.14508" lon="14.7165833"><ele>27.000000000000004</ele><time>2026-04-09T09:20:04.836Z</time></trkpt><trkpt lat="42.144955" lon="14.7166217"><ele>27.000000000000004</ele><time>2026-04-09T09:20:06.836Z</time></trkpt><trkpt lat="42.1448383" lon="14.7166633"><ele>27.0</ele><time>2026-04-09T09:20:08.836Z</time></trkpt><trkpt lat="42.1447383" lon="14.716705"><ele>27.0</ele><time>2026-04-09T09:20:10.837Z</time></trkpt><trkpt lat="42.14463" lon="14.7167367"><ele>27.75</ele><time>2026-04-09T09:20:12.836Z</time></trkpt><trkpt lat="42.144515" lon="14.7167683"><ele>28.5</ele><time>2026-04-09T09:20:14.836Z</time></trkpt><trkpt lat="42.1443967" lon="14.7168"><ele>29.25</ele><time>2026-04-09T09:20:16.836Z</time></trkpt><trkpt lat="42.1442783" lon="14.7168267"><ele>30.0</ele><time>2026-04-09T09:20:18.837Z</time></trkpt><trkpt lat="42.14417" lon="14.716855"><ele>30.0</ele><time>2026-04-09T09:20:20.837Z</time></trkpt><trkpt lat="42.1440567" lon="14.71689"><ele>30.0</ele><time>2026-04-09T09:20:22.837Z</time></trkpt><trkpt lat="42.1439917" lon="14.7169117"><ele>30.0</ele><time>2026-04-09T09:20:23.837Z</time></trkpt><trkpt lat="42.1438783" lon="14.7169417"><ele>30.0</ele><time>2026-04-09T09:20:25.836Z</time></trkpt><trkpt lat="42.1437583" lon="14.7169733"><ele>30.0</ele><time>2026-04-09T09:20:27.836Z</time></trkpt><trkpt lat="42.1436383" lon="14.7169967"><ele>28.8</ele><time>2026-04-09T09:20:29.836Z</time></trkpt><trkpt lat="42.1435233" lon="14.71703"><ele>27.6</ele><time>2026-04-09T09:20:31.837Z</time></trkpt><trkpt lat="42.1434067" lon="14.7170617"><ele>26.4</ele><time>2026-04-09T09:20:33.837Z</time></trkpt><trkpt lat="42.1433433" lon="14.717065"><ele>25.2</ele><time>2026-04-09T09:20:34.836Z</time></trkpt><trkpt lat="42.1432783" lon="14.7170717"><ele>24.0</ele><time>2026-04-09T09:20:35.836Z</time></trkpt><trkpt lat="42.1431633" lon="14.7170883"><ele>24.0</ele><time>2026-04-09T09:20:37.837Z</time></trkpt><trkpt lat="42.1430583" lon="14.71711"><ele>24.0</ele><time>2026-04-09T09:20:39.836Z</time></trkpt><trkpt lat="42.14294" lon="14.7171217"><ele>24.0</ele><time>2026-04-09T09:20:41.836Z</time></trkpt><trkpt lat="42.1428233" lon="14.7171283"><ele>24.0</ele><time>2026-04-09T09:20:43.837Z</time></trkpt><trkpt lat="42.142715" lon="14.7171383"><ele>24.0</ele><time>2026-04-09T09:20:45.837Z</time></trkpt><trkpt lat="42.1426033" lon="14.7171483"><ele>24.0</ele><time>2026-04-09T09:20:47.836Z</time></trkpt><trkpt lat="42.14248" lon="14.7171517"><ele>24.0</ele><time>2026-04-09T09:20:49.836Z</time></trkpt><trkpt lat="42.1423567" lon="14.717155"><ele>24.0</ele><time>2026-04-09T09:20:51.836Z</time></trkpt><trkpt lat="42.14229" lon="14.71715"><ele>24.0</ele><time>2026-04-09T09:20:52.836Z</time></trkpt><trkpt lat="42.1421633" lon="14.7171517"><ele>22.8</ele><time>2026-04-09T09:20:54.836Z</time></trkpt><trkpt lat="42.1421" lon="14.717145"><ele>21.599999999999998</ele><time>2026-04-09T09:20:55.837Z</time></trkpt><trkpt lat="42.1419783" lon="14.7171433"><ele>20.4</ele><time>2026-04-09T09:20:57.836Z</time></trkpt><trkpt lat="42.14186" lon="14.717135"><ele>19.2</ele><time>2026-04-09T09:20:59.836Z</time></trkpt><trkpt lat="42.1417383" lon="14.7171167"><ele>18.0</ele><time>2026-04-09T09:21:01.836Z</time></trkpt><trkpt lat="42.141615" lon="14.7170983"><ele>17.2</ele><time>2026-04-09T09:21:03.836Z</time></trkpt><trkpt lat="42.1414983" lon="14.7170767"><ele>16.4</ele><time>2026-04-09T09:21:05.836Z</time></trkpt><trkpt lat="42.14138" lon="14.7170583"><ele>15.599999999999998</ele><time>2026-04-09T09:21:07.836Z</time></trkpt><trkpt lat="42.14126" lon="14.717035"><ele>14.799999999999999</ele><time>2026-04-09T09:21:09.836Z</time></trkpt><trkpt lat="42.141195" lon="14.71702"><ele>14.0</ele><time>2026-04-09T09:21:10.836Z</time></trkpt><trkpt lat="42.1411317" lon="14.7170067"><ele>14.0</ele><time>2026-04-09T09:21:11.836Z</time></trkpt><trkpt lat="42.14101" lon="14.7169833"><ele>14.0</ele><time>2026-04-09T09:21:13.837Z</time></trkpt><trkpt lat="42.1408933" lon="14.7169517"><ele>14.0</ele><time>2026-04-09T09:21:15.836Z</time></trkpt><trkpt lat="42.14078" lon="14.7169233"><ele>14.0</ele><time>2026-04-09T09:21:17.836Z</time></trkpt><trkpt lat="42.14067" lon="14.7169017"><ele>16.5</ele><time>2026-04-09T09:21:19.836Z</time></trkpt><trkpt lat="42.14056" lon="14.7168783"><ele>19.0</ele><time>2026-04-09T09:21:21.836Z</time></trkpt><trkpt lat="42.1404383" lon="14.71686"><ele>21.5</ele><time>2026-04-09T09:21:23.836Z</time></trkpt><trkpt lat="42.14033" lon="14.7168333"><ele>24.0</ele><time>2026-04-09T09:21:25.836Z</time></trkpt><trkpt lat="42.1402233" lon="14.71681"><ele>24.0</ele><time>2026-04-09T09:21:27.836Z</time></trkpt><trkpt lat="42.140095" lon="14.716795"><ele>24.0</ele><time>2026-04-09T09:21:29.836Z</time></trkpt><trkpt lat="42.1399833" lon="14.716785"><ele>24.0</ele><time>2026-04-09T09:21:31.837Z</time></trkpt><trkpt lat="42.13987" lon="14.7167717"><ele>24.0</ele><time>2026-04-09T09:21:33.836Z</time></trkpt><trkpt lat="42.139755" lon="14.716765"><ele>24.6</ele><time>2026-04-09T09:21:35.836Z</time></trkpt><trkpt lat="42.1396467" lon="14.7167633"><ele>25.2</ele><time>2026-04-09T09:21:37.836Z</time></trkpt><trkpt lat="42.1395367" lon="14.71676"><ele>25.800000000000004</ele><time>2026-04-09T09:21:39.836Z</time></trkpt><trkpt lat="42.13942" lon="14.7167683"><ele>26.400000000000002</ele><time>2026-04-09T09:21:41.837Z</time></trkpt><trkpt lat="42.1393217" lon="14.7167817"><ele>27.0</ele><time>2026-04-09T09:21:43.836Z</time></trkpt><trkpt lat="42.1392233" lon="14.71679"><ele>27.0</ele><time>2026-04-09T09:21:45.836Z</time></trkpt><trkpt lat="42.1391133" lon="14.7168083"><ele>27.0</ele><time>2026-04-09T09:21:47.837Z</time></trkpt><trkpt lat="42.138995" lon="14.71683"><ele>27.0</ele><time>2026-04-09T09:21:49.836Z</time></trkpt><trkpt lat="42.1388833" lon="14.716855"><ele>27.0</ele><time>2026-04-09T09:21:51.836Z</time></trkpt><trkpt lat="42.1387683" lon="14.7168783"><ele>28.25</ele><time>2026-04-09T09:21:53.836Z</time></trkpt><trkpt lat="42.1386583" lon="14.7169017"><ele>29.5</ele><time>2026-04-09T09:21:55.836Z</time></trkpt><trkpt lat="42.1385433" lon="14.71692"><ele>30.75</ele><time>2026-04-09T09:21:57.836Z</time></trkpt><trkpt lat="42.138425" lon="14.7169483"><ele>32.0</ele><time>2026-04-09T09:21:59.836Z</time></trkpt><trkpt lat="42.1383183" lon="14.716975"><ele>32.0</ele><time>2026-04-09T09:22:01.836Z</time></trkpt><trkpt lat="42.1382067" lon="14.7170117"><ele>32.0</ele><time>2026-04-09T09:22:03.836Z</time></trkpt><trkpt lat="42.1381" lon="14.717055"><ele>32.0</ele><time>2026-04-09T09:22:05.836Z</time></trkpt><trkpt lat="42.1379917" lon="14.7170967"><ele>32.0</ele><time>2026-04-09T09:22:07.836Z</time></trkpt><trkpt lat="42.1379017" lon="14.7171467"><ele>32.0</ele><time>2026-04-09T09:22:09.836Z</time></trkpt><trkpt lat="42.137795" lon="14.7171967"><ele>32.0</ele><time>2026-04-09T09:22:11.836Z</time></trkpt><trkpt lat="42.137685" lon="14.7172467"><ele>32.0</ele><time>2026-04-09T09:22:13.836Z</time></trkpt><trkpt lat="42.1375717" lon="14.7172917"><ele>32.0</ele><time>2026-04-09T09:22:15.836Z</time></trkpt><trkpt lat="42.13745" lon="14.71732"><ele>32.0</ele><time>2026-04-09T09:22:17.836Z</time></trkpt><trkpt lat="42.137335" lon="14.7173633"><ele>25.0</ele><time>2026-04-09T09:22:19.836Z</time></trkpt><trkpt lat="42.1360633" lon="14.717405"><ele>25.0</ele><time>2026-04-09T09:22:42.837Z</time></trkpt><trkpt lat="42.135935" lon="14.71739"><ele>25.0</ele><time>2026-04-09T09:22:43.837Z</time></trkpt><trkpt lat="42.1358383" lon="14.7173717"><ele>25.0</ele><time>2026-04-09T09:22:44.837Z</time></trkpt><trkpt lat="42.135775" lon="14.71736"><ele>25.0</ele><time>2026-04-09T09:22:45.837Z</time></trkpt><trkpt lat="42.1356383" lon="14.7173217"><ele>25.0</ele><time>2026-04-09T09:22:47.837Z</time></trkpt><trkpt lat="42.1355633" lon="14.7173067"><ele>24.000000000000004</ele><time>2026-04-09T09:22:48.837Z</time></trkpt><trkpt lat="42.1354983" lon="14.7173"><ele>23.0</ele><time>2026-04-09T09:22:49.837Z</time></trkpt><trkpt lat="42.13543" lon="14.717295"><ele>22.0</ele><time>2026-04-09T09:22:50.837Z</time></trkpt><trkpt lat="42.1353667" lon="14.717285"><ele>21.0</ele><time>2026-04-09T09:22:51.837Z</time></trkpt><trkpt lat="42.1353" lon="14.7172733"><ele>20.0</ele><time>2026-04-09T09:22:52.837Z</time></trkpt><trkpt lat="42.1351783" lon="14.7172533"><ele>19.0</ele><time>2026-04-09T09:22:54.837Z</time></trkpt><trkpt lat="42.1350583" lon="14.7172417"><ele>19.0</ele><time>2026-04-09T09:22:56.837Z</time></trkpt><trkpt lat="42.1349333" lon="14.71722"><ele>19.0</ele><time>2026-04-09T09:22:58.838Z</time></trkpt><trkpt lat="42.13481" lon="14.7172133"><ele>19.0</ele><time>2026-04-09T09:23:00.837Z</time></trkpt><trkpt lat="42.1347467" lon="14.71721"><ele>19.0</ele><time>2026-04-09T09:23:01.837Z</time></trkpt><trkpt lat="42.13468" lon="14.7172033"><ele>19.0</ele><time>2026-04-09T09:23:02.837Z</time></trkpt><trkpt lat="42.1346167" lon="14.7171983"><ele>19.0</ele><time>2026-04-09T09:23:03.838Z</time></trkpt><trkpt lat="42.1344917" lon="14.717195"><ele>18.833333333333332</ele><time>2026-04-09T09:23:05.837Z</time></trkpt><trkpt lat="42.1343783" lon="14.7171967"><ele>18.666666666666664</ele><time>2026-04-09T09:23:07.837Z</time></trkpt><trkpt lat="42.134315" lon="14.7172"><ele>18.5</ele><time>2026-04-09T09:23:08.837Z</time></trkpt><trkpt lat="42.1341917" lon="14.717205"><ele>18.333333333333332</ele><time>2026-04-09T09:23:10.837Z</time></trkpt><trkpt lat="42.1341267" lon="14.717215"><ele>18.166666666666668</ele><time>2026-04-09T09:23:11.837Z</time></trkpt><trkpt lat="42.1340583" lon="14.7172233"><ele>18.0</ele><time>2026-04-09T09:23:12.837Z</time></trkpt><trkpt lat="42.13399" lon="14.717235"><ele>17.8</ele><time>2026-04-09T09:23:13.837Z</time></trkpt><trkpt lat="42.1339167" lon="14.7172433"><ele>17.6</ele><time>2026-04-09T09:23:14.837Z</time></trkpt><trkpt lat="42.1337917" lon="14.7172717"><ele>17.4</ele><time>2026-04-09T09:23:16.837Z</time></trkpt><trkpt lat="42.1337283" lon="14.7172883"><ele>17.2</ele><time>2026-04-09T09:23:17.838Z</time></trkpt><trkpt lat="42.1336017" lon="14.7173233"><ele>17.0</ele><time>2026-04-09T09:23:19.837Z</time></trkpt><trkpt lat="42.1335383" lon="14.7173417"><ele>17.0</ele><time>2026-04-09T09:23:20.838Z</time></trkpt><trkpt lat="42.133475" lon="14.7173633"><ele>17.0</ele><time>2026-04-09T09:23:21.837Z</time></trkpt><trkpt lat="42.1334133" lon="14.7173817"><ele>17.0</ele><time>2026-04-09T09:23:22.837Z</time></trkpt><trkpt lat="42.1332967" lon="14.7174133"><ele>17.0</ele><time>2026-04-09T09:23:24.837Z</time></trkpt><trkpt lat="42.1332333" lon="14.717435"><ele>17.0</ele><time>2026-04-09T09:23:25.837Z</time></trkpt><trkpt lat="42.13317" lon="14.71746"><ele>17.0</ele><time>2026-04-09T09:23:26.837Z</time></trkpt><trkpt lat="42.13305" lon="14.71751"><ele>16.2</ele><time>2026-04-09T09:23:28.838Z</time></trkpt><trkpt lat="42.13299" lon="14.7175417"><ele>15.399999999999999</ele><time>2026-04-09T09:23:29.837Z</time></trkpt><trkpt lat="42.1328717" lon="14.7175967"><ele>14.600000000000001</ele><time>2026-04-09T09:23:31.837Z</time></trkpt><trkpt lat="42.132765" lon="14.7176583"><ele>13.8</ele><time>2026-04-09T09:23:33.838Z</time></trkpt><trkpt lat="42.13266" lon="14.7177267"><ele>13.0</ele><time>2026-04-09T09:23:35.837Z</time></trkpt><trkpt lat="42.1325633" lon="14.7177883"><ele>13.0</ele><time>2026-04-09T09:23:37.837Z</time></trkpt><trkpt lat="42.1324617" lon="14.7178583"><ele>13.0</ele><time>2026-04-09T09:23:39.837Z</time></trkpt><trkpt lat="42.1323617" lon="14.71793"><ele>13.0</ele><time>2026-04-09T09:23:41.837Z</time></trkpt><trkpt lat="42.1322633" lon="14.7179983"><ele>13.0</ele><time>2026-04-09T09:23:43.837Z</time></trkpt><trkpt lat="42.1321667" lon="14.7180767"><ele>16.0</ele><time>2026-04-09T09:23:45.837Z</time></trkpt><trkpt lat="42.132065" lon="14.71816"><ele>19.0</ele><time>2026-04-09T09:23:47.837Z</time></trkpt><trkpt lat="42.1319667" lon="14.718235"><ele>22.0</ele><time>2026-04-09T09:23:49.837Z</time></trkpt><trkpt lat="42.1318683" lon="14.7183233"><ele>25.0</ele><time>2026-04-09T09:23:51.837Z</time></trkpt><trkpt lat="42.131775" lon="14.7184083"><ele>25.0</ele><time>2026-04-09T09:23:53.837Z</time></trkpt><trkpt lat="42.131685" lon="14.7185017"><ele>25.0</ele><time>2026-04-09T09:23:55.837Z</time></trkpt><trkpt lat="42.131585" lon="14.7186067"><ele>25.0</ele><time>2026-04-09T09:23:57.837Z</time></trkpt><trkpt lat="42.1314933" lon="14.7186967"><ele>25.0</ele><time>2026-04-09T09:23:59.837Z</time></trkpt><trkpt lat="42.1314067" lon="14.718795"><ele>24.4</ele><time>2026-04-09T09:24:01.837Z</time></trkpt><trkpt lat="42.131315" lon="14.7188917"><ele>23.8</ele><time>2026-04-09T09:24:03.837Z</time></trkpt><trkpt lat="42.131225" lon="14.718995"><ele>23.200000000000003</ele><time>2026-04-09T09:24:05.837Z</time></trkpt><trkpt lat="42.13113" lon="14.7190983"><ele>22.6</ele><time>2026-04-09T09:24:07.837Z</time></trkpt><trkpt lat="42.131075" lon="14.719145"><ele>22.0</ele><time>2026-04-09T09:24:08.837Z</time></trkpt><trkpt lat="42.1310233" lon="14.719195"><ele>22.0</ele><time>2026-04-09T09:24:09.837Z</time></trkpt><trkpt lat="42.13093" lon="14.7192883"><ele>22.0</ele><time>2026-04-09T09:24:11.837Z</time></trkpt><trkpt lat="42.1308433" lon="14.7193933"><ele>22.0</ele><time>2026-04-09T09:24:13.837Z</time></trkpt><trkpt lat="42.1307533" lon="14.7194867"><ele>22.0</ele><time>2026-04-09T09:24:15.837Z</time></trkpt><trkpt lat="42.1306567" lon="14.7195717"><ele>22.5</ele><time>2026-04-09T09:24:17.838Z</time></trkpt><trkpt lat="42.13056" lon="14.719655"><ele>23.0</ele><time>2026-04-09T09:24:19.837Z</time></trkpt><trkpt lat="42.1304633" lon="14.7197367"><ele>23.5</ele><time>2026-04-09T09:24:21.837Z</time></trkpt><trkpt lat="42.1303667" lon="14.719825"><ele>24.0</ele><time>2026-04-09T09:24:23.837Z</time></trkpt><trkpt lat="42.13027" lon="14.7199067"><ele>24.0</ele><time>2026-04-09T09:24:25.837Z</time></trkpt><trkpt lat="42.130175" lon="14.7199867"><ele>24.0</ele><time>2026-04-09T09:24:27.837Z</time></trkpt><trkpt lat="42.1300733" lon="14.7200617"><ele>24.0</ele><time>2026-04-09T09:24:29.837Z</time></trkpt><trkpt lat="42.1299717" lon="14.72014"><ele>24.0</ele><time>2026-04-09T09:24:31.837Z</time></trkpt><trkpt lat="42.12987" lon="14.720215"><ele>23.0</ele><time>2026-04-09T09:24:33.837Z</time></trkpt><trkpt lat="42.129775" lon="14.7202867"><ele>22.0</ele><time>2026-04-09T09:24:35.837Z</time></trkpt><trkpt lat="42.1296717" lon="14.7203583"><ele>21.0</ele><time>2026-04-09T09:24:37.837Z</time></trkpt><trkpt lat="42.129565" lon="14.7204183"><ele>20.0</ele><time>2026-04-09T09:24:39.837Z</time></trkpt><trkpt lat="42.1294583" lon="14.7204867"><ele>20.0</ele><time>2026-04-09T09:24:41.837Z</time></trkpt><trkpt lat="42.1293567" lon="14.7205483"><ele>20.0</ele><time>2026-04-09T09:24:43.837Z</time></trkpt><trkpt lat="42.1292533" lon="14.720615"><ele>20.0</ele><time>2026-04-09T09:24:45.837Z</time></trkpt><trkpt lat="42.12914" lon="14.7206633"><ele>20.0</ele><time>2026-04-09T09:24:47.837Z</time></trkpt><trkpt lat="42.1290317" lon="14.720725"><ele>20.0</ele><time>2026-04-09T09:24:49.837Z</time></trkpt><trkpt lat="42.1289217" lon="14.7207833"><ele>20.0</ele><time>2026-04-09T09:24:51.837Z</time></trkpt><trkpt lat="42.1288083" lon="14.720845"><ele>20.0</ele><time>2026-04-09T09:24:53.838Z</time></trkpt><trkpt lat="42.1287467" lon="14.72087"><ele>20.0</ele><time>2026-04-09T09:24:54.837Z</time></trkpt><trkpt lat="42.1286317" lon="14.7209117"><ele>20.0</ele><time>2026-04-09T09:24:56.837Z</time></trkpt><trkpt lat="42.128525" lon="14.7209533"><ele>20.0</ele><time>2026-04-09T09:24:58.837Z</time></trkpt><trkpt lat="42.1284233" lon="14.7209933"><ele>20.0</ele><time>2026-04-09T09:25:00.838Z</time></trkpt><trkpt lat="42.12832" lon="14.7210317"><ele>20.0</ele><time>2026-04-09T09:25:02.837Z</time></trkpt><trkpt lat="42.1282217" lon="14.72107"><ele>20.0</ele><time>2026-04-09T09:25:04.837Z</time></trkpt><trkpt lat="42.128115" lon="14.7211033"><ele>20.0</ele><time>2026-04-09T09:25:06.837Z</time></trkpt><trkpt lat="42.1280033" lon="14.7211283"><ele>18.0</ele><time>2026-04-09T09:25:08.837Z</time></trkpt><trkpt lat="42.1278983" lon="14.7211517"><ele>16.0</ele><time>2026-04-09T09:25:10.837Z</time></trkpt><trkpt lat="42.1277983" lon="14.72118"><ele>14.0</ele><time>2026-04-09T09:25:12.837Z</time></trkpt><trkpt lat="42.127685" lon="14.7212083"><ele>12.0</ele><time>2026-04-09T09:25:14.838Z</time></trkpt><trkpt lat="42.1275733" lon="14.7212317"><ele>10.0</ele><time>2026-04-09T09:25:16.837Z</time></trkpt><trkpt lat="42.1274717" lon="14.721245"><ele>10.8</ele><time>2026-04-09T09:25:18.837Z</time></trkpt><trkpt lat="42.1273633" lon="14.7212617"><ele>11.6</ele><time>2026-04-09T09:25:20.837Z</time></trkpt><trkpt lat="42.1272567" lon="14.7212817"><ele>12.399999999999999</ele><time>2026-04-09T09:25:22.838Z</time></trkpt><trkpt lat="42.1271467" lon="14.7212983"><ele>13.2</ele><time>2026-04-09T09:25:24.837Z</time></trkpt><trkpt lat="42.12704" lon="14.72132"><ele>14.0</ele><time>2026-04-09T09:25:26.838Z</time></trkpt><trkpt lat="42.126935" lon="14.72132"><ele>14.0</ele><time>2026-04-09T09:25:28.837Z</time></trkpt><trkpt lat="42.126815" lon="14.7213317"><ele>14.0</ele><time>2026-04-09T09:25:30.837Z</time></trkpt><trkpt lat="42.1266933" lon="14.7213233"><ele>14.0</ele><time>2026-04-09T09:25:32.837Z</time></trkpt><trkpt lat="42.1265767" lon="14.7213183"><ele>14.0</ele><time>2026-04-09T09:25:34.837Z</time></trkpt><trkpt lat="42.12646" lon="14.72132"><ele>16.0</ele><time>2026-04-09T09:25:36.837Z</time></trkpt><trkpt lat="42.126345" lon="14.721325"><ele>18.0</ele><time>2026-04-09T09:25:38.837Z</time></trkpt><trkpt lat="42.1262333" lon="14.7213233"><ele>20.0</ele><time>2026-04-09T09:25:40.837Z</time></trkpt><trkpt lat="42.1261083" lon="14.72132"><ele>22.0</ele><time>2026-04-09T09:25:42.837Z</time></trkpt><trkpt lat="42.1259967" lon="14.7213183"><ele>22.0</ele><time>2026-04-09T09:25:44.838Z</time></trkpt><trkpt lat="42.1259017" lon="14.7213317"><ele>22.0</ele><time>2026-04-09T09:25:46.838Z</time></trkpt><trkpt lat="42.125805" lon="14.72137"><ele>22.0</ele><time>2026-04-09T09:25:49.837Z</time></trkpt><trkpt lat="42.12572" lon="14.72139"><ele>22.0</ele><time>2026-04-09T09:25:51.838Z</time></trkpt><trkpt lat="42.125635" lon="14.7214083"><ele>22.0</ele><time>2026-04-09T09:25:53.837Z</time></trkpt><trkpt lat="42.1255133" lon="14.7214267"><ele>11.0</ele><time>2026-04-09T09:25:55.838Z</time></trkpt><trkpt lat="42.1244517" lon="14.72127"><ele>11.0</ele><time>2026-04-09T09:26:11.837Z</time></trkpt><trkpt lat="42.1243883" lon="14.72127"><ele>11.0</ele><time>2026-04-09T09:26:12.837Z</time></trkpt><trkpt lat="42.124275" lon="14.7213033"><ele>11.0</ele><time>2026-04-09T09:26:14.838Z</time></trkpt><trkpt lat="42.12416" lon="14.7213283"><ele>11.0</ele><time>2026-04-09T09:26:16.837Z</time></trkpt><trkpt lat="42.12404" lon="14.72133"><ele>11.0</ele><time>2026-04-09T09:26:18.838Z</time></trkpt><trkpt lat="42.1239233" lon="14.721325"><ele>10.25</ele><time>2026-04-09T09:26:20.837Z</time></trkpt><trkpt lat="42.1238033" lon="14.721315"><ele>9.5</ele><time>2026-04-09T09:26:22.837Z</time></trkpt><trkpt lat="42.1236833" lon="14.7213017"><ele>8.75</ele><time>2026-04-09T09:26:24.838Z</time></trkpt><trkpt lat="42.1235717" lon="14.721285"><ele>8.0</ele><time>2026-04-09T09:26:26.837Z</time></trkpt><trkpt lat="42.1234583" lon="14.7212567"><ele>8.0</ele><time>2026-04-09T09:26:28.837Z</time></trkpt><trkpt lat="42.12335" lon="14.72123"><ele>8.0</ele><time>2026-04-09T09:26:30.838Z</time></trkpt><trkpt lat="42.1232383" lon="14.7212017"><ele>8.0</ele><time>2026-04-09T09:26:32.837Z</time></trkpt><trkpt lat="42.12314" lon="14.7211717"><ele>8.0</ele><time>2026-04-09T09:26:34.837Z</time></trkpt><trkpt lat="42.1230467" lon="14.7211333"><ele>8.0</ele><time>2026-04-09T09:26:36.837Z</time></trkpt><trkpt lat="42.122955" lon="14.7211017"><ele>8.5</ele><time>2026-04-09T09:26:38.837Z</time></trkpt><trkpt lat="42.1228933" lon="14.7210783"><ele>9.0</ele><time>2026-04-09T09:26:40.837Z</time></trkpt><trkpt lat="42.1228217" lon="14.721085"><ele>9.5</ele><time>2026-04-09T09:26:42.837Z</time></trkpt><trkpt lat="42.12273" lon="14.7210733"><ele>10.0</ele><time>2026-04-09T09:26:45.837Z</time></trkpt><trkpt lat="42.1226617" lon="14.721065"><ele>10.5</ele><time>2026-04-09T09:26:47.837Z</time></trkpt><trkpt lat="42.1225967" lon="14.7211433"><ele>11.0</ele><time>2026-04-09T09:26:50.837Z</time></trkpt><trkpt lat="42.12253" lon="14.7211733"><ele>11.0</ele><time>2026-04-09T09:26:53.837Z</time></trkpt><trkpt lat="42.1224667" lon="14.7211983"><ele>11.0</ele><time>2026-04-09T09:26:55.837Z</time></trkpt><trkpt lat="42.1224017" lon="14.7211767"><ele>11.0</ele><time>2026-04-09T09:27:01.837Z</time></trkpt><trkpt lat="42.12201" lon="14.721395"><ele>21.0</ele><time>2026-04-09T09:27:04.837Z</time></trkpt><trkpt lat="42.121595" lon="14.7200533"><ele>18.75</ele><time>2026-04-09T09:27:05.837Z</time></trkpt><trkpt lat="42.1214333" lon="14.720145"><ele>16.5</ele><time>2026-04-09T09:27:06.837Z</time></trkpt><trkpt lat="42.1213483" lon="14.7201383"><ele>14.25</ele><time>2026-04-09T09:27:07.837Z</time></trkpt><trkpt lat="42.121245" lon="14.7200783"><ele>12.0</ele><time>2026-04-09T09:27:09.837Z</time></trkpt><trkpt lat="42.121145" lon="14.7200033"><ele>12.0</ele><time>2026-04-09T09:27:11.837Z</time></trkpt><trkpt lat="42.12104" lon="14.7199333"><ele>12.0</ele><time>2026-04-09T09:27:13.838Z</time></trkpt><trkpt lat="42.1209383" lon="14.7198667"><ele>12.0</ele><time>2026-04-09T09:27:15.838Z</time></trkpt><trkpt lat="42.1208367" lon="14.7198"><ele>12.0</ele><time>2026-04-09T09:27:17.837Z</time></trkpt><trkpt lat="42.1207417" lon="14.7197467"><ele>12.0</ele><time>2026-04-09T09:27:19.837Z</time></trkpt><trkpt lat="42.1206567" lon="14.7196983"><ele>11.0</ele><time>2026-04-09T09:27:21.838Z</time></trkpt><trkpt lat="42.120575" lon="14.7196567"><ele>10.0</ele><time>2026-04-09T09:27:23.837Z</time></trkpt><trkpt lat="42.1204867" lon="14.7196233"><ele>9.0</ele><time>2026-04-09T09:27:25.837Z</time></trkpt><trkpt lat="42.1203867" lon="14.7195783"><ele>8.0</ele><time>2026-04-09T09:27:27.837Z</time></trkpt><trkpt lat="42.120285" lon="14.7195333"><ele>7.0</ele><time>2026-04-09T09:27:29.837Z</time></trkpt><trkpt lat="42.1201783" lon="14.7195083"><ele>7.0</ele><time>2026-04-09T09:27:31.837Z</time></trkpt><trkpt lat="42.1201167" lon="14.7194883"><ele>6.999999999999999</ele><time>2026-04-09T09:27:32.837Z</time></trkpt><trkpt lat="42.1200117" lon="14.719455"><ele>6.999999999999999</ele><time>2026-04-09T09:27:34.837Z</time></trkpt><trkpt lat="42.1199033" lon="14.7194283"><ele>7.0</ele><time>2026-04-09T09:27:36.837Z</time></trkpt><trkpt lat="42.119785" lon="14.71941"><ele>7.0</ele><time>2026-04-09T09:27:38.837Z</time></trkpt><trkpt lat="42.1196717" lon="14.719395"><ele>8.25</ele><time>2026-04-09T09:27:40.838Z</time></trkpt><trkpt lat="42.1195567" lon="14.719385"><ele>9.5</ele><time>2026-04-09T09:27:42.837Z</time></trkpt><trkpt lat="42.1194417" lon="14.7193733"><ele>10.75</ele><time>2026-04-09T09:27:44.838Z</time></trkpt><trkpt lat="42.1193283" lon="14.719365"><ele>12.0</ele><time>2026-04-09T09:27:46.837Z</time></trkpt><trkpt lat="42.1192167" lon="14.7193667"><ele>12.0</ele><time>2026-04-09T09:27:48.837Z</time></trkpt><trkpt lat="42.1191133" lon="14.7193633"><ele>12.0</ele><time>2026-04-09T09:27:50.837Z</time></trkpt><trkpt lat="42.1190067" lon="14.7193717"><ele>12.0</ele><time>2026-04-09T09:27:52.838Z</time></trkpt><trkpt lat="42.118895" lon="14.7193733"><ele>12.0</ele><time>2026-04-09T09:27:54.837Z</time></trkpt><trkpt lat="42.1187933" lon="14.719385"><ele>12.0</ele><time>2026-04-09T09:27:56.838Z</time></trkpt><trkpt lat="42.11868" lon="14.719405"><ele>11.6</ele><time>2026-04-09T09:27:58.837Z</time></trkpt><trkpt lat="42.1185667" lon="14.71943"><ele>11.2</ele><time>2026-04-09T09:28:00.837Z</time></trkpt><trkpt lat="42.1184583" lon="14.7194517"><ele>10.8</ele><time>2026-04-09T09:28:02.837Z</time></trkpt><trkpt lat="42.1183467" lon="14.7194783"><ele>10.4</ele><time>2026-04-09T09:28:04.837Z</time></trkpt><trkpt lat="42.1182367" lon="14.7195"><ele>10.0</ele><time>2026-04-09T09:28:06.837Z</time></trkpt><trkpt lat="42.1181283" lon="14.71951"><ele>10.0</ele><time>2026-04-09T09:28:08.838Z</time></trkpt><trkpt lat="42.1180283" lon="14.7195167"><ele>10.0</ele><time>2026-04-09T09:28:10.837Z</time></trkpt><trkpt lat="42.11792" lon="14.7195367"><ele>10.0</ele><time>2026-04-09T09:28:12.837Z</time></trkpt><trkpt lat="42.1178117" lon="14.7195683"><ele>10.0</ele><time>2026-04-09T09:28:14.837Z</time></trkpt><trkpt lat="42.1177017" lon="14.7195867"><ele>10.0</ele><time>2026-04-09T09:28:16.838Z</time></trkpt><trkpt lat="42.1175933" lon="14.719595"><ele>10.0</ele><time>2026-04-09T09:28:18.837Z</time></trkpt><trkpt lat="42.1174683" lon="14.71963"><ele>10.0</ele><time>2026-04-09T09:28:20.837Z</time></trkpt><trkpt lat="42.1173517" lon="14.71966"><ele>10.0</ele><time>2026-04-09T09:28:22.837Z</time></trkpt><trkpt lat="42.117245" lon="14.719695"><ele>10.0</ele><time>2026-04-09T09:28:24.837Z</time></trkpt><trkpt lat="42.1171333" lon="14.719725"><ele>10.75</ele><time>2026-04-09T09:28:26.837Z</time></trkpt><trkpt lat="42.1170217" lon="14.7197567"><ele>11.5</ele><time>2026-04-09T09:28:28.837Z</time></trkpt><trkpt lat="42.11691" lon="14.7197817"><ele>12.25</ele><time>2026-04-09T09:28:30.837Z</time></trkpt><trkpt lat="42.116795" lon="14.719805"><ele>13.0</ele><time>2026-04-09T09:28:32.837Z</time></trkpt><trkpt lat="42.116675" lon="14.7198183"><ele>12.8</ele><time>2026-04-09T09:28:34.837Z</time></trkpt><trkpt lat="42.116565" lon="14.71983"><ele>12.600000000000001</ele><time>2026-04-09T09:28:36.837Z</time></trkpt><trkpt lat="42.1164567" lon="14.7198333"><ele>12.399999999999999</ele><time>2026-04-09T09:28:38.837Z</time></trkpt><trkpt lat="42.1163433" lon="14.7198317"><ele>12.2</ele><time>2026-04-09T09:28:40.837Z</time></trkpt><trkpt lat="42.1162283" lon="14.7198233"><ele>12.0</ele><time>2026-04-09T09:28:42.837Z</time></trkpt><trkpt lat="42.11612" lon="14.7198183"><ele>12.0</ele><time>2026-04-09T09:28:44.838Z</time></trkpt><trkpt lat="42.1160167" lon="14.7198117"><ele>12.0</ele><time>2026-04-09T09:28:46.837Z</time></trkpt><trkpt lat="42.1159117" lon="14.7198067"><ele>12.0</ele><time>2026-04-09T09:28:48.837Z</time></trkpt><trkpt lat="42.1158" lon="14.7198"><ele>12.0</ele><time>2026-04-09T09:28:50.837Z</time></trkpt><trkpt lat="42.1156883" lon="14.7197933"><ele>12.0</ele><time>2026-04-09T09:28:52.837Z</time></trkpt><trkpt lat="42.1155783" lon="14.7197717"><ele>11.0</ele><time>2026-04-09T09:28:54.837Z</time></trkpt><trkpt lat="42.11548" lon="14.7197417"><ele>10.0</ele><time>2026-04-09T09:28:56.837Z</time></trkpt><trkpt lat="42.115375" lon="14.7197067"><ele>9.0</ele><time>2026-04-09T09:28:58.837Z</time></trkpt><trkpt lat="42.1152667" lon="14.7196817"><ele>8.0</ele><time>2026-04-09T09:29:00.837Z</time></trkpt><trkpt lat="42.1151533" lon="14.7196567"><ele>7.0</ele><time>2026-04-09T09:29:02.837Z</time></trkpt><trkpt lat="42.11504" lon="14.7196367"><ele>7.0</ele><time>2026-04-09T09:29:04.837Z</time></trkpt><trkpt lat="42.11493" lon="14.7196133"><ele>7.0</ele><time>2026-04-09T09:29:06.837Z</time></trkpt><trkpt lat="42.11482" lon="14.71958"><ele>7.0</ele><time>2026-04-09T09:29:08.837Z</time></trkpt><trkpt lat="42.1147083" lon="14.7195533"><ele>7.0</ele><time>2026-04-09T09:29:10.837Z</time></trkpt><trkpt lat="42.114595" lon="14.7195267"><ele>7.0</ele><time>2026-04-09T09:29:12.838Z</time></trkpt><trkpt lat="42.1144833" lon="14.7195017"><ele>6.999999999999999</ele><time>2026-04-09T09:29:14.838Z</time></trkpt><trkpt lat="42.1143767" lon="14.71948"><ele>6.999999999999999</ele><time>2026-04-09T09:29:16.837Z</time></trkpt><trkpt lat="42.1142717" lon="14.719455"><ele>7.0</ele><time>2026-04-09T09:29:18.837Z</time></trkpt><trkpt lat="42.114165" lon="14.7194317"><ele>7.0</ele><time>2026-04-09T09:29:20.837Z</time></trkpt><trkpt lat="42.1140617" lon="14.719405"><ele>8.399999999999999</ele><time>2026-04-09T09:29:22.837Z</time></trkpt><trkpt lat="42.1139567" lon="14.7193783"><ele>9.799999999999999</ele><time>2026-04-09T09:29:24.837Z</time></trkpt><trkpt lat="42.1138483" lon="14.7193567"><ele>11.2</ele><time>2026-04-09T09:29:26.837Z</time></trkpt><trkpt lat="42.1137433" lon="14.7193317"><ele>12.6</ele><time>2026-04-09T09:29:28.837Z</time></trkpt><trkpt lat="42.1136367" lon="14.71931"><ele>14.0</ele><time>2026-04-09T09:29:30.837Z</time></trkpt><trkpt lat="42.11353" lon="14.719285"><ele>14.0</ele><time>2026-04-09T09:29:32.837Z</time></trkpt><trkpt lat="42.11343" lon="14.71925"><ele>13.999999999999998</ele><time>2026-04-09T09:29:34.838Z</time></trkpt><trkpt lat="42.113335" lon="14.71921"><ele>13.999999999999998</ele><time>2026-04-09T09:29:36.837Z</time></trkpt><trkpt lat="42.1132317" lon="14.71917"><ele>14.0</ele><time>2026-04-09T09:29:38.837Z</time></trkpt><trkpt lat="42.1131233" lon="14.7191267"><ele>14.0</ele><time>2026-04-09T09:29:40.837Z</time></trkpt><trkpt lat="42.113005" lon="14.71909"><ele>12.75</ele><time>2026-04-09T09:29:42.837Z</time></trkpt><trkpt lat="42.112895" lon="14.71904"><ele>11.5</ele><time>2026-04-09T09:29:44.837Z</time></trkpt><trkpt lat="42.1127867" lon="14.71899"><ele>10.25</ele><time>2026-04-09T09:29:46.837Z</time></trkpt><trkpt lat="42.1126817" lon="14.7189383"><ele>9.0</ele><time>2026-04-09T09:29:48.837Z</time></trkpt><trkpt lat="42.11258" lon="14.7188783"><ele>9.0</ele><time>2026-04-09T09:29:50.837Z</time></trkpt><trkpt lat="42.1124783" lon="14.7188133"><ele>9.0</ele><time>2026-04-09T09:29:52.837Z</time></trkpt><trkpt lat="42.112375" lon="14.7187483"><ele>9.0</ele><time>2026-04-09T09:29:54.837Z</time></trkpt><trkpt lat="42.112275" lon="14.7186767"><ele>9.0</ele><time>2026-04-09T09:29:56.837Z</time></trkpt><trkpt lat="42.11218" lon="14.7186083"><ele>9.0</ele><time>2026-04-09T09:29:58.838Z</time></trkpt><trkpt lat="42.112085" lon="14.71854"><ele>9.6</ele><time>2026-04-09T09:30:00.837Z</time></trkpt><trkpt lat="42.111995" lon="14.7184683"><ele>10.2</ele><time>2026-04-09T09:30:02.837Z</time></trkpt><trkpt lat="42.1118983" lon="14.7183983"><ele>10.799999999999999</ele><time>2026-04-09T09:30:04.837Z</time></trkpt><trkpt lat="42.1117983" lon="14.7183233"><ele>11.4</ele><time>2026-04-09T09:30:06.837Z</time></trkpt><trkpt lat="42.1117" lon="14.71825"><ele>12.0</ele><time>2026-04-09T09:30:08.837Z</time></trkpt><trkpt lat="42.1116017" lon="14.7181767"><ele>11.0</ele><time>2026-04-09T09:30:10.837Z</time></trkpt><trkpt lat="42.111505" lon="14.7180983"><ele>10.0</ele><time>2026-04-09T09:30:12.838Z</time></trkpt><trkpt lat="42.1114033" lon="14.7180283"><ele>9.0</ele><time>2026-04-09T09:30:14.837Z</time></trkpt><trkpt lat="42.1113017" lon="14.7179633"><ele>8.0</ele><time>2026-04-09T09:30:16.838Z</time></trkpt><trkpt lat="42.1112067" lon="14.717895"><ele>7.0</ele><time>2026-04-09T09:30:18.838Z</time></trkpt><trkpt lat="42.111105" lon="14.717835"><ele>7.0</ele><time>2026-04-09T09:30:20.839Z</time></trkpt><trkpt lat="42.1109967" lon="14.717775"><ele>7.0</ele><time>2026-04-09T09:30:22.839Z</time></trkpt><trkpt lat="42.1108883" lon="14.717725"><ele>7.0</ele><time>2026-04-09T09:30:24.838Z</time></trkpt><trkpt lat="42.11079" lon="14.7176733"><ele>7.0</ele><time>2026-04-09T09:30:26.838Z</time></trkpt><trkpt lat="42.1106817" lon="14.7176267"><ele>8.5</ele><time>2026-04-09T09:30:28.839Z</time></trkpt><trkpt lat="42.1105683" lon="14.71759"><ele>10.0</ele><time>2026-04-09T09:30:30.838Z</time></trkpt><trkpt lat="42.11046" lon="14.71755"><ele>11.5</ele><time>2026-04-09T09:30:32.838Z</time></trkpt><trkpt lat="42.1103467" lon="14.7175233"><ele>13.0</ele><time>2026-04-09T09:30:34.838Z</time></trkpt><trkpt lat="42.110235" lon="14.7175"><ele>13.0</ele><time>2026-04-09T09:30:36.838Z</time></trkpt><trkpt lat="42.1101217" lon="14.717475"><ele>13.0</ele><time>2026-04-09T09:30:38.838Z</time></trkpt><trkpt lat="42.1100083" lon="14.7174583"><ele>13.0</ele><time>2026-04-09T09:30:40.838Z</time></trkpt><trkpt lat="42.1098983" lon="14.7174467"><ele>13.0</ele><time>2026-04-09T09:30:42.838Z</time></trkpt><trkpt lat="42.1097867" lon="14.71743"><ele>13.25</ele><time>2026-04-09T09:30:44.838Z</time></trkpt><trkpt lat="42.1096733" lon="14.7174117"><ele>13.5</ele><time>2026-04-09T09:30:46.838Z</time></trkpt><trkpt lat="42.10956" lon="14.7173933"><ele>13.75</ele><time>2026-04-09T09:30:48.838Z</time></trkpt><trkpt lat="42.10945" lon="14.7173833"><ele>14.0</ele><time>2026-04-09T09:30:50.838Z</time></trkpt><trkpt lat="42.109335" lon="14.717375"><ele>14.0</ele><time>2026-04-09T09:30:52.838Z</time></trkpt><trkpt lat="42.1092217" lon="14.717365"><ele>14.0</ele><time>2026-04-09T09:30:54.838Z</time></trkpt><trkpt lat="42.10911" lon="14.7173517"><ele>14.0</ele><time>2026-04-09T09:30:56.838Z</time></trkpt><trkpt lat="42.1089917" lon="14.7173383"><ele>14.0</ele><time>2026-04-09T09:30:58.838Z</time></trkpt><trkpt lat="42.1088833" lon="14.7173267"><ele>13.2</ele><time>2026-04-09T09:31:00.838Z</time></trkpt><trkpt lat="42.1087767" lon="14.71731"><ele>12.399999999999999</ele><time>2026-04-09T09:31:02.838Z</time></trkpt><trkpt lat="42.1086717" lon="14.7172817"><ele>11.6</ele><time>2026-04-09T09:31:04.838Z</time></trkpt><trkpt lat="42.108555" lon="14.71726"><ele>10.8</ele><time>2026-04-09T09:31:06.838Z</time></trkpt><trkpt lat="42.1084917" lon="14.7172367"><ele>10.0</ele><time>2026-04-09T09:31:07.838Z</time></trkpt><trkpt lat="42.10837" lon="14.7171967"><ele>10.0</ele><time>2026-04-09T09:31:09.839Z</time></trkpt><trkpt lat="42.108255" lon="14.7171633"><ele>10.0</ele><time>2026-04-09T09:31:11.838Z</time></trkpt><trkpt lat="42.1081317" lon="14.717125"><ele>10.0</ele><time>2026-04-09T09:31:13.838Z</time></trkpt><trkpt lat="42.1080183" lon="14.71709"><ele>10.0</ele><time>2026-04-09T09:31:15.838Z</time></trkpt><trkpt lat="42.107905" lon="14.7170383"><ele>10.75</ele><time>2026-04-09T09:31:17.838Z</time></trkpt><trkpt lat="42.1078017" lon="14.7169933"><ele>11.5</ele><time>2026-04-09T09:31:19.838Z</time></trkpt><trkpt lat="42.1076917" lon="14.7169467"><ele>12.25</ele><time>2026-04-09T09:31:21.838Z</time></trkpt><trkpt lat="42.1075817" lon="14.7169017"><ele>13.0</ele><time>2026-04-09T09:31:23.838Z</time></trkpt><trkpt lat="42.107475" lon="14.7168583"><ele>12.8</ele><time>2026-04-09T09:31:25.838Z</time></trkpt><trkpt lat="42.1073667" lon="14.71682"><ele>12.600000000000001</ele><time>2026-04-09T09:31:27.838Z</time></trkpt><trkpt lat="42.107265" lon="14.7167883"><ele>12.399999999999999</ele><time>2026-04-09T09:31:29.838Z</time></trkpt><trkpt lat="42.1071633" lon="14.7167633"><ele>12.2</ele><time>2026-04-09T09:31:31.838Z</time></trkpt><trkpt lat="42.1070583" lon="14.7167333"><ele>12.0</ele><time>2026-04-09T09:31:33.838Z</time></trkpt><trkpt lat="42.1069633" lon="14.7167033"><ele>12.0</ele><time>2026-04-09T09:31:35.838Z</time></trkpt><trkpt lat="42.106895" lon="14.7166817"><ele>12.0</ele><time>2026-04-09T09:31:37.838Z</time></trkpt><trkpt lat="42.1068283" lon="14.7166617"><ele>12.0</ele><time>2026-04-09T09:33:15.835Z</time></trkpt><trkpt lat="42.1067433" lon="14.716645"><ele>12.0</ele><time>2026-04-09T09:33:18.836Z</time></trkpt><trkpt lat="42.1066783" lon="14.7166367"><ele>12.0</ele><time>2026-04-09T09:33:20.835Z</time></trkpt><trkpt lat="42.1066017" lon="14.716625"><ele>12.0</ele><time>2026-04-09T09:33:22.836Z</time></trkpt><trkpt lat="42.10651" lon="14.7166167"><ele>12.399999999999999</ele><time>2026-04-09T09:33:24.835Z</time></trkpt><trkpt lat="42.10641" lon="14.7166117"><ele>12.799999999999999</ele><time>2026-04-09T09:33:26.836Z</time></trkpt><trkpt lat="42.1062967" lon="14.71661"><ele>13.2</ele><time>2026-04-09T09:33:28.835Z</time></trkpt><trkpt lat="42.1061917" lon="14.7166067"><ele>13.6</ele><time>2026-04-09T09:33:30.835Z</time></trkpt><trkpt lat="42.1060883" lon="14.71661"><ele>14.0</ele><time>2026-04-09T09:33:32.836Z</time></trkpt><trkpt lat="42.1059817" lon="14.7166067"><ele>14.0</ele><time>2026-04-09T09:33:34.835Z</time></trkpt><trkpt lat="42.1058583" lon="14.7166133"><ele>14.0</ele><time>2026-04-09T09:33:36.835Z</time></trkpt><trkpt lat="42.1057383" lon="14.7166233"><ele>14.0</ele><time>2026-04-09T09:33:38.835Z</time></trkpt><trkpt lat="42.1056183" lon="14.7166333"><ele>14.0</ele><time>2026-04-09T09:33:40.835Z</time></trkpt><trkpt lat="42.1055033" lon="14.71664"><ele>14.6</ele><time>2026-04-09T09:33:42.835Z</time></trkpt><trkpt lat="42.10544" lon="14.7166383"><ele>15.2</ele><time>2026-04-09T09:33:43.835Z</time></trkpt><trkpt lat="42.10533" lon="14.71665"><ele>15.799999999999999</ele><time>2026-04-09T09:33:45.835Z</time></trkpt><trkpt lat="42.10521" lon="14.71666"><ele>16.4</ele><time>2026-04-09T09:33:47.836Z</time></trkpt><trkpt lat="42.105095" lon="14.7166683"><ele>17.0</ele><time>2026-04-09T09:33:49.835Z</time></trkpt><trkpt lat="42.1049783" lon="14.7166783"><ele>16.75</ele><time>2026-04-09T09:33:51.836Z</time></trkpt><trkpt lat="42.1048567" lon="14.71669"><ele>16.5</ele><time>2026-04-09T09:33:53.835Z</time></trkpt><trkpt lat="42.1047433" lon="14.716705"><ele>16.25</ele><time>2026-04-09T09:33:55.835Z</time></trkpt><trkpt lat="42.1046317" lon="14.7167167"><ele>16.0</ele><time>2026-04-09T09:33:57.835Z</time></trkpt><trkpt lat="42.1045217" lon="14.716725"><ele>16.0</ele><time>2026-04-09T09:33:59.835Z</time></trkpt><trkpt lat="42.1044117" lon="14.7167367"><ele>16.0</ele><time>2026-04-09T09:34:01.835Z</time></trkpt><trkpt lat="42.104295" lon="14.7167467"><ele>16.0</ele><time>2026-04-09T09:34:03.835Z</time></trkpt><trkpt lat="42.1041817" lon="14.71676"><ele>16.0</ele><time>2026-04-09T09:34:05.835Z</time></trkpt><trkpt lat="42.1040667" lon="14.7167633"><ele>15.75</ele><time>2026-04-09T09:34:07.835Z</time></trkpt><trkpt lat="42.1039517" lon="14.7167633"><ele>15.5</ele><time>2026-04-09T09:34:09.835Z</time></trkpt><trkpt lat="42.1038383" lon="14.7167683"><ele>15.25</ele><time>2026-04-09T09:34:11.836Z</time></trkpt><trkpt lat="42.103725" lon="14.716775"><ele>15.0</ele><time>2026-04-09T09:34:13.835Z</time></trkpt><trkpt lat="42.1036117" lon="14.71682"><ele>15.0</ele><time>2026-04-09T09:34:15.835Z</time></trkpt><trkpt lat="42.1035" lon="14.7168717"><ele>15.0</ele><time>2026-04-09T09:34:17.835Z</time></trkpt><trkpt lat="42.103435" lon="14.716895"><ele>15.0</ele><time>2026-04-09T09:34:18.835Z</time></trkpt><trkpt lat="42.1033217" lon="14.7169167"><ele>15.0</ele><time>2026-04-09T09:34:20.835Z</time></trkpt><trkpt lat="42.10321" lon="14.71695"><ele>15.0</ele><time>2026-04-09T09:34:22.835Z</time></trkpt><trkpt lat="42.1031" lon="14.716985"><ele>14.5</ele><time>2026-04-09T09:34:24.836Z</time></trkpt><trkpt lat="42.1029867" lon="14.7170217"><ele>14.0</ele><time>2026-04-09T09:34:26.835Z</time></trkpt><trkpt lat="42.10287" lon="14.7170533"><ele>13.5</ele><time>2026-04-09T09:34:28.836Z</time></trkpt><trkpt lat="42.10276" lon="14.717075"><ele>13.0</ele><time>2026-04-09T09:34:30.835Z</time></trkpt><trkpt lat="42.1026483" lon="14.7171033"><ele>13.0</ele><time>2026-04-09T09:34:32.835Z</time></trkpt><trkpt lat="42.1025417" lon="14.7171417"><ele>13.0</ele><time>2026-04-09T09:34:34.836Z</time></trkpt><trkpt lat="42.1024367" lon="14.7171733"><ele>13.0</ele><time>2026-04-09T09:34:36.835Z</time></trkpt><trkpt lat="42.1023283" lon="14.7172167"><ele>13.0</ele><time>2026-04-09T09:34:38.835Z</time></trkpt><trkpt lat="42.10222" lon="14.7172517"><ele>13.0</ele><time>2026-04-09T09:34:40.835Z</time></trkpt><trkpt lat="42.1021067" lon="14.7172933"><ele>13.2</ele><time>2026-04-09T09:34:42.835Z</time></trkpt><trkpt lat="42.1020033" lon="14.7173283"><ele>13.4</ele><time>2026-04-09T09:34:44.835Z</time></trkpt><trkpt lat="42.1019" lon="14.7173667"><ele>13.599999999999998</ele><time>2026-04-09T09:34:46.835Z</time></trkpt><trkpt lat="42.1018067" lon="14.7174067"><ele>13.799999999999999</ele><time>2026-04-09T09:34:48.835Z</time></trkpt><trkpt lat="42.1017117" lon="14.7174417"><ele>14.0</ele><time>2026-04-09T09:34:50.835Z</time></trkpt><trkpt lat="42.1016183" lon="14.7174767"><ele>14.2</ele><time>2026-04-09T09:34:52.835Z</time></trkpt><trkpt lat="42.1015267" lon="14.71751"><ele>14.399999999999999</ele><time>2026-04-09T09:34:54.835Z</time></trkpt><trkpt lat="42.1014333" lon="14.717535"><ele>14.6</ele><time>2026-04-09T09:34:56.835Z</time></trkpt><trkpt lat="42.1013433" lon="14.71756"><ele>14.8</ele><time>2026-04-09T09:34:58.835Z</time></trkpt><trkpt lat="42.10125" lon="14.7175833"><ele>15.0</ele><time>2026-04-09T09:35:00.835Z</time></trkpt><trkpt lat="42.1011567" lon="14.7176133"><ele>15.0</ele><time>2026-04-09T09:35:02.835Z</time></trkpt><trkpt lat="42.1010633" lon="14.7176383"><ele>15.0</ele><time>2026-04-09T09:35:04.835Z</time></trkpt><trkpt lat="42.10097" lon="14.717665"><ele>15.0</ele><time>2026-04-09T09:35:06.835Z</time></trkpt><trkpt lat="42.1008767" lon="14.717705"><ele>15.0</ele><time>2026-04-09T09:35:08.836Z</time></trkpt><trkpt lat="42.10078" lon="14.7177417"><ele>15.0</ele><time>2026-04-09T09:35:10.836Z</time></trkpt><trkpt lat="42.1006867" lon="14.71777"><ele>14.333333333333334</ele><time>2026-04-09T09:35:12.835Z</time></trkpt><trkpt lat="42.1005917" lon="14.7177983"><ele>13.666666666666666</ele><time>2026-04-09T09:35:14.836Z</time></trkpt><trkpt lat="42.1005033" lon="14.7178317"><ele>13.0</ele><time>2026-04-09T09:35:16.835Z</time></trkpt><trkpt lat="42.10042" lon="14.7178533"><ele>12.333333333333332</ele><time>2026-04-09T09:35:18.835Z</time></trkpt><trkpt lat="42.1003383" lon="14.7178633"><ele>11.666666666666666</ele><time>2026-04-09T09:35:20.835Z</time></trkpt><trkpt lat="42.100265" lon="14.71789"><ele>11.0</ele><time>2026-04-09T09:35:22.835Z</time></trkpt><trkpt lat="42.1001933" lon="14.7179133"><ele>11.0</ele><time>2026-04-09T09:35:24.835Z</time></trkpt><trkpt lat="42.100125" lon="14.71794"><ele>11.0</ele><time>2026-04-09T09:35:26.835Z</time></trkpt><trkpt lat="42.10006" lon="14.717975"><ele>11.0</ele><time>2026-04-09T09:35:28.835Z</time></trkpt><trkpt lat="42.1" lon="14.7180117"><ele>11.0</ele><time>2026-04-09T09:35:30.835Z</time></trkpt><trkpt lat="42.0999167" lon="14.7180533"><ele>11.0</ele><time>2026-04-09T09:35:33.835Z</time></trkpt><trkpt lat="42.09985" lon="14.7180633"><ele>11.0</ele><time>2026-04-09T09:35:36.835Z</time></trkpt><trkpt lat="42.0997783" lon="14.71808"><ele>11.0</ele><time>2026-04-09T09:35:40.835Z</time></trkpt><trkpt lat="42.0998067" lon="14.7181733"><ele>11.200000000000001</ele><time>2026-04-09T09:35:46.835Z</time></trkpt><trkpt lat="42.0997417" lon="14.7182233"><ele>11.4</ele><time>2026-04-09T09:35:49.835Z</time></trkpt><trkpt lat="42.0996617" lon="14.718265"><ele>11.6</ele><time>2026-04-09T09:35:51.835Z</time></trkpt><trkpt lat="42.099565" lon="14.71832"><ele>11.8</ele><time>2026-04-09T09:35:53.835Z</time></trkpt><trkpt lat="42.0994633" lon="14.7183983"><ele>12.0</ele><time>2026-04-09T09:35:55.835Z</time></trkpt><trkpt lat="42.099375" lon="14.7184633"><ele>12.0</ele><time>2026-04-09T09:35:57.836Z</time></trkpt><trkpt lat="42.0993267" lon="14.7185367"><ele>12.0</ele><time>2026-04-09T09:36:00.835Z</time></trkpt><trkpt lat="42.0993467" lon="14.71864"><ele>12.0</ele><time>2026-04-09T09:36:03.835Z</time></trkpt><trkpt lat="42.099375" lon="14.718785"><ele>12.0</ele><time>2026-04-09T09:36:05.835Z</time></trkpt><trkpt lat="42.09939" lon="14.71891"><ele>12.0</ele><time>2026-04-09T09:36:07.835Z</time></trkpt><trkpt lat="42.09941" lon="14.7190217"><ele>12.0</ele><time>2026-04-09T09:36:10.835Z</time></trkpt><trkpt lat="42.0994183" lon="14.7191217"><ele>11.666666666666666</ele><time>2026-04-09T09:36:12.835Z</time></trkpt><trkpt lat="42.09943" lon="14.7192483"><ele>11.333333333333334</ele><time>2026-04-09T09:36:14.835Z</time></trkpt><trkpt lat="42.0994383" lon="14.719365"><ele>11.0</ele><time>2026-04-09T09:36:16.836Z</time></trkpt><trkpt lat="42.099445" lon="14.71947"><ele>10.666666666666668</ele><time>2026-04-09T09:36:18.835Z</time></trkpt><trkpt lat="42.09945" lon="14.71957"><ele>10.333333333333334</ele><time>2026-04-09T09:36:20.835Z</time></trkpt><trkpt lat="42.0994517" lon="14.7196717"><ele>10.0</ele><time>2026-04-09T09:36:23.835Z</time></trkpt><trkpt lat="42.0994433" lon="14.71978"><ele>9.571428571428571</ele><time>2026-04-09T09:36:26.835Z</time></trkpt><trkpt lat="42.0994267" lon="14.719875"><ele>9.142857142857142</ele><time>2026-04-09T09:36:29.835Z</time></trkpt><trkpt lat="42.0994133" lon="14.7199667"><ele>8.714285714285715</ele><time>2026-04-09T09:36:32.835Z</time></trkpt><trkpt lat="42.09943" lon="14.7200533"><ele>8.285714285714285</ele><time>2026-04-09T09:36:36.836Z</time></trkpt><trkpt lat="42.0994567" lon="14.719945"><ele>7.857142857142858</ele><time>2026-04-09T09:36:44.836Z</time></trkpt><trkpt lat="42.0994667" lon="14.719855"><ele>7.428571428571429</ele><time>2026-04-09T09:36:46.835Z</time></trkpt><trkpt lat="42.0994533" lon="14.71974"><ele>7.0</ele><time>2026-04-09T09:36:49.836Z</time></trkpt><trkpt lat="42.09946" lon="14.719615"><ele>7.0</ele><time>2026-04-09T09:36:51.835Z</time></trkpt><trkpt lat="42.0994633" lon="14.7195283"><ele>7.0</ele><time>2026-04-09T09:36:53.836Z</time></trkpt><trkpt lat="42.0994617" lon="14.7194417"><ele>7.0</ele><time>2026-04-09T09:36:56.836Z</time></trkpt><trkpt lat="42.0994533" lon="14.7193417"><ele>7.0</ele><time>2026-04-09T09:36:59.835Z</time></trkpt><trkpt lat="42.099415" lon="14.7192667"><ele>7.0</ele><time>2026-04-09T09:37:03.835Z</time></trkpt><trkpt lat="42.0993483" lon="14.71931"><ele>7.0</ele><time>2026-04-09T09:37:07.835Z</time></trkpt><trkpt lat="42.0993267" lon="14.7194183"><ele>7.0</ele><time>2026-04-09T09:37:10.835Z</time></trkpt><trkpt lat="42.0993183" lon="14.7195333"><ele>7.000000000000001</ele><time>2026-04-09T09:37:13.835Z</time></trkpt><trkpt lat="42.09931" lon="14.71965"><ele>7.0</ele><time>2026-04-09T09:37:16.835Z</time></trkpt><trkpt lat="42.0993117" lon="14.719735"><ele>7.0</ele><time>2026-04-09T09:37:18.835Z</time></trkpt><trkpt lat="42.0993217" lon="14.7198383"><ele>7.0</ele><time>2026-04-09T09:37:20.835Z</time></trkpt><trkpt lat="42.0993433" lon="14.719945"><ele>7.000000000000001</ele><time>2026-04-09T09:37:22.835Z</time></trkpt><trkpt lat="42.09937" lon="14.7200433"><ele>7.0</ele><time>2026-04-09T09:37:25.835Z</time></trkpt><trkpt lat="42.0994067" lon="14.720135"><ele>7.0</ele><time>2026-04-09T09:37:29.835Z</time></trkpt><trkpt lat="42.0994183" lon="14.7202283"><ele>7.0</ele><time>2026-04-09T09:37:32.836Z</time></trkpt><trkpt lat="42.0994517" lon="14.7203167"><ele>7.0</ele><time>2026-04-09T09:37:35.835Z</time></trkpt><trkpt lat="42.0995" lon="14.7204033"><ele>7.0</ele><time>2026-04-09T09:37:38.835Z</time></trkpt><trkpt lat="42.0995117" lon="14.7204883"><ele>7.0</ele><time>2026-04-09T09:37:41.836Z</time></trkpt><trkpt lat="42.09952" lon="14.7205817"><ele>7.0</ele><time>2026-04-09T09:37:45.835Z</time></trkpt><trkpt lat="42.0995233" lon="14.7206983"><ele>7.0</ele><time>2026-04-09T09:37:48.835Z</time></trkpt><trkpt lat="42.0995083" lon="14.7208083"><ele>6.666666666666667</ele><time>2026-04-09T09:37:51.835Z</time></trkpt><trkpt lat="42.099515" lon="14.7209117"><ele>6.333333333333334</ele><time>2026-04-09T09:37:56.836Z</time></trkpt><trkpt lat="42.099495" lon="14.7210117"><ele>6.0</ele><time>2026-04-09T09:37:59.835Z</time></trkpt><trkpt lat="42.0994583" lon="14.72111"><ele>5.666666666666667</ele><time>2026-04-09T09:38:02.835Z</time></trkpt><trkpt lat="42.09942" lon="14.7211833"><ele>5.333333333333334</ele><time>2026-04-09T09:38:05.835Z</time></trkpt><trkpt lat="42.0993833" lon="14.7212667"><ele>5.0</ele><time>2026-04-09T09:38:07.835Z</time></trkpt><trkpt lat="42.0993417" lon="14.7213583"><ele>4.857142857142857</ele><time>2026-04-09T09:38:09.835Z</time></trkpt><trkpt lat="42.0992967" lon="14.721455"><ele>4.714285714285714</ele><time>2026-04-09T09:38:11.835Z</time></trkpt><trkpt lat="42.09926" lon="14.7215317"><ele>4.571428571428571</ele><time>2026-04-09T09:38:13.835Z</time></trkpt><trkpt lat="42.099225" lon="14.7216083"><ele>4.428571428571429</ele><time>2026-04-09T09:38:15.835Z</time></trkpt><trkpt lat="42.0991883" lon="14.7216867"><ele>4.285714285714286</ele><time>2026-04-09T09:38:17.835Z</time></trkpt><trkpt lat="42.0991417" lon="14.72175"><ele>4.142857142857142</ele><time>2026-04-09T09:38:19.835Z</time></trkpt><trkpt lat="42.0990817" lon="14.7217933"><ele>4.0</ele><time>2026-04-09T09:38:21.836Z</time></trkpt><trkpt lat="42.0990117" lon="14.7218333"><ele>4.333333333333333</ele><time>2026-04-09T09:38:23.835Z</time></trkpt><trkpt lat="42.0989383" lon="14.72189"><ele>4.666666666666666</ele><time>2026-04-09T09:38:25.835Z</time></trkpt><trkpt lat="42.0988683" lon="14.721955"><ele>5.0</ele><time>2026-04-09T09:38:27.835Z</time></trkpt><trkpt lat="42.0987967" lon="14.72202"><ele>5.333333333333333</ele><time>2026-04-09T09:38:29.836Z</time></trkpt><trkpt lat="42.0987233" lon="14.7220833"><ele>5.666666666666667</ele><time>2026-04-09T09:38:31.835Z</time></trkpt><trkpt lat="42.098655" lon="14.72215"><ele>6.0</ele><time>2026-04-09T09:38:33.836Z</time></trkpt><trkpt lat="42.09859" lon="14.7222233"><ele>6.0</ele><time>2026-04-09T09:38:35.835Z</time></trkpt><trkpt lat="42.098525" lon="14.7223067"><ele>6.0</ele><time>2026-04-09T09:38:37.836Z</time></trkpt><trkpt lat="42.098455" lon="14.72239"><ele>6.0</ele><time>2026-04-09T09:38:39.835Z</time></trkpt><trkpt lat="42.0983817" lon="14.722475"><ele>6.0</ele><time>2026-04-09T09:38:41.836Z</time></trkpt><trkpt lat="42.09831" lon="14.722555"><ele>6.0</ele><time>2026-04-09T09:38:43.835Z</time></trkpt><trkpt lat="42.098245" lon="14.7226383"><ele>5.666666666666667</ele><time>2026-04-09T09:38:45.836Z</time></trkpt><trkpt lat="42.09818" lon="14.72272"><ele>5.333333333333333</ele><time>2026-04-09T09:38:47.835Z</time></trkpt><trkpt lat="42.09813" lon="14.7228133"><ele>5.0</ele><time>2026-04-09T09:38:49.835Z</time></trkpt><trkpt lat="42.0980767" lon="14.7228883"><ele>4.666666666666666</ele><time>2026-04-09T09:38:51.835Z</time></trkpt><trkpt lat="42.09802" lon="14.7229567"><ele>4.333333333333333</ele><time>2026-04-09T09:38:53.835Z</time></trkpt><trkpt lat="42.097965" lon="14.723025"><ele>4.0</ele><time>2026-04-09T09:38:55.836Z</time></trkpt><trkpt lat="42.0978883" lon="14.7230983"><ele>3.8000000000000003</ele><time>2026-04-09T09:38:58.835Z</time></trkpt><trkpt lat="42.0978283" lon="14.7231767"><ele>3.6000000000000005</ele><time>2026-04-09T09:39:00.835Z</time></trkpt><trkpt lat="42.0977567" lon="14.7232683"><ele>3.4</ele><time>2026-04-09T09:39:02.835Z</time></trkpt><trkpt lat="42.09768" lon="14.72335"><ele>3.2</ele><time>2026-04-09T09:39:04.835Z</time></trkpt><trkpt lat="42.0976" lon="14.72343"><ele>3.0</ele><time>2026-04-09T09:39:06.835Z</time></trkpt><trkpt lat="42.0975183" lon="14.72351"><ele>3.0</ele><time>2026-04-09T09:39:08.835Z</time></trkpt><trkpt lat="42.097435" lon="14.7235933"><ele>3.0</ele><time>2026-04-09T09:39:10.835Z</time></trkpt><trkpt lat="42.0973567" lon="14.72368"><ele>3.0</ele><time>2026-04-09T09:39:12.835Z</time></trkpt><trkpt lat="42.0972733" lon="14.7237717"><ele>3.0</ele><time>2026-04-09T09:39:14.836Z</time></trkpt><trkpt lat="42.097195" lon="14.7238567"><ele>3.0</ele><time>2026-04-09T09:39:16.835Z</time></trkpt><trkpt lat="42.09712" lon="14.7239383"><ele>3.0</ele><time>2026-04-09T09:39:18.835Z</time></trkpt><trkpt lat="42.0970367" lon="14.7240233"><ele>3.0</ele><time>2026-04-09T09:39:20.835Z</time></trkpt><trkpt lat="42.0969633" lon="14.7241167"><ele>3.0</ele><time>2026-04-09T09:39:22.835Z</time></trkpt><trkpt lat="42.0968817" lon="14.724205"><ele>3.0</ele><time>2026-04-09T09:39:24.835Z</time></trkpt><trkpt lat="42.0967983" lon="14.7243"><ele>3.0</ele><time>2026-04-09T09:39:26.835Z</time></trkpt><trkpt lat="42.09671" lon="14.7243967"><ele>3.2</ele><time>2026-04-09T09:39:28.836Z</time></trkpt><trkpt lat="42.096625" lon="14.724485"><ele>3.4</ele><time>2026-04-09T09:39:30.835Z</time></trkpt><trkpt lat="42.0965367" lon="14.72457"><ele>3.6000000000000005</ele><time>2026-04-09T09:39:32.835Z</time></trkpt><trkpt lat="42.0964517" lon="14.7246683"><ele>3.8000000000000003</ele><time>2026-04-09T09:39:34.835Z</time></trkpt><trkpt lat="42.096365" lon="14.7247633"><ele>4.0</ele><time>2026-04-09T09:39:36.836Z</time></trkpt><trkpt lat="42.096275" lon="14.724855"><ele>4.0</ele><time>2026-04-09T09:39:38.835Z</time></trkpt><trkpt lat="42.0961867" lon="14.7249483"><ele>4.0</ele><time>2026-04-09T09:39:40.835Z</time></trkpt><trkpt lat="42.0960983" lon="14.725035"><ele>4.0</ele><time>2026-04-09T09:39:42.836Z</time></trkpt><trkpt lat="42.0960133" lon="14.7251367"><ele>4.0</ele><time>2026-04-09T09:39:44.835Z</time></trkpt><trkpt lat="42.0959233" lon="14.725235"><ele>4.0</ele><time>2026-04-09T09:39:46.835Z</time></trkpt><trkpt lat="42.095835" lon="14.7253333"><ele>4.0</ele><time>2026-04-09T09:39:48.835Z</time></trkpt><trkpt lat="42.0957467" lon="14.7254217"><ele>4.0</ele><time>2026-04-09T09:39:50.835Z</time></trkpt><trkpt lat="42.09566" lon="14.7255133"><ele>4.0</ele><time>2026-04-09T09:39:52.835Z</time></trkpt><trkpt lat="42.095575" lon="14.7256067"><ele>4.0</ele><time>2026-04-09T09:39:54.836Z</time></trkpt><trkpt lat="42.0954917" lon="14.7257083"><ele>4.4</ele><time>2026-04-09T09:39:56.835Z</time></trkpt><trkpt lat="42.0954067" lon="14.725805"><ele>4.800000000000001</ele><time>2026-04-09T09:39:58.835Z</time></trkpt><trkpt lat="42.09532" lon="14.7258967"><ele>5.199999999999999</ele><time>2026-04-09T09:40:00.835Z</time></trkpt><trkpt lat="42.0952317" lon="14.72598"><ele>5.6</ele><time>2026-04-09T09:40:02.836Z</time></trkpt><trkpt lat="42.0951483" lon="14.7260733"><ele>6.0</ele><time>2026-04-09T09:40:04.835Z</time></trkpt><trkpt lat="42.0950733" lon="14.7261567"><ele>6.199999999999999</ele><time>2026-04-09T09:40:06.835Z</time></trkpt><trkpt lat="42.0950033" lon="14.7262383"><ele>6.3999999999999995</ele><time>2026-04-09T09:40:08.836Z</time></trkpt><trkpt lat="42.0949317" lon="14.7263133"><ele>6.6</ele><time>2026-04-09T09:40:10.835Z</time></trkpt><trkpt lat="42.0948533" lon="14.7263883"><ele>6.8</ele><time>2026-04-09T09:40:12.835Z</time></trkpt><trkpt lat="42.0947817" lon="14.72646"><ele>7.0</ele><time>2026-04-09T09:40:14.836Z</time></trkpt><trkpt lat="42.09472" lon="14.726535"><ele>7.000000000000001</ele><time>2026-04-09T09:40:16.835Z</time></trkpt><trkpt lat="42.09468" lon="14.7266067"><ele>7.0</ele><time>2026-04-09T09:40:18.835Z</time></trkpt><trkpt lat="42.0947" lon="14.7267233"><ele>7.0</ele><time>2026-04-09T09:40:21.835Z</time></trkpt><trkpt lat="42.0947533" lon="14.7268417"><ele>7.0</ele><time>2026-04-09T09:40:23.835Z</time></trkpt><trkpt lat="42.0948067" lon="14.7269517"><ele>7.000000000000001</ele><time>2026-04-09T09:40:25.835Z</time></trkpt><trkpt lat="42.0948517" lon="14.7270567"><ele>7.0</ele><time>2026-04-09T09:40:27.835Z</time></trkpt><trkpt lat="42.0948817" lon="14.7271633"><ele>6.8</ele><time>2026-04-09T09:40:29.835Z</time></trkpt><trkpt lat="42.0948583" lon="14.7272783"><ele>6.6</ele><time>2026-04-09T09:40:31.835Z</time></trkpt><trkpt lat="42.0948033" lon="14.7273633"><ele>6.3999999999999995</ele><time>2026-04-09T09:40:33.836Z</time></trkpt><trkpt lat="42.0947317" lon="14.7274583"><ele>6.199999999999999</ele><time>2026-04-09T09:40:35.835Z</time></trkpt><trkpt lat="42.0946633" lon="14.7275533"><ele>6.0</ele><time>2026-04-09T09:40:37.835Z</time></trkpt><trkpt lat="42.09459" lon="14.727635"><ele>6.0</ele><time>2026-04-09T09:40:39.835Z</time></trkpt><trkpt lat="42.0945183" lon="14.7277283"><ele>6.0</ele><time>2026-04-09T09:40:41.835Z</time></trkpt><trkpt lat="42.0944433" lon="14.7278217"><ele>6.0</ele><time>2026-04-09T09:40:43.835Z</time></trkpt><trkpt lat="42.0943717" lon="14.7279"><ele>6.0</ele><time>2026-04-09T09:40:45.835Z</time></trkpt><trkpt lat="42.09431" lon="14.72797"><ele>6.0</ele><time>2026-04-09T09:40:47.835Z</time></trkpt><trkpt lat="42.0942333" lon="14.7279433"><ele>6.0</ele><time>2026-04-09T09:40:50.835Z</time></trkpt><trkpt lat="42.09419" lon="14.7278583"><ele>6.0</ele><time>2026-04-09T09:40:52.836Z</time></trkpt><trkpt lat="42.0941217" lon="14.72776"><ele>6.0</ele><time>2026-04-09T09:40:54.835Z</time></trkpt><trkpt lat="42.0940167" lon="14.7277083"><ele>6.0</ele><time>2026-04-09T09:40:56.835Z</time></trkpt><trkpt lat="42.0939183" lon="14.72772"><ele>6.0</ele><time>2026-04-09T09:40:58.835Z</time></trkpt><trkpt lat="42.09383" lon="14.7277717"><ele>6.6</ele><time>2026-04-09T09:41:00.835Z</time></trkpt><trkpt lat="42.0937583" lon="14.727845"><ele>7.199999999999999</ele><time>2026-04-09T09:41:02.835Z</time></trkpt><trkpt lat="42.0936783" lon="14.7279"><ele>7.800000000000001</ele><time>2026-04-09T09:41:04.835Z</time></trkpt><trkpt lat="42.0935933" lon="14.727955"><ele>8.4</ele><time>2026-04-09T09:41:06.835Z</time></trkpt><trkpt lat="42.093515" lon="14.728025"><ele>9.0</ele><time>2026-04-09T09:41:08.835Z</time></trkpt><trkpt lat="42.093455" lon="14.7281033"><ele>9.0</ele><time>2026-04-09T09:41:10.835Z</time></trkpt><trkpt lat="42.09338" lon="14.7281817"><ele>9.0</ele><time>2026-04-09T09:41:12.835Z</time></trkpt><trkpt lat="42.0933133" lon="14.7282583"><ele>9.0</ele><time>2026-04-09T09:41:14.835Z</time></trkpt><trkpt lat="42.0932467" lon="14.7283333"><ele>9.0</ele><time>2026-04-09T09:41:16.835Z</time></trkpt><trkpt lat="42.0931783" lon="14.728405"><ele>9.0</ele><time>2026-04-09T09:41:18.835Z</time></trkpt><trkpt lat="42.0931033" lon="14.7284967"><ele>8.2</ele><time>2026-04-09T09:41:20.835Z</time></trkpt><trkpt lat="42.0930533" lon="14.7286183"><ele>7.4</ele><time>2026-04-09T09:41:22.836Z</time></trkpt><trkpt lat="42.0929917" lon="14.7287183"><ele>6.6</ele><time>2026-04-09T09:41:24.835Z</time></trkpt><trkpt lat="42.0929233" lon="14.7288217"><ele>5.8</ele><time>2026-04-09T09:41:26.835Z</time></trkpt><trkpt lat="42.0928467" lon="14.728925"><ele>5.0</ele><time>2026-04-09T09:41:28.835Z</time></trkpt><trkpt lat="42.0927817" lon="14.7290333"><ele>5.0</ele><time>2026-04-09T09:41:30.836Z</time></trkpt><trkpt lat="42.0927167" lon="14.72914"><ele>5.0</ele><time>2026-04-09T09:41:32.835Z</time></trkpt><trkpt lat="42.0926383" lon="14.7292517"><ele>5.0</ele><time>2026-04-09T09:41:34.835Z</time></trkpt><trkpt lat="42.092555" lon="14.7293617"><ele>5.0</ele><time>2026-04-09T09:41:36.835Z</time></trkpt><trkpt lat="42.092475" lon="14.7294567"><ele>5.0</ele><time>2026-04-09T09:41:38.835Z</time></trkpt><trkpt lat="42.09239" lon="14.72954"><ele>5.25</ele><time>2026-04-09T09:41:40.835Z</time></trkpt><trkpt lat="42.0923083" lon="14.7296333"><ele>5.5</ele><time>2026-04-09T09:41:42.835Z</time></trkpt><trkpt lat="42.0922283" lon="14.7297317"><ele>5.75</ele><time>2026-04-09T09:41:44.835Z</time></trkpt><trkpt lat="42.0921517" lon="14.7298517"><ele>6.0</ele><time>2026-04-09T09:41:46.835Z</time></trkpt><trkpt lat="42.0920733" lon="14.7299733"><ele>6.0</ele><time>2026-04-09T09:41:48.835Z</time></trkpt><trkpt lat="42.092" lon="14.7300983"><ele>6.0</ele><time>2026-04-09T09:41:50.835Z</time></trkpt><trkpt lat="42.091925" lon="14.7302117"><ele>6.0</ele><time>2026-04-09T09:41:52.835Z</time></trkpt><trkpt lat="42.0918533" lon="14.73032"><ele>6.0</ele><time>2026-04-09T09:41:54.835Z</time></trkpt><trkpt lat="42.0917867" lon="14.730435"><ele>6.0</ele><time>2026-04-09T09:41:56.836Z</time></trkpt><trkpt lat="42.0917233" lon="14.7305467"><ele>6.199999999999999</ele><time>2026-04-09T09:41:58.835Z</time></trkpt><trkpt lat="42.091655" lon="14.7306433"><ele>6.3999999999999995</ele><time>2026-04-09T09:42:00.836Z</time></trkpt><trkpt lat="42.0915883" lon="14.7307467"><ele>6.6</ele><time>2026-04-09T09:42:02.835Z</time></trkpt><trkpt lat="42.0915233" lon="14.7308617"><ele>6.8</ele><time>2026-04-09T09:42:04.835Z</time></trkpt><trkpt lat="42.0914467" lon="14.73097"><ele>7.0</ele><time>2026-04-09T09:42:06.836Z</time></trkpt><trkpt lat="42.0913667" lon="14.73107"><ele>6.6</ele><time>2026-04-09T09:42:08.835Z</time></trkpt><trkpt lat="42.0912883" lon="14.731165"><ele>6.199999999999999</ele><time>2026-04-09T09:42:10.835Z</time></trkpt><trkpt lat="42.0912133" lon="14.73126"><ele>5.8</ele><time>2026-04-09T09:42:12.836Z</time></trkpt><trkpt lat="42.0911283" lon="14.7313483"><ele>5.4</ele><time>2026-04-09T09:42:14.835Z</time></trkpt><trkpt lat="42.0910567" lon="14.73145"><ele>5.0</ele><time>2026-04-09T09:42:16.835Z</time></trkpt><trkpt lat="42.0909883" lon="14.73157"><ele>5.0</ele><time>2026-04-09T09:42:18.835Z</time></trkpt><trkpt lat="42.0909133" lon="14.7316783"><ele>5.0</ele><time>2026-04-09T09:42:20.835Z</time></trkpt><trkpt lat="42.09084" lon="14.7317883"><ele>5.0</ele><time>2026-04-09T09:42:22.835Z</time></trkpt><trkpt lat="42.09079" lon="14.73185"><ele>5.0</ele><time>2026-04-09T09:42:23.835Z</time></trkpt><trkpt lat="42.09071" lon="14.7319667"><ele>5.0</ele><time>2026-04-09T09:42:25.835Z</time></trkpt><trkpt lat="42.09063" lon="14.7320867"><ele>4.25</ele><time>2026-04-09T09:42:27.835Z</time></trkpt><trkpt lat="42.0905433" lon="14.732195"><ele>3.5</ele><time>2026-04-09T09:42:29.835Z</time></trkpt><trkpt lat="42.09046" lon="14.7322983"><ele>2.75</ele><time>2026-04-09T09:42:31.835Z</time></trkpt><trkpt lat="42.090375" lon="14.7324017"><ele>2.0</ele><time>2026-04-09T09:42:33.835Z</time></trkpt><trkpt lat="42.0902967" lon="14.7325117"><ele>2.0</ele><time>2026-04-09T09:42:35.835Z</time></trkpt><trkpt lat="42.0902167" lon="14.7326133"><ele>2.0</ele><time>2026-04-09T09:42:37.835Z</time></trkpt><trkpt lat="42.0901267" lon="14.7327233"><ele>2.0</ele><time>2026-04-09T09:42:39.835Z</time></trkpt><trkpt lat="42.09005" lon="14.732825"><ele>2.0</ele><time>2026-04-09T09:42:41.836Z</time></trkpt><trkpt lat="42.08997" lon="14.7329233"><ele>2.0</ele><time>2026-04-09T09:42:43.835Z</time></trkpt><trkpt lat="42.0898933" lon="14.733025"><ele>2.25</ele><time>2026-04-09T09:42:45.836Z</time></trkpt><trkpt lat="42.089815" lon="14.733145"><ele>2.5</ele><time>2026-04-09T09:42:47.835Z</time></trkpt><trkpt lat="42.0897483" lon="14.7332633"><ele>2.75</ele><time>2026-04-09T09:42:49.835Z</time></trkpt><trkpt lat="42.0896783" lon="14.73338"><ele>3.0</ele><time>2026-04-09T09:42:51.835Z</time></trkpt><trkpt lat="42.0896033" lon="14.7334933"><ele>2.75</ele><time>2026-04-09T09:42:53.835Z</time></trkpt><trkpt lat="42.0895267" lon="14.7336133"><ele>2.5</ele><time>2026-04-09T09:42:55.836Z</time></trkpt><trkpt lat="42.089455" lon="14.73372"><ele>2.25</ele><time>2026-04-09T09:42:57.835Z</time></trkpt><trkpt lat="42.0893733" lon="14.7338367"><ele>2.0</ele><time>2026-04-09T09:42:59.835Z</time></trkpt><trkpt lat="42.0892867" lon="14.7339483"><ele>2.0</ele><time>2026-04-09T09:43:01.835Z</time></trkpt><trkpt lat="42.0892083" lon="14.734055"><ele>2.0</ele><time>2026-04-09T09:43:03.836Z</time></trkpt><trkpt lat="42.08913" lon="14.73417"><ele>2.0</ele><time>2026-04-09T09:43:05.835Z</time></trkpt><trkpt lat="42.08905" lon="14.7342767"><ele>2.0</ele><time>2026-04-09T09:43:07.835Z</time></trkpt><trkpt lat="42.0889717" lon="14.7343883"><ele>2.5</ele><time>2026-04-09T09:43:09.835Z</time></trkpt><trkpt lat="42.0888933" lon="14.734505"><ele>3.0</ele><time>2026-04-09T09:43:11.835Z</time></trkpt><trkpt lat="42.0888117" lon="14.73461"><ele>3.5</ele><time>2026-04-09T09:43:13.835Z</time></trkpt><trkpt lat="42.0887267" lon="14.7347083"><ele>4.0</ele><time>2026-04-09T09:43:15.836Z</time></trkpt><trkpt lat="42.0886517" lon="14.73482"><ele>4.0</ele><time>2026-04-09T09:43:17.835Z</time></trkpt><trkpt lat="42.0885733" lon="14.7349183"><ele>4.0</ele><time>2026-04-09T09:43:19.835Z</time></trkpt><trkpt lat="42.0884967" lon="14.7350233"><ele>4.0</ele><time>2026-04-09T09:43:21.835Z</time></trkpt><trkpt lat="42.088425" lon="14.73513"><ele>4.0</ele><time>2026-04-09T09:43:23.835Z</time></trkpt><trkpt lat="42.08838" lon="14.73519"><ele>4.0</ele><time>2026-04-09T09:43:24.835Z</time></trkpt><trkpt lat="42.0883" lon="14.735305"><ele>4.75</ele><time>2026-04-09T09:43:26.836Z</time></trkpt><trkpt lat="42.0882283" lon="14.7354183"><ele>5.5</ele><time>2026-04-09T09:43:28.835Z</time></trkpt><trkpt lat="42.0881383" lon="14.735535"><ele>6.25</ele><time>2026-04-09T09:43:30.835Z</time></trkpt><trkpt lat="42.0880633" lon="14.735645"><ele>7.0</ele><time>2026-04-09T09:43:32.836Z</time></trkpt><trkpt lat="42.087985" lon="14.735745"><ele>7.0</ele><time>2026-04-09T09:43:34.836Z</time></trkpt><trkpt lat="42.08792" lon="14.735835"><ele>6.999999999999999</ele><time>2026-04-09T09:43:36.835Z</time></trkpt><trkpt lat="42.0878517" lon="14.7359283"><ele>6.999999999999999</ele><time>2026-04-09T09:43:38.835Z</time></trkpt><trkpt lat="42.08777" lon="14.7360183"><ele>7.0</ele><time>2026-04-09T09:43:40.835Z</time></trkpt><trkpt lat="42.0876933" lon="14.736125"><ele>7.0</ele><time>2026-04-09T09:43:42.835Z</time></trkpt><trkpt lat="42.0876133" lon="14.7362367"><ele>6.8</ele><time>2026-04-09T09:43:44.835Z</time></trkpt><trkpt lat="42.0875383" lon="14.7363517"><ele>6.6</ele><time>2026-04-09T09:43:46.835Z</time></trkpt><trkpt lat="42.08747" lon="14.73647"><ele>6.3999999999999995</ele><time>2026-04-09T09:43:48.836Z</time></trkpt><trkpt lat="42.0874033" lon="14.7365883"><ele>6.199999999999999</ele><time>2026-04-09T09:43:50.835Z</time></trkpt><trkpt lat="42.0873233" lon="14.736695"><ele>6.0</ele><time>2026-04-09T09:43:52.835Z</time></trkpt><trkpt lat="42.0872367" lon="14.7367983"><ele>5.75</ele><time>2026-04-09T09:43:54.836Z</time></trkpt><trkpt lat="42.08714" lon="14.7368917"><ele>5.5</ele><time>2026-04-09T09:43:56.835Z</time></trkpt><trkpt lat="42.087055" lon="14.736985"><ele>5.25</ele><time>2026-04-09T09:43:58.835Z</time></trkpt><trkpt lat="42.0869817" lon="14.7370883"><ele>5.0</ele><time>2026-04-09T09:44:00.835Z</time></trkpt><trkpt lat="42.0869067" lon="14.7372117"><ele>5.0</ele><time>2026-04-09T09:44:02.835Z</time></trkpt><trkpt lat="42.086835" lon="14.7373217"><ele>5.0</ele><time>2026-04-09T09:44:04.835Z</time></trkpt><trkpt lat="42.08677" lon="14.7374467"><ele>5.0</ele><time>2026-04-09T09:44:06.835Z</time></trkpt><trkpt lat="42.0866917" lon="14.7375517"><ele>5.0</ele><time>2026-04-09T09:44:08.836Z</time></trkpt><trkpt lat="42.08662" lon="14.7376583"><ele>5.0</ele><time>2026-04-09T09:44:10.835Z</time></trkpt><trkpt lat="42.086545" lon="14.73777"><ele>4.6</ele><time>2026-04-09T09:44:12.836Z</time></trkpt><trkpt lat="42.0864717" lon="14.7378817"><ele>4.2</ele><time>2026-04-09T09:44:14.835Z</time></trkpt><trkpt lat="42.08641" lon="14.7379967"><ele>3.8</ele><time>2026-04-09T09:44:16.835Z</time></trkpt><trkpt lat="42.0863383" lon="14.7381"><ele>3.4</ele><time>2026-04-09T09:44:18.835Z</time></trkpt><trkpt lat="42.0862633" lon="14.7382033"><ele>3.0</ele><time>2026-04-09T09:44:20.835Z</time></trkpt><trkpt lat="42.0861883" lon="14.7383317"><ele>3.0</ele><time>2026-04-09T09:44:22.835Z</time></trkpt><trkpt lat="42.0861167" lon="14.73846"><ele>3.0</ele><time>2026-04-09T09:44:24.835Z</time></trkpt><trkpt lat="42.0860467" lon="14.738575"><ele>3.0</ele><time>2026-04-09T09:44:26.835Z</time></trkpt><trkpt lat="42.0859817" lon="14.7386967"><ele>3.0</ele><time>2026-04-09T09:44:28.835Z</time></trkpt><trkpt lat="42.085915" lon="14.7388033"><ele>3.0</ele><time>2026-04-09T09:44:30.835Z</time></trkpt><trkpt lat="42.0858417" lon="14.7389133"><ele>3.25</ele><time>2026-04-09T09:44:32.836Z</time></trkpt><trkpt lat="42.0857583" lon="14.7390367"><ele>3.5</ele><time>2026-04-09T09:44:34.835Z</time></trkpt><trkpt lat="42.0856883" lon="14.7391517"><ele>3.75</ele><time>2026-04-09T09:44:36.835Z</time></trkpt><trkpt lat="42.0856083" lon="14.739275"><ele>4.0</ele><time>2026-04-09T09:44:38.835Z</time></trkpt><trkpt lat="42.08554" lon="14.7393983"><ele>3.6</ele><time>2026-04-09T09:44:40.835Z</time></trkpt><trkpt lat="42.0854717" lon="14.7395167"><ele>3.2</ele><time>2026-04-09T09:44:42.836Z</time></trkpt><trkpt lat="42.0854" lon="14.7396317"><ele>2.8000000000000003</ele><time>2026-04-09T09:44:44.835Z</time></trkpt><trkpt lat="42.0853317" lon="14.739745"><ele>2.4000000000000004</ele><time>2026-04-09T09:44:46.835Z</time></trkpt><trkpt lat="42.0852567" lon="14.7398567"><ele>2.0</ele><time>2026-04-09T09:44:48.835Z</time></trkpt><trkpt lat="42.08518" lon="14.7399717"><ele>2.0</ele><time>2026-04-09T09:44:50.836Z</time></trkpt><trkpt lat="42.0851017" lon="14.7401033"><ele>2.0</ele><time>2026-04-09T09:44:52.836Z</time></trkpt><trkpt lat="42.0850633" lon="14.7401717"><ele>2.0</ele><time>2026-04-09T09:44:53.836Z</time></trkpt><trkpt lat="42.08499" lon="14.7402917"><ele>2.0</ele><time>2026-04-09T09:44:55.835Z</time></trkpt><trkpt lat="42.0849233" lon="14.7404217"><ele>2.0</ele><time>2026-04-09T09:44:57.836Z</time></trkpt><trkpt lat="42.08487" lon="14.7405433"><ele>3.0</ele><time>2026-04-09T09:44:59.835Z</time></trkpt><trkpt lat="42.084815" lon="14.7406733"><ele>4.0</ele><time>2026-04-09T09:45:01.835Z</time></trkpt><trkpt lat="42.0847583" lon="14.7408067"><ele>5.0</ele><time>2026-04-09T09:45:03.836Z</time></trkpt><trkpt lat="42.0846933" lon="14.740935"><ele>6.0</ele><time>2026-04-09T09:45:05.835Z</time></trkpt><trkpt lat="42.0846267" lon="14.741075"><ele>6.0</ele><time>2026-04-09T09:45:07.835Z</time></trkpt><trkpt lat="42.0845583" lon="14.7412017"><ele>6.0</ele><time>2026-04-09T09:45:09.835Z</time></trkpt><trkpt lat="42.0844983" lon="14.74132"><ele>6.0</ele><time>2026-04-09T09:45:11.836Z</time></trkpt><trkpt lat="42.08443" lon="14.74144"><ele>6.0</ele><time>2026-04-09T09:45:13.835Z</time></trkpt><trkpt lat="42.0843667" lon="14.7415483"><ele>6.0</ele><time>2026-04-09T09:45:15.836Z</time></trkpt><trkpt lat="42.084295" lon="14.7416433"><ele>6.0</ele><time>2026-04-09T09:45:17.836Z</time></trkpt><trkpt lat="42.08422" lon="14.741745"><ele>6.0</ele><time>2026-04-09T09:45:19.835Z</time></trkpt><trkpt lat="42.084145" lon="14.7418617"><ele>6.0</ele><time>2026-04-09T09:45:21.835Z</time></trkpt><trkpt lat="42.0840967" lon="14.7419467"><ele>6.0</ele><time>2026-04-09T09:45:23.835Z</time></trkpt><trkpt lat="42.0840467" lon="14.7420317"><ele>6.0</ele><time>2026-04-09T09:46:13.835Z</time></trkpt><trkpt lat="42.0840017" lon="14.7420983"><ele>6.0</ele><time>2026-04-09T09:46:16.836Z</time></trkpt><trkpt lat="42.083945" lon="14.7421983"><ele>5.8</ele><time>2026-04-09T09:46:19.835Z</time></trkpt><trkpt lat="42.083905" lon="14.7422683"><ele>5.6</ele><time>2026-04-09T09:46:21.835Z</time></trkpt><trkpt lat="42.083845" lon="14.74235"><ele>5.4</ele><time>2026-04-09T09:46:23.835Z</time></trkpt><trkpt lat="42.0837717" lon="14.742475"><ele>5.2</ele><time>2026-04-09T09:46:25.835Z</time></trkpt><trkpt lat="42.0837033" lon="14.7425917"><ele>5.0</ele><time>2026-04-09T09:46:27.835Z</time></trkpt><trkpt lat="42.0836333" lon="14.742715"><ele>4.4</ele><time>2026-04-09T09:46:29.835Z</time></trkpt><trkpt lat="42.0835567" lon="14.7428317"><ele>3.8</ele><time>2026-04-09T09:46:31.836Z</time></trkpt><trkpt lat="42.0834883" lon="14.7429367"><ele>3.2</ele><time>2026-04-09T09:46:33.835Z</time></trkpt><trkpt lat="42.083425" lon="14.743025"><ele>2.6</ele><time>2026-04-09T09:46:35.835Z</time></trkpt><trkpt lat="42.08337" lon="14.7431067"><ele>2.0</ele><time>2026-04-09T09:46:37.835Z</time></trkpt><trkpt lat="42.0833283" lon="14.74318"><ele>2.0</ele><time>2026-04-09T09:46:39.835Z</time></trkpt><trkpt lat="42.0832833" lon="14.7432583"><ele>1.9999999999999998</ele><time>2026-04-09T09:46:43.835Z</time></trkpt><trkpt lat="42.0832383" lon="14.7433283"><ele>2.0</ele><time>2026-04-09T09:46:48.836Z</time></trkpt><trkpt lat="42.083185" lon="14.743405"><ele>2.0</ele><time>2026-04-09T09:46:53.836Z</time></trkpt><trkpt lat="42.083135" lon="14.7434717"><ele>1.9999999999999998</ele><time>2026-04-09T09:46:57.835Z</time></trkpt><trkpt lat="42.083095" lon="14.743555"><ele>2.0</ele><time>2026-04-09T09:47:00.835Z</time></trkpt><trkpt lat="42.0830367" lon="14.74363"><ele>2.0</ele><time>2026-04-09T09:47:03.836Z</time></trkpt><trkpt lat="42.08299" lon="14.7437083"><ele>2.142857142857143</ele><time>2026-04-09T09:47:05.836Z</time></trkpt><trkpt lat="42.0829483" lon="14.743785"><ele>2.2857142857142856</ele><time>2026-04-09T09:47:07.835Z</time></trkpt><trkpt lat="42.082895" lon="14.7438567"><ele>2.4285714285714284</ele><time>2026-04-09T09:47:09.835Z</time></trkpt><trkpt lat="42.082845" lon="14.743945"><ele>2.571428571428571</ele><time>2026-04-09T09:47:11.835Z</time></trkpt><trkpt lat="42.0828033" lon="14.7440117"><ele>2.7142857142857144</ele><time>2026-04-09T09:47:13.835Z</time></trkpt><trkpt lat="42.0827633" lon="14.7440933"><ele>2.8571428571428568</ele><time>2026-04-09T09:47:15.835Z</time></trkpt><trkpt lat="42.082735" lon="14.7441733"><ele>3.0</ele><time>2026-04-09T09:47:17.835Z</time></trkpt><trkpt lat="42.0826967" lon="14.7442583"><ele>3.0</ele><time>2026-04-09T09:47:21.835Z</time></trkpt><trkpt lat="42.0826467" lon="14.74434"><ele>3.0</ele><time>2026-04-09T09:47:25.835Z</time></trkpt><trkpt lat="42.082595" lon="14.7444083"><ele>3.0</ele><time>2026-04-09T09:47:28.835Z</time></trkpt><trkpt lat="42.0825417" lon="14.744475"><ele>3.0</ele><time>2026-04-09T09:47:30.835Z</time></trkpt><trkpt lat="42.0824717" lon="14.7445433"><ele>3.0</ele><time>2026-04-09T09:47:32.835Z</time></trkpt><trkpt lat="42.0824117" lon="14.744605"><ele>3.0</ele><time>2026-04-09T09:47:34.836Z</time></trkpt><trkpt lat="42.0823517" lon="14.7446967"><ele>3.1666666666666665</ele><time>2026-04-09T09:47:36.836Z</time></trkpt><trkpt lat="42.0822983" lon="14.7447933"><ele>3.333333333333333</ele><time>2026-04-09T09:47:38.835Z</time></trkpt><trkpt lat="42.0822433" lon="14.7448867"><ele>3.5</ele><time>2026-04-09T09:47:40.835Z</time></trkpt><trkpt lat="42.0821967" lon="14.7449833"><ele>3.6666666666666665</ele><time>2026-04-09T09:47:42.835Z</time></trkpt><trkpt lat="42.0821467" lon="14.745065"><ele>3.833333333333333</ele><time>2026-04-09T09:47:44.835Z</time></trkpt><trkpt lat="42.0820917" lon="14.7451283"><ele>4.0</ele><time>2026-04-09T09:47:46.835Z</time></trkpt><trkpt lat="42.0820283" lon="14.7452367"><ele>4.0</ele><time>2026-04-09T09:47:48.835Z</time></trkpt><trkpt lat="42.08197" lon="14.745355"><ele>4.0</ele><time>2026-04-09T09:47:50.835Z</time></trkpt><trkpt lat="42.08191" lon="14.7454833"><ele>4.0</ele><time>2026-04-09T09:47:52.835Z</time></trkpt><trkpt lat="42.0818517" lon="14.745605"><ele>4.0</ele><time>2026-04-09T09:47:54.835Z</time></trkpt><trkpt lat="42.0817867" lon="14.7457133"><ele>4.0</ele><time>2026-04-09T09:47:56.835Z</time></trkpt><trkpt lat="42.0817233" lon="14.7458283"><ele>4.0</ele><time>2026-04-09T09:47:58.836Z</time></trkpt><trkpt lat="42.0816567" lon="14.745935"><ele>4.0</ele><time>2026-04-09T09:48:00.835Z</time></trkpt><trkpt lat="42.0815783" lon="14.7460317"><ele>4.0</ele><time>2026-04-09T09:48:02.836Z</time></trkpt><trkpt lat="42.081515" lon="14.7461367"><ele>4.0</ele><time>2026-04-09T09:48:04.835Z</time></trkpt><trkpt lat="42.0814767" lon="14.7462217"><ele>4.0</ele><time>2026-04-09T09:48:06.835Z</time></trkpt><trkpt lat="42.0814417" lon="14.746305"><ele>3.833333333333333</ele><time>2026-04-09T09:48:09.835Z</time></trkpt><trkpt lat="42.0813933" lon="14.7463667"><ele>3.6666666666666665</ele><time>2026-04-09T09:48:12.835Z</time></trkpt><trkpt lat="42.0813267" lon="14.74643"><ele>3.5</ele><time>2026-04-09T09:48:15.836Z</time></trkpt><trkpt lat="42.0812767" lon="14.7465033"><ele>3.333333333333333</ele><time>2026-04-09T09:48:17.835Z</time></trkpt><trkpt lat="42.081215" lon="14.7465933"><ele>3.1666666666666665</ele><time>2026-04-09T09:48:19.835Z</time></trkpt><trkpt lat="42.08115" lon="14.746715"><ele>3.0</ele><time>2026-04-09T09:48:21.836Z</time></trkpt><trkpt lat="42.0810833" lon="14.7468283"><ele>2.8</ele><time>2026-04-09T09:48:23.835Z</time></trkpt><trkpt lat="42.0810583" lon="14.74691"><ele>2.5999999999999996</ele><time>2026-04-09T09:48:24.835Z</time></trkpt><trkpt lat="42.0809983" lon="14.7470183"><ele>2.4000000000000004</ele><time>2026-04-09T09:48:26.836Z</time></trkpt><trkpt lat="42.0809367" lon="14.74713"><ele>2.2</ele><time>2026-04-09T09:48:28.835Z</time></trkpt><trkpt lat="42.0808717" lon="14.7472567"><ele>2.0</ele><time>2026-04-09T09:48:30.836Z</time></trkpt><trkpt lat="42.0808017" lon="14.7473883"><ele>2.0</ele><time>2026-04-09T09:48:32.835Z</time></trkpt><trkpt lat="42.080735" lon="14.747515"><ele>2.0</ele><time>2026-04-09T09:48:34.835Z</time></trkpt><trkpt lat="42.0806533" lon="14.74762"><ele>2.0</ele><time>2026-04-09T09:48:36.835Z</time></trkpt><trkpt lat="42.0805817" lon="14.7477233"><ele>2.0</ele><time>2026-04-09T09:48:38.835Z</time></trkpt><trkpt lat="42.080515" lon="14.747825"><ele>2.0</ele><time>2026-04-09T09:48:40.835Z</time></trkpt><trkpt lat="42.0804533" lon="14.74794"><ele>2.0</ele><time>2026-04-09T09:48:42.835Z</time></trkpt><trkpt lat="42.0803933" lon="14.74806"><ele>2.0</ele><time>2026-04-09T09:48:44.835Z</time></trkpt><trkpt lat="42.0803383" lon="14.748135"><ele>2.0</ele><time>2026-04-09T09:48:45.835Z</time></trkpt><trkpt lat="42.0802617" lon="14.7482583"><ele>2.0</ele><time>2026-04-09T09:48:47.835Z</time></trkpt><trkpt lat="42.0801917" lon="14.7483817"><ele>2.0</ele><time>2026-04-09T09:48:49.835Z</time></trkpt><trkpt lat="42.0801217" lon="14.748505"><ele>2.0</ele><time>2026-04-09T09:48:51.836Z</time></trkpt><trkpt lat="42.0800783" lon="14.748575"><ele>2.0</ele><time>2026-04-09T09:48:52.835Z</time></trkpt><trkpt lat="42.0800133" lon="14.748695"><ele>2.0</ele><time>2026-04-09T09:48:54.835Z</time></trkpt><trkpt lat="42.0799467" lon="14.7488133"><ele>2.0</ele><time>2026-04-09T09:48:56.835Z</time></trkpt><trkpt lat="42.0798833" lon="14.7489283"><ele>2.0</ele><time>2026-04-09T09:48:58.836Z</time></trkpt><trkpt lat="42.0798167" lon="14.7490533"><ele>2.0</ele><time>2026-04-09T09:49:00.836Z</time></trkpt><trkpt lat="42.0797433" lon="14.7491717"><ele>2.0</ele><time>2026-04-09T09:49:02.835Z</time></trkpt><trkpt lat="42.0796783" lon="14.7492933"><ele>2.0</ele><time>2026-04-09T09:49:04.835Z</time></trkpt><trkpt lat="42.0796083" lon="14.749415"><ele>2.0</ele><time>2026-04-09T09:49:06.835Z</time></trkpt><trkpt lat="42.0795367" lon="14.7495317"><ele>2.0</ele><time>2026-04-09T09:49:08.835Z</time></trkpt><trkpt lat="42.0794617" lon="14.7496533"><ele>2.0</ele><time>2026-04-09T09:49:10.836Z</time></trkpt><trkpt lat="42.079395" lon="14.749775"><ele>2.0</ele><time>2026-04-09T09:49:12.835Z</time></trkpt><trkpt lat="42.0793317" lon="14.749895"><ele>2.0</ele><time>2026-04-09T09:49:14.835Z</time></trkpt><trkpt lat="42.0792717" lon="14.7500267"><ele>2.0</ele><time>2026-04-09T09:49:16.835Z</time></trkpt><trkpt lat="42.0792133" lon="14.7501517"><ele>2.0</ele><time>2026-04-09T09:49:18.835Z</time></trkpt><trkpt lat="42.0791433" lon="14.7502867"><ele>2.0</ele><time>2026-04-09T09:49:20.836Z</time></trkpt><trkpt lat="42.0790717" lon="14.7504133"><ele>2.0</ele><time>2026-04-09T09:49:22.835Z</time></trkpt><trkpt lat="42.079015" lon="14.7505283"><ele>2.0</ele><time>2026-04-09T09:49:24.835Z</time></trkpt><trkpt lat="42.0789567" lon="14.75065"><ele>2.0</ele><time>2026-04-09T09:49:26.835Z</time></trkpt><trkpt lat="42.0788917" lon="14.7507633"><ele>2.0</ele><time>2026-04-09T09:49:28.836Z</time></trkpt><trkpt lat="42.0788317" lon="14.7508833"><ele>2.0</ele><time>2026-04-09T09:49:30.835Z</time></trkpt><trkpt lat="42.07877" lon="14.7509967"><ele>2.0</ele><time>2026-04-09T09:49:32.835Z</time></trkpt><trkpt lat="42.0787267" lon="14.751105"><ele>2.1666666666666665</ele><time>2026-04-09T09:49:34.835Z</time></trkpt><trkpt lat="42.0786867" lon="14.7511883"><ele>2.333333333333333</ele><time>2026-04-09T09:49:36.835Z</time></trkpt><trkpt lat="42.07862" lon="14.7512217"><ele>2.5</ele><time>2026-04-09T09:49:39.835Z</time></trkpt><trkpt lat="42.0785283" lon="14.75121"><ele>2.6666666666666665</ele><time>2026-04-09T09:49:42.835Z</time></trkpt><trkpt lat="42.0784567" lon="14.75119"><ele>2.8333333333333335</ele><time>2026-04-09T09:49:44.835Z</time></trkpt><trkpt lat="42.0783783" lon="14.7511817"><ele>3.0</ele><time>2026-04-09T09:49:46.835Z</time></trkpt><trkpt lat="42.0782933" lon="14.75117"><ele>3.5999999999999996</ele><time>2026-04-09T09:49:48.835Z</time></trkpt><trkpt lat="42.0782017" lon="14.751145"><ele>4.199999999999999</ele><time>2026-04-09T09:49:50.835Z</time></trkpt><trkpt lat="42.0781117" lon="14.7511117"><ele>4.8</ele><time>2026-04-09T09:49:52.835Z</time></trkpt><trkpt lat="42.078015" lon="14.7510683"><ele>5.3999999999999995</ele><time>2026-04-09T09:49:54.835Z</time></trkpt><trkpt lat="42.07792" lon="14.7510183"><ele>6.0</ele><time>2026-04-09T09:49:56.835Z</time></trkpt><trkpt lat="42.0778267" lon="14.75096"><ele>6.0</ele><time>2026-04-09T09:49:58.835Z</time></trkpt><trkpt lat="42.0777483" lon="14.7509017"><ele>6.0</ele><time>2026-04-09T09:50:00.835Z</time></trkpt><trkpt lat="42.077675" lon="14.750865"><ele>6.0</ele><time>2026-04-09T09:50:02.835Z</time></trkpt><trkpt lat="42.0776033" lon="14.75089"><ele>6.0</ele><time>2026-04-09T09:50:05.835Z</time></trkpt><trkpt lat="42.0775317" lon="14.7509633"><ele>6.0</ele><time>2026-04-09T09:50:08.835Z</time></trkpt><trkpt lat="42.0774517" lon="14.751"><ele>6.0</ele><time>2026-04-09T09:50:10.835Z</time></trkpt><trkpt lat="42.0773733" lon="14.75104"><ele>6.0</ele><time>2026-04-09T09:50:12.835Z</time></trkpt><trkpt lat="42.0772883" lon="14.7511083"><ele>6.0</ele><time>2026-04-09T09:50:14.836Z</time></trkpt><trkpt lat="42.077225" lon="14.75121"><ele>6.0</ele><time>2026-04-09T09:50:16.835Z</time></trkpt><trkpt lat="42.0771583" lon="14.75133"><ele>6.0</ele><time>2026-04-09T09:50:18.835Z</time></trkpt><trkpt lat="42.07709" lon="14.7514383"><ele>6.0</ele><time>2026-04-09T09:50:20.835Z</time></trkpt><trkpt lat="42.0770233" lon="14.7515467"><ele>6.0</ele><time>2026-04-09T09:50:22.835Z</time></trkpt><trkpt lat="42.07696" lon="14.7516483"><ele>6.0</ele><time>2026-04-09T09:50:24.835Z</time></trkpt><trkpt lat="42.0768883" lon="14.7517667"><ele>6.0</ele><time>2026-04-09T09:50:26.835Z</time></trkpt><trkpt lat="42.07683" lon="14.7518867"><ele>6.0</ele><time>2026-04-09T09:50:28.835Z</time></trkpt><trkpt lat="42.0767717" lon="14.7519883"><ele>6.0</ele><time>2026-04-09T09:50:30.835Z</time></trkpt><trkpt lat="42.0767233" lon="14.75209"><ele>5.833333333333333</ele><time>2026-04-09T09:50:32.835Z</time></trkpt><trkpt lat="42.0766717" lon="14.752205"><ele>5.666666666666667</ele><time>2026-04-09T09:50:34.835Z</time></trkpt><trkpt lat="42.07664" lon="14.752325"><ele>5.5</ele><time>2026-04-09T09:50:36.835Z</time></trkpt><trkpt lat="42.0766383" lon="14.75243"><ele>5.333333333333334</ele><time>2026-04-09T09:50:38.835Z</time></trkpt><trkpt lat="42.0766483" lon="14.7525383"><ele>5.166666666666667</ele><time>2026-04-09T09:50:41.835Z</time></trkpt><trkpt lat="42.0766717" lon="14.752635"><ele>5.0</ele><time>2026-04-09T09:50:43.836Z</time></trkpt><trkpt lat="42.0766867" lon="14.7527417"><ele>5.0</ele><time>2026-04-09T09:50:45.835Z</time></trkpt><trkpt lat="42.07666" lon="14.752855"><ele>5.0</ele><time>2026-04-09T09:50:47.836Z</time></trkpt><trkpt lat="42.0766067" lon="14.7529617"><ele>5.0</ele><time>2026-04-09T09:50:49.835Z</time></trkpt><trkpt lat="42.0765517" lon="14.7530633"><ele>5.0</ele><time>2026-04-09T09:50:51.835Z</time></trkpt><trkpt lat="42.0765033" lon="14.7531333"><ele>5.0</ele><time>2026-04-09T09:50:53.835Z</time></trkpt><trkpt lat="42.0764267" lon="14.7531367"><ele>5.0</ele><time>2026-04-09T09:50:55.835Z</time></trkpt><trkpt lat="42.0763167" lon="14.75315"><ele>5.4</ele><time>2026-04-09T09:50:57.835Z</time></trkpt><trkpt lat="42.07623" lon="14.7531767"><ele>5.8</ele><time>2026-04-09T09:50:58.835Z</time></trkpt><trkpt lat="42.0761667" lon="14.7532183"><ele>6.199999999999999</ele><time>2026-04-09T09:50:59.835Z</time></trkpt><trkpt lat="42.0760783" lon="14.7533267"><ele>6.6</ele><time>2026-04-09T09:51:01.835Z</time></trkpt><trkpt lat="42.0760033" lon="14.7534483"><ele>7.0</ele><time>2026-04-09T09:51:03.835Z</time></trkpt><trkpt lat="42.0759317" lon="14.7535633"><ele>7.0</ele><time>2026-04-09T09:51:05.836Z</time></trkpt><trkpt lat="42.07586" lon="14.753675"><ele>6.999999999999999</ele><time>2026-04-09T09:51:07.835Z</time></trkpt><trkpt lat="42.075795" lon="14.75379"><ele>6.999999999999999</ele><time>2026-04-09T09:51:09.835Z</time></trkpt><trkpt lat="42.0757333" lon="14.7539067"><ele>7.0</ele><time>2026-04-09T09:51:11.835Z</time></trkpt><trkpt lat="42.07567" lon="14.75402"><ele>7.0</ele><time>2026-04-09T09:51:13.836Z</time></trkpt><trkpt lat="42.0756" lon="14.7541567"><ele>7.0</ele><time>2026-04-09T09:51:15.835Z</time></trkpt><trkpt lat="42.07555" lon="14.7543"><ele>6.999999999999999</ele><time>2026-04-09T09:51:17.835Z</time></trkpt><trkpt lat="42.0755417" lon="14.75445"><ele>6.999999999999999</ele><time>2026-04-09T09:51:19.835Z</time></trkpt><trkpt lat="42.0755417" lon="14.7545933"><ele>7.0</ele><time>2026-04-09T09:51:21.836Z</time></trkpt><trkpt lat="42.075495" lon="14.754715"><ele>7.0</ele><time>2026-04-09T09:51:23.835Z</time></trkpt><trkpt lat="42.07542" lon="14.754795"><ele>6.8</ele><time>2026-04-09T09:51:25.835Z</time></trkpt><trkpt lat="42.07532" lon="14.754795"><ele>6.6</ele><time>2026-04-09T09:51:27.835Z</time></trkpt><trkpt lat="42.0752433" lon="14.7548783"><ele>6.3999999999999995</ele><time>2026-04-09T09:51:29.836Z</time></trkpt><trkpt lat="42.0751717" lon="14.7549917"><ele>6.199999999999999</ele><time>2026-04-09T09:51:31.835Z</time></trkpt><trkpt lat="42.0751" lon="14.7551117"><ele>6.0</ele><time>2026-04-09T09:51:33.835Z</time></trkpt><trkpt lat="42.07503" lon="14.7552367"><ele>6.0</ele><time>2026-04-09T09:51:35.835Z</time></trkpt><trkpt lat="42.0749533" lon="14.7553567"><ele>6.0</ele><time>2026-04-09T09:51:37.835Z</time></trkpt><trkpt lat="42.0748817" lon="14.75547"><ele>6.0</ele><time>2026-04-09T09:51:39.835Z</time></trkpt><trkpt lat="42.0748133" lon="14.7555783"><ele>6.0</ele><time>2026-04-09T09:51:41.835Z</time></trkpt><trkpt lat="42.07474" lon="14.7556883"><ele>6.0</ele><time>2026-04-09T09:51:43.835Z</time></trkpt><trkpt lat="42.074675" lon="14.7558067"><ele>6.0</ele><time>2026-04-09T09:51:45.835Z</time></trkpt><trkpt lat="42.074605" lon="14.755925"><ele>6.0</ele><time>2026-04-09T09:51:47.836Z</time></trkpt><trkpt lat="42.0745383" lon="14.7560467"><ele>6.0</ele><time>2026-04-09T09:51:49.835Z</time></trkpt><trkpt lat="42.0744783" lon="14.7561783"><ele>6.0</ele><time>2026-04-09T09:51:51.835Z</time></trkpt><trkpt lat="42.074425" lon="14.756315"><ele>6.0</ele><time>2026-04-09T09:51:53.835Z</time></trkpt><trkpt lat="42.0743683" lon="14.7564317"><ele>6.0</ele><time>2026-04-09T09:51:55.835Z</time></trkpt><trkpt lat="42.0743217" lon="14.7565567"><ele>6.0</ele><time>2026-04-09T09:51:57.835Z</time></trkpt><trkpt lat="42.0742733" lon="14.75669"><ele>6.0</ele><time>2026-04-09T09:51:59.836Z</time></trkpt><trkpt lat="42.0742267" lon="14.7567817"><ele>6.0</ele><time>2026-04-09T09:52:01.836Z</time></trkpt><trkpt lat="42.074175" lon="14.7568733"><ele>6.199999999999999</ele><time>2026-04-09T09:52:03.835Z</time></trkpt><trkpt lat="42.07412" lon="14.7569517"><ele>6.3999999999999995</ele><time>2026-04-09T09:52:05.836Z</time></trkpt><trkpt lat="42.0740767" lon="14.7570483"><ele>6.6</ele><time>2026-04-09T09:52:07.835Z</time></trkpt><trkpt lat="42.074025" lon="14.7571467"><ele>6.8</ele><time>2026-04-09T09:52:09.835Z</time></trkpt><trkpt lat="42.0739683" lon="14.7572717"><ele>7.0</ele><time>2026-04-09T09:52:11.836Z</time></trkpt><trkpt lat="42.07392" lon="14.7573933"><ele>7.0</ele><time>2026-04-09T09:52:13.836Z</time></trkpt><trkpt lat="42.0738667" lon="14.7575167"><ele>6.999999999999999</ele><time>2026-04-09T09:52:15.836Z</time></trkpt><trkpt lat="42.073805" lon="14.75764"><ele>6.999999999999999</ele><time>2026-04-09T09:52:17.836Z</time></trkpt><trkpt lat="42.0737417" lon="14.7577633"><ele>7.0</ele><time>2026-04-09T09:52:19.835Z</time></trkpt><trkpt lat="42.0736833" lon="14.7578617"><ele>7.0</ele><time>2026-04-09T09:52:21.835Z</time></trkpt><trkpt lat="42.073645" lon="14.7579367"><ele>6.6</ele><time>2026-04-09T09:52:23.835Z</time></trkpt><trkpt lat="42.073595" lon="14.757995"><ele>6.199999999999999</ele><time>2026-04-09T09:52:25.835Z</time></trkpt><trkpt lat="42.0734733" lon="14.7580967"><ele>5.8</ele><time>2026-04-09T09:52:28.836Z</time></trkpt><trkpt lat="42.0733967" lon="14.7582283"><ele>5.4</ele><time>2026-04-09T09:52:30.835Z</time></trkpt><trkpt lat="42.0733217" lon="14.7583317"><ele>5.0</ele><time>2026-04-09T09:52:32.835Z</time></trkpt><trkpt lat="42.0732667" lon="14.758495"><ele>4.4</ele><time>2026-04-09T09:52:34.836Z</time></trkpt><trkpt lat="42.0732417" lon="14.758585"><ele>3.8</ele><time>2026-04-09T09:52:35.835Z</time></trkpt><trkpt lat="42.073185" lon="14.7587267"><ele>3.2</ele><time>2026-04-09T09:52:37.835Z</time></trkpt><trkpt lat="42.0731283" lon="14.758855"><ele>2.6</ele><time>2026-04-09T09:52:39.835Z</time></trkpt><trkpt lat="42.0730633" lon="14.7589733"><ele>2.0</ele><time>2026-04-09T09:52:41.835Z</time></trkpt><trkpt lat="42.0730417" lon="14.75907"><ele>2.0</ele><time>2026-04-09T09:52:42.835Z</time></trkpt><trkpt lat="42.0730083" lon="14.7591667"><ele>2.0</ele><time>2026-04-09T09:52:43.835Z</time></trkpt><trkpt lat="42.07298" lon="14.759265"><ele>2.0</ele><time>2026-04-09T09:52:44.836Z</time></trkpt><trkpt lat="42.072955" lon="14.7593717"><ele>2.0</ele><time>2026-04-09T09:52:45.836Z</time></trkpt><trkpt lat="42.07294" lon="14.7596217"><ele>2.0</ele><time>2026-04-09T09:52:46.835Z</time></trkpt><trkpt lat="42.0729133" lon="14.7597267"><ele>2.2</ele><time>2026-04-09T09:52:47.835Z</time></trkpt><trkpt lat="42.0728867" lon="14.75984"><ele>2.4000000000000004</ele><time>2026-04-09T09:52:48.835Z</time></trkpt><trkpt lat="42.0728583" lon="14.7599183"><ele>2.5999999999999996</ele><time>2026-04-09T09:52:49.835Z</time></trkpt><trkpt lat="42.0728" lon="14.7600833"><ele>2.8</ele><time>2026-04-09T09:52:51.835Z</time></trkpt><trkpt lat="42.0727717" lon="14.76019"><ele>3.0</ele><time>2026-04-09T09:52:52.835Z</time></trkpt><trkpt lat="42.0727483" lon="14.7602917"><ele>3.2</ele><time>2026-04-09T09:52:53.835Z</time></trkpt><trkpt lat="42.0727233" lon="14.7603717"><ele>3.4</ele><time>2026-04-09T09:52:54.835Z</time></trkpt><trkpt lat="42.072665" lon="14.760505"><ele>3.6000000000000005</ele><time>2026-04-09T09:52:56.835Z</time></trkpt><trkpt lat="42.072605" lon="14.7606183"><ele>3.8000000000000003</ele><time>2026-04-09T09:52:58.835Z</time></trkpt><trkpt lat="42.0725483" lon="14.76071"><ele>4.0</ele><time>2026-04-09T09:53:00.835Z</time></trkpt><trkpt lat="42.0725" lon="14.7607933"><ele>4.0</ele><time>2026-04-09T09:53:02.835Z</time></trkpt><trkpt lat="42.07244" lon="14.7608933"><ele>4.0</ele><time>2026-04-09T09:53:04.836Z</time></trkpt><trkpt lat="42.0724017" lon="14.7610167"><ele>4.0</ele><time>2026-04-09T09:53:06.835Z</time></trkpt><trkpt lat="42.07235" lon="14.76113"><ele>4.0</ele><time>2026-04-09T09:53:08.836Z</time></trkpt><trkpt lat="42.0722867" lon="14.7612167"><ele>4.0</ele><time>2026-04-09T09:53:10.835Z</time></trkpt><trkpt lat="42.0722333" lon="14.7613467"><ele>4.166666666666666</ele><time>2026-04-09T09:53:12.835Z</time></trkpt><trkpt lat="42.0721567" lon="14.76148"><ele>4.333333333333333</ele><time>2026-04-09T09:53:14.836Z</time></trkpt><trkpt lat="42.072115" lon="14.7615517"><ele>4.5</ele><time>2026-04-09T09:53:15.835Z</time></trkpt><trkpt lat="42.07208" lon="14.7616233"><ele>4.666666666666667</ele><time>2026-04-09T09:53:16.835Z</time></trkpt><trkpt lat="42.0720467" lon="14.7616983"><ele>4.833333333333334</ele><time>2026-04-09T09:53:17.836Z</time></trkpt><trkpt lat="42.0720117" lon="14.7617783"><ele>5.0</ele><time>2026-04-09T09:53:18.835Z</time></trkpt><trkpt lat="42.0719783" lon="14.7618567"><ele>4.833333333333334</ele><time>2026-04-09T09:53:19.836Z</time></trkpt><trkpt lat="42.0719467" lon="14.7619333"><ele>4.666666666666667</ele><time>2026-04-09T09:53:20.835Z</time></trkpt><trkpt lat="42.0719183" lon="14.7620117"><ele>4.5</ele><time>2026-04-09T09:53:21.835Z</time></trkpt><trkpt lat="42.0718917" lon="14.76209"><ele>4.333333333333333</ele><time>2026-04-09T09:53:22.835Z</time></trkpt><trkpt lat="42.0718617" lon="14.762165"><ele>4.166666666666666</ele><time>2026-04-09T09:53:23.836Z</time></trkpt><trkpt lat="42.0718067" lon="14.7623083"><ele>4.0</ele><time>2026-04-09T09:53:25.836Z</time></trkpt><trkpt lat="42.0717517" lon="14.7624517"><ele>4.0</ele><time>2026-04-09T09:53:27.835Z</time></trkpt><trkpt lat="42.07169" lon="14.762595"><ele>4.0</ele><time>2026-04-09T09:53:29.835Z</time></trkpt><trkpt lat="42.0716567" lon="14.7626733"><ele>4.0</ele><time>2026-04-09T09:53:30.835Z</time></trkpt><trkpt lat="42.071625" lon="14.7627467"><ele>4.0</ele><time>2026-04-09T09:53:31.836Z</time></trkpt><trkpt lat="42.07158" lon="14.762895"><ele>4.0</ele><time>2026-04-09T09:53:33.835Z</time></trkpt><trkpt lat="42.0715317" lon="14.7630317"><ele>4.0</ele><time>2026-04-09T09:53:35.835Z</time></trkpt><trkpt lat="42.0714767" lon="14.7631733"><ele>4.0</ele><time>2026-04-09T09:53:37.835Z</time></trkpt><trkpt lat="42.071425" lon="14.7633033"><ele>4.0</ele><time>2026-04-09T09:53:39.835Z</time></trkpt><trkpt lat="42.0713767" lon="14.76344"><ele>4.0</ele><time>2026-04-09T09:53:41.835Z</time></trkpt><trkpt lat="42.07133" lon="14.76358"><ele>3.5</ele><time>2026-04-09T09:53:43.835Z</time></trkpt><trkpt lat="42.0712717" lon="14.7637133"><ele>3.0</ele><time>2026-04-09T09:53:45.835Z</time></trkpt><trkpt lat="42.0712133" lon="14.7638517"><ele>2.5</ele><time>2026-04-09T09:53:47.835Z</time></trkpt><trkpt lat="42.07116" lon="14.7639867"><ele>2.0</ele><time>2026-04-09T09:53:49.835Z</time></trkpt><trkpt lat="42.07111" lon="14.7641233"><ele>2.0</ele><time>2026-04-09T09:53:51.835Z</time></trkpt><trkpt lat="42.071055" lon="14.7642433"><ele>2.0</ele><time>2026-04-09T09:53:53.835Z</time></trkpt><trkpt lat="42.071" lon="14.7643617"><ele>2.0</ele><time>2026-04-09T09:53:55.836Z</time></trkpt><trkpt lat="42.0709833" lon="14.7644833"><ele>2.0</ele><time>2026-04-09T09:53:57.836Z</time></trkpt><trkpt lat="42.0710083" lon="14.7645633"><ele>2.0</ele><time>2026-04-09T09:53:59.835Z</time></trkpt><trkpt lat="42.0709167" lon="14.7646233"><ele>1.9999999999999998</ele><time>2026-04-09T09:54:04.835Z</time></trkpt><trkpt lat="42.07084" lon="14.7646717"><ele>2.0</ele><time>2026-04-09T09:54:06.835Z</time></trkpt><trkpt lat="42.0708033" lon="14.7647433"><ele>2.0</ele><time>2026-04-09T09:54:07.836Z</time></trkpt><trkpt lat="42.0707617" lon="14.7648183"><ele>2.0</ele><time>2026-04-09T09:54:08.835Z</time></trkpt><trkpt lat="42.0707083" lon="14.7649267"><ele>1.9999999999999998</ele><time>2026-04-09T09:54:09.835Z</time></trkpt><trkpt lat="42.0706717" lon="14.765025"><ele>2.0</ele><time>2026-04-09T09:54:10.835Z</time></trkpt><trkpt lat="42.0706117" lon="14.7651717"><ele>2.4000000000000004</ele><time>2026-04-09T09:54:12.835Z</time></trkpt><trkpt lat="42.0705483" lon="14.7652967"><ele>2.8000000000000003</ele><time>2026-04-09T09:54:14.835Z</time></trkpt><trkpt lat="42.0704967" lon="14.765425"><ele>3.2</ele><time>2026-04-09T09:54:16.835Z</time></trkpt><trkpt lat="42.070465" lon="14.7655583"><ele>3.6</ele><time>2026-04-09T09:54:18.835Z</time></trkpt><trkpt lat="42.070455" lon="14.765685"><ele>4.0</ele><time>2026-04-09T09:54:20.835Z</time></trkpt><trkpt lat="42.0704533" lon="14.765825"><ele>3.9999999999999996</ele><time>2026-04-09T09:54:22.835Z</time></trkpt><trkpt lat="42.0704433" lon="14.76596"><ele>4.0</ele><time>2026-04-09T09:54:24.835Z</time></trkpt><trkpt lat="42.0704267" lon="14.7660733"><ele>4.0</ele><time>2026-04-09T09:54:26.835Z</time></trkpt><trkpt lat="42.070395" lon="14.7661867"><ele>4.0</ele><time>2026-04-09T09:54:28.835Z</time></trkpt><trkpt lat="42.070355" lon="14.766285"><ele>3.9999999999999996</ele><time>2026-04-09T09:54:30.835Z</time></trkpt><trkpt lat="42.0702967" lon="14.7663533"><ele>4.0</ele><time>2026-04-09T09:54:33.835Z</time></trkpt><trkpt lat="42.0702483" lon="14.76643"><ele>3.9999999999999996</ele><time>2026-04-09T09:54:35.835Z</time></trkpt><trkpt lat="42.070205" lon="14.766525"><ele>4.0</ele><time>2026-04-09T09:54:37.835Z</time></trkpt><trkpt lat="42.0701567" lon="14.7666"><ele>4.0</ele><time>2026-04-09T09:54:39.835Z</time></trkpt><trkpt lat="42.070105" lon="14.7666933"><ele>4.0</ele><time>2026-04-09T09:54:41.835Z</time></trkpt><trkpt lat="42.0700467" lon="14.76676"><ele>3.9999999999999996</ele><time>2026-04-09T09:54:43.835Z</time></trkpt><trkpt lat="42.0700383" lon="14.76691"><ele>4.0</ele><time>2026-04-09T09:54:44.836Z</time></trkpt><trkpt lat="42.0700417" lon="14.7670183"><ele>3.9999999999999996</ele><time>2026-04-09T09:54:45.835Z</time></trkpt><trkpt lat="42.070055" lon="14.767145"><ele>4.0</ele><time>2026-04-09T09:54:46.835Z</time></trkpt><trkpt lat="42.0700183" lon="14.7672933"><ele>4.0</ele><time>2026-04-09T09:54:47.835Z</time></trkpt><trkpt lat="42.0700233" lon="14.7674033"><ele>4.0</ele><time>2026-04-09T09:54:49.835Z</time></trkpt><trkpt lat="42.0699883" lon="14.7675017"><ele>3.9999999999999996</ele><time>2026-04-09T09:54:51.835Z</time></trkpt><trkpt lat="42.069945" lon="14.767565"><ele>4.0</ele><time>2026-04-09T09:54:53.836Z</time></trkpt><trkpt lat="42.069875" lon="14.7676"><ele>4.0</ele><time>2026-04-09T09:54:57.835Z</time></trkpt><trkpt lat="42.0698233" lon="14.7676633"><ele>4.0</ele><time>2026-04-09T09:54:59.835Z</time></trkpt><trkpt lat="42.0697517" lon="14.7677567"><ele>4.0</ele><time>2026-04-09T09:55:01.835Z</time></trkpt><trkpt lat="42.0696733" lon="14.7678683"><ele>4.0</ele><time>2026-04-09T09:55:03.835Z</time></trkpt><trkpt lat="42.0696083" lon="14.76797"><ele>4.0</ele><time>2026-04-09T09:55:05.835Z</time></trkpt><trkpt lat="42.069545" lon="14.7680983"><ele>4.166666666666666</ele><time>2026-04-09T09:55:07.835Z</time></trkpt><trkpt lat="42.0695017" lon="14.7682183"><ele>4.333333333333333</ele><time>2026-04-09T09:55:09.836Z</time></trkpt><trkpt lat="42.0694683" lon="14.768305"><ele>4.5</ele><time>2026-04-09T09:55:10.836Z</time></trkpt><trkpt lat="42.0694383" lon="14.7683867"><ele>4.666666666666667</ele><time>2026-04-09T09:55:11.835Z</time></trkpt><trkpt lat="42.0694033" lon="14.7684767"><ele>4.833333333333334</ele><time>2026-04-09T09:55:12.836Z</time></trkpt><trkpt lat="42.0693717" lon="14.7686167"><ele>5.0</ele><time>2026-04-09T09:55:14.835Z</time></trkpt><trkpt lat="42.0693733" lon="14.7687933"><ele>5.0</ele><time>2026-04-09T09:55:16.835Z</time></trkpt><trkpt lat="42.06938" lon="14.7688883"><ele>5.0</ele><time>2026-04-09T09:55:17.835Z</time></trkpt><trkpt lat="42.0693933" lon="14.7689733"><ele>5.0</ele><time>2026-04-09T09:55:18.835Z</time></trkpt><trkpt lat="42.0694133" lon="14.769055"><ele>5.0</ele><time>2026-04-09T09:55:19.835Z</time></trkpt><trkpt lat="42.0694583" lon="14.769205"><ele>5.0</ele><time>2026-04-09T09:55:21.835Z</time></trkpt><trkpt lat="42.0694917" lon="14.7693517"><ele>5.0</ele><time>2026-04-09T09:55:23.835Z</time></trkpt><trkpt lat="42.069535" lon="14.7694917"><ele>4.8</ele><time>2026-04-09T09:55:25.835Z</time></trkpt><trkpt lat="42.0695917" lon="14.7696117"><ele>4.6</ele><time>2026-04-09T09:55:27.835Z</time></trkpt><trkpt lat="42.06965" lon="14.7697383"><ele>4.4</ele><time>2026-04-09T09:55:29.835Z</time></trkpt><trkpt lat="42.0697167" lon="14.76984"><ele>4.2</ele><time>2026-04-09T09:55:31.835Z</time></trkpt><trkpt lat="42.0698017" lon="14.7699117"><ele>4.0</ele><time>2026-04-09T09:55:33.835Z</time></trkpt><trkpt lat="42.0698633" lon="14.76997"><ele>3.9999999999999996</ele><time>2026-04-09T09:55:35.835Z</time></trkpt><trkpt lat="42.0699483" lon="14.7700267"><ele>4.0</ele><time>2026-04-09T09:55:38.835Z</time></trkpt><trkpt lat="42.0700233" lon="14.7700767"><ele>4.0</ele><time>2026-04-09T09:55:40.835Z</time></trkpt><trkpt lat="42.07002" lon="14.7701833"><ele>4.0</ele><time>2026-04-09T09:55:43.835Z</time></trkpt><trkpt lat="42.0699883" lon="14.7702717"><ele>3.9999999999999996</ele><time>2026-04-09T09:55:46.835Z</time></trkpt><trkpt lat="42.0699617" lon="14.7703767"><ele>4.0</ele><time>2026-04-09T09:55:48.835Z</time></trkpt><trkpt lat="42.069915" lon="14.770435"><ele>3.8000000000000003</ele><time>2026-04-09T09:55:50.835Z</time></trkpt><trkpt lat="42.0698717" lon="14.770525"><ele>3.6000000000000005</ele><time>2026-04-09T09:55:52.835Z</time></trkpt><trkpt lat="42.06983" lon="14.7706267"><ele>3.4</ele><time>2026-04-09T09:55:54.835Z</time></trkpt><trkpt lat="42.0697967" lon="14.7707833"><ele>3.2</ele><time>2026-04-09T09:55:56.835Z</time></trkpt><trkpt lat="42.0697333" lon="14.7708817"><ele>3.0</ele><time>2026-04-09T09:55:58.836Z</time></trkpt><trkpt lat="42.069665" lon="14.7709883"><ele>3.2</ele><time>2026-04-09T09:56:00.835Z</time></trkpt><trkpt lat="42.0696217" lon="14.7712283"><ele>3.4</ele><time>2026-04-09T09:56:03.835Z</time></trkpt><trkpt lat="42.0695567" lon="14.7712517"><ele>3.6000000000000005</ele><time>2026-04-09T09:56:07.835Z</time></trkpt><trkpt lat="42.0694767" lon="14.771215"><ele>3.8000000000000003</ele><time>2026-04-09T09:56:09.835Z</time></trkpt><trkpt lat="42.0694217" lon="14.7711333"><ele>4.0</ele><time>2026-04-09T09:56:11.835Z</time></trkpt><trkpt lat="42.06933" lon="14.771085"><ele>4.0</ele><time>2026-04-09T09:56:13.835Z</time></trkpt><trkpt lat="42.0692333" lon="14.7710267"><ele>4.0</ele><time>2026-04-09T09:56:15.835Z</time></trkpt><trkpt lat="42.06914" lon="14.7709733"><ele>4.0</ele><time>2026-04-09T09:56:17.835Z</time></trkpt><trkpt lat="42.0689367" lon="14.77095"><ele>4.0</ele><time>2026-04-09T09:56:19.835Z</time></trkpt><trkpt lat="42.0688417" lon="14.7709333"><ele>4.333333333333333</ele><time>2026-04-09T09:56:20.835Z</time></trkpt><trkpt lat="42.0687433" lon="14.7709417"><ele>4.666666666666666</ele><time>2026-04-09T09:56:22.835Z</time></trkpt><trkpt lat="42.06868" lon="14.7709333"><ele>5.0</ele><time>2026-04-09T09:56:24.835Z</time></trkpt><trkpt lat="42.0686083" lon="14.7709183"><ele>5.333333333333333</ele><time>2026-04-09T09:56:26.836Z</time></trkpt><trkpt lat="42.06853" lon="14.7709417"><ele>5.666666666666667</ele><time>2026-04-09T09:56:28.836Z</time></trkpt><trkpt lat="42.068445" lon="14.770965"><ele>6.0</ele><time>2026-04-09T09:56:30.835Z</time></trkpt><trkpt lat="42.0683667" lon="14.7710217"><ele>5.8</ele><time>2026-04-09T09:56:32.835Z</time></trkpt><trkpt lat="42.068305" lon="14.771105"><ele>5.6</ele><time>2026-04-09T09:56:34.836Z</time></trkpt><trkpt lat="42.0682467" lon="14.77123"><ele>5.4</ele><time>2026-04-09T09:56:36.835Z</time></trkpt><trkpt lat="42.0681567" lon="14.7712933"><ele>5.2</ele><time>2026-04-09T09:56:38.835Z</time></trkpt><trkpt lat="42.068115" lon="14.7713617"><ele>5.0</ele><time>2026-04-09T09:56:39.835Z</time></trkpt><trkpt lat="42.068035" lon="14.7714933"><ele>5.0</ele><time>2026-04-09T09:56:41.835Z</time></trkpt><trkpt lat="42.0679733" lon="14.771605"><ele>5.0</ele><time>2026-04-09T09:56:43.835Z</time></trkpt><trkpt lat="42.0679083" lon="14.7717533"><ele>5.0</ele><time>2026-04-09T09:56:45.836Z</time></trkpt><trkpt lat="42.0678867" lon="14.771835"><ele>5.0</ele><time>2026-04-09T09:56:46.835Z</time></trkpt><trkpt lat="42.067865" lon="14.7719167"><ele>5.0</ele><time>2026-04-09T09:56:47.835Z</time></trkpt><trkpt lat="42.067835" lon="14.7720083"><ele>5.0</ele><time>2026-04-09T09:56:48.836Z</time></trkpt><trkpt lat="42.0678083" lon="14.7720883"><ele>5.25</ele><time>2026-04-09T09:56:49.835Z</time></trkpt><trkpt lat="42.06775" lon="14.7722267"><ele>5.5</ele><time>2026-04-09T09:56:51.835Z</time></trkpt><trkpt lat="42.0677267" lon="14.7723783"><ele>5.75</ele><time>2026-04-09T09:56:53.835Z</time></trkpt><trkpt lat="42.067735" lon="14.77265"><ele>6.0</ele><time>2026-04-09T09:56:55.836Z</time></trkpt><trkpt lat="42.0677417" lon="14.7727533"><ele>6.199999999999999</ele><time>2026-04-09T09:56:58.835Z</time></trkpt><trkpt lat="42.0677517" lon="14.7728933"><ele>6.3999999999999995</ele><time>2026-04-09T09:57:01.835Z</time></trkpt><trkpt lat="42.0677383" lon="14.7730383"><ele>6.6</ele><time>2026-04-09T09:57:03.835Z</time></trkpt><trkpt lat="42.0677083" lon="14.7731767"><ele>6.8</ele><time>2026-04-09T09:57:05.836Z</time></trkpt><trkpt lat="42.0676867" lon="14.773335"><ele>7.0</ele><time>2026-04-09T09:57:07.836Z</time></trkpt><trkpt lat="42.0676383" lon="14.7734917"><ele>7.0</ele><time>2026-04-09T09:57:09.836Z</time></trkpt><trkpt lat="42.0675933" lon="14.7736183"><ele>6.999999999999999</ele><time>2026-04-09T09:57:11.835Z</time></trkpt><trkpt lat="42.0675533" lon="14.7737383"><ele>6.999999999999999</ele><time>2026-04-09T09:57:13.835Z</time></trkpt><trkpt lat="42.0675033" lon="14.7738683"><ele>7.0</ele><time>2026-04-09T09:57:15.836Z</time></trkpt><trkpt lat="42.0674617" lon="14.7739917"><ele>7.0</ele><time>2026-04-09T09:57:17.835Z</time></trkpt><trkpt lat="42.0674267" lon="14.774105"><ele>6.8</ele><time>2026-04-09T09:57:19.835Z</time></trkpt><trkpt lat="42.067395" lon="14.7742067"><ele>6.6</ele><time>2026-04-09T09:57:21.835Z</time></trkpt><trkpt lat="42.0673233" lon="14.7742683"><ele>6.3999999999999995</ele><time>2026-04-09T09:57:24.835Z</time></trkpt><trkpt lat="42.0672183" lon="14.7743283"><ele>6.199999999999999</ele><time>2026-04-09T09:57:26.835Z</time></trkpt><trkpt lat="42.0671483" lon="14.7744"><ele>6.0</ele><time>2026-04-09T09:57:28.835Z</time></trkpt><trkpt lat="42.06706" lon="14.774475"><ele>6.0</ele><time>2026-04-09T09:57:30.835Z</time></trkpt><trkpt lat="42.066985" lon="14.77458"><ele>6.0</ele><time>2026-04-09T09:57:32.835Z</time></trkpt><trkpt lat="42.066945" lon="14.7746767"><ele>6.0</ele><time>2026-04-09T09:57:34.836Z</time></trkpt><trkpt lat="42.0669333" lon="14.774785"><ele>6.0</ele><time>2026-04-09T09:57:37.835Z</time></trkpt><trkpt lat="42.0669467" lon="14.7748817"><ele>6.0</ele><time>2026-04-09T09:57:40.835Z</time></trkpt><trkpt lat="42.0669533" lon="14.7749667"><ele>6.0</ele><time>2026-04-09T09:57:42.835Z</time></trkpt><trkpt lat="42.0669317" lon="14.7750667"><ele>6.0</ele><time>2026-04-09T09:57:45.835Z</time></trkpt><trkpt lat="42.0668733" lon="14.7751467"><ele>6.0</ele><time>2026-04-09T09:57:49.835Z</time></trkpt><trkpt lat="42.06685" lon="14.7752283"><ele>6.0</ele><time>2026-04-09T09:57:52.835Z</time></trkpt><trkpt lat="42.0667617" lon="14.775265"><ele>6.0</ele><time>2026-04-09T09:57:57.836Z</time></trkpt><trkpt lat="42.0666933" lon="14.7753217"><ele>6.0</ele><time>2026-04-09T09:57:59.835Z</time></trkpt><trkpt lat="42.0666317" lon="14.77537"><ele>6.0</ele><time>2026-04-09T09:58:01.835Z</time></trkpt><trkpt lat="42.0665683" lon="14.7754617"><ele>5.3999999999999995</ele><time>2026-04-09T09:58:04.835Z</time></trkpt><trkpt lat="42.0665183" lon="14.775575"><ele>4.8</ele><time>2026-04-09T09:58:06.835Z</time></trkpt><trkpt lat="42.0664667" lon="14.7757033"><ele>4.199999999999999</ele><time>2026-04-09T09:58:08.835Z</time></trkpt><trkpt lat="42.0664167" lon="14.7758267"><ele>3.5999999999999996</ele><time>2026-04-09T09:58:10.835Z</time></trkpt><trkpt lat="42.0663617" lon="14.7759567"><ele>3.0</ele><time>2026-04-09T09:58:12.836Z</time></trkpt><trkpt lat="42.0663117" lon="14.7760883"><ele>3.0</ele><time>2026-04-09T09:58:14.835Z</time></trkpt><trkpt lat="42.0662617" lon="14.7762283"><ele>3.0</ele><time>2026-04-09T09:58:16.835Z</time></trkpt><trkpt lat="42.0662083" lon="14.7763683"><ele>3.0</ele><time>2026-04-09T09:58:18.835Z</time></trkpt><trkpt lat="42.0661533" lon="14.7765017"><ele>3.0</ele><time>2026-04-09T09:58:20.836Z</time></trkpt><trkpt lat="42.0660967" lon="14.7766417"><ele>3.0</ele><time>2026-04-09T09:58:22.836Z</time></trkpt><trkpt lat="42.066045" lon="14.776775"><ele>3.0</ele><time>2026-04-09T09:58:24.835Z</time></trkpt><trkpt lat="42.0659917" lon="14.7769117"><ele>3.0</ele><time>2026-04-09T09:58:26.835Z</time></trkpt><trkpt lat="42.0659433" lon="14.7770483"><ele>3.0</ele><time>2026-04-09T09:58:28.835Z</time></trkpt><trkpt lat="42.06589" lon="14.77718"><ele>3.0</ele><time>2026-04-09T09:58:30.836Z</time></trkpt><trkpt lat="42.0658383" lon="14.7773083"><ele>3.0</ele><time>2026-04-09T09:58:32.835Z</time></trkpt><trkpt lat="42.0657867" lon="14.77743"><ele>3.0</ele><time>2026-04-09T09:58:34.835Z</time></trkpt><trkpt lat="42.065735" lon="14.777555"><ele>3.0</ele><time>2026-04-09T09:58:36.835Z</time></trkpt><trkpt lat="42.0656817" lon="14.7776683"><ele>3.0</ele><time>2026-04-09T09:58:38.835Z</time></trkpt><trkpt lat="42.065625" lon="14.7777867"><ele>3.0</ele><time>2026-04-09T09:58:40.835Z</time></trkpt><trkpt lat="42.0655733" lon="14.77791"><ele>3.0</ele><time>2026-04-09T09:58:42.836Z</time></trkpt><trkpt lat="42.0655233" lon="14.7780467"><ele>3.0</ele><time>2026-04-09T09:58:44.835Z</time></trkpt><trkpt lat="42.06547" lon="14.7781767"><ele>3.0</ele><time>2026-04-09T09:58:46.835Z</time></trkpt><trkpt lat="42.06544" lon="14.7782517"><ele>3.0</ele><time>2026-04-09T09:58:47.836Z</time></trkpt><trkpt lat="42.0653867" lon="14.7783933"><ele>2.8</ele><time>2026-04-09T09:58:49.836Z</time></trkpt><trkpt lat="42.065335" lon="14.7785333"><ele>2.5999999999999996</ele><time>2026-04-09T09:58:51.835Z</time></trkpt><trkpt lat="42.0652833" lon="14.7786617"><ele>2.4000000000000004</ele><time>2026-04-09T09:58:53.835Z</time></trkpt><trkpt lat="42.0652333" lon="14.7787767"><ele>2.2</ele><time>2026-04-09T09:58:55.835Z</time></trkpt><trkpt lat="42.0651817" lon="14.77892"><ele>2.0</ele><time>2026-04-09T09:58:57.835Z</time></trkpt><trkpt lat="42.0651283" lon="14.7790667"><ele>2.0</ele><time>2026-04-09T09:58:59.835Z</time></trkpt><trkpt lat="42.065075" lon="14.7791967"><ele>2.0</ele><time>2026-04-09T09:59:01.835Z</time></trkpt><trkpt lat="42.065045" lon="14.7792733"><ele>2.0</ele><time>2026-04-09T09:59:02.835Z</time></trkpt><trkpt lat="42.0649983" lon="14.7794133"><ele>2.0</ele><time>2026-04-09T09:59:04.835Z</time></trkpt><trkpt lat="42.0649517" lon="14.77954"><ele>2.0</ele><time>2026-04-09T09:59:06.835Z</time></trkpt><trkpt lat="42.0649083" lon="14.779645"><ele>2.0</ele><time>2026-04-09T09:59:08.835Z</time></trkpt><trkpt lat="42.064865" lon="14.77976"><ele>2.0</ele><time>2026-04-09T09:59:10.835Z</time></trkpt><trkpt lat="42.0648183" lon="14.7798683"><ele>2.0</ele><time>2026-04-09T09:59:12.835Z</time></trkpt><trkpt lat="42.0647683" lon="14.7799717"><ele>2.0</ele><time>2026-04-09T09:59:14.835Z</time></trkpt><trkpt lat="42.0647233" lon="14.780085"><ele>2.0</ele><time>2026-04-09T09:59:16.835Z</time></trkpt><trkpt lat="42.06467" lon="14.780205"><ele>2.4000000000000004</ele><time>2026-04-09T09:59:18.835Z</time></trkpt><trkpt lat="42.064615" lon="14.7803283"><ele>2.8000000000000003</ele><time>2026-04-09T09:59:20.835Z</time></trkpt><trkpt lat="42.064565" lon="14.78045"><ele>3.2</ele><time>2026-04-09T09:59:22.835Z</time></trkpt><trkpt lat="42.0645133" lon="14.7805883"><ele>3.6</ele><time>2026-04-09T09:59:24.835Z</time></trkpt><trkpt lat="42.0644633" lon="14.78073"><ele>4.0</ele><time>2026-04-09T09:59:26.835Z</time></trkpt><trkpt lat="42.06442" lon="14.7808683"><ele>4.0</ele><time>2026-04-09T09:59:28.835Z</time></trkpt><trkpt lat="42.0643667" lon="14.7810017"><ele>4.0</ele><time>2026-04-09T09:59:30.835Z</time></trkpt><trkpt lat="42.06432" lon="14.78113"><ele>4.0</ele><time>2026-04-09T09:59:32.835Z</time></trkpt><trkpt lat="42.06427" lon="14.781255"><ele>4.0</ele><time>2026-04-09T09:59:34.836Z</time></trkpt><trkpt lat="42.06423" lon="14.7813917"><ele>4.0</ele><time>2026-04-09T09:59:36.835Z</time></trkpt><trkpt lat="42.0641883" lon="14.7815317"><ele>3.8000000000000003</ele><time>2026-04-09T09:59:38.835Z</time></trkpt><trkpt lat="42.0641533" lon="14.7816617"><ele>3.6000000000000005</ele><time>2026-04-09T09:59:40.835Z</time></trkpt><trkpt lat="42.0641183" lon="14.7817783"><ele>3.4</ele><time>2026-04-09T09:59:42.835Z</time></trkpt><trkpt lat="42.0640867" lon="14.7819017"><ele>3.2</ele><time>2026-04-09T09:59:44.835Z</time></trkpt><trkpt lat="42.064075" lon="14.782025"><ele>3.0</ele><time>2026-04-09T09:59:46.835Z</time></trkpt><trkpt lat="42.0641083" lon="14.7821317"><ele>3.0</ele><time>2026-04-09T09:59:48.835Z</time></trkpt><trkpt lat="42.0641733" lon="14.7821983"><ele>3.0</ele><time>2026-04-09T09:59:50.835Z</time></trkpt><trkpt lat="42.0642633" lon="14.7822483"><ele>3.0</ele><time>2026-04-09T09:59:52.835Z</time></trkpt><trkpt lat="42.06434" lon="14.7822567"><ele>3.0</ele><time>2026-04-09T09:59:54.836Z</time></trkpt><trkpt lat="42.0643967" lon="14.782295"><ele>3.0</ele><time>2026-04-09T09:59:57.835Z</time></trkpt><trkpt lat="42.0644" lon="14.7823883"><ele>3.0</ele><time>2026-04-09T10:00:05.835Z</time></trkpt><trkpt lat="42.0643333" lon="14.7824667"><ele>3.0</ele><time>2026-04-09T10:00:08.835Z</time></trkpt><trkpt lat="42.0642567" lon="14.7824367"><ele>3.0</ele><time>2026-04-09T10:00:10.835Z</time></trkpt><trkpt lat="42.0641717" lon="14.7824167"><ele>3.0</ele><time>2026-04-09T10:00:12.835Z</time></trkpt><trkpt lat="42.0640733" lon="14.7824233"><ele>3.0</ele><time>2026-04-09T10:00:14.836Z</time></trkpt><trkpt lat="42.0639783" lon="14.7824817"><ele>3.0</ele><time>2026-04-09T10:00:16.836Z</time></trkpt><trkpt lat="42.0638917" lon="14.7825717"><ele>2.8</ele><time>2026-04-09T10:00:18.835Z</time></trkpt><trkpt lat="42.0638183" lon="14.78268"><ele>2.5999999999999996</ele><time>2026-04-09T10:00:20.836Z</time></trkpt><trkpt lat="42.0637583" lon="14.7828067"><ele>2.4000000000000004</ele><time>2026-04-09T10:00:22.835Z</time></trkpt><trkpt lat="42.0637033" lon="14.7829283"><ele>2.2</ele><time>2026-04-09T10:00:24.835Z</time></trkpt><trkpt lat="42.0636483" lon="14.7830717"><ele>2.0</ele><time>2026-04-09T10:00:26.835Z</time></trkpt><trkpt lat="42.0636133" lon="14.7831467"><ele>2.0</ele><time>2026-04-09T10:00:27.835Z</time></trkpt><trkpt lat="42.06355" lon="14.783295"><ele>2.0</ele><time>2026-04-09T10:00:29.835Z</time></trkpt><trkpt lat="42.0635067" lon="14.78343"><ele>2.0</ele><time>2026-04-09T10:00:31.835Z</time></trkpt><trkpt lat="42.0634583" lon="14.78356"><ele>2.0</ele><time>2026-04-09T10:00:33.836Z</time></trkpt><trkpt lat="42.0634117" lon="14.783685"><ele>2.0</ele><time>2026-04-09T10:00:35.835Z</time></trkpt><trkpt lat="42.0633867" lon="14.7838133"><ele>2.0</ele><time>2026-04-09T10:00:37.835Z</time></trkpt><trkpt lat="42.0633833" lon="14.7839333"><ele>2.0</ele><time>2026-04-09T10:00:39.835Z</time></trkpt><trkpt lat="42.0633617" lon="14.7840383"><ele>2.0</ele><time>2026-04-09T10:00:41.835Z</time></trkpt><trkpt lat="42.063315" lon="14.7841467"><ele>2.0</ele><time>2026-04-09T10:00:43.835Z</time></trkpt><trkpt lat="42.0632517" lon="14.78426"><ele>2.0</ele><time>2026-04-09T10:00:45.835Z</time></trkpt><trkpt lat="42.0631967" lon="14.7843817"><ele>2.0</ele><time>2026-04-09T10:00:47.836Z</time></trkpt><trkpt lat="42.0631417" lon="14.7845033"><ele>2.0</ele><time>2026-04-09T10:00:49.835Z</time></trkpt><trkpt lat="42.06309" lon="14.7846333"><ele>2.0</ele><time>2026-04-09T10:00:51.836Z</time></trkpt><trkpt lat="42.0630417" lon="14.7847583"><ele>2.0</ele><time>2026-04-09T10:00:53.836Z</time></trkpt><trkpt lat="42.0629917" lon="14.7848917"><ele>2.0</ele><time>2026-04-09T10:00:55.835Z</time></trkpt><trkpt lat="42.0629483" lon="14.7850183"><ele>2.0</ele><time>2026-04-09T10:00:57.835Z</time></trkpt><trkpt lat="42.0628967" lon="14.78515"><ele>2.0</ele><time>2026-04-09T10:00:59.836Z</time></trkpt><trkpt lat="42.0628417" lon="14.7852717"><ele>2.0</ele><time>2026-04-09T10:01:01.835Z</time></trkpt><trkpt lat="42.062785" lon="14.78541"><ele>2.0</ele><time>2026-04-09T10:01:03.835Z</time></trkpt><trkpt lat="42.0627383" lon="14.785555"><ele>2.0</ele><time>2026-04-09T10:01:05.835Z</time></trkpt><trkpt lat="42.0626867" lon="14.7857"><ele>2.0</ele><time>2026-04-09T10:01:07.835Z</time></trkpt><trkpt lat="42.0626367" lon="14.7858367"><ele>2.0</ele><time>2026-04-09T10:01:09.835Z</time></trkpt><trkpt lat="42.062585" lon="14.7859633"><ele>2.0</ele><time>2026-04-09T10:01:11.836Z</time></trkpt><trkpt lat="42.0625333" lon="14.7860983"><ele>1.75</ele><time>2026-04-09T10:01:13.835Z</time></trkpt><trkpt lat="42.06248" lon="14.7862383"><ele>1.5</ele><time>2026-04-09T10:01:15.835Z</time></trkpt><trkpt lat="42.0624333" lon="14.7863817"><ele>1.25</ele><time>2026-04-09T10:01:17.835Z</time></trkpt><trkpt lat="42.06238" lon="14.78652"><ele>1.0</ele><time>2026-04-09T10:01:19.835Z</time></trkpt><trkpt lat="42.06233" lon="14.78665"><ele>1.0</ele><time>2026-04-09T10:01:21.835Z</time></trkpt><trkpt lat="42.0622733" lon="14.786785"><ele>1.0</ele><time>2026-04-09T10:01:23.835Z</time></trkpt><trkpt lat="42.0622183" lon="14.786915"><ele>1.0</ele><time>2026-04-09T10:01:25.835Z</time></trkpt><trkpt lat="42.0621667" lon="14.78705"><ele>1.0</ele><time>2026-04-09T10:01:27.835Z</time></trkpt><trkpt lat="42.0621217" lon="14.787175"><ele>1.0</ele><time>2026-04-09T10:01:29.836Z</time></trkpt><trkpt lat="42.06207" lon="14.787305"><ele>1.2000000000000002</ele><time>2026-04-09T10:01:31.835Z</time></trkpt><trkpt lat="42.0620183" lon="14.787435"><ele>1.4000000000000001</ele><time>2026-04-09T10:01:33.836Z</time></trkpt><trkpt lat="42.061965" lon="14.7875633"><ele>1.6</ele><time>2026-04-09T10:01:35.835Z</time></trkpt><trkpt lat="42.0619217" lon="14.7876883"><ele>1.8</ele><time>2026-04-09T10:01:37.835Z</time></trkpt><trkpt lat="42.0619033" lon="14.7878167"><ele>2.0</ele><time>2026-04-09T10:01:39.835Z</time></trkpt><trkpt lat="42.0618867" lon="14.7879583"><ele>2.0</ele><time>2026-04-09T10:01:41.835Z</time></trkpt><trkpt lat="42.0618333" lon="14.7880733"><ele>2.0</ele><time>2026-04-09T10:01:43.835Z</time></trkpt><trkpt lat="42.0617583" lon="14.7881783"><ele>2.0</ele><time>2026-04-09T10:01:45.836Z</time></trkpt><trkpt lat="42.0616867" lon="14.7882833"><ele>2.0</ele><time>2026-04-09T10:01:47.835Z</time></trkpt><trkpt lat="42.0616217" lon="14.7883983"><ele>2.0</ele><time>2026-04-09T10:01:49.835Z</time></trkpt><trkpt lat="42.0615717" lon="14.78852"><ele>2.0</ele><time>2026-04-09T10:01:51.835Z</time></trkpt><trkpt lat="42.0615233" lon="14.78864"><ele>2.0</ele><time>2026-04-09T10:01:53.835Z</time></trkpt><trkpt lat="42.0614733" lon="14.7887617"><ele>2.0</ele><time>2026-04-09T10:01:55.835Z</time></trkpt><trkpt lat="42.06142" lon="14.7888917"><ele>2.0</ele><time>2026-04-09T10:01:57.835Z</time></trkpt><trkpt lat="42.06138" lon="14.78901"><ele>2.0</ele><time>2026-04-09T10:01:59.835Z</time></trkpt><trkpt lat="42.0613383" lon="14.7891317"><ele>2.0</ele><time>2026-04-09T10:02:01.835Z</time></trkpt><trkpt lat="42.0613233" lon="14.7892333"><ele>1.9999999999999998</ele><time>2026-04-09T10:02:03.835Z</time></trkpt><trkpt lat="42.0613383" lon="14.7893317"><ele>2.0</ele><time>2026-04-09T10:02:07.835Z</time></trkpt><trkpt lat="42.0613317" lon="14.7894167"><ele>2.0</ele><time>2026-04-09T10:02:11.835Z</time></trkpt><trkpt lat="42.0612667" lon="14.789435"><ele>1.9999999999999998</ele><time>2026-04-09T10:02:14.835Z</time></trkpt><trkpt lat="42.0612017" lon="14.7894417"><ele>2.0</ele><time>2026-04-09T10:02:16.835Z</time></trkpt><trkpt lat="42.0611433" lon="14.7895067"><ele>2.0</ele><time>2026-04-09T10:02:18.835Z</time></trkpt><trkpt lat="42.0611033" lon="14.7895967"><ele>2.2</ele><time>2026-04-09T10:02:20.835Z</time></trkpt><trkpt lat="42.0610633" lon="14.7896967"><ele>2.4000000000000004</ele><time>2026-04-09T10:02:22.835Z</time></trkpt><trkpt lat="42.061025" lon="14.7898083"><ele>2.5999999999999996</ele><time>2026-04-09T10:02:24.835Z</time></trkpt><trkpt lat="42.0609833" lon="14.78993"><ele>2.8</ele><time>2026-04-09T10:02:26.835Z</time></trkpt><trkpt lat="42.0609417" lon="14.7900433"><ele>3.0</ele><time>2026-04-09T10:02:28.835Z</time></trkpt><trkpt lat="42.06091" lon="14.7901583"><ele>3.0</ele><time>2026-04-09T10:02:30.835Z</time></trkpt><trkpt lat="42.0608817" lon="14.79025"><ele>3.0</ele><time>2026-04-09T10:02:32.835Z</time></trkpt><trkpt lat="42.0608467" lon="14.790345"><ele>3.0</ele><time>2026-04-09T10:02:35.835Z</time></trkpt><trkpt lat="42.06081" lon="14.7904467"><ele>3.0</ele><time>2026-04-09T10:02:38.835Z</time></trkpt><trkpt lat="42.060765" lon="14.790595"><ele>3.0</ele><time>2026-04-09T10:02:40.835Z</time></trkpt><trkpt lat="42.0607333" lon="14.7907217"><ele>3.0</ele><time>2026-04-09T10:02:42.835Z</time></trkpt><trkpt lat="42.0607" lon="14.7908483"><ele>3.0</ele><time>2026-04-09T10:02:44.836Z</time></trkpt><trkpt lat="42.0606633" lon="14.7909767"><ele>3.0</ele><time>2026-04-09T10:02:46.836Z</time></trkpt><trkpt lat="42.060625" lon="14.7911033"><ele>3.0</ele><time>2026-04-09T10:02:48.835Z</time></trkpt><trkpt lat="42.0605833" lon="14.7912367"><ele>3.0</ele><time>2026-04-09T10:02:50.835Z</time></trkpt><trkpt lat="42.060545" lon="14.79139"><ele>3.2</ele><time>2026-04-09T10:02:52.835Z</time></trkpt><trkpt lat="42.0605067" lon="14.7915417"><ele>3.4</ele><time>2026-04-09T10:02:54.835Z</time></trkpt><trkpt lat="42.060465" lon="14.791685"><ele>3.6000000000000005</ele><time>2026-04-09T10:02:56.835Z</time></trkpt><trkpt lat="42.0604267" lon="14.7918233"><ele>3.8000000000000003</ele><time>2026-04-09T10:02:58.835Z</time></trkpt><trkpt lat="42.0603883" lon="14.7919517"><ele>4.0</ele><time>2026-04-09T10:03:00.835Z</time></trkpt><trkpt lat="42.0603533" lon="14.7920633"><ele>3.9999999999999996</ele><time>2026-04-09T10:03:02.835Z</time></trkpt><trkpt lat="42.0603217" lon="14.792165"><ele>4.0</ele><time>2026-04-09T10:03:04.835Z</time></trkpt><trkpt lat="42.0602917" lon="14.7922617"><ele>4.0</ele><time>2026-04-09T10:03:06.835Z</time></trkpt><trkpt lat="42.0602667" lon="14.79235"><ele>4.0</ele><time>2026-04-09T10:03:08.835Z</time></trkpt><trkpt lat="42.0602283" lon="14.7924283"><ele>3.9999999999999996</ele><time>2026-04-09T10:03:10.835Z</time></trkpt><trkpt lat="42.060185" lon="14.7925017"><ele>4.0</ele><time>2026-04-09T10:03:12.836Z</time></trkpt><trkpt lat="42.06013" lon="14.7926"><ele>3.9999999999999996</ele><time>2026-04-09T10:03:15.835Z</time></trkpt><trkpt lat="42.060085" lon="14.7926617"><ele>4.0</ele><time>2026-04-09T10:03:18.835Z</time></trkpt><trkpt lat="42.059995" lon="14.7926617"><ele>4.0</ele><time>2026-04-09T10:03:22.835Z</time></trkpt><trkpt lat="42.059925" lon="14.792625"><ele>4.0</ele><time>2026-04-09T10:03:24.836Z</time></trkpt><trkpt lat="42.0598433" lon="14.7926217"><ele>3.9999999999999996</ele><time>2026-04-09T10:03:27.835Z</time></trkpt><trkpt lat="42.0597833" lon="14.7926633"><ele>4.0</ele><time>2026-04-09T10:03:30.835Z</time></trkpt><trkpt lat="42.0597367" lon="14.792745"><ele>3.9999999999999996</ele><time>2026-04-09T10:03:34.835Z</time></trkpt><trkpt lat="42.059775" lon="14.7926667"><ele>4.0</ele><time>2026-04-09T10:04:41.835Z</time></trkpt><trkpt lat="42.0598167" lon="14.7925817"><ele>4.0</ele><time>2026-04-09T10:04:43.835Z</time></trkpt><trkpt lat="42.05986" lon="14.7924767"><ele>4.0</ele><time>2026-04-09T10:04:45.835Z</time></trkpt><trkpt lat="42.0599033" lon="14.79235"><ele>3.9999999999999996</ele><time>2026-04-09T10:04:47.836Z</time></trkpt><trkpt lat="42.0599383" lon="14.7922317"><ele>4.0</ele><time>2026-04-09T10:04:49.835Z</time></trkpt><trkpt lat="42.0599667" lon="14.7921133"><ele>4.0</ele><time>2026-04-09T10:04:51.835Z</time></trkpt><trkpt lat="42.0600017" lon="14.79199"><ele>4.0</ele><time>2026-04-09T10:04:53.835Z</time></trkpt><trkpt lat="42.0600383" lon="14.7918733"><ele>4.0</ele><time>2026-04-09T10:04:55.835Z</time></trkpt><trkpt lat="42.060075" lon="14.79176"><ele>4.0</ele><time>2026-04-09T10:04:57.836Z</time></trkpt><trkpt lat="42.0601133" lon="14.7916367"><ele>4.0</ele><time>2026-04-09T10:04:59.836Z</time></trkpt><trkpt lat="42.0601533" lon="14.79151"><ele>4.0</ele><time>2026-04-09T10:05:01.836Z</time></trkpt><trkpt lat="42.06019" lon="14.7913817"><ele>4.0</ele><time>2026-04-09T10:05:03.836Z</time></trkpt><trkpt lat="42.06023" lon="14.7912567"><ele>4.0</ele><time>2026-04-09T10:05:05.836Z</time></trkpt><trkpt lat="42.06027" lon="14.7911267"><ele>4.0</ele><time>2026-04-09T10:05:07.837Z</time></trkpt><trkpt lat="42.060315" lon="14.7909883"><ele>4.0</ele><time>2026-04-09T10:05:09.836Z</time></trkpt><trkpt lat="42.06036" lon="14.790845"><ele>3.75</ele><time>2026-04-09T10:05:11.836Z</time></trkpt><trkpt lat="42.06041" lon="14.7907"><ele>3.5</ele><time>2026-04-09T10:05:13.836Z</time></trkpt><trkpt lat="42.0604583" lon="14.7905533"><ele>3.25</ele><time>2026-04-09T10:05:15.836Z</time></trkpt><trkpt lat="42.0605017" lon="14.7904067"><ele>3.0</ele><time>2026-04-09T10:05:17.836Z</time></trkpt><trkpt lat="42.0605433" lon="14.7902633"><ele>2.8</ele><time>2026-04-09T10:05:19.836Z</time></trkpt><trkpt lat="42.06058" lon="14.790135"><ele>2.5999999999999996</ele><time>2026-04-09T10:05:21.836Z</time></trkpt><trkpt lat="42.0606233" lon="14.7900067"><ele>2.4000000000000004</ele><time>2026-04-09T10:05:23.836Z</time></trkpt><trkpt lat="42.06067" lon="14.7898783"><ele>2.2</ele><time>2026-04-09T10:05:25.837Z</time></trkpt><trkpt lat="42.0607217" lon="14.78974"><ele>2.0</ele><time>2026-04-09T10:05:27.836Z</time></trkpt><trkpt lat="42.0607733" lon="14.7896033"><ele>2.0</ele><time>2026-04-09T10:05:29.836Z</time></trkpt><trkpt lat="42.0608217" lon="14.7894717"><ele>2.0</ele><time>2026-04-09T10:05:31.836Z</time></trkpt><trkpt lat="42.060875" lon="14.7893433"><ele>2.0</ele><time>2026-04-09T10:05:33.836Z</time></trkpt><trkpt lat="42.0609283" lon="14.7892133"><ele>2.0</ele><time>2026-04-09T10:05:35.836Z</time></trkpt><trkpt lat="42.0609767" lon="14.789085"><ele>2.0</ele><time>2026-04-09T10:05:37.836Z</time></trkpt><trkpt lat="42.0610267" lon="14.788965"><ele>2.0</ele><time>2026-04-09T10:05:39.836Z</time></trkpt><trkpt lat="42.0610833" lon="14.78884"><ele>2.0</ele><time>2026-04-09T10:05:41.836Z</time></trkpt><trkpt lat="42.0611283" lon="14.788725"><ele>2.0</ele><time>2026-04-09T10:05:43.837Z</time></trkpt><trkpt lat="42.0611783" lon="14.7886067"><ele>2.0</ele><time>2026-04-09T10:05:45.836Z</time></trkpt><trkpt lat="42.06123" lon="14.7884833"><ele>2.0</ele><time>2026-04-09T10:05:47.836Z</time></trkpt><trkpt lat="42.0612717" lon="14.7883767"><ele>1.8333333333333333</ele><time>2026-04-09T10:05:49.836Z</time></trkpt><trkpt lat="42.0613117" lon="14.7882667"><ele>1.6666666666666665</ele><time>2026-04-09T10:05:51.836Z</time></trkpt><trkpt lat="42.061355" lon="14.788165"><ele>1.5</ele><time>2026-04-09T10:05:53.837Z</time></trkpt><trkpt lat="42.0614033" lon="14.7880867"><ele>1.3333333333333333</ele><time>2026-04-09T10:05:55.836Z</time></trkpt><trkpt lat="42.0614717" lon="14.7880867"><ele>1.1666666666666665</ele><time>2026-04-09T10:05:59.836Z</time></trkpt><trkpt lat="42.061425" lon="14.7881883"><ele>1.0</ele><time>2026-04-09T10:06:04.837Z</time></trkpt><trkpt lat="42.06138" lon="14.788285"><ele>1.0</ele><time>2026-04-09T10:06:06.836Z</time></trkpt><trkpt lat="42.0613417" lon="14.78839"><ele>1.0</ele><time>2026-04-09T10:06:08.836Z</time></trkpt><trkpt lat="42.0613" lon="14.7885033"><ele>1.0</ele><time>2026-04-09T10:06:10.836Z</time></trkpt><trkpt lat="42.0612533" lon="14.7886167"><ele>1.0</ele><time>2026-04-09T10:06:12.836Z</time></trkpt><trkpt lat="42.061205" lon="14.7887367"><ele>1.0</ele><time>2026-04-09T10:06:14.836Z</time></trkpt><trkpt lat="42.0611633" lon="14.7888467"><ele>1.2000000000000002</ele><time>2026-04-09T10:06:16.836Z</time></trkpt><trkpt lat="42.06112" lon="14.78896"><ele>1.4000000000000001</ele><time>2026-04-09T10:06:18.836Z</time></trkpt><trkpt lat="42.0610783" lon="14.7890667"><ele>1.6</ele><time>2026-04-09T10:06:20.836Z</time></trkpt><trkpt lat="42.061035" lon="14.7891767"><ele>1.8</ele><time>2026-04-09T10:06:22.836Z</time></trkpt><trkpt lat="42.0609917" lon="14.7892833"><ele>2.0</ele><time>2026-04-09T10:06:24.836Z</time></trkpt><trkpt lat="42.0609483" lon="14.789395"><ele>1.9999999999999998</ele><time>2026-04-09T10:06:26.836Z</time></trkpt><trkpt lat="42.0609067" lon="14.7895033"><ele>2.0</ele><time>2026-04-09T10:06:28.836Z</time></trkpt><trkpt lat="42.0608683" lon="14.7896117"><ele>2.0</ele><time>2026-04-09T10:06:30.836Z</time></trkpt><trkpt lat="42.06083" lon="14.7897167"><ele>2.0</ele><time>2026-04-09T10:06:32.836Z</time></trkpt><trkpt lat="42.0608" lon="14.7898083"><ele>1.9999999999999998</ele><time>2026-04-09T10:06:34.836Z</time></trkpt><trkpt lat="42.0607783" lon="14.7899067"><ele>2.0</ele><time>2026-04-09T10:06:36.837Z</time></trkpt><trkpt lat="42.060745" lon="14.79"><ele>1.9999999999999998</ele><time>2026-04-09T10:06:39.837Z</time></trkpt><trkpt lat="42.06072" lon="14.7900883"><ele>2.0</ele><time>2026-04-09T10:06:42.837Z</time></trkpt><trkpt lat="42.0607867" lon="14.79008"><ele>2.0</ele><time>2026-04-09T10:06:52.836Z</time></trkpt><trkpt lat="42.06082" lon="14.7899967"><ele>2.0</ele><time>2026-04-09T10:06:54.836Z</time></trkpt><trkpt lat="42.0608567" lon="14.7899033"><ele>1.9999999999999998</ele><time>2026-04-09T10:06:56.836Z</time></trkpt><trkpt lat="42.060895" lon="14.789795"><ele>2.0</ele><time>2026-04-09T10:06:58.836Z</time></trkpt><trkpt lat="42.060935" lon="14.789695"><ele>2.0</ele><time>2026-04-09T10:07:00.837Z</time></trkpt><trkpt lat="42.0609767" lon="14.7895767"><ele>2.0</ele><time>2026-04-09T10:07:02.836Z</time></trkpt><trkpt lat="42.0610233" lon="14.7894517"><ele>2.0</ele><time>2026-04-09T10:07:04.836Z</time></trkpt><trkpt lat="42.0610767" lon="14.78933"><ele>2.0</ele><time>2026-04-09T10:07:06.836Z</time></trkpt><trkpt lat="42.0611217" lon="14.7892167"><ele>2.0</ele><time>2026-04-09T10:07:08.836Z</time></trkpt><trkpt lat="42.0611733" lon="14.7891017"><ele>2.0</ele><time>2026-04-09T10:07:10.836Z</time></trkpt><trkpt lat="42.0612183" lon="14.7889767"><ele>2.0</ele><time>2026-04-09T10:07:12.836Z</time></trkpt><trkpt lat="42.0612683" lon="14.7888483"><ele>2.0</ele><time>2026-04-09T10:07:14.836Z</time></trkpt><trkpt lat="42.061315" lon="14.7887267"><ele>2.0</ele><time>2026-04-09T10:07:16.837Z</time></trkpt><trkpt lat="42.06136" lon="14.7886033"><ele>2.0</ele><time>2026-04-09T10:07:18.836Z</time></trkpt><trkpt lat="42.0614017" lon="14.7884767"><ele>1.9999999999999998</ele><time>2026-04-09T10:07:20.836Z</time></trkpt><trkpt lat="42.0614533" lon="14.788355"><ele>2.0</ele><time>2026-04-09T10:07:22.836Z</time></trkpt><trkpt lat="42.0614983" lon="14.7882667"><ele>2.0</ele><time>2026-04-09T10:07:24.836Z</time></trkpt><trkpt lat="42.0615667" lon="14.7882717"><ele>2.0</ele><time>2026-04-09T10:07:27.836Z</time></trkpt><trkpt lat="42.061555" lon="14.7883633"><ele>1.9999999999999998</ele><time>2026-04-09T10:07:29.836Z</time></trkpt><trkpt lat="42.0615333" lon="14.7884483"><ele>2.0</ele><time>2026-04-09T10:07:32.836Z</time></trkpt><trkpt lat="42.0615117" lon="14.788585"><ele>2.0</ele><time>2026-04-09T10:07:35.836Z</time></trkpt><trkpt lat="42.06147" lon="14.78869"><ele>2.0</ele><time>2026-04-09T10:07:37.836Z</time></trkpt><trkpt lat="42.061425" lon="14.78881"><ele>2.0</ele><time>2026-04-09T10:07:39.836Z</time></trkpt><trkpt lat="42.0613767" lon="14.788935"><ele>2.0</ele><time>2026-04-09T10:07:41.836Z</time></trkpt><trkpt lat="42.0613367" lon="14.789065"><ele>2.0</ele><time>2026-04-09T10:07:43.836Z</time></trkpt><trkpt lat="42.0613267" lon="14.789205"><ele>2.25</ele><time>2026-04-09T10:07:45.836Z</time></trkpt><trkpt lat="42.061385" lon="14.7893467"><ele>2.5</ele><time>2026-04-09T10:07:47.836Z</time></trkpt><trkpt lat="42.0614883" lon="14.78943"><ele>2.75</ele><time>2026-04-09T10:07:49.836Z</time></trkpt><trkpt lat="42.0615983" lon="14.7894733"><ele>3.0</ele><time>2026-04-09T10:07:51.836Z</time></trkpt><trkpt lat="42.0617033" lon="14.7895167"><ele>3.0</ele><time>2026-04-09T10:07:53.836Z</time></trkpt><trkpt lat="42.0618083" lon="14.7895667"><ele>3.0</ele><time>2026-04-09T10:07:55.836Z</time></trkpt><trkpt lat="42.0619133" lon="14.7896167"><ele>3.0</ele><time>2026-04-09T10:07:57.836Z</time></trkpt><trkpt lat="42.0620183" lon="14.78967"><ele>3.0</ele><time>2026-04-09T10:07:59.837Z</time></trkpt><trkpt lat="42.0621233" lon="14.7897233"><ele>3.0</ele><time>2026-04-09T10:08:01.836Z</time></trkpt><trkpt lat="42.06223" lon="14.7897733"><ele>3.0</ele><time>2026-04-09T10:08:03.836Z</time></trkpt><trkpt lat="42.0623367" lon="14.78982"><ele>3.0</ele><time>2026-04-09T10:08:05.837Z</time></trkpt><trkpt lat="42.0624433" lon="14.7898717"><ele>3.0</ele><time>2026-04-09T10:08:07.836Z</time></trkpt><trkpt lat="42.062545" lon="14.7899217"><ele>3.0</ele><time>2026-04-09T10:08:09.837Z</time></trkpt><trkpt lat="42.0626533" lon="14.7899717"><ele>3.0</ele><time>2026-04-09T10:08:11.836Z</time></trkpt><trkpt lat="42.0627483" lon="14.7900117"><ele>3.0</ele><time>2026-04-09T10:08:13.836Z</time></trkpt><trkpt lat="42.0628483" lon="14.7900517"><ele>3.0</ele><time>2026-04-09T10:08:15.836Z</time></trkpt><trkpt lat="42.0629483" lon="14.7900967"><ele>3.0</ele><time>2026-04-09T10:08:17.837Z</time></trkpt><trkpt lat="42.063055" lon="14.7901483"><ele>3.0</ele><time>2026-04-09T10:08:19.837Z</time></trkpt><trkpt lat="42.063155" lon="14.7902"><ele>3.0</ele><time>2026-04-09T10:08:21.837Z</time></trkpt><trkpt lat="42.0632567" lon="14.7902483"><ele>3.0</ele><time>2026-04-09T10:08:23.836Z</time></trkpt><trkpt lat="42.0633533" lon="14.7902917"><ele>3.0</ele><time>2026-04-09T10:08:25.837Z</time></trkpt><trkpt lat="42.0634433" lon="14.790335"><ele>3.0</ele><time>2026-04-09T10:08:27.836Z</time></trkpt><trkpt lat="42.0635433" lon="14.790375"><ele>3.0</ele><time>2026-04-09T10:08:29.836Z</time></trkpt><trkpt lat="42.0636467" lon="14.7904183"><ele>3.0</ele><time>2026-04-09T10:08:31.837Z</time></trkpt><trkpt lat="42.0637467" lon="14.7904617"><ele>3.0</ele><time>2026-04-09T10:08:33.836Z</time></trkpt><trkpt lat="42.0638517" lon="14.7905"><ele>3.0</ele><time>2026-04-09T10:08:35.837Z</time></trkpt><trkpt lat="42.0639417" lon="14.7905483"><ele>3.0</ele><time>2026-04-09T10:08:37.836Z</time></trkpt><trkpt lat="42.064035" lon="14.790605"><ele>3.0</ele><time>2026-04-09T10:08:39.837Z</time></trkpt><trkpt lat="42.0641317" lon="14.790645"><ele>3.0</ele><time>2026-04-09T10:08:41.836Z</time></trkpt><trkpt lat="42.0642283" lon="14.7907017"><ele>3.0</ele><time>2026-04-09T10:08:43.836Z</time></trkpt><trkpt lat="42.0643317" lon="14.7907483"><ele>3.0</ele><time>2026-04-09T10:08:45.836Z</time></trkpt><trkpt lat="42.0644367" lon="14.7908017"><ele>3.0</ele><time>2026-04-09T10:08:47.836Z</time></trkpt><trkpt lat="42.0645367" lon="14.790855"><ele>3.0</ele><time>2026-04-09T10:08:49.836Z</time></trkpt><trkpt lat="42.0646333" lon="14.790905"><ele>3.0</ele><time>2026-04-09T10:08:51.836Z</time></trkpt><trkpt lat="42.0647317" lon="14.7909433"><ele>3.0</ele><time>2026-04-09T10:08:53.837Z</time></trkpt><trkpt lat="42.0648217" lon="14.790985"><ele>3.0</ele><time>2026-04-09T10:08:55.836Z</time></trkpt><trkpt lat="42.06492" lon="14.7910383"><ele>3.0</ele><time>2026-04-09T10:08:57.836Z</time></trkpt><trkpt lat="42.0649817" lon="14.7910733"><ele>3.0</ele><time>2026-04-09T10:08:58.837Z</time></trkpt><trkpt lat="42.0650933" lon="14.7911167"><ele>3.0</ele><time>2026-04-09T10:09:00.836Z</time></trkpt><trkpt lat="42.0651967" lon="14.7911583"><ele>3.0</ele><time>2026-04-09T10:09:02.836Z</time></trkpt><trkpt lat="42.0653033" lon="14.7912017"><ele>3.0</ele><time>2026-04-09T10:09:04.836Z</time></trkpt><trkpt lat="42.0654017" lon="14.79125"><ele>3.0</ele><time>2026-04-09T10:09:06.837Z</time></trkpt><trkpt lat="42.0654983" lon="14.7912933"><ele>3.0</ele><time>2026-04-09T10:09:08.836Z</time></trkpt><trkpt lat="42.0656" lon="14.79133"><ele>3.0</ele><time>2026-04-09T10:09:10.836Z</time></trkpt><trkpt lat="42.0657117" lon="14.79137"><ele>2.8333333333333335</ele><time>2026-04-09T10:09:12.836Z</time></trkpt><trkpt lat="42.06581" lon="14.79141"><ele>2.6666666666666665</ele><time>2026-04-09T10:09:14.836Z</time></trkpt><trkpt lat="42.0659" lon="14.791455"><ele>2.5</ele><time>2026-04-09T10:09:16.837Z</time></trkpt><trkpt lat="42.06598" lon="14.7914883"><ele>2.333333333333333</ele><time>2026-04-09T10:09:18.836Z</time></trkpt><trkpt lat="42.0660533" lon="14.791515"><ele>2.1666666666666665</ele><time>2026-04-09T10:09:20.836Z</time></trkpt><trkpt lat="42.06613" lon="14.79148"><ele>2.0</ele><time>2026-04-09T10:09:23.836Z</time></trkpt><trkpt lat="42.06615" lon="14.7913933"><ele>1.9999999999999998</ele><time>2026-04-09T10:09:25.836Z</time></trkpt><trkpt lat="42.06617" lon="14.7912867"><ele>2.0</ele><time>2026-04-09T10:09:27.836Z</time></trkpt><trkpt lat="42.066195" lon="14.7911917"><ele>2.0</ele><time>2026-04-09T10:09:29.837Z</time></trkpt><trkpt lat="42.0662217" lon="14.7910883"><ele>2.0</ele><time>2026-04-09T10:09:31.836Z</time></trkpt><trkpt lat="42.066245" lon="14.7909867"><ele>1.9999999999999998</ele><time>2026-04-09T10:09:33.836Z</time></trkpt><trkpt lat="42.0662667" lon="14.7908633"><ele>2.0</ele><time>2026-04-09T10:09:35.837Z</time></trkpt><trkpt lat="42.0662933" lon="14.790725"><ele>2.0</ele><time>2026-04-09T10:09:37.836Z</time></trkpt><trkpt lat="42.0663217" lon="14.7905817"><ele>2.0</ele><time>2026-04-09T10:09:39.836Z</time></trkpt><trkpt lat="42.0663517" lon="14.7904483"><ele>2.0</ele><time>2026-04-09T10:09:41.836Z</time></trkpt><trkpt lat="42.06638" lon="14.79032"><ele>2.0</ele><time>2026-04-09T10:09:43.836Z</time></trkpt><trkpt lat="42.0664117" lon="14.79019"><ele>2.0</ele><time>2026-04-09T10:09:45.836Z</time></trkpt><trkpt lat="42.06645" lon="14.7900467"><ele>2.6</ele><time>2026-04-09T10:09:47.836Z</time></trkpt><trkpt lat="42.0664833" lon="14.7899083"><ele>3.2</ele><time>2026-04-09T10:09:49.836Z</time></trkpt><trkpt lat="42.0665067" lon="14.7897717"><ele>3.8</ele><time>2026-04-09T10:09:51.837Z</time></trkpt><trkpt lat="42.0665383" lon="14.7896233"><ele>4.4</ele><time>2026-04-09T10:09:53.836Z</time></trkpt><trkpt lat="42.066575" lon="14.7894783"><ele>5.0</ele><time>2026-04-09T10:09:55.836Z</time></trkpt><trkpt lat="42.06661" lon="14.789345"><ele>4.2</ele><time>2026-04-09T10:09:57.836Z</time></trkpt><trkpt lat="42.0666333" lon="14.7892283"><ele>3.4</ele><time>2026-04-09T10:09:59.837Z</time></trkpt><trkpt lat="42.0666483" lon="14.789115"><ele>2.6</ele><time>2026-04-09T10:10:01.836Z</time></trkpt><trkpt lat="42.0666517" lon="14.78899"><ele>1.8</ele><time>2026-04-09T10:10:03.836Z</time></trkpt><trkpt lat="42.0666583" lon="14.78885"><ele>1.0</ele><time>2026-04-09T10:10:05.836Z</time></trkpt><trkpt lat="42.0666817" lon="14.78872"><ele>1.0</ele><time>2026-04-09T10:10:07.836Z</time></trkpt><trkpt lat="42.0667183" lon="14.78859"><ele>1.0</ele><time>2026-04-09T10:10:09.836Z</time></trkpt><trkpt lat="42.066755" lon="14.7884583"><ele>1.0</ele><time>2026-04-09T10:10:11.836Z</time></trkpt><trkpt lat="42.0667883" lon="14.7883233"><ele>1.0</ele><time>2026-04-09T10:10:13.836Z</time></trkpt><trkpt lat="42.06682" lon="14.788185"><ele>1.0</ele><time>2026-04-09T10:10:15.836Z</time></trkpt><trkpt lat="42.0668483" lon="14.7880367"><ele>1.0</ele><time>2026-04-09T10:10:17.836Z</time></trkpt><trkpt lat="42.0668833" lon="14.787895"><ele>1.0</ele><time>2026-04-09T10:10:19.836Z</time></trkpt><trkpt lat="42.0669167" lon="14.787765"><ele>1.0</ele><time>2026-04-09T10:10:21.836Z</time></trkpt><trkpt lat="42.0669483" lon="14.7876367"><ele>1.0</ele><time>2026-04-09T10:10:23.836Z</time></trkpt><trkpt lat="42.06699" lon="14.787505"><ele>1.0</ele><time>2026-04-09T10:10:25.836Z</time></trkpt><trkpt lat="42.0670233" lon="14.7873683"><ele>1.0</ele><time>2026-04-09T10:10:27.837Z</time></trkpt><trkpt lat="42.0670517" lon="14.78723"><ele>1.0</ele><time>2026-04-09T10:10:29.836Z</time></trkpt><trkpt lat="42.067085" lon="14.7870933"><ele>1.0</ele><time>2026-04-09T10:10:31.837Z</time></trkpt><trkpt lat="42.06712" lon="14.786965"><ele>1.0</ele><time>2026-04-09T10:10:33.836Z</time></trkpt><trkpt lat="42.0671567" lon="14.78683"><ele>1.0</ele><time>2026-04-09T10:10:35.836Z</time></trkpt><trkpt lat="42.0671917" lon="14.7866933"><ele>1.0</ele><time>2026-04-09T10:10:37.836Z</time></trkpt><trkpt lat="42.0672233" lon="14.7865533"><ele>1.0</ele><time>2026-04-09T10:10:39.837Z</time></trkpt><trkpt lat="42.06726" lon="14.78641"><ele>1.0</ele><time>2026-04-09T10:10:41.836Z</time></trkpt><trkpt lat="42.067295" lon="14.7862683"><ele>1.0</ele><time>2026-04-09T10:10:43.836Z</time></trkpt><trkpt lat="42.0673267" lon="14.786115"><ele>1.0</ele><time>2026-04-09T10:10:45.836Z</time></trkpt><trkpt lat="42.067365" lon="14.785965"><ele>1.0</ele><time>2026-04-09T10:10:47.836Z</time></trkpt><trkpt lat="42.0674" lon="14.7858233"><ele>1.0</ele><time>2026-04-09T10:10:49.836Z</time></trkpt><trkpt lat="42.0674267" lon="14.7857067"><ele>1.0</ele><time>2026-04-09T10:10:51.836Z</time></trkpt><trkpt lat="42.0674683" lon="14.785625"><ele>1.0</ele><time>2026-04-09T10:10:53.836Z</time></trkpt><trkpt lat="42.0675467" lon="14.7856317"><ele>0.9999999999999999</ele><time>2026-04-09T10:10:55.837Z</time></trkpt><trkpt lat="42.0676267" lon="14.78562"><ele>1.0</ele><time>2026-04-09T10:10:58.836Z</time></trkpt><trkpt lat="42.06766" lon="14.7855333"><ele>1.0</ele><time>2026-04-09T10:11:00.836Z</time></trkpt><trkpt lat="42.0676883" lon="14.7854233"><ele>1.0</ele><time>2026-04-09T10:11:02.836Z</time></trkpt><trkpt lat="42.0677217" lon="14.7853017"><ele>0.9999999999999999</ele><time>2026-04-09T10:11:04.836Z</time></trkpt><trkpt lat="42.0677583" lon="14.7851667"><ele>1.0</ele><time>2026-04-09T10:11:06.836Z</time></trkpt><trkpt lat="42.0677967" lon="14.785025"><ele>0.8</ele><time>2026-04-09T10:11:08.836Z</time></trkpt><trkpt lat="42.06783" lon="14.7848867"><ele>0.6000000000000001</ele><time>2026-04-09T10:11:10.836Z</time></trkpt><trkpt lat="42.06786" lon="14.78475"><ele>0.4</ele><time>2026-04-09T10:11:12.836Z</time></trkpt><trkpt lat="42.06789" lon="14.7846217"><ele>0.2</ele><time>2026-04-09T10:11:14.836Z</time></trkpt><trkpt lat="42.067915" lon="14.78449"><ele>0.0</ele><time>2026-04-09T10:11:16.836Z</time></trkpt><trkpt lat="42.0679467" lon="14.7843733"><ele>0.0</ele><time>2026-04-09T10:11:18.836Z</time></trkpt><trkpt lat="42.0679833" lon="14.7842633"><ele>0.0</ele><time>2026-04-09T10:11:20.836Z</time></trkpt><trkpt lat="42.0680133" lon="14.7841567"><ele>0.0</ele><time>2026-04-09T10:11:22.836Z</time></trkpt><trkpt lat="42.0680383" lon="14.7840567"><ele>0.0</ele><time>2026-04-09T10:11:24.836Z</time></trkpt><trkpt lat="42.0680667" lon="14.78396"><ele>0.0</ele><time>2026-04-09T10:11:26.836Z</time></trkpt><trkpt lat="42.0680483" lon="14.7838717"><ele>0.0</ele><time>2026-04-09T10:11:30.836Z</time></trkpt><trkpt lat="42.067985" lon="14.7838567"><ele>0.0</ele><time>2026-04-09T10:11:33.836Z</time></trkpt><trkpt lat="42.06792" lon="14.7838417"><ele>0.0</ele><time>2026-04-09T10:11:35.836Z</time></trkpt><trkpt lat="42.0678483" lon="14.7838067"><ele>0.0</ele><time>2026-04-09T10:11:38.836Z</time></trkpt><trkpt lat="42.067775" lon="14.78376"><ele>0.0</ele><time>2026-04-09T10:11:44.837Z</time></trkpt><trkpt lat="42.0677083" lon="14.7837333"><ele>0.0</ele><time>2026-04-09T10:11:46.836Z</time></trkpt><trkpt lat="42.0676333" lon="14.783705"><ele>0.0</ele><time>2026-04-09T10:11:48.836Z</time></trkpt><trkpt lat="42.0675517" lon="14.7836783"><ele>0.0</ele><time>2026-04-09T10:11:50.836Z</time></trkpt><trkpt lat="42.0674617" lon="14.7836567"><ele>0.0</ele><time>2026-04-09T10:11:52.837Z</time></trkpt><trkpt lat="42.0673783" lon="14.7836167"><ele>0.0</ele><time>2026-04-09T10:11:54.836Z</time></trkpt><trkpt lat="42.0672883" lon="14.7835783"><ele>0.0</ele><time>2026-04-09T10:11:56.836Z</time></trkpt><trkpt lat="42.0671983" lon="14.7835383"><ele>0.0</ele><time>2026-04-09T10:11:58.836Z</time></trkpt><trkpt lat="42.067105" lon="14.7835"><ele>0.0</ele><time>2026-04-09T10:12:00.836Z</time></trkpt><trkpt lat="42.0670117" lon="14.7834583"><ele>0.0</ele><time>2026-04-09T10:12:02.836Z</time></trkpt><trkpt lat="42.06691" lon="14.7834167"><ele>0.0</ele><time>2026-04-09T10:12:04.836Z</time></trkpt><trkpt lat="42.0668017" lon="14.78338"><ele>0.0</ele><time>2026-04-09T10:12:06.836Z</time></trkpt><trkpt lat="42.0666917" lon="14.78334"><ele>0.0</ele><time>2026-04-09T10:12:08.836Z</time></trkpt><trkpt lat="42.066575" lon="14.7832967"><ele>0.0</ele><time>2026-04-09T10:12:10.836Z</time></trkpt><trkpt lat="42.0664683" lon="14.78325"><ele>0.0</ele><time>2026-04-09T10:12:12.836Z</time></trkpt><trkpt lat="42.0663667" lon="14.7832067"><ele>0.0</ele><time>2026-04-09T10:12:14.836Z</time></trkpt><trkpt lat="42.06627" lon="14.7831767"><ele>0.0</ele><time>2026-04-09T10:12:16.836Z</time></trkpt><trkpt lat="42.06617" lon="14.7831433"><ele>0.0</ele><time>2026-04-09T10:12:18.836Z</time></trkpt><trkpt lat="42.0660783" lon="14.7831517"><ele>0.0</ele><time>2026-04-09T10:12:20.837Z</time></trkpt><trkpt lat="42.0660117" lon="14.7832283"><ele>0.0</ele><time>2026-04-09T10:12:22.836Z</time></trkpt><trkpt lat="42.0659733" lon="14.7833533"><ele>0.0</ele><time>2026-04-09T10:12:24.836Z</time></trkpt><trkpt lat="42.0659367" lon="14.78348"><ele>0.0</ele><time>2026-04-09T10:12:26.836Z</time></trkpt><trkpt lat="42.0659067" lon="14.783625"><ele>0.0</ele><time>2026-04-09T10:12:28.836Z</time></trkpt><trkpt lat="42.0658733" lon="14.7837583"><ele>0.0</ele><time>2026-04-09T10:12:30.836Z</time></trkpt><trkpt lat="42.0658383" lon="14.78388"><ele>0.0</ele><time>2026-04-09T10:12:32.836Z</time></trkpt><trkpt lat="42.065795" lon="14.7839567"><ele>0.0</ele><time>2026-04-09T10:12:34.836Z</time></trkpt><trkpt lat="42.065715" lon="14.78393"><ele>0.0</ele><time>2026-04-09T10:12:36.836Z</time></trkpt><trkpt lat="42.0656167" lon="14.78387"><ele>0.0</ele><time>2026-04-09T10:12:38.836Z</time></trkpt><trkpt lat="42.0655133" lon="14.78381"><ele>0.0</ele><time>2026-04-09T10:12:40.836Z</time></trkpt><trkpt lat="42.0654067" lon="14.7837483"><ele>0.0</ele><time>2026-04-09T10:12:42.836Z</time></trkpt><trkpt lat="42.0652983" lon="14.78369"><ele>0.0</ele><time>2026-04-09T10:12:44.836Z</time></trkpt><trkpt lat="42.0651917" lon="14.7836217"><ele>0.0</ele><time>2026-04-09T10:12:46.836Z</time></trkpt><trkpt lat="42.065105" lon="14.78354"><ele>0.4</ele><time>2026-04-09T10:12:48.836Z</time></trkpt><trkpt lat="42.0650317" lon="14.783435"><ele>0.8</ele><time>2026-04-09T10:12:50.836Z</time></trkpt><trkpt lat="42.0649933" lon="14.7833017"><ele>1.2000000000000002</ele><time>2026-04-09T10:12:52.836Z</time></trkpt><trkpt lat="42.0649883" lon="14.7831617"><ele>1.6</ele><time>2026-04-09T10:12:54.836Z</time></trkpt><trkpt lat="42.06499" lon="14.7830133"><ele>2.0</ele><time>2026-04-09T10:12:56.836Z</time></trkpt><trkpt lat="42.0649833" lon="14.782875"><ele>2.2</ele><time>2026-04-09T10:12:58.837Z</time></trkpt><trkpt lat="42.064945" lon="14.7827467"><ele>2.4000000000000004</ele><time>2026-04-09T10:13:00.836Z</time></trkpt><trkpt lat="42.06488" lon="14.7826267"><ele>2.5999999999999996</ele><time>2026-04-09T10:13:02.837Z</time></trkpt><trkpt lat="42.0647967" lon="14.78254"><ele>2.8</ele><time>2026-04-09T10:13:04.836Z</time></trkpt><trkpt lat="42.0647" lon="14.7824817"><ele>3.0</ele><time>2026-04-09T10:13:06.837Z</time></trkpt><trkpt lat="42.0646" lon="14.7824467"><ele>3.0</ele><time>2026-04-09T10:13:08.836Z</time></trkpt><trkpt lat="42.0645067" lon="14.7824217"><ele>3.0</ele><time>2026-04-09T10:13:10.836Z</time></trkpt><trkpt lat="42.0644383" lon="14.7823617"><ele>3.0</ele><time>2026-04-09T10:13:12.836Z</time></trkpt><trkpt lat="42.0643683" lon="14.782295"><ele>3.0</ele><time>2026-04-09T10:13:14.837Z</time></trkpt><trkpt lat="42.06428" lon="14.7822633"><ele>3.0</ele><time>2026-04-09T10:13:16.836Z</time></trkpt><trkpt lat="42.0641933" lon="14.7822117"><ele>3.0</ele><time>2026-04-09T10:13:18.836Z</time></trkpt><trkpt lat="42.064115" lon="14.782125"><ele>3.0</ele><time>2026-04-09T10:13:20.836Z</time></trkpt><trkpt lat="42.064105" lon="14.7820267"><ele>3.0</ele><time>2026-04-09T10:13:22.836Z</time></trkpt><trkpt lat="42.06413" lon="14.7818983"><ele>3.0</ele><time>2026-04-09T10:13:24.836Z</time></trkpt><trkpt lat="42.0641617" lon="14.7817433"><ele>3.0</ele><time>2026-04-09T10:13:26.836Z</time></trkpt><trkpt lat="42.0641983" lon="14.7816017"><ele>3.0</ele><time>2026-04-09T10:13:28.836Z</time></trkpt><trkpt lat="42.06424" lon="14.7814533"><ele>3.0</ele><time>2026-04-09T10:13:30.836Z</time></trkpt><trkpt lat="42.064295" lon="14.7813167"><ele>3.0</ele><time>2026-04-09T10:13:32.836Z</time></trkpt><trkpt lat="42.0643467" lon="14.7811783"><ele>3.0</ele><time>2026-04-09T10:13:34.836Z</time></trkpt><trkpt lat="42.0643933" lon="14.781045"><ele>3.0</ele><time>2026-04-09T10:13:36.836Z</time></trkpt><trkpt lat="42.0644433" lon="14.7809117"><ele>3.2</ele><time>2026-04-09T10:13:38.837Z</time></trkpt><trkpt lat="42.064505" lon="14.7807817"><ele>3.4</ele><time>2026-04-09T10:13:40.836Z</time></trkpt><trkpt lat="42.0645567" lon="14.7806517"><ele>3.6000000000000005</ele><time>2026-04-09T10:13:42.836Z</time></trkpt><trkpt lat="42.0646083" lon="14.78051"><ele>3.8000000000000003</ele><time>2026-04-09T10:13:44.836Z</time></trkpt><trkpt lat="42.064655" lon="14.7803833"><ele>4.0</ele><time>2026-04-09T10:13:46.836Z</time></trkpt><trkpt lat="42.0647067" lon="14.78026"><ele>3.8000000000000003</ele><time>2026-04-09T10:13:48.836Z</time></trkpt><trkpt lat="42.0647617" lon="14.7801333"><ele>3.6000000000000005</ele><time>2026-04-09T10:13:50.836Z</time></trkpt><trkpt lat="42.0648183" lon="14.780005"><ele>3.4</ele><time>2026-04-09T10:13:52.836Z</time></trkpt><trkpt lat="42.0648717" lon="14.7798833"><ele>3.2</ele><time>2026-04-09T10:13:54.837Z</time></trkpt><trkpt lat="42.064915" lon="14.7797583"><ele>3.0</ele><time>2026-04-09T10:13:56.836Z</time></trkpt><trkpt lat="42.0649633" lon="14.7796383"><ele>3.0</ele><time>2026-04-09T10:13:58.836Z</time></trkpt><trkpt lat="42.0649983" lon="14.7795667"><ele>3.0</ele><time>2026-04-09T10:13:59.836Z</time></trkpt><trkpt lat="42.0650533" lon="14.77942"><ele>3.0</ele><time>2026-04-09T10:14:01.836Z</time></trkpt><trkpt lat="42.0651117" lon="14.7792817"><ele>3.0</ele><time>2026-04-09T10:14:03.836Z</time></trkpt><trkpt lat="42.0651633" lon="14.7791483"><ele>3.0</ele><time>2026-04-09T10:14:05.836Z</time></trkpt><trkpt lat="42.06522" lon="14.7790033"><ele>3.0</ele><time>2026-04-09T10:14:07.837Z</time></trkpt><trkpt lat="42.0652733" lon="14.77886"><ele>3.0</ele><time>2026-04-09T10:14:09.836Z</time></trkpt><trkpt lat="42.065325" lon="14.7787217"><ele>3.0</ele><time>2026-04-09T10:14:11.837Z</time></trkpt><trkpt lat="42.0653833" lon="14.7785917"><ele>3.0</ele><time>2026-04-09T10:14:13.837Z</time></trkpt><trkpt lat="42.0654367" lon="14.778445"><ele>3.0</ele><time>2026-04-09T10:14:15.836Z</time></trkpt><trkpt lat="42.0654883" lon="14.7783017"><ele>3.0</ele><time>2026-04-09T10:14:17.836Z</time></trkpt><trkpt lat="42.0655467" lon="14.7781617"><ele>3.0</ele><time>2026-04-09T10:14:19.837Z</time></trkpt><trkpt lat="42.0655983" lon="14.7780233"><ele>3.0</ele><time>2026-04-09T10:14:21.836Z</time></trkpt><trkpt lat="42.0656517" lon="14.77789"><ele>3.0</ele><time>2026-04-09T10:14:23.836Z</time></trkpt><trkpt lat="42.065705" lon="14.77776"><ele>3.0</ele><time>2026-04-09T10:14:25.836Z</time></trkpt><trkpt lat="42.0657533" lon="14.7776417"><ele>3.0</ele><time>2026-04-09T10:14:27.836Z</time></trkpt><trkpt lat="42.0657967" lon="14.77753"><ele>3.0</ele><time>2026-04-09T10:14:29.836Z</time></trkpt><trkpt lat="42.065845" lon="14.7774117"><ele>3.0</ele><time>2026-04-09T10:14:31.837Z</time></trkpt><trkpt lat="42.0658967" lon="14.777285"><ele>3.0</ele><time>2026-04-09T10:14:33.836Z</time></trkpt><trkpt lat="42.0659317" lon="14.777205"><ele>3.0</ele><time>2026-04-09T10:14:34.836Z</time></trkpt><trkpt lat="42.06596" lon="14.7771283"><ele>3.0</ele><time>2026-04-09T10:14:35.836Z</time></trkpt><trkpt lat="42.0660133" lon="14.7769917"><ele>3.0</ele><time>2026-04-09T10:14:37.836Z</time></trkpt><trkpt lat="42.0660617" lon="14.7768583"><ele>3.0</ele><time>2026-04-09T10:14:39.836Z</time></trkpt><trkpt lat="42.0661133" lon="14.7767267"><ele>3.0</ele><time>2026-04-09T10:14:41.836Z</time></trkpt><trkpt lat="42.0661667" lon="14.776595"><ele>3.0</ele><time>2026-04-09T10:14:43.837Z</time></trkpt><trkpt lat="42.0662167" lon="14.7764717"><ele>3.0</ele><time>2026-04-09T10:14:45.836Z</time></trkpt><trkpt lat="42.0662583" lon="14.7763583"><ele>3.0</ele><time>2026-04-09T10:14:47.836Z</time></trkpt><trkpt lat="42.0663" lon="14.77625"><ele>3.0</ele><time>2026-04-09T10:14:49.836Z</time></trkpt><trkpt lat="42.0663467" lon="14.776145"><ele>3.0</ele><time>2026-04-09T10:14:51.836Z</time></trkpt><trkpt lat="42.0663983" lon="14.7760283"><ele>3.0</ele><time>2026-04-09T10:14:53.836Z</time></trkpt><trkpt lat="42.06645" lon="14.7759033"><ele>3.0</ele><time>2026-04-09T10:14:55.837Z</time></trkpt><trkpt lat="42.0664967" lon="14.7757783"><ele>3.0</ele><time>2026-04-09T10:14:57.836Z</time></trkpt><trkpt lat="42.0665367" lon="14.7756583"><ele>3.0</ele><time>2026-04-09T10:14:59.836Z</time></trkpt><trkpt lat="42.0665767" lon="14.7755517"><ele>3.1666666666666665</ele><time>2026-04-09T10:15:01.836Z</time></trkpt><trkpt lat="42.06662" lon="14.7754717"><ele>3.333333333333333</ele><time>2026-04-09T10:15:03.836Z</time></trkpt><trkpt lat="42.066665" lon="14.77541"><ele>3.5</ele><time>2026-04-09T10:15:05.836Z</time></trkpt><trkpt lat="42.066735" lon="14.7754033"><ele>3.6666666666666665</ele><time>2026-04-09T10:15:07.836Z</time></trkpt><trkpt lat="42.0668067" lon="14.7754083"><ele>3.833333333333333</ele><time>2026-04-09T10:15:09.836Z</time></trkpt><trkpt lat="42.0669" lon="14.7754317"><ele>4.0</ele><time>2026-04-09T10:15:12.836Z</time></trkpt><trkpt lat="42.0669817" lon="14.7754533"><ele>4.0</ele><time>2026-04-09T10:15:14.836Z</time></trkpt><trkpt lat="42.0670667" lon="14.7754833"><ele>4.0</ele><time>2026-04-09T10:15:16.836Z</time></trkpt><trkpt lat="42.0671533" lon="14.7755217"><ele>4.0</ele><time>2026-04-09T10:15:18.836Z</time></trkpt><trkpt lat="42.06724" lon="14.7755783"><ele>4.0</ele><time>2026-04-09T10:15:20.836Z</time></trkpt><trkpt lat="42.0673317" lon="14.77563"><ele>4.0</ele><time>2026-04-09T10:15:22.837Z</time></trkpt><trkpt lat="42.0674217" lon="14.7756933"><ele>4.2</ele><time>2026-04-09T10:15:24.836Z</time></trkpt><trkpt lat="42.0675117" lon="14.7757567"><ele>4.4</ele><time>2026-04-09T10:15:26.837Z</time></trkpt><trkpt lat="42.0676083" lon="14.7758183"><ele>4.6</ele><time>2026-04-09T10:15:28.836Z</time></trkpt><trkpt lat="42.06771" lon="14.775895"><ele>4.8</ele><time>2026-04-09T10:15:30.836Z</time></trkpt><trkpt lat="42.0678083" lon="14.7759633"><ele>5.0</ele><time>2026-04-09T10:15:32.836Z</time></trkpt><trkpt lat="42.067915" lon="14.77602"><ele>5.0</ele><time>2026-04-09T10:15:34.836Z</time></trkpt><trkpt lat="42.0680167" lon="14.7761167"><ele>5.0</ele><time>2026-04-09T10:15:36.836Z</time></trkpt><trkpt lat="42.0681167" lon="14.77619"><ele>5.0</ele><time>2026-04-09T10:15:38.836Z</time></trkpt><trkpt lat="42.0681717" lon="14.7762367"><ele>5.0</ele><time>2026-04-09T10:15:39.836Z</time></trkpt><trkpt lat="42.0682733" lon="14.776305"><ele>5.0</ele><time>2026-04-09T10:15:41.836Z</time></trkpt><trkpt lat="42.0683733" lon="14.7763867"><ele>4.5</ele><time>2026-04-09T10:15:43.836Z</time></trkpt><trkpt lat="42.0684733" lon="14.77647"><ele>4.0</ele><time>2026-04-09T10:15:45.837Z</time></trkpt><trkpt lat="42.06857" lon="14.7765483"><ele>3.5</ele><time>2026-04-09T10:15:47.836Z</time></trkpt><trkpt lat="42.0686667" lon="14.7766283"><ele>3.0</ele><time>2026-04-09T10:15:49.836Z</time></trkpt><trkpt lat="42.0687617" lon="14.7767083"><ele>3.0</ele><time>2026-04-09T10:15:51.836Z</time></trkpt><trkpt lat="42.0688583" lon="14.7767883"><ele>3.0</ele><time>2026-04-09T10:15:53.836Z</time></trkpt><trkpt lat="42.068955" lon="14.7768633"><ele>3.0</ele><time>2026-04-09T10:15:55.836Z</time></trkpt><trkpt lat="42.069055" lon="14.7769383"><ele>3.0</ele><time>2026-04-09T10:15:57.836Z</time></trkpt><trkpt lat="42.069155" lon="14.777015"><ele>2.75</ele><time>2026-04-09T10:15:59.836Z</time></trkpt><trkpt lat="42.0692567" lon="14.77709"><ele>2.5</ele><time>2026-04-09T10:16:01.836Z</time></trkpt><trkpt lat="42.06936" lon="14.7771683"><ele>2.25</ele><time>2026-04-09T10:16:03.836Z</time></trkpt><trkpt lat="42.0694567" lon="14.77724"><ele>2.0</ele><time>2026-04-09T10:16:05.836Z</time></trkpt><trkpt lat="42.069555" lon="14.77731"><ele>2.0</ele><time>2026-04-09T10:16:07.836Z</time></trkpt><trkpt lat="42.0696517" lon="14.777375"><ele>2.0</ele><time>2026-04-09T10:16:09.836Z</time></trkpt><trkpt lat="42.0697367" lon="14.7774433"><ele>2.0</ele><time>2026-04-09T10:16:11.836Z</time></trkpt><trkpt lat="42.06981" lon="14.777505"><ele>2.0</ele><time>2026-04-09T10:16:13.837Z</time></trkpt><trkpt lat="42.0698817" lon="14.7775717"><ele>2.0</ele><time>2026-04-09T10:16:15.837Z</time></trkpt><trkpt lat="42.0699517" lon="14.77762"><ele>1.9999999999999998</ele><time>2026-04-09T10:16:17.836Z</time></trkpt><trkpt lat="42.0700117" lon="14.7776667"><ele>2.0</ele><time>2026-04-09T10:16:19.836Z</time></trkpt><trkpt lat="42.070075" lon="14.7777133"><ele>2.0</ele><time>2026-04-09T10:16:21.836Z</time></trkpt><trkpt lat="42.0701467" lon="14.777735"><ele>2.0</ele><time>2026-04-09T10:16:23.836Z</time></trkpt><trkpt lat="42.0702183" lon="14.777745"><ele>1.9999999999999998</ele><time>2026-04-09T10:16:25.836Z</time></trkpt><trkpt lat="42.070305" lon="14.77776"><ele>2.0</ele><time>2026-04-09T10:16:28.836Z</time></trkpt><trkpt lat="42.0703867" lon="14.7777883"><ele>1.9999999999999998</ele><time>2026-04-09T10:16:31.836Z</time></trkpt><trkpt lat="42.0704483" lon="14.7778483"><ele>2.0</ele><time>2026-04-09T10:16:34.836Z</time></trkpt><trkpt lat="42.07052" lon="14.7778633"><ele>2.0</ele><time>2026-04-09T10:16:37.837Z</time></trkpt><trkpt lat="42.0705867" lon="14.7778417"><ele>2.0</ele><time>2026-04-09T10:16:41.837Z</time></trkpt><trkpt lat="42.0705967" lon="14.7777417"><ele>1.9999999999999998</ele><time>2026-04-09T10:16:45.837Z</time></trkpt><trkpt lat="42.0706067" lon="14.7776483"><ele>2.0</ele><time>2026-04-09T10:16:48.836Z</time></trkpt><trkpt lat="42.0706317" lon="14.77753"><ele>1.9999999999999998</ele><time>2026-04-09T10:16:51.837Z</time></trkpt><trkpt lat="42.0706583" lon="14.777435"><ele>2.0</ele><time>2026-04-09T10:16:53.836Z</time></trkpt><trkpt lat="42.0706867" lon="14.77732"><ele>2.0</ele><time>2026-04-09T10:16:55.836Z</time></trkpt><trkpt lat="42.07072" lon="14.7772233"><ele>2.0</ele><time>2026-04-09T10:16:57.836Z</time></trkpt><trkpt lat="42.0707467" lon="14.7771033"><ele>1.9999999999999998</ele><time>2026-04-09T10:16:59.836Z</time></trkpt><trkpt lat="42.0707767" lon="14.7769767"><ele>2.0</ele><time>2026-04-09T10:17:01.837Z</time></trkpt><trkpt lat="42.0708017" lon="14.7768633"><ele>1.8</ele><time>2026-04-09T10:17:03.836Z</time></trkpt><trkpt lat="42.070825" lon="14.7767467"><ele>1.6</ele><time>2026-04-09T10:17:05.836Z</time></trkpt><trkpt lat="42.0708533" lon="14.7766233"><ele>1.4000000000000001</ele><time>2026-04-09T10:17:07.836Z</time></trkpt><trkpt lat="42.0708867" lon="14.7764983"><ele>1.2000000000000002</ele><time>2026-04-09T10:17:09.836Z</time></trkpt><trkpt lat="42.0709317" lon="14.7763833"><ele>1.0</ele><time>2026-04-09T10:17:11.836Z</time></trkpt><trkpt lat="42.0709867" lon="14.7762767"><ele>0.9999999999999999</ele><time>2026-04-09T10:17:13.836Z</time></trkpt><trkpt lat="42.0710333" lon="14.7761683"><ele>1.0</ele><time>2026-04-09T10:17:15.836Z</time></trkpt><trkpt lat="42.0710817" lon="14.776065"><ele>1.0</ele><time>2026-04-09T10:17:17.836Z</time></trkpt><trkpt lat="42.0711217" lon="14.775955"><ele>1.0</ele><time>2026-04-09T10:17:19.836Z</time></trkpt><trkpt lat="42.0711467" lon="14.77585"><ele>0.9999999999999999</ele><time>2026-04-09T10:17:21.836Z</time></trkpt><trkpt lat="42.0711667" lon="14.7757333"><ele>1.0</ele><time>2026-04-09T10:17:23.836Z</time></trkpt><trkpt lat="42.0712033" lon="14.775615"><ele>1.0</ele><time>2026-04-09T10:17:25.836Z</time></trkpt><trkpt lat="42.0712433" lon="14.7754917"><ele>1.0</ele><time>2026-04-09T10:17:27.837Z</time></trkpt><trkpt lat="42.0712883" lon="14.7753717"><ele>1.0</ele><time>2026-04-09T10:17:29.837Z</time></trkpt><trkpt lat="42.071335" lon="14.7752517"><ele>1.0</ele><time>2026-04-09T10:17:31.836Z</time></trkpt><trkpt lat="42.0713733" lon="14.7751267"><ele>1.0</ele><time>2026-04-09T10:17:33.836Z</time></trkpt><trkpt lat="42.07141" lon="14.7750017"><ele>0.8</ele><time>2026-04-09T10:17:35.836Z</time></trkpt><trkpt lat="42.0714483" lon="14.7748717"><ele>0.6000000000000001</ele><time>2026-04-09T10:17:37.837Z</time></trkpt><trkpt lat="42.0714833" lon="14.77474"><ele>0.4</ele><time>2026-04-09T10:17:39.836Z</time></trkpt><trkpt lat="42.0715217" lon="14.7746117"><ele>0.2</ele><time>2026-04-09T10:17:41.836Z</time></trkpt><trkpt lat="42.071555" lon="14.7744833"><ele>0.0</ele><time>2026-04-09T10:17:43.836Z</time></trkpt><trkpt lat="42.071585" lon="14.77436"><ele>0.16666666666666666</ele><time>2026-04-09T10:17:45.836Z</time></trkpt><trkpt lat="42.0716233" lon="14.7742433"><ele>0.3333333333333333</ele><time>2026-04-09T10:17:47.836Z</time></trkpt><trkpt lat="42.0716583" lon="14.774135"><ele>0.5</ele><time>2026-04-09T10:17:49.836Z</time></trkpt><trkpt lat="42.071695" lon="14.7740367"><ele>0.6666666666666666</ele><time>2026-04-09T10:17:51.836Z</time></trkpt><trkpt lat="42.0717283" lon="14.7739333"><ele>0.8333333333333333</ele><time>2026-04-09T10:17:53.836Z</time></trkpt><trkpt lat="42.0717533" lon="14.7738167"><ele>1.0</ele><time>2026-04-09T10:17:55.836Z</time></trkpt><trkpt lat="42.07178" lon="14.7736967"><ele>1.0</ele><time>2026-04-09T10:17:57.836Z</time></trkpt><trkpt lat="42.07181" lon="14.773575"><ele>1.0</ele><time>2026-04-09T10:17:59.836Z</time></trkpt><trkpt lat="42.071845" lon="14.7734617"><ele>1.0</ele><time>2026-04-09T10:18:01.836Z</time></trkpt><trkpt lat="42.071885" lon="14.77335"><ele>1.0</ele><time>2026-04-09T10:18:03.836Z</time></trkpt><trkpt lat="42.0719283" lon="14.7732417"><ele>1.0</ele><time>2026-04-09T10:18:05.836Z</time></trkpt><trkpt lat="42.07197" lon="14.7731233"><ele>1.2000000000000002</ele><time>2026-04-09T10:18:07.836Z</time></trkpt><trkpt lat="42.07201" lon="14.7730017"><ele>1.4000000000000001</ele><time>2026-04-09T10:18:09.837Z</time></trkpt><trkpt lat="42.0720517" lon="14.772885"><ele>1.6</ele><time>2026-04-09T10:18:11.836Z</time></trkpt><trkpt lat="42.0720933" lon="14.7727667"><ele>1.8</ele><time>2026-04-09T10:18:13.836Z</time></trkpt><trkpt lat="42.0721383" lon="14.7726333"><ele>2.0</ele><time>2026-04-09T10:18:15.836Z</time></trkpt><trkpt lat="42.0721717" lon="14.7725167"><ele>1.6</ele><time>2026-04-09T10:18:17.837Z</time></trkpt><trkpt lat="42.0722067" lon="14.7723933"><ele>1.2000000000000002</ele><time>2026-04-09T10:18:19.836Z</time></trkpt><trkpt lat="42.07224" lon="14.77227"><ele>0.8</ele><time>2026-04-09T10:18:21.837Z</time></trkpt><trkpt lat="42.0722667" lon="14.7721333"><ele>0.4</ele><time>2026-04-09T10:18:23.836Z</time></trkpt><trkpt lat="42.0723" lon="14.7720033"><ele>0.0</ele><time>2026-04-09T10:18:25.836Z</time></trkpt><trkpt lat="42.0723383" lon="14.771875"><ele>0.0</ele><time>2026-04-09T10:18:27.836Z</time></trkpt><trkpt lat="42.07237" lon="14.77175"><ele>0.0</ele><time>2026-04-09T10:18:29.836Z</time></trkpt><trkpt lat="42.072405" lon="14.77162"><ele>0.0</ele><time>2026-04-09T10:18:31.836Z</time></trkpt><trkpt lat="42.07244" lon="14.7714917"><ele>0.0</ele><time>2026-04-09T10:18:33.836Z</time></trkpt><trkpt lat="42.0724767" lon="14.7713567"><ele>0.0</ele><time>2026-04-09T10:18:35.836Z</time></trkpt><trkpt lat="42.0725083" lon="14.7712183"><ele>0.0</ele><time>2026-04-09T10:18:37.836Z</time></trkpt><trkpt lat="42.0725483" lon="14.7710917"><ele>0.0</ele><time>2026-04-09T10:18:39.836Z</time></trkpt><trkpt lat="42.0725917" lon="14.770965"><ele>0.0</ele><time>2026-04-09T10:18:41.836Z</time></trkpt><trkpt lat="42.07264" lon="14.7708417"><ele>0.0</ele><time>2026-04-09T10:18:43.836Z</time></trkpt><trkpt lat="42.0726883" lon="14.770715"><ele>0.0</ele><time>2026-04-09T10:18:45.836Z</time></trkpt><trkpt lat="42.0727367" lon="14.7705917"><ele>0.0</ele><time>2026-04-09T10:18:47.836Z</time></trkpt><trkpt lat="42.07278" lon="14.7704617"><ele>0.0</ele><time>2026-04-09T10:18:49.836Z</time></trkpt><trkpt lat="42.0728233" lon="14.7703333"><ele>0.0</ele><time>2026-04-09T10:18:51.837Z</time></trkpt><trkpt lat="42.0728633" lon="14.7702033"><ele>0.0</ele><time>2026-04-09T10:18:53.836Z</time></trkpt><trkpt lat="42.0728967" lon="14.7700817"><ele>0.0</ele><time>2026-04-09T10:18:55.836Z</time></trkpt><trkpt lat="42.07293" lon="14.769955"><ele>0.0</ele><time>2026-04-09T10:18:57.837Z</time></trkpt><trkpt lat="42.0729567" lon="14.769835"><ele>0.0</ele><time>2026-04-09T10:18:59.836Z</time></trkpt><trkpt lat="42.0729917" lon="14.76971"><ele>0.0</ele><time>2026-04-09T10:19:01.837Z</time></trkpt><trkpt lat="42.0730283" lon="14.7695867"><ele>0.0</ele><time>2026-04-09T10:19:03.836Z</time></trkpt><trkpt lat="42.0730617" lon="14.769465"><ele>0.0</ele><time>2026-04-09T10:19:05.836Z</time></trkpt><trkpt lat="42.0730983" lon="14.769335"><ele>0.0</ele><time>2026-04-09T10:19:07.836Z</time></trkpt><trkpt lat="42.07313" lon="14.7692067"><ele>0.0</ele><time>2026-04-09T10:19:09.837Z</time></trkpt><trkpt lat="42.0731633" lon="14.7690767"><ele>0.0</ele><time>2026-04-09T10:19:11.836Z</time></trkpt><trkpt lat="42.0732017" lon="14.7689517"><ele>0.0</ele><time>2026-04-09T10:19:13.836Z</time></trkpt><trkpt lat="42.07325" lon="14.76883"><ele>0.0</ele><time>2026-04-09T10:19:15.836Z</time></trkpt><trkpt lat="42.073295" lon="14.7687133"><ele>0.0</ele><time>2026-04-09T10:19:17.836Z</time></trkpt><trkpt lat="42.0733433" lon="14.7686017"><ele>0.0</ele><time>2026-04-09T10:19:19.836Z</time></trkpt><trkpt lat="42.073385" lon="14.768485"><ele>0.0</ele><time>2026-04-09T10:19:21.836Z</time></trkpt><trkpt lat="42.073425" lon="14.768375"><ele>0.0</ele><time>2026-04-09T10:19:23.836Z</time></trkpt><trkpt lat="42.07346" lon="14.7682633"><ele>0.0</ele><time>2026-04-09T10:19:25.836Z</time></trkpt><trkpt lat="42.07349" lon="14.7681517"><ele>0.2</ele><time>2026-04-09T10:19:27.837Z</time></trkpt><trkpt lat="42.07353" lon="14.7680367"><ele>0.4</ele><time>2026-04-09T10:19:29.836Z</time></trkpt><trkpt lat="42.0735667" lon="14.7679167"><ele>0.6000000000000001</ele><time>2026-04-09T10:19:31.836Z</time></trkpt><trkpt lat="42.0735967" lon="14.767795"><ele>0.8</ele><time>2026-04-09T10:19:33.837Z</time></trkpt><trkpt lat="42.07363" lon="14.7676717"><ele>1.0</ele><time>2026-04-09T10:19:35.836Z</time></trkpt><trkpt lat="42.0736683" lon="14.76755"><ele>1.6</ele><time>2026-04-09T10:19:37.836Z</time></trkpt><trkpt lat="42.073715" lon="14.76743"><ele>2.2</ele><time>2026-04-09T10:19:39.836Z</time></trkpt><trkpt lat="42.0737533" lon="14.7673083"><ele>2.8000000000000003</ele><time>2026-04-09T10:19:41.836Z</time></trkpt><trkpt lat="42.0737917" lon="14.7671817"><ele>3.4000000000000004</ele><time>2026-04-09T10:19:43.836Z</time></trkpt><trkpt lat="42.0738317" lon="14.767055"><ele>4.0</ele><time>2026-04-09T10:19:45.836Z</time></trkpt><trkpt lat="42.07386" lon="14.7669367"><ele>3.6666666666666665</ele><time>2026-04-09T10:19:47.837Z</time></trkpt><trkpt lat="42.0738883" lon="14.7668233"><ele>3.333333333333333</ele><time>2026-04-09T10:19:49.837Z</time></trkpt><trkpt lat="42.07392" lon="14.7667233"><ele>3.0</ele><time>2026-04-09T10:19:51.836Z</time></trkpt><trkpt lat="42.0739583" lon="14.7666333"><ele>2.6666666666666665</ele><time>2026-04-09T10:19:53.836Z</time></trkpt><trkpt lat="42.074" lon="14.7665317"><ele>2.333333333333333</ele><time>2026-04-09T10:19:55.836Z</time></trkpt><trkpt lat="42.074035" lon="14.766445"><ele>2.0</ele><time>2026-04-09T10:19:57.836Z</time></trkpt><trkpt lat="42.074075" lon="14.7663267"><ele>1.9999999999999998</ele><time>2026-04-09T10:20:00.836Z</time></trkpt><trkpt lat="42.0740933" lon="14.7662283"><ele>2.0</ele><time>2026-04-09T10:20:02.836Z</time></trkpt><trkpt lat="42.0741267" lon="14.7661133"><ele>2.0</ele><time>2026-04-09T10:20:04.837Z</time></trkpt><trkpt lat="42.0741467" lon="14.7659967"><ele>2.0</ele><time>2026-04-09T10:20:06.836Z</time></trkpt><trkpt lat="42.07416" lon="14.765885"><ele>1.9999999999999998</ele><time>2026-04-09T10:20:08.836Z</time></trkpt><trkpt lat="42.0741983" lon="14.7657783"><ele>2.0</ele><time>2026-04-09T10:20:10.836Z</time></trkpt><trkpt lat="42.0742483" lon="14.7656567"><ele>2.0</ele><time>2026-04-09T10:20:12.836Z</time></trkpt><trkpt lat="42.0742933" lon="14.7655317"><ele>2.0</ele><time>2026-04-09T10:20:14.837Z</time></trkpt><trkpt lat="42.0743317" lon="14.7653983"><ele>2.0</ele><time>2026-04-09T10:20:16.836Z</time></trkpt><trkpt lat="42.0743783" lon="14.765265"><ele>2.0</ele><time>2026-04-09T10:20:18.837Z</time></trkpt><trkpt lat="42.0744217" lon="14.7651283"><ele>2.0</ele><time>2026-04-09T10:20:20.836Z</time></trkpt><trkpt lat="42.0744683" lon="14.7649817"><ele>2.25</ele><time>2026-04-09T10:20:22.836Z</time></trkpt><trkpt lat="42.0745117" lon="14.7648333"><ele>2.5</ele><time>2026-04-09T10:20:24.836Z</time></trkpt><trkpt lat="42.0745583" lon="14.764685"><ele>2.75</ele><time>2026-04-09T10:20:26.837Z</time></trkpt><trkpt lat="42.0746033" lon="14.7645333"><ele>3.0</ele><time>2026-04-09T10:20:28.837Z</time></trkpt><trkpt lat="42.0746517" lon="14.7643917"><ele>2.75</ele><time>2026-04-09T10:20:30.836Z</time></trkpt><trkpt lat="42.0746967" lon="14.7642517"><ele>2.5</ele><time>2026-04-09T10:20:32.836Z</time></trkpt><trkpt lat="42.0747383" lon="14.7641117"><ele>2.25</ele><time>2026-04-09T10:20:34.836Z</time></trkpt><trkpt lat="42.0747783" lon="14.7639717"><ele>2.0</ele><time>2026-04-09T10:20:36.836Z</time></trkpt><trkpt lat="42.074825" lon="14.7638317"><ele>2.0</ele><time>2026-04-09T10:20:38.836Z</time></trkpt><trkpt lat="42.0748683" lon="14.7636867"><ele>2.0</ele><time>2026-04-09T10:20:40.836Z</time></trkpt><trkpt lat="42.0749117" lon="14.7635417"><ele>2.0</ele><time>2026-04-09T10:20:42.837Z</time></trkpt><trkpt lat="42.0749567" lon="14.7633967"><ele>2.0</ele><time>2026-04-09T10:20:44.836Z</time></trkpt><trkpt lat="42.075" lon="14.763245"><ele>1.75</ele><time>2026-04-09T10:20:46.836Z</time></trkpt><trkpt lat="42.0750417" lon="14.763105"><ele>1.5</ele><time>2026-04-09T10:20:48.836Z</time></trkpt><trkpt lat="42.07509" lon="14.7629617"><ele>1.25</ele><time>2026-04-09T10:20:50.836Z</time></trkpt><trkpt lat="42.0751367" lon="14.7628133"><ele>1.0</ele><time>2026-04-09T10:20:52.836Z</time></trkpt><trkpt lat="42.07518" lon="14.7626717"><ele>1.0</ele><time>2026-04-09T10:20:54.837Z</time></trkpt><trkpt lat="42.0752217" lon="14.7625283"><ele>1.0</ele><time>2026-04-09T10:20:56.836Z</time></trkpt><trkpt lat="42.0752633" lon="14.7623833"><ele>1.0</ele><time>2026-04-09T10:20:58.836Z</time></trkpt><trkpt lat="42.0753083" lon="14.7622383"><ele>1.0</ele><time>2026-04-09T10:21:00.836Z</time></trkpt><trkpt lat="42.0753533" lon="14.7620917"><ele>1.0</ele><time>2026-04-09T10:21:02.836Z</time></trkpt><trkpt lat="42.0754" lon="14.7619483"><ele>1.0</ele><time>2026-04-09T10:21:04.836Z</time></trkpt><trkpt lat="42.0754467" lon="14.7618017"><ele>1.0</ele><time>2026-04-09T10:21:06.836Z</time></trkpt><trkpt lat="42.075495" lon="14.7616617"><ele>1.0</ele><time>2026-04-09T10:21:08.836Z</time></trkpt><trkpt lat="42.0755433" lon="14.7615233"><ele>1.0</ele><time>2026-04-09T10:21:10.836Z</time></trkpt><trkpt lat="42.0756017" lon="14.761385"><ele>1.0</ele><time>2026-04-09T10:21:12.836Z</time></trkpt><trkpt lat="42.07566" lon="14.7612483"><ele>1.0</ele><time>2026-04-09T10:21:14.836Z</time></trkpt><trkpt lat="42.07572" lon="14.7611083"><ele>1.0</ele><time>2026-04-09T10:21:16.836Z</time></trkpt><trkpt lat="42.0757767" lon="14.76097"><ele>1.0</ele><time>2026-04-09T10:21:18.836Z</time></trkpt><trkpt lat="42.0758417" lon="14.7608217"><ele>1.0</ele><time>2026-04-09T10:21:20.836Z</time></trkpt><trkpt lat="42.0759033" lon="14.7606767"><ele>1.0</ele><time>2026-04-09T10:21:22.836Z</time></trkpt><trkpt lat="42.0759583" lon="14.760535"><ele>1.0</ele><time>2026-04-09T10:21:24.836Z</time></trkpt><trkpt lat="42.0760167" lon="14.7604017"><ele>1.0</ele><time>2026-04-09T10:21:26.836Z</time></trkpt><trkpt lat="42.0760733" lon="14.7602667"><ele>1.0</ele><time>2026-04-09T10:21:28.836Z</time></trkpt><trkpt lat="42.076135" lon="14.7601267"><ele>1.0</ele><time>2026-04-09T10:21:30.837Z</time></trkpt><trkpt lat="42.0761933" lon="14.75999"><ele>1.0</ele><time>2026-04-09T10:21:32.836Z</time></trkpt><trkpt lat="42.076245" lon="14.759855"><ele>1.0</ele><time>2026-04-09T10:21:34.836Z</time></trkpt><trkpt lat="42.0763033" lon="14.7597217"><ele>1.0</ele><time>2026-04-09T10:21:36.836Z</time></trkpt><trkpt lat="42.0763617" lon="14.759585"><ele>1.0</ele><time>2026-04-09T10:21:38.836Z</time></trkpt><trkpt lat="42.0764183" lon="14.7594467"><ele>1.0</ele><time>2026-04-09T10:21:40.836Z</time></trkpt><trkpt lat="42.0764733" lon="14.7593117"><ele>1.0</ele><time>2026-04-09T10:21:42.836Z</time></trkpt><trkpt lat="42.0765333" lon="14.759175"><ele>1.0</ele><time>2026-04-09T10:21:44.837Z</time></trkpt><trkpt lat="42.0765933" lon="14.7590383"><ele>1.0</ele><time>2026-04-09T10:21:46.837Z</time></trkpt><trkpt lat="42.0766533" lon="14.7589017"><ele>1.0</ele><time>2026-04-09T10:21:48.837Z</time></trkpt><trkpt lat="42.0767133" lon="14.75876"><ele>1.0</ele><time>2026-04-09T10:21:50.836Z</time></trkpt><trkpt lat="42.0767683" lon="14.7586233"><ele>1.0</ele><time>2026-04-09T10:21:52.836Z</time></trkpt><trkpt lat="42.076825" lon="14.7584867"><ele>1.0</ele><time>2026-04-09T10:21:54.837Z</time></trkpt><trkpt lat="42.076885" lon="14.758345"><ele>1.0</ele><time>2026-04-09T10:21:56.836Z</time></trkpt><trkpt lat="42.0769433" lon="14.758215"><ele>1.4</ele><time>2026-04-09T10:21:58.836Z</time></trkpt><trkpt lat="42.076995" lon="14.7580833"><ele>1.8</ele><time>2026-04-09T10:22:00.836Z</time></trkpt><trkpt lat="42.077055" lon="14.757945"><ele>2.1999999999999997</ele><time>2026-04-09T10:22:02.836Z</time></trkpt><trkpt lat="42.0770883" lon="14.7578683"><ele>2.6</ele><time>2026-04-09T10:22:03.836Z</time></trkpt><trkpt lat="42.0771467" lon="14.7577283"><ele>3.0</ele><time>2026-04-09T10:22:05.836Z</time></trkpt><trkpt lat="42.0771967" lon="14.7575867"><ele>3.25</ele><time>2026-04-09T10:22:07.836Z</time></trkpt><trkpt lat="42.07725" lon="14.75746"><ele>3.5</ele><time>2026-04-09T10:22:09.836Z</time></trkpt><trkpt lat="42.077305" lon="14.7573233"><ele>3.75</ele><time>2026-04-09T10:22:11.836Z</time></trkpt><trkpt lat="42.0773583" lon="14.75719"><ele>4.0</ele><time>2026-04-09T10:22:13.836Z</time></trkpt><trkpt lat="42.0774183" lon="14.7570533"><ele>3.5</ele><time>2026-04-09T10:22:15.836Z</time></trkpt><trkpt lat="42.0774683" lon="14.756915"><ele>3.0</ele><time>2026-04-09T10:22:17.836Z</time></trkpt><trkpt lat="42.0775217" lon="14.756775"><ele>2.5</ele><time>2026-04-09T10:22:19.837Z</time></trkpt><trkpt lat="42.0775783" lon="14.756635"><ele>2.0</ele><time>2026-04-09T10:22:21.836Z</time></trkpt><trkpt lat="42.077645" lon="14.7564983"><ele>2.0</ele><time>2026-04-09T10:22:23.836Z</time></trkpt><trkpt lat="42.077715" lon="14.7563733"><ele>2.0</ele><time>2026-04-09T10:22:25.837Z</time></trkpt><trkpt lat="42.07778" lon="14.7562417"><ele>2.0</ele><time>2026-04-09T10:22:27.837Z</time></trkpt><trkpt lat="42.077835" lon="14.7561083"><ele>2.0</ele><time>2026-04-09T10:22:29.836Z</time></trkpt><trkpt lat="42.07789" lon="14.7559717"><ele>2.0</ele><time>2026-04-09T10:22:31.836Z</time></trkpt><trkpt lat="42.0779483" lon="14.75583"><ele>2.0</ele><time>2026-04-09T10:22:33.836Z</time></trkpt><trkpt lat="42.0780083" lon="14.7556967"><ele>2.0</ele><time>2026-04-09T10:22:35.836Z</time></trkpt><trkpt lat="42.0780667" lon="14.7555617"><ele>2.0</ele><time>2026-04-09T10:22:37.836Z</time></trkpt><trkpt lat="42.0781267" lon="14.7554283"><ele>2.0</ele><time>2026-04-09T10:22:39.836Z</time></trkpt><trkpt lat="42.0781817" lon="14.7552933"><ele>2.0</ele><time>2026-04-09T10:22:41.836Z</time></trkpt><trkpt lat="42.0782383" lon="14.75516"><ele>2.0</ele><time>2026-04-09T10:22:43.836Z</time></trkpt><trkpt lat="42.0782933" lon="14.75502"><ele>2.0</ele><time>2026-04-09T10:22:45.837Z</time></trkpt><trkpt lat="42.0783533" lon="14.7548867"><ele>1.75</ele><time>2026-04-09T10:22:47.836Z</time></trkpt><trkpt lat="42.0784117" lon="14.7547467"><ele>1.5</ele><time>2026-04-09T10:22:49.836Z</time></trkpt><trkpt lat="42.07847" lon="14.7546083"><ele>1.25</ele><time>2026-04-09T10:22:51.836Z</time></trkpt><trkpt lat="42.078525" lon="14.7544733"><ele>1.0</ele><time>2026-04-09T10:22:53.836Z</time></trkpt><trkpt lat="42.0785833" lon="14.7543433"><ele>1.0</ele><time>2026-04-09T10:22:55.836Z</time></trkpt><trkpt lat="42.078635" lon="14.7542117"><ele>1.0</ele><time>2026-04-09T10:22:57.836Z</time></trkpt><trkpt lat="42.078685" lon="14.75408"><ele>1.0</ele><time>2026-04-09T10:22:59.836Z</time></trkpt><trkpt lat="42.078695" lon="14.75395"><ele>1.0</ele><time>2026-04-09T10:23:01.836Z</time></trkpt><trkpt lat="42.0786333" lon="14.7538567"><ele>1.0</ele><time>2026-04-09T10:23:03.836Z</time></trkpt><trkpt lat="42.0785383" lon="14.7537967"><ele>1.0</ele><time>2026-04-09T10:23:05.837Z</time></trkpt><trkpt lat="42.0784383" lon="14.7537183"><ele>1.0</ele><time>2026-04-09T10:23:07.836Z</time></trkpt><trkpt lat="42.0783367" lon="14.7536383"><ele>1.0</ele><time>2026-04-09T10:23:09.836Z</time></trkpt><trkpt lat="42.0782367" lon="14.7535633"><ele>1.0</ele><time>2026-04-09T10:23:11.836Z</time></trkpt><trkpt lat="42.0781283" lon="14.7534867"><ele>1.5</ele><time>2026-04-09T10:23:13.836Z</time></trkpt><trkpt lat="42.07802" lon="14.7534117"><ele>2.0</ele><time>2026-04-09T10:23:15.836Z</time></trkpt><trkpt lat="42.0779133" lon="14.7533383"><ele>2.5</ele><time>2026-04-09T10:23:17.836Z</time></trkpt><trkpt lat="42.0778067" lon="14.75327"><ele>3.0</ele><time>2026-04-09T10:23:19.836Z</time></trkpt><trkpt lat="42.0777067" lon="14.7531933"><ele>3.0</ele><time>2026-04-09T10:23:21.836Z</time></trkpt><trkpt lat="42.0776133" lon="14.7531217"><ele>3.0</ele><time>2026-04-09T10:23:23.836Z</time></trkpt><trkpt lat="42.0775217" lon="14.753075"><ele>3.0</ele><time>2026-04-09T10:23:25.836Z</time></trkpt><trkpt lat="42.0774267" lon="14.7529867"><ele>3.0</ele><time>2026-04-09T10:23:27.837Z</time></trkpt><trkpt lat="42.0773283" lon="14.752925"><ele>3.0</ele><time>2026-04-09T10:23:29.836Z</time></trkpt><trkpt lat="42.0772717" lon="14.7528783"><ele>3.4</ele><time>2026-04-09T10:23:30.836Z</time></trkpt><trkpt lat="42.0771667" lon="14.7528"><ele>3.8</ele><time>2026-04-09T10:23:32.836Z</time></trkpt><trkpt lat="42.0770667" lon="14.75273"><ele>4.2</ele><time>2026-04-09T10:23:34.837Z</time></trkpt><trkpt lat="42.076985" lon="14.7526517"><ele>4.6</ele><time>2026-04-09T10:23:36.837Z</time></trkpt><trkpt lat="42.0769067" lon="14.7526117"><ele>5.0</ele><time>2026-04-09T10:23:38.836Z</time></trkpt><trkpt lat="42.076835" lon="14.752595"><ele>5.0</ele><time>2026-04-09T10:23:39.836Z</time></trkpt><trkpt lat="42.07675" lon="14.7525917"><ele>5.0</ele><time>2026-04-09T10:23:41.836Z</time></trkpt><trkpt lat="42.0767083" lon="14.7525033"><ele>5.0</ele><time>2026-04-09T10:23:46.836Z</time></trkpt><trkpt lat="42.0766983" lon="14.7524033"><ele>5.0</ele><time>2026-04-09T10:23:49.836Z</time></trkpt><trkpt lat="42.076725" lon="14.752305"><ele>5.0</ele><time>2026-04-09T10:23:51.836Z</time></trkpt><trkpt lat="42.07679" lon="14.7521917"><ele>5.0</ele><time>2026-04-09T10:23:53.836Z</time></trkpt><trkpt lat="42.0768583" lon="14.752075"><ele>5.0</ele><time>2026-04-09T10:23:55.836Z</time></trkpt><trkpt lat="42.0769233" lon="14.751955"><ele>5.0</ele><time>2026-04-09T10:23:57.836Z</time></trkpt><trkpt lat="42.0769817" lon="14.751825"><ele>5.0</ele><time>2026-04-09T10:23:59.836Z</time></trkpt><trkpt lat="42.0770467" lon="14.7516983"><ele>5.0</ele><time>2026-04-09T10:24:01.836Z</time></trkpt><trkpt lat="42.0771167" lon="14.7515783"><ele>5.2</ele><time>2026-04-09T10:24:03.836Z</time></trkpt><trkpt lat="42.0771533" lon="14.7515083"><ele>5.4</ele><time>2026-04-09T10:24:04.836Z</time></trkpt><trkpt lat="42.0772167" lon="14.75138"><ele>5.6</ele><time>2026-04-09T10:24:06.836Z</time></trkpt><trkpt lat="42.07728" lon="14.7512517"><ele>5.8</ele><time>2026-04-09T10:24:08.836Z</time></trkpt><trkpt lat="42.0773483" lon="14.7511367"><ele>6.0</ele><time>2026-04-09T10:24:10.836Z</time></trkpt><trkpt lat="42.077425" lon="14.7510767"><ele>6.0</ele><time>2026-04-09T10:24:12.836Z</time></trkpt><trkpt lat="42.07749" lon="14.751025"><ele>6.0</ele><time>2026-04-09T10:24:14.837Z</time></trkpt><trkpt lat="42.0775483" lon="14.7509767"><ele>6.0</ele><time>2026-04-09T10:24:16.836Z</time></trkpt><trkpt lat="42.0776217" lon="14.7509217"><ele>6.0</ele><time>2026-04-09T10:24:19.836Z</time></trkpt><trkpt lat="42.0777017" lon="14.7509417"><ele>6.0</ele><time>2026-04-09T10:24:22.836Z</time></trkpt><trkpt lat="42.0777917" lon="14.751"><ele>6.0</ele><time>2026-04-09T10:24:24.836Z</time></trkpt><trkpt lat="42.07789" lon="14.7510567"><ele>6.0</ele><time>2026-04-09T10:24:26.836Z</time></trkpt><trkpt lat="42.077995" lon="14.7510983"><ele>6.0</ele><time>2026-04-09T10:24:28.836Z</time></trkpt><trkpt lat="42.0780967" lon="14.7511383"><ele>6.0</ele><time>2026-04-09T10:24:30.837Z</time></trkpt><trkpt lat="42.078205" lon="14.7511717"><ele>6.0</ele><time>2026-04-09T10:24:32.836Z</time></trkpt><trkpt lat="42.0783117" lon="14.7512017"><ele>6.0</ele><time>2026-04-09T10:24:34.836Z</time></trkpt><trkpt lat="42.078415" lon="14.7512233"><ele>5.3999999999999995</ele><time>2026-04-09T10:24:36.836Z</time></trkpt><trkpt lat="42.0785133" lon="14.751245"><ele>4.8</ele><time>2026-04-09T10:24:38.836Z</time></trkpt><trkpt lat="42.0786033" lon="14.7512617"><ele>4.199999999999999</ele><time>2026-04-09T10:24:40.836Z</time></trkpt><trkpt lat="42.0786833" lon="14.7512567"><ele>3.5999999999999996</ele><time>2026-04-09T10:24:42.836Z</time></trkpt><trkpt lat="42.0787483" lon="14.7511817"><ele>3.0</ele><time>2026-04-09T10:24:44.836Z</time></trkpt><trkpt lat="42.0788117" lon="14.7510383"><ele>3.0</ele><time>2026-04-09T10:24:46.837Z</time></trkpt><trkpt lat="42.0788867" lon="14.7509033"><ele>3.0</ele><time>2026-04-09T10:24:48.836Z</time></trkpt><trkpt lat="42.078965" lon="14.75077"><ele>3.0</ele><time>2026-04-09T10:24:50.836Z</time></trkpt><trkpt lat="42.07904" lon="14.75064"><ele>3.0</ele><time>2026-04-09T10:24:52.836Z</time></trkpt><trkpt lat="42.0791133" lon="14.7505117"><ele>3.0</ele><time>2026-04-09T10:24:54.836Z</time></trkpt><trkpt lat="42.0791867" lon="14.7503783"><ele>3.0</ele><time>2026-04-09T10:24:56.836Z</time></trkpt><trkpt lat="42.0792233" lon="14.7503067"><ele>3.0</ele><time>2026-04-09T10:24:57.836Z</time></trkpt><trkpt lat="42.0792583" lon="14.7502317"><ele>3.0</ele><time>2026-04-09T10:24:58.836Z</time></trkpt><trkpt lat="42.07929" lon="14.7501567"><ele>3.0</ele><time>2026-04-09T10:24:59.836Z</time></trkpt><trkpt lat="42.0793417" lon="14.7500167"><ele>3.0</ele><time>2026-04-09T10:25:01.836Z</time></trkpt><trkpt lat="42.0793933" lon="14.7498783"><ele>2.75</ele><time>2026-04-09T10:25:03.836Z</time></trkpt><trkpt lat="42.079455" lon="14.7497483"><ele>2.5</ele><time>2026-04-09T10:25:05.837Z</time></trkpt><trkpt lat="42.0795333" lon="14.7496217"><ele>2.25</ele><time>2026-04-09T10:25:07.837Z</time></trkpt><trkpt lat="42.07961" lon="14.7495017"><ele>2.0</ele><time>2026-04-09T10:25:09.836Z</time></trkpt><trkpt lat="42.0796883" lon="14.7493767"><ele>2.0</ele><time>2026-04-09T10:25:11.836Z</time></trkpt><trkpt lat="42.0797533" lon="14.7492433"><ele>2.0</ele><time>2026-04-09T10:25:13.836Z</time></trkpt><trkpt lat="42.079825" lon="14.7491133"><ele>2.0</ele><time>2026-04-09T10:25:15.836Z</time></trkpt><trkpt lat="42.0798983" lon="14.7489933"><ele>2.0</ele><time>2026-04-09T10:25:17.836Z</time></trkpt><trkpt lat="42.0799733" lon="14.74888"><ele>2.0</ele><time>2026-04-09T10:25:19.836Z</time></trkpt><trkpt lat="42.08004" lon="14.7487683"><ele>2.0</ele><time>2026-04-09T10:25:21.836Z</time></trkpt><trkpt lat="42.0801083" lon="14.7486533"><ele>2.0</ele><time>2026-04-09T10:25:23.836Z</time></trkpt><trkpt lat="42.0801783" lon="14.7485283"><ele>2.0</ele><time>2026-04-09T10:25:25.836Z</time></trkpt><trkpt lat="42.0802517" lon="14.7484067"><ele>2.0</ele><time>2026-04-09T10:25:27.836Z</time></trkpt><trkpt lat="42.0803283" lon="14.7482783"><ele>2.0</ele><time>2026-04-09T10:25:29.837Z</time></trkpt><trkpt lat="42.0803967" lon="14.7481583"><ele>2.0</ele><time>2026-04-09T10:25:31.836Z</time></trkpt><trkpt lat="42.08047" lon="14.7480383"><ele>2.0</ele><time>2026-04-09T10:25:33.836Z</time></trkpt><trkpt lat="42.08054" lon="14.7479167"><ele>2.0</ele><time>2026-04-09T10:25:35.836Z</time></trkpt><trkpt lat="42.080605" lon="14.74779"><ele>2.0</ele><time>2026-04-09T10:25:37.836Z</time></trkpt><trkpt lat="42.080675" lon="14.7476667"><ele>2.0</ele><time>2026-04-09T10:25:39.836Z</time></trkpt><trkpt lat="42.08074" lon="14.747545"><ele>2.0</ele><time>2026-04-09T10:25:41.836Z</time></trkpt><trkpt lat="42.0808167" lon="14.7474333"><ele>2.0</ele><time>2026-04-09T10:25:43.836Z</time></trkpt><trkpt lat="42.08089" lon="14.74732"><ele>2.0</ele><time>2026-04-09T10:25:45.837Z</time></trkpt><trkpt lat="42.0809717" lon="14.7471933"><ele>2.0</ele><time>2026-04-09T10:25:47.836Z</time></trkpt><trkpt lat="42.0810533" lon="14.74709"><ele>2.0</ele><time>2026-04-09T10:25:49.836Z</time></trkpt><trkpt lat="42.0811283" lon="14.7469917"><ele>2.0</ele><time>2026-04-09T10:25:51.836Z</time></trkpt><trkpt lat="42.081205" lon="14.7468767"><ele>2.2</ele><time>2026-04-09T10:25:53.837Z</time></trkpt><trkpt lat="42.0812717" lon="14.7467683"><ele>2.4000000000000004</ele><time>2026-04-09T10:25:55.836Z</time></trkpt><trkpt lat="42.081335" lon="14.74665"><ele>2.5999999999999996</ele><time>2026-04-09T10:25:57.836Z</time></trkpt><trkpt lat="42.0813933" lon="14.746545"><ele>2.8</ele><time>2026-04-09T10:25:59.836Z</time></trkpt><trkpt lat="42.0814367" lon="14.746465"><ele>3.0</ele><time>2026-04-09T10:26:01.836Z</time></trkpt><trkpt lat="42.08149" lon="14.7464067"><ele>3.0</ele><time>2026-04-09T10:26:05.836Z</time></trkpt><trkpt lat="42.0815333" lon="14.7463183"><ele>3.0</ele><time>2026-04-09T10:26:09.836Z</time></trkpt><trkpt lat="42.0815733" lon="14.74625"><ele>3.0</ele><time>2026-04-09T10:26:12.836Z</time></trkpt><trkpt lat="42.0816083" lon="14.746165"><ele>3.0</ele><time>2026-04-09T10:26:15.836Z</time></trkpt><trkpt lat="42.081655" lon="14.7460983"><ele>3.0</ele><time>2026-04-09T10:26:18.836Z</time></trkpt><trkpt lat="42.0817267" lon="14.7460167"><ele>3.0</ele><time>2026-04-09T10:26:21.836Z</time></trkpt><trkpt lat="42.0818017" lon="14.74594"><ele>3.2</ele><time>2026-04-09T10:26:24.836Z</time></trkpt><trkpt lat="42.0818583" lon="14.7458333"><ele>3.4</ele><time>2026-04-09T10:26:27.836Z</time></trkpt><trkpt lat="42.0818917" lon="14.7457467"><ele>3.6000000000000005</ele><time>2026-04-09T10:26:28.836Z</time></trkpt><trkpt lat="42.081925" lon="14.7456567"><ele>3.8000000000000003</ele><time>2026-04-09T10:26:29.836Z</time></trkpt><trkpt lat="42.0819917" lon="14.74552"><ele>4.0</ele><time>2026-04-09T10:26:31.837Z</time></trkpt><trkpt lat="42.0820617" lon="14.7454017"><ele>4.0</ele><time>2026-04-09T10:26:33.837Z</time></trkpt><trkpt lat="42.08213" lon="14.7452817"><ele>4.0</ele><time>2026-04-09T10:26:35.836Z</time></trkpt><trkpt lat="42.0822067" lon="14.74515"><ele>4.0</ele><time>2026-04-09T10:26:37.837Z</time></trkpt><trkpt lat="42.0822833" lon="14.7450217"><ele>4.0</ele><time>2026-04-09T10:26:39.837Z</time></trkpt><trkpt lat="42.0823233" lon="14.744955"><ele>4.0</ele><time>2026-04-09T10:26:40.837Z</time></trkpt><trkpt lat="42.0823933" lon="14.7448167"><ele>3.8000000000000003</ele><time>2026-04-09T10:26:42.836Z</time></trkpt><trkpt lat="42.0824683" lon="14.7447"><ele>3.6000000000000005</ele><time>2026-04-09T10:26:44.836Z</time></trkpt><trkpt lat="42.0825417" lon="14.7445933"><ele>3.4</ele><time>2026-04-09T10:26:46.836Z</time></trkpt><trkpt lat="42.0826183" lon="14.7444833"><ele>3.2</ele><time>2026-04-09T10:26:48.837Z</time></trkpt><trkpt lat="42.082665" lon="14.744395"><ele>3.0</ele><time>2026-04-09T10:26:50.836Z</time></trkpt><trkpt lat="42.08272" lon="14.7443183"><ele>3.0</ele><time>2026-04-09T10:26:54.836Z</time></trkpt><trkpt lat="42.08277" lon="14.7442333"><ele>3.0</ele><time>2026-04-09T10:26:58.836Z</time></trkpt><trkpt lat="42.0828167" lon="14.7441433"><ele>3.0</ele><time>2026-04-09T10:27:01.836Z</time></trkpt><trkpt lat="42.0828617" lon="14.7440717"><ele>3.0</ele><time>2026-04-09T10:27:03.837Z</time></trkpt><trkpt lat="42.0829033" lon="14.7439933"><ele>3.0</ele><time>2026-04-09T10:27:05.837Z</time></trkpt><trkpt lat="42.08295" lon="14.743905"><ele>3.0</ele><time>2026-04-09T10:27:07.837Z</time></trkpt><trkpt lat="42.0829933" lon="14.7438183"><ele>3.0</ele><time>2026-04-09T10:27:09.836Z</time></trkpt><trkpt lat="42.083045" lon="14.743745"><ele>3.0</ele><time>2026-04-09T10:27:11.837Z</time></trkpt><trkpt lat="42.083115" lon="14.7436467"><ele>3.0</ele><time>2026-04-09T10:27:14.837Z</time></trkpt><trkpt lat="42.0831533" lon="14.743575"><ele>3.0</ele><time>2026-04-09T10:27:16.836Z</time></trkpt><trkpt lat="42.0831983" lon="14.74349"><ele>3.0</ele><time>2026-04-09T10:27:19.836Z</time></trkpt><trkpt lat="42.0832383" lon="14.7434167"><ele>3.0</ele><time>2026-04-09T10:27:22.837Z</time></trkpt><trkpt lat="42.0832867" lon="14.7433433"><ele>2.8333333333333335</ele><time>2026-04-09T10:27:26.836Z</time></trkpt><trkpt lat="42.0833383" lon="14.74327"><ele>2.6666666666666665</ele><time>2026-04-09T10:27:30.836Z</time></trkpt><trkpt lat="42.083385" lon="14.7431917"><ele>2.5</ele><time>2026-04-09T10:27:33.836Z</time></trkpt><trkpt lat="42.0834217" lon="14.7431183"><ele>2.333333333333333</ele><time>2026-04-09T10:27:35.836Z</time></trkpt><trkpt lat="42.083475" lon="14.7430467"><ele>2.1666666666666665</ele><time>2026-04-09T10:27:37.837Z</time></trkpt><trkpt lat="42.0835467" lon="14.7429633"><ele>2.0</ele><time>2026-04-09T10:27:39.837Z</time></trkpt><trkpt lat="42.083615" lon="14.74288"><ele>2.0</ele><time>2026-04-09T10:27:41.836Z</time></trkpt><trkpt lat="42.0836867" lon="14.74278"><ele>2.0</ele><time>2026-04-09T10:27:43.836Z</time></trkpt><trkpt lat="42.08375" lon="14.7426783"><ele>2.0</ele><time>2026-04-09T10:27:45.836Z</time></trkpt><trkpt lat="42.0838217" lon="14.7425567"><ele>2.0</ele><time>2026-04-09T10:27:47.836Z</time></trkpt><trkpt lat="42.0838867" lon="14.7424517"><ele>2.0</ele><time>2026-04-09T10:27:49.836Z</time></trkpt><trkpt lat="42.083945" lon="14.74235"><ele>2.6</ele><time>2026-04-09T10:27:51.837Z</time></trkpt><trkpt lat="42.084005" lon="14.7422567"><ele>3.2</ele><time>2026-04-09T10:27:53.836Z</time></trkpt><trkpt lat="42.0840633" lon="14.7421633"><ele>3.8</ele><time>2026-04-09T10:27:55.836Z</time></trkpt><trkpt lat="42.0841267" lon="14.7420567"><ele>4.4</ele><time>2026-04-09T10:27:57.836Z</time></trkpt><trkpt lat="42.0841917" lon="14.741965"><ele>5.0</ele><time>2026-04-09T10:27:59.836Z</time></trkpt><trkpt lat="42.0842683" lon="14.7418367"><ele>5.25</ele><time>2026-04-09T10:28:01.836Z</time></trkpt><trkpt lat="42.084345" lon="14.7417183"><ele>5.5</ele><time>2026-04-09T10:28:03.836Z</time></trkpt><trkpt lat="42.084415" lon="14.7415983"><ele>5.75</ele><time>2026-04-09T10:28:05.836Z</time></trkpt><trkpt lat="42.0844867" lon="14.7414733"><ele>6.0</ele><time>2026-04-09T10:28:07.836Z</time></trkpt><trkpt lat="42.0845667" lon="14.7413383"><ele>6.0</ele><time>2026-04-09T10:28:09.836Z</time></trkpt><trkpt lat="42.084605" lon="14.7412683"><ele>6.0</ele><time>2026-04-09T10:28:10.837Z</time></trkpt><trkpt lat="42.0846467" lon="14.7412"><ele>6.0</ele><time>2026-04-09T10:28:11.836Z</time></trkpt><trkpt lat="42.0847233" lon="14.7410683"><ele>6.0</ele><time>2026-04-09T10:28:13.836Z</time></trkpt><trkpt lat="42.0847617" lon="14.741"><ele>6.0</ele><time>2026-04-09T10:28:14.836Z</time></trkpt><trkpt lat="42.0848" lon="14.7409317"><ele>6.0</ele><time>2026-04-09T10:28:15.837Z</time></trkpt><trkpt lat="42.084865" lon="14.7407967"><ele>6.0</ele><time>2026-04-09T10:28:17.836Z</time></trkpt><trkpt lat="42.0848967" lon="14.74072"><ele>6.0</ele><time>2026-04-09T10:28:18.836Z</time></trkpt><trkpt lat="42.0849283" lon="14.740645"><ele>6.0</ele><time>2026-04-09T10:28:19.836Z</time></trkpt><trkpt lat="42.0849917" lon="14.740505"><ele>6.0</ele><time>2026-04-09T10:28:21.836Z</time></trkpt><trkpt lat="42.0850283" lon="14.740435"><ele>6.0</ele><time>2026-04-09T10:28:22.836Z</time></trkpt><trkpt lat="42.0850933" lon="14.7403"><ele>6.0</ele><time>2026-04-09T10:28:24.837Z</time></trkpt><trkpt lat="42.0851583" lon="14.7401717"><ele>5.2</ele><time>2026-04-09T10:28:26.837Z</time></trkpt><trkpt lat="42.08522" lon="14.74006"><ele>4.3999999999999995</ele><time>2026-04-09T10:28:28.836Z</time></trkpt><trkpt lat="42.0852867" lon="14.7399517"><ele>3.6</ele><time>2026-04-09T10:28:30.836Z</time></trkpt><trkpt lat="42.0853567" lon="14.7398417"><ele>2.8</ele><time>2026-04-09T10:28:32.836Z</time></trkpt><trkpt lat="42.085435" lon="14.7397317"><ele>2.0</ele><time>2026-04-09T10:28:34.837Z</time></trkpt><trkpt lat="42.0855067" lon="14.7396133"><ele>2.0</ele><time>2026-04-09T10:28:36.836Z</time></trkpt><trkpt lat="42.0855767" lon="14.739485"><ele>2.0</ele><time>2026-04-09T10:28:38.836Z</time></trkpt><trkpt lat="42.08565" lon="14.7393667"><ele>2.0</ele><time>2026-04-09T10:28:40.836Z</time></trkpt><trkpt lat="42.0857267" lon="14.7392467"><ele>2.0</ele><time>2026-04-09T10:28:42.837Z</time></trkpt><trkpt lat="42.0858067" lon="14.7391167"><ele>2.75</ele><time>2026-04-09T10:28:44.837Z</time></trkpt><trkpt lat="42.0858833" lon="14.7389967"><ele>3.5</ele><time>2026-04-09T10:28:46.836Z</time></trkpt><trkpt lat="42.0859617" lon="14.7388717"><ele>4.25</ele><time>2026-04-09T10:28:48.836Z</time></trkpt><trkpt lat="42.0860417" lon="14.7387567"><ele>5.0</ele><time>2026-04-09T10:28:50.836Z</time></trkpt><trkpt lat="42.0861183" lon="14.738635"><ele>4.6</ele><time>2026-04-09T10:28:52.836Z</time></trkpt><trkpt lat="42.0861933" lon="14.738515"><ele>4.2</ele><time>2026-04-09T10:28:54.836Z</time></trkpt><trkpt lat="42.086265" lon="14.7384017"><ele>3.8</ele><time>2026-04-09T10:28:56.836Z</time></trkpt><trkpt lat="42.086345" lon="14.7382867"><ele>3.4</ele><time>2026-04-09T10:28:58.836Z</time></trkpt><trkpt lat="42.0863867" lon="14.73822"><ele>3.0</ele><time>2026-04-09T10:28:59.836Z</time></trkpt><trkpt lat="42.08646" lon="14.7380917"><ele>3.0</ele><time>2026-04-09T10:29:01.836Z</time></trkpt><trkpt lat="42.086525" lon="14.7379567"><ele>3.0</ele><time>2026-04-09T10:29:03.836Z</time></trkpt><trkpt lat="42.086585" lon="14.7378317"><ele>3.0</ele><time>2026-04-09T10:29:05.836Z</time></trkpt><trkpt lat="42.0866583" lon="14.7377167"><ele>3.0</ele><time>2026-04-09T10:29:07.836Z</time></trkpt><trkpt lat="42.08673" lon="14.7376067"><ele>3.5</ele><time>2026-04-09T10:29:09.836Z</time></trkpt><trkpt lat="42.0868033" lon="14.7374867"><ele>4.0</ele><time>2026-04-09T10:29:11.837Z</time></trkpt><trkpt lat="42.0868767" lon="14.7373667"><ele>4.5</ele><time>2026-04-09T10:29:13.836Z</time></trkpt><trkpt lat="42.0869583" lon="14.7372417"><ele>5.0</ele><time>2026-04-09T10:29:15.836Z</time></trkpt><trkpt lat="42.087035" lon="14.7371167"><ele>5.0</ele><time>2026-04-09T10:29:17.836Z</time></trkpt><trkpt lat="42.0871" lon="14.737015"><ele>5.0</ele><time>2026-04-09T10:29:19.836Z</time></trkpt><trkpt lat="42.087175" lon="14.736925"><ele>5.0</ele><time>2026-04-09T10:29:21.836Z</time></trkpt><trkpt lat="42.0872633" lon="14.7368417"><ele>5.0</ele><time>2026-04-09T10:29:23.836Z</time></trkpt><trkpt lat="42.0873483" lon="14.736745"><ele>5.0</ele><time>2026-04-09T10:29:25.836Z</time></trkpt><trkpt lat="42.087415" lon="14.7366417"><ele>5.0</ele><time>2026-04-09T10:29:27.835Z</time></trkpt><trkpt lat="42.0874817" lon="14.7365317"><ele>5.0</ele><time>2026-04-09T10:29:29.835Z</time></trkpt><trkpt lat="42.087555" lon="14.7364167"><ele>5.0</ele><time>2026-04-09T10:29:31.836Z</time></trkpt><trkpt lat="42.08764" lon="14.736315"><ele>5.0</ele><time>2026-04-09T10:29:33.835Z</time></trkpt><trkpt lat="42.08772" lon="14.736205"><ele>5.0</ele><time>2026-04-09T10:29:35.835Z</time></trkpt><trkpt lat="42.0878" lon="14.73609"><ele>5.5</ele><time>2026-04-09T10:29:37.836Z</time></trkpt><trkpt lat="42.0878833" lon="14.735975"><ele>6.0</ele><time>2026-04-09T10:29:39.836Z</time></trkpt><trkpt lat="42.0879683" lon="14.73586"><ele>6.5</ele><time>2026-04-09T10:29:41.835Z</time></trkpt><trkpt lat="42.0880467" lon="14.735745"><ele>7.0</ele><time>2026-04-09T10:29:43.835Z</time></trkpt><trkpt lat="42.088125" lon="14.7356367"><ele>7.0</ele><time>2026-04-09T10:29:45.836Z</time></trkpt><trkpt lat="42.08821" lon="14.7355283"><ele>7.0</ele><time>2026-04-09T10:29:47.835Z</time></trkpt><trkpt lat="42.0882833" lon="14.735415"><ele>7.0</ele><time>2026-04-09T10:29:49.835Z</time></trkpt><trkpt lat="42.088365" lon="14.735305"><ele>7.0</ele><time>2026-04-09T10:29:51.835Z</time></trkpt><trkpt lat="42.0884433" lon="14.7351917"><ele>6.25</ele><time>2026-04-09T10:29:53.836Z</time></trkpt><trkpt lat="42.08852" lon="14.73508"><ele>5.5</ele><time>2026-04-09T10:29:55.835Z</time></trkpt><trkpt lat="42.0886" lon="14.7349683"><ele>4.75</ele><time>2026-04-09T10:29:57.836Z</time></trkpt><trkpt lat="42.0886767" lon="14.7348483"><ele>4.0</ele><time>2026-04-09T10:29:59.836Z</time></trkpt><trkpt lat="42.0887567" lon="14.734745"><ele>4.0</ele><time>2026-04-09T10:30:01.835Z</time></trkpt><trkpt lat="42.0888333" lon="14.7346433"><ele>4.0</ele><time>2026-04-09T10:30:03.836Z</time></trkpt><trkpt lat="42.0889167" lon="14.7345417"><ele>4.0</ele><time>2026-04-09T10:30:05.835Z</time></trkpt><trkpt lat="42.088985" lon="14.7344717"><ele>4.0</ele><time>2026-04-09T10:30:07.835Z</time></trkpt><trkpt lat="42.089035" lon="14.7344033"><ele>4.0</ele><time>2026-04-09T10:30:09.835Z</time></trkpt><trkpt lat="42.0890433" lon="14.734305"><ele>3.714285714285714</ele><time>2026-04-09T10:30:54.835Z</time></trkpt><trkpt lat="42.089095" lon="14.7342467"><ele>3.428571428571428</ele><time>2026-04-09T10:30:58.836Z</time></trkpt><trkpt lat="42.089145" lon="14.7341883"><ele>3.142857142857143</ele><time>2026-04-09T10:31:02.836Z</time></trkpt><trkpt lat="42.0892" lon="14.7341217"><ele>2.8571428571428568</ele><time>2026-04-09T10:31:06.835Z</time></trkpt><trkpt lat="42.08925" lon="14.7340467"><ele>2.571428571428571</ele><time>2026-04-09T10:31:10.835Z</time></trkpt><trkpt lat="42.0893033" lon="14.73398"><ele>2.2857142857142856</ele><time>2026-04-09T10:31:14.835Z</time></trkpt><trkpt lat="42.08935" lon="14.7339083"><ele>2.0</ele><time>2026-04-09T10:31:18.835Z</time></trkpt><trkpt lat="42.0893967" lon="14.733835"><ele>1.9999999999999998</ele><time>2026-04-09T10:31:21.835Z</time></trkpt><trkpt lat="42.08945" lon="14.733775"><ele>2.0</ele><time>2026-04-09T10:31:24.835Z</time></trkpt><trkpt lat="42.08952" lon="14.7336917"><ele>2.0</ele><time>2026-04-09T10:31:27.835Z</time></trkpt><trkpt lat="42.0895767" lon="14.7336183"><ele>2.0</ele><time>2026-04-09T10:31:29.835Z</time></trkpt><trkpt lat="42.089635" lon="14.7335317"><ele>1.9999999999999998</ele><time>2026-04-09T10:31:31.835Z</time></trkpt><trkpt lat="42.0896783" lon="14.73346"><ele>2.0</ele><time>2026-04-09T10:31:32.835Z</time></trkpt><trkpt lat="42.0897583" lon="14.73334"><ele>2.2</ele><time>2026-04-09T10:31:34.835Z</time></trkpt><trkpt lat="42.0898033" lon="14.7332783"><ele>2.4000000000000004</ele><time>2026-04-09T10:31:35.835Z</time></trkpt><trkpt lat="42.0898833" lon="14.7331517"><ele>2.5999999999999996</ele><time>2026-04-09T10:31:37.835Z</time></trkpt><trkpt lat="42.0899617" lon="14.7330267"><ele>2.8</ele><time>2026-04-09T10:31:39.835Z</time></trkpt><trkpt lat="42.0900433" lon="14.732915"><ele>3.0</ele><time>2026-04-09T10:31:41.835Z</time></trkpt><trkpt lat="42.0901167" lon="14.7328183"><ele>2.75</ele><time>2026-04-09T10:31:43.835Z</time></trkpt><trkpt lat="42.090195" lon="14.7327183"><ele>2.5</ele><time>2026-04-09T10:31:45.835Z</time></trkpt><trkpt lat="42.09028" lon="14.7326167"><ele>2.25</ele><time>2026-04-09T10:31:47.835Z</time></trkpt><trkpt lat="42.0903683" lon="14.7325083"><ele>2.0</ele><time>2026-04-09T10:31:49.835Z</time></trkpt><trkpt lat="42.09045" lon="14.7324017"><ele>2.0</ele><time>2026-04-09T10:31:51.835Z</time></trkpt><trkpt lat="42.090535" lon="14.7322967"><ele>2.0</ele><time>2026-04-09T10:31:53.835Z</time></trkpt><trkpt lat="42.0906133" lon="14.73218"><ele>2.0</ele><time>2026-04-09T10:31:55.836Z</time></trkpt><trkpt lat="42.0906917" lon="14.7320633"><ele>2.0</ele><time>2026-04-09T10:31:57.835Z</time></trkpt><trkpt lat="42.0907667" lon="14.73195"><ele>2.75</ele><time>2026-04-09T10:31:59.835Z</time></trkpt><trkpt lat="42.0908417" lon="14.7318467"><ele>3.5</ele><time>2026-04-09T10:32:01.835Z</time></trkpt><trkpt lat="42.0909267" lon="14.731745"><ele>4.25</ele><time>2026-04-09T10:32:03.835Z</time></trkpt><trkpt lat="42.091" lon="14.7316317"><ele>5.0</ele><time>2026-04-09T10:32:05.835Z</time></trkpt><trkpt lat="42.0910817" lon="14.731515"><ele>5.0</ele><time>2026-04-09T10:32:07.835Z</time></trkpt><trkpt lat="42.0911633" lon="14.731395"><ele>5.0</ele><time>2026-04-09T10:32:09.835Z</time></trkpt><trkpt lat="42.09124" lon="14.7312867"><ele>5.0</ele><time>2026-04-09T10:32:11.835Z</time></trkpt><trkpt lat="42.0913183" lon="14.7311833"><ele>5.0</ele><time>2026-04-09T10:32:13.835Z</time></trkpt><trkpt lat="42.091365" lon="14.731125"><ele>5.0</ele><time>2026-04-09T10:32:14.835Z</time></trkpt><trkpt lat="42.0914567" lon="14.7310183"><ele>5.0</ele><time>2026-04-09T10:32:16.835Z</time></trkpt><trkpt lat="42.0915417" lon="14.7309183"><ele>5.0</ele><time>2026-04-09T10:32:18.835Z</time></trkpt><trkpt lat="42.091615" lon="14.73081"><ele>5.0</ele><time>2026-04-09T10:32:20.836Z</time></trkpt><trkpt lat="42.091685" lon="14.7307017"><ele>5.0</ele><time>2026-04-09T10:32:22.835Z</time></trkpt><trkpt lat="42.09175" lon="14.730615"><ele>5.0</ele><time>2026-04-09T10:32:24.836Z</time></trkpt><trkpt lat="42.0918133" lon="14.7305333"><ele>5.2</ele><time>2026-04-09T10:32:26.835Z</time></trkpt><trkpt lat="42.0918733" lon="14.7304433"><ele>5.4</ele><time>2026-04-09T10:32:28.835Z</time></trkpt><trkpt lat="42.0919383" lon="14.7303533"><ele>5.6</ele><time>2026-04-09T10:32:30.835Z</time></trkpt><trkpt lat="42.09201" lon="14.7302517"><ele>5.8</ele><time>2026-04-09T10:32:32.836Z</time></trkpt><trkpt lat="42.092085" lon="14.73015"><ele>6.0</ele><time>2026-04-09T10:32:34.836Z</time></trkpt><trkpt lat="42.092155" lon="14.7300417"><ele>6.0</ele><time>2026-04-09T10:32:36.836Z</time></trkpt><trkpt lat="42.09223" lon="14.72994"><ele>6.0</ele><time>2026-04-09T10:32:38.836Z</time></trkpt><trkpt lat="42.09231" lon="14.72983"><ele>6.0</ele><time>2026-04-09T10:32:40.835Z</time></trkpt><trkpt lat="42.0923817" lon="14.72974"><ele>6.0</ele><time>2026-04-09T10:32:42.835Z</time></trkpt><trkpt lat="42.0924467" lon="14.7296617"><ele>6.0</ele><time>2026-04-09T10:32:44.836Z</time></trkpt><trkpt lat="42.092505" lon="14.7295767"><ele>5.8</ele><time>2026-04-09T10:32:46.835Z</time></trkpt><trkpt lat="42.0925483" lon="14.7294833"><ele>5.6</ele><time>2026-04-09T10:32:48.835Z</time></trkpt><trkpt lat="42.092605" lon="14.7293867"><ele>5.4</ele><time>2026-04-09T10:32:50.835Z</time></trkpt><trkpt lat="42.092675" lon="14.7292817"><ele>5.2</ele><time>2026-04-09T10:32:52.835Z</time></trkpt><trkpt lat="42.0927433" lon="14.7291717"><ele>5.0</ele><time>2026-04-09T10:32:54.835Z</time></trkpt><trkpt lat="42.0928133" lon="14.72907"><ele>5.0</ele><time>2026-04-09T10:32:56.835Z</time></trkpt><trkpt lat="42.09287" lon="14.728995"><ele>5.0</ele><time>2026-04-09T10:32:58.835Z</time></trkpt><trkpt lat="42.0929317" lon="14.72891"><ele>5.0</ele><time>2026-04-09T10:33:00.835Z</time></trkpt><trkpt lat="42.0929917" lon="14.72883"><ele>5.0</ele><time>2026-04-09T10:33:02.835Z</time></trkpt><trkpt lat="42.093055" lon="14.7287317"><ele>5.0</ele><time>2026-04-09T10:33:04.835Z</time></trkpt><trkpt lat="42.0931233" lon="14.7286417"><ele>5.0</ele><time>2026-04-09T10:33:06.835Z</time></trkpt><trkpt lat="42.093195" lon="14.72853"><ele>5.8</ele><time>2026-04-09T10:33:08.835Z</time></trkpt><trkpt lat="42.0932783" lon="14.7283883"><ele>6.6</ele><time>2026-04-09T10:33:10.835Z</time></trkpt><trkpt lat="42.0933233" lon="14.72832"><ele>7.4</ele><time>2026-04-09T10:33:11.835Z</time></trkpt><trkpt lat="42.0934183" lon="14.7282"><ele>8.2</ele><time>2026-04-09T10:33:13.836Z</time></trkpt><trkpt lat="42.0934683" lon="14.7281383"><ele>9.0</ele><time>2026-04-09T10:33:14.835Z</time></trkpt><trkpt lat="42.0935667" lon="14.72804"><ele>9.0</ele><time>2026-04-09T10:33:16.835Z</time></trkpt><trkpt lat="42.0936517" lon="14.727955"><ele>9.0</ele><time>2026-04-09T10:33:18.835Z</time></trkpt><trkpt lat="42.0937283" lon="14.7278783"><ele>9.0</ele><time>2026-04-09T10:33:20.836Z</time></trkpt><trkpt lat="42.093815" lon="14.7277967"><ele>9.0</ele><time>2026-04-09T10:33:22.835Z</time></trkpt><trkpt lat="42.09392" lon="14.7277617"><ele>9.0</ele><time>2026-04-09T10:33:24.835Z</time></trkpt><trkpt lat="42.09398" lon="14.7277333"><ele>9.0</ele><time>2026-04-09T10:33:25.835Z</time></trkpt><trkpt lat="42.0940583" lon="14.72777"><ele>9.0</ele><time>2026-04-09T10:33:27.835Z</time></trkpt><trkpt lat="42.0941217" lon="14.72785"><ele>9.0</ele><time>2026-04-09T10:33:29.835Z</time></trkpt><trkpt lat="42.0941883" lon="14.727935"><ele>9.0</ele><time>2026-04-09T10:33:31.835Z</time></trkpt><trkpt lat="42.0942533" lon="14.7279917"><ele>9.0</ele><time>2026-04-09T10:33:33.835Z</time></trkpt><trkpt lat="42.0943467" lon="14.727955"><ele>9.0</ele><time>2026-04-09T10:33:36.835Z</time></trkpt><trkpt lat="42.0944133" lon="14.7278867"><ele>8.4</ele><time>2026-04-09T10:33:38.835Z</time></trkpt><trkpt lat="42.0944917" lon="14.7277867"><ele>7.800000000000001</ele><time>2026-04-09T10:33:40.835Z</time></trkpt><trkpt lat="42.09454" lon="14.7277233"><ele>7.199999999999999</ele><time>2026-04-09T10:33:41.835Z</time></trkpt><trkpt lat="42.0946317" lon="14.7276217"><ele>6.6</ele><time>2026-04-09T10:33:43.835Z</time></trkpt><trkpt lat="42.094715" lon="14.7275333"><ele>6.0</ele><time>2026-04-09T10:33:45.835Z</time></trkpt><trkpt lat="42.0947883" lon="14.7274317"><ele>6.0</ele><time>2026-04-09T10:33:47.835Z</time></trkpt><trkpt lat="42.0948617" lon="14.7273367"><ele>6.0</ele><time>2026-04-09T10:33:49.835Z</time></trkpt><trkpt lat="42.09492" lon="14.727255"><ele>6.0</ele><time>2026-04-09T10:33:51.835Z</time></trkpt><trkpt lat="42.09493" lon="14.7271417"><ele>6.0</ele><time>2026-04-09T10:33:53.835Z</time></trkpt><trkpt lat="42.0948817" lon="14.7270267"><ele>6.0</ele><time>2026-04-09T10:33:55.835Z</time></trkpt><trkpt lat="42.0948267" lon="14.72691"><ele>6.199999999999999</ele><time>2026-04-09T10:33:57.836Z</time></trkpt><trkpt lat="42.0947733" lon="14.726785"><ele>6.3999999999999995</ele><time>2026-04-09T10:33:59.835Z</time></trkpt><trkpt lat="42.0947267" lon="14.7266633"><ele>6.6</ele><time>2026-04-09T10:34:01.835Z</time></trkpt><trkpt lat="42.0947417" lon="14.7265733"><ele>6.8</ele><time>2026-04-09T10:34:03.835Z</time></trkpt><trkpt lat="42.0948317" lon="14.7265133"><ele>7.0</ele><time>2026-04-09T10:34:06.835Z</time></trkpt><trkpt lat="42.0949" lon="14.7264467"><ele>6.8</ele><time>2026-04-09T10:34:08.835Z</time></trkpt><trkpt lat="42.0949767" lon="14.7263783"><ele>6.6</ele><time>2026-04-09T10:34:10.835Z</time></trkpt><trkpt lat="42.0950633" lon="14.7263067"><ele>6.3999999999999995</ele><time>2026-04-09T10:34:12.836Z</time></trkpt><trkpt lat="42.0951467" lon="14.7262317"><ele>6.199999999999999</ele><time>2026-04-09T10:34:14.836Z</time></trkpt><trkpt lat="42.0952267" lon="14.7261267"><ele>6.0</ele><time>2026-04-09T10:34:16.835Z</time></trkpt><trkpt lat="42.0953183" lon="14.7260183"><ele>6.0</ele><time>2026-04-09T10:34:18.835Z</time></trkpt><trkpt lat="42.0954117" lon="14.7259133"><ele>6.0</ele><time>2026-04-09T10:34:20.835Z</time></trkpt><trkpt lat="42.0954983" lon="14.725815"><ele>6.0</ele><time>2026-04-09T10:34:22.835Z</time></trkpt><trkpt lat="42.0955833" lon="14.7257233"><ele>6.0</ele><time>2026-04-09T10:34:24.835Z</time></trkpt><trkpt lat="42.095675" lon="14.72563"><ele>6.0</ele><time>2026-04-09T10:34:26.835Z</time></trkpt><trkpt lat="42.0957567" lon="14.72554"><ele>6.0</ele><time>2026-04-09T10:34:28.835Z</time></trkpt><trkpt lat="42.0958417" lon="14.725445"><ele>6.0</ele><time>2026-04-09T10:34:30.835Z</time></trkpt><trkpt lat="42.0959283" lon="14.7253517"><ele>6.0</ele><time>2026-04-09T10:34:32.836Z</time></trkpt><trkpt lat="42.0960133" lon="14.7252583"><ele>6.0</ele><time>2026-04-09T10:34:34.835Z</time></trkpt><trkpt lat="42.0961083" lon="14.7251417"><ele>6.0</ele><time>2026-04-09T10:34:36.835Z</time></trkpt><trkpt lat="42.096195" lon="14.7250133"><ele>6.0</ele><time>2026-04-09T10:34:38.835Z</time></trkpt><trkpt lat="42.0962383" lon="14.7249517"><ele>6.0</ele><time>2026-04-09T10:34:39.835Z</time></trkpt><trkpt lat="42.0963217" lon="14.72486"><ele>6.0</ele><time>2026-04-09T10:34:41.835Z</time></trkpt><trkpt lat="42.0964017" lon="14.724775"><ele>6.0</ele><time>2026-04-09T10:34:43.835Z</time></trkpt><trkpt lat="42.0964833" lon="14.7246883"><ele>6.0</ele><time>2026-04-09T10:34:45.836Z</time></trkpt><trkpt lat="42.0965667" lon="14.7246"><ele>6.0</ele><time>2026-04-09T10:34:47.835Z</time></trkpt><trkpt lat="42.0966517" lon="14.7245117"><ele>6.0</ele><time>2026-04-09T10:34:49.835Z</time></trkpt><trkpt lat="42.09674" lon="14.7244217"><ele>6.0</ele><time>2026-04-09T10:34:51.835Z</time></trkpt><trkpt lat="42.0968267" lon="14.7243267"><ele>6.0</ele><time>2026-04-09T10:34:53.835Z</time></trkpt><trkpt lat="42.0969183" lon="14.7242267"><ele>5.25</ele><time>2026-04-09T10:34:55.835Z</time></trkpt><trkpt lat="42.0970067" lon="14.7241317"><ele>4.5</ele><time>2026-04-09T10:34:57.835Z</time></trkpt><trkpt lat="42.0971" lon="14.7240317"><ele>3.75</ele><time>2026-04-09T10:34:59.835Z</time></trkpt><trkpt lat="42.0971917" lon="14.7239367"><ele>3.0</ele><time>2026-04-09T10:35:01.836Z</time></trkpt><trkpt lat="42.0972767" lon="14.7238383"><ele>3.0</ele><time>2026-04-09T10:35:03.835Z</time></trkpt><trkpt lat="42.0973633" lon="14.72374"><ele>3.0</ele><time>2026-04-09T10:35:05.835Z</time></trkpt><trkpt lat="42.0974517" lon="14.7236433"><ele>3.0</ele><time>2026-04-09T10:35:07.835Z</time></trkpt><trkpt lat="42.0975417" lon="14.7235467"><ele>3.0</ele><time>2026-04-09T10:35:09.835Z</time></trkpt><trkpt lat="42.09763" lon="14.7234517"><ele>3.0</ele><time>2026-04-09T10:35:11.835Z</time></trkpt><trkpt lat="42.0977217" lon="14.723355"><ele>3.0</ele><time>2026-04-09T10:35:13.835Z</time></trkpt><trkpt lat="42.09781" lon="14.723265"><ele>3.0</ele><time>2026-04-09T10:35:15.835Z</time></trkpt><trkpt lat="42.0978967" lon="14.723165"><ele>3.0</ele><time>2026-04-09T10:35:17.835Z</time></trkpt><trkpt lat="42.0979817" lon="14.723065"><ele>3.0</ele><time>2026-04-09T10:35:19.835Z</time></trkpt><trkpt lat="42.09807" lon="14.7229733"><ele>3.0</ele><time>2026-04-09T10:35:21.835Z</time></trkpt><trkpt lat="42.0981617" lon="14.7228833"><ele>3.0</ele><time>2026-04-09T10:35:23.835Z</time></trkpt><trkpt lat="42.0982517" lon="14.722795"><ele>3.0</ele><time>2026-04-09T10:35:25.835Z</time></trkpt><trkpt lat="42.098335" lon="14.722705"><ele>3.0</ele><time>2026-04-09T10:35:27.835Z</time></trkpt><trkpt lat="42.0984167" lon="14.722615"><ele>3.5999999999999996</ele><time>2026-04-09T10:35:29.835Z</time></trkpt><trkpt lat="42.0984983" lon="14.72252"><ele>4.199999999999999</ele><time>2026-04-09T10:35:31.836Z</time></trkpt><trkpt lat="42.09858" lon="14.7224233"><ele>4.8</ele><time>2026-04-09T10:35:33.835Z</time></trkpt><trkpt lat="42.0986567" lon="14.722335"><ele>5.3999999999999995</ele><time>2026-04-09T10:35:35.835Z</time></trkpt><trkpt lat="42.0987317" lon="14.7222533"><ele>6.0</ele><time>2026-04-09T10:35:37.836Z</time></trkpt><trkpt lat="42.0988067" lon="14.7221717"><ele>6.0</ele><time>2026-04-09T10:35:39.835Z</time></trkpt><trkpt lat="42.0988783" lon="14.722095"><ele>6.0</ele><time>2026-04-09T10:35:41.836Z</time></trkpt><trkpt lat="42.0989533" lon="14.7220133"><ele>6.0</ele><time>2026-04-09T10:35:43.835Z</time></trkpt><trkpt lat="42.0990167" lon="14.72193"><ele>6.0</ele><time>2026-04-09T10:35:45.835Z</time></trkpt><trkpt lat="42.099065" lon="14.7218583"><ele>6.0</ele><time>2026-04-09T10:35:47.836Z</time></trkpt><trkpt lat="42.0991417" lon="14.7218533"><ele>6.0</ele><time>2026-04-09T10:35:49.835Z</time></trkpt><trkpt lat="42.0992083" lon="14.7218467"><ele>5.6</ele><time>2026-04-09T10:35:51.835Z</time></trkpt><trkpt lat="42.09927" lon="14.7218033"><ele>5.199999999999999</ele><time>2026-04-09T10:35:53.835Z</time></trkpt><trkpt lat="42.0993283" lon="14.72172"><ele>4.800000000000001</ele><time>2026-04-09T10:35:55.835Z</time></trkpt><trkpt lat="42.0994" lon="14.7216267"><ele>4.4</ele><time>2026-04-09T10:35:57.835Z</time></trkpt><trkpt lat="42.0994733" lon="14.72152"><ele>4.0</ele><time>2026-04-09T10:35:59.835Z</time></trkpt><trkpt lat="42.0995417" lon="14.721435"><ele>4.0</ele><time>2026-04-09T10:36:01.835Z</time></trkpt><trkpt lat="42.0996083" lon="14.7213433"><ele>4.0</ele><time>2026-04-09T10:36:03.835Z</time></trkpt><trkpt lat="42.0996967" lon="14.721245"><ele>4.0</ele><time>2026-04-09T10:36:05.835Z</time></trkpt><trkpt lat="42.0997767" lon="14.7211267"><ele>4.0</ele><time>2026-04-09T10:36:07.835Z</time></trkpt><trkpt lat="42.09986" lon="14.721025"><ele>4.0</ele><time>2026-04-09T10:36:09.835Z</time></trkpt><trkpt lat="42.0999483" lon="14.720935"><ele>4.0</ele><time>2026-04-09T10:36:11.835Z</time></trkpt><trkpt lat="42.10004" lon="14.720845"><ele>4.0</ele><time>2026-04-09T10:36:13.835Z</time></trkpt><trkpt lat="42.1001383" lon="14.7207567"><ele>4.0</ele><time>2026-04-09T10:36:15.835Z</time></trkpt><trkpt lat="42.1002433" lon="14.7206633"><ele>4.0</ele><time>2026-04-09T10:36:17.835Z</time></trkpt><trkpt lat="42.1002983" lon="14.7206167"><ele>4.0</ele><time>2026-04-09T10:36:18.836Z</time></trkpt><trkpt lat="42.10035" lon="14.7205667"><ele>4.0</ele><time>2026-04-09T10:36:19.835Z</time></trkpt><trkpt lat="42.1004517" lon="14.7204833"><ele>4.0</ele><time>2026-04-09T10:36:21.835Z</time></trkpt><trkpt lat="42.100555" lon="14.7204117"><ele>4.0</ele><time>2026-04-09T10:36:23.836Z</time></trkpt><trkpt lat="42.1006633" lon="14.720345"><ele>4.0</ele><time>2026-04-09T10:36:25.835Z</time></trkpt><trkpt lat="42.1007683" lon="14.7202767"><ele>3.8000000000000003</ele><time>2026-04-09T10:36:27.836Z</time></trkpt><trkpt lat="42.10087" lon="14.7202117"><ele>3.6000000000000005</ele><time>2026-04-09T10:36:29.835Z</time></trkpt><trkpt lat="42.1009733" lon="14.7201583"><ele>3.4</ele><time>2026-04-09T10:36:31.835Z</time></trkpt><trkpt lat="42.10107" lon="14.7200983"><ele>3.2</ele><time>2026-04-09T10:36:33.836Z</time></trkpt><trkpt lat="42.1011683" lon="14.7200367"><ele>3.0</ele><time>2026-04-09T10:36:35.835Z</time></trkpt><trkpt lat="42.1012717" lon="14.7199767"><ele>3.0</ele><time>2026-04-09T10:36:37.836Z</time></trkpt><trkpt lat="42.1013717" lon="14.719915"><ele>3.0</ele><time>2026-04-09T10:36:39.835Z</time></trkpt><trkpt lat="42.10147" lon="14.7198417"><ele>3.0</ele><time>2026-04-09T10:36:41.835Z</time></trkpt><trkpt lat="42.1015767" lon="14.7197733"><ele>3.0</ele><time>2026-04-09T10:36:43.835Z</time></trkpt><trkpt lat="42.1016767" lon="14.719715"><ele>3.0</ele><time>2026-04-09T10:36:45.835Z</time></trkpt><trkpt lat="42.1017783" lon="14.7196583"><ele>3.0</ele><time>2026-04-09T10:36:47.835Z</time></trkpt><trkpt lat="42.101885" lon="14.719595"><ele>3.0</ele><time>2026-04-09T10:36:49.835Z</time></trkpt><trkpt lat="42.10199" lon="14.719535"><ele>3.0</ele><time>2026-04-09T10:36:51.836Z</time></trkpt><trkpt lat="42.1020917" lon="14.7194783"><ele>3.0</ele><time>2026-04-09T10:36:53.835Z</time></trkpt><trkpt lat="42.102185" lon="14.71942"><ele>3.0</ele><time>2026-04-09T10:36:55.835Z</time></trkpt><trkpt lat="42.102275" lon="14.71935"><ele>3.1666666666666665</ele><time>2026-04-09T10:36:57.835Z</time></trkpt><trkpt lat="42.1023633" lon="14.71929"><ele>3.333333333333333</ele><time>2026-04-09T10:36:59.835Z</time></trkpt><trkpt lat="42.102445" lon="14.71923"><ele>3.5</ele><time>2026-04-09T10:37:01.836Z</time></trkpt><trkpt lat="42.1025233" lon="14.7191683"><ele>3.6666666666666665</ele><time>2026-04-09T10:37:03.835Z</time></trkpt><trkpt lat="42.10254" lon="14.7190833"><ele>3.833333333333333</ele><time>2026-04-09T10:37:05.835Z</time></trkpt><trkpt lat="42.1025317" lon="14.7189717"><ele>4.0</ele><time>2026-04-09T10:37:07.836Z</time></trkpt><trkpt lat="42.1025133" lon="14.7188633"><ele>4.0</ele><time>2026-04-09T10:37:10.835Z</time></trkpt><trkpt lat="42.1025967" lon="14.7188217"><ele>4.0</ele><time>2026-04-09T10:37:13.835Z</time></trkpt><trkpt lat="42.10267" lon="14.718795"><ele>4.0</ele><time>2026-04-09T10:37:15.835Z</time></trkpt><trkpt lat="42.1027367" lon="14.71874"><ele>4.0</ele><time>2026-04-09T10:37:17.835Z</time></trkpt><trkpt lat="42.1028267" lon="14.7186767"><ele>4.0</ele><time>2026-04-09T10:37:19.836Z</time></trkpt><trkpt lat="42.10292" lon="14.7186017"><ele>4.0</ele><time>2026-04-09T10:37:21.835Z</time></trkpt><trkpt lat="42.103005" lon="14.71853"><ele>4.0</ele><time>2026-04-09T10:37:23.835Z</time></trkpt><trkpt lat="42.1030983" lon="14.7184733"><ele>4.0</ele><time>2026-04-09T10:37:25.835Z</time></trkpt><trkpt lat="42.1031983" lon="14.7184233"><ele>4.0</ele><time>2026-04-09T10:37:27.836Z</time></trkpt><trkpt lat="42.1032983" lon="14.7183683"><ele>4.0</ele><time>2026-04-09T10:37:29.835Z</time></trkpt><trkpt lat="42.1034017" lon="14.71831"><ele>3.9999999999999996</ele><time>2026-04-09T10:37:31.836Z</time></trkpt><trkpt lat="42.1034983" lon="14.7182617"><ele>4.0</ele><time>2026-04-09T10:37:33.836Z</time></trkpt><trkpt lat="42.10359" lon="14.718215"><ele>4.0</ele><time>2026-04-09T10:37:35.835Z</time></trkpt><trkpt lat="42.1036683" lon="14.7181767"><ele>4.0</ele><time>2026-04-09T10:37:37.835Z</time></trkpt><trkpt lat="42.1037283" lon="14.7181383"><ele>3.9999999999999996</ele><time>2026-04-09T10:37:39.835Z</time></trkpt><trkpt lat="42.103765" lon="14.718055"><ele>4.0</ele><time>2026-04-09T10:37:42.835Z</time></trkpt><trkpt lat="42.1038" lon="14.717935"><ele>3.9999999999999996</ele><time>2026-04-09T10:37:45.836Z</time></trkpt><trkpt lat="42.1037917" lon="14.717815"><ele>4.0</ele><time>2026-04-09T10:37:48.835Z</time></trkpt><trkpt lat="42.1037633" lon="14.7176933"><ele>4.0</ele><time>2026-04-09T10:37:51.835Z</time></trkpt><trkpt lat="42.1037433" lon="14.7176017"><ele>4.0</ele><time>2026-04-09T10:37:53.835Z</time></trkpt><trkpt lat="42.1037383" lon="14.7174667"><ele>3.9999999999999996</ele><time>2026-04-09T10:37:56.835Z</time></trkpt><trkpt lat="42.103735" lon="14.717345"><ele>4.0</ele><time>2026-04-09T10:37:59.835Z</time></trkpt><trkpt lat="42.10372" lon="14.71723"><ele>5.0</ele><time>2026-04-09T10:38:04.835Z</time></trkpt><trkpt lat="42.1037" lon="14.717095"><ele>6.0</ele><time>2026-04-09T10:38:10.835Z</time></trkpt><trkpt lat="42.103665" lon="14.716985"><ele>7.0</ele><time>2026-04-09T10:38:13.836Z</time></trkpt><trkpt lat="42.1037567" lon="14.71694"><ele>8.0</ele><time>2026-04-09T10:38:16.835Z</time></trkpt><trkpt lat="42.1038583" lon="14.7169467"><ele>9.0</ele><time>2026-04-09T10:38:20.835Z</time></trkpt><trkpt lat="42.1039383" lon="14.7169517"><ele>10.0</ele><time>2026-04-09T10:38:24.835Z</time></trkpt><trkpt lat="42.1039917" lon="14.7168667"><ele>11.0</ele><time>2026-04-09T10:38:30.835Z</time></trkpt><trkpt lat="42.10402" lon="14.7167767"><ele>12.0</ele><time>2026-04-09T10:38:34.835Z</time></trkpt><trkpt lat="42.10396" lon="14.7167217"><ele>13.0</ele><time>2026-04-09T10:38:39.835Z</time></trkpt><trkpt lat="42.1038783" lon="14.7166767"><ele>14.0</ele><time>2026-04-09T10:38:42.835Z</time></trkpt><trkpt lat="42.10381" lon="14.7166567"><ele>15.0</ele><time>2026-04-09T10:38:45.835Z</time></trkpt><trkpt lat="42.10373" lon="14.7166083"><ele>15.0</ele><time>2026-04-09T10:38:48.835Z</time></trkpt><trkpt lat="42.1036533" lon="14.71657"><ele>15.0</ele><time>2026-04-09T10:38:50.835Z</time></trkpt><trkpt lat="42.1035483" lon="14.7165767"><ele>15.0</ele><time>2026-04-09T10:38:52.835Z</time></trkpt><trkpt lat="42.1034517" lon="14.716575"><ele>15.0</ele><time>2026-04-09T10:38:54.835Z</time></trkpt><trkpt lat="42.1033683" lon="14.71659"><ele>15.0</ele><time>2026-04-09T10:38:56.836Z</time></trkpt><trkpt lat="42.1032917" lon="14.7166167"><ele>15.0</ele><time>2026-04-09T10:38:58.835Z</time></trkpt><trkpt lat="42.1032183" lon="14.716645"><ele>15.333333333333334</ele><time>2026-04-09T10:39:00.835Z</time></trkpt><trkpt lat="42.1031383" lon="14.7166733"><ele>15.666666666666668</ele><time>2026-04-09T10:39:02.835Z</time></trkpt><trkpt lat="42.1030683" lon="14.716705"><ele>16.0</ele><time>2026-04-09T10:39:04.835Z</time></trkpt><trkpt lat="42.103005" lon="14.7167233"><ele>16.333333333333336</ele><time>2026-04-09T10:39:06.835Z</time></trkpt><trkpt lat="42.1029283" lon="14.71675"><ele>16.666666666666668</ele><time>2026-04-09T10:39:10.836Z</time></trkpt><trkpt lat="42.1028317" lon="14.71679"><ele>17.0</ele><time>2026-04-09T10:39:13.835Z</time></trkpt><trkpt lat="42.1027567" lon="14.716815"><ele>17.0</ele><time>2026-04-09T10:39:15.835Z</time></trkpt><trkpt lat="42.1026817" lon="14.71681"><ele>17.0</ele><time>2026-04-09T10:39:18.835Z</time></trkpt><trkpt lat="42.1026033" lon="14.7168117"><ele>17.0</ele><time>2026-04-09T10:39:21.836Z</time></trkpt><trkpt lat="42.102525" lon="14.7168217"><ele>17.0</ele><time>2026-04-09T10:39:24.835Z</time></trkpt><trkpt lat="42.10241" lon="14.7168433"><ele>17.0</ele><time>2026-04-09T10:39:27.835Z</time></trkpt><trkpt lat="42.1023433" lon="14.7168483"><ele>17.0</ele><time>2026-04-09T10:39:31.835Z</time></trkpt><trkpt lat="42.1023717" lon="14.716925"><ele>16.333333333333336</ele><time>2026-04-09T10:39:39.836Z</time></trkpt><trkpt lat="42.1024267" lon="14.7170367"><ele>15.666666666666668</ele><time>2026-04-09T10:39:45.835Z</time></trkpt><trkpt lat="42.1024983" lon="14.71705"><ele>15.0</ele><time>2026-04-09T10:39:48.835Z</time></trkpt><trkpt lat="42.102575" lon="14.7170567"><ele>14.333333333333332</ele><time>2026-04-09T10:39:50.835Z</time></trkpt><trkpt lat="42.1026567" lon="14.7170617"><ele>13.666666666666666</ele><time>2026-04-09T10:39:53.835Z</time></trkpt><trkpt lat="42.1027317" lon="14.7170667"><ele>13.0</ele><time>2026-04-09T10:39:55.835Z</time></trkpt><trkpt lat="42.1028083" lon="14.717065"><ele>12.999999999999998</ele><time>2026-04-09T10:39:57.835Z</time></trkpt><trkpt lat="42.10289" lon="14.717045"><ele>13.0</ele><time>2026-04-09T10:39:59.835Z</time></trkpt><trkpt lat="42.10297" lon="14.7170083"><ele>13.0</ele><time>2026-04-09T10:40:01.835Z</time></trkpt><trkpt lat="42.10306" lon="14.71698"><ele>13.0</ele><time>2026-04-09T10:40:03.835Z</time></trkpt><trkpt lat="42.103145" lon="14.7169667"><ele>12.999999999999998</ele><time>2026-04-09T10:40:05.836Z</time></trkpt><trkpt lat="42.103235" lon="14.71694"><ele>13.0</ele><time>2026-04-09T10:40:07.835Z</time></trkpt><trkpt lat="42.1033283" lon="14.7169067"><ele>13.333333333333332</ele><time>2026-04-09T10:40:09.835Z</time></trkpt><trkpt lat="42.1034133" lon="14.71688"><ele>13.666666666666666</ele><time>2026-04-09T10:40:11.835Z</time></trkpt><trkpt lat="42.10349" lon="14.7168683"><ele>14.0</ele><time>2026-04-09T10:40:13.835Z</time></trkpt><trkpt lat="42.1035633" lon="14.7168683"><ele>14.333333333333332</ele><time>2026-04-09T10:40:15.835Z</time></trkpt><trkpt lat="42.1036517" lon="14.716875"><ele>14.666666666666666</ele><time>2026-04-09T10:40:18.835Z</time></trkpt><trkpt lat="42.1037383" lon="14.7168817"><ele>15.0</ele><time>2026-04-09T10:40:21.836Z</time></trkpt><trkpt lat="42.10381" lon="14.7168583"><ele>15.0</ele><time>2026-04-09T10:40:25.836Z</time></trkpt><trkpt lat="42.103885" lon="14.716855"><ele>15.0</ele><time>2026-04-09T10:40:28.835Z</time></trkpt><trkpt lat="42.103955" lon="14.71686"><ele>15.0</ele><time>2026-04-09T10:40:31.835Z</time></trkpt><trkpt lat="42.10402" lon="14.716865"><ele>15.0</ele><time>2026-04-09T10:40:33.835Z</time></trkpt><trkpt lat="42.1040967" lon="14.71687"><ele>15.0</ele><time>2026-04-09T10:40:35.836Z</time></trkpt><trkpt lat="42.1041867" lon="14.7168767"><ele>15.0</ele><time>2026-04-09T10:40:37.835Z</time></trkpt><trkpt lat="42.1042833" lon="14.71687"><ele>15.2</ele><time>2026-04-09T10:40:39.835Z</time></trkpt><trkpt lat="42.1043783" lon="14.7168333"><ele>15.4</ele><time>2026-04-09T10:40:41.836Z</time></trkpt><trkpt lat="42.104475" lon="14.7168183"><ele>15.600000000000001</ele><time>2026-04-09T10:40:43.835Z</time></trkpt><trkpt lat="42.1045667" lon="14.7168017"><ele>15.8</ele><time>2026-04-09T10:40:45.835Z</time></trkpt><trkpt lat="42.1046667" lon="14.716795"><ele>16.0</ele><time>2026-04-09T10:40:47.835Z</time></trkpt><trkpt lat="42.1047667" lon="14.7167983"><ele>16.0</ele><time>2026-04-09T10:40:49.835Z</time></trkpt><trkpt lat="42.1048767" lon="14.7167933"><ele>16.0</ele><time>2026-04-09T10:40:51.835Z</time></trkpt><trkpt lat="42.1049917" lon="14.7167767"><ele>16.0</ele><time>2026-04-09T10:40:53.835Z</time></trkpt><trkpt lat="42.1051033" lon="14.716765"><ele>16.0</ele><time>2026-04-09T10:40:55.835Z</time></trkpt><trkpt lat="42.105215" lon="14.716755"><ele>16.25</ele><time>2026-04-09T10:40:57.835Z</time></trkpt><trkpt lat="42.1053333" lon="14.716745"><ele>16.5</ele><time>2026-04-09T10:40:59.836Z</time></trkpt><trkpt lat="42.10546" lon="14.71672"><ele>16.75</ele><time>2026-04-09T10:41:01.835Z</time></trkpt><trkpt lat="42.1055783" lon="14.7166933"><ele>17.0</ele><time>2026-04-09T10:41:03.835Z</time></trkpt><trkpt lat="42.1057017" lon="14.7166783"><ele>16.4</ele><time>2026-04-09T10:41:05.835Z</time></trkpt><trkpt lat="42.105815" lon="14.7166583"><ele>15.799999999999999</ele><time>2026-04-09T10:41:07.835Z</time></trkpt><trkpt lat="42.1059217" lon="14.7166517"><ele>15.2</ele><time>2026-04-09T10:41:09.835Z</time></trkpt><trkpt lat="42.1060183" lon="14.7166567"><ele>14.6</ele><time>2026-04-09T10:41:11.835Z</time></trkpt><trkpt lat="42.106105" lon="14.7166583"><ele>14.0</ele><time>2026-04-09T10:41:13.835Z</time></trkpt><trkpt lat="42.1061917" lon="14.7166633"><ele>14.000000000000002</ele><time>2026-04-09T10:41:15.836Z</time></trkpt><trkpt lat="42.1062667" lon="14.71667"><ele>14.0</ele><time>2026-04-09T10:41:17.835Z</time></trkpt><trkpt lat="42.106335" lon="14.71667"><ele>14.0</ele><time>2026-04-09T10:41:19.835Z</time></trkpt><trkpt lat="42.10643" lon="14.7166767"><ele>14.0</ele><time>2026-04-09T10:41:22.836Z</time></trkpt><trkpt lat="42.1065017" lon="14.7166833"><ele>14.000000000000002</ele><time>2026-04-09T10:41:24.835Z</time></trkpt><trkpt lat="42.1065717" lon="14.7166917"><ele>14.0</ele><time>2026-04-09T10:41:26.835Z</time></trkpt><trkpt lat="42.10665" lon="14.7167017"><ele>13.6</ele><time>2026-04-09T10:41:28.835Z</time></trkpt><trkpt lat="42.1067383" lon="14.7167167"><ele>13.2</ele><time>2026-04-09T10:41:30.835Z</time></trkpt><trkpt lat="42.1068317" lon="14.7167317"><ele>12.799999999999999</ele><time>2026-04-09T10:41:32.836Z</time></trkpt><trkpt lat="42.106935" lon="14.7167583"><ele>12.399999999999999</ele><time>2026-04-09T10:41:34.836Z</time></trkpt><trkpt lat="42.1070433" lon="14.71678"><ele>12.0</ele><time>2026-04-09T10:41:36.835Z</time></trkpt><trkpt lat="42.1071517" lon="14.7168117"><ele>12.0</ele><time>2026-04-09T10:41:38.836Z</time></trkpt><trkpt lat="42.1072567" lon="14.716835"><ele>12.0</ele><time>2026-04-09T10:41:40.835Z</time></trkpt><trkpt lat="42.107355" lon="14.71686"><ele>12.0</ele><time>2026-04-09T10:41:42.836Z</time></trkpt><trkpt lat="42.107445" lon="14.7168933"><ele>12.0</ele><time>2026-04-09T10:41:44.836Z</time></trkpt><trkpt lat="42.1075333" lon="14.7169267"><ele>12.0</ele><time>2026-04-09T10:41:46.835Z</time></trkpt><trkpt lat="42.10763" lon="14.7169667"><ele>10.6</ele><time>2026-04-09T10:41:48.835Z</time></trkpt><trkpt lat="42.1077317" lon="14.7170133"><ele>9.2</ele><time>2026-04-09T10:41:50.836Z</time></trkpt><trkpt lat="42.1078367" lon="14.7170533"><ele>7.8</ele><time>2026-04-09T10:41:52.836Z</time></trkpt><trkpt lat="42.10794" lon="14.7170933"><ele>6.4</ele><time>2026-04-09T10:41:54.835Z</time></trkpt><trkpt lat="42.108045" lon="14.7171283"><ele>5.0</ele><time>2026-04-09T10:41:56.836Z</time></trkpt><trkpt lat="42.1081517" lon="14.717165"><ele>6.0</ele><time>2026-04-09T10:41:58.835Z</time></trkpt><trkpt lat="42.1082567" lon="14.7172033"><ele>7.0</ele><time>2026-04-09T10:42:00.835Z</time></trkpt><trkpt lat="42.108355" lon="14.7172417"><ele>8.0</ele><time>2026-04-09T10:42:02.835Z</time></trkpt><trkpt lat="42.1084617" lon="14.717285"><ele>9.0</ele><time>2026-04-09T10:42:04.836Z</time></trkpt><trkpt lat="42.1085233" lon="14.71731"><ele>10.0</ele><time>2026-04-09T10:42:05.836Z</time></trkpt><trkpt lat="42.1086317" lon="14.717345"><ele>10.0</ele><time>2026-04-09T10:42:07.835Z</time></trkpt><trkpt lat="42.1087383" lon="14.7173717"><ele>10.0</ele><time>2026-04-09T10:42:09.835Z</time></trkpt><trkpt lat="42.10884" lon="14.7174"><ele>10.0</ele><time>2026-04-09T10:42:11.835Z</time></trkpt><trkpt lat="42.108955" lon="14.7174083"><ele>10.0</ele><time>2026-04-09T10:42:13.835Z</time></trkpt><trkpt lat="42.1090717" lon="14.7174133"><ele>10.0</ele><time>2026-04-09T10:42:15.835Z</time></trkpt><trkpt lat="42.109185" lon="14.71742"><ele>11.0</ele><time>2026-04-09T10:42:17.835Z</time></trkpt><trkpt lat="42.109295" lon="14.7174283"><ele>12.0</ele><time>2026-04-09T10:42:19.835Z</time></trkpt><trkpt lat="42.109405" lon="14.7174433"><ele>13.0</ele><time>2026-04-09T10:42:21.835Z</time></trkpt><trkpt lat="42.1095167" lon="14.7174617"><ele>14.0</ele><time>2026-04-09T10:42:23.835Z</time></trkpt><trkpt lat="42.1096333" lon="14.7174783"><ele>14.0</ele><time>2026-04-09T10:42:25.836Z</time></trkpt><trkpt lat="42.10974" lon="14.717495"><ele>14.0</ele><time>2026-04-09T10:42:27.835Z</time></trkpt><trkpt lat="42.109855" lon="14.7175167"><ele>14.0</ele><time>2026-04-09T10:42:29.835Z</time></trkpt><trkpt lat="42.10997" lon="14.7175317"><ele>14.0</ele><time>2026-04-09T10:42:31.836Z</time></trkpt><trkpt lat="42.110095" lon="14.7175333"><ele>13.75</ele><time>2026-04-09T10:42:33.836Z</time></trkpt><trkpt lat="42.11021" lon="14.717555"><ele>13.5</ele><time>2026-04-09T10:42:35.835Z</time></trkpt><trkpt lat="42.110325" lon="14.71758"><ele>13.25</ele><time>2026-04-09T10:42:37.835Z</time></trkpt><trkpt lat="42.1104367" lon="14.7176117"><ele>13.0</ele><time>2026-04-09T10:42:39.836Z</time></trkpt><trkpt lat="42.1105567" lon="14.7176367"><ele>13.0</ele><time>2026-04-09T10:42:41.835Z</time></trkpt><trkpt lat="42.1106717" lon="14.7176717"><ele>13.0</ele><time>2026-04-09T10:42:43.835Z</time></trkpt><trkpt lat="42.1107833" lon="14.7177217"><ele>13.0</ele><time>2026-04-09T10:42:45.835Z</time></trkpt><trkpt lat="42.1108933" lon="14.7177683"><ele>13.0</ele><time>2026-04-09T10:42:47.835Z</time></trkpt><trkpt lat="42.1110017" lon="14.7178283"><ele>11.5</ele><time>2026-04-09T10:42:49.835Z</time></trkpt><trkpt lat="42.1111083" lon="14.7178933"><ele>10.0</ele><time>2026-04-09T10:42:51.835Z</time></trkpt><trkpt lat="42.1112183" lon="14.71796"><ele>8.5</ele><time>2026-04-09T10:42:53.835Z</time></trkpt><trkpt lat="42.1113217" lon="14.7180317"><ele>7.0</ele><time>2026-04-09T10:42:55.835Z</time></trkpt><trkpt lat="42.1114267" lon="14.7181083"><ele>7.0</ele><time>2026-04-09T10:42:57.836Z</time></trkpt><trkpt lat="42.1115317" lon="14.7181817"><ele>7.0</ele><time>2026-04-09T10:42:59.835Z</time></trkpt><trkpt lat="42.1116317" lon="14.71826"><ele>7.0</ele><time>2026-04-09T10:43:01.836Z</time></trkpt><trkpt lat="42.1117317" lon="14.7183367"><ele>7.0</ele><time>2026-04-09T10:43:03.835Z</time></trkpt><trkpt lat="42.111835" lon="14.7184133"><ele>6.0</ele><time>2026-04-09T10:43:05.835Z</time></trkpt><trkpt lat="42.1119383" lon="14.7184883"><ele>5.0</ele><time>2026-04-09T10:43:07.835Z</time></trkpt><trkpt lat="42.11204" lon="14.718565"><ele>4.0</ele><time>2026-04-09T10:43:09.836Z</time></trkpt><trkpt lat="42.1121367" lon="14.7186383"><ele>3.0</ele><time>2026-04-09T10:43:11.836Z</time></trkpt><trkpt lat="42.1122283" lon="14.7187117"><ele>3.0</ele><time>2026-04-09T10:43:13.835Z</time></trkpt><trkpt lat="42.11233" lon="14.71878"><ele>3.0</ele><time>2026-04-09T10:43:15.836Z</time></trkpt><trkpt lat="42.1124367" lon="14.7188517"><ele>3.0</ele><time>2026-04-09T10:43:17.835Z</time></trkpt><trkpt lat="42.1125517" lon="14.718915"><ele>3.0</ele><time>2026-04-09T10:43:19.836Z</time></trkpt><trkpt lat="42.1126633" lon="14.7189667"><ele>4.5</ele><time>2026-04-09T10:43:21.835Z</time></trkpt><trkpt lat="42.1127767" lon="14.719025"><ele>6.0</ele><time>2026-04-09T10:43:23.835Z</time></trkpt><trkpt lat="42.1128867" lon="14.7190767"><ele>7.5</ele><time>2026-04-09T10:43:25.835Z</time></trkpt><trkpt lat="42.1129983" lon="14.7191233"><ele>9.0</ele><time>2026-04-09T10:43:27.835Z</time></trkpt><trkpt lat="42.1131067" lon="14.7191733"><ele>9.0</ele><time>2026-04-09T10:43:29.836Z</time></trkpt><trkpt lat="42.1132167" lon="14.7192217"><ele>9.0</ele><time>2026-04-09T10:43:31.835Z</time></trkpt><trkpt lat="42.1133333" lon="14.7192633"><ele>9.0</ele><time>2026-04-09T10:43:33.835Z</time></trkpt><trkpt lat="42.1134517" lon="14.7193067"><ele>9.0</ele><time>2026-04-09T10:43:35.835Z</time></trkpt><trkpt lat="42.1135133" lon="14.7193267"><ele>9.0</ele><time>2026-04-09T10:43:36.836Z</time></trkpt><trkpt lat="42.1136283" lon="14.7193633"><ele>8.5</ele><time>2026-04-09T10:43:38.835Z</time></trkpt><trkpt lat="42.1137467" lon="14.7193883"><ele>8.0</ele><time>2026-04-09T10:43:40.835Z</time></trkpt><trkpt lat="42.1138683" lon="14.7194033"><ele>7.5</ele><time>2026-04-09T10:43:42.835Z</time></trkpt><trkpt lat="42.1139867" lon="14.7194267"><ele>7.0</ele><time>2026-04-09T10:43:44.835Z</time></trkpt><trkpt lat="42.114105" lon="14.7194517"><ele>7.0</ele><time>2026-04-09T10:43:46.835Z</time></trkpt><trkpt lat="42.1142233" lon="14.7194817"><ele>7.0</ele><time>2026-04-09T10:43:48.836Z</time></trkpt><trkpt lat="42.1143383" lon="14.719505"><ele>7.0</ele><time>2026-04-09T10:43:50.835Z</time></trkpt><trkpt lat="42.1144517" lon="14.7195283"><ele>7.0</ele><time>2026-04-09T10:43:52.835Z</time></trkpt><trkpt lat="42.114565" lon="14.71956"><ele>7.0</ele><time>2026-04-09T10:43:54.835Z</time></trkpt><trkpt lat="42.1146767" lon="14.7195883"><ele>7.0</ele><time>2026-04-09T10:43:56.835Z</time></trkpt><trkpt lat="42.1147933" lon="14.7196233"><ele>7.0</ele><time>2026-04-09T10:43:58.835Z</time></trkpt><trkpt lat="42.1149133" lon="14.7196517"><ele>7.0</ele><time>2026-04-09T10:44:00.835Z</time></trkpt><trkpt lat="42.1150317" lon="14.71968"><ele>7.0</ele><time>2026-04-09T10:44:02.836Z</time></trkpt><trkpt lat="42.1151467" lon="14.719705"><ele>7.0</ele><time>2026-04-09T10:44:04.835Z</time></trkpt><trkpt lat="42.1152617" lon="14.719735"><ele>7.0</ele><time>2026-04-09T10:44:06.835Z</time></trkpt><trkpt lat="42.1153783" lon="14.7197683"><ele>7.0</ele><time>2026-04-09T10:44:08.835Z</time></trkpt><trkpt lat="42.1154933" lon="14.7197917"><ele>7.0</ele><time>2026-04-09T10:44:10.835Z</time></trkpt><trkpt lat="42.11561" lon="14.7198133"><ele>7.0</ele><time>2026-04-09T10:44:12.835Z</time></trkpt><trkpt lat="42.1157283" lon="14.719825"><ele>7.0</ele><time>2026-04-09T10:44:14.835Z</time></trkpt><trkpt lat="42.1158467" lon="14.7198383"><ele>7.0</ele><time>2026-04-09T10:44:16.835Z</time></trkpt><trkpt lat="42.1159617" lon="14.71985"><ele>8.25</ele><time>2026-04-09T10:44:18.835Z</time></trkpt><trkpt lat="42.116075" lon="14.71986"><ele>9.5</ele><time>2026-04-09T10:44:20.835Z</time></trkpt><trkpt lat="42.1161883" lon="14.7198667"><ele>10.75</ele><time>2026-04-09T10:44:22.835Z</time></trkpt><trkpt lat="42.116305" lon="14.7198717"><ele>12.0</ele><time>2026-04-09T10:44:24.836Z</time></trkpt><trkpt lat="42.11642" lon="14.719875"><ele>12.0</ele><time>2026-04-09T10:44:26.835Z</time></trkpt><trkpt lat="42.1165417" lon="14.7198717"><ele>12.0</ele><time>2026-04-09T10:44:28.835Z</time></trkpt><trkpt lat="42.1166567" lon="14.7198633"><ele>12.0</ele><time>2026-04-09T10:44:30.835Z</time></trkpt><trkpt lat="42.1167733" lon="14.71985"><ele>12.0</ele><time>2026-04-09T10:44:32.835Z</time></trkpt><trkpt lat="42.1168867" lon="14.7198267"><ele>12.25</ele><time>2026-04-09T10:44:34.835Z</time></trkpt><trkpt lat="42.1170033" lon="14.7198067"><ele>12.5</ele><time>2026-04-09T10:44:36.835Z</time></trkpt><trkpt lat="42.11712" lon="14.719785"><ele>12.75</ele><time>2026-04-09T10:44:38.836Z</time></trkpt><trkpt lat="42.1172333" lon="14.719755"><ele>13.0</ele><time>2026-04-09T10:44:40.835Z</time></trkpt><trkpt lat="42.1173467" lon="14.7197267"><ele>12.25</ele><time>2026-04-09T10:44:42.836Z</time></trkpt><trkpt lat="42.1174583" lon="14.7196983"><ele>11.5</ele><time>2026-04-09T10:44:44.835Z</time></trkpt><trkpt lat="42.1175717" lon="14.7196717"><ele>10.75</ele><time>2026-04-09T10:44:46.835Z</time></trkpt><trkpt lat="42.117685" lon="14.7196533"><ele>10.0</ele><time>2026-04-09T10:44:48.835Z</time></trkpt><trkpt lat="42.1178033" lon="14.7196217"><ele>10.0</ele><time>2026-04-09T10:44:50.835Z</time></trkpt><trkpt lat="42.1179133" lon="14.71961"><ele>10.0</ele><time>2026-04-09T10:44:52.835Z</time></trkpt><trkpt lat="42.1180167" lon="14.7195967"><ele>10.0</ele><time>2026-04-09T10:44:54.835Z</time></trkpt><trkpt lat="42.1181167" lon="14.7195817"><ele>10.0</ele><time>2026-04-09T10:44:56.836Z</time></trkpt><trkpt lat="42.1182233" lon="14.7195533"><ele>10.0</ele><time>2026-04-09T10:44:58.835Z</time></trkpt><trkpt lat="42.1182833" lon="14.7195267"><ele>9.25</ele><time>2026-04-09T10:44:59.835Z</time></trkpt><trkpt lat="42.1184" lon="14.7195"><ele>8.5</ele><time>2026-04-09T10:45:01.835Z</time></trkpt><trkpt lat="42.1185183" lon="14.7194767"><ele>7.75</ele><time>2026-04-09T10:45:03.835Z</time></trkpt><trkpt lat="42.1186317" lon="14.7194617"><ele>7.0</ele><time>2026-04-09T10:45:05.836Z</time></trkpt><trkpt lat="42.1187433" lon="14.719445"><ele>7.0</ele><time>2026-04-09T10:45:07.835Z</time></trkpt><trkpt lat="42.118855" lon="14.7194283"><ele>6.999999999999999</ele><time>2026-04-09T10:45:09.836Z</time></trkpt><trkpt lat="42.1189683" lon="14.71942"><ele>6.999999999999999</ele><time>2026-04-09T10:45:11.835Z</time></trkpt><trkpt lat="42.11908" lon="14.7194233"><ele>7.0</ele><time>2026-04-09T10:45:13.835Z</time></trkpt><trkpt lat="42.1191917" lon="14.7194267"><ele>7.0</ele><time>2026-04-09T10:45:15.835Z</time></trkpt><trkpt lat="42.1192983" lon="14.7194283"><ele>7.0</ele><time>2026-04-09T10:45:17.835Z</time></trkpt><trkpt lat="42.1194067" lon="14.7194217"><ele>6.999999999999999</ele><time>2026-04-09T10:45:19.835Z</time></trkpt><trkpt lat="42.119515" lon="14.71943"><ele>6.999999999999999</ele><time>2026-04-09T10:45:21.836Z</time></trkpt><trkpt lat="42.11962" lon="14.7194433"><ele>7.0</ele><time>2026-04-09T10:45:23.835Z</time></trkpt><trkpt lat="42.1197267" lon="14.7194617"><ele>7.0</ele><time>2026-04-09T10:45:25.835Z</time></trkpt><trkpt lat="42.119835" lon="14.7194833"><ele>7.0</ele><time>2026-04-09T10:45:27.835Z</time></trkpt><trkpt lat="42.1199383" lon="14.7195033"><ele>6.999999999999999</ele><time>2026-04-09T10:45:29.835Z</time></trkpt><trkpt lat="42.1200383" lon="14.719525"><ele>6.999999999999999</ele><time>2026-04-09T10:45:31.835Z</time></trkpt><trkpt lat="42.1201333" lon="14.719545"><ele>7.0</ele><time>2026-04-09T10:45:33.835Z</time></trkpt><trkpt lat="42.1202167" lon="14.7195667"><ele>7.0</ele><time>2026-04-09T10:45:35.835Z</time></trkpt><trkpt lat="42.1202933" lon="14.71959"><ele>7.0</ele><time>2026-04-09T10:45:37.835Z</time></trkpt><trkpt lat="42.1203817" lon="14.71962"><ele>6.999999999999999</ele><time>2026-04-09T10:45:39.835Z</time></trkpt><trkpt lat="42.12048" lon="14.7196533"><ele>6.999999999999999</ele><time>2026-04-09T10:45:41.835Z</time></trkpt><trkpt lat="42.120575" lon="14.719695"><ele>7.0</ele><time>2026-04-09T10:45:43.835Z</time></trkpt><trkpt lat="42.1206733" lon="14.71975"><ele>7.0</ele><time>2026-04-09T10:45:45.835Z</time></trkpt><trkpt lat="42.1207733" lon="14.7198033"><ele>8.0</ele><time>2026-04-09T10:45:47.836Z</time></trkpt><trkpt lat="42.1208733" lon="14.7198533"><ele>9.0</ele><time>2026-04-09T10:45:49.835Z</time></trkpt><trkpt lat="42.1209733" lon="14.71991"><ele>10.0</ele><time>2026-04-09T10:45:51.835Z</time></trkpt><trkpt lat="42.1210717" lon="14.71997"><ele>11.0</ele><time>2026-04-09T10:45:53.835Z</time></trkpt><trkpt lat="42.12117" lon="14.7200333"><ele>12.0</ele><time>2026-04-09T10:45:55.835Z</time></trkpt><trkpt lat="42.121265" lon="14.7201017"><ele>12.0</ele><time>2026-04-09T10:45:57.836Z</time></trkpt><trkpt lat="42.1213633" lon="14.72017"><ele>12.0</ele><time>2026-04-09T10:45:59.836Z</time></trkpt><trkpt lat="42.12146" lon="14.7202383"><ele>12.0</ele><time>2026-04-09T10:46:01.835Z</time></trkpt><trkpt lat="42.1215583" lon="14.7203083"><ele>12.0</ele><time>2026-04-09T10:46:03.835Z</time></trkpt><trkpt lat="42.1216467" lon="14.7203733"><ele>12.0</ele><time>2026-04-09T10:46:05.835Z</time></trkpt><trkpt lat="42.12174" lon="14.7204233"><ele>12.166666666666666</ele><time>2026-04-09T10:46:07.836Z</time></trkpt><trkpt lat="42.1218317" lon="14.7204733"><ele>12.333333333333332</ele><time>2026-04-09T10:46:09.835Z</time></trkpt><trkpt lat="42.1219267" lon="14.72053"><ele>12.5</ele><time>2026-04-09T10:46:11.835Z</time></trkpt><trkpt lat="42.1219983" lon="14.72058"><ele>12.666666666666666</ele><time>2026-04-09T10:46:13.835Z</time></trkpt><trkpt lat="42.12206" lon="14.720625"><ele>12.833333333333332</ele><time>2026-04-09T10:46:15.835Z</time></trkpt><trkpt lat="42.1221217" lon="14.7206517"><ele>13.0</ele><time>2026-04-09T10:46:27.277Z</time></trkpt><trkpt lat="42.12286" lon="14.7212983"><ele>12.5</ele><time>2026-04-09T10:46:31.836Z</time></trkpt><trkpt lat="42.1230367" lon="14.72115"><ele>12.0</ele><time>2026-04-09T10:46:32.835Z</time></trkpt><trkpt lat="42.1231267" lon="14.7211983"><ele>11.5</ele><time>2026-04-09T10:46:34.835Z</time></trkpt><trkpt lat="42.1232417" lon="14.7212317"><ele>11.0</ele><time>2026-04-09T10:46:36.835Z</time></trkpt><trkpt lat="42.123355" lon="14.7212633"><ele>10.25</ele><time>2026-04-09T10:46:38.836Z</time></trkpt><trkpt lat="42.1234733" lon="14.7212883"><ele>9.5</ele><time>2026-04-09T10:46:40.835Z</time></trkpt><trkpt lat="42.1235917" lon="14.7213133"><ele>8.75</ele><time>2026-04-09T10:46:42.835Z</time></trkpt><trkpt lat="42.12371" lon="14.7213317"><ele>8.0</ele><time>2026-04-09T10:46:44.835Z</time></trkpt><trkpt lat="42.12383" lon="14.7213467"><ele>8.0</ele><time>2026-04-09T10:46:46.836Z</time></trkpt><trkpt lat="42.1239417" lon="14.7213617"><ele>8.0</ele><time>2026-04-09T10:46:48.835Z</time></trkpt><trkpt lat="42.1240583" lon="14.72137"><ele>8.0</ele><time>2026-04-09T10:46:50.835Z</time></trkpt><trkpt lat="42.1241767" lon="14.7213767"><ele>8.0</ele><time>2026-04-09T10:46:52.835Z</time></trkpt><trkpt lat="42.1242917" lon="14.7213767"><ele>8.600000000000001</ele><time>2026-04-09T10:46:54.835Z</time></trkpt><trkpt lat="42.1244067" lon="14.7213833"><ele>9.200000000000001</ele><time>2026-04-09T10:46:56.835Z</time></trkpt><trkpt lat="42.124515" lon="14.7213883"><ele>9.8</ele><time>2026-04-09T10:46:58.835Z</time></trkpt><trkpt lat="42.12463" lon="14.7213917"><ele>10.4</ele><time>2026-04-09T10:47:00.835Z</time></trkpt><trkpt lat="42.1246933" lon="14.7213867"><ele>11.0</ele><time>2026-04-09T10:47:01.835Z</time></trkpt><trkpt lat="42.1248017" lon="14.72138"><ele>11.0</ele><time>2026-04-09T10:47:03.835Z</time></trkpt><trkpt lat="42.12487" lon="14.7213633"><ele>11.0</ele><time>2026-04-09T10:47:05.836Z</time></trkpt><trkpt lat="42.1249583" lon="14.72134"><ele>11.0</ele><time>2026-04-09T10:47:07.835Z</time></trkpt><trkpt lat="42.12503" lon="14.72133"><ele>11.0</ele><time>2026-04-09T10:47:09.835Z</time></trkpt><trkpt lat="42.1250983" lon="14.721325"><ele>11.0</ele><time>2026-04-09T10:47:11.835Z</time></trkpt><trkpt lat="42.1262067" lon="14.7214033"><ele>11.600000000000001</ele><time>2026-04-09T10:47:27.836Z</time></trkpt><trkpt lat="42.12631" lon="14.7213717"><ele>12.2</ele><time>2026-04-09T10:47:29.836Z</time></trkpt><trkpt lat="42.12642" lon="14.721365"><ele>12.799999999999999</ele><time>2026-04-09T10:47:31.836Z</time></trkpt><trkpt lat="42.1265267" lon="14.7213667"><ele>13.399999999999999</ele><time>2026-04-09T10:47:33.836Z</time></trkpt><trkpt lat="42.1266483" lon="14.7213567"><ele>14.0</ele><time>2026-04-09T10:47:35.836Z</time></trkpt><trkpt lat="42.1267617" lon="14.7213533"><ele>14.0</ele><time>2026-04-09T10:47:37.836Z</time></trkpt><trkpt lat="42.1268767" lon="14.7213483"><ele>14.0</ele><time>2026-04-09T10:47:39.836Z</time></trkpt><trkpt lat="42.1269917" lon="14.7213383"><ele>14.0</ele><time>2026-04-09T10:47:41.836Z</time></trkpt><trkpt lat="42.127105" lon="14.721335"><ele>14.0</ele><time>2026-04-09T10:47:43.836Z</time></trkpt><trkpt lat="42.12722" lon="14.7213267"><ele>14.0</ele><time>2026-04-09T10:47:45.836Z</time></trkpt><trkpt lat="42.127335" lon="14.7213183"><ele>14.0</ele><time>2026-04-09T10:47:47.836Z</time></trkpt><trkpt lat="42.12745" lon="14.7213"><ele>14.0</ele><time>2026-04-09T10:47:49.836Z</time></trkpt><trkpt lat="42.1275633" lon="14.7212817"><ele>14.0</ele><time>2026-04-09T10:47:51.837Z</time></trkpt><trkpt lat="42.1276767" lon="14.721255"><ele>13.0</ele><time>2026-04-09T10:47:53.836Z</time></trkpt><trkpt lat="42.12779" lon="14.7212317"><ele>12.0</ele><time>2026-04-09T10:47:55.837Z</time></trkpt><trkpt lat="42.127905" lon="14.7212017"><ele>11.0</ele><time>2026-04-09T10:47:57.837Z</time></trkpt><trkpt lat="42.1280183" lon="14.7211767"><ele>10.0</ele><time>2026-04-09T10:47:59.836Z</time></trkpt><trkpt lat="42.12813" lon="14.7211417"><ele>9.6</ele><time>2026-04-09T10:48:01.837Z</time></trkpt><trkpt lat="42.1282417" lon="14.7211083"><ele>9.2</ele><time>2026-04-09T10:48:03.836Z</time></trkpt><trkpt lat="42.12835" lon="14.72107"><ele>8.8</ele><time>2026-04-09T10:48:05.836Z</time></trkpt><trkpt lat="42.1284583" lon="14.721035"><ele>8.4</ele><time>2026-04-09T10:48:07.836Z</time></trkpt><trkpt lat="42.128565" lon="14.7209917"><ele>8.0</ele><time>2026-04-09T10:48:09.837Z</time></trkpt><trkpt lat="42.1286733" lon="14.72095"><ele>10.4</ele><time>2026-04-09T10:48:11.836Z</time></trkpt><trkpt lat="42.1287783" lon="14.720905"><ele>12.8</ele><time>2026-04-09T10:48:13.836Z</time></trkpt><trkpt lat="42.128885" lon="14.720855"><ele>15.2</ele><time>2026-04-09T10:48:15.836Z</time></trkpt><trkpt lat="42.12899" lon="14.720805"><ele>17.6</ele><time>2026-04-09T10:48:17.836Z</time></trkpt><trkpt lat="42.129095" lon="14.72075"><ele>20.0</ele><time>2026-04-09T10:48:19.837Z</time></trkpt><trkpt lat="42.129205" lon="14.7206883"><ele>20.0</ele><time>2026-04-09T10:48:21.836Z</time></trkpt><trkpt lat="42.1293083" lon="14.7206267"><ele>20.0</ele><time>2026-04-09T10:48:23.836Z</time></trkpt><trkpt lat="42.1294133" lon="14.7205683"><ele>20.0</ele><time>2026-04-09T10:48:25.836Z</time></trkpt><trkpt lat="42.129515" lon="14.7205117"><ele>20.0</ele><time>2026-04-09T10:48:27.836Z</time></trkpt><trkpt lat="42.129615" lon="14.7204517"><ele>20.0</ele><time>2026-04-09T10:48:29.836Z</time></trkpt><trkpt lat="42.1297133" lon="14.720385"><ele>20.0</ele><time>2026-04-09T10:48:31.836Z</time></trkpt><trkpt lat="42.1298183" lon="14.7203133"><ele>20.0</ele><time>2026-04-09T10:48:33.836Z</time></trkpt><trkpt lat="42.1299233" lon="14.7202417"><ele>20.0</ele><time>2026-04-09T10:48:35.836Z</time></trkpt><trkpt lat="42.130025" lon="14.72017"><ele>20.0</ele><time>2026-04-09T10:48:37.837Z</time></trkpt><trkpt lat="42.1301283" lon="14.72009"><ele>20.8</ele><time>2026-04-09T10:48:39.836Z</time></trkpt><trkpt lat="42.13023" lon="14.7200117"><ele>21.6</ele><time>2026-04-09T10:48:41.836Z</time></trkpt><trkpt lat="42.1303233" lon="14.719935"><ele>22.4</ele><time>2026-04-09T10:48:43.836Z</time></trkpt><trkpt lat="42.13041" lon="14.719855"><ele>23.2</ele><time>2026-04-09T10:48:45.836Z</time></trkpt><trkpt lat="42.130495" lon="14.719785"><ele>24.0</ele><time>2026-04-09T10:48:47.836Z</time></trkpt><trkpt lat="42.13058" lon="14.7197183"><ele>24.0</ele><time>2026-04-09T10:48:49.836Z</time></trkpt><trkpt lat="42.1306633" lon="14.719645"><ele>24.0</ele><time>2026-04-09T10:48:51.836Z</time></trkpt><trkpt lat="42.1307533" lon="14.719565"><ele>24.0</ele><time>2026-04-09T10:48:53.836Z</time></trkpt><trkpt lat="42.13084" lon="14.7194867"><ele>24.0</ele><time>2026-04-09T10:48:55.836Z</time></trkpt><trkpt lat="42.1309233" lon="14.7194033"><ele>24.0</ele><time>2026-04-09T10:48:57.836Z</time></trkpt><trkpt lat="42.1310117" lon="14.7193117"><ele>23.6</ele><time>2026-04-09T10:48:59.836Z</time></trkpt><trkpt lat="42.1310967" lon="14.71922"><ele>23.2</ele><time>2026-04-09T10:49:01.836Z</time></trkpt><trkpt lat="42.1311783" lon="14.7191333"><ele>22.8</ele><time>2026-04-09T10:49:03.837Z</time></trkpt><trkpt lat="42.13126" lon="14.7190483"><ele>22.400000000000002</ele><time>2026-04-09T10:49:05.836Z</time></trkpt><trkpt lat="42.13134" lon="14.7189617"><ele>22.0</ele><time>2026-04-09T10:49:07.836Z</time></trkpt><trkpt lat="42.13142" lon="14.7188817"><ele>22.0</ele><time>2026-04-09T10:49:09.836Z</time></trkpt><trkpt lat="42.131505" lon="14.7188"><ele>22.0</ele><time>2026-04-09T10:49:11.837Z</time></trkpt><trkpt lat="42.131585" lon="14.7187183"><ele>22.0</ele><time>2026-04-09T10:49:13.836Z</time></trkpt><trkpt lat="42.1316717" lon="14.718635"><ele>22.0</ele><time>2026-04-09T10:49:15.837Z</time></trkpt><trkpt lat="42.1317583" lon="14.7185517"><ele>22.0</ele><time>2026-04-09T10:49:17.836Z</time></trkpt><trkpt lat="42.1318433" lon="14.718475"><ele>22.6</ele><time>2026-04-09T10:49:19.836Z</time></trkpt><trkpt lat="42.1319267" lon="14.718415"><ele>23.200000000000003</ele><time>2026-04-09T10:49:21.836Z</time></trkpt><trkpt lat="42.1320117" lon="14.7183533"><ele>23.8</ele><time>2026-04-09T10:49:23.836Z</time></trkpt><trkpt lat="42.1321133" lon="14.7182817"><ele>24.4</ele><time>2026-04-09T10:49:25.836Z</time></trkpt><trkpt lat="42.1322133" lon="14.7182133"><ele>25.0</ele><time>2026-04-09T10:49:27.836Z</time></trkpt><trkpt lat="42.1323133" lon="14.71813"><ele>22.0</ele><time>2026-04-09T10:49:29.836Z</time></trkpt><trkpt lat="42.1324033" lon="14.7180617"><ele>19.0</ele><time>2026-04-09T10:49:31.836Z</time></trkpt><trkpt lat="42.1324967" lon="14.7179683"><ele>16.0</ele><time>2026-04-09T10:49:33.836Z</time></trkpt><trkpt lat="42.1325933" lon="14.71789"><ele>13.0</ele><time>2026-04-09T10:49:35.837Z</time></trkpt><trkpt lat="42.132705" lon="14.71782"><ele>13.0</ele><time>2026-04-09T10:49:37.836Z</time></trkpt><trkpt lat="42.1327583" lon="14.71777"><ele>13.0</ele><time>2026-04-09T10:49:38.836Z</time></trkpt><trkpt lat="42.13287" lon="14.7176967"><ele>13.0</ele><time>2026-04-09T10:49:40.836Z</time></trkpt><trkpt lat="42.13298" lon="14.71763"><ele>13.0</ele><time>2026-04-09T10:49:42.836Z</time></trkpt><trkpt lat="42.1330917" lon="14.7175767"><ele>13.0</ele><time>2026-04-09T10:49:44.836Z</time></trkpt><trkpt lat="42.1332067" lon="14.717525"><ele>13.8</ele><time>2026-04-09T10:49:46.836Z</time></trkpt><trkpt lat="42.1332683" lon="14.71749"><ele>14.600000000000001</ele><time>2026-04-09T10:49:47.836Z</time></trkpt><trkpt lat="42.1333833" lon="14.7174483"><ele>15.399999999999999</ele><time>2026-04-09T10:49:49.836Z</time></trkpt><trkpt lat="42.1334983" lon="14.71741"><ele>16.2</ele><time>2026-04-09T10:49:51.836Z</time></trkpt><trkpt lat="42.1336083" lon="14.7173733"><ele>17.0</ele><time>2026-04-09T10:49:53.836Z</time></trkpt><trkpt lat="42.1337117" lon="14.71734"><ele>17.0</ele><time>2026-04-09T10:49:55.836Z</time></trkpt><trkpt lat="42.1338267" lon="14.717315"><ele>17.0</ele><time>2026-04-09T10:49:57.836Z</time></trkpt><trkpt lat="42.1339383" lon="14.717295"><ele>17.0</ele><time>2026-04-09T10:49:59.836Z</time></trkpt><trkpt lat="42.13405" lon="14.7172683"><ele>17.0</ele><time>2026-04-09T10:50:01.836Z</time></trkpt><trkpt lat="42.1341583" lon="14.7172583"><ele>17.2</ele><time>2026-04-09T10:50:03.837Z</time></trkpt><trkpt lat="42.1342667" lon="14.7172517"><ele>17.4</ele><time>2026-04-09T10:50:05.837Z</time></trkpt><trkpt lat="42.1343733" lon="14.7172483"><ele>17.6</ele><time>2026-04-09T10:50:07.836Z</time></trkpt><trkpt lat="42.1344867" lon="14.7172483"><ele>17.8</ele><time>2026-04-09T10:50:09.837Z</time></trkpt><trkpt lat="42.1346" lon="14.7172533"><ele>18.0</ele><time>2026-04-09T10:50:11.836Z</time></trkpt><trkpt lat="42.1347183" lon="14.7172533"><ele>18.0</ele><time>2026-04-09T10:50:13.836Z</time></trkpt><trkpt lat="42.13483" lon="14.7172567"><ele>18.0</ele><time>2026-04-09T10:50:15.836Z</time></trkpt><trkpt lat="42.1349383" lon="14.71727"><ele>18.0</ele><time>2026-04-09T10:50:17.836Z</time></trkpt><trkpt lat="42.1350517" lon="14.7172817"><ele>18.0</ele><time>2026-04-09T10:50:19.836Z</time></trkpt><trkpt lat="42.13517" lon="14.7173033"><ele>18.25</ele><time>2026-04-09T10:50:21.836Z</time></trkpt><trkpt lat="42.1352883" lon="14.717315"><ele>18.5</ele><time>2026-04-09T10:50:23.836Z</time></trkpt><trkpt lat="42.1354" lon="14.7173333"><ele>18.75</ele><time>2026-04-09T10:50:25.836Z</time></trkpt><trkpt lat="42.135515" lon="14.7173483"><ele>19.0</ele><time>2026-04-09T10:50:27.836Z</time></trkpt><trkpt lat="42.1356283" lon="14.7173683"><ele>20.5</ele><time>2026-04-09T10:50:29.836Z</time></trkpt><trkpt lat="42.1357383" lon="14.7173867"><ele>22.0</ele><time>2026-04-09T10:50:31.836Z</time></trkpt><trkpt lat="42.135855" lon="14.7174"><ele>23.5</ele><time>2026-04-09T10:50:33.836Z</time></trkpt><trkpt lat="42.135965" lon="14.7174117"><ele>25.0</ele><time>2026-04-09T10:50:35.837Z</time></trkpt><trkpt lat="42.1360767" lon="14.717415"><ele>25.0</ele><time>2026-04-09T10:50:37.836Z</time></trkpt><trkpt lat="42.1361833" lon="14.717415"><ele>25.0</ele><time>2026-04-09T10:50:39.836Z</time></trkpt><trkpt lat="42.1362817" lon="14.7174183"><ele>25.0</ele><time>2026-04-09T10:50:41.836Z</time></trkpt><trkpt lat="42.1363833" lon="14.7174183"><ele>25.0</ele><time>2026-04-09T10:50:43.836Z</time></trkpt><trkpt lat="42.1364817" lon="14.7173967"><ele>25.0</ele><time>2026-04-09T10:50:45.837Z</time></trkpt><trkpt lat="42.1365617" lon="14.71736"><ele>23.666666666666668</ele><time>2026-04-09T10:50:47.836Z</time></trkpt><trkpt lat="42.1366367" lon="14.7173267"><ele>22.333333333333336</ele><time>2026-04-09T10:50:49.836Z</time></trkpt><trkpt lat="42.1367117" lon="14.71728"><ele>21.0</ele><time>2026-04-09T10:50:51.836Z</time></trkpt><trkpt lat="42.1383583" lon="14.7172967"><ele>21.0</ele><time>2026-04-09T10:51:15.838Z</time></trkpt><trkpt lat="42.138225" lon="14.7172883"><ele>21.0</ele><time>2026-04-09T10:51:16.838Z</time></trkpt><trkpt lat="42.1383417" lon="14.7172967"><ele>21.0</ele><time>2026-04-09T10:51:17.838Z</time></trkpt><trkpt lat="42.1383917" lon="14.7171317"><ele>21.0</ele><time>2026-04-09T10:51:18.839Z</time></trkpt><trkpt lat="42.1384567" lon="14.717035"><ele>21.0</ele><time>2026-04-09T10:51:19.838Z</time></trkpt><trkpt lat="42.1385217" lon="14.7169817"><ele>21.0</ele><time>2026-04-09T10:51:20.838Z</time></trkpt><trkpt lat="42.1386417" lon="14.7169367"><ele>21.0</ele><time>2026-04-09T10:51:22.838Z</time></trkpt><trkpt lat="42.138755" lon="14.716905"><ele>21.0</ele><time>2026-04-09T10:51:24.839Z</time></trkpt><trkpt lat="42.1388717" lon="14.716885"><ele>21.0</ele><time>2026-04-09T10:51:26.838Z</time></trkpt><trkpt lat="42.1389817" lon="14.7168683"><ele>22.5</ele><time>2026-04-09T10:51:28.838Z</time></trkpt><trkpt lat="42.1390933" lon="14.7168483"><ele>24.0</ele><time>2026-04-09T10:51:30.838Z</time></trkpt><trkpt lat="42.13921" lon="14.7168267"><ele>25.5</ele><time>2026-04-09T10:51:32.838Z</time></trkpt><trkpt lat="42.1393267" lon="14.7168167"><ele>27.0</ele><time>2026-04-09T10:51:34.838Z</time></trkpt><trkpt lat="42.139445" lon="14.7168133"><ele>27.0</ele><time>2026-04-09T10:51:36.838Z</time></trkpt><trkpt lat="42.1395583" lon="14.7168183"><ele>27.000000000000004</ele><time>2026-04-09T10:51:38.838Z</time></trkpt><trkpt lat="42.1396767" lon="14.7168217"><ele>27.000000000000004</ele><time>2026-04-09T10:51:40.838Z</time></trkpt><trkpt lat="42.13974" lon="14.7168217"><ele>27.0</ele><time>2026-04-09T10:51:41.838Z</time></trkpt><trkpt lat="42.1398583" lon="14.7168283"><ele>27.0</ele><time>2026-04-09T10:51:43.838Z</time></trkpt><trkpt lat="42.1399767" lon="14.7168417"><ele>26.25</ele><time>2026-04-09T10:51:45.838Z</time></trkpt><trkpt lat="42.1400933" lon="14.71685"><ele>25.5</ele><time>2026-04-09T10:51:47.838Z</time></trkpt><trkpt lat="42.140205" lon="14.7168717"><ele>24.75</ele><time>2026-04-09T10:51:49.838Z</time></trkpt><trkpt lat="42.1403217" lon="14.7168933"><ele>24.0</ele><time>2026-04-09T10:51:51.838Z</time></trkpt><trkpt lat="42.1404383" lon="14.7169083"><ele>22.0</ele><time>2026-04-09T10:51:53.838Z</time></trkpt><trkpt lat="42.1405467" lon="14.71693"><ele>20.0</ele><time>2026-04-09T10:51:55.838Z</time></trkpt><trkpt lat="42.1406517" lon="14.7169433"><ele>18.0</ele><time>2026-04-09T10:51:57.839Z</time></trkpt><trkpt lat="42.1407533" lon="14.716965"><ele>16.0</ele><time>2026-04-09T10:51:59.838Z</time></trkpt><trkpt lat="42.1408467" lon="14.7169767"><ele>14.0</ele><time>2026-04-09T10:52:01.839Z</time></trkpt><trkpt lat="42.1409367" lon="14.7169933"><ele>14.0</ele><time>2026-04-09T10:52:03.838Z</time></trkpt><trkpt lat="42.1410333" lon="14.7170133"><ele>13.999999999999998</ele><time>2026-04-09T10:52:05.838Z</time></trkpt><trkpt lat="42.1411333" lon="14.7170433"><ele>13.999999999999998</ele><time>2026-04-09T10:52:07.838Z</time></trkpt><trkpt lat="42.14124" lon="14.7170667"><ele>14.0</ele><time>2026-04-09T10:52:09.838Z</time></trkpt><trkpt lat="42.1413433" lon="14.7170917"><ele>14.0</ele><time>2026-04-09T10:52:11.838Z</time></trkpt><trkpt lat="42.1414483" lon="14.7171167"><ele>14.799999999999999</ele><time>2026-04-09T10:52:13.838Z</time></trkpt><trkpt lat="42.1415567" lon="14.7171383"><ele>15.599999999999998</ele><time>2026-04-09T10:52:15.838Z</time></trkpt><trkpt lat="42.1416683" lon="14.717155"><ele>16.4</ele><time>2026-04-09T10:52:17.838Z</time></trkpt><trkpt lat="42.1417767" lon="14.7171717"><ele>17.2</ele><time>2026-04-09T10:52:19.838Z</time></trkpt><trkpt lat="42.1418883" lon="14.7171833"><ele>18.0</ele><time>2026-04-09T10:52:21.839Z</time></trkpt><trkpt lat="42.1419983" lon="14.7171917"><ele>18.0</ele><time>2026-04-09T10:52:23.838Z</time></trkpt><trkpt lat="42.1421067" lon="14.71719"><ele>18.0</ele><time>2026-04-09T10:52:25.838Z</time></trkpt><trkpt lat="42.142225" lon="14.71719"><ele>18.0</ele><time>2026-04-09T10:52:27.838Z</time></trkpt><trkpt lat="42.1423433" lon="14.71719"><ele>18.0</ele><time>2026-04-09T10:52:29.838Z</time></trkpt><trkpt lat="42.142455" lon="14.7171917"><ele>19.5</ele><time>2026-04-09T10:52:31.838Z</time></trkpt><trkpt lat="42.14257" lon="14.71719"><ele>21.0</ele><time>2026-04-09T10:52:33.839Z</time></trkpt><trkpt lat="42.1426867" lon="14.7171867"><ele>22.5</ele><time>2026-04-09T10:52:35.838Z</time></trkpt><trkpt lat="42.1427983" lon="14.7171783"><ele>24.0</ele><time>2026-04-09T10:52:37.839Z</time></trkpt><trkpt lat="42.14291" lon="14.7171767"><ele>24.0</ele><time>2026-04-09T10:52:39.838Z</time></trkpt><trkpt lat="42.14302" lon="14.71717"><ele>24.0</ele><time>2026-04-09T10:52:41.838Z</time></trkpt><trkpt lat="42.14314" lon="14.7171483"><ele>24.0</ele><time>2026-04-09T10:52:43.839Z</time></trkpt><trkpt lat="42.143255" lon="14.7171267"><ele>24.0</ele><time>2026-04-09T10:52:45.838Z</time></trkpt><trkpt lat="42.14337" lon="14.7171133"><ele>24.0</ele><time>2026-04-09T10:52:47.838Z</time></trkpt><trkpt lat="42.14349" lon="14.7170917"><ele>24.0</ele><time>2026-04-09T10:52:49.839Z</time></trkpt><trkpt lat="42.1436033" lon="14.71708"><ele>24.0</ele><time>2026-04-09T10:52:51.838Z</time></trkpt><trkpt lat="42.14372" lon="14.7170467"><ele>24.0</ele><time>2026-04-09T10:52:53.838Z</time></trkpt><trkpt lat="42.1438333" lon="14.7170117"><ele>24.0</ele><time>2026-04-09T10:52:55.839Z</time></trkpt><trkpt lat="42.1439467" lon="14.7169733"><ele>24.0</ele><time>2026-04-09T10:52:57.839Z</time></trkpt><trkpt lat="42.1440583" lon="14.716945"><ele>24.0</ele><time>2026-04-09T10:52:59.838Z</time></trkpt><trkpt lat="42.1441817" lon="14.716905"><ele>24.0</ele><time>2026-04-09T10:53:01.838Z</time></trkpt><trkpt lat="42.14429" lon="14.71688"><ele>25.5</ele><time>2026-04-09T10:53:03.838Z</time></trkpt><trkpt lat="42.1444" lon="14.71685"><ele>27.0</ele><time>2026-04-09T10:53:05.838Z</time></trkpt><trkpt lat="42.1445167" lon="14.71681"><ele>28.5</ele><time>2026-04-09T10:53:07.838Z</time></trkpt><trkpt lat="42.1446333" lon="14.7167733"><ele>30.0</ele><time>2026-04-09T10:53:09.839Z</time></trkpt><trkpt lat="42.1447483" lon="14.7167433"><ele>30.0</ele><time>2026-04-09T10:53:11.838Z</time></trkpt><trkpt lat="42.14486" lon="14.71671"><ele>30.0</ele><time>2026-04-09T10:53:13.838Z</time></trkpt><trkpt lat="42.1449667" lon="14.7166883"><ele>30.0</ele><time>2026-04-09T10:53:15.839Z</time></trkpt><trkpt lat="42.14508" lon="14.7166583"><ele>30.0</ele><time>2026-04-09T10:53:17.838Z</time></trkpt><trkpt lat="42.1451933" lon="14.7166317"><ele>29.4</ele><time>2026-04-09T10:53:19.838Z</time></trkpt><trkpt lat="42.1453017" lon="14.7166"><ele>28.8</ele><time>2026-04-09T10:53:21.838Z</time></trkpt><trkpt lat="42.145405" lon="14.71658"><ele>28.200000000000003</ele><time>2026-04-09T10:53:23.838Z</time></trkpt><trkpt lat="42.1455083" lon="14.7165717"><ele>27.6</ele><time>2026-04-09T10:53:25.839Z</time></trkpt><trkpt lat="42.1456083" lon="14.7165533"><ele>27.0</ele><time>2026-04-09T10:53:27.839Z</time></trkpt><trkpt lat="42.1457033" lon="14.716525"><ele>26.8</ele><time>2026-04-09T10:53:29.838Z</time></trkpt><trkpt lat="42.1457917" lon="14.7164983"><ele>26.6</ele><time>2026-04-09T10:53:31.838Z</time></trkpt><trkpt lat="42.1458717" lon="14.7164767"><ele>26.400000000000002</ele><time>2026-04-09T10:53:33.838Z</time></trkpt><trkpt lat="42.1459567" lon="14.7164483"><ele>26.200000000000003</ele><time>2026-04-09T10:53:35.838Z</time></trkpt><trkpt lat="42.14606" lon="14.716415"><ele>26.0</ele><time>2026-04-09T10:53:37.838Z</time></trkpt><trkpt lat="42.1461733" lon="14.7163733"><ele>26.0</ele><time>2026-04-09T10:53:39.838Z</time></trkpt><trkpt lat="42.1462633" lon="14.716355"><ele>26.0</ele><time>2026-04-09T10:53:41.838Z</time></trkpt><trkpt lat="42.14635" lon="14.716335"><ele>26.0</ele><time>2026-04-09T10:53:43.838Z</time></trkpt><trkpt lat="42.1464517" lon="14.7163"><ele>26.0</ele><time>2026-04-09T10:53:45.838Z</time></trkpt><trkpt lat="42.1465517" lon="14.716265"><ele>26.0</ele><time>2026-04-09T10:53:47.838Z</time></trkpt><trkpt lat="42.146655" lon="14.7162433"><ele>25.6</ele><time>2026-04-09T10:53:49.838Z</time></trkpt><trkpt lat="42.1467567" lon="14.716215"><ele>25.200000000000003</ele><time>2026-04-09T10:53:51.838Z</time></trkpt><trkpt lat="42.1468667" lon="14.7161783"><ele>24.799999999999997</ele><time>2026-04-09T10:53:53.838Z</time></trkpt><trkpt lat="42.1469683" lon="14.716145"><ele>24.4</ele><time>2026-04-09T10:53:55.838Z</time></trkpt><trkpt lat="42.1470683" lon="14.7161033"><ele>24.0</ele><time>2026-04-09T10:53:57.838Z</time></trkpt><trkpt lat="42.14718" lon="14.7160683"><ele>25.799999999999997</ele><time>2026-04-09T10:53:59.838Z</time></trkpt><trkpt lat="42.1472817" lon="14.7160383"><ele>27.599999999999998</ele><time>2026-04-09T10:54:01.838Z</time></trkpt><trkpt lat="42.1473833" lon="14.7160117"><ele>29.4</ele><time>2026-04-09T10:54:03.838Z</time></trkpt><trkpt lat="42.1474917" lon="14.7159733"><ele>31.2</ele><time>2026-04-09T10:54:05.838Z</time></trkpt><trkpt lat="42.1475967" lon="14.7159417"><ele>33.0</ele><time>2026-04-09T10:54:07.838Z</time></trkpt><trkpt lat="42.1477067" lon="14.7159033"><ele>33.0</ele><time>2026-04-09T10:54:09.838Z</time></trkpt><trkpt lat="42.147815" lon="14.7158433"><ele>33.0</ele><time>2026-04-09T10:54:11.838Z</time></trkpt><trkpt lat="42.1479233" lon="14.71578"><ele>33.0</ele><time>2026-04-09T10:54:13.838Z</time></trkpt><trkpt lat="42.1480283" lon="14.7157067"><ele>33.0</ele><time>2026-04-09T10:54:15.838Z</time></trkpt><trkpt lat="42.1480817" lon="14.71566"><ele>33.0</ele><time>2026-04-09T10:54:16.838Z</time></trkpt><trkpt lat="42.14819" lon="14.71557"><ele>33.5</ele><time>2026-04-09T10:54:18.838Z</time></trkpt><trkpt lat="42.148295" lon="14.71549"><ele>34.0</ele><time>2026-04-09T10:54:20.838Z</time></trkpt><trkpt lat="42.1483883" lon="14.7154067"><ele>34.5</ele><time>2026-04-09T10:54:22.838Z</time></trkpt><trkpt lat="42.1484883" lon="14.71531"><ele>35.0</ele><time>2026-04-09T10:54:24.839Z</time></trkpt><trkpt lat="42.1485917" lon="14.7152267"><ele>35.0</ele><time>2026-04-09T10:54:26.838Z</time></trkpt><trkpt lat="42.1487" lon="14.7151683"><ele>35.0</ele><time>2026-04-09T10:54:28.838Z</time></trkpt><trkpt lat="42.14879" lon="14.71512"><ele>35.0</ele><time>2026-04-09T10:54:30.839Z</time></trkpt><trkpt lat="42.14887" lon="14.7150817"><ele>35.0</ele><time>2026-04-09T10:54:32.838Z</time></trkpt><trkpt lat="42.1489417" lon="14.7150317"><ele>35.0</ele><time>2026-04-09T10:54:34.838Z</time></trkpt><trkpt lat="42.1490183" lon="14.7149633"><ele>34.4</ele><time>2026-04-09T10:54:36.838Z</time></trkpt><trkpt lat="42.1490817" lon="14.71491"><ele>33.8</ele><time>2026-04-09T10:54:38.838Z</time></trkpt><trkpt lat="42.1491633" lon="14.714855"><ele>33.2</ele><time>2026-04-09T10:54:40.838Z</time></trkpt><trkpt lat="42.1492467" lon="14.714795"><ele>32.6</ele><time>2026-04-09T10:54:42.838Z</time></trkpt><trkpt lat="42.1493333" lon="14.7147317"><ele>32.0</ele><time>2026-04-09T10:54:44.838Z</time></trkpt><trkpt lat="42.149425" lon="14.7146733"><ele>32.0</ele><time>2026-04-09T10:54:46.838Z</time></trkpt><trkpt lat="42.1495133" lon="14.714615"><ele>32.0</ele><time>2026-04-09T10:54:48.838Z</time></trkpt><trkpt lat="42.1496133" lon="14.71456"><ele>32.0</ele><time>2026-04-09T10:54:50.838Z</time></trkpt><trkpt lat="42.1497067" lon="14.714515"><ele>32.0</ele><time>2026-04-09T10:54:52.839Z</time></trkpt><trkpt lat="42.1498033" lon="14.7144783"><ele>32.0</ele><time>2026-04-09T10:54:54.839Z</time></trkpt><trkpt lat="42.1499" lon="14.714445"><ele>32.800000000000004</ele><time>2026-04-09T10:54:56.838Z</time></trkpt><trkpt lat="42.14999" lon="14.7144217"><ele>33.6</ele><time>2026-04-09T10:54:58.838Z</time></trkpt><trkpt lat="42.150085" lon="14.7143967"><ele>34.400000000000006</ele><time>2026-04-09T10:55:00.838Z</time></trkpt><trkpt lat="42.1501767" lon="14.7143783"><ele>35.2</ele><time>2026-04-09T10:55:02.839Z</time></trkpt><trkpt lat="42.1502667" lon="14.714365"><ele>36.0</ele><time>2026-04-09T10:55:04.838Z</time></trkpt><trkpt lat="42.1503583" lon="14.7143517"><ele>36.0</ele><time>2026-04-09T10:55:06.838Z</time></trkpt><trkpt lat="42.1504517" lon="14.7143417"><ele>36.0</ele><time>2026-04-09T10:55:08.838Z</time></trkpt><trkpt lat="42.1505417" lon="14.7143317"><ele>36.0</ele><time>2026-04-09T10:55:10.838Z</time></trkpt><trkpt lat="42.1506367" lon="14.71432"><ele>36.0</ele><time>2026-04-09T10:55:12.838Z</time></trkpt><trkpt lat="42.1507233" lon="14.714315"><ele>36.0</ele><time>2026-04-09T10:55:14.838Z</time></trkpt><trkpt lat="42.15081" lon="14.71431"><ele>35.8</ele><time>2026-04-09T10:55:16.838Z</time></trkpt><trkpt lat="42.1508933" lon="14.7143083"><ele>35.6</ele><time>2026-04-09T10:55:18.839Z</time></trkpt><trkpt lat="42.1509833" lon="14.7143017"><ele>35.4</ele><time>2026-04-09T10:55:20.838Z</time></trkpt><trkpt lat="42.15108" lon="14.7142883"><ele>35.2</ele><time>2026-04-09T10:55:22.838Z</time></trkpt><trkpt lat="42.1511733" lon="14.71428"><ele>35.0</ele><time>2026-04-09T10:55:24.838Z</time></trkpt><trkpt lat="42.1512633" lon="14.7142767"><ele>35.0</ele><time>2026-04-09T10:55:26.838Z</time></trkpt><trkpt lat="42.1513467" lon="14.7142783"><ele>35.0</ele><time>2026-04-09T10:55:28.838Z</time></trkpt><trkpt lat="42.1514283" lon="14.7142883"><ele>35.0</ele><time>2026-04-09T10:55:30.838Z</time></trkpt><trkpt lat="42.1515117" lon="14.7142967"><ele>35.0</ele><time>2026-04-09T10:55:32.838Z</time></trkpt><trkpt lat="42.1515883" lon="14.7143117"><ele>35.0</ele><time>2026-04-09T10:55:34.838Z</time></trkpt><trkpt lat="42.151675" lon="14.7143383"><ele>35.0</ele><time>2026-04-09T10:55:36.838Z</time></trkpt><trkpt lat="42.151765" lon="14.7143683"><ele>35.166666666666664</ele><time>2026-04-09T10:55:38.838Z</time></trkpt><trkpt lat="42.1518517" lon="14.7144017"><ele>35.33333333333333</ele><time>2026-04-09T10:55:40.838Z</time></trkpt><trkpt lat="42.1519267" lon="14.7144267"><ele>35.5</ele><time>2026-04-09T10:55:42.838Z</time></trkpt><trkpt lat="42.152005" lon="14.71444"><ele>35.666666666666664</ele><time>2026-04-09T10:55:45.838Z</time></trkpt><trkpt lat="42.15207" lon="14.7143883"><ele>35.833333333333336</ele><time>2026-04-09T10:55:49.838Z</time></trkpt><trkpt lat="42.1520583" lon="14.7143033"><ele>36.0</ele><time>2026-04-09T10:55:51.838Z</time></trkpt><trkpt lat="42.15205" lon="14.71416"><ele>36.0</ele><time>2026-04-09T10:55:53.838Z</time></trkpt><trkpt lat="42.1520467" lon="14.71403"><ele>36.0</ele><time>2026-04-09T10:55:55.838Z</time></trkpt><trkpt lat="42.1520467" lon="14.7139117"><ele>36.0</ele><time>2026-04-09T10:55:57.838Z</time></trkpt><trkpt lat="42.1520517" lon="14.7137983"><ele>36.0</ele><time>2026-04-09T10:55:59.838Z</time></trkpt><trkpt lat="42.152085" lon="14.7136917"><ele>36.0</ele><time>2026-04-09T10:56:01.838Z</time></trkpt><trkpt lat="42.152165" lon="14.713615"><ele>36.0</ele><time>2026-04-09T10:56:03.838Z</time></trkpt><trkpt lat="42.1522783" lon="14.7135767"><ele>36.0</ele><time>2026-04-09T10:56:05.839Z</time></trkpt><trkpt lat="42.1523417" lon="14.7135667"><ele>36.0</ele><time>2026-04-09T10:56:06.839Z</time></trkpt><trkpt lat="42.1524667" lon="14.7135483"><ele>36.0</ele><time>2026-04-09T10:56:08.838Z</time></trkpt><trkpt lat="42.1525317" lon="14.7135383"><ele>36.0</ele><time>2026-04-09T10:56:09.838Z</time></trkpt><trkpt lat="42.1525967" lon="14.7135283"><ele>36.0</ele><time>2026-04-09T10:56:10.838Z</time></trkpt><trkpt lat="42.1526633" lon="14.7135167"><ele>36.0</ele><time>2026-04-09T10:56:11.838Z</time></trkpt><trkpt lat="42.1527917" lon="14.7134967"><ele>36.0</ele><time>2026-04-09T10:56:13.838Z</time></trkpt><trkpt lat="42.15286" lon="14.71349"><ele>36.0</ele><time>2026-04-09T10:56:14.839Z</time></trkpt><trkpt lat="42.1529267" lon="14.7134783"><ele>36.0</ele><time>2026-04-09T10:56:15.838Z</time></trkpt><trkpt lat="42.1529967" lon="14.71347"><ele>36.0</ele><time>2026-04-09T10:56:16.838Z</time></trkpt><trkpt lat="42.153065" lon="14.713465"><ele>36.0</ele><time>2026-04-09T10:56:17.839Z</time></trkpt><trkpt lat="42.1531383" lon="14.7134583"><ele>35.42857142857143</ele><time>2026-04-09T10:56:18.838Z</time></trkpt><trkpt lat="42.15321" lon="14.7134517"><ele>34.85714285714286</ele><time>2026-04-09T10:56:19.838Z</time></trkpt><trkpt lat="42.15328" lon="14.7134417"><ele>34.285714285714285</ele><time>2026-04-09T10:56:20.838Z</time></trkpt><trkpt lat="42.1533533" lon="14.7134367"><ele>33.714285714285715</ele><time>2026-04-09T10:56:21.839Z</time></trkpt><trkpt lat="42.1534267" lon="14.71342"><ele>33.14285714285714</ele><time>2026-04-09T10:56:22.838Z</time></trkpt><trkpt lat="42.1535033" lon="14.7134067"><ele>32.57142857142857</ele><time>2026-04-09T10:56:23.839Z</time></trkpt><trkpt lat="42.1535767" lon="14.7133967"><ele>32.0</ele><time>2026-04-09T10:56:24.838Z</time></trkpt><trkpt lat="42.1536517" lon="14.7133883"><ele>32.0</ele><time>2026-04-09T10:56:25.838Z</time></trkpt><trkpt lat="42.153725" lon="14.7133783"><ele>31.999999999999996</ele><time>2026-04-09T10:56:26.838Z</time></trkpt><trkpt lat="42.1537967" lon="14.7133733"><ele>32.0</ele><time>2026-04-09T10:56:27.838Z</time></trkpt><trkpt lat="42.15387" lon="14.713365"><ele>32.0</ele><time>2026-04-09T10:56:28.838Z</time></trkpt><trkpt lat="42.1539417" lon="14.7133517"><ele>31.999999999999996</ele><time>2026-04-09T10:56:29.838Z</time></trkpt><trkpt lat="42.1540133" lon="14.71334"><ele>32.0</ele><time>2026-04-09T10:56:30.839Z</time></trkpt><trkpt lat="42.15409" lon="14.713325"><ele>32.0</ele><time>2026-04-09T10:56:31.838Z</time></trkpt><trkpt lat="42.1541617" lon="14.7133133"><ele>31.857142857142854</ele><time>2026-04-09T10:56:32.838Z</time></trkpt><trkpt lat="42.1542383" lon="14.7132933"><ele>31.71428571428571</ele><time>2026-04-09T10:56:33.838Z</time></trkpt><trkpt lat="42.1543083" lon="14.71327"><ele>31.57142857142857</ele><time>2026-04-09T10:56:34.839Z</time></trkpt><trkpt lat="42.15438" lon="14.713245"><ele>31.42857142857143</ele><time>2026-04-09T10:56:35.838Z</time></trkpt><trkpt lat="42.15445" lon="14.7132183"><ele>31.28571428571429</ele><time>2026-04-09T10:56:36.838Z</time></trkpt><trkpt lat="42.15452" lon="14.71319"><ele>31.142857142857146</ele><time>2026-04-09T10:56:37.838Z</time></trkpt><trkpt lat="42.1545917" lon="14.7131617"><ele>31.0</ele><time>2026-04-09T10:56:38.838Z</time></trkpt><trkpt lat="42.1546567" lon="14.713135"><ele>31.000000000000004</ele><time>2026-04-09T10:56:39.838Z</time></trkpt><trkpt lat="42.1547233" lon="14.7131033"><ele>31.0</ele><time>2026-04-09T10:56:40.839Z</time></trkpt><trkpt lat="42.1547867" lon="14.713075"><ele>31.0</ele><time>2026-04-09T10:56:41.838Z</time></trkpt><trkpt lat="42.15485" lon="14.7130467"><ele>31.0</ele><time>2026-04-09T10:56:42.838Z</time></trkpt><trkpt lat="42.1549717" lon="14.7130017"><ele>31.000000000000004</ele><time>2026-04-09T10:56:44.838Z</time></trkpt><trkpt lat="42.1550333" lon="14.7129783"><ele>31.0</ele><time>2026-04-09T10:56:45.838Z</time></trkpt><trkpt lat="42.1550933" lon="14.71295"><ele>31.0</ele><time>2026-04-09T10:56:46.838Z</time></trkpt><trkpt lat="42.1552083" lon="14.712905"><ele>31.0</ele><time>2026-04-09T10:56:48.838Z</time></trkpt><trkpt lat="42.1552683" lon="14.7128767"><ele>31.0</ele><time>2026-04-09T10:56:49.838Z</time></trkpt><trkpt lat="42.1553817" lon="14.7128283"><ele>31.0</ele><time>2026-04-09T10:56:51.838Z</time></trkpt><trkpt lat="42.1554933" lon="14.71278"><ele>31.0</ele><time>2026-04-09T10:56:53.838Z</time></trkpt><trkpt lat="42.155605" lon="14.7127367"><ele>31.200000000000003</ele><time>2026-04-09T10:56:55.839Z</time></trkpt><trkpt lat="42.15572" lon="14.71268"><ele>31.400000000000002</ele><time>2026-04-09T10:56:57.838Z</time></trkpt><trkpt lat="42.15578" lon="14.7126533"><ele>31.6</ele><time>2026-04-09T10:56:58.838Z</time></trkpt><trkpt lat="42.1558933" lon="14.7126067"><ele>31.8</ele><time>2026-04-09T10:57:00.839Z</time></trkpt><trkpt lat="42.1560117" lon="14.7125617"><ele>32.0</ele><time>2026-04-09T10:57:02.838Z</time></trkpt><trkpt lat="42.156125" lon="14.7125117"><ele>32.0</ele><time>2026-04-09T10:57:04.838Z</time></trkpt><trkpt lat="42.1562367" lon="14.71246"><ele>32.0</ele><time>2026-04-09T10:57:06.839Z</time></trkpt><trkpt lat="42.15635" lon="14.7124117"><ele>32.0</ele><time>2026-04-09T10:57:08.838Z</time></trkpt><trkpt lat="42.15646" lon="14.7123633"><ele>32.0</ele><time>2026-04-09T10:57:10.838Z</time></trkpt><trkpt lat="42.1565683" lon="14.7123017"><ele>31.75</ele><time>2026-04-09T10:57:12.838Z</time></trkpt><trkpt lat="42.15668" lon="14.7122433"><ele>31.5</ele><time>2026-04-09T10:57:14.838Z</time></trkpt><trkpt lat="42.1567867" lon="14.71217"><ele>31.25</ele><time>2026-04-09T10:57:16.838Z</time></trkpt><trkpt lat="42.1568983" lon="14.7120933"><ele>31.0</ele><time>2026-04-09T10:57:18.838Z</time></trkpt><trkpt lat="42.1570017" lon="14.7120167"><ele>31.0</ele><time>2026-04-09T10:57:20.838Z</time></trkpt><trkpt lat="42.1571017" lon="14.71194"><ele>31.0</ele><time>2026-04-09T10:57:22.838Z</time></trkpt><trkpt lat="42.1572017" lon="14.7118633"><ele>31.0</ele><time>2026-04-09T10:57:24.838Z</time></trkpt><trkpt lat="42.1573017" lon="14.71178"><ele>31.0</ele><time>2026-04-09T10:57:26.838Z</time></trkpt><trkpt lat="42.1574" lon="14.7116917"><ele>31.5</ele><time>2026-04-09T10:57:28.838Z</time></trkpt><trkpt lat="42.1574983" lon="14.7116033"><ele>32.0</ele><time>2026-04-09T10:57:30.838Z</time></trkpt><trkpt lat="42.157595" lon="14.711525"><ele>32.5</ele><time>2026-04-09T10:57:32.838Z</time></trkpt><trkpt lat="42.1576933" lon="14.7114333"><ele>33.0</ele><time>2026-04-09T10:57:34.838Z</time></trkpt><trkpt lat="42.1577933" lon="14.7113417"><ele>33.0</ele><time>2026-04-09T10:57:36.838Z</time></trkpt><trkpt lat="42.157895" lon="14.71124"><ele>33.0</ele><time>2026-04-09T10:57:38.838Z</time></trkpt><trkpt lat="42.15799" lon="14.7111483"><ele>33.0</ele><time>2026-04-09T10:57:40.839Z</time></trkpt><trkpt lat="42.1580917" lon="14.7110517"><ele>33.0</ele><time>2026-04-09T10:57:42.839Z</time></trkpt><trkpt lat="42.158145" lon="14.7110033"><ele>33.0</ele><time>2026-04-09T10:57:43.838Z</time></trkpt><trkpt lat="42.1582417" lon="14.71091"><ele>32.75</ele><time>2026-04-09T10:57:45.838Z</time></trkpt><trkpt lat="42.1583367" lon="14.7108217"><ele>32.5</ele><time>2026-04-09T10:57:47.838Z</time></trkpt><trkpt lat="42.1584367" lon="14.7107333"><ele>32.25</ele><time>2026-04-09T10:57:49.838Z</time></trkpt><trkpt lat="42.1585317" lon="14.7106433"><ele>32.0</ele><time>2026-04-09T10:57:51.839Z</time></trkpt><trkpt lat="42.1586283" lon="14.710555"><ele>32.0</ele><time>2026-04-09T10:57:53.838Z</time></trkpt><trkpt lat="42.15873" lon="14.7104667"><ele>32.0</ele><time>2026-04-09T10:57:55.839Z</time></trkpt><trkpt lat="42.1588267" lon="14.7103767"><ele>32.0</ele><time>2026-04-09T10:57:57.839Z</time></trkpt><trkpt lat="42.1589217" lon="14.710285"><ele>32.0</ele><time>2026-04-09T10:57:59.838Z</time></trkpt><trkpt lat="42.159025" lon="14.7101867"><ele>32.0</ele><time>2026-04-09T10:58:01.839Z</time></trkpt><trkpt lat="42.1591233" lon="14.710095"><ele>32.0</ele><time>2026-04-09T10:58:03.838Z</time></trkpt><trkpt lat="42.15922" lon="14.7100117"><ele>32.0</ele><time>2026-04-09T10:58:05.838Z</time></trkpt><trkpt lat="42.1593217" lon="14.70992"><ele>32.0</ele><time>2026-04-09T10:58:07.838Z</time></trkpt><trkpt lat="42.15942" lon="14.7098217"><ele>32.0</ele><time>2026-04-09T10:58:09.838Z</time></trkpt><trkpt lat="42.1595167" lon="14.7097333"><ele>32.0</ele><time>2026-04-09T10:58:11.839Z</time></trkpt><trkpt lat="42.1596167" lon="14.7096383"><ele>32.0</ele><time>2026-04-09T10:58:13.838Z</time></trkpt><trkpt lat="42.15972" lon="14.7095467"><ele>32.0</ele><time>2026-04-09T10:58:15.839Z</time></trkpt><trkpt lat="42.159825" lon="14.7094517"><ele>32.0</ele><time>2026-04-09T10:58:17.838Z</time></trkpt><trkpt lat="42.1599283" lon="14.7093567"><ele>32.0</ele><time>2026-04-09T10:58:19.838Z</time></trkpt><trkpt lat="42.1600267" lon="14.7092633"><ele>32.0</ele><time>2026-04-09T10:58:21.838Z</time></trkpt><trkpt lat="42.1601267" lon="14.709175"><ele>32.0</ele><time>2026-04-09T10:58:23.838Z</time></trkpt><trkpt lat="42.1602267" lon="14.7090783"><ele>32.0</ele><time>2026-04-09T10:58:25.838Z</time></trkpt><trkpt lat="42.1603267" lon="14.7089817"><ele>32.0</ele><time>2026-04-09T10:58:27.838Z</time></trkpt><trkpt lat="42.1604317" lon="14.7088883"><ele>32.0</ele><time>2026-04-09T10:58:29.838Z</time></trkpt><trkpt lat="42.1605283" lon="14.7088"><ele>32.0</ele><time>2026-04-09T10:58:31.838Z</time></trkpt><trkpt lat="42.1606267" lon="14.708705"><ele>32.0</ele><time>2026-04-09T10:58:33.838Z</time></trkpt><trkpt lat="42.160725" lon="14.708605"><ele>32.0</ele><time>2026-04-09T10:58:35.839Z</time></trkpt><trkpt lat="42.1608183" lon="14.7085233"><ele>32.0</ele><time>2026-04-09T10:58:37.838Z</time></trkpt><trkpt lat="42.1609167" lon="14.70843"><ele>32.0</ele><time>2026-04-09T10:58:39.838Z</time></trkpt><trkpt lat="42.161015" lon="14.7083433"><ele>32.0</ele><time>2026-04-09T10:58:41.838Z</time></trkpt><trkpt lat="42.1611133" lon="14.7082567"><ele>32.0</ele><time>2026-04-09T10:58:43.838Z</time></trkpt><trkpt lat="42.1612017" lon="14.7081667"><ele>32.0</ele><time>2026-04-09T10:58:45.838Z</time></trkpt><trkpt lat="42.1613017" lon="14.7080633"><ele>32.0</ele><time>2026-04-09T10:58:47.839Z</time></trkpt><trkpt lat="42.16135" lon="14.7080083"><ele>32.0</ele><time>2026-04-09T10:58:48.838Z</time></trkpt><trkpt lat="42.1614467" lon="14.7079033"><ele>31.8</ele><time>2026-04-09T10:58:50.838Z</time></trkpt><trkpt lat="42.161535" lon="14.7077967"><ele>31.6</ele><time>2026-04-09T10:58:52.838Z</time></trkpt><trkpt lat="42.1615833" lon="14.7077367"><ele>31.400000000000002</ele><time>2026-04-09T10:58:53.838Z</time></trkpt><trkpt lat="42.1616733" lon="14.7076267"><ele>31.200000000000003</ele><time>2026-04-09T10:58:55.838Z</time></trkpt><trkpt lat="42.16172" lon="14.7075667"><ele>31.0</ele><time>2026-04-09T10:58:56.838Z</time></trkpt><trkpt lat="42.1618083" lon="14.7074467"><ele>30.6</ele><time>2026-04-09T10:58:58.838Z</time></trkpt><trkpt lat="42.1619" lon="14.7073367"><ele>30.200000000000003</ele><time>2026-04-09T10:59:00.838Z</time></trkpt><trkpt lat="42.1619467" lon="14.7072783"><ele>29.799999999999997</ele><time>2026-04-09T10:59:01.838Z</time></trkpt><trkpt lat="42.16203" lon="14.7071667"><ele>29.4</ele><time>2026-04-09T10:59:03.838Z</time></trkpt><trkpt lat="42.1621183" lon="14.70705"><ele>29.0</ele><time>2026-04-09T10:59:05.838Z</time></trkpt><trkpt lat="42.162205" lon="14.7069333"><ele>29.5</ele><time>2026-04-09T10:59:07.838Z</time></trkpt><trkpt lat="42.1622933" lon="14.7068283"><ele>30.0</ele><time>2026-04-09T10:59:09.838Z</time></trkpt><trkpt lat="42.1623767" lon="14.7067183"><ele>30.5</ele><time>2026-04-09T10:59:11.838Z</time></trkpt><trkpt lat="42.1624633" lon="14.7066083"><ele>31.0</ele><time>2026-04-09T10:59:13.838Z</time></trkpt><trkpt lat="42.1625467" lon="14.7065"><ele>31.0</ele><time>2026-04-09T10:59:15.838Z</time></trkpt><trkpt lat="42.16262" lon="14.706395"><ele>31.0</ele><time>2026-04-09T10:59:17.838Z</time></trkpt><trkpt lat="42.1626933" lon="14.7062917"><ele>31.0</ele><time>2026-04-09T10:59:19.838Z</time></trkpt><trkpt lat="42.1627633" lon="14.70619"><ele>31.0</ele><time>2026-04-09T10:59:21.838Z</time></trkpt><trkpt lat="42.1628383" lon="14.7060767"><ele>31.0</ele><time>2026-04-09T10:59:23.838Z</time></trkpt><trkpt lat="42.1629117" lon="14.7059683"><ele>31.25</ele><time>2026-04-09T10:59:25.838Z</time></trkpt><trkpt lat="42.1629883" lon="14.7058633"><ele>31.5</ele><time>2026-04-09T10:59:27.838Z</time></trkpt><trkpt lat="42.1630683" lon="14.7057483"><ele>31.75</ele><time>2026-04-09T10:59:29.838Z</time></trkpt><trkpt lat="42.1631583" lon="14.7056383"><ele>32.0</ele><time>2026-04-09T10:59:31.838Z</time></trkpt><trkpt lat="42.16325" lon="14.7055367"><ele>32.0</ele><time>2026-04-09T10:59:33.837Z</time></trkpt><trkpt lat="42.163345" lon="14.7054383"><ele>32.0</ele><time>2026-04-09T10:59:35.837Z</time></trkpt><trkpt lat="42.163435" lon="14.7053383"><ele>32.0</ele><time>2026-04-09T10:59:37.837Z</time></trkpt><trkpt lat="42.1635217" lon="14.70524"><ele>32.0</ele><time>2026-04-09T10:59:39.837Z</time></trkpt><trkpt lat="42.1636117" lon="14.70513"><ele>32.25</ele><time>2026-04-09T10:59:41.837Z</time></trkpt><trkpt lat="42.1636967" lon="14.7050217"><ele>32.5</ele><time>2026-04-09T10:59:43.837Z</time></trkpt><trkpt lat="42.163775" lon="14.704915"><ele>32.75</ele><time>2026-04-09T10:59:45.837Z</time></trkpt><trkpt lat="42.1638567" lon="14.7048083"><ele>33.0</ele><time>2026-04-09T10:59:47.837Z</time></trkpt><trkpt lat="42.1639367" lon="14.7047033"><ele>33.0</ele><time>2026-04-09T10:59:49.837Z</time></trkpt><trkpt lat="42.1640217" lon="14.7045983"><ele>33.0</ele><time>2026-04-09T10:59:51.837Z</time></trkpt><trkpt lat="42.1641117" lon="14.70449"><ele>33.0</ele><time>2026-04-09T10:59:53.837Z</time></trkpt><trkpt lat="42.1641583" lon="14.7044317"><ele>33.0</ele><time>2026-04-09T10:59:54.837Z</time></trkpt><trkpt lat="42.1642417" lon="14.704315"><ele>33.0</ele><time>2026-04-09T10:59:56.837Z</time></trkpt><trkpt lat="42.1643333" lon="14.7042067"><ele>33.0</ele><time>2026-04-09T10:59:58.837Z</time></trkpt><trkpt lat="42.1644217" lon="14.7040983"><ele>33.0</ele><time>2026-04-09T11:00:00.838Z</time></trkpt><trkpt lat="42.1645117" lon="14.7039883"><ele>33.0</ele><time>2026-04-09T11:00:02.838Z</time></trkpt><trkpt lat="42.1646033" lon="14.7038717"><ele>33.0</ele><time>2026-04-09T11:00:04.837Z</time></trkpt><trkpt lat="42.1646917" lon="14.7037533"><ele>33.0</ele><time>2026-04-09T11:00:06.837Z</time></trkpt><trkpt lat="42.1647367" lon="14.7036933"><ele>33.0</ele><time>2026-04-09T11:00:07.837Z</time></trkpt><trkpt lat="42.1647833" lon="14.703635"><ele>33.0</ele><time>2026-04-09T11:00:08.837Z</time></trkpt><trkpt lat="42.1648717" lon="14.703515"><ele>33.0</ele><time>2026-04-09T11:00:10.837Z</time></trkpt><trkpt lat="42.1649167" lon="14.7034533"><ele>33.0</ele><time>2026-04-09T11:00:11.837Z</time></trkpt><trkpt lat="42.1650033" lon="14.703335"><ele>33.0</ele><time>2026-04-09T11:00:13.837Z</time></trkpt><trkpt lat="42.1650483" lon="14.7032717"><ele>32.857142857142854</ele><time>2026-04-09T11:00:14.837Z</time></trkpt><trkpt lat="42.165095" lon="14.7032117"><ele>32.714285714285715</ele><time>2026-04-09T11:00:15.837Z</time></trkpt><trkpt lat="42.1651417" lon="14.703145"><ele>32.57142857142857</ele><time>2026-04-09T11:00:16.837Z</time></trkpt><trkpt lat="42.1651867" lon="14.703075"><ele>32.42857142857143</ele><time>2026-04-09T11:00:17.838Z</time></trkpt><trkpt lat="42.16523" lon="14.7030017"><ele>32.285714285714285</ele><time>2026-04-09T11:00:18.837Z</time></trkpt><trkpt lat="42.1652733" lon="14.7029267"><ele>32.14285714285714</ele><time>2026-04-09T11:00:19.837Z</time></trkpt><trkpt lat="42.1653183" lon="14.7028483"><ele>32.0</ele><time>2026-04-09T11:00:20.837Z</time></trkpt><trkpt lat="42.16536" lon="14.70277"><ele>32.42857142857143</ele><time>2026-04-09T11:00:21.838Z</time></trkpt><trkpt lat="42.165405" lon="14.702685"><ele>32.857142857142854</ele><time>2026-04-09T11:00:22.837Z</time></trkpt><trkpt lat="42.1654467" lon="14.7026033"><ele>33.285714285714285</ele><time>2026-04-09T11:00:23.837Z</time></trkpt><trkpt lat="42.1654833" lon="14.7025217"><ele>33.714285714285715</ele><time>2026-04-09T11:00:24.837Z</time></trkpt><trkpt lat="42.165525" lon="14.7024417"><ele>34.14285714285714</ele><time>2026-04-09T11:00:25.837Z</time></trkpt><trkpt lat="42.165565" lon="14.7023667"><ele>34.57142857142857</ele><time>2026-04-09T11:00:26.837Z</time></trkpt><trkpt lat="42.1656117" lon="14.7022933"><ele>35.0</ele><time>2026-04-09T11:00:27.837Z</time></trkpt><trkpt lat="42.16566" lon="14.70222"><ele>34.142857142857146</ele><time>2026-04-09T11:00:28.837Z</time></trkpt><trkpt lat="42.1657083" lon="14.7021417"><ele>33.285714285714285</ele><time>2026-04-09T11:00:29.837Z</time></trkpt><trkpt lat="42.1657567" lon="14.7020617"><ele>32.42857142857143</ele><time>2026-04-09T11:00:30.838Z</time></trkpt><trkpt lat="42.1657983" lon="14.7019817"><ele>31.571428571428573</ele><time>2026-04-09T11:00:31.838Z</time></trkpt><trkpt lat="42.16584" lon="14.7019"><ele>30.714285714285715</ele><time>2026-04-09T11:00:32.838Z</time></trkpt><trkpt lat="42.165885" lon="14.7018183"><ele>29.85714285714286</ele><time>2026-04-09T11:00:33.837Z</time></trkpt><trkpt lat="42.1659283" lon="14.7017383"><ele>29.000000000000004</ele><time>2026-04-09T11:00:34.837Z</time></trkpt><trkpt lat="42.1659717" lon="14.7016567"><ele>28.71428571428572</ele><time>2026-04-09T11:00:35.837Z</time></trkpt><trkpt lat="42.1660133" lon="14.7015767"><ele>28.42857142857143</ele><time>2026-04-09T11:00:36.837Z</time></trkpt><trkpt lat="42.1660567" lon="14.7014967"><ele>28.142857142857146</ele><time>2026-04-09T11:00:37.837Z</time></trkpt><trkpt lat="42.1661" lon="14.70142"><ele>27.85714285714286</ele><time>2026-04-09T11:00:38.837Z</time></trkpt><trkpt lat="42.1661433" lon="14.7013483"><ele>27.57142857142857</ele><time>2026-04-09T11:00:39.837Z</time></trkpt><trkpt lat="42.1661867" lon="14.701275"><ele>27.285714285714285</ele><time>2026-04-09T11:00:40.837Z</time></trkpt><trkpt lat="42.1662283" lon="14.7012017"><ele>27.0</ele><time>2026-04-09T11:00:41.837Z</time></trkpt><trkpt lat="42.1662683" lon="14.7011317"><ele>26.285714285714285</ele><time>2026-04-09T11:00:42.837Z</time></trkpt><trkpt lat="42.1663083" lon="14.70106"><ele>25.57142857142857</ele><time>2026-04-09T11:00:43.837Z</time></trkpt><trkpt lat="42.16635" lon="14.7009833"><ele>24.857142857142858</ele><time>2026-04-09T11:00:44.837Z</time></trkpt><trkpt lat="42.1663917" lon="14.7009033"><ele>24.142857142857142</ele><time>2026-04-09T11:00:45.837Z</time></trkpt><trkpt lat="42.1664317" lon="14.7008283"><ele>23.428571428571427</ele><time>2026-04-09T11:00:46.837Z</time></trkpt><trkpt lat="42.1664733" lon="14.7007517"><ele>22.714285714285715</ele><time>2026-04-09T11:00:47.837Z</time></trkpt><trkpt lat="42.166515" lon="14.7006767"><ele>22.0</ele><time>2026-04-09T11:00:48.837Z</time></trkpt><trkpt lat="42.1665883" lon="14.7005483"><ele>22.0</ele><time>2026-04-09T11:00:50.838Z</time></trkpt><trkpt lat="42.166665" lon="14.7004167"><ele>22.0</ele><time>2026-04-09T11:00:52.837Z</time></trkpt><trkpt lat="42.16673" lon="14.7003067"><ele>22.0</ele><time>2026-04-09T11:00:54.837Z</time></trkpt><trkpt lat="42.166795" lon="14.7001917"><ele>22.0</ele><time>2026-04-09T11:00:56.837Z</time></trkpt><trkpt lat="42.1668583" lon="14.7000683"><ele>22.0</ele><time>2026-04-09T11:00:58.837Z</time></trkpt><trkpt lat="42.16692" lon="14.69994"><ele>22.0</ele><time>2026-04-09T11:01:00.837Z</time></trkpt><trkpt lat="42.16698" lon="14.6998183"><ele>22.0</ele><time>2026-04-09T11:01:02.838Z</time></trkpt><trkpt lat="42.1670467" lon="14.6996867"><ele>22.0</ele><time>2026-04-09T11:01:04.837Z</time></trkpt><trkpt lat="42.1671017" lon="14.699555"><ele>22.0</ele><time>2026-04-09T11:01:06.837Z</time></trkpt><trkpt lat="42.16716" lon="14.6994083"><ele>21.8</ele><time>2026-04-09T11:01:08.837Z</time></trkpt><trkpt lat="42.1672183" lon="14.69927"><ele>21.6</ele><time>2026-04-09T11:01:10.837Z</time></trkpt><trkpt lat="42.1672667" lon="14.6991367"><ele>21.400000000000002</ele><time>2026-04-09T11:01:12.837Z</time></trkpt><trkpt lat="42.1673167" lon="14.6990067"><ele>21.200000000000003</ele><time>2026-04-09T11:01:14.837Z</time></trkpt><trkpt lat="42.1673683" lon="14.69888"><ele>21.0</ele><time>2026-04-09T11:01:16.838Z</time></trkpt><trkpt lat="42.1674183" lon="14.6987483"><ele>22.8</ele><time>2026-04-09T11:01:18.837Z</time></trkpt><trkpt lat="42.1674617" lon="14.698615"><ele>24.6</ele><time>2026-04-09T11:01:20.838Z</time></trkpt><trkpt lat="42.1675017" lon="14.6984833"><ele>26.4</ele><time>2026-04-09T11:01:22.837Z</time></trkpt><trkpt lat="42.1675433" lon="14.69836"><ele>28.2</ele><time>2026-04-09T11:01:24.837Z</time></trkpt><trkpt lat="42.1675783" lon="14.69824"><ele>30.0</ele><time>2026-04-09T11:01:26.838Z</time></trkpt><trkpt lat="42.1676133" lon="14.6981133"><ele>30.4</ele><time>2026-04-09T11:01:28.837Z</time></trkpt><trkpt lat="42.1676533" lon="14.69799"><ele>30.8</ele><time>2026-04-09T11:01:30.837Z</time></trkpt><trkpt lat="42.167695" lon="14.6978667"><ele>31.200000000000003</ele><time>2026-04-09T11:01:32.837Z</time></trkpt><trkpt lat="42.1677333" lon="14.69774"><ele>31.6</ele><time>2026-04-09T11:01:34.838Z</time></trkpt><trkpt lat="42.16777" lon="14.6976217"><ele>32.0</ele><time>2026-04-09T11:01:36.837Z</time></trkpt><trkpt lat="42.1677983" lon="14.6975067"><ele>32.6</ele><time>2026-04-09T11:01:38.837Z</time></trkpt><trkpt lat="42.16784" lon="14.6973917"><ele>33.2</ele><time>2026-04-09T11:01:40.837Z</time></trkpt><trkpt lat="42.1678783" lon="14.6972783"><ele>33.8</ele><time>2026-04-09T11:01:42.837Z</time></trkpt><trkpt lat="42.1679183" lon="14.6971533"><ele>34.4</ele><time>2026-04-09T11:01:44.837Z</time></trkpt><trkpt lat="42.1679617" lon="14.697035"><ele>35.0</ele><time>2026-04-09T11:01:46.837Z</time></trkpt><trkpt lat="42.1679917" lon="14.6969133"><ele>35.4</ele><time>2026-04-09T11:01:48.837Z</time></trkpt><trkpt lat="42.16803" lon="14.6967867"><ele>35.8</ele><time>2026-04-09T11:01:50.837Z</time></trkpt><trkpt lat="42.168065" lon="14.6966567"><ele>36.2</ele><time>2026-04-09T11:01:52.837Z</time></trkpt><trkpt lat="42.168095" lon="14.6965167"><ele>36.6</ele><time>2026-04-09T11:01:54.837Z</time></trkpt><trkpt lat="42.1681133" lon="14.69637"><ele>37.0</ele><time>2026-04-09T11:01:56.837Z</time></trkpt><trkpt lat="42.1681167" lon="14.696235"><ele>37.0</ele><time>2026-04-09T11:01:58.837Z</time></trkpt><trkpt lat="42.16811" lon="14.6961017"><ele>37.0</ele><time>2026-04-09T11:02:00.837Z</time></trkpt><trkpt lat="42.1681083" lon="14.69597"><ele>37.0</ele><time>2026-04-09T11:02:02.837Z</time></trkpt><trkpt lat="42.1681033" lon="14.6958383"><ele>37.0</ele><time>2026-04-09T11:02:04.837Z</time></trkpt><trkpt lat="42.168095" lon="14.695695"><ele>37.0</ele><time>2026-04-09T11:02:06.837Z</time></trkpt><trkpt lat="42.1680783" lon="14.695565"><ele>37.2</ele><time>2026-04-09T11:02:08.837Z</time></trkpt><trkpt lat="42.1680683" lon="14.6954167"><ele>37.400000000000006</ele><time>2026-04-09T11:02:10.838Z</time></trkpt><trkpt lat="42.1680717" lon="14.6952783"><ele>37.599999999999994</ele><time>2026-04-09T11:02:12.837Z</time></trkpt><trkpt lat="42.1680983" lon="14.69515"><ele>37.8</ele><time>2026-04-09T11:02:14.837Z</time></trkpt><trkpt lat="42.1681217" lon="14.69501"><ele>38.0</ele><time>2026-04-09T11:02:16.837Z</time></trkpt><trkpt lat="42.1680967" lon="14.694865"><ele>38.199999999999996</ele><time>2026-04-09T11:02:18.838Z</time></trkpt><trkpt lat="42.1680217" lon="14.6947617"><ele>38.4</ele><time>2026-04-09T11:02:20.837Z</time></trkpt><trkpt lat="42.16792" lon="14.69468"><ele>38.599999999999994</ele><time>2026-04-09T11:02:22.837Z</time></trkpt><trkpt lat="42.167835" lon="14.6945683"><ele>38.8</ele><time>2026-04-09T11:02:24.838Z</time></trkpt><trkpt lat="42.1677967" lon="14.6945"><ele>39.0</ele><time>2026-04-09T11:02:25.838Z</time></trkpt><trkpt lat="42.1677233" lon="14.6943683"><ele>39.5</ele><time>2026-04-09T11:02:27.837Z</time></trkpt><trkpt lat="42.1676683" lon="14.69423"><ele>40.0</ele><time>2026-04-09T11:02:29.837Z</time></trkpt><trkpt lat="42.1676183" lon="14.6940867"><ele>40.5</ele><time>2026-04-09T11:02:31.837Z</time></trkpt><trkpt lat="42.16757" lon="14.6939433"><ele>41.0</ele><time>2026-04-09T11:02:33.837Z</time></trkpt><trkpt lat="42.1675283" lon="14.6937933"><ele>41.0</ele><time>2026-04-09T11:02:35.837Z</time></trkpt><trkpt lat="42.1674883" lon="14.693655"><ele>41.0</ele><time>2026-04-09T11:02:37.838Z</time></trkpt><trkpt lat="42.1674517" lon="14.6935133"><ele>41.0</ele><time>2026-04-09T11:02:39.837Z</time></trkpt><trkpt lat="42.167415" lon="14.6933633"><ele>41.0</ele><time>2026-04-09T11:02:41.837Z</time></trkpt><trkpt lat="42.167375" lon="14.6932167"><ele>40.75</ele><time>2026-04-09T11:02:43.838Z</time></trkpt><trkpt lat="42.167345" lon="14.6930617"><ele>40.5</ele><time>2026-04-09T11:02:45.837Z</time></trkpt><trkpt lat="42.1673083" lon="14.6929167"><ele>40.25</ele><time>2026-04-09T11:02:47.837Z</time></trkpt><trkpt lat="42.1672667" lon="14.6927733"><ele>40.0</ele><time>2026-04-09T11:02:49.837Z</time></trkpt><trkpt lat="42.1672233" lon="14.6926283"><ele>40.5</ele><time>2026-04-09T11:02:51.837Z</time></trkpt><trkpt lat="42.1671817" lon="14.6924833"><ele>41.0</ele><time>2026-04-09T11:02:53.837Z</time></trkpt><trkpt lat="42.16714" lon="14.6923317"><ele>41.5</ele><time>2026-04-09T11:02:55.837Z</time></trkpt><trkpt lat="42.1671" lon="14.6921783"><ele>42.0</ele><time>2026-04-09T11:02:57.837Z</time></trkpt><trkpt lat="42.1670667" lon="14.6920233"><ele>42.0</ele><time>2026-04-09T11:02:59.837Z</time></trkpt><trkpt lat="42.1670367" lon="14.69187"><ele>42.0</ele><time>2026-04-09T11:03:01.837Z</time></trkpt><trkpt lat="42.1670133" lon="14.69172"><ele>42.0</ele><time>2026-04-09T11:03:03.838Z</time></trkpt><trkpt lat="42.1669917" lon="14.6915633"><ele>42.0</ele><time>2026-04-09T11:03:05.837Z</time></trkpt><trkpt lat="42.1669767" lon="14.6914033"><ele>42.0</ele><time>2026-04-09T11:03:07.837Z</time></trkpt><trkpt lat="42.16696" lon="14.691245"><ele>42.0</ele><time>2026-04-09T11:03:09.837Z</time></trkpt><trkpt lat="42.166945" lon="14.6910833"><ele>42.0</ele><time>2026-04-09T11:03:11.837Z</time></trkpt><trkpt lat="42.1669317" lon="14.6909333"><ele>42.0</ele><time>2026-04-09T11:03:13.837Z</time></trkpt><trkpt lat="42.1669183" lon="14.6907767"><ele>42.5</ele><time>2026-04-09T11:03:15.837Z</time></trkpt><trkpt lat="42.1669" lon="14.69062"><ele>43.0</ele><time>2026-04-09T11:03:17.837Z</time></trkpt><trkpt lat="42.1668917" lon="14.6904617"><ele>43.5</ele><time>2026-04-09T11:03:19.838Z</time></trkpt><trkpt lat="42.1668717" lon="14.6902983"><ele>44.0</ele><time>2026-04-09T11:03:21.837Z</time></trkpt><trkpt lat="42.16686" lon="14.6901433"><ele>44.25</ele><time>2026-04-09T11:03:23.838Z</time></trkpt><trkpt lat="42.1668433" lon="14.6900017"><ele>44.5</ele><time>2026-04-09T11:03:25.837Z</time></trkpt><trkpt lat="42.1668267" lon="14.689845"><ele>44.75</ele><time>2026-04-09T11:03:27.837Z</time></trkpt><trkpt lat="42.166815" lon="14.6896817"><ele>45.0</ele><time>2026-04-09T11:03:29.837Z</time></trkpt><trkpt lat="42.1668033" lon="14.689525"><ele>45.0</ele><time>2026-04-09T11:03:31.837Z</time></trkpt><trkpt lat="42.1667867" lon="14.68937"><ele>45.0</ele><time>2026-04-09T11:03:33.837Z</time></trkpt><trkpt lat="42.16677" lon="14.689215"><ele>45.0</ele><time>2026-04-09T11:03:35.837Z</time></trkpt><trkpt lat="42.1667533" lon="14.6890567"><ele>45.0</ele><time>2026-04-09T11:03:37.837Z</time></trkpt><trkpt lat="42.16674" lon="14.6888967"><ele>45.0</ele><time>2026-04-09T11:03:39.837Z</time></trkpt><trkpt lat="42.1667233" lon="14.6887517"><ele>45.0</ele><time>2026-04-09T11:03:41.838Z</time></trkpt><trkpt lat="42.166715" lon="14.6886183"><ele>45.0</ele><time>2026-04-09T11:03:43.837Z</time></trkpt><trkpt lat="42.1667033" lon="14.6884783"><ele>45.0</ele><time>2026-04-09T11:03:45.837Z</time></trkpt><trkpt lat="42.16669" lon="14.6883267"><ele>45.0</ele><time>2026-04-09T11:03:47.837Z</time></trkpt><trkpt lat="42.1666817" lon="14.6881733"><ele>45.25</ele><time>2026-04-09T11:03:49.837Z</time></trkpt><trkpt lat="42.1666783" lon="14.6880217"><ele>45.5</ele><time>2026-04-09T11:03:51.837Z</time></trkpt><trkpt lat="42.1666683" lon="14.6878567"><ele>45.75</ele><time>2026-04-09T11:03:53.838Z</time></trkpt><trkpt lat="42.16666" lon="14.6877067"><ele>46.0</ele><time>2026-04-09T11:03:55.837Z</time></trkpt><trkpt lat="42.1666617" lon="14.6875567"><ele>46.0</ele><time>2026-04-09T11:03:57.837Z</time></trkpt><trkpt lat="42.1666633" lon="14.6874"><ele>46.0</ele><time>2026-04-09T11:03:59.837Z</time></trkpt><trkpt lat="42.166665" lon="14.68725"><ele>46.0</ele><time>2026-04-09T11:04:01.837Z</time></trkpt><trkpt lat="42.16666" lon="14.68709"><ele>46.0</ele><time>2026-04-09T11:04:03.837Z</time></trkpt><trkpt lat="42.1666583" lon="14.6869367"><ele>46.199999999999996</ele><time>2026-04-09T11:04:05.837Z</time></trkpt><trkpt lat="42.1666533" lon="14.68679"><ele>46.4</ele><time>2026-04-09T11:04:07.837Z</time></trkpt><trkpt lat="42.1666467" lon="14.6866367"><ele>46.6</ele><time>2026-04-09T11:04:09.837Z</time></trkpt><trkpt lat="42.1666483" lon="14.6864817"><ele>46.8</ele><time>2026-04-09T11:04:11.837Z</time></trkpt><trkpt lat="42.1666433" lon="14.6863317"><ele>47.0</ele><time>2026-04-09T11:04:13.837Z</time></trkpt><trkpt lat="42.1666467" lon="14.686175"><ele>47.2</ele><time>2026-04-09T11:04:15.838Z</time></trkpt><trkpt lat="42.1666467" lon="14.68609"><ele>47.400000000000006</ele><time>2026-04-09T11:04:16.837Z</time></trkpt><trkpt lat="42.1666467" lon="14.685925"><ele>47.599999999999994</ele><time>2026-04-09T11:04:18.837Z</time></trkpt><trkpt lat="42.16664" lon="14.6857633"><ele>47.8</ele><time>2026-04-09T11:04:20.837Z</time></trkpt><trkpt lat="42.16664" lon="14.6856033"><ele>48.0</ele><time>2026-04-09T11:04:22.837Z</time></trkpt><trkpt lat="42.16664" lon="14.6854433"><ele>48.0</ele><time>2026-04-09T11:04:24.837Z</time></trkpt><trkpt lat="42.1666283" lon="14.6852967"><ele>48.0</ele><time>2026-04-09T11:04:26.837Z</time></trkpt><trkpt lat="42.1666267" lon="14.68515"><ele>48.0</ele><time>2026-04-09T11:04:28.838Z</time></trkpt><trkpt lat="42.1666083" lon="14.685"><ele>48.0</ele><time>2026-04-09T11:04:30.837Z</time></trkpt><trkpt lat="42.1665833" lon="14.6848467"><ele>48.0</ele><time>2026-04-09T11:04:32.837Z</time></trkpt><trkpt lat="42.1665517" lon="14.6846917"><ele>48.5</ele><time>2026-04-09T11:04:34.837Z</time></trkpt><trkpt lat="42.1665167" lon="14.68455"><ele>49.0</ele><time>2026-04-09T11:04:36.838Z</time></trkpt><trkpt lat="42.166475" lon="14.6844067"><ele>49.5</ele><time>2026-04-09T11:04:38.837Z</time></trkpt><trkpt lat="42.1664383" lon="14.6842633"><ele>50.0</ele><time>2026-04-09T11:04:40.837Z</time></trkpt><trkpt lat="42.166395" lon="14.6841167"><ele>50.0</ele><time>2026-04-09T11:04:42.837Z</time></trkpt><trkpt lat="42.1663583" lon="14.683975"><ele>50.0</ele><time>2026-04-09T11:04:44.837Z</time></trkpt><trkpt lat="42.16633" lon="14.6838283"><ele>50.0</ele><time>2026-04-09T11:04:46.837Z</time></trkpt><trkpt lat="42.1662883" lon="14.6836867"><ele>50.0</ele><time>2026-04-09T11:04:48.837Z</time></trkpt><trkpt lat="42.1662533" lon="14.68356"><ele>50.0</ele><time>2026-04-09T11:04:50.837Z</time></trkpt><trkpt lat="42.1662217" lon="14.6834533"><ele>49.833333333333336</ele><time>2026-04-09T11:04:52.837Z</time></trkpt><trkpt lat="42.1661983" lon="14.6833683"><ele>49.66666666666667</ele><time>2026-04-09T11:04:54.837Z</time></trkpt><trkpt lat="42.1661767" lon="14.6832867"><ele>49.5</ele><time>2026-04-09T11:04:56.837Z</time></trkpt><trkpt lat="42.1661467" lon="14.6831883"><ele>49.33333333333333</ele><time>2026-04-09T11:04:58.837Z</time></trkpt><trkpt lat="42.1661183" lon="14.6830717"><ele>49.166666666666664</ele><time>2026-04-09T11:05:00.838Z</time></trkpt><trkpt lat="42.16611" lon="14.68294"><ele>49.0</ele><time>2026-04-09T11:05:02.837Z</time></trkpt><trkpt lat="42.1661167" lon="14.68281"><ele>49.400000000000006</ele><time>2026-04-09T11:05:04.837Z</time></trkpt><trkpt lat="42.166135" lon="14.6826733"><ele>49.8</ele><time>2026-04-09T11:05:06.837Z</time></trkpt><trkpt lat="42.16615" lon="14.6825183"><ele>50.2</ele><time>2026-04-09T11:05:08.837Z</time></trkpt><trkpt lat="42.1661417" lon="14.6823667"><ele>50.599999999999994</ele><time>2026-04-09T11:05:10.837Z</time></trkpt><trkpt lat="42.1661033" lon="14.6822283"><ele>51.0</ele><time>2026-04-09T11:05:12.837Z</time></trkpt><trkpt lat="42.1660383" lon="14.6821183"><ele>51.0</ele><time>2026-04-09T11:05:14.837Z</time></trkpt><trkpt lat="42.1659517" lon="14.6820217"><ele>51.0</ele><time>2026-04-09T11:05:16.837Z</time></trkpt><trkpt lat="42.1658633" lon="14.6819283"><ele>51.0</ele><time>2026-04-09T11:05:18.838Z</time></trkpt><trkpt lat="42.1657767" lon="14.681805"><ele>51.0</ele><time>2026-04-09T11:05:20.837Z</time></trkpt><trkpt lat="42.16573" lon="14.6816633"><ele>51.25</ele><time>2026-04-09T11:05:22.837Z</time></trkpt><trkpt lat="42.16571" lon="14.6815117"><ele>51.5</ele><time>2026-04-09T11:05:24.837Z</time></trkpt><trkpt lat="42.1657017" lon="14.6813567"><ele>51.75</ele><time>2026-04-09T11:05:26.837Z</time></trkpt><trkpt lat="42.16569" lon="14.6812067"><ele>52.0</ele><time>2026-04-09T11:05:28.837Z</time></trkpt><trkpt lat="42.1656783" lon="14.6810567"><ele>52.75</ele><time>2026-04-09T11:05:30.838Z</time></trkpt><trkpt lat="42.1656683" lon="14.6809033"><ele>53.5</ele><time>2026-04-09T11:05:32.837Z</time></trkpt><trkpt lat="42.165655" lon="14.6807517"><ele>54.25</ele><time>2026-04-09T11:05:34.838Z</time></trkpt><trkpt lat="42.165645" lon="14.6806017"><ele>55.0</ele><time>2026-04-09T11:05:36.837Z</time></trkpt><trkpt lat="42.1656383" lon="14.6804417"><ele>55.0</ele><time>2026-04-09T11:05:38.837Z</time></trkpt><trkpt lat="42.1656317" lon="14.6802833"><ele>55.0</ele><time>2026-04-09T11:05:40.837Z</time></trkpt><trkpt lat="42.16562" lon="14.6801333"><ele>55.0</ele><time>2026-04-09T11:05:42.837Z</time></trkpt><trkpt lat="42.16561" lon="14.6799883"><ele>55.0</ele><time>2026-04-09T11:05:44.837Z</time></trkpt><trkpt lat="42.1656017" lon="14.6798433"><ele>55.0</ele><time>2026-04-09T11:05:46.837Z</time></trkpt><trkpt lat="42.1655867" lon="14.6797117"><ele>55.2</ele><time>2026-04-09T11:05:48.837Z</time></trkpt><trkpt lat="42.165575" lon="14.6795767"><ele>55.4</ele><time>2026-04-09T11:05:50.837Z</time></trkpt><trkpt lat="42.1655533" lon="14.6794567"><ele>55.599999999999994</ele><time>2026-04-09T11:05:52.837Z</time></trkpt><trkpt lat="42.165535" lon="14.67934"><ele>55.8</ele><time>2026-04-09T11:05:54.837Z</time></trkpt><trkpt lat="42.1655117" lon="14.67921"><ele>56.0</ele><time>2026-04-09T11:05:56.837Z</time></trkpt><trkpt lat="42.1654883" lon="14.6790833"><ele>56.16666666666667</ele><time>2026-04-09T11:05:58.837Z</time></trkpt><trkpt lat="42.16547" lon="14.6789383"><ele>56.333333333333336</ele><time>2026-04-09T11:06:00.837Z</time></trkpt><trkpt lat="42.1654367" lon="14.6787717"><ele>56.5</ele><time>2026-04-09T11:06:02.837Z</time></trkpt><trkpt lat="42.1654267" lon="14.678685"><ele>56.66666666666667</ele><time>2026-04-09T11:06:03.837Z</time></trkpt><trkpt lat="42.1654117" lon="14.6785933"><ele>56.833333333333336</ele><time>2026-04-09T11:06:04.837Z</time></trkpt><trkpt lat="42.1653933" lon="14.6785"><ele>57.0</ele><time>2026-04-09T11:06:05.838Z</time></trkpt><trkpt lat="42.165375" lon="14.6784033"><ele>56.333333333333336</ele><time>2026-04-09T11:06:06.837Z</time></trkpt><trkpt lat="42.1653567" lon="14.6783"><ele>55.66666666666667</ele><time>2026-04-09T11:06:07.838Z</time></trkpt><trkpt lat="42.16534" lon="14.6781967"><ele>55.0</ele><time>2026-04-09T11:06:08.837Z</time></trkpt><trkpt lat="42.1653233" lon="14.6780983"><ele>54.333333333333336</ele><time>2026-04-09T11:06:09.837Z</time></trkpt><trkpt lat="42.1653117" lon="14.6780017"><ele>53.66666666666667</ele><time>2026-04-09T11:06:10.837Z</time></trkpt><trkpt lat="42.1652983" lon="14.6779017"><ele>53.0</ele><time>2026-04-09T11:06:11.837Z</time></trkpt><trkpt lat="42.1652767" lon="14.67781"><ele>52.833333333333336</ele><time>2026-04-09T11:06:12.837Z</time></trkpt><trkpt lat="42.1652567" lon="14.6777167"><ele>52.66666666666667</ele><time>2026-04-09T11:06:13.837Z</time></trkpt><trkpt lat="42.1652433" lon="14.677625"><ele>52.5</ele><time>2026-04-09T11:06:14.838Z</time></trkpt><trkpt lat="42.1652367" lon="14.677535"><ele>52.33333333333333</ele><time>2026-04-09T11:06:15.837Z</time></trkpt><trkpt lat="42.1652267" lon="14.6774483"><ele>52.166666666666664</ele><time>2026-04-09T11:06:16.837Z</time></trkpt><trkpt lat="42.165215" lon="14.6773633"><ele>52.0</ele><time>2026-04-09T11:06:17.837Z</time></trkpt><trkpt lat="42.1651967" lon="14.67721"><ele>52.0</ele><time>2026-04-09T11:06:19.837Z</time></trkpt><trkpt lat="42.1651833" lon="14.6770633"><ele>52.0</ele><time>2026-04-09T11:06:21.838Z</time></trkpt><trkpt lat="42.1651733" lon="14.676915"><ele>52.0</ele><time>2026-04-09T11:06:23.838Z</time></trkpt><trkpt lat="42.1651667" lon="14.6767733"><ele>52.0</ele><time>2026-04-09T11:06:25.837Z</time></trkpt><trkpt lat="42.1651633" lon="14.6766283"><ele>52.0</ele><time>2026-04-09T11:06:27.837Z</time></trkpt><trkpt lat="42.1651633" lon="14.676485"><ele>53.0</ele><time>2026-04-09T11:06:29.837Z</time></trkpt><trkpt lat="42.16516" lon="14.6763367"><ele>54.0</ele><time>2026-04-09T11:06:31.837Z</time></trkpt><trkpt lat="42.1651583" lon="14.676185"><ele>55.0</ele><time>2026-04-09T11:06:33.837Z</time></trkpt><trkpt lat="42.1651517" lon="14.67604"><ele>56.0</ele><time>2026-04-09T11:06:35.837Z</time></trkpt><trkpt lat="42.1651383" lon="14.6759033"><ele>57.0</ele><time>2026-04-09T11:06:37.837Z</time></trkpt><trkpt lat="42.1651283" lon="14.6757717"><ele>57.6</ele><time>2026-04-09T11:06:39.837Z</time></trkpt><trkpt lat="42.1651233" lon="14.6756317"><ele>58.2</ele><time>2026-04-09T11:06:41.837Z</time></trkpt><trkpt lat="42.16513" lon="14.6754917"><ele>58.8</ele><time>2026-04-09T11:06:43.837Z</time></trkpt><trkpt lat="42.1651233" lon="14.6753533"><ele>59.4</ele><time>2026-04-09T11:06:45.837Z</time></trkpt><trkpt lat="42.1651117" lon="14.675225"><ele>60.0</ele><time>2026-04-09T11:06:47.837Z</time></trkpt><trkpt lat="42.165105" lon="14.6750817"><ele>60.0</ele><time>2026-04-09T11:06:49.837Z</time></trkpt><trkpt lat="42.1650917" lon="14.6749367"><ele>60.0</ele><time>2026-04-09T11:06:51.837Z</time></trkpt><trkpt lat="42.1650917" lon="14.6747967"><ele>60.0</ele><time>2026-04-09T11:06:53.837Z</time></trkpt><trkpt lat="42.1650817" lon="14.67466"><ele>60.0</ele><time>2026-04-09T11:06:55.837Z</time></trkpt><trkpt lat="42.1650733" lon="14.6745217"><ele>60.0</ele><time>2026-04-09T11:06:57.837Z</time></trkpt><trkpt lat="42.1650683" lon="14.6743867"><ele>60.6</ele><time>2026-04-09T11:06:59.837Z</time></trkpt><trkpt lat="42.1650667" lon="14.674245"><ele>61.2</ele><time>2026-04-09T11:07:01.837Z</time></trkpt><trkpt lat="42.1650617" lon="14.67411"><ele>61.8</ele><time>2026-04-09T11:07:03.838Z</time></trkpt><trkpt lat="42.1650533" lon="14.6739733"><ele>62.4</ele><time>2026-04-09T11:07:05.837Z</time></trkpt><trkpt lat="42.1650467" lon="14.6738467"><ele>63.0</ele><time>2026-04-09T11:07:07.838Z</time></trkpt><trkpt lat="42.1650417" lon="14.6737117"><ele>63.4</ele><time>2026-04-09T11:07:09.837Z</time></trkpt><trkpt lat="42.1650317" lon="14.673575"><ele>63.8</ele><time>2026-04-09T11:07:11.838Z</time></trkpt><trkpt lat="42.1650283" lon="14.6734433"><ele>64.2</ele><time>2026-04-09T11:07:13.837Z</time></trkpt><trkpt lat="42.16502" lon="14.6733067"><ele>64.6</ele><time>2026-04-09T11:07:15.837Z</time></trkpt><trkpt lat="42.1650117" lon="14.6731617"><ele>65.0</ele><time>2026-04-09T11:07:17.838Z</time></trkpt><trkpt lat="42.1650083" lon="14.67302"><ele>65.0</ele><time>2026-04-09T11:07:19.837Z</time></trkpt><trkpt lat="42.165005" lon="14.6728733"><ele>65.0</ele><time>2026-04-09T11:07:21.837Z</time></trkpt><trkpt lat="42.165" lon="14.6727383"><ele>65.0</ele><time>2026-04-09T11:07:23.837Z</time></trkpt><trkpt lat="42.165" lon="14.672605"><ele>65.0</ele><time>2026-04-09T11:07:25.837Z</time></trkpt><trkpt lat="42.1649933" lon="14.6724617"><ele>65.0</ele><time>2026-04-09T11:07:27.837Z</time></trkpt><trkpt lat="42.1649883" lon="14.67232"><ele>65.2</ele><time>2026-04-09T11:07:29.837Z</time></trkpt><trkpt lat="42.1649767" lon="14.672175"><ele>65.4</ele><time>2026-04-09T11:07:31.837Z</time></trkpt><trkpt lat="42.1649617" lon="14.67203"><ele>65.6</ele><time>2026-04-09T11:07:33.837Z</time></trkpt><trkpt lat="42.1649517" lon="14.6718867"><ele>65.8</ele><time>2026-04-09T11:07:35.837Z</time></trkpt><trkpt lat="42.1649467" lon="14.6717467"><ele>66.0</ele><time>2026-04-09T11:07:37.837Z</time></trkpt><trkpt lat="42.16494" lon="14.671615"><ele>66.6</ele><time>2026-04-09T11:07:39.837Z</time></trkpt><trkpt lat="42.1649367" lon="14.671475"><ele>67.19999999999999</ele><time>2026-04-09T11:07:41.838Z</time></trkpt><trkpt lat="42.1649333" lon="14.6713367"><ele>67.80000000000001</ele><time>2026-04-09T11:07:43.838Z</time></trkpt><trkpt lat="42.1649233" lon="14.6712"><ele>68.4</ele><time>2026-04-09T11:07:45.837Z</time></trkpt><trkpt lat="42.16492" lon="14.6710617"><ele>69.0</ele><time>2026-04-09T11:07:47.837Z</time></trkpt><trkpt lat="42.1649217" lon="14.6709117"><ele>69.0</ele><time>2026-04-09T11:07:49.837Z</time></trkpt><trkpt lat="42.1649217" lon="14.6707767"><ele>69.0</ele><time>2026-04-09T11:07:51.837Z</time></trkpt><trkpt lat="42.1649167" lon="14.67064"><ele>69.0</ele><time>2026-04-09T11:07:53.838Z</time></trkpt><trkpt lat="42.1649183" lon="14.6704917"><ele>69.0</ele><time>2026-04-09T11:07:55.837Z</time></trkpt><trkpt lat="42.1649167" lon="14.6703433"><ele>69.0</ele><time>2026-04-09T11:07:57.837Z</time></trkpt><trkpt lat="42.1649133" lon="14.6702"><ele>68.75</ele><time>2026-04-09T11:07:59.837Z</time></trkpt><trkpt lat="42.1649083" lon="14.6700433"><ele>68.5</ele><time>2026-04-09T11:08:01.838Z</time></trkpt><trkpt lat="42.1649033" lon="14.66988"><ele>68.25</ele><time>2026-04-09T11:08:03.838Z</time></trkpt><trkpt lat="42.1648983" lon="14.6697217"><ele>68.0</ele><time>2026-04-09T11:08:05.837Z</time></trkpt><trkpt lat="42.1648983" lon="14.6695683"><ele>68.5</ele><time>2026-04-09T11:08:07.838Z</time></trkpt><trkpt lat="42.1649017" lon="14.6694083"><ele>69.0</ele><time>2026-04-09T11:08:09.837Z</time></trkpt><trkpt lat="42.1649" lon="14.6692617"><ele>69.5</ele><time>2026-04-09T11:08:11.837Z</time></trkpt><trkpt lat="42.1649067" lon="14.6691083"><ele>70.0</ele><time>2026-04-09T11:08:13.837Z</time></trkpt><trkpt lat="42.1649183" lon="14.668945"><ele>70.0</ele><time>2026-04-09T11:08:15.837Z</time></trkpt><trkpt lat="42.1649367" lon="14.6687867"><ele>70.0</ele><time>2026-04-09T11:08:17.837Z</time></trkpt><trkpt lat="42.164955" lon="14.6686333"><ele>70.0</ele><time>2026-04-09T11:08:19.838Z</time></trkpt><trkpt lat="42.1649783" lon="14.6684833"><ele>70.0</ele><time>2026-04-09T11:08:21.838Z</time></trkpt><trkpt lat="42.165005" lon="14.6683333"><ele>70.5</ele><time>2026-04-09T11:08:23.838Z</time></trkpt><trkpt lat="42.1650283" lon="14.66818"><ele>71.0</ele><time>2026-04-09T11:08:25.837Z</time></trkpt><trkpt lat="42.1650533" lon="14.668025"><ele>71.5</ele><time>2026-04-09T11:08:27.837Z</time></trkpt><trkpt lat="42.1650833" lon="14.6678733"><ele>72.0</ele><time>2026-04-09T11:08:29.837Z</time></trkpt><trkpt lat="42.1651033" lon="14.6677233"><ele>72.25</ele><time>2026-04-09T11:08:31.838Z</time></trkpt><trkpt lat="42.16513" lon="14.6675717"><ele>72.5</ele><time>2026-04-09T11:08:33.837Z</time></trkpt><trkpt lat="42.1651517" lon="14.6674233"><ele>72.75</ele><time>2026-04-09T11:08:35.837Z</time></trkpt><trkpt lat="42.16518" lon="14.667265"><ele>73.0</ele><time>2026-04-09T11:08:37.837Z</time></trkpt><trkpt lat="42.165205" lon="14.6671183"><ele>73.0</ele><time>2026-04-09T11:08:39.837Z</time></trkpt><trkpt lat="42.16523" lon="14.6669583"><ele>73.0</ele><time>2026-04-09T11:08:41.838Z</time></trkpt><trkpt lat="42.1652567" lon="14.6667933"><ele>73.0</ele><time>2026-04-09T11:08:43.837Z</time></trkpt><trkpt lat="42.1652817" lon="14.6666317"><ele>73.0</ele><time>2026-04-09T11:08:45.837Z</time></trkpt><trkpt lat="42.1652967" lon="14.6665467"><ele>73.0</ele><time>2026-04-09T11:08:46.837Z</time></trkpt><trkpt lat="42.1653267" lon="14.66639"><ele>73.25</ele><time>2026-04-09T11:08:48.837Z</time></trkpt><trkpt lat="42.1653517" lon="14.6662383"><ele>73.5</ele><time>2026-04-09T11:08:50.837Z</time></trkpt><trkpt lat="42.1653867" lon="14.6660783"><ele>73.75</ele><time>2026-04-09T11:08:52.838Z</time></trkpt><trkpt lat="42.1654267" lon="14.66593"><ele>74.0</ele><time>2026-04-09T11:08:54.838Z</time></trkpt><trkpt lat="42.1654683" lon="14.6657883"><ele>74.0</ele><time>2026-04-09T11:08:56.837Z</time></trkpt><trkpt lat="42.1655067" lon="14.6656383"><ele>74.0</ele><time>2026-04-09T11:08:58.837Z</time></trkpt><trkpt lat="42.1655533" lon="14.66549"><ele>74.0</ele><time>2026-04-09T11:09:00.838Z</time></trkpt><trkpt lat="42.165595" lon="14.6653483"><ele>74.0</ele><time>2026-04-09T11:09:02.837Z</time></trkpt><trkpt lat="42.1656417" lon="14.6651917"><ele>74.0</ele><time>2026-04-09T11:09:04.837Z</time></trkpt><trkpt lat="42.165685" lon="14.66504"><ele>74.0</ele><time>2026-04-09T11:09:06.837Z</time></trkpt><trkpt lat="42.16573" lon="14.664895"><ele>74.0</ele><time>2026-04-09T11:09:08.837Z</time></trkpt><trkpt lat="42.165775" lon="14.6647533"><ele>74.0</ele><time>2026-04-09T11:09:10.837Z</time></trkpt><trkpt lat="42.1658167" lon="14.664605"><ele>74.0</ele><time>2026-04-09T11:09:12.837Z</time></trkpt><trkpt lat="42.1658533" lon="14.6644467"><ele>74.0</ele><time>2026-04-09T11:09:14.838Z</time></trkpt><trkpt lat="42.1658933" lon="14.6643"><ele>74.0</ele><time>2026-04-09T11:09:16.838Z</time></trkpt><trkpt lat="42.1659333" lon="14.6641633"><ele>74.0</ele><time>2026-04-09T11:09:18.838Z</time></trkpt><trkpt lat="42.1659767" lon="14.6640167"><ele>74.25</ele><time>2026-04-09T11:09:20.838Z</time></trkpt><trkpt lat="42.1660133" lon="14.6638767"><ele>74.5</ele><time>2026-04-09T11:09:22.837Z</time></trkpt><trkpt lat="42.1660517" lon="14.6637383"><ele>74.75</ele><time>2026-04-09T11:09:24.837Z</time></trkpt><trkpt lat="42.1660983" lon="14.6635933"><ele>75.0</ele><time>2026-04-09T11:09:26.837Z</time></trkpt><trkpt lat="42.166145" lon="14.6634483"><ele>75.0</ele><time>2026-04-09T11:09:28.837Z</time></trkpt><trkpt lat="42.1661883" lon="14.6632967"><ele>75.0</ele><time>2026-04-09T11:09:30.837Z</time></trkpt><trkpt lat="42.16623" lon="14.663145"><ele>75.0</ele><time>2026-04-09T11:09:32.837Z</time></trkpt><trkpt lat="42.1662783" lon="14.6630017"><ele>75.0</ele><time>2026-04-09T11:09:34.837Z</time></trkpt><trkpt lat="42.1663333" lon="14.66286"><ele>75.25</ele><time>2026-04-09T11:09:36.837Z</time></trkpt><trkpt lat="42.166405" lon="14.6627233"><ele>75.5</ele><time>2026-04-09T11:09:38.837Z</time></trkpt><trkpt lat="42.1664967" lon="14.6626433"><ele>75.75</ele><time>2026-04-09T11:09:40.837Z</time></trkpt><trkpt lat="42.166585" lon="14.6625633"><ele>76.0</ele><time>2026-04-09T11:09:42.838Z</time></trkpt><trkpt lat="42.16663" lon="14.66242"><ele>75.5</ele><time>2026-04-09T11:09:44.837Z</time></trkpt><trkpt lat="42.1666267" lon="14.66226"><ele>75.0</ele><time>2026-04-09T11:09:46.837Z</time></trkpt><trkpt lat="42.166605" lon="14.6620967"><ele>74.5</ele><time>2026-04-09T11:09:48.837Z</time></trkpt><trkpt lat="42.1666083" lon="14.6619333"><ele>74.0</ele><time>2026-04-09T11:09:50.837Z</time></trkpt><trkpt lat="42.1666433" lon="14.6617767"><ele>74.0</ele><time>2026-04-09T11:09:52.837Z</time></trkpt><trkpt lat="42.1666817" lon="14.661635"><ele>74.0</ele><time>2026-04-09T11:09:54.837Z</time></trkpt><trkpt lat="42.1667283" lon="14.6614867"><ele>74.0</ele><time>2026-04-09T11:09:56.838Z</time></trkpt><trkpt lat="42.1667767" lon="14.661345"><ele>74.0</ele><time>2026-04-09T11:09:58.838Z</time></trkpt><trkpt lat="42.1668217" lon="14.661205"><ele>74.75</ele><time>2026-04-09T11:10:00.837Z</time></trkpt><trkpt lat="42.16686" lon="14.66105"><ele>75.5</ele><time>2026-04-09T11:10:02.838Z</time></trkpt><trkpt lat="42.1669017" lon="14.6608933"><ele>76.25</ele><time>2026-04-09T11:10:04.838Z</time></trkpt><trkpt lat="42.1669383" lon="14.6607483"><ele>77.0</ele><time>2026-04-09T11:10:06.837Z</time></trkpt><trkpt lat="42.1669733" lon="14.66061"><ele>77.0</ele><time>2026-04-09T11:10:08.838Z</time></trkpt><trkpt lat="42.1670233" lon="14.6604633"><ele>77.0</ele><time>2026-04-09T11:10:10.837Z</time></trkpt><trkpt lat="42.1670717" lon="14.6603083"><ele>77.0</ele><time>2026-04-09T11:10:12.837Z</time></trkpt><trkpt lat="42.167095" lon="14.6602267"><ele>77.0</ele><time>2026-04-09T11:10:13.838Z</time></trkpt><trkpt lat="42.16712" lon="14.6601433"><ele>77.0</ele><time>2026-04-09T11:10:14.838Z</time></trkpt><trkpt lat="42.1671433" lon="14.6600617"><ele>77.0</ele><time>2026-04-09T11:10:15.837Z</time></trkpt><trkpt lat="42.1671883" lon="14.6599067"><ele>76.8</ele><time>2026-04-09T11:10:17.837Z</time></trkpt><trkpt lat="42.1672283" lon="14.6597633"><ele>76.6</ele><time>2026-04-09T11:10:19.837Z</time></trkpt><trkpt lat="42.1672717" lon="14.6596167"><ele>76.39999999999999</ele><time>2026-04-09T11:10:21.837Z</time></trkpt><trkpt lat="42.167315" lon="14.6594567"><ele>76.2</ele><time>2026-04-09T11:10:23.837Z</time></trkpt><trkpt lat="42.1673367" lon="14.6593767"><ele>76.0</ele><time>2026-04-09T11:10:24.838Z</time></trkpt><trkpt lat="42.1673833" lon="14.65922"><ele>76.0</ele><time>2026-04-09T11:10:26.837Z</time></trkpt><trkpt lat="42.1674083" lon="14.6591417"><ele>76.0</ele><time>2026-04-09T11:10:27.837Z</time></trkpt><trkpt lat="42.167435" lon="14.6590633"><ele>76.0</ele><time>2026-04-09T11:10:28.838Z</time></trkpt><trkpt lat="42.167485" lon="14.658905"><ele>76.0</ele><time>2026-04-09T11:10:30.838Z</time></trkpt><trkpt lat="42.1675133" lon="14.65882"><ele>76.0</ele><time>2026-04-09T11:10:31.837Z</time></trkpt><trkpt lat="42.1675367" lon="14.6587333"><ele>76.0</ele><time>2026-04-09T11:10:32.838Z</time></trkpt><trkpt lat="42.1675617" lon="14.658655"><ele>76.14285714285714</ele><time>2026-04-09T11:10:33.837Z</time></trkpt><trkpt lat="42.1675833" lon="14.6585683"><ele>76.28571428571429</ele><time>2026-04-09T11:10:34.837Z</time></trkpt><trkpt lat="42.1676083" lon="14.65848"><ele>76.42857142857143</ele><time>2026-04-09T11:10:35.837Z</time></trkpt><trkpt lat="42.1676267" lon="14.6583917"><ele>76.57142857142857</ele><time>2026-04-09T11:10:36.837Z</time></trkpt><trkpt lat="42.1676467" lon="14.6582967"><ele>76.71428571428572</ele><time>2026-04-09T11:10:37.837Z</time></trkpt><trkpt lat="42.1676667" lon="14.6582017"><ele>76.85714285714286</ele><time>2026-04-09T11:10:38.837Z</time></trkpt><trkpt lat="42.1676817" lon="14.6581"><ele>77.0</ele><time>2026-04-09T11:10:39.837Z</time></trkpt><trkpt lat="42.1676967" lon="14.658005"><ele>77.0</ele><time>2026-04-09T11:10:40.837Z</time></trkpt><trkpt lat="42.1677117" lon="14.6579117"><ele>77.0</ele><time>2026-04-09T11:10:41.838Z</time></trkpt><trkpt lat="42.1677267" lon="14.65782"><ele>77.0</ele><time>2026-04-09T11:10:42.837Z</time></trkpt><trkpt lat="42.1677417" lon="14.6577217"><ele>77.0</ele><time>2026-04-09T11:10:43.837Z</time></trkpt><trkpt lat="42.1677467" lon="14.65762"><ele>77.0</ele><time>2026-04-09T11:10:44.837Z</time></trkpt><trkpt lat="42.1677433" lon="14.6575133"><ele>77.0</ele><time>2026-04-09T11:10:45.837Z</time></trkpt><trkpt lat="42.1677417" lon="14.6574083"><ele>77.0</ele><time>2026-04-09T11:10:46.837Z</time></trkpt><trkpt lat="42.16774" lon="14.6573067"><ele>77.5</ele><time>2026-04-09T11:10:47.837Z</time></trkpt><trkpt lat="42.1677367" lon="14.6571983"><ele>78.0</ele><time>2026-04-09T11:10:48.838Z</time></trkpt><trkpt lat="42.1677367" lon="14.6570817"><ele>78.5</ele><time>2026-04-09T11:10:49.838Z</time></trkpt><trkpt lat="42.1677317" lon="14.6569667"><ele>79.0</ele><time>2026-04-09T11:10:50.837Z</time></trkpt><trkpt lat="42.1677183" lon="14.656855"><ele>79.5</ele><time>2026-04-09T11:10:51.837Z</time></trkpt><trkpt lat="42.167705" lon="14.6567383"><ele>80.0</ele><time>2026-04-09T11:10:52.837Z</time></trkpt><trkpt lat="42.1676917" lon="14.6566233"><ele>80.0</ele><time>2026-04-09T11:10:53.837Z</time></trkpt><trkpt lat="42.1676767" lon="14.6565133"><ele>80.0</ele><time>2026-04-09T11:10:54.837Z</time></trkpt><trkpt lat="42.1676617" lon="14.6564"><ele>80.0</ele><time>2026-04-09T11:10:55.837Z</time></trkpt><trkpt lat="42.1676433" lon="14.6562817"><ele>80.0</ele><time>2026-04-09T11:10:56.838Z</time></trkpt><trkpt lat="42.1676267" lon="14.656165"><ele>80.0</ele><time>2026-04-09T11:10:57.837Z</time></trkpt><trkpt lat="42.1676033" lon="14.65605"><ele>80.0</ele><time>2026-04-09T11:10:58.838Z</time></trkpt><trkpt lat="42.1675717" lon="14.65594"><ele>78.4</ele><time>2026-04-09T11:10:59.837Z</time></trkpt><trkpt lat="42.1675317" lon="14.65583"><ele>76.8</ele><time>2026-04-09T11:11:00.837Z</time></trkpt><trkpt lat="42.1674967" lon="14.6557167"><ele>75.2</ele><time>2026-04-09T11:11:01.837Z</time></trkpt><trkpt lat="42.1674567" lon="14.6556033"><ele>73.6</ele><time>2026-04-09T11:11:02.838Z</time></trkpt><trkpt lat="42.167405" lon="14.6554867"><ele>72.0</ele><time>2026-04-09T11:11:03.837Z</time></trkpt><trkpt lat="42.16735" lon="14.6553683"><ele>69.6</ele><time>2026-04-09T11:11:04.837Z</time></trkpt><trkpt lat="42.1672933" lon="14.6552583"><ele>67.2</ele><time>2026-04-09T11:11:05.837Z</time></trkpt><trkpt lat="42.1672383" lon="14.655155"><ele>64.8</ele><time>2026-04-09T11:11:06.837Z</time></trkpt><trkpt lat="42.16718" lon="14.655045"><ele>62.4</ele><time>2026-04-09T11:11:07.837Z</time></trkpt><trkpt lat="42.16712" lon="14.6549433"><ele>60.0</ele><time>2026-04-09T11:11:08.837Z</time></trkpt><trkpt lat="42.1670533" lon="14.654835"><ele>60.0</ele><time>2026-04-09T11:11:09.837Z</time></trkpt><trkpt lat="42.166985" lon="14.6547283"><ele>60.0</ele><time>2026-04-09T11:11:10.837Z</time></trkpt><trkpt lat="42.1669117" lon="14.6546283"><ele>60.0</ele><time>2026-04-09T11:11:11.838Z</time></trkpt><trkpt lat="42.1668317" lon="14.65453"><ele>60.0</ele><time>2026-04-09T11:11:12.837Z</time></trkpt><trkpt lat="42.16675" lon="14.6544333"><ele>60.0</ele><time>2026-04-09T11:11:13.837Z</time></trkpt><trkpt lat="42.1666683" lon="14.65435"><ele>60.0</ele><time>2026-04-09T11:11:14.838Z</time></trkpt><trkpt lat="42.1665783" lon="14.6542667"><ele>60.0</ele><time>2026-04-09T11:11:15.837Z</time></trkpt><trkpt lat="42.1664883" lon="14.6541917"><ele>60.0</ele><time>2026-04-09T11:11:16.838Z</time></trkpt><trkpt lat="42.1663967" lon="14.6541067"><ele>60.0</ele><time>2026-04-09T11:11:17.837Z</time></trkpt><trkpt lat="42.1663017" lon="14.6540267"><ele>60.0</ele><time>2026-04-09T11:11:18.837Z</time></trkpt><trkpt lat="42.1662033" lon="14.6539417"><ele>62.0</ele><time>2026-04-09T11:11:19.837Z</time></trkpt><trkpt lat="42.1660983" lon="14.65386"><ele>64.0</ele><time>2026-04-09T11:11:20.837Z</time></trkpt><trkpt lat="42.1660017" lon="14.6537817"><ele>66.0</ele><time>2026-04-09T11:11:21.837Z</time></trkpt><trkpt lat="42.1659017" lon="14.6537"><ele>68.0</ele><time>2026-04-09T11:11:22.838Z</time></trkpt><trkpt lat="42.1657967" lon="14.6536233"><ele>65.75</ele><time>2026-04-09T11:11:23.838Z</time></trkpt><trkpt lat="42.1656967" lon="14.65354"><ele>63.5</ele><time>2026-04-09T11:11:24.837Z</time></trkpt><trkpt lat="42.1656" lon="14.6534567"><ele>61.25</ele><time>2026-04-09T11:11:25.837Z</time></trkpt><trkpt lat="42.1655" lon="14.65337"><ele>59.0</ele><time>2026-04-09T11:11:26.838Z</time></trkpt><trkpt lat="42.1653983" lon="14.6532817"><ele>59.0</ele><time>2026-04-09T11:11:27.837Z</time></trkpt><trkpt lat="42.1653033" lon="14.6531933"><ele>59.0</ele><time>2026-04-09T11:11:28.838Z</time></trkpt><trkpt lat="42.1652067" lon="14.65311"><ele>59.0</ele><time>2026-04-09T11:11:29.837Z</time></trkpt><trkpt lat="42.1651067" lon="14.6530233"><ele>59.0</ele><time>2026-04-09T11:11:30.837Z</time></trkpt><trkpt lat="42.165005" lon="14.652935"><ele>59.0</ele><time>2026-04-09T11:11:31.837Z</time></trkpt><trkpt lat="42.1649117" lon="14.6528367"><ele>59.0</ele><time>2026-04-09T11:11:32.837Z</time></trkpt><trkpt lat="42.1648183" lon="14.652735"><ele>59.0</ele><time>2026-04-09T11:11:33.837Z</time></trkpt><trkpt lat="42.1647233" lon="14.6526283"><ele>59.0</ele><time>2026-04-09T11:11:34.837Z</time></trkpt><trkpt lat="42.1646333" lon="14.6525117"><ele>55.0</ele><time>2026-04-09T11:11:35.838Z</time></trkpt><trkpt lat="42.1645483" lon="14.6523917"><ele>51.0</ele><time>2026-04-09T11:11:36.837Z</time></trkpt><trkpt lat="42.164465" lon="14.6522717"><ele>47.0</ele><time>2026-04-09T11:11:37.837Z</time></trkpt><trkpt lat="42.1643883" lon="14.6521383"><ele>43.0</ele><time>2026-04-09T11:11:38.837Z</time></trkpt><trkpt lat="42.16432" lon="14.6520017"><ele>39.75</ele><time>2026-04-09T11:11:39.837Z</time></trkpt><trkpt lat="42.164255" lon="14.6518583"><ele>36.5</ele><time>2026-04-09T11:11:40.837Z</time></trkpt><trkpt lat="42.1641917" lon="14.6517133"><ele>33.25</ele><time>2026-04-09T11:11:41.837Z</time></trkpt><trkpt lat="42.1641317" lon="14.6515617"><ele>30.0</ele><time>2026-04-09T11:11:42.837Z</time></trkpt><trkpt lat="42.1640833" lon="14.6514133"><ele>29.5</ele><time>2026-04-09T11:11:43.837Z</time></trkpt><trkpt lat="42.16403" lon="14.6512633"><ele>29.0</ele><time>2026-04-09T11:11:44.837Z</time></trkpt><trkpt lat="42.163985" lon="14.6511083"><ele>28.5</ele><time>2026-04-09T11:11:45.838Z</time></trkpt><trkpt lat="42.163945" lon="14.6509517"><ele>28.0</ele><time>2026-04-09T11:11:46.837Z</time></trkpt><trkpt lat="42.163905" lon="14.6507967"><ele>26.5</ele><time>2026-04-09T11:11:47.837Z</time></trkpt><trkpt lat="42.1638717" lon="14.6506333"><ele>25.0</ele><time>2026-04-09T11:11:48.837Z</time></trkpt><trkpt lat="42.1638467" lon="14.6504717"><ele>23.5</ele><time>2026-04-09T11:11:49.837Z</time></trkpt><trkpt lat="42.1638233" lon="14.65031"><ele>22.0</ele><time>2026-04-09T11:11:50.837Z</time></trkpt><trkpt lat="42.163805" lon="14.6501483"><ele>21.75</ele><time>2026-04-09T11:11:51.837Z</time></trkpt><trkpt lat="42.1637933" lon="14.6499917"><ele>21.5</ele><time>2026-04-09T11:11:52.837Z</time></trkpt><trkpt lat="42.1637817" lon="14.6498333"><ele>21.25</ele><time>2026-04-09T11:11:53.838Z</time></trkpt><trkpt lat="42.1637833" lon="14.649675"><ele>21.0</ele><time>2026-04-09T11:11:54.838Z</time></trkpt><trkpt lat="42.1637867" lon="14.64952"><ele>21.200000000000003</ele><time>2026-04-09T11:11:55.837Z</time></trkpt><trkpt lat="42.163795" lon="14.6493617"><ele>21.400000000000002</ele><time>2026-04-09T11:11:56.837Z</time></trkpt><trkpt lat="42.1638033" lon="14.64921"><ele>21.6</ele><time>2026-04-09T11:11:57.838Z</time></trkpt><trkpt lat="42.16381" lon="14.6490617"><ele>21.8</ele><time>2026-04-09T11:11:58.837Z</time></trkpt><trkpt lat="42.16382" lon="14.6489167"><ele>22.0</ele><time>2026-04-09T11:11:59.837Z</time></trkpt><trkpt lat="42.1638317" lon="14.6487683"><ele>22.0</ele><time>2026-04-09T11:12:00.838Z</time></trkpt><trkpt lat="42.16384" lon="14.6486283"><ele>22.0</ele><time>2026-04-09T11:12:01.837Z</time></trkpt><trkpt lat="42.1638517" lon="14.6484883"><ele>22.0</ele><time>2026-04-09T11:12:02.837Z</time></trkpt><trkpt lat="42.163865" lon="14.64835"><ele>22.0</ele><time>2026-04-09T11:12:03.837Z</time></trkpt><trkpt lat="42.1638767" lon="14.648215"><ele>22.0</ele><time>2026-04-09T11:12:04.837Z</time></trkpt><trkpt lat="42.1638917" lon="14.6480783"><ele>22.0</ele><time>2026-04-09T11:12:05.838Z</time></trkpt><trkpt lat="42.1639" lon="14.6479433"><ele>22.0</ele><time>2026-04-09T11:12:06.837Z</time></trkpt><trkpt lat="42.1639117" lon="14.6478117"><ele>22.0</ele><time>2026-04-09T11:12:07.837Z</time></trkpt><trkpt lat="42.163925" lon="14.6476817"><ele>22.0</ele><time>2026-04-09T11:12:08.837Z</time></trkpt><trkpt lat="42.16394" lon="14.6475517"><ele>22.0</ele><time>2026-04-09T11:12:09.837Z</time></trkpt><trkpt lat="42.1639517" lon="14.64742"><ele>21.6</ele><time>2026-04-09T11:12:10.837Z</time></trkpt><trkpt lat="42.1639633" lon="14.64729"><ele>21.200000000000003</ele><time>2026-04-09T11:12:11.838Z</time></trkpt><trkpt lat="42.1639733" lon="14.64716"><ele>20.8</ele><time>2026-04-09T11:12:12.837Z</time></trkpt><trkpt lat="42.16398" lon="14.6470367"><ele>20.4</ele><time>2026-04-09T11:12:13.837Z</time></trkpt><trkpt lat="42.1639917" lon="14.6469117"><ele>20.0</ele><time>2026-04-09T11:12:14.837Z</time></trkpt><trkpt lat="42.1639967" lon="14.646795"><ele>20.0</ele><time>2026-04-09T11:12:15.837Z</time></trkpt><trkpt lat="42.1640083" lon="14.6466767"><ele>20.0</ele><time>2026-04-09T11:12:16.837Z</time></trkpt><trkpt lat="42.1640167" lon="14.646555"><ele>20.0</ele><time>2026-04-09T11:12:17.837Z</time></trkpt><trkpt lat="42.1640267" lon="14.6464367"><ele>20.0</ele><time>2026-04-09T11:12:18.837Z</time></trkpt><trkpt lat="42.16403" lon="14.646315"><ele>20.0</ele><time>2026-04-09T11:12:19.837Z</time></trkpt><trkpt lat="42.1640367" lon="14.6462017"><ele>20.0</ele><time>2026-04-09T11:12:20.837Z</time></trkpt><trkpt lat="42.16404" lon="14.6460883"><ele>19.833333333333336</ele><time>2026-04-09T11:12:21.837Z</time></trkpt><trkpt lat="42.16404" lon="14.6459717"><ele>19.666666666666668</ele><time>2026-04-09T11:12:22.837Z</time></trkpt><trkpt lat="42.1640417" lon="14.6458633"><ele>19.5</ele><time>2026-04-09T11:12:23.837Z</time></trkpt><trkpt lat="42.1640433" lon="14.64575"><ele>19.333333333333332</ele><time>2026-04-09T11:12:24.837Z</time></trkpt><trkpt lat="42.1640467" lon="14.6456483"><ele>19.166666666666664</ele><time>2026-04-09T11:12:25.837Z</time></trkpt><trkpt lat="42.1640467" lon="14.64554"><ele>19.0</ele><time>2026-04-09T11:12:26.838Z</time></trkpt><trkpt lat="42.1640483" lon="14.64544"><ele>19.0</ele><time>2026-04-09T11:12:27.837Z</time></trkpt><trkpt lat="42.1640433" lon="14.6453383"><ele>19.0</ele><time>2026-04-09T11:12:28.838Z</time></trkpt><trkpt lat="42.164035" lon="14.645235"><ele>19.0</ele><time>2026-04-09T11:12:29.837Z</time></trkpt><trkpt lat="42.1640333" lon="14.645135"><ele>19.0</ele><time>2026-04-09T11:12:30.838Z</time></trkpt><trkpt lat="42.1640367" lon="14.64504"><ele>19.0</ele><time>2026-04-09T11:12:31.837Z</time></trkpt><trkpt lat="42.1640333" lon="14.644945"><ele>19.0</ele><time>2026-04-09T11:12:32.837Z</time></trkpt><trkpt lat="42.164025" lon="14.6448517"><ele>19.0</ele><time>2026-04-09T11:12:33.837Z</time></trkpt><trkpt lat="42.16402" lon="14.6447583"><ele>18.666666666666664</ele><time>2026-04-09T11:12:34.838Z</time></trkpt><trkpt lat="42.1640183" lon="14.644665"><ele>18.333333333333332</ele><time>2026-04-09T11:12:35.837Z</time></trkpt><trkpt lat="42.1640067" lon="14.6445"><ele>18.0</ele><time>2026-04-09T11:12:37.837Z</time></trkpt><trkpt lat="42.1640017" lon="14.64441"><ele>17.666666666666668</ele><time>2026-04-09T11:12:38.837Z</time></trkpt><trkpt lat="42.1640033" lon="14.64432"><ele>17.333333333333336</ele><time>2026-04-09T11:12:39.837Z</time></trkpt><trkpt lat="42.1639967" lon="14.6441533"><ele>17.0</ele><time>2026-04-09T11:12:41.837Z</time></trkpt><trkpt lat="42.1639867" lon="14.6440683"><ele>17.0</ele><time>2026-04-09T11:12:42.837Z</time></trkpt><trkpt lat="42.163975" lon="14.6439"><ele>17.0</ele><time>2026-04-09T11:12:44.837Z</time></trkpt><trkpt lat="42.1639717" lon="14.6437417"><ele>17.0</ele><time>2026-04-09T11:12:46.837Z</time></trkpt><trkpt lat="42.163965" lon="14.6435833"><ele>17.0</ele><time>2026-04-09T11:12:48.838Z</time></trkpt><trkpt lat="42.16396" lon="14.6434167"><ele>17.75</ele><time>2026-04-09T11:12:50.837Z</time></trkpt><trkpt lat="42.16396" lon="14.6432533"><ele>18.5</ele><time>2026-04-09T11:12:52.838Z</time></trkpt><trkpt lat="42.1639617" lon="14.6430933"><ele>19.25</ele><time>2026-04-09T11:12:54.837Z</time></trkpt><trkpt lat="42.1639617" lon="14.6429417"><ele>20.0</ele><time>2026-04-09T11:12:56.837Z</time></trkpt><trkpt lat="42.1639583" lon="14.6427883"><ele>20.0</ele><time>2026-04-09T11:12:58.838Z</time></trkpt><trkpt lat="42.1639583" lon="14.6426333"><ele>20.0</ele><time>2026-04-09T11:13:00.837Z</time></trkpt><trkpt lat="42.163955" lon="14.6424733"><ele>20.0</ele><time>2026-04-09T11:13:02.837Z</time></trkpt><trkpt lat="42.1639533" lon="14.642315"><ele>20.0</ele><time>2026-04-09T11:13:04.837Z</time></trkpt><trkpt lat="42.1639533" lon="14.642155"><ele>20.0</ele><time>2026-04-09T11:13:06.838Z</time></trkpt><trkpt lat="42.1639617" lon="14.64207"><ele>20.0</ele><time>2026-04-09T11:13:07.837Z</time></trkpt><trkpt lat="42.1639683" lon="14.6419067"><ele>20.0</ele><time>2026-04-09T11:13:09.837Z</time></trkpt><trkpt lat="42.16398" lon="14.641765"><ele>20.0</ele><time>2026-04-09T11:13:11.837Z</time></trkpt><trkpt lat="42.1639983" lon="14.641645"><ele>20.0</ele><time>2026-04-09T11:13:13.837Z</time></trkpt><trkpt lat="42.1640167" lon="14.641535"><ele>20.0</ele><time>2026-04-09T11:13:15.837Z</time></trkpt><trkpt lat="42.16405" lon="14.6414367"><ele>20.0</ele><time>2026-04-09T11:13:17.837Z</time></trkpt><trkpt lat="42.1640783" lon="14.6413533"><ele>20.0</ele><time>2026-04-09T11:13:19.837Z</time></trkpt><trkpt lat="42.1641183" lon="14.6412733"><ele>20.0</ele><time>2026-04-09T11:13:21.837Z</time></trkpt><trkpt lat="42.1641867" lon="14.6411733"><ele>20.0</ele><time>2026-04-09T11:13:23.837Z</time></trkpt><trkpt lat="42.164255" lon="14.6410433"><ele>20.0</ele><time>2026-04-09T11:13:25.838Z</time></trkpt><trkpt lat="42.164285" lon="14.640885"><ele>20.0</ele><time>2026-04-09T11:13:27.837Z</time></trkpt><trkpt lat="42.1642517" lon="14.6407317"><ele>20.0</ele><time>2026-04-09T11:13:29.837Z</time></trkpt><trkpt lat="42.1641683" lon="14.6406233"><ele>20.0</ele><time>2026-04-09T11:13:31.837Z</time></trkpt><trkpt lat="42.1640617" lon="14.6405883"><ele>20.0</ele><time>2026-04-09T11:13:33.837Z</time></trkpt><trkpt lat="42.1639983" lon="14.64059"><ele>20.0</ele><time>2026-04-09T11:13:34.837Z</time></trkpt><trkpt lat="42.1638767" lon="14.6405833"><ele>20.0</ele><time>2026-04-09T11:13:36.837Z</time></trkpt><trkpt lat="42.1638133" lon="14.640565"><ele>20.0</ele><time>2026-04-09T11:13:37.837Z</time></trkpt><trkpt lat="42.1637117" lon="14.6404833"><ele>20.0</ele><time>2026-04-09T11:13:39.837Z</time></trkpt><trkpt lat="42.1636467" lon="14.640345"><ele>20.0</ele><time>2026-04-09T11:13:41.837Z</time></trkpt><trkpt lat="42.1636117" lon="14.6401983"><ele>20.0</ele><time>2026-04-09T11:13:43.837Z</time></trkpt><trkpt lat="42.1635283" lon="14.64009"><ele>20.0</ele><time>2026-04-09T11:13:45.837Z</time></trkpt><trkpt lat="42.1634283" lon="14.640005"><ele>20.0</ele><time>2026-04-09T11:13:47.837Z</time></trkpt><trkpt lat="42.16334" lon="14.6398883"><ele>20.0</ele><time>2026-04-09T11:13:49.837Z</time></trkpt><trkpt lat="42.1632667" lon="14.6397567"><ele>20.0</ele><time>2026-04-09T11:13:51.837Z</time></trkpt><trkpt lat="42.163195" lon="14.6396383"><ele>20.25</ele><time>2026-04-09T11:13:53.837Z</time></trkpt><trkpt lat="42.1630917" lon="14.6395633"><ele>20.5</ele><time>2026-04-09T11:13:55.837Z</time></trkpt><trkpt lat="42.16298" lon="14.639515"><ele>20.75</ele><time>2026-04-09T11:13:57.837Z</time></trkpt><trkpt lat="42.16286" lon="14.6394817"><ele>21.0</ele><time>2026-04-09T11:13:59.838Z</time></trkpt><trkpt lat="42.1627583" lon="14.6394283"><ele>21.200000000000003</ele><time>2026-04-09T11:14:01.837Z</time></trkpt><trkpt lat="42.162675" lon="14.639355"><ele>21.400000000000002</ele><time>2026-04-09T11:14:03.837Z</time></trkpt><trkpt lat="42.1626" lon="14.63925"><ele>21.6</ele><time>2026-04-09T11:14:05.837Z</time></trkpt><trkpt lat="42.16252" lon="14.639135"><ele>21.8</ele><time>2026-04-09T11:14:07.837Z</time></trkpt><trkpt lat="42.16246" lon="14.6390033"><ele>22.0</ele><time>2026-04-09T11:14:09.838Z</time></trkpt><trkpt lat="42.1624267" lon="14.6388617"><ele>22.0</ele><time>2026-04-09T11:14:11.837Z</time></trkpt><trkpt lat="42.16243" lon="14.6387133"><ele>22.0</ele><time>2026-04-09T11:14:13.837Z</time></trkpt><trkpt lat="42.1624783" lon="14.6385783"><ele>22.0</ele><time>2026-04-09T11:14:15.837Z</time></trkpt><trkpt lat="42.1625483" lon="14.638465"><ele>22.0</ele><time>2026-04-09T11:14:17.837Z</time></trkpt><trkpt lat="42.1626283" lon="14.6383667"><ele>22.0</ele><time>2026-04-09T11:14:19.837Z</time></trkpt><trkpt lat="42.1627217" lon="14.6382833"><ele>22.0</ele><time>2026-04-09T11:14:21.837Z</time></trkpt><trkpt lat="42.16282" lon="14.6382133"><ele>22.0</ele><time>2026-04-09T11:14:23.837Z</time></trkpt><trkpt lat="42.1629233" lon="14.6381517"><ele>22.0</ele><time>2026-04-09T11:14:25.838Z</time></trkpt><trkpt lat="42.1630233" lon="14.6380867"><ele>22.0</ele><time>2026-04-09T11:14:27.837Z</time></trkpt><trkpt lat="42.16312" lon="14.6380267"><ele>22.0</ele><time>2026-04-09T11:14:29.837Z</time></trkpt><trkpt lat="42.1632183" lon="14.63795"><ele>22.0</ele><time>2026-04-09T11:14:31.837Z</time></trkpt><trkpt lat="42.1633133" lon="14.6378617"><ele>22.0</ele><time>2026-04-09T11:14:33.837Z</time></trkpt><trkpt lat="42.163385" lon="14.6377683"><ele>22.0</ele><time>2026-04-09T11:14:35.837Z</time></trkpt><trkpt lat="42.16345" lon="14.637655"><ele>22.0</ele><time>2026-04-09T11:14:37.837Z</time></trkpt><trkpt lat="42.16351" lon="14.6375333"><ele>22.0</ele><time>2026-04-09T11:14:39.837Z</time></trkpt><trkpt lat="42.1635833" lon="14.6374233"><ele>23.75</ele><time>2026-04-09T11:14:41.837Z</time></trkpt><trkpt lat="42.1636367" lon="14.6373"><ele>25.5</ele><time>2026-04-09T11:14:43.838Z</time></trkpt><trkpt lat="42.16368" lon="14.637125"><ele>27.25</ele><time>2026-04-09T11:14:45.837Z</time></trkpt><trkpt lat="42.1636783" lon="14.6369733"><ele>29.0</ele><time>2026-04-09T11:14:47.837Z</time></trkpt><trkpt lat="42.16363" lon="14.6368083"><ele>30.0</ele><time>2026-04-09T11:14:49.837Z</time></trkpt><trkpt lat="42.1635967" lon="14.6367333"><ele>31.0</ele><time>2026-04-09T11:14:50.837Z</time></trkpt><trkpt lat="42.16353" lon="14.636595"><ele>32.0</ele><time>2026-04-09T11:14:52.837Z</time></trkpt><trkpt lat="42.1634717" lon="14.6364633"><ele>33.0</ele><time>2026-04-09T11:14:54.837Z</time></trkpt><trkpt lat="42.1634017" lon="14.6363383"><ele>34.0</ele><time>2026-04-09T11:14:56.837Z</time></trkpt><trkpt lat="42.1633333" lon="14.6362067"><ele>34.2</ele><time>2026-04-09T11:14:58.837Z</time></trkpt><trkpt lat="42.16327" lon="14.6360817"><ele>34.4</ele><time>2026-04-09T11:15:00.837Z</time></trkpt><trkpt lat="42.163215" lon="14.63596"><ele>34.6</ele><time>2026-04-09T11:15:02.837Z</time></trkpt><trkpt lat="42.1631533" lon="14.6358417"><ele>34.8</ele><time>2026-04-09T11:15:04.837Z</time></trkpt><trkpt lat="42.1630833" lon="14.6357217"><ele>35.0</ele><time>2026-04-09T11:15:06.837Z</time></trkpt><trkpt lat="42.163" lon="14.6356083"><ele>35.4</ele><time>2026-04-09T11:15:08.837Z</time></trkpt><trkpt lat="42.1629167" lon="14.6355033"><ele>35.8</ele><time>2026-04-09T11:15:10.837Z</time></trkpt><trkpt lat="42.162825" lon="14.63542"><ele>36.2</ele><time>2026-04-09T11:15:12.837Z</time></trkpt><trkpt lat="42.1627267" lon="14.6353583"><ele>36.6</ele><time>2026-04-09T11:15:14.837Z</time></trkpt><trkpt lat="42.162625" lon="14.63531"><ele>37.0</ele><time>2026-04-09T11:15:16.838Z</time></trkpt><trkpt lat="42.1625117" lon="14.63526"><ele>38.5</ele><time>2026-04-09T11:15:18.837Z</time></trkpt><trkpt lat="42.1623983" lon="14.63522"><ele>40.0</ele><time>2026-04-09T11:15:20.837Z</time></trkpt><trkpt lat="42.1622933" lon="14.6351667"><ele>41.5</ele><time>2026-04-09T11:15:22.837Z</time></trkpt><trkpt lat="42.162195" lon="14.6350933"><ele>43.0</ele><time>2026-04-09T11:15:24.837Z</time></trkpt><trkpt lat="42.1621017" lon="14.635015"><ele>43.8</ele><time>2026-04-09T11:15:26.837Z</time></trkpt><trkpt lat="42.1619967" lon="14.63493"><ele>44.599999999999994</ele><time>2026-04-09T11:15:28.837Z</time></trkpt><trkpt lat="42.1619117" lon="14.6348467"><ele>45.400000000000006</ele><time>2026-04-09T11:15:30.837Z</time></trkpt><trkpt lat="42.1618417" lon="14.6347967"><ele>46.2</ele><time>2026-04-09T11:15:32.838Z</time></trkpt><trkpt lat="42.1617417" lon="14.6347083"><ele>47.0</ele><time>2026-04-09T11:15:34.838Z</time></trkpt><trkpt lat="42.1616717" lon="14.63458"><ele>47.6</ele><time>2026-04-09T11:15:36.837Z</time></trkpt><trkpt lat="42.161625" lon="14.6344417"><ele>48.2</ele><time>2026-04-09T11:15:38.837Z</time></trkpt><trkpt lat="42.1616033" lon="14.6342917"><ele>48.8</ele><time>2026-04-09T11:15:40.837Z</time></trkpt><trkpt lat="42.1616133" lon="14.6341517"><ele>49.4</ele><time>2026-04-09T11:15:42.837Z</time></trkpt><trkpt lat="42.1616483" lon="14.6340183"><ele>50.0</ele><time>2026-04-09T11:15:44.837Z</time></trkpt><trkpt lat="42.161705" lon="14.6339"><ele>50.0</ele><time>2026-04-09T11:15:46.837Z</time></trkpt><trkpt lat="42.16177" lon="14.6337717"><ele>50.0</ele><time>2026-04-09T11:15:48.838Z</time></trkpt><trkpt lat="42.161835" lon="14.6336517"><ele>50.0</ele><time>2026-04-09T11:15:50.837Z</time></trkpt><trkpt lat="42.16191" lon="14.6335317"><ele>50.0</ele><time>2026-04-09T11:15:52.837Z</time></trkpt><trkpt lat="42.1619867" lon="14.63341"><ele>51.75</ele><time>2026-04-09T11:15:54.837Z</time></trkpt><trkpt lat="42.16207" lon="14.6332983"><ele>53.5</ele><time>2026-04-09T11:15:56.837Z</time></trkpt><trkpt lat="42.1621533" lon="14.6331783"><ele>55.25</ele><time>2026-04-09T11:15:58.837Z</time></trkpt><trkpt lat="42.1622283" lon="14.6330567"><ele>57.0</ele><time>2026-04-09T11:16:00.838Z</time></trkpt><trkpt lat="42.1622983" lon="14.6329383"><ele>56.8</ele><time>2026-04-09T11:16:02.837Z</time></trkpt><trkpt lat="42.1623717" lon="14.6328183"><ele>56.6</ele><time>2026-04-09T11:16:04.838Z</time></trkpt><trkpt lat="42.1624467" lon="14.6327133"><ele>56.39999999999999</ele><time>2026-04-09T11:16:06.837Z</time></trkpt><trkpt lat="42.16252" lon="14.6326"><ele>56.199999999999996</ele><time>2026-04-09T11:16:08.837Z</time></trkpt><trkpt lat="42.1626017" lon="14.6324983"><ele>56.0</ele><time>2026-04-09T11:16:10.837Z</time></trkpt><trkpt lat="42.162685" lon="14.6324117"><ele>56.0</ele><time>2026-04-09T11:16:12.837Z</time></trkpt><trkpt lat="42.16277" lon="14.6323333"><ele>55.99999999999999</ele><time>2026-04-09T11:16:14.837Z</time></trkpt><trkpt lat="42.1628533" lon="14.63224"><ele>55.99999999999999</ele><time>2026-04-09T11:16:16.837Z</time></trkpt><trkpt lat="42.162915" lon="14.6321083"><ele>56.0</ele><time>2026-04-09T11:16:18.837Z</time></trkpt><trkpt lat="42.1629333" lon="14.631955"><ele>56.0</ele><time>2026-04-09T11:16:20.837Z</time></trkpt><trkpt lat="42.162905" lon="14.6318117"><ele>57.599999999999994</ele><time>2026-04-09T11:16:22.837Z</time></trkpt><trkpt lat="42.162825" lon="14.6317283"><ele>59.199999999999996</ele><time>2026-04-09T11:16:24.837Z</time></trkpt><trkpt lat="42.162715" lon="14.6316933"><ele>60.800000000000004</ele><time>2026-04-09T11:16:26.837Z</time></trkpt><trkpt lat="42.1626083" lon="14.6317167"><ele>62.400000000000006</ele><time>2026-04-09T11:16:28.837Z</time></trkpt><trkpt lat="42.1624983" lon="14.6317817"><ele>64.0</ele><time>2026-04-09T11:16:30.837Z</time></trkpt><trkpt lat="42.1624433" lon="14.631825"><ele>64.5</ele><time>2026-04-09T11:16:31.838Z</time></trkpt><trkpt lat="42.162335" lon="14.6319083"><ele>65.0</ele><time>2026-04-09T11:16:33.837Z</time></trkpt><trkpt lat="42.162235" lon="14.631985"><ele>65.5</ele><time>2026-04-09T11:16:35.838Z</time></trkpt><trkpt lat="42.162125" lon="14.6320617"><ele>66.0</ele><time>2026-04-09T11:16:37.838Z</time></trkpt><trkpt lat="42.162025" lon="14.63214"><ele>66.0</ele><time>2026-04-09T11:16:39.838Z</time></trkpt><trkpt lat="42.1619283" lon="14.632215"><ele>66.0</ele><time>2026-04-09T11:16:41.837Z</time></trkpt><trkpt lat="42.1618317" lon="14.6322967"><ele>66.0</ele><time>2026-04-09T11:16:43.838Z</time></trkpt><trkpt lat="42.161735" lon="14.6323667"><ele>66.0</ele><time>2026-04-09T11:16:45.837Z</time></trkpt><trkpt lat="42.1616417" lon="14.63244"><ele>66.0</ele><time>2026-04-09T11:16:47.838Z</time></trkpt><trkpt lat="42.161555" lon="14.632505"><ele>65.2</ele><time>2026-04-09T11:16:49.837Z</time></trkpt><trkpt lat="42.161475" lon="14.632565"><ele>64.39999999999999</ele><time>2026-04-09T11:16:51.837Z</time></trkpt><trkpt lat="42.1613783" lon="14.6326217"><ele>63.6</ele><time>2026-04-09T11:16:53.837Z</time></trkpt><trkpt lat="42.16129" lon="14.63269"><ele>62.8</ele><time>2026-04-09T11:16:55.837Z</time></trkpt><trkpt lat="42.1611883" lon="14.6327583"><ele>62.0</ele><time>2026-04-09T11:16:57.837Z</time></trkpt><trkpt lat="42.161085" lon="14.6328267"><ele>62.0</ele><time>2026-04-09T11:16:59.837Z</time></trkpt><trkpt lat="42.161025" lon="14.6328617"><ele>62.0</ele><time>2026-04-09T11:17:00.837Z</time></trkpt><trkpt lat="42.1609133" lon="14.632925"><ele>62.0</ele><time>2026-04-09T11:17:02.837Z</time></trkpt><trkpt lat="42.1608017" lon="14.6329517"><ele>62.0</ele><time>2026-04-09T11:17:04.837Z</time></trkpt><trkpt lat="42.1606967" lon="14.6329233"><ele>62.0</ele><time>2026-04-09T11:17:06.837Z</time></trkpt><trkpt lat="42.1606133" lon="14.6328283"><ele>62.0</ele><time>2026-04-09T11:17:08.837Z</time></trkpt><trkpt lat="42.1605483" lon="14.6327033"><ele>62.0</ele><time>2026-04-09T11:17:10.838Z</time></trkpt><trkpt lat="42.1605133" lon="14.6325583"><ele>62.0</ele><time>2026-04-09T11:17:12.837Z</time></trkpt><trkpt lat="42.1604733" lon="14.6324183"><ele>62.0</ele><time>2026-04-09T11:17:14.838Z</time></trkpt><trkpt lat="42.1604517" lon="14.6322733"><ele>62.0</ele><time>2026-04-09T11:17:16.837Z</time></trkpt><trkpt lat="42.1604483" lon="14.6321333"><ele>62.0</ele><time>2026-04-09T11:17:18.837Z</time></trkpt><trkpt lat="42.1604467" lon="14.63199"><ele>62.0</ele><time>2026-04-09T11:17:20.837Z</time></trkpt><trkpt lat="42.1604283" lon="14.6318567"><ele>62.0</ele><time>2026-04-09T11:17:22.837Z</time></trkpt><trkpt lat="42.1604017" lon="14.6317233"><ele>62.0</ele><time>2026-04-09T11:17:24.837Z</time></trkpt><trkpt lat="42.1603583" lon="14.6315817"><ele>62.0</ele><time>2026-04-09T11:17:26.838Z</time></trkpt><trkpt lat="42.160315" lon="14.6314417"><ele>64.0</ele><time>2026-04-09T11:17:28.837Z</time></trkpt><trkpt lat="42.1602683" lon="14.6312967"><ele>66.0</ele><time>2026-04-09T11:17:30.837Z</time></trkpt><trkpt lat="42.1602317" lon="14.6311433"><ele>68.0</ele><time>2026-04-09T11:17:32.837Z</time></trkpt><trkpt lat="42.16021" lon="14.6309817"><ele>70.0</ele><time>2026-04-09T11:17:34.837Z</time></trkpt><trkpt lat="42.1602017" lon="14.630815"><ele>71.2</ele><time>2026-04-09T11:17:36.837Z</time></trkpt><trkpt lat="42.1602017" lon="14.6306567"><ele>72.4</ele><time>2026-04-09T11:17:38.837Z</time></trkpt><trkpt lat="42.1602067" lon="14.630565"><ele>73.6</ele><time>2026-04-09T11:17:39.837Z</time></trkpt><trkpt lat="42.1602233" lon="14.630405"><ele>74.8</ele><time>2026-04-09T11:17:41.837Z</time></trkpt><trkpt lat="42.160225" lon="14.6303183"><ele>76.0</ele><time>2026-04-09T11:17:42.837Z</time></trkpt><trkpt lat="42.1602267" lon="14.6301583"><ele>77.25</ele><time>2026-04-09T11:17:44.837Z</time></trkpt><trkpt lat="42.160235" lon="14.6300067"><ele>78.5</ele><time>2026-04-09T11:17:46.837Z</time></trkpt><trkpt lat="42.1602467" lon="14.6298433"><ele>79.75</ele><time>2026-04-09T11:17:48.837Z</time></trkpt><trkpt lat="42.1602617" lon="14.6296967"><ele>81.0</ele><time>2026-04-09T11:17:50.837Z</time></trkpt><trkpt lat="42.1602817" lon="14.629555"><ele>81.33333333333333</ele><time>2026-04-09T11:17:52.838Z</time></trkpt><trkpt lat="42.1603083" lon="14.6294133"><ele>81.66666666666667</ele><time>2026-04-09T11:17:54.838Z</time></trkpt><trkpt lat="42.1603283" lon="14.6292667"><ele>82.0</ele><time>2026-04-09T11:17:56.837Z</time></trkpt><trkpt lat="42.1603383" lon="14.6291817"><ele>82.33333333333334</ele><time>2026-04-09T11:17:57.837Z</time></trkpt><trkpt lat="42.1603517" lon="14.6290967"><ele>82.66666666666667</ele><time>2026-04-09T11:17:58.837Z</time></trkpt><trkpt lat="42.160365" lon="14.6290083"><ele>83.0</ele><time>2026-04-09T11:17:59.837Z</time></trkpt><trkpt lat="42.160385" lon="14.628845"><ele>83.0</ele><time>2026-04-09T11:18:01.837Z</time></trkpt><trkpt lat="42.1604067" lon="14.62869"><ele>83.0</ele><time>2026-04-09T11:18:03.837Z</time></trkpt><trkpt lat="42.1604233" lon="14.6285267"><ele>83.0</ele><time>2026-04-09T11:18:05.837Z</time></trkpt><trkpt lat="42.160435" lon="14.6284417"><ele>83.0</ele><time>2026-04-09T11:18:06.837Z</time></trkpt><trkpt lat="42.1604533" lon="14.628285"><ele>83.0</ele><time>2026-04-09T11:18:08.838Z</time></trkpt><trkpt lat="42.16047" lon="14.62814"><ele>83.2</ele><time>2026-04-09T11:18:10.838Z</time></trkpt><trkpt lat="42.1604883" lon="14.6279933"><ele>83.4</ele><time>2026-04-09T11:18:12.837Z</time></trkpt><trkpt lat="42.160515" lon="14.6278417"><ele>83.60000000000001</ele><time>2026-04-09T11:18:14.837Z</time></trkpt><trkpt lat="42.1605383" lon="14.6276817"><ele>83.80000000000001</ele><time>2026-04-09T11:18:16.837Z</time></trkpt><trkpt lat="42.1605483" lon="14.6275967"><ele>84.0</ele><time>2026-04-09T11:18:17.837Z</time></trkpt><trkpt lat="42.1605667" lon="14.6274433"><ele>84.75</ele><time>2026-04-09T11:18:19.837Z</time></trkpt><trkpt lat="42.1605933" lon="14.62729"><ele>85.5</ele><time>2026-04-09T11:18:21.837Z</time></trkpt><trkpt lat="42.1606167" lon="14.6271367"><ele>86.25</ele><time>2026-04-09T11:18:23.837Z</time></trkpt><trkpt lat="42.16064" lon="14.626985"><ele>87.0</ele><time>2026-04-09T11:18:25.838Z</time></trkpt><trkpt lat="42.160665" lon="14.6268317"><ele>87.19999999999999</ele><time>2026-04-09T11:18:27.837Z</time></trkpt><trkpt lat="42.16069" lon="14.62668"><ele>87.4</ele><time>2026-04-09T11:18:29.837Z</time></trkpt><trkpt lat="42.1607117" lon="14.6265167"><ele>87.6</ele><time>2026-04-09T11:18:31.837Z</time></trkpt><trkpt lat="42.16074" lon="14.6263817"><ele>87.80000000000001</ele><time>2026-04-09T11:18:33.838Z</time></trkpt><trkpt lat="42.1607833" lon="14.6262683"><ele>88.0</ele><time>2026-04-09T11:18:35.837Z</time></trkpt><trkpt lat="42.1608517" lon="14.6261617"><ele>89.75</ele><time>2026-04-09T11:18:37.837Z</time></trkpt><trkpt lat="42.160925" lon="14.6260567"><ele>91.5</ele><time>2026-04-09T11:18:39.838Z</time></trkpt><trkpt lat="42.1610167" lon="14.6259567"><ele>93.25</ele><time>2026-04-09T11:18:41.837Z</time></trkpt><trkpt lat="42.16111" lon="14.6258483"><ele>95.0</ele><time>2026-04-09T11:18:43.837Z</time></trkpt><trkpt lat="42.1612017" lon="14.6257483"><ele>95.0</ele><time>2026-04-09T11:18:45.837Z</time></trkpt><trkpt lat="42.1612917" lon="14.625655"><ele>95.0</ele><time>2026-04-09T11:18:47.838Z</time></trkpt><trkpt lat="42.161385" lon="14.6255583"><ele>95.0</ele><time>2026-04-09T11:18:49.837Z</time></trkpt><trkpt lat="42.1614767" lon="14.6254733"><ele>95.0</ele><time>2026-04-09T11:18:51.837Z</time></trkpt><trkpt lat="42.16157" lon="14.6253717"><ele>96.5</ele><time>2026-04-09T11:18:53.837Z</time></trkpt><trkpt lat="42.1616617" lon="14.625275"><ele>98.0</ele><time>2026-04-09T11:18:55.837Z</time></trkpt><trkpt lat="42.1617367" lon="14.6251633"><ele>99.5</ele><time>2026-04-09T11:18:57.837Z</time></trkpt><trkpt lat="42.161805" lon="14.6250433"><ele>101.0</ele><time>2026-04-09T11:18:59.837Z</time></trkpt><trkpt lat="42.1618683" lon="14.6249117"><ele>101.0</ele><time>2026-04-09T11:19:01.837Z</time></trkpt><trkpt lat="42.1619217" lon="14.6247683"><ele>101.0</ele><time>2026-04-09T11:19:03.837Z</time></trkpt><trkpt lat="42.1619567" lon="14.6246117"><ele>101.0</ele><time>2026-04-09T11:19:05.838Z</time></trkpt><trkpt lat="42.16199" lon="14.624455"><ele>101.0</ele><time>2026-04-09T11:19:07.838Z</time></trkpt><trkpt lat="42.1620267" lon="14.624305"><ele>102.0</ele><time>2026-04-09T11:19:09.837Z</time></trkpt><trkpt lat="42.1620633" lon="14.6241667"><ele>103.0</ele><time>2026-04-09T11:19:11.837Z</time></trkpt><trkpt lat="42.1620983" lon="14.624025"><ele>104.0</ele><time>2026-04-09T11:19:13.837Z</time></trkpt><trkpt lat="42.1621317" lon="14.6238883"><ele>105.0</ele><time>2026-04-09T11:19:15.837Z</time></trkpt><trkpt lat="42.1621533" lon="14.6237533"><ele>106.0</ele><time>2026-04-09T11:19:17.837Z</time></trkpt><trkpt lat="42.1621583" lon="14.623615"><ele>106.8</ele><time>2026-04-09T11:19:19.837Z</time></trkpt><trkpt lat="42.1621367" lon="14.6234767"><ele>107.6</ele><time>2026-04-09T11:19:21.837Z</time></trkpt><trkpt lat="42.1620967" lon="14.6233383"><ele>108.4</ele><time>2026-04-09T11:19:23.837Z</time></trkpt><trkpt lat="42.1620417" lon="14.623205"><ele>109.2</ele><time>2026-04-09T11:19:25.837Z</time></trkpt><trkpt lat="42.1619867" lon="14.6230717"><ele>110.0</ele><time>2026-04-09T11:19:27.837Z</time></trkpt><trkpt lat="42.1619167" lon="14.6229483"><ele>110.0</ele><time>2026-04-09T11:19:29.837Z</time></trkpt><trkpt lat="42.1618617" lon="14.622815"><ele>110.0</ele><time>2026-04-09T11:19:31.837Z</time></trkpt><trkpt lat="42.1617967" lon="14.6226833"><ele>110.0</ele><time>2026-04-09T11:19:33.837Z</time></trkpt><trkpt lat="42.1617333" lon="14.6225533"><ele>110.0</ele><time>2026-04-09T11:19:35.837Z</time></trkpt><trkpt lat="42.1616783" lon="14.6224267"><ele>110.5</ele><time>2026-04-09T11:19:37.837Z</time></trkpt><trkpt lat="42.1616167" lon="14.622305"><ele>111.0</ele><time>2026-04-09T11:19:39.837Z</time></trkpt><trkpt lat="42.161555" lon="14.6221767"><ele>111.5</ele><time>2026-04-09T11:19:41.837Z</time></trkpt><trkpt lat="42.16149" lon="14.6220433"><ele>112.0</ele><time>2026-04-09T11:19:43.837Z</time></trkpt><trkpt lat="42.1614267" lon="14.62191"><ele>112.5</ele><time>2026-04-09T11:19:45.837Z</time></trkpt><trkpt lat="42.1613667" lon="14.6217833"><ele>113.0</ele><time>2026-04-09T11:19:47.837Z</time></trkpt><trkpt lat="42.1612933" lon="14.621655"><ele>113.5</ele><time>2026-04-09T11:19:49.837Z</time></trkpt><trkpt lat="42.16123" lon="14.6215233"><ele>114.0</ele><time>2026-04-09T11:19:51.837Z</time></trkpt><trkpt lat="42.16117" lon="14.6213917"><ele>114.0</ele><time>2026-04-09T11:19:53.837Z</time></trkpt><trkpt lat="42.1611133" lon="14.6212683"><ele>114.0</ele><time>2026-04-09T11:19:55.837Z</time></trkpt><trkpt lat="42.1610467" lon="14.6211467"><ele>114.0</ele><time>2026-04-09T11:19:57.838Z</time></trkpt><trkpt lat="42.1609733" lon="14.6210183"><ele>114.0</ele><time>2026-04-09T11:19:59.838Z</time></trkpt><trkpt lat="42.1609067" lon="14.6208883"><ele>114.75</ele><time>2026-04-09T11:20:01.837Z</time></trkpt><trkpt lat="42.1608333" lon="14.6207567"><ele>115.5</ele><time>2026-04-09T11:20:03.837Z</time></trkpt><trkpt lat="42.1607717" lon="14.6206267"><ele>116.25</ele><time>2026-04-09T11:20:05.837Z</time></trkpt><trkpt lat="42.1607117" lon="14.6204967"><ele>117.0</ele><time>2026-04-09T11:20:07.837Z</time></trkpt><trkpt lat="42.160645" lon="14.62037"><ele>117.75</ele><time>2026-04-09T11:20:09.837Z</time></trkpt><trkpt lat="42.160575" lon="14.62024"><ele>118.5</ele><time>2026-04-09T11:20:11.837Z</time></trkpt><trkpt lat="42.16051" lon="14.6201033"><ele>119.25</ele><time>2026-04-09T11:20:13.837Z</time></trkpt><trkpt lat="42.1604483" lon="14.619975"><ele>120.0</ele><time>2026-04-09T11:20:15.837Z</time></trkpt><trkpt lat="42.16039" lon="14.6198417"><ele>120.0</ele><time>2026-04-09T11:20:17.837Z</time></trkpt><trkpt lat="42.1603233" lon="14.6197233"><ele>120.0</ele><time>2026-04-09T11:20:19.838Z</time></trkpt><trkpt lat="42.1602583" lon="14.6195867"><ele>120.0</ele><time>2026-04-09T11:20:21.837Z</time></trkpt><trkpt lat="42.1601933" lon="14.619455"><ele>120.0</ele><time>2026-04-09T11:20:23.837Z</time></trkpt><trkpt lat="42.1601367" lon="14.6193267"><ele>120.5</ele><time>2026-04-09T11:20:25.838Z</time></trkpt><trkpt lat="42.1600767" lon="14.6191983"><ele>121.0</ele><time>2026-04-09T11:20:27.837Z</time></trkpt><trkpt lat="42.1600133" lon="14.6190667"><ele>121.5</ele><time>2026-04-09T11:20:29.837Z</time></trkpt><trkpt lat="42.1599517" lon="14.6189367"><ele>122.0</ele><time>2026-04-09T11:20:31.838Z</time></trkpt><trkpt lat="42.159875" lon="14.618815"><ele>122.0</ele><time>2026-04-09T11:20:33.837Z</time></trkpt><trkpt lat="42.15981" lon="14.6186867"><ele>122.0</ele><time>2026-04-09T11:20:35.837Z</time></trkpt><trkpt lat="42.1597533" lon="14.6185533"><ele>122.0</ele><time>2026-04-09T11:20:37.838Z</time></trkpt><trkpt lat="42.1596817" lon="14.6184167"><ele>122.0</ele><time>2026-04-09T11:20:39.837Z</time></trkpt><trkpt lat="42.159615" lon="14.618285"><ele>122.75</ele><time>2026-04-09T11:20:41.837Z</time></trkpt><trkpt lat="42.1595533" lon="14.6181533"><ele>123.5</ele><time>2026-04-09T11:20:43.837Z</time></trkpt><trkpt lat="42.1594867" lon="14.6180217"><ele>124.25</ele><time>2026-04-09T11:20:45.837Z</time></trkpt><trkpt lat="42.1594233" lon="14.6178917"><ele>125.0</ele><time>2026-04-09T11:20:47.838Z</time></trkpt><trkpt lat="42.1593633" lon="14.6177683"><ele>125.4</ele><time>2026-04-09T11:20:49.838Z</time></trkpt><trkpt lat="42.1593" lon="14.6176333"><ele>125.8</ele><time>2026-04-09T11:20:51.837Z</time></trkpt><trkpt lat="42.1592333" lon="14.6175067"><ele>126.19999999999999</ele><time>2026-04-09T11:20:53.838Z</time></trkpt><trkpt lat="42.1591783" lon="14.6173867"><ele>126.6</ele><time>2026-04-09T11:20:55.837Z</time></trkpt><trkpt lat="42.1591183" lon="14.6172617"><ele>127.0</ele><time>2026-04-09T11:20:57.837Z</time></trkpt><trkpt lat="42.1590517" lon="14.6171317"><ele>127.5</ele><time>2026-04-09T11:20:59.837Z</time></trkpt><trkpt lat="42.1589833" lon="14.6170083"><ele>128.0</ele><time>2026-04-09T11:21:01.837Z</time></trkpt><trkpt lat="42.1589233" lon="14.6168767"><ele>128.5</ele><time>2026-04-09T11:21:03.837Z</time></trkpt><trkpt lat="42.1588517" lon="14.6167483"><ele>129.0</ele><time>2026-04-09T11:21:05.837Z</time></trkpt><trkpt lat="42.1587917" lon="14.61662"><ele>129.4</ele><time>2026-04-09T11:21:07.837Z</time></trkpt><trkpt lat="42.1587367" lon="14.616495"><ele>129.8</ele><time>2026-04-09T11:21:09.837Z</time></trkpt><trkpt lat="42.1586767" lon="14.6163667"><ele>130.2</ele><time>2026-04-09T11:21:11.837Z</time></trkpt><trkpt lat="42.158605" lon="14.616245"><ele>130.6</ele><time>2026-04-09T11:21:13.837Z</time></trkpt><trkpt lat="42.158545" lon="14.6161267"><ele>131.0</ele><time>2026-04-09T11:21:15.837Z</time></trkpt><trkpt lat="42.1584833" lon="14.6159983"><ele>131.2</ele><time>2026-04-09T11:21:17.837Z</time></trkpt><trkpt lat="42.158415" lon="14.6158717"><ele>131.39999999999998</ele><time>2026-04-09T11:21:19.838Z</time></trkpt><trkpt lat="42.158355" lon="14.6157433"><ele>131.6</ele><time>2026-04-09T11:21:21.837Z</time></trkpt><trkpt lat="42.1582917" lon="14.61562"><ele>131.79999999999998</ele><time>2026-04-09T11:21:23.837Z</time></trkpt><trkpt lat="42.1582267" lon="14.6155333"><ele>132.0</ele><time>2026-04-09T11:21:25.837Z</time></trkpt><trkpt lat="42.1581967" lon="14.6154233"><ele>132.0</ele><time>2026-04-09T11:21:27.838Z</time></trkpt><trkpt lat="42.1582067" lon="14.6152983"><ele>132.0</ele><time>2026-04-09T11:21:29.837Z</time></trkpt><trkpt lat="42.1582117" lon="14.6151533"><ele>132.0</ele><time>2026-04-09T11:21:31.837Z</time></trkpt><trkpt lat="42.1581917" lon="14.6150167"><ele>132.0</ele><time>2026-04-09T11:21:33.837Z</time></trkpt><trkpt lat="42.158115" lon="14.6149267"><ele>132.0</ele><time>2026-04-09T11:21:35.837Z</time></trkpt><trkpt lat="42.1580017" lon="14.6148883"><ele>132.5</ele><time>2026-04-09T11:21:37.837Z</time></trkpt><trkpt lat="42.157905" lon="14.6148067"><ele>133.0</ele><time>2026-04-09T11:21:39.837Z</time></trkpt><trkpt lat="42.1578383" lon="14.6146867"><ele>133.5</ele><time>2026-04-09T11:21:41.837Z</time></trkpt><trkpt lat="42.15777" lon="14.614555"><ele>134.0</ele><time>2026-04-09T11:21:43.838Z</time></trkpt><trkpt lat="42.1577033" lon="14.6144183"><ele>134.0</ele><time>2026-04-09T11:21:45.837Z</time></trkpt><trkpt lat="42.1576333" lon="14.6142867"><ele>134.0</ele><time>2026-04-09T11:21:47.837Z</time></trkpt><trkpt lat="42.1575767" lon="14.6141567"><ele>134.0</ele><time>2026-04-09T11:21:49.837Z</time></trkpt><trkpt lat="42.157505" lon="14.6140217"><ele>134.0</ele><time>2026-04-09T11:21:51.837Z</time></trkpt><trkpt lat="42.1574667" lon="14.6139533"><ele>134.0</ele><time>2026-04-09T11:21:52.837Z</time></trkpt><trkpt lat="42.1574283" lon="14.6138817"><ele>134.0</ele><time>2026-04-09T11:21:53.837Z</time></trkpt><trkpt lat="42.1573617" lon="14.6137417"><ele>134.0</ele><time>2026-04-09T11:21:55.837Z</time></trkpt><trkpt lat="42.157295" lon="14.6136117"><ele>134.0</ele><time>2026-04-09T11:21:57.837Z</time></trkpt><trkpt lat="42.15724" lon="14.6134833"><ele>134.0</ele><time>2026-04-09T11:21:59.837Z</time></trkpt><trkpt lat="42.157175" lon="14.6133483"><ele>134.0</ele><time>2026-04-09T11:22:01.838Z</time></trkpt><trkpt lat="42.1571133" lon="14.6132117"><ele>134.0</ele><time>2026-04-09T11:22:03.837Z</time></trkpt><trkpt lat="42.15705" lon="14.613075"><ele>134.0</ele><time>2026-04-09T11:22:05.837Z</time></trkpt><trkpt lat="42.1569933" lon="14.612955"><ele>134.0</ele><time>2026-04-09T11:22:07.837Z</time></trkpt><trkpt lat="42.1569517" lon="14.6128167"><ele>134.6</ele><time>2026-04-09T11:22:09.837Z</time></trkpt><trkpt lat="42.1569117" lon="14.6126817"><ele>135.2</ele><time>2026-04-09T11:22:11.837Z</time></trkpt><trkpt lat="42.1568783" lon="14.61253"><ele>135.79999999999998</ele><time>2026-04-09T11:22:13.837Z</time></trkpt><trkpt lat="42.1568433" lon="14.6123667"><ele>136.4</ele><time>2026-04-09T11:22:15.837Z</time></trkpt><trkpt lat="42.1568267" lon="14.61228"><ele>137.0</ele><time>2026-04-09T11:22:16.837Z</time></trkpt><trkpt lat="42.1568067" lon="14.6121967"><ele>137.0</ele><time>2026-04-09T11:22:17.837Z</time></trkpt><trkpt lat="42.1567733" lon="14.6120383"><ele>137.0</ele><time>2026-04-09T11:22:19.837Z</time></trkpt><trkpt lat="42.1567633" lon="14.61195"><ele>137.0</ele><time>2026-04-09T11:22:20.837Z</time></trkpt><trkpt lat="42.15675" lon="14.6118533"><ele>137.0</ele><time>2026-04-09T11:22:21.837Z</time></trkpt><trkpt lat="42.156735" lon="14.611765"><ele>137.0</ele><time>2026-04-09T11:22:22.837Z</time></trkpt><trkpt lat="42.1567183" lon="14.61168"><ele>137.0</ele><time>2026-04-09T11:22:23.837Z</time></trkpt><trkpt lat="42.156695" lon="14.6116"><ele>136.6</ele><time>2026-04-09T11:22:24.837Z</time></trkpt><trkpt lat="42.1566717" lon="14.6115167"><ele>136.2</ele><time>2026-04-09T11:22:25.837Z</time></trkpt><trkpt lat="42.15663" lon="14.611365"><ele>135.8</ele><time>2026-04-09T11:22:27.837Z</time></trkpt><trkpt lat="42.1565967" lon="14.6112083"><ele>135.4</ele><time>2026-04-09T11:22:29.837Z</time></trkpt><trkpt lat="42.156565" lon="14.6110417"><ele>135.0</ele><time>2026-04-09T11:22:31.838Z</time></trkpt><trkpt lat="42.1565467" lon="14.6109583"><ele>134.75</ele><time>2026-04-09T11:22:32.837Z</time></trkpt><trkpt lat="42.156515" lon="14.6108"><ele>134.5</ele><time>2026-04-09T11:22:34.837Z</time></trkpt><trkpt lat="42.1564783" lon="14.610645"><ele>134.25</ele><time>2026-04-09T11:22:36.838Z</time></trkpt><trkpt lat="42.1564383" lon="14.6104967"><ele>134.0</ele><time>2026-04-09T11:22:38.837Z</time></trkpt><trkpt lat="42.156405" lon="14.610345"><ele>134.25</ele><time>2026-04-09T11:22:40.837Z</time></trkpt><trkpt lat="42.1563667" lon="14.6101933"><ele>134.5</ele><time>2026-04-09T11:22:42.837Z</time></trkpt><trkpt lat="42.1563317" lon="14.6100417"><ele>134.75</ele><time>2026-04-09T11:22:44.837Z</time></trkpt><trkpt lat="42.1563017" lon="14.6098867"><ele>135.0</ele><time>2026-04-09T11:22:46.837Z</time></trkpt><trkpt lat="42.1562717" lon="14.6097433"><ele>135.0</ele><time>2026-04-09T11:22:48.837Z</time></trkpt><trkpt lat="42.15624" lon="14.6095833"><ele>135.0</ele><time>2026-04-09T11:22:50.837Z</time></trkpt><trkpt lat="42.156205" lon="14.6094433"><ele>135.0</ele><time>2026-04-09T11:22:52.838Z</time></trkpt><trkpt lat="42.1561767" lon="14.6092967"><ele>135.0</ele><time>2026-04-09T11:22:54.837Z</time></trkpt><trkpt lat="42.1561517" lon="14.609145"><ele>135.4</ele><time>2026-04-09T11:22:56.837Z</time></trkpt><trkpt lat="42.1561233" lon="14.608995"><ele>135.8</ele><time>2026-04-09T11:22:58.837Z</time></trkpt><trkpt lat="42.1560917" lon="14.6088517"><ele>136.2</ele><time>2026-04-09T11:23:00.837Z</time></trkpt><trkpt lat="42.15607" lon="14.60877"><ele>136.6</ele><time>2026-04-09T11:23:01.838Z</time></trkpt><trkpt lat="42.15605" lon="14.6086883"><ele>137.0</ele><time>2026-04-09T11:23:02.837Z</time></trkpt><trkpt lat="42.1560117" lon="14.6085317"><ele>137.0</ele><time>2026-04-09T11:23:04.837Z</time></trkpt><trkpt lat="42.1559783" lon="14.6083767"><ele>137.0</ele><time>2026-04-09T11:23:06.837Z</time></trkpt><trkpt lat="42.15595" lon="14.6082233"><ele>137.0</ele><time>2026-04-09T11:23:08.837Z</time></trkpt><trkpt lat="42.1559167" lon="14.60808"><ele>137.0</ele><time>2026-04-09T11:23:10.837Z</time></trkpt><trkpt lat="42.1558867" lon="14.6079383"><ele>136.75</ele><time>2026-04-09T11:23:12.838Z</time></trkpt><trkpt lat="42.1558533" lon="14.607795"><ele>136.5</ele><time>2026-04-09T11:23:14.837Z</time></trkpt><trkpt lat="42.1558167" lon="14.60764"><ele>136.25</ele><time>2026-04-09T11:23:16.837Z</time></trkpt><trkpt lat="42.1557883" lon="14.60749"><ele>136.0</ele><time>2026-04-09T11:23:18.837Z</time></trkpt><trkpt lat="42.155745" lon="14.607335"><ele>136.0</ele><time>2026-04-09T11:23:20.838Z</time></trkpt><trkpt lat="42.1557083" lon="14.6071867"><ele>136.0</ele><time>2026-04-09T11:23:22.837Z</time></trkpt><trkpt lat="42.1556717" lon="14.6070467"><ele>136.0</ele><time>2026-04-09T11:23:24.837Z</time></trkpt><trkpt lat="42.15563" lon="14.6069017"><ele>136.0</ele><time>2026-04-09T11:23:26.837Z</time></trkpt><trkpt lat="42.1555967" lon="14.6067517"><ele>136.6</ele><time>2026-04-09T11:23:28.837Z</time></trkpt><trkpt lat="42.155585" lon="14.606655"><ele>137.2</ele><time>2026-04-09T11:23:29.837Z</time></trkpt><trkpt lat="42.1555533" lon="14.6065117"><ele>137.8</ele><time>2026-04-09T11:23:31.837Z</time></trkpt><trkpt lat="42.1555267" lon="14.6063783"><ele>138.4</ele><time>2026-04-09T11:23:33.837Z</time></trkpt><trkpt lat="42.1554917" lon="14.60623"><ele>139.0</ele><time>2026-04-09T11:23:35.838Z</time></trkpt><trkpt lat="42.155465" lon="14.6060883"><ele>139.2</ele><time>2026-04-09T11:23:37.838Z</time></trkpt><trkpt lat="42.15543" lon="14.6059517"><ele>139.4</ele><time>2026-04-09T11:23:39.838Z</time></trkpt><trkpt lat="42.1554" lon="14.605815"><ele>139.6</ele><time>2026-04-09T11:23:41.837Z</time></trkpt><trkpt lat="42.15537" lon="14.6056667"><ele>139.8</ele><time>2026-04-09T11:23:43.837Z</time></trkpt><trkpt lat="42.1553367" lon="14.6055283"><ele>140.0</ele><time>2026-04-09T11:23:45.837Z</time></trkpt><trkpt lat="42.1553017" lon="14.605375"><ele>140.25</ele><time>2026-04-09T11:23:47.838Z</time></trkpt><trkpt lat="42.15527" lon="14.6052283"><ele>140.5</ele><time>2026-04-09T11:23:49.837Z</time></trkpt><trkpt lat="42.1552367" lon="14.60507"><ele>140.75</ele><time>2026-04-09T11:23:51.837Z</time></trkpt><trkpt lat="42.1551983" lon="14.6049167"><ele>141.0</ele><time>2026-04-09T11:23:53.837Z</time></trkpt><trkpt lat="42.1551667" lon="14.6047633"><ele>141.0</ele><time>2026-04-09T11:23:55.837Z</time></trkpt><trkpt lat="42.1551317" lon="14.6046067"><ele>141.0</ele><time>2026-04-09T11:23:57.837Z</time></trkpt><trkpt lat="42.155105" lon="14.6044533"><ele>141.0</ele><time>2026-04-09T11:23:59.837Z</time></trkpt><trkpt lat="42.1550783" lon="14.6043067"><ele>141.0</ele><time>2026-04-09T11:24:01.838Z</time></trkpt><trkpt lat="42.15505" lon="14.604165"><ele>141.25</ele><time>2026-04-09T11:24:03.838Z</time></trkpt><trkpt lat="42.1550167" lon="14.6040217"><ele>141.5</ele><time>2026-04-09T11:24:05.837Z</time></trkpt><trkpt lat="42.1549817" lon="14.6038717"><ele>141.75</ele><time>2026-04-09T11:24:07.837Z</time></trkpt><trkpt lat="42.1549467" lon="14.6037183"><ele>142.0</ele><time>2026-04-09T11:24:09.837Z</time></trkpt><trkpt lat="42.1549183" lon="14.6035683"><ele>142.2</ele><time>2026-04-09T11:24:11.837Z</time></trkpt><trkpt lat="42.1548817" lon="14.6034233"><ele>142.39999999999998</ele><time>2026-04-09T11:24:13.837Z</time></trkpt><trkpt lat="42.1548417" lon="14.6032733"><ele>142.60000000000002</ele><time>2026-04-09T11:24:15.837Z</time></trkpt><trkpt lat="42.15481" lon="14.6031233"><ele>142.8</ele><time>2026-04-09T11:24:17.838Z</time></trkpt><trkpt lat="42.1548" lon="14.6030383"><ele>143.0</ele><time>2026-04-09T11:24:18.837Z</time></trkpt><trkpt lat="42.1547617" lon="14.6028833"><ele>143.6</ele><time>2026-04-09T11:24:20.837Z</time></trkpt><trkpt lat="42.154725" lon="14.60274"><ele>144.20000000000002</ele><time>2026-04-09T11:24:22.837Z</time></trkpt><trkpt lat="42.1546917" lon="14.6026067"><ele>144.8</ele><time>2026-04-09T11:24:24.838Z</time></trkpt><trkpt lat="42.1546567" lon="14.60247"><ele>145.4</ele><time>2026-04-09T11:24:26.837Z</time></trkpt><trkpt lat="42.1546233" lon="14.6023233"><ele>146.0</ele><time>2026-04-09T11:24:28.837Z</time></trkpt><trkpt lat="42.1545867" lon="14.6021783"><ele>146.0</ele><time>2026-04-09T11:24:30.837Z</time></trkpt><trkpt lat="42.15456" lon="14.602035"><ele>146.0</ele><time>2026-04-09T11:24:32.837Z</time></trkpt><trkpt lat="42.154525" lon="14.60189"><ele>146.0</ele><time>2026-04-09T11:24:34.837Z</time></trkpt><trkpt lat="42.1544967" lon="14.60174"><ele>146.0</ele><time>2026-04-09T11:24:36.837Z</time></trkpt><trkpt lat="42.154465" lon="14.6015933"><ele>146.2</ele><time>2026-04-09T11:24:38.837Z</time></trkpt><trkpt lat="42.1544233" lon="14.6014367"><ele>146.39999999999998</ele><time>2026-04-09T11:24:40.837Z</time></trkpt><trkpt lat="42.154405" lon="14.6013533"><ele>146.6</ele><time>2026-04-09T11:24:41.838Z</time></trkpt><trkpt lat="42.15437" lon="14.6012117"><ele>146.79999999999998</ele><time>2026-04-09T11:24:43.837Z</time></trkpt><trkpt lat="42.1543367" lon="14.601065"><ele>147.0</ele><time>2026-04-09T11:24:45.837Z</time></trkpt><trkpt lat="42.154305" lon="14.6009117"><ele>147.25</ele><time>2026-04-09T11:24:47.837Z</time></trkpt><trkpt lat="42.1542733" lon="14.6007583"><ele>147.5</ele><time>2026-04-09T11:24:49.837Z</time></trkpt><trkpt lat="42.1542433" lon="14.60061"><ele>147.75</ele><time>2026-04-09T11:24:51.837Z</time></trkpt><trkpt lat="42.154215" lon="14.600465"><ele>148.0</ele><time>2026-04-09T11:24:53.837Z</time></trkpt><trkpt lat="42.1541933" lon="14.6003217"><ele>148.0</ele><time>2026-04-09T11:24:55.837Z</time></trkpt><trkpt lat="42.15416" lon="14.6001667"><ele>148.0</ele><time>2026-04-09T11:24:57.837Z</time></trkpt><trkpt lat="42.1541233" lon="14.6000217"><ele>148.0</ele><time>2026-04-09T11:24:59.837Z</time></trkpt><trkpt lat="42.1540883" lon="14.5998733"><ele>148.0</ele><time>2026-04-09T11:25:01.837Z</time></trkpt><trkpt lat="42.1540517" lon="14.599715"><ele>148.5</ele><time>2026-04-09T11:25:03.837Z</time></trkpt><trkpt lat="42.1540167" lon="14.5995717"><ele>149.0</ele><time>2026-04-09T11:25:05.837Z</time></trkpt><trkpt lat="42.15398" lon="14.5994117"><ele>149.5</ele><time>2026-04-09T11:25:07.837Z</time></trkpt><trkpt lat="42.15394" lon="14.5992633"><ele>150.0</ele><time>2026-04-09T11:25:09.837Z</time></trkpt><trkpt lat="42.1539117" lon="14.5991117"><ele>150.5</ele><time>2026-04-09T11:25:11.837Z</time></trkpt><trkpt lat="42.1538833" lon="14.5989717"><ele>151.0</ele><time>2026-04-09T11:25:13.837Z</time></trkpt><trkpt lat="42.1538467" lon="14.5988267"><ele>151.5</ele><time>2026-04-09T11:25:15.837Z</time></trkpt><trkpt lat="42.15381" lon="14.598675"><ele>152.0</ele><time>2026-04-09T11:25:17.837Z</time></trkpt><trkpt lat="42.1537783" lon="14.5985267"><ele>152.5</ele><time>2026-04-09T11:25:19.837Z</time></trkpt><trkpt lat="42.153745" lon="14.5983767"><ele>153.0</ele><time>2026-04-09T11:25:21.837Z</time></trkpt><trkpt lat="42.1537083" lon="14.5982233"><ele>153.5</ele><time>2026-04-09T11:25:23.837Z</time></trkpt><trkpt lat="42.153675" lon="14.5980667"><ele>154.0</ele><time>2026-04-09T11:25:25.837Z</time></trkpt><trkpt lat="42.1536483" lon="14.5979133"><ele>154.0</ele><time>2026-04-09T11:25:27.837Z</time></trkpt><trkpt lat="42.1536183" lon="14.59776"><ele>154.0</ele><time>2026-04-09T11:25:29.837Z</time></trkpt><trkpt lat="42.15358" lon="14.5976083"><ele>154.0</ele><time>2026-04-09T11:25:31.837Z</time></trkpt><trkpt lat="42.153545" lon="14.5974583"><ele>154.0</ele><time>2026-04-09T11:25:33.837Z</time></trkpt><trkpt lat="42.15351" lon="14.59731"><ele>154.0</ele><time>2026-04-09T11:25:35.838Z</time></trkpt><trkpt lat="42.1534767" lon="14.597165"><ele>154.0</ele><time>2026-04-09T11:25:37.837Z</time></trkpt><trkpt lat="42.15344" lon="14.59702"><ele>154.0</ele><time>2026-04-09T11:25:39.837Z</time></trkpt><trkpt lat="42.1534083" lon="14.5968817"><ele>154.0</ele><time>2026-04-09T11:25:41.837Z</time></trkpt><trkpt lat="42.1533783" lon="14.596755"><ele>154.0</ele><time>2026-04-09T11:25:43.837Z</time></trkpt><trkpt lat="42.1533617" lon="14.5966333"><ele>154.0</ele><time>2026-04-09T11:25:45.837Z</time></trkpt><trkpt lat="42.1533433" lon="14.596525"><ele>154.0</ele><time>2026-04-09T11:25:47.837Z</time></trkpt><trkpt lat="42.1533117" lon="14.5963983"><ele>154.0</ele><time>2026-04-09T11:25:49.837Z</time></trkpt><trkpt lat="42.1532817" lon="14.59625"><ele>154.0</ele><time>2026-04-09T11:25:51.837Z</time></trkpt><trkpt lat="42.1532467" lon="14.5960917"><ele>154.0</ele><time>2026-04-09T11:25:53.837Z</time></trkpt><trkpt lat="42.1532067" lon="14.5959367"><ele>154.25</ele><time>2026-04-09T11:25:55.837Z</time></trkpt><trkpt lat="42.1531817" lon="14.595785"><ele>154.5</ele><time>2026-04-09T11:25:57.838Z</time></trkpt><trkpt lat="42.153145" lon="14.595635"><ele>154.75</ele><time>2026-04-09T11:25:59.838Z</time></trkpt><trkpt lat="42.1531117" lon="14.59549"><ele>155.0</ele><time>2026-04-09T11:26:01.837Z</time></trkpt><trkpt lat="42.15308" lon="14.5953433"><ele>155.5</ele><time>2026-04-09T11:26:03.837Z</time></trkpt><trkpt lat="42.1530483" lon="14.595195"><ele>156.0</ele><time>2026-04-09T11:26:05.837Z</time></trkpt><trkpt lat="42.1530167" lon="14.5950483"><ele>156.5</ele><time>2026-04-09T11:26:07.837Z</time></trkpt><trkpt lat="42.15298" lon="14.5948983"><ele>157.0</ele><time>2026-04-09T11:26:09.838Z</time></trkpt><trkpt lat="42.1529467" lon="14.59476"><ele>157.0</ele><time>2026-04-09T11:26:11.837Z</time></trkpt><trkpt lat="42.1529183" lon="14.594615"><ele>157.0</ele><time>2026-04-09T11:26:13.837Z</time></trkpt><trkpt lat="42.152885" lon="14.5944683"><ele>157.0</ele><time>2026-04-09T11:26:15.837Z</time></trkpt><trkpt lat="42.152855" lon="14.5943117"><ele>157.0</ele><time>2026-04-09T11:26:17.837Z</time></trkpt><trkpt lat="42.152825" lon="14.594165"><ele>157.25</ele><time>2026-04-09T11:26:19.837Z</time></trkpt><trkpt lat="42.1527967" lon="14.59402"><ele>157.5</ele><time>2026-04-09T11:26:21.837Z</time></trkpt><trkpt lat="42.1527633" lon="14.59387"><ele>157.75</ele><time>2026-04-09T11:26:23.837Z</time></trkpt><trkpt lat="42.1527317" lon="14.5937233"><ele>158.0</ele><time>2026-04-09T11:26:25.837Z</time></trkpt><trkpt lat="42.152695" lon="14.5935767"><ele>158.8</ele><time>2026-04-09T11:26:27.837Z</time></trkpt><trkpt lat="42.1526517" lon="14.5934317"><ele>159.60000000000002</ele><time>2026-04-09T11:26:29.837Z</time></trkpt><trkpt lat="42.15262" lon="14.593285"><ele>160.39999999999998</ele><time>2026-04-09T11:26:31.838Z</time></trkpt><trkpt lat="42.1525933" lon="14.593145"><ele>161.2</ele><time>2026-04-09T11:26:33.838Z</time></trkpt><trkpt lat="42.152565" lon="14.593"><ele>162.0</ele><time>2026-04-09T11:26:35.838Z</time></trkpt><trkpt lat="42.1525333" lon="14.59285"><ele>162.6</ele><time>2026-04-09T11:26:37.838Z</time></trkpt><trkpt lat="42.1525" lon="14.5927033"><ele>163.2</ele><time>2026-04-09T11:26:39.838Z</time></trkpt><trkpt lat="42.1524683" lon="14.592555"><ele>163.8</ele><time>2026-04-09T11:26:41.838Z</time></trkpt><trkpt lat="42.152435" lon="14.5924217"><ele>164.4</ele><time>2026-04-09T11:26:43.837Z</time></trkpt><trkpt lat="42.1524033" lon="14.5922817"><ele>165.0</ele><time>2026-04-09T11:26:45.837Z</time></trkpt><trkpt lat="42.152375" lon="14.5921483"><ele>164.8</ele><time>2026-04-09T11:26:47.837Z</time></trkpt><trkpt lat="42.1523433" lon="14.59202"><ele>164.6</ele><time>2026-04-09T11:26:49.837Z</time></trkpt><trkpt lat="42.152315" lon="14.5918933"><ele>164.39999999999998</ele><time>2026-04-09T11:26:51.838Z</time></trkpt><trkpt lat="42.152285" lon="14.5917617"><ele>164.2</ele><time>2026-04-09T11:26:53.838Z</time></trkpt><trkpt lat="42.15227" lon="14.5915967"><ele>164.0</ele><time>2026-04-09T11:26:55.837Z</time></trkpt><trkpt lat="42.1522733" lon="14.5915083"><ele>164.0</ele><time>2026-04-09T11:26:56.837Z</time></trkpt><trkpt lat="42.1522767" lon="14.59142"><ele>164.0</ele><time>2026-04-09T11:26:57.837Z</time></trkpt><trkpt lat="42.1522667" lon="14.5913317"><ele>164.0</ele><time>2026-04-09T11:26:58.837Z</time></trkpt><trkpt lat="42.1522467" lon="14.59125"><ele>164.0</ele><time>2026-04-09T11:26:59.837Z</time></trkpt><trkpt lat="42.1522117" lon="14.5911783"><ele>164.0</ele><time>2026-04-09T11:27:00.837Z</time></trkpt><trkpt lat="42.1521367" lon="14.59105"><ele>164.0</ele><time>2026-04-09T11:27:02.837Z</time></trkpt><trkpt lat="42.1520817" lon="14.5909133"><ele>164.6</ele><time>2026-04-09T11:27:04.837Z</time></trkpt><trkpt lat="42.152035" lon="14.5907767"><ele>165.2</ele><time>2026-04-09T11:27:06.838Z</time></trkpt><trkpt lat="42.151995" lon="14.59063"><ele>165.79999999999998</ele><time>2026-04-09T11:27:08.837Z</time></trkpt><trkpt lat="42.1519483" lon="14.59049"><ele>166.39999999999998</ele><time>2026-04-09T11:27:10.837Z</time></trkpt><trkpt lat="42.1519083" lon="14.5903583"><ele>167.0</ele><time>2026-04-09T11:27:12.837Z</time></trkpt><trkpt lat="42.1518767" lon="14.59022"><ele>167.6</ele><time>2026-04-09T11:27:14.837Z</time></trkpt><trkpt lat="42.151845" lon="14.59008"><ele>168.2</ele><time>2026-04-09T11:27:16.837Z</time></trkpt><trkpt lat="42.1518133" lon="14.5899383"><ele>168.8</ele><time>2026-04-09T11:27:18.837Z</time></trkpt><trkpt lat="42.1517717" lon="14.5898"><ele>169.4</ele><time>2026-04-09T11:27:20.838Z</time></trkpt><trkpt lat="42.15173" lon="14.5896567"><ele>170.0</ele><time>2026-04-09T11:27:22.838Z</time></trkpt><trkpt lat="42.15169" lon="14.5895233"><ele>170.4</ele><time>2026-04-09T11:27:24.837Z</time></trkpt><trkpt lat="42.1516483" lon="14.58938"><ele>170.8</ele><time>2026-04-09T11:27:26.837Z</time></trkpt><trkpt lat="42.1516067" lon="14.5892417"><ele>171.2</ele><time>2026-04-09T11:27:28.837Z</time></trkpt><trkpt lat="42.15157" lon="14.58911"><ele>171.6</ele><time>2026-04-09T11:27:30.837Z</time></trkpt><trkpt lat="42.1515333" lon="14.588975"><ele>172.0</ele><time>2026-04-09T11:27:32.837Z</time></trkpt><trkpt lat="42.15148" lon="14.5888433"><ele>172.2</ele><time>2026-04-09T11:27:34.837Z</time></trkpt><trkpt lat="42.1514367" lon="14.58871"><ele>172.39999999999998</ele><time>2026-04-09T11:27:36.837Z</time></trkpt><trkpt lat="42.1513867" lon="14.5886"><ele>172.60000000000002</ele><time>2026-04-09T11:27:38.837Z</time></trkpt><trkpt lat="42.1513433" lon="14.5884667"><ele>172.8</ele><time>2026-04-09T11:27:40.838Z</time></trkpt><trkpt lat="42.1513083" lon="14.5883433"><ele>173.0</ele><time>2026-04-09T11:27:42.838Z</time></trkpt><trkpt lat="42.1512733" lon="14.588195"><ele>173.8</ele><time>2026-04-09T11:27:44.837Z</time></trkpt><trkpt lat="42.151235" lon="14.5880783"><ele>174.60000000000002</ele><time>2026-04-09T11:27:46.837Z</time></trkpt><trkpt lat="42.1511983" lon="14.5879433"><ele>175.39999999999998</ele><time>2026-04-09T11:27:48.837Z</time></trkpt><trkpt lat="42.151165" lon="14.5878183"><ele>176.2</ele><time>2026-04-09T11:27:50.837Z</time></trkpt><trkpt lat="42.1511267" lon="14.5877067"><ele>177.0</ele><time>2026-04-09T11:27:52.837Z</time></trkpt><trkpt lat="42.151085" lon="14.5875633"><ele>177.8</ele><time>2026-04-09T11:27:54.837Z</time></trkpt><trkpt lat="42.151055" lon="14.587415"><ele>178.6</ele><time>2026-04-09T11:27:56.837Z</time></trkpt><trkpt lat="42.15102" lon="14.58728"><ele>179.4</ele><time>2026-04-09T11:27:58.837Z</time></trkpt><trkpt lat="42.1509933" lon="14.5871583"><ele>180.20000000000002</ele><time>2026-04-09T11:28:00.837Z</time></trkpt><trkpt lat="42.1509667" lon="14.5870433"><ele>181.0</ele><time>2026-04-09T11:28:02.838Z</time></trkpt><trkpt lat="42.1509333" lon="14.5869283"><ele>181.5</ele><time>2026-04-09T11:28:04.838Z</time></trkpt><trkpt lat="42.1508967" lon="14.5868367"><ele>182.0</ele><time>2026-04-09T11:28:06.837Z</time></trkpt><trkpt lat="42.15086" lon="14.5867083"><ele>182.5</ele><time>2026-04-09T11:28:08.838Z</time></trkpt><trkpt lat="42.1508117" lon="14.586595"><ele>183.0</ele><time>2026-04-09T11:28:10.837Z</time></trkpt><trkpt lat="42.1507583" lon="14.586505"><ele>183.5</ele><time>2026-04-09T11:28:12.838Z</time></trkpt><trkpt lat="42.1506917" lon="14.586435"><ele>184.0</ele><time>2026-04-09T11:28:14.838Z</time></trkpt><trkpt lat="42.1506217" lon="14.5863767"><ele>184.6</ele><time>2026-04-09T11:28:16.837Z</time></trkpt><trkpt lat="42.1505317" lon="14.5863033"><ele>185.2</ele><time>2026-04-09T11:28:18.838Z</time></trkpt><trkpt lat="42.15041" lon="14.58626"><ele>185.79999999999998</ele><time>2026-04-09T11:28:20.837Z</time></trkpt><trkpt lat="42.1503117" lon="14.5862183"><ele>186.39999999999998</ele><time>2026-04-09T11:28:22.837Z</time></trkpt><trkpt lat="42.1502167" lon="14.5861967"><ele>187.0</ele><time>2026-04-09T11:28:24.837Z</time></trkpt><trkpt lat="42.1501217" lon="14.586175"><ele>188.2</ele><time>2026-04-09T11:28:26.837Z</time></trkpt><trkpt lat="42.1500233" lon="14.58617"><ele>189.39999999999998</ele><time>2026-04-09T11:28:28.837Z</time></trkpt><trkpt lat="42.1499483" lon="14.58616"><ele>190.60000000000002</ele><time>2026-04-09T11:28:30.837Z</time></trkpt><trkpt lat="42.1498483" lon="14.586115"><ele>191.8</ele><time>2026-04-09T11:28:32.837Z</time></trkpt><trkpt lat="42.14974" lon="14.5860383"><ele>193.0</ele><time>2026-04-09T11:28:34.837Z</time></trkpt><trkpt lat="42.1496533" lon="14.5859617"><ele>193.0</ele><time>2026-04-09T11:28:36.837Z</time></trkpt><trkpt lat="42.14958" lon="14.585885"><ele>193.0</ele><time>2026-04-09T11:28:38.837Z</time></trkpt><trkpt lat="42.1494983" lon="14.5858083"><ele>193.0</ele><time>2026-04-09T11:28:40.837Z</time></trkpt><trkpt lat="42.1494283" lon="14.58571"><ele>193.0</ele><time>2026-04-09T11:28:42.837Z</time></trkpt><trkpt lat="42.149355" lon="14.58561"><ele>193.0</ele><time>2026-04-09T11:28:44.838Z</time></trkpt><trkpt lat="42.1492983" lon="14.585515"><ele>192.99999999999997</ele><time>2026-04-09T11:28:46.837Z</time></trkpt><trkpt lat="42.1492333" lon="14.585445"><ele>193.0</ele><time>2026-04-09T11:28:48.837Z</time></trkpt><trkpt lat="42.1491967" lon="14.5853683"><ele>193.0</ele><time>2026-04-09T11:28:50.838Z</time></trkpt><trkpt lat="42.1491417" lon="14.58526"><ele>193.0</ele><time>2026-04-09T11:28:53.838Z</time></trkpt><trkpt lat="42.149115" lon="14.5851683"><ele>192.99999999999997</ele><time>2026-04-09T11:28:55.837Z</time></trkpt><trkpt lat="42.1490833" lon="14.5850483"><ele>193.0</ele><time>2026-04-09T11:28:57.837Z</time></trkpt><trkpt lat="42.1491017" lon="14.58496"><ele>193.66666666666666</ele><time>2026-04-09T11:28:59.837Z</time></trkpt><trkpt lat="42.149185" lon="14.5849633"><ele>194.33333333333331</ele><time>2026-04-09T11:29:02.837Z</time></trkpt><trkpt lat="42.1492667" lon="14.585045"><ele>195.0</ele><time>2026-04-09T11:29:04.837Z</time></trkpt><trkpt lat="42.1493467" lon="14.5851083"><ele>195.66666666666669</ele><time>2026-04-09T11:29:06.837Z</time></trkpt><trkpt lat="42.1494167" lon="14.585165"><ele>196.33333333333334</ele><time>2026-04-09T11:29:08.837Z</time></trkpt><trkpt lat="42.1494733" lon="14.5852233"><ele>197.0</ele><time>2026-04-09T11:29:10.837Z</time></trkpt><trkpt lat="42.1495517" lon="14.5852667"><ele>197.0</ele><time>2026-04-09T11:29:13.837Z</time></trkpt><trkpt lat="42.1496417" lon="14.5852383"><ele>197.0</ele><time>2026-04-09T11:29:16.838Z</time></trkpt><trkpt lat="42.149705" lon="14.585225"><ele>197.0</ele><time>2026-04-09T11:29:18.837Z</time></trkpt><trkpt lat="42.14978" lon="14.5852283"><ele>197.0</ele><time>2026-04-09T11:29:20.837Z</time></trkpt><trkpt lat="42.1498533" lon="14.5852333"><ele>197.0</ele><time>2026-04-09T11:29:23.838Z</time></trkpt><trkpt lat="42.15005" lon="14.5853283"><ele>205.0</ele><time>2026-04-09T11:30:29.029Z</time></trkpt><trkpt lat="42.1499817" lon="14.5853967"><ele>195.0</ele><time>2026-04-09T11:30:30.334Z</time></trkpt><trkpt lat="42.1498817" lon="14.5852033"><ele>205.0</ele><time>2026-04-09T11:30:31.334Z</time></trkpt></trkseg></trk></gpx>